<?xml version="1.0" encoding="utf-8"?>
<gpx xmlns:xsi="http://www.w3.org/2001/XMLSchema-instance" xmlns:xsd="http://www.w3.org/2001/XMLSchema" version="1.1" creator="Shapelink.com" xmlns="http://www.topografix.com/GPX/1/1" xmlns:gpxtpx="http://www.garmin.com/xmlschemas/TrackPointExtension/v1">
  <metadata>
    <name>Sykling 41.64 km, 2013-04-09</name>
    <desc></desc>
    <author><name>Mikael Blom</name></author> 
    <time>2013-04-09T16:30:42Z</time>
  </metadata>
  <trk>
    <name>Sykling 41.64 km, 2013-04-09</name>
    <trkseg>
      <trkpt lat="59.9788541" lon="17.7392461">
        <ele>41.474</ele>
        <time>2013-04-09T16:30:42Z</time>
      </trkpt>
      <trkpt lat="59.9788349" lon="17.7392467">
        <ele>40.9934</ele>
        <time>2013-04-09T16:30:43Z</time>
      </trkpt>
      <trkpt lat="59.9788159" lon="17.7392506">
        <ele>40.9934</ele>
        <time>2013-04-09T16:30:44Z</time>
      </trkpt>
      <trkpt lat="59.97879" lon="17.7392593">
        <ele>40.5128</ele>
        <time>2013-04-09T16:30:45Z</time>
      </trkpt>
      <trkpt lat="59.9787604" lon="17.7392616">
        <ele>39.5513</ele>
        <time>2013-04-09T16:30:46Z</time>
      </trkpt>
      <trkpt lat="59.9787278" lon="17.7392598">
        <ele>38.5901</ele>
        <time>2013-04-09T16:30:47Z</time>
      </trkpt>
      <trkpt lat="59.9786925" lon="17.7392559">
        <ele>38.1094</ele>
        <time>2013-04-09T16:30:48Z</time>
      </trkpt>
      <trkpt lat="59.9786549" lon="17.7392501">
        <ele>37.6287</ele>
        <time>2013-04-09T16:30:49Z</time>
      </trkpt>
      <trkpt lat="59.9786138" lon="17.739246">
        <ele>37.6287</ele>
        <time>2013-04-09T16:30:50Z</time>
      </trkpt>
      <trkpt lat="59.9785692" lon="17.7392378">
        <ele>37.1481</ele>
        <time>2013-04-09T16:30:51Z</time>
      </trkpt>
      <trkpt lat="59.9785221" lon="17.7392277">
        <ele>37.1481</ele>
        <time>2013-04-09T16:30:52Z</time>
      </trkpt>
      <trkpt lat="59.978473" lon="17.7392203">
        <ele>37.1481</ele>
        <time>2013-04-09T16:30:53Z</time>
      </trkpt>
      <trkpt lat="59.9784232" lon="17.7392142">
        <ele>37.1481</ele>
        <time>2013-04-09T16:30:54Z</time>
      </trkpt>
      <trkpt lat="59.9783729" lon="17.7392082">
        <ele>37.1481</ele>
        <time>2013-04-09T16:30:55Z</time>
      </trkpt>
      <trkpt lat="59.9783213" lon="17.7391977">
        <ele>36.6675</ele>
        <time>2013-04-09T16:30:56Z</time>
      </trkpt>
      <trkpt lat="59.9782689" lon="17.7391837">
        <ele>36.6675</ele>
        <time>2013-04-09T16:30:57Z</time>
      </trkpt>
      <trkpt lat="59.9782108" lon="17.7391671">
        <ele>35.7061</ele>
        <time>2013-04-09T16:30:58Z</time>
      </trkpt>
      <trkpt lat="59.9781513" lon="17.7391497">
        <ele>35.2255</ele>
        <time>2013-04-09T16:30:59Z</time>
      </trkpt>
      <trkpt lat="59.9780906" lon="17.739128">
        <ele>34.2642</ele>
        <time>2013-04-09T16:31:00Z</time>
      </trkpt>
      <trkpt lat="59.9780297" lon="17.7390992">
        <ele>33.7834</ele>
        <time>2013-04-09T16:31:01Z</time>
      </trkpt>
      <trkpt lat="59.9779683" lon="17.7390702">
        <ele>33.3029</ele>
        <time>2013-04-09T16:31:02Z</time>
      </trkpt>
      <trkpt lat="59.9779071" lon="17.7390444">
        <ele>32.8223</ele>
        <time>2013-04-09T16:31:03Z</time>
      </trkpt>
      <trkpt lat="59.9778451" lon="17.7390197">
        <ele>31.8607</ele>
        <time>2013-04-09T16:31:04Z</time>
      </trkpt>
      <trkpt lat="59.977783" lon="17.7389983">
        <ele>31.3801</ele>
        <time>2013-04-09T16:31:05Z</time>
      </trkpt>
      <trkpt lat="59.9777191" lon="17.7389859">
        <ele>30.4188</ele>
        <time>2013-04-09T16:31:06Z</time>
      </trkpt>
      <trkpt lat="59.9776528" lon="17.7389837">
        <ele>29.9381</ele>
        <time>2013-04-09T16:31:07Z</time>
      </trkpt>
      <trkpt lat="59.9775846" lon="17.7389917">
        <ele>29.4575</ele>
        <time>2013-04-09T16:31:08Z</time>
      </trkpt>
      <trkpt lat="59.9775141" lon="17.7390098">
        <ele>29.4575</ele>
        <time>2013-04-09T16:31:09Z</time>
      </trkpt>
      <trkpt lat="59.9774416" lon="17.7390347">
        <ele>28.9769</ele>
        <time>2013-04-09T16:31:10Z</time>
      </trkpt>
      <trkpt lat="59.9773675" lon="17.7390647">
        <ele>28.4962</ele>
        <time>2013-04-09T16:31:11Z</time>
      </trkpt>
      <trkpt lat="59.9772933" lon="17.7391014">
        <ele>28.0155</ele>
        <time>2013-04-09T16:31:12Z</time>
      </trkpt>
      <trkpt lat="59.9772189" lon="17.7391445">
        <ele>27.0543</ele>
        <time>2013-04-09T16:31:13Z</time>
      </trkpt>
      <trkpt lat="59.9771447" lon="17.7391904">
        <ele>26.5736</ele>
        <time>2013-04-09T16:31:14Z</time>
      </trkpt>
      <trkpt lat="59.9770702" lon="17.7392341">
        <ele>26.0929</ele>
        <time>2013-04-09T16:31:15Z</time>
      </trkpt>
      <trkpt lat="59.9769952" lon="17.7392715">
        <ele>25.6123</ele>
        <time>2013-04-09T16:31:16Z</time>
      </trkpt>
      <trkpt lat="59.9769201" lon="17.7393042">
        <ele>25.1317</ele>
        <time>2013-04-09T16:31:17Z</time>
      </trkpt>
      <trkpt lat="59.9768453" lon="17.7393368">
        <ele>24.651</ele>
        <time>2013-04-09T16:31:18Z</time>
      </trkpt>
      <trkpt lat="59.9767703" lon="17.7393717">
        <ele>24.1703</ele>
        <time>2013-04-09T16:31:19Z</time>
      </trkpt>
      <trkpt lat="59.9766952" lon="17.7394134">
        <ele>23.6896</ele>
        <time>2013-04-09T16:31:20Z</time>
      </trkpt>
      <trkpt lat="59.9766206" lon="17.7394672">
        <ele>23.209</ele>
        <time>2013-04-09T16:31:21Z</time>
      </trkpt>
      <trkpt lat="59.9765489" lon="17.7395376">
        <ele>22.7283</ele>
        <time>2013-04-09T16:31:22Z</time>
      </trkpt>
      <trkpt lat="59.9764828" lon="17.7396248">
        <ele>22.7283</ele>
        <time>2013-04-09T16:31:23Z</time>
      </trkpt>
      <trkpt lat="59.9764227" lon="17.7397252">
        <ele>22.7283</ele>
        <time>2013-04-09T16:31:24Z</time>
      </trkpt>
      <trkpt lat="59.9763688" lon="17.7398336">
        <ele>22.7283</ele>
        <time>2013-04-09T16:31:25Z</time>
      </trkpt>
      <trkpt lat="59.9763228" lon="17.7399504">
        <ele>22.7283</ele>
        <time>2013-04-09T16:31:26Z</time>
      </trkpt>
      <trkpt lat="59.9762818" lon="17.7400734">
        <ele>23.209</ele>
        <time>2013-04-09T16:31:27Z</time>
      </trkpt>
      <trkpt lat="59.9762414" lon="17.7401974">
        <ele>23.209</ele>
        <time>2013-04-09T16:31:28Z</time>
      </trkpt>
      <trkpt lat="59.976201" lon="17.7403188">
        <ele>23.209</ele>
        <time>2013-04-09T16:31:29Z</time>
      </trkpt>
      <trkpt lat="59.9761612" lon="17.7404385">
        <ele>23.209</ele>
        <time>2013-04-09T16:31:30Z</time>
      </trkpt>
      <trkpt lat="59.9761221" lon="17.7405592">
        <ele>23.6896</ele>
        <time>2013-04-09T16:31:31Z</time>
      </trkpt>
      <trkpt lat="59.9760843" lon="17.7406833">
        <ele>23.6896</ele>
        <time>2013-04-09T16:31:32Z</time>
      </trkpt>
      <trkpt lat="59.9760475" lon="17.7408113">
        <ele>23.6896</ele>
        <time>2013-04-09T16:31:33Z</time>
      </trkpt>
      <trkpt lat="59.9760117" lon="17.7409408">
        <ele>24.1703</ele>
        <time>2013-04-09T16:31:34Z</time>
      </trkpt>
      <trkpt lat="59.9759772" lon="17.7410709">
        <ele>24.1703</ele>
        <time>2013-04-09T16:31:35Z</time>
      </trkpt>
      <trkpt lat="59.9759446" lon="17.7412014">
        <ele>24.1703</ele>
        <time>2013-04-09T16:31:36Z</time>
      </trkpt>
      <trkpt lat="59.9759138" lon="17.7413306">
        <ele>24.1703</ele>
        <time>2013-04-09T16:31:37Z</time>
      </trkpt>
      <trkpt lat="59.9758834" lon="17.7414591">
        <ele>24.651</ele>
        <time>2013-04-09T16:31:38Z</time>
      </trkpt>
      <trkpt lat="59.9758527" lon="17.741588">
        <ele>24.651</ele>
        <time>2013-04-09T16:31:39Z</time>
      </trkpt>
      <trkpt lat="59.9758213" lon="17.7417171">
        <ele>25.1317</ele>
        <time>2013-04-09T16:31:40Z</time>
      </trkpt>
      <trkpt lat="59.9757895" lon="17.7418457">
        <ele>25.1317</ele>
        <time>2013-04-09T16:31:41Z</time>
      </trkpt>
      <trkpt lat="59.9757561" lon="17.7419723">
        <ele>25.6123</ele>
        <time>2013-04-09T16:31:42Z</time>
      </trkpt>
      <trkpt lat="59.9757238" lon="17.7420987">
        <ele>25.6123</ele>
        <time>2013-04-09T16:31:43Z</time>
      </trkpt>
      <trkpt lat="59.9756916" lon="17.7422251">
        <ele>26.0929</ele>
        <time>2013-04-09T16:31:44Z</time>
      </trkpt>
      <trkpt lat="59.9756582" lon="17.7423518">
        <ele>26.0929</ele>
        <time>2013-04-09T16:31:45Z</time>
      </trkpt>
      <trkpt lat="59.9756244" lon="17.7424784">
        <ele>26.0929</ele>
        <time>2013-04-09T16:31:46Z</time>
      </trkpt>
      <trkpt lat="59.9755913" lon="17.7426064">
        <ele>26.0929</ele>
        <time>2013-04-09T16:31:47Z</time>
      </trkpt>
      <trkpt lat="59.9755581" lon="17.7427363">
        <ele>26.0929</ele>
        <time>2013-04-09T16:31:48Z</time>
      </trkpt>
      <trkpt lat="59.9755235" lon="17.7428678">
        <ele>26.0929</ele>
        <time>2013-04-09T16:31:49Z</time>
      </trkpt>
      <trkpt lat="59.9754886" lon="17.7430017">
        <ele>26.5736</ele>
        <time>2013-04-09T16:31:50Z</time>
      </trkpt>
      <trkpt lat="59.9754549" lon="17.7431389">
        <ele>26.5736</ele>
        <time>2013-04-09T16:31:51Z</time>
      </trkpt>
      <trkpt lat="59.9754227" lon="17.7432777">
        <ele>26.5736</ele>
        <time>2013-04-09T16:31:52Z</time>
      </trkpt>
      <trkpt lat="59.9753929" lon="17.7434172">
        <ele>26.5736</ele>
        <time>2013-04-09T16:31:53Z</time>
      </trkpt>
      <trkpt lat="59.9753655" lon="17.7435573">
        <ele>27.0543</ele>
        <time>2013-04-09T16:31:54Z</time>
      </trkpt>
      <trkpt lat="59.9753396" lon="17.7436992">
        <ele>27.0543</ele>
        <time>2013-04-09T16:31:55Z</time>
      </trkpt>
      <trkpt lat="59.9753142" lon="17.7438422">
        <ele>27.0543</ele>
        <time>2013-04-09T16:31:56Z</time>
      </trkpt>
      <trkpt lat="59.9752891" lon="17.7439858">
        <ele>27.0543</ele>
        <time>2013-04-09T16:31:57Z</time>
      </trkpt>
      <trkpt lat="59.9752632" lon="17.7441272">
        <ele>26.5736</ele>
        <time>2013-04-09T16:31:58Z</time>
      </trkpt>
      <trkpt lat="59.9752344" lon="17.7442675">
        <ele>26.5736</ele>
        <time>2013-04-09T16:31:59Z</time>
      </trkpt>
      <trkpt lat="59.9752032" lon="17.7444066">
        <ele>26.5736</ele>
        <time>2013-04-09T16:32:00Z</time>
      </trkpt>
      <trkpt lat="59.9751723" lon="17.7445395">
        <ele>26.5736</ele>
        <time>2013-04-09T16:32:01Z</time>
      </trkpt>
      <trkpt lat="59.9751399" lon="17.7446691">
        <ele>26.5736</ele>
        <time>2013-04-09T16:32:02Z</time>
      </trkpt>
      <trkpt lat="59.9751054" lon="17.744794">
        <ele>26.0929</ele>
        <time>2013-04-09T16:32:03Z</time>
      </trkpt>
      <trkpt lat="59.9750681" lon="17.7449144">
        <ele>26.0929</ele>
        <time>2013-04-09T16:32:04Z</time>
      </trkpt>
      <trkpt lat="59.975029" lon="17.7450338">
        <ele>26.0929</ele>
        <time>2013-04-09T16:32:05Z</time>
      </trkpt>
      <trkpt lat="59.9749888" lon="17.7451529">
        <ele>26.0929</ele>
        <time>2013-04-09T16:32:06Z</time>
      </trkpt>
      <trkpt lat="59.974948" lon="17.7452695">
        <ele>26.0929</ele>
        <time>2013-04-09T16:32:07Z</time>
      </trkpt>
      <trkpt lat="59.9749068" lon="17.7453832">
        <ele>26.0929</ele>
        <time>2013-04-09T16:32:08Z</time>
      </trkpt>
      <trkpt lat="59.9748645" lon="17.7454928">
        <ele>26.0929</ele>
        <time>2013-04-09T16:32:09Z</time>
      </trkpt>
      <trkpt lat="59.9748205" lon="17.7455994">
        <ele>26.0929</ele>
        <time>2013-04-09T16:32:10Z</time>
      </trkpt>
      <trkpt lat="59.9747749" lon="17.7457035">
        <ele>26.0929</ele>
        <time>2013-04-09T16:32:11Z</time>
      </trkpt>
      <trkpt lat="59.9747277" lon="17.7458051">
        <ele>26.0929</ele>
        <time>2013-04-09T16:32:12Z</time>
      </trkpt>
      <trkpt lat="59.974678" lon="17.7459031">
        <ele>26.0929</ele>
        <time>2013-04-09T16:32:13Z</time>
      </trkpt>
      <trkpt lat="59.9746256" lon="17.7459973">
        <ele>26.0929</ele>
        <time>2013-04-09T16:32:14Z</time>
      </trkpt>
      <trkpt lat="59.9745706" lon="17.746089">
        <ele>26.0929</ele>
        <time>2013-04-09T16:32:15Z</time>
      </trkpt>
      <trkpt lat="59.9745136" lon="17.7461796">
        <ele>26.0929</ele>
        <time>2013-04-09T16:32:16Z</time>
      </trkpt>
      <trkpt lat="59.9744543" lon="17.7462713">
        <ele>25.6123</ele>
        <time>2013-04-09T16:32:17Z</time>
      </trkpt>
      <trkpt lat="59.9743931" lon="17.7463618">
        <ele>25.6123</ele>
        <time>2013-04-09T16:32:18Z</time>
      </trkpt>
      <trkpt lat="59.974331" lon="17.74645">
        <ele>25.6123</ele>
        <time>2013-04-09T16:32:19Z</time>
      </trkpt>
      <trkpt lat="59.9742688" lon="17.7465366">
        <ele>25.1317</ele>
        <time>2013-04-09T16:32:20Z</time>
      </trkpt>
      <trkpt lat="59.9742072" lon="17.7466213">
        <ele>25.1317</ele>
        <time>2013-04-09T16:32:21Z</time>
      </trkpt>
      <trkpt lat="59.9741465" lon="17.7467038">
        <ele>25.1317</ele>
        <time>2013-04-09T16:32:22Z</time>
      </trkpt>
      <trkpt lat="59.9740865" lon="17.7467841">
        <ele>25.1317</ele>
        <time>2013-04-09T16:32:23Z</time>
      </trkpt>
      <trkpt lat="59.9740277" lon="17.7468612">
        <ele>25.1317</ele>
        <time>2013-04-09T16:32:24Z</time>
      </trkpt>
      <trkpt lat="59.9739693" lon="17.7469365">
        <ele>25.1317</ele>
        <time>2013-04-09T16:32:25Z</time>
      </trkpt>
      <trkpt lat="59.9739109" lon="17.7470115">
        <ele>24.651</ele>
        <time>2013-04-09T16:32:26Z</time>
      </trkpt>
      <trkpt lat="59.9738517" lon="17.7470846">
        <ele>24.651</ele>
        <time>2013-04-09T16:32:27Z</time>
      </trkpt>
      <trkpt lat="59.9737911" lon="17.7471571">
        <ele>24.651</ele>
        <time>2013-04-09T16:32:28Z</time>
      </trkpt>
      <trkpt lat="59.9737283" lon="17.7472284">
        <ele>24.651</ele>
        <time>2013-04-09T16:32:29Z</time>
      </trkpt>
      <trkpt lat="59.9736633" lon="17.7472988">
        <ele>24.651</ele>
        <time>2013-04-09T16:32:30Z</time>
      </trkpt>
      <trkpt lat="59.973597" lon="17.7473678">
        <ele>24.1703</ele>
        <time>2013-04-09T16:32:31Z</time>
      </trkpt>
      <trkpt lat="59.9735295" lon="17.7474369">
        <ele>23.6896</ele>
        <time>2013-04-09T16:32:32Z</time>
      </trkpt>
      <trkpt lat="59.9734618" lon="17.7475109">
        <ele>23.209</ele>
        <time>2013-04-09T16:32:33Z</time>
      </trkpt>
      <trkpt lat="59.973401" lon="17.7475977">
        <ele>22.7283</ele>
        <time>2013-04-09T16:32:34Z</time>
      </trkpt>
      <trkpt lat="59.9733375" lon="17.747679">
        <ele>22.2476</ele>
        <time>2013-04-09T16:32:35Z</time>
      </trkpt>
      <trkpt lat="59.9732737" lon="17.7477602">
        <ele>21.767</ele>
        <time>2013-04-09T16:32:36Z</time>
      </trkpt>
      <trkpt lat="59.9732094" lon="17.747842">
        <ele>21.767</ele>
        <time>2013-04-09T16:32:37Z</time>
      </trkpt>
      <trkpt lat="59.9731443" lon="17.7479257">
        <ele>21.2864</ele>
        <time>2013-04-09T16:32:38Z</time>
      </trkpt>
      <trkpt lat="59.9730795" lon="17.7480139">
        <ele>21.2864</ele>
        <time>2013-04-09T16:32:39Z</time>
      </trkpt>
      <trkpt lat="59.9730167" lon="17.748109">
        <ele>20.8057</ele>
        <time>2013-04-09T16:32:40Z</time>
      </trkpt>
      <trkpt lat="59.9729562" lon="17.748211">
        <ele>20.8057</ele>
        <time>2013-04-09T16:32:41Z</time>
      </trkpt>
      <trkpt lat="59.9728992" lon="17.7483203">
        <ele>20.8057</ele>
        <time>2013-04-09T16:32:42Z</time>
      </trkpt>
      <trkpt lat="59.9728464" lon="17.7484349">
        <ele>20.8057</ele>
        <time>2013-04-09T16:32:43Z</time>
      </trkpt>
      <trkpt lat="59.9727969" lon="17.7485499">
        <ele>20.8057</ele>
        <time>2013-04-09T16:32:44Z</time>
      </trkpt>
      <trkpt lat="59.9727479" lon="17.7486612">
        <ele>20.8057</ele>
        <time>2013-04-09T16:32:45Z</time>
      </trkpt>
      <trkpt lat="59.9726978" lon="17.7487659">
        <ele>20.8057</ele>
        <time>2013-04-09T16:32:46Z</time>
      </trkpt>
      <trkpt lat="59.9726491" lon="17.7488665">
        <ele>20.8057</ele>
        <time>2013-04-09T16:32:47Z</time>
      </trkpt>
      <trkpt lat="59.9725993" lon="17.7489736">
        <ele>20.8057</ele>
        <time>2013-04-09T16:32:48Z</time>
      </trkpt>
      <trkpt lat="59.9725507" lon="17.7490816">
        <ele>20.8057</ele>
        <time>2013-04-09T16:32:49Z</time>
      </trkpt>
      <trkpt lat="59.9725029" lon="17.7491898">
        <ele>20.8057</ele>
        <time>2013-04-09T16:32:50Z</time>
      </trkpt>
      <trkpt lat="59.9724568" lon="17.7492799">
        <ele>20.8057</ele>
        <time>2013-04-09T16:32:51Z</time>
      </trkpt>
      <trkpt lat="59.9724097" lon="17.7493779">
        <ele>20.325</ele>
        <time>2013-04-09T16:32:52Z</time>
      </trkpt>
      <trkpt lat="59.9723599" lon="17.7494944">
        <ele>20.8057</ele>
        <time>2013-04-09T16:32:53Z</time>
      </trkpt>
      <trkpt lat="59.9722912" lon="17.7496112">
        <ele>21.767</ele>
        <time>2013-04-09T16:32:54Z</time>
      </trkpt>
      <trkpt lat="59.9722315" lon="17.74973">
        <ele>23.209</ele>
        <time>2013-04-09T16:32:55Z</time>
      </trkpt>
      <trkpt lat="59.9721891" lon="17.7498164">
        <ele>22.7283</ele>
        <time>2013-04-09T16:32:56Z</time>
      </trkpt>
      <trkpt lat="59.9721502" lon="17.7499141">
        <ele>22.7283</ele>
        <time>2013-04-09T16:32:57Z</time>
      </trkpt>
      <trkpt lat="59.9721117" lon="17.7500212">
        <ele>22.7283</ele>
        <time>2013-04-09T16:32:58Z</time>
      </trkpt>
      <trkpt lat="59.9720677" lon="17.7501204">
        <ele>22.2476</ele>
        <time>2013-04-09T16:32:59Z</time>
      </trkpt>
      <trkpt lat="59.9720212" lon="17.7502272">
        <ele>22.2476</ele>
        <time>2013-04-09T16:33:00Z</time>
      </trkpt>
      <trkpt lat="59.9719719" lon="17.7503326">
        <ele>22.2476</ele>
        <time>2013-04-09T16:33:01Z</time>
      </trkpt>
      <trkpt lat="59.9719205" lon="17.7504369">
        <ele>22.7283</ele>
        <time>2013-04-09T16:33:02Z</time>
      </trkpt>
      <trkpt lat="59.9718668" lon="17.7505407">
        <ele>22.7283</ele>
        <time>2013-04-09T16:33:03Z</time>
      </trkpt>
      <trkpt lat="59.9718103" lon="17.7506438">
        <ele>22.7283</ele>
        <time>2013-04-09T16:33:04Z</time>
      </trkpt>
      <trkpt lat="59.9717508" lon="17.7507457">
        <ele>22.7283</ele>
        <time>2013-04-09T16:33:05Z</time>
      </trkpt>
      <trkpt lat="59.9716877" lon="17.7508453">
        <ele>22.7283</ele>
        <time>2013-04-09T16:33:06Z</time>
      </trkpt>
      <trkpt lat="59.9716219" lon="17.7509423">
        <ele>22.7283</ele>
        <time>2013-04-09T16:33:07Z</time>
      </trkpt>
      <trkpt lat="59.9715535" lon="17.7510376">
        <ele>22.2476</ele>
        <time>2013-04-09T16:33:08Z</time>
      </trkpt>
      <trkpt lat="59.9714824" lon="17.7511308">
        <ele>22.2476</ele>
        <time>2013-04-09T16:33:09Z</time>
      </trkpt>
      <trkpt lat="59.9714083" lon="17.7512215">
        <ele>22.2476</ele>
        <time>2013-04-09T16:33:10Z</time>
      </trkpt>
      <trkpt lat="59.9713326" lon="17.7513085">
        <ele>22.2476</ele>
        <time>2013-04-09T16:33:11Z</time>
      </trkpt>
      <trkpt lat="59.9712561" lon="17.7513955">
        <ele>22.2476</ele>
        <time>2013-04-09T16:33:12Z</time>
      </trkpt>
      <trkpt lat="59.97118" lon="17.751485">
        <ele>21.767</ele>
        <time>2013-04-09T16:33:13Z</time>
      </trkpt>
      <trkpt lat="59.9711046" lon="17.7515781">
        <ele>21.767</ele>
        <time>2013-04-09T16:33:14Z</time>
      </trkpt>
      <trkpt lat="59.9710303" lon="17.7516755">
        <ele>21.767</ele>
        <time>2013-04-09T16:33:15Z</time>
      </trkpt>
      <trkpt lat="59.9709583" lon="17.7517779">
        <ele>21.767</ele>
        <time>2013-04-09T16:33:16Z</time>
      </trkpt>
      <trkpt lat="59.9708896" lon="17.7518853">
        <ele>21.767</ele>
        <time>2013-04-09T16:33:17Z</time>
      </trkpt>
      <trkpt lat="59.9708236" lon="17.7519962">
        <ele>21.767</ele>
        <time>2013-04-09T16:33:18Z</time>
      </trkpt>
      <trkpt lat="59.9707594" lon="17.7521093">
        <ele>21.767</ele>
        <time>2013-04-09T16:33:19Z</time>
      </trkpt>
      <trkpt lat="59.9706975" lon="17.7522252">
        <ele>21.767</ele>
        <time>2013-04-09T16:33:20Z</time>
      </trkpt>
      <trkpt lat="59.9706391" lon="17.752346">
        <ele>21.767</ele>
        <time>2013-04-09T16:33:21Z</time>
      </trkpt>
      <trkpt lat="59.9705845" lon="17.7524722">
        <ele>21.767</ele>
        <time>2013-04-09T16:33:22Z</time>
      </trkpt>
      <trkpt lat="59.9705323" lon="17.7526009">
        <ele>21.767</ele>
        <time>2013-04-09T16:33:23Z</time>
      </trkpt>
      <trkpt lat="59.9704822" lon="17.7527318">
        <ele>21.767</ele>
        <time>2013-04-09T16:33:24Z</time>
      </trkpt>
      <trkpt lat="59.970434" lon="17.7528654">
        <ele>21.767</ele>
        <time>2013-04-09T16:33:25Z</time>
      </trkpt>
      <trkpt lat="59.9703868" lon="17.7530011">
        <ele>21.767</ele>
        <time>2013-04-09T16:33:26Z</time>
      </trkpt>
      <trkpt lat="59.9703407" lon="17.7531391">
        <ele>21.767</ele>
        <time>2013-04-09T16:33:27Z</time>
      </trkpt>
      <trkpt lat="59.9702962" lon="17.7532769">
        <ele>21.767</ele>
        <time>2013-04-09T16:33:28Z</time>
      </trkpt>
      <trkpt lat="59.9702511" lon="17.75341">
        <ele>21.767</ele>
        <time>2013-04-09T16:33:29Z</time>
      </trkpt>
      <trkpt lat="59.9702038" lon="17.7535372">
        <ele>21.767</ele>
        <time>2013-04-09T16:33:30Z</time>
      </trkpt>
      <trkpt lat="59.9701563" lon="17.753661">
        <ele>21.767</ele>
        <time>2013-04-09T16:33:31Z</time>
      </trkpt>
      <trkpt lat="59.9701086" lon="17.7537818">
        <ele>22.2476</ele>
        <time>2013-04-09T16:33:32Z</time>
      </trkpt>
      <trkpt lat="59.9700585" lon="17.7538964">
        <ele>22.2476</ele>
        <time>2013-04-09T16:33:33Z</time>
      </trkpt>
      <trkpt lat="59.9700069" lon="17.7540073">
        <ele>22.2476</ele>
        <time>2013-04-09T16:33:34Z</time>
      </trkpt>
      <trkpt lat="59.9699548" lon="17.7541175">
        <ele>22.2476</ele>
        <time>2013-04-09T16:33:35Z</time>
      </trkpt>
      <trkpt lat="59.9699023" lon="17.7542269">
        <ele>22.2476</ele>
        <time>2013-04-09T16:33:36Z</time>
      </trkpt>
      <trkpt lat="59.9698497" lon="17.7543357">
        <ele>22.7283</ele>
        <time>2013-04-09T16:33:37Z</time>
      </trkpt>
      <trkpt lat="59.969798" lon="17.7544433">
        <ele>22.7283</ele>
        <time>2013-04-09T16:33:38Z</time>
      </trkpt>
      <trkpt lat="59.9697471" lon="17.754551">
        <ele>22.7283</ele>
        <time>2013-04-09T16:33:39Z</time>
      </trkpt>
      <trkpt lat="59.9696957" lon="17.7546556">
        <ele>22.7283</ele>
        <time>2013-04-09T16:33:40Z</time>
      </trkpt>
      <trkpt lat="59.969644" lon="17.7547593">
        <ele>23.209</ele>
        <time>2013-04-09T16:33:41Z</time>
      </trkpt>
      <trkpt lat="59.9695939" lon="17.7548676">
        <ele>23.209</ele>
        <time>2013-04-09T16:33:42Z</time>
      </trkpt>
      <trkpt lat="59.9695459" lon="17.7549806">
        <ele>23.209</ele>
        <time>2013-04-09T16:33:43Z</time>
      </trkpt>
      <trkpt lat="59.9694974" lon="17.7550952">
        <ele>23.209</ele>
        <time>2013-04-09T16:33:44Z</time>
      </trkpt>
      <trkpt lat="59.9694456" lon="17.7552048">
        <ele>23.209</ele>
        <time>2013-04-09T16:33:45Z</time>
      </trkpt>
      <trkpt lat="59.9693912" lon="17.7553094">
        <ele>23.209</ele>
        <time>2013-04-09T16:33:46Z</time>
      </trkpt>
      <trkpt lat="59.9693367" lon="17.7554138">
        <ele>23.209</ele>
        <time>2013-04-09T16:33:47Z</time>
      </trkpt>
      <trkpt lat="59.9692836" lon="17.7555194">
        <ele>23.209</ele>
        <time>2013-04-09T16:33:48Z</time>
      </trkpt>
      <trkpt lat="59.9692322" lon="17.7556261">
        <ele>23.209</ele>
        <time>2013-04-09T16:33:49Z</time>
      </trkpt>
      <trkpt lat="59.9691812" lon="17.7557328">
        <ele>23.6896</ele>
        <time>2013-04-09T16:33:50Z</time>
      </trkpt>
      <trkpt lat="59.9691296" lon="17.7558383">
        <ele>23.6896</ele>
        <time>2013-04-09T16:33:51Z</time>
      </trkpt>
      <trkpt lat="59.9690773" lon="17.7559431">
        <ele>23.6896</ele>
        <time>2013-04-09T16:33:52Z</time>
      </trkpt>
      <trkpt lat="59.9690253" lon="17.7560482">
        <ele>23.6896</ele>
        <time>2013-04-09T16:33:53Z</time>
      </trkpt>
      <trkpt lat="59.968974" lon="17.7561525">
        <ele>24.1703</ele>
        <time>2013-04-09T16:33:54Z</time>
      </trkpt>
      <trkpt lat="59.9689232" lon="17.7562543">
        <ele>24.1703</ele>
        <time>2013-04-09T16:33:55Z</time>
      </trkpt>
      <trkpt lat="59.9688722" lon="17.7563522">
        <ele>24.1703</ele>
        <time>2013-04-09T16:33:56Z</time>
      </trkpt>
      <trkpt lat="59.9688212" lon="17.7564474">
        <ele>24.651</ele>
        <time>2013-04-09T16:33:57Z</time>
      </trkpt>
      <trkpt lat="59.9687691" lon="17.7565386">
        <ele>24.651</ele>
        <time>2013-04-09T16:33:58Z</time>
      </trkpt>
      <trkpt lat="59.9687162" lon="17.7566263">
        <ele>24.651</ele>
        <time>2013-04-09T16:33:59Z</time>
      </trkpt>
      <trkpt lat="59.9686628" lon="17.7567134">
        <ele>24.651</ele>
        <time>2013-04-09T16:34:00Z</time>
      </trkpt>
      <trkpt lat="59.9686073" lon="17.7567974">
        <ele>24.651</ele>
        <time>2013-04-09T16:34:01Z</time>
      </trkpt>
      <trkpt lat="59.96855" lon="17.756879">
        <ele>24.651</ele>
        <time>2013-04-09T16:34:02Z</time>
      </trkpt>
      <trkpt lat="59.9684928" lon="17.7569619">
        <ele>24.651</ele>
        <time>2013-04-09T16:34:03Z</time>
      </trkpt>
      <trkpt lat="59.9684356" lon="17.7570458">
        <ele>24.651</ele>
        <time>2013-04-09T16:34:04Z</time>
      </trkpt>
      <trkpt lat="59.9683785" lon="17.7571298">
        <ele>24.651</ele>
        <time>2013-04-09T16:34:05Z</time>
      </trkpt>
      <trkpt lat="59.9683205" lon="17.7572127">
        <ele>24.651</ele>
        <time>2013-04-09T16:34:06Z</time>
      </trkpt>
      <trkpt lat="59.9682607" lon="17.7572946">
        <ele>24.651</ele>
        <time>2013-04-09T16:34:07Z</time>
      </trkpt>
      <trkpt lat="59.9681982" lon="17.7573774">
        <ele>24.1703</ele>
        <time>2013-04-09T16:34:08Z</time>
      </trkpt>
      <trkpt lat="59.968132" lon="17.7574622">
        <ele>23.6896</ele>
        <time>2013-04-09T16:34:09Z</time>
      </trkpt>
      <trkpt lat="59.9680624" lon="17.757548">
        <ele>23.6896</ele>
        <time>2013-04-09T16:34:10Z</time>
      </trkpt>
      <trkpt lat="59.9679905" lon="17.7576333">
        <ele>23.209</ele>
        <time>2013-04-09T16:34:11Z</time>
      </trkpt>
      <trkpt lat="59.9679171" lon="17.7577187">
        <ele>22.7283</ele>
        <time>2013-04-09T16:34:12Z</time>
      </trkpt>
      <trkpt lat="59.967842" lon="17.7578041">
        <ele>22.7283</ele>
        <time>2013-04-09T16:34:13Z</time>
      </trkpt>
      <trkpt lat="59.9677652" lon="17.7578891">
        <ele>22.7283</ele>
        <time>2013-04-09T16:34:14Z</time>
      </trkpt>
      <trkpt lat="59.9676879" lon="17.7579742">
        <ele>22.2476</ele>
        <time>2013-04-09T16:34:15Z</time>
      </trkpt>
      <trkpt lat="59.9676098" lon="17.7580576">
        <ele>22.2476</ele>
        <time>2013-04-09T16:34:16Z</time>
      </trkpt>
      <trkpt lat="59.9675317" lon="17.7581388">
        <ele>22.2476</ele>
        <time>2013-04-09T16:34:17Z</time>
      </trkpt>
      <trkpt lat="59.9674538" lon="17.7582164">
        <ele>22.2476</ele>
        <time>2013-04-09T16:34:18Z</time>
      </trkpt>
      <trkpt lat="59.9673754" lon="17.7582886">
        <ele>22.2476</ele>
        <time>2013-04-09T16:34:19Z</time>
      </trkpt>
      <trkpt lat="59.9672972" lon="17.7583564">
        <ele>22.2476</ele>
        <time>2013-04-09T16:34:20Z</time>
      </trkpt>
      <trkpt lat="59.9672198" lon="17.7584201">
        <ele>22.2476</ele>
        <time>2013-04-09T16:34:21Z</time>
      </trkpt>
      <trkpt lat="59.9671431" lon="17.7584817">
        <ele>22.2476</ele>
        <time>2013-04-09T16:34:22Z</time>
      </trkpt>
      <trkpt lat="59.9670678" lon="17.7585436">
        <ele>22.2476</ele>
        <time>2013-04-09T16:34:23Z</time>
      </trkpt>
      <trkpt lat="59.966994" lon="17.7586055">
        <ele>22.2476</ele>
        <time>2013-04-09T16:34:24Z</time>
      </trkpt>
      <trkpt lat="59.9669219" lon="17.7586673">
        <ele>22.2476</ele>
        <time>2013-04-09T16:34:25Z</time>
      </trkpt>
      <trkpt lat="59.9668504" lon="17.7587294">
        <ele>22.7283</ele>
        <time>2013-04-09T16:34:26Z</time>
      </trkpt>
      <trkpt lat="59.9667803" lon="17.758794">
        <ele>22.7283</ele>
        <time>2013-04-09T16:34:27Z</time>
      </trkpt>
      <trkpt lat="59.9667122" lon="17.7588646">
        <ele>22.7283</ele>
        <time>2013-04-09T16:34:28Z</time>
      </trkpt>
      <trkpt lat="59.9666458" lon="17.7589399">
        <ele>22.7283</ele>
        <time>2013-04-09T16:34:29Z</time>
      </trkpt>
      <trkpt lat="59.9665809" lon="17.7590163">
        <ele>22.7283</ele>
        <time>2013-04-09T16:34:30Z</time>
      </trkpt>
      <trkpt lat="59.9665174" lon="17.759096">
        <ele>22.7283</ele>
        <time>2013-04-09T16:34:31Z</time>
      </trkpt>
      <trkpt lat="59.9664567" lon="17.7591815">
        <ele>22.2476</ele>
        <time>2013-04-09T16:34:32Z</time>
      </trkpt>
      <trkpt lat="59.9663982" lon="17.7592703">
        <ele>22.2476</ele>
        <time>2013-04-09T16:34:33Z</time>
      </trkpt>
      <trkpt lat="59.9663407" lon="17.759361">
        <ele>21.767</ele>
        <time>2013-04-09T16:34:34Z</time>
      </trkpt>
      <trkpt lat="59.9662837" lon="17.7594546">
        <ele>21.2864</ele>
        <time>2013-04-09T16:34:35Z</time>
      </trkpt>
      <trkpt lat="59.9662272" lon="17.7595505">
        <ele>21.2864</ele>
        <time>2013-04-09T16:34:36Z</time>
      </trkpt>
      <trkpt lat="59.9661713" lon="17.7596487">
        <ele>20.8057</ele>
        <time>2013-04-09T16:34:37Z</time>
      </trkpt>
      <trkpt lat="59.9661154" lon="17.7597473">
        <ele>20.8057</ele>
        <time>2013-04-09T16:34:38Z</time>
      </trkpt>
      <trkpt lat="59.9660594" lon="17.7598447">
        <ele>20.8057</ele>
        <time>2013-04-09T16:34:39Z</time>
      </trkpt>
      <trkpt lat="59.966005" lon="17.7599416">
        <ele>20.8057</ele>
        <time>2013-04-09T16:34:40Z</time>
      </trkpt>
      <trkpt lat="59.9659527" lon="17.7600378">
        <ele>20.8057</ele>
        <time>2013-04-09T16:34:41Z</time>
      </trkpt>
      <trkpt lat="59.9659002" lon="17.7601302">
        <ele>20.8057</ele>
        <time>2013-04-09T16:34:42Z</time>
      </trkpt>
      <trkpt lat="59.9658486" lon="17.7602192">
        <ele>20.8057</ele>
        <time>2013-04-09T16:34:43Z</time>
      </trkpt>
      <trkpt lat="59.9657986" lon="17.7603046">
        <ele>20.8057</ele>
        <time>2013-04-09T16:34:44Z</time>
      </trkpt>
      <trkpt lat="59.9657496" lon="17.7603856">
        <ele>20.8057</ele>
        <time>2013-04-09T16:34:45Z</time>
      </trkpt>
      <trkpt lat="59.9657019" lon="17.7604632">
        <ele>20.8057</ele>
        <time>2013-04-09T16:34:46Z</time>
      </trkpt>
      <trkpt lat="59.9656552" lon="17.7605389">
        <ele>20.8057</ele>
        <time>2013-04-09T16:34:47Z</time>
      </trkpt>
      <trkpt lat="59.9656091" lon="17.760614">
        <ele>20.8057</ele>
        <time>2013-04-09T16:34:48Z</time>
      </trkpt>
      <trkpt lat="59.9655631" lon="17.7606896">
        <ele>20.8057</ele>
        <time>2013-04-09T16:34:49Z</time>
      </trkpt>
      <trkpt lat="59.9655175" lon="17.7607682">
        <ele>20.8057</ele>
        <time>2013-04-09T16:34:50Z</time>
      </trkpt>
      <trkpt lat="59.9654725" lon="17.7608512">
        <ele>20.8057</ele>
        <time>2013-04-09T16:34:51Z</time>
      </trkpt>
      <trkpt lat="59.9654289" lon="17.7609404">
        <ele>20.8057</ele>
        <time>2013-04-09T16:34:52Z</time>
      </trkpt>
      <trkpt lat="59.965388" lon="17.7610357">
        <ele>20.8057</ele>
        <time>2013-04-09T16:34:53Z</time>
      </trkpt>
      <trkpt lat="59.9653497" lon="17.7611347">
        <ele>20.8057</ele>
        <time>2013-04-09T16:34:54Z</time>
      </trkpt>
      <trkpt lat="59.965314" lon="17.7612335">
        <ele>20.8057</ele>
        <time>2013-04-09T16:34:55Z</time>
      </trkpt>
      <trkpt lat="59.9652786" lon="17.7613309">
        <ele>20.8057</ele>
        <time>2013-04-09T16:34:56Z</time>
      </trkpt>
      <trkpt lat="59.9652426" lon="17.7614266">
        <ele>20.8057</ele>
        <time>2013-04-09T16:34:57Z</time>
      </trkpt>
      <trkpt lat="59.9652078" lon="17.7615215">
        <ele>20.8057</ele>
        <time>2013-04-09T16:34:58Z</time>
      </trkpt>
      <trkpt lat="59.9651736" lon="17.7616154">
        <ele>20.8057</ele>
        <time>2013-04-09T16:34:59Z</time>
      </trkpt>
      <trkpt lat="59.9651399" lon="17.7617085">
        <ele>20.8057</ele>
        <time>2013-04-09T16:35:00Z</time>
      </trkpt>
      <trkpt lat="59.965105" lon="17.7617998">
        <ele>20.8057</ele>
        <time>2013-04-09T16:35:01Z</time>
      </trkpt>
      <trkpt lat="59.9650687" lon="17.7618892">
        <ele>20.8057</ele>
        <time>2013-04-09T16:35:02Z</time>
      </trkpt>
      <trkpt lat="59.9650321" lon="17.7619792">
        <ele>20.8057</ele>
        <time>2013-04-09T16:35:03Z</time>
      </trkpt>
      <trkpt lat="59.9649959" lon="17.7620714">
        <ele>20.8057</ele>
        <time>2013-04-09T16:35:04Z</time>
      </trkpt>
      <trkpt lat="59.9649607" lon="17.7621662">
        <ele>20.8057</ele>
        <time>2013-04-09T16:35:05Z</time>
      </trkpt>
      <trkpt lat="59.9649252" lon="17.7622631">
        <ele>20.8057</ele>
        <time>2013-04-09T16:35:06Z</time>
      </trkpt>
      <trkpt lat="59.9648887" lon="17.7623606">
        <ele>20.8057</ele>
        <time>2013-04-09T16:35:07Z</time>
      </trkpt>
      <trkpt lat="59.9648533" lon="17.7624591">
        <ele>20.8057</ele>
        <time>2013-04-09T16:35:08Z</time>
      </trkpt>
      <trkpt lat="59.9648193" lon="17.7625586">
        <ele>21.2864</ele>
        <time>2013-04-09T16:35:09Z</time>
      </trkpt>
      <trkpt lat="59.964787" lon="17.7626583">
        <ele>21.2864</ele>
        <time>2013-04-09T16:35:10Z</time>
      </trkpt>
      <trkpt lat="59.9647564" lon="17.762758">
        <ele>21.2864</ele>
        <time>2013-04-09T16:35:11Z</time>
      </trkpt>
      <trkpt lat="59.9647267" lon="17.7628576">
        <ele>21.2864</ele>
        <time>2013-04-09T16:35:12Z</time>
      </trkpt>
      <trkpt lat="59.9646991" lon="17.7629581">
        <ele>21.2864</ele>
        <time>2013-04-09T16:35:13Z</time>
      </trkpt>
      <trkpt lat="59.9646727" lon="17.763059">
        <ele>21.2864</ele>
        <time>2013-04-09T16:35:14Z</time>
      </trkpt>
      <trkpt lat="59.9646461" lon="17.7631588">
        <ele>21.2864</ele>
        <time>2013-04-09T16:35:15Z</time>
      </trkpt>
      <trkpt lat="59.9646198" lon="17.763258">
        <ele>21.2864</ele>
        <time>2013-04-09T16:35:16Z</time>
      </trkpt>
      <trkpt lat="59.9645948" lon="17.7633582">
        <ele>21.767</ele>
        <time>2013-04-09T16:35:17Z</time>
      </trkpt>
      <trkpt lat="59.9645714" lon="17.7634592">
        <ele>21.767</ele>
        <time>2013-04-09T16:35:18Z</time>
      </trkpt>
      <trkpt lat="59.9645474" lon="17.7635604">
        <ele>21.767</ele>
        <time>2013-04-09T16:35:19Z</time>
      </trkpt>
      <trkpt lat="59.9645215" lon="17.763661">
        <ele>22.2476</ele>
        <time>2013-04-09T16:35:20Z</time>
      </trkpt>
      <trkpt lat="59.9644955" lon="17.7637607">
        <ele>22.2476</ele>
        <time>2013-04-09T16:35:21Z</time>
      </trkpt>
      <trkpt lat="59.9644696" lon="17.7638608">
        <ele>22.7283</ele>
        <time>2013-04-09T16:35:22Z</time>
      </trkpt>
      <trkpt lat="59.9644428" lon="17.7639606">
        <ele>23.209</ele>
        <time>2013-04-09T16:35:23Z</time>
      </trkpt>
      <trkpt lat="59.9644151" lon="17.7640596">
        <ele>23.209</ele>
        <time>2013-04-09T16:35:24Z</time>
      </trkpt>
      <trkpt lat="59.964387" lon="17.7641597">
        <ele>23.209</ele>
        <time>2013-04-09T16:35:25Z</time>
      </trkpt>
      <trkpt lat="59.9643597" lon="17.7642618">
        <ele>23.6896</ele>
        <time>2013-04-09T16:35:26Z</time>
      </trkpt>
      <trkpt lat="59.9643318" lon="17.7643636">
        <ele>23.6896</ele>
        <time>2013-04-09T16:35:27Z</time>
      </trkpt>
      <trkpt lat="59.9643038" lon="17.7644659">
        <ele>23.6896</ele>
        <time>2013-04-09T16:35:28Z</time>
      </trkpt>
      <trkpt lat="59.9642773" lon="17.7645703">
        <ele>24.1703</ele>
        <time>2013-04-09T16:35:29Z</time>
      </trkpt>
      <trkpt lat="59.9642526" lon="17.7646746">
        <ele>24.1703</ele>
        <time>2013-04-09T16:35:30Z</time>
      </trkpt>
      <trkpt lat="59.9642282" lon="17.7647783">
        <ele>24.651</ele>
        <time>2013-04-09T16:35:31Z</time>
      </trkpt>
      <trkpt lat="59.9642047" lon="17.7648807">
        <ele>25.1317</ele>
        <time>2013-04-09T16:35:32Z</time>
      </trkpt>
      <trkpt lat="59.9641831" lon="17.7649803">
        <ele>25.1317</ele>
        <time>2013-04-09T16:35:33Z</time>
      </trkpt>
      <trkpt lat="59.9641608" lon="17.7650802">
        <ele>25.6123</ele>
        <time>2013-04-09T16:35:34Z</time>
      </trkpt>
      <trkpt lat="59.9641426" lon="17.7651781">
        <ele>26.0929</ele>
        <time>2013-04-09T16:35:35Z</time>
      </trkpt>
      <trkpt lat="59.964124" lon="17.7652787">
        <ele>27.0543</ele>
        <time>2013-04-09T16:35:36Z</time>
      </trkpt>
      <trkpt lat="59.9641131" lon="17.765374">
        <ele>27.5349</ele>
        <time>2013-04-09T16:35:37Z</time>
      </trkpt>
      <trkpt lat="59.9641045" lon="17.765461">
        <ele>28.0155</ele>
        <time>2013-04-09T16:35:38Z</time>
      </trkpt>
      <trkpt lat="59.9640972" lon="17.7655462">
        <ele>28.4962</ele>
        <time>2013-04-09T16:35:39Z</time>
      </trkpt>
      <trkpt lat="59.964089" lon="17.7656335">
        <ele>28.9769</ele>
        <time>2013-04-09T16:35:40Z</time>
      </trkpt>
      <trkpt lat="59.9640811" lon="17.7657226">
        <ele>29.4575</ele>
        <time>2013-04-09T16:35:41Z</time>
      </trkpt>
      <trkpt lat="59.9640738" lon="17.7658101">
        <ele>29.9381</ele>
        <time>2013-04-09T16:35:42Z</time>
      </trkpt>
      <trkpt lat="59.9640671" lon="17.7659004">
        <ele>30.4188</ele>
        <time>2013-04-09T16:35:43Z</time>
      </trkpt>
      <trkpt lat="59.9640679" lon="17.765983">
        <ele>30.4188</ele>
        <time>2013-04-09T16:35:44Z</time>
      </trkpt>
      <trkpt lat="59.964068" lon="17.7660634">
        <ele>30.8995</ele>
        <time>2013-04-09T16:35:45Z</time>
      </trkpt>
      <trkpt lat="59.9640638" lon="17.7661447">
        <ele>31.3801</ele>
        <time>2013-04-09T16:35:46Z</time>
      </trkpt>
      <trkpt lat="59.9640624" lon="17.7662136">
        <ele>31.8607</ele>
        <time>2013-04-09T16:35:47Z</time>
      </trkpt>
      <trkpt lat="59.9640582" lon="17.7662887">
        <ele>32.3416</ele>
        <time>2013-04-09T16:35:48Z</time>
      </trkpt>
      <trkpt lat="59.9640557" lon="17.7663635">
        <ele>32.8223</ele>
        <time>2013-04-09T16:35:49Z</time>
      </trkpt>
      <trkpt lat="59.9640586" lon="17.7664333">
        <ele>32.8223</ele>
        <time>2013-04-09T16:35:50Z</time>
      </trkpt>
      <trkpt lat="59.9640619" lon="17.7665085">
        <ele>32.8223</ele>
        <time>2013-04-09T16:35:51Z</time>
      </trkpt>
      <trkpt lat="59.9640661" lon="17.7665883">
        <ele>32.8223</ele>
        <time>2013-04-09T16:35:52Z</time>
      </trkpt>
      <trkpt lat="59.9640692" lon="17.7666767">
        <ele>33.3029</ele>
        <time>2013-04-09T16:35:53Z</time>
      </trkpt>
      <trkpt lat="59.9640702" lon="17.7667679">
        <ele>33.3029</ele>
        <time>2013-04-09T16:35:54Z</time>
      </trkpt>
      <trkpt lat="59.9640697" lon="17.7668605">
        <ele>33.3029</ele>
        <time>2013-04-09T16:35:55Z</time>
      </trkpt>
      <trkpt lat="59.9640677" lon="17.7669552">
        <ele>32.8223</ele>
        <time>2013-04-09T16:35:56Z</time>
      </trkpt>
      <trkpt lat="59.9640639" lon="17.7670578">
        <ele>32.8223</ele>
        <time>2013-04-09T16:35:57Z</time>
      </trkpt>
      <trkpt lat="59.9640568" lon="17.7671678">
        <ele>32.8223</ele>
        <time>2013-04-09T16:35:58Z</time>
      </trkpt>
      <trkpt lat="59.9640443" lon="17.7672796">
        <ele>33.3029</ele>
        <time>2013-04-09T16:35:59Z</time>
      </trkpt>
      <trkpt lat="59.9640273" lon="17.7673926">
        <ele>32.8223</ele>
        <time>2013-04-09T16:36:00Z</time>
      </trkpt>
      <trkpt lat="59.9640085" lon="17.7675102">
        <ele>32.8223</ele>
        <time>2013-04-09T16:36:01Z</time>
      </trkpt>
      <trkpt lat="59.9639875" lon="17.7676309">
        <ele>32.8223</ele>
        <time>2013-04-09T16:36:02Z</time>
      </trkpt>
      <trkpt lat="59.963964" lon="17.7677532">
        <ele>32.8223</ele>
        <time>2013-04-09T16:36:03Z</time>
      </trkpt>
      <trkpt lat="59.9639384" lon="17.7678774">
        <ele>32.3416</ele>
        <time>2013-04-09T16:36:04Z</time>
      </trkpt>
      <trkpt lat="59.9639116" lon="17.7680004">
        <ele>32.3416</ele>
        <time>2013-04-09T16:36:05Z</time>
      </trkpt>
      <trkpt lat="59.9638825" lon="17.7681277">
        <ele>31.8607</ele>
        <time>2013-04-09T16:36:06Z</time>
      </trkpt>
      <trkpt lat="59.9638504" lon="17.7682577">
        <ele>31.3801</ele>
        <time>2013-04-09T16:36:07Z</time>
      </trkpt>
      <trkpt lat="59.9638164" lon="17.7683894">
        <ele>31.3801</ele>
        <time>2013-04-09T16:36:08Z</time>
      </trkpt>
      <trkpt lat="59.96378" lon="17.7685219">
        <ele>30.8995</ele>
        <time>2013-04-09T16:36:09Z</time>
      </trkpt>
      <trkpt lat="59.9637409" lon="17.7686548">
        <ele>30.8995</ele>
        <time>2013-04-09T16:36:10Z</time>
      </trkpt>
      <trkpt lat="59.9637018" lon="17.7687871">
        <ele>30.8995</ele>
        <time>2013-04-09T16:36:11Z</time>
      </trkpt>
      <trkpt lat="59.9636637" lon="17.7689186">
        <ele>30.8995</ele>
        <time>2013-04-09T16:36:12Z</time>
      </trkpt>
      <trkpt lat="59.9636277" lon="17.7690473">
        <ele>30.4188</ele>
        <time>2013-04-09T16:36:13Z</time>
      </trkpt>
      <trkpt lat="59.9635927" lon="17.7691777">
        <ele>30.8995</ele>
        <time>2013-04-09T16:36:14Z</time>
      </trkpt>
      <trkpt lat="59.9635582" lon="17.7693052">
        <ele>30.8995</ele>
        <time>2013-04-09T16:36:15Z</time>
      </trkpt>
      <trkpt lat="59.9635249" lon="17.769431">
        <ele>30.8995</ele>
        <time>2013-04-09T16:36:16Z</time>
      </trkpt>
      <trkpt lat="59.9634968" lon="17.7695556">
        <ele>30.8995</ele>
        <time>2013-04-09T16:36:17Z</time>
      </trkpt>
      <trkpt lat="59.9634753" lon="17.7696812">
        <ele>31.3801</ele>
        <time>2013-04-09T16:36:18Z</time>
      </trkpt>
      <trkpt lat="59.9634626" lon="17.7698065">
        <ele>31.3801</ele>
        <time>2013-04-09T16:36:19Z</time>
      </trkpt>
      <trkpt lat="59.9634574" lon="17.769933">
        <ele>31.3801</ele>
        <time>2013-04-09T16:36:20Z</time>
      </trkpt>
      <trkpt lat="59.9634569" lon="17.7700609">
        <ele>31.3801</ele>
        <time>2013-04-09T16:36:21Z</time>
      </trkpt>
      <trkpt lat="59.9634603" lon="17.7701889">
        <ele>31.8607</ele>
        <time>2013-04-09T16:36:22Z</time>
      </trkpt>
      <trkpt lat="59.9634668" lon="17.7703156">
        <ele>31.8607</ele>
        <time>2013-04-09T16:36:23Z</time>
      </trkpt>
      <trkpt lat="59.9634745" lon="17.7704452">
        <ele>31.3801</ele>
        <time>2013-04-09T16:36:24Z</time>
      </trkpt>
      <trkpt lat="59.9634824" lon="17.7705797">
        <ele>31.8607</ele>
        <time>2013-04-09T16:36:25Z</time>
      </trkpt>
      <trkpt lat="59.9634957" lon="17.7707175">
        <ele>31.3801</ele>
        <time>2013-04-09T16:36:26Z</time>
      </trkpt>
      <trkpt lat="59.9635145" lon="17.77086">
        <ele>31.3801</ele>
        <time>2013-04-09T16:36:27Z</time>
      </trkpt>
      <trkpt lat="59.9635376" lon="17.7710057">
        <ele>30.8995</ele>
        <time>2013-04-09T16:36:28Z</time>
      </trkpt>
      <trkpt lat="59.9635652" lon="17.7711516">
        <ele>30.8995</ele>
        <time>2013-04-09T16:36:29Z</time>
      </trkpt>
      <trkpt lat="59.9635963" lon="17.7712978">
        <ele>30.8995</ele>
        <time>2013-04-09T16:36:30Z</time>
      </trkpt>
      <trkpt lat="59.9636294" lon="17.771443">
        <ele>30.4188</ele>
        <time>2013-04-09T16:36:31Z</time>
      </trkpt>
      <trkpt lat="59.9636644" lon="17.7715868">
        <ele>30.4188</ele>
        <time>2013-04-09T16:36:32Z</time>
      </trkpt>
      <trkpt lat="59.9636999" lon="17.7717313">
        <ele>30.4188</ele>
        <time>2013-04-09T16:36:33Z</time>
      </trkpt>
      <trkpt lat="59.963735" lon="17.7718785">
        <ele>29.9381</ele>
        <time>2013-04-09T16:36:34Z</time>
      </trkpt>
      <trkpt lat="59.9637693" lon="17.7720291">
        <ele>29.9381</ele>
        <time>2013-04-09T16:36:35Z</time>
      </trkpt>
      <trkpt lat="59.9638029" lon="17.7721833">
        <ele>29.4575</ele>
        <time>2013-04-09T16:36:36Z</time>
      </trkpt>
      <trkpt lat="59.9638336" lon="17.7723423">
        <ele>29.4575</ele>
        <time>2013-04-09T16:36:37Z</time>
      </trkpt>
      <trkpt lat="59.9638604" lon="17.7725063">
        <ele>28.9769</ele>
        <time>2013-04-09T16:36:38Z</time>
      </trkpt>
      <trkpt lat="59.9638816" lon="17.772673">
        <ele>28.9769</ele>
        <time>2013-04-09T16:36:39Z</time>
      </trkpt>
      <trkpt lat="59.9638949" lon="17.7728399">
        <ele>29.4575</ele>
        <time>2013-04-09T16:36:40Z</time>
      </trkpt>
      <trkpt lat="59.9638982" lon="17.7730038">
        <ele>29.4575</ele>
        <time>2013-04-09T16:36:41Z</time>
      </trkpt>
      <trkpt lat="59.9638918" lon="17.7731639">
        <ele>29.4575</ele>
        <time>2013-04-09T16:36:42Z</time>
      </trkpt>
      <trkpt lat="59.9638776" lon="17.7733227">
        <ele>29.4575</ele>
        <time>2013-04-09T16:36:43Z</time>
      </trkpt>
      <trkpt lat="59.9638588" lon="17.7734802">
        <ele>29.4575</ele>
        <time>2013-04-09T16:36:44Z</time>
      </trkpt>
      <trkpt lat="59.9638361" lon="17.7736368">
        <ele>29.4575</ele>
        <time>2013-04-09T16:36:45Z</time>
      </trkpt>
      <trkpt lat="59.9638106" lon="17.7737905">
        <ele>29.4575</ele>
        <time>2013-04-09T16:36:46Z</time>
      </trkpt>
      <trkpt lat="59.9637822" lon="17.7739392">
        <ele>29.4575</ele>
        <time>2013-04-09T16:36:47Z</time>
      </trkpt>
      <trkpt lat="59.9637532" lon="17.7740841">
        <ele>29.4575</ele>
        <time>2013-04-09T16:36:48Z</time>
      </trkpt>
      <trkpt lat="59.9637271" lon="17.7742288">
        <ele>29.9381</ele>
        <time>2013-04-09T16:36:49Z</time>
      </trkpt>
      <trkpt lat="59.963705" lon="17.7743752">
        <ele>29.9381</ele>
        <time>2013-04-09T16:36:50Z</time>
      </trkpt>
      <trkpt lat="59.9636842" lon="17.7745245">
        <ele>29.4575</ele>
        <time>2013-04-09T16:36:51Z</time>
      </trkpt>
      <trkpt lat="59.9636613" lon="17.7746759">
        <ele>29.4575</ele>
        <time>2013-04-09T16:36:52Z</time>
      </trkpt>
      <trkpt lat="59.9636351" lon="17.7748262">
        <ele>29.4575</ele>
        <time>2013-04-09T16:36:53Z</time>
      </trkpt>
      <trkpt lat="59.9636055" lon="17.7749753">
        <ele>29.4575</ele>
        <time>2013-04-09T16:36:54Z</time>
      </trkpt>
      <trkpt lat="59.9635718" lon="17.7751222">
        <ele>29.4575</ele>
        <time>2013-04-09T16:36:55Z</time>
      </trkpt>
      <trkpt lat="59.9635342" lon="17.7752644">
        <ele>29.4575</ele>
        <time>2013-04-09T16:36:56Z</time>
      </trkpt>
      <trkpt lat="59.9634932" lon="17.775401">
        <ele>29.4575</ele>
        <time>2013-04-09T16:36:57Z</time>
      </trkpt>
      <trkpt lat="59.9634498" lon="17.7755342">
        <ele>29.9381</ele>
        <time>2013-04-09T16:36:58Z</time>
      </trkpt>
      <trkpt lat="59.9634065" lon="17.7756642">
        <ele>29.9381</ele>
        <time>2013-04-09T16:36:59Z</time>
      </trkpt>
      <trkpt lat="59.9633645" lon="17.7757901">
        <ele>30.4188</ele>
        <time>2013-04-09T16:37:00Z</time>
      </trkpt>
      <trkpt lat="59.9633243" lon="17.7759166">
        <ele>30.4188</ele>
        <time>2013-04-09T16:37:01Z</time>
      </trkpt>
      <trkpt lat="59.963286" lon="17.7760419">
        <ele>30.4188</ele>
        <time>2013-04-09T16:37:02Z</time>
      </trkpt>
      <trkpt lat="59.9632485" lon="17.7761657">
        <ele>30.8995</ele>
        <time>2013-04-09T16:37:03Z</time>
      </trkpt>
      <trkpt lat="59.9632107" lon="17.7762885">
        <ele>30.8995</ele>
        <time>2013-04-09T16:37:04Z</time>
      </trkpt>
      <trkpt lat="59.9631736" lon="17.7764115">
        <ele>30.8995</ele>
        <time>2013-04-09T16:37:05Z</time>
      </trkpt>
      <trkpt lat="59.9631362" lon="17.7765355">
        <ele>30.8995</ele>
        <time>2013-04-09T16:37:06Z</time>
      </trkpt>
      <trkpt lat="59.963097" lon="17.776661">
        <ele>30.8995</ele>
        <time>2013-04-09T16:37:07Z</time>
      </trkpt>
      <trkpt lat="59.9630509" lon="17.776791">
        <ele>30.4188</ele>
        <time>2013-04-09T16:37:08Z</time>
      </trkpt>
      <trkpt lat="59.963005" lon="17.7769224">
        <ele>30.4188</ele>
        <time>2013-04-09T16:37:09Z</time>
      </trkpt>
      <trkpt lat="59.9629574" lon="17.7770513">
        <ele>30.4188</ele>
        <time>2013-04-09T16:37:10Z</time>
      </trkpt>
      <trkpt lat="59.9629076" lon="17.7771768">
        <ele>30.4188</ele>
        <time>2013-04-09T16:37:11Z</time>
      </trkpt>
      <trkpt lat="59.9628551" lon="17.7772978">
        <ele>30.4188</ele>
        <time>2013-04-09T16:37:12Z</time>
      </trkpt>
      <trkpt lat="59.9628009" lon="17.7774108">
        <ele>30.4188</ele>
        <time>2013-04-09T16:37:13Z</time>
      </trkpt>
      <trkpt lat="59.9627458" lon="17.7775263">
        <ele>30.4188</ele>
        <time>2013-04-09T16:37:14Z</time>
      </trkpt>
      <trkpt lat="59.9626923" lon="17.7776405">
        <ele>30.4188</ele>
        <time>2013-04-09T16:37:15Z</time>
      </trkpt>
      <trkpt lat="59.9626394" lon="17.7777539">
        <ele>30.4188</ele>
        <time>2013-04-09T16:37:16Z</time>
      </trkpt>
      <trkpt lat="59.9625855" lon="17.7778632">
        <ele>30.4188</ele>
        <time>2013-04-09T16:37:17Z</time>
      </trkpt>
      <trkpt lat="59.9625316" lon="17.7779729">
        <ele>30.4188</ele>
        <time>2013-04-09T16:37:18Z</time>
      </trkpt>
      <trkpt lat="59.9624788" lon="17.7780842">
        <ele>30.4188</ele>
        <time>2013-04-09T16:37:19Z</time>
      </trkpt>
      <trkpt lat="59.9624275" lon="17.7781978">
        <ele>30.4188</ele>
        <time>2013-04-09T16:37:20Z</time>
      </trkpt>
      <trkpt lat="59.9623774" lon="17.7783144">
        <ele>30.4188</ele>
        <time>2013-04-09T16:37:21Z</time>
      </trkpt>
      <trkpt lat="59.9623279" lon="17.7784309">
        <ele>30.8995</ele>
        <time>2013-04-09T16:37:22Z</time>
      </trkpt>
      <trkpt lat="59.9622795" lon="17.778548">
        <ele>30.8995</ele>
        <time>2013-04-09T16:37:23Z</time>
      </trkpt>
      <trkpt lat="59.9622318" lon="17.7786644">
        <ele>30.8995</ele>
        <time>2013-04-09T16:37:24Z</time>
      </trkpt>
      <trkpt lat="59.9621825" lon="17.7787757">
        <ele>30.4188</ele>
        <time>2013-04-09T16:37:25Z</time>
      </trkpt>
      <trkpt lat="59.9621335" lon="17.7788862">
        <ele>30.4188</ele>
        <time>2013-04-09T16:37:26Z</time>
      </trkpt>
      <trkpt lat="59.9620847" lon="17.7789959">
        <ele>30.4188</ele>
        <time>2013-04-09T16:37:27Z</time>
      </trkpt>
      <trkpt lat="59.9620355" lon="17.7791034">
        <ele>30.4188</ele>
        <time>2013-04-09T16:37:28Z</time>
      </trkpt>
      <trkpt lat="59.9619872" lon="17.7792104">
        <ele>30.4188</ele>
        <time>2013-04-09T16:37:29Z</time>
      </trkpt>
      <trkpt lat="59.9619386" lon="17.779314">
        <ele>30.4188</ele>
        <time>2013-04-09T16:37:30Z</time>
      </trkpt>
      <trkpt lat="59.9618897" lon="17.7794154">
        <ele>30.4188</ele>
        <time>2013-04-09T16:37:31Z</time>
      </trkpt>
      <trkpt lat="59.9618412" lon="17.7795227">
        <ele>29.9381</ele>
        <time>2013-04-09T16:37:32Z</time>
      </trkpt>
      <trkpt lat="59.9617939" lon="17.7796317">
        <ele>29.9381</ele>
        <time>2013-04-09T16:37:33Z</time>
      </trkpt>
      <trkpt lat="59.9617479" lon="17.779741">
        <ele>29.9381</ele>
        <time>2013-04-09T16:37:34Z</time>
      </trkpt>
      <trkpt lat="59.9617015" lon="17.7798518">
        <ele>29.9381</ele>
        <time>2013-04-09T16:37:35Z</time>
      </trkpt>
      <trkpt lat="59.9616543" lon="17.7799625">
        <ele>29.9381</ele>
        <time>2013-04-09T16:37:36Z</time>
      </trkpt>
      <trkpt lat="59.9616051" lon="17.7800735">
        <ele>29.4575</ele>
        <time>2013-04-09T16:37:37Z</time>
      </trkpt>
      <trkpt lat="59.9615541" lon="17.7801778">
        <ele>29.4575</ele>
        <time>2013-04-09T16:37:38Z</time>
      </trkpt>
      <trkpt lat="59.9615017" lon="17.7802807">
        <ele>29.4575</ele>
        <time>2013-04-09T16:37:39Z</time>
      </trkpt>
      <trkpt lat="59.9614478" lon="17.7803829">
        <ele>28.9769</ele>
        <time>2013-04-09T16:37:40Z</time>
      </trkpt>
      <trkpt lat="59.9613941" lon="17.7804833">
        <ele>28.9769</ele>
        <time>2013-04-09T16:37:41Z</time>
      </trkpt>
      <trkpt lat="59.9613394" lon="17.7805817">
        <ele>28.9769</ele>
        <time>2013-04-09T16:37:42Z</time>
      </trkpt>
      <trkpt lat="59.9612838" lon="17.7806841">
        <ele>28.9769</ele>
        <time>2013-04-09T16:37:43Z</time>
      </trkpt>
      <trkpt lat="59.9612274" lon="17.7807868">
        <ele>28.9769</ele>
        <time>2013-04-09T16:37:44Z</time>
      </trkpt>
      <trkpt lat="59.9611712" lon="17.7808887">
        <ele>28.4962</ele>
        <time>2013-04-09T16:37:45Z</time>
      </trkpt>
      <trkpt lat="59.9611137" lon="17.7809846">
        <ele>28.0155</ele>
        <time>2013-04-09T16:37:46Z</time>
      </trkpt>
      <trkpt lat="59.9610545" lon="17.7810799">
        <ele>27.5349</ele>
        <time>2013-04-09T16:37:47Z</time>
      </trkpt>
      <trkpt lat="59.9609972" lon="17.7811782">
        <ele>27.5349</ele>
        <time>2013-04-09T16:37:48Z</time>
      </trkpt>
      <trkpt lat="59.9609399" lon="17.7812777">
        <ele>27.0543</ele>
        <time>2013-04-09T16:37:49Z</time>
      </trkpt>
      <trkpt lat="59.9608822" lon="17.7813769">
        <ele>26.5736</ele>
        <time>2013-04-09T16:37:50Z</time>
      </trkpt>
      <trkpt lat="59.9608236" lon="17.7814743">
        <ele>25.6123</ele>
        <time>2013-04-09T16:37:51Z</time>
      </trkpt>
      <trkpt lat="59.9607654" lon="17.781574">
        <ele>25.6123</ele>
        <time>2013-04-09T16:37:52Z</time>
      </trkpt>
      <trkpt lat="59.9607077" lon="17.7816752">
        <ele>25.1317</ele>
        <time>2013-04-09T16:37:53Z</time>
      </trkpt>
      <trkpt lat="59.9606524" lon="17.7817803">
        <ele>24.651</ele>
        <time>2013-04-09T16:37:54Z</time>
      </trkpt>
      <trkpt lat="59.960599" lon="17.7818866">
        <ele>24.651</ele>
        <time>2013-04-09T16:37:55Z</time>
      </trkpt>
      <trkpt lat="59.9605481" lon="17.7819963">
        <ele>24.1703</ele>
        <time>2013-04-09T16:37:56Z</time>
      </trkpt>
      <trkpt lat="59.9605027" lon="17.7821076">
        <ele>24.1703</ele>
        <time>2013-04-09T16:37:57Z</time>
      </trkpt>
      <trkpt lat="59.9604634" lon="17.7822275">
        <ele>24.1703</ele>
        <time>2013-04-09T16:37:58Z</time>
      </trkpt>
      <trkpt lat="59.9604264" lon="17.782343">
        <ele>24.1703</ele>
        <time>2013-04-09T16:37:59Z</time>
      </trkpt>
      <trkpt lat="59.9603866" lon="17.7824579">
        <ele>24.1703</ele>
        <time>2013-04-09T16:38:00Z</time>
      </trkpt>
      <trkpt lat="59.9603473" lon="17.7825694">
        <ele>24.1703</ele>
        <time>2013-04-09T16:38:01Z</time>
      </trkpt>
      <trkpt lat="59.9603088" lon="17.7826807">
        <ele>24.1703</ele>
        <time>2013-04-09T16:38:02Z</time>
      </trkpt>
      <trkpt lat="59.9602718" lon="17.782796">
        <ele>24.1703</ele>
        <time>2013-04-09T16:38:03Z</time>
      </trkpt>
      <trkpt lat="59.9602328" lon="17.7829094">
        <ele>24.1703</ele>
        <time>2013-04-09T16:38:04Z</time>
      </trkpt>
      <trkpt lat="59.960194" lon="17.7830256">
        <ele>24.1703</ele>
        <time>2013-04-09T16:38:05Z</time>
      </trkpt>
      <trkpt lat="59.9601554" lon="17.7831468">
        <ele>23.6896</ele>
        <time>2013-04-09T16:38:06Z</time>
      </trkpt>
      <trkpt lat="59.9601161" lon="17.7832687">
        <ele>23.6896</ele>
        <time>2013-04-09T16:38:07Z</time>
      </trkpt>
      <trkpt lat="59.9600764" lon="17.7833914">
        <ele>23.6896</ele>
        <time>2013-04-09T16:38:08Z</time>
      </trkpt>
      <trkpt lat="59.9600335" lon="17.7835124">
        <ele>23.6896</ele>
        <time>2013-04-09T16:38:09Z</time>
      </trkpt>
      <trkpt lat="59.9599908" lon="17.7836327">
        <ele>23.209</ele>
        <time>2013-04-09T16:38:10Z</time>
      </trkpt>
      <trkpt lat="59.959947" lon="17.7837519">
        <ele>23.209</ele>
        <time>2013-04-09T16:38:11Z</time>
      </trkpt>
      <trkpt lat="59.9599002" lon="17.7838665">
        <ele>23.209</ele>
        <time>2013-04-09T16:38:12Z</time>
      </trkpt>
      <trkpt lat="59.9598517" lon="17.7839808">
        <ele>23.209</ele>
        <time>2013-04-09T16:38:13Z</time>
      </trkpt>
      <trkpt lat="59.9598003" lon="17.7840861">
        <ele>22.7283</ele>
        <time>2013-04-09T16:38:14Z</time>
      </trkpt>
      <trkpt lat="59.9597469" lon="17.7841902">
        <ele>22.7283</ele>
        <time>2013-04-09T16:38:15Z</time>
      </trkpt>
      <trkpt lat="59.9596915" lon="17.7842911">
        <ele>22.2476</ele>
        <time>2013-04-09T16:38:16Z</time>
      </trkpt>
      <trkpt lat="59.959632" lon="17.7843834">
        <ele>22.2476</ele>
        <time>2013-04-09T16:38:17Z</time>
      </trkpt>
      <trkpt lat="59.9595754" lon="17.7844766">
        <ele>22.2476</ele>
        <time>2013-04-09T16:38:18Z</time>
      </trkpt>
      <trkpt lat="59.9595203" lon="17.784572">
        <ele>22.2476</ele>
        <time>2013-04-09T16:38:19Z</time>
      </trkpt>
      <trkpt lat="59.9594626" lon="17.7846642">
        <ele>22.2476</ele>
        <time>2013-04-09T16:38:20Z</time>
      </trkpt>
      <trkpt lat="59.9594036" lon="17.7847548">
        <ele>22.2476</ele>
        <time>2013-04-09T16:38:21Z</time>
      </trkpt>
      <trkpt lat="59.9593428" lon="17.7848434">
        <ele>21.767</ele>
        <time>2013-04-09T16:38:22Z</time>
      </trkpt>
      <trkpt lat="59.9592785" lon="17.7849295">
        <ele>21.767</ele>
        <time>2013-04-09T16:38:23Z</time>
      </trkpt>
      <trkpt lat="59.959213" lon="17.7850142">
        <ele>21.767</ele>
        <time>2013-04-09T16:38:24Z</time>
      </trkpt>
      <trkpt lat="59.959145" lon="17.7850928">
        <ele>21.767</ele>
        <time>2013-04-09T16:38:25Z</time>
      </trkpt>
      <trkpt lat="59.9590735" lon="17.7851624">
        <ele>21.767</ele>
        <time>2013-04-09T16:38:26Z</time>
      </trkpt>
      <trkpt lat="59.958998" lon="17.7852283">
        <ele>22.2476</ele>
        <time>2013-04-09T16:38:27Z</time>
      </trkpt>
      <trkpt lat="59.9589194" lon="17.7852798">
        <ele>22.2476</ele>
        <time>2013-04-09T16:38:28Z</time>
      </trkpt>
      <trkpt lat="59.9588419" lon="17.7853316">
        <ele>22.7283</ele>
        <time>2013-04-09T16:38:29Z</time>
      </trkpt>
      <trkpt lat="59.9587669" lon="17.7853836">
        <ele>22.7283</ele>
        <time>2013-04-09T16:38:30Z</time>
      </trkpt>
      <trkpt lat="59.9586959" lon="17.7854407">
        <ele>22.2476</ele>
        <time>2013-04-09T16:38:31Z</time>
      </trkpt>
      <trkpt lat="59.9586264" lon="17.7855067">
        <ele>22.2476</ele>
        <time>2013-04-09T16:38:32Z</time>
      </trkpt>
      <trkpt lat="59.9585571" lon="17.7855787">
        <ele>22.7283</ele>
        <time>2013-04-09T16:38:33Z</time>
      </trkpt>
      <trkpt lat="59.958488" lon="17.7856557">
        <ele>22.7283</ele>
        <time>2013-04-09T16:38:34Z</time>
      </trkpt>
      <trkpt lat="59.9584181" lon="17.785735">
        <ele>22.7283</ele>
        <time>2013-04-09T16:38:35Z</time>
      </trkpt>
      <trkpt lat="59.9583467" lon="17.78581">
        <ele>22.7283</ele>
        <time>2013-04-09T16:38:36Z</time>
      </trkpt>
      <trkpt lat="59.9582758" lon="17.7858903">
        <ele>23.209</ele>
        <time>2013-04-09T16:38:37Z</time>
      </trkpt>
      <trkpt lat="59.9582053" lon="17.7859724">
        <ele>23.209</ele>
        <time>2013-04-09T16:38:38Z</time>
      </trkpt>
      <trkpt lat="59.958136" lon="17.7860548">
        <ele>23.6896</ele>
        <time>2013-04-09T16:38:39Z</time>
      </trkpt>
      <trkpt lat="59.958065" lon="17.7861325">
        <ele>23.6896</ele>
        <time>2013-04-09T16:38:40Z</time>
      </trkpt>
      <trkpt lat="59.9579955" lon="17.786213">
        <ele>24.1703</ele>
        <time>2013-04-09T16:38:41Z</time>
      </trkpt>
      <trkpt lat="59.9579266" lon="17.7862957">
        <ele>24.651</ele>
        <time>2013-04-09T16:38:42Z</time>
      </trkpt>
      <trkpt lat="59.9578582" lon="17.7863751">
        <ele>25.1317</ele>
        <time>2013-04-09T16:38:43Z</time>
      </trkpt>
      <trkpt lat="59.957792" lon="17.7864571">
        <ele>25.1317</ele>
        <time>2013-04-09T16:38:44Z</time>
      </trkpt>
      <trkpt lat="59.9577312" lon="17.7865466">
        <ele>25.6123</ele>
        <time>2013-04-09T16:38:45Z</time>
      </trkpt>
      <trkpt lat="59.9576786" lon="17.7866482">
        <ele>25.6123</ele>
        <time>2013-04-09T16:38:46Z</time>
      </trkpt>
      <trkpt lat="59.9576368" lon="17.7867621">
        <ele>26.0929</ele>
        <time>2013-04-09T16:38:47Z</time>
      </trkpt>
      <trkpt lat="59.9576029" lon="17.7868838">
        <ele>26.0929</ele>
        <time>2013-04-09T16:38:48Z</time>
      </trkpt>
      <trkpt lat="59.957574" lon="17.7870095">
        <ele>26.0929</ele>
        <time>2013-04-09T16:38:49Z</time>
      </trkpt>
      <trkpt lat="59.9575491" lon="17.78714">
        <ele>26.0929</ele>
        <time>2013-04-09T16:38:50Z</time>
      </trkpt>
      <trkpt lat="59.9575276" lon="17.7872789">
        <ele>26.0929</ele>
        <time>2013-04-09T16:38:51Z</time>
      </trkpt>
      <trkpt lat="59.9575019" lon="17.7874153">
        <ele>26.0929</ele>
        <time>2013-04-09T16:38:52Z</time>
      </trkpt>
      <trkpt lat="59.9574702" lon="17.7875489">
        <ele>26.5736</ele>
        <time>2013-04-09T16:38:53Z</time>
      </trkpt>
      <trkpt lat="59.9574359" lon="17.7876845">
        <ele>27.0543</ele>
        <time>2013-04-09T16:38:54Z</time>
      </trkpt>
      <trkpt lat="59.9574019" lon="17.787817">
        <ele>27.0543</ele>
        <time>2013-04-09T16:38:55Z</time>
      </trkpt>
      <trkpt lat="59.9573671" lon="17.787946">
        <ele>27.0543</ele>
        <time>2013-04-09T16:38:56Z</time>
      </trkpt>
      <trkpt lat="59.957333" lon="17.7880751">
        <ele>27.0543</ele>
        <time>2013-04-09T16:38:57Z</time>
      </trkpt>
      <trkpt lat="59.9572976" lon="17.7881984">
        <ele>27.0543</ele>
        <time>2013-04-09T16:38:58Z</time>
      </trkpt>
      <trkpt lat="59.9572631" lon="17.7883227">
        <ele>27.0543</ele>
        <time>2013-04-09T16:38:59Z</time>
      </trkpt>
      <trkpt lat="59.9572248" lon="17.788442">
        <ele>27.0543</ele>
        <time>2013-04-09T16:39:00Z</time>
      </trkpt>
      <trkpt lat="59.9571826" lon="17.7885605">
        <ele>26.5736</ele>
        <time>2013-04-09T16:39:01Z</time>
      </trkpt>
      <trkpt lat="59.9571377" lon="17.788677">
        <ele>26.5736</ele>
        <time>2013-04-09T16:39:02Z</time>
      </trkpt>
      <trkpt lat="59.9570862" lon="17.7887809">
        <ele>26.0929</ele>
        <time>2013-04-09T16:39:03Z</time>
      </trkpt>
      <trkpt lat="59.9570326" lon="17.7888855">
        <ele>25.6123</ele>
        <time>2013-04-09T16:39:04Z</time>
      </trkpt>
      <trkpt lat="59.9569734" lon="17.7889785">
        <ele>25.1317</ele>
        <time>2013-04-09T16:39:05Z</time>
      </trkpt>
      <trkpt lat="59.9569125" lon="17.7890693">
        <ele>24.651</ele>
        <time>2013-04-09T16:39:06Z</time>
      </trkpt>
      <trkpt lat="59.9568485" lon="17.7891551">
        <ele>24.651</ele>
        <time>2013-04-09T16:39:07Z</time>
      </trkpt>
      <trkpt lat="59.9567849" lon="17.7892387">
        <ele>24.651</ele>
        <time>2013-04-09T16:39:08Z</time>
      </trkpt>
      <trkpt lat="59.9567181" lon="17.7893131">
        <ele>24.651</ele>
        <time>2013-04-09T16:39:09Z</time>
      </trkpt>
      <trkpt lat="59.9566414" lon="17.7893716">
        <ele>24.651</ele>
        <time>2013-04-09T16:39:10Z</time>
      </trkpt>
      <trkpt lat="59.9565896" lon="17.789441">
        <ele>25.1317</ele>
        <time>2013-04-09T16:39:11Z</time>
      </trkpt>
      <trkpt lat="59.9565538" lon="17.7895473">
        <ele>25.1317</ele>
        <time>2013-04-09T16:39:12Z</time>
      </trkpt>
      <trkpt lat="59.9565366" lon="17.7896819">
        <ele>24.651</ele>
        <time>2013-04-09T16:39:13Z</time>
      </trkpt>
      <trkpt lat="59.9565266" lon="17.7898547">
        <ele>23.6896</ele>
        <time>2013-04-09T16:39:14Z</time>
      </trkpt>
      <trkpt lat="59.9565227" lon="17.7900158">
        <ele>23.6896</ele>
        <time>2013-04-09T16:39:15Z</time>
      </trkpt>
      <trkpt lat="59.9565337" lon="17.790172">
        <ele>24.1703</ele>
        <time>2013-04-09T16:39:16Z</time>
      </trkpt>
      <trkpt lat="59.9565545" lon="17.790326">
        <ele>24.651</ele>
        <time>2013-04-09T16:39:17Z</time>
      </trkpt>
      <trkpt lat="59.9565796" lon="17.79047">
        <ele>25.1317</ele>
        <time>2013-04-09T16:39:18Z</time>
      </trkpt>
      <trkpt lat="59.956606" lon="17.7906065">
        <ele>26.0929</ele>
        <time>2013-04-09T16:39:19Z</time>
      </trkpt>
      <trkpt lat="59.9566315" lon="17.7907364">
        <ele>26.5736</ele>
        <time>2013-04-09T16:39:20Z</time>
      </trkpt>
      <trkpt lat="59.9566545" lon="17.7908611">
        <ele>27.5349</ele>
        <time>2013-04-09T16:39:21Z</time>
      </trkpt>
      <trkpt lat="59.9566745" lon="17.7909816">
        <ele>28.0155</ele>
        <time>2013-04-09T16:39:22Z</time>
      </trkpt>
      <trkpt lat="59.9566916" lon="17.7910988">
        <ele>28.4962</ele>
        <time>2013-04-09T16:39:23Z</time>
      </trkpt>
      <trkpt lat="59.9567049" lon="17.7912154">
        <ele>28.9769</ele>
        <time>2013-04-09T16:39:24Z</time>
      </trkpt>
      <trkpt lat="59.9567127" lon="17.7913345">
        <ele>29.4575</ele>
        <time>2013-04-09T16:39:25Z</time>
      </trkpt>
      <trkpt lat="59.9567124" lon="17.7914594">
        <ele>29.4575</ele>
        <time>2013-04-09T16:39:26Z</time>
      </trkpt>
      <trkpt lat="59.9566834" lon="17.7915889">
        <ele>29.9381</ele>
        <time>2013-04-09T16:39:27Z</time>
      </trkpt>
      <trkpt lat="59.9566666" lon="17.79172">
        <ele>30.4188</ele>
        <time>2013-04-09T16:39:28Z</time>
      </trkpt>
      <trkpt lat="59.9566477" lon="17.7918489">
        <ele>30.4188</ele>
        <time>2013-04-09T16:39:29Z</time>
      </trkpt>
      <trkpt lat="59.9566264" lon="17.791977">
        <ele>30.4188</ele>
        <time>2013-04-09T16:39:30Z</time>
      </trkpt>
      <trkpt lat="59.9565918" lon="17.7920774">
        <ele>29.9381</ele>
        <time>2013-04-09T16:39:31Z</time>
      </trkpt>
      <trkpt lat="59.9565713" lon="17.792211">
        <ele>30.4188</ele>
        <time>2013-04-09T16:39:32Z</time>
      </trkpt>
      <trkpt lat="59.9565507" lon="17.7923442">
        <ele>30.4188</ele>
        <time>2013-04-09T16:39:33Z</time>
      </trkpt>
      <trkpt lat="59.9565288" lon="17.7924787">
        <ele>30.4188</ele>
        <time>2013-04-09T16:39:34Z</time>
      </trkpt>
      <trkpt lat="59.956506" lon="17.7926131">
        <ele>30.4188</ele>
        <time>2013-04-09T16:39:35Z</time>
      </trkpt>
      <trkpt lat="59.9564809" lon="17.7927454">
        <ele>30.8995</ele>
        <time>2013-04-09T16:39:36Z</time>
      </trkpt>
      <trkpt lat="59.9564576" lon="17.7928855">
        <ele>30.4188</ele>
        <time>2013-04-09T16:39:37Z</time>
      </trkpt>
      <trkpt lat="59.9564348" lon="17.793027">
        <ele>30.8995</ele>
        <time>2013-04-09T16:39:38Z</time>
      </trkpt>
      <trkpt lat="59.9564128" lon="17.7931683">
        <ele>30.8995</ele>
        <time>2013-04-09T16:39:39Z</time>
      </trkpt>
      <trkpt lat="59.9563854" lon="17.7932976">
        <ele>30.4188</ele>
        <time>2013-04-09T16:39:40Z</time>
      </trkpt>
      <trkpt lat="59.9563553" lon="17.7934267">
        <ele>29.9381</ele>
        <time>2013-04-09T16:39:41Z</time>
      </trkpt>
      <trkpt lat="59.9563221" lon="17.7935541">
        <ele>29.4575</ele>
        <time>2013-04-09T16:39:42Z</time>
      </trkpt>
      <trkpt lat="59.9562864" lon="17.7936788">
        <ele>28.9769</ele>
        <time>2013-04-09T16:39:43Z</time>
      </trkpt>
      <trkpt lat="59.9562529" lon="17.7938086">
        <ele>28.9769</ele>
        <time>2013-04-09T16:39:44Z</time>
      </trkpt>
      <trkpt lat="59.9562238" lon="17.7939475">
        <ele>28.4962</ele>
        <time>2013-04-09T16:39:45Z</time>
      </trkpt>
      <trkpt lat="59.9561904" lon="17.7940796">
        <ele>28.0155</ele>
        <time>2013-04-09T16:39:46Z</time>
      </trkpt>
      <trkpt lat="59.9561566" lon="17.7942136">
        <ele>28.0155</ele>
        <time>2013-04-09T16:39:47Z</time>
      </trkpt>
      <trkpt lat="59.9561224" lon="17.7943484">
        <ele>27.0543</ele>
        <time>2013-04-09T16:39:48Z</time>
      </trkpt>
      <trkpt lat="59.9560883" lon="17.7944854">
        <ele>26.5736</ele>
        <time>2013-04-09T16:39:49Z</time>
      </trkpt>
      <trkpt lat="59.9560534" lon="17.7946196">
        <ele>26.0929</ele>
        <time>2013-04-09T16:39:50Z</time>
      </trkpt>
      <trkpt lat="59.9560183" lon="17.7947532">
        <ele>26.0929</ele>
        <time>2013-04-09T16:39:51Z</time>
      </trkpt>
      <trkpt lat="59.9559832" lon="17.7948859">
        <ele>25.6123</ele>
        <time>2013-04-09T16:39:52Z</time>
      </trkpt>
      <trkpt lat="59.9559478" lon="17.7950185">
        <ele>25.1317</ele>
        <time>2013-04-09T16:39:53Z</time>
      </trkpt>
      <trkpt lat="59.9559126" lon="17.7951518">
        <ele>25.1317</ele>
        <time>2013-04-09T16:39:54Z</time>
      </trkpt>
      <trkpt lat="59.9558788" lon="17.7952849">
        <ele>24.651</ele>
        <time>2013-04-09T16:39:55Z</time>
      </trkpt>
      <trkpt lat="59.9558493" lon="17.7954242">
        <ele>24.651</ele>
        <time>2013-04-09T16:39:56Z</time>
      </trkpt>
      <trkpt lat="59.955821" lon="17.7955644">
        <ele>24.1703</ele>
        <time>2013-04-09T16:39:57Z</time>
      </trkpt>
      <trkpt lat="59.955795" lon="17.7957071">
        <ele>24.1703</ele>
        <time>2013-04-09T16:39:58Z</time>
      </trkpt>
      <trkpt lat="59.9557696" lon="17.7958526">
        <ele>24.1703</ele>
        <time>2013-04-09T16:39:59Z</time>
      </trkpt>
      <trkpt lat="59.9557446" lon="17.7959966">
        <ele>24.1703</ele>
        <time>2013-04-09T16:40:00Z</time>
      </trkpt>
      <trkpt lat="59.9557199" lon="17.7961458">
        <ele>24.1703</ele>
        <time>2013-04-09T16:40:01Z</time>
      </trkpt>
      <trkpt lat="59.9556945" lon="17.7962922">
        <ele>23.6896</ele>
        <time>2013-04-09T16:40:02Z</time>
      </trkpt>
      <trkpt lat="59.9556675" lon="17.7964354">
        <ele>23.6896</ele>
        <time>2013-04-09T16:40:03Z</time>
      </trkpt>
      <trkpt lat="59.9556389" lon="17.7965789">
        <ele>23.209</ele>
        <time>2013-04-09T16:40:04Z</time>
      </trkpt>
      <trkpt lat="59.9556081" lon="17.7967218">
        <ele>23.209</ele>
        <time>2013-04-09T16:40:05Z</time>
      </trkpt>
      <trkpt lat="59.9555757" lon="17.7968617">
        <ele>23.209</ele>
        <time>2013-04-09T16:40:06Z</time>
      </trkpt>
      <trkpt lat="59.9555407" lon="17.7969972">
        <ele>23.209</ele>
        <time>2013-04-09T16:40:07Z</time>
      </trkpt>
      <trkpt lat="59.9555045" lon="17.7971269">
        <ele>23.209</ele>
        <time>2013-04-09T16:40:08Z</time>
      </trkpt>
      <trkpt lat="59.9554682" lon="17.7972531">
        <ele>23.209</ele>
        <time>2013-04-09T16:40:09Z</time>
      </trkpt>
      <trkpt lat="59.9554317" lon="17.797377">
        <ele>23.209</ele>
        <time>2013-04-09T16:40:10Z</time>
      </trkpt>
      <trkpt lat="59.9553942" lon="17.797494">
        <ele>23.209</ele>
        <time>2013-04-09T16:40:11Z</time>
      </trkpt>
      <trkpt lat="59.9553568" lon="17.7976092">
        <ele>23.209</ele>
        <time>2013-04-09T16:40:12Z</time>
      </trkpt>
      <trkpt lat="59.9553208" lon="17.7977255">
        <ele>23.209</ele>
        <time>2013-04-09T16:40:13Z</time>
      </trkpt>
      <trkpt lat="59.9552861" lon="17.7978427">
        <ele>23.209</ele>
        <time>2013-04-09T16:40:14Z</time>
      </trkpt>
      <trkpt lat="59.9552516" lon="17.7979569">
        <ele>23.209</ele>
        <time>2013-04-09T16:40:15Z</time>
      </trkpt>
      <trkpt lat="59.9552164" lon="17.7980688">
        <ele>23.209</ele>
        <time>2013-04-09T16:40:16Z</time>
      </trkpt>
      <trkpt lat="59.9551805" lon="17.7981795">
        <ele>23.209</ele>
        <time>2013-04-09T16:40:17Z</time>
      </trkpt>
      <trkpt lat="59.9551438" lon="17.7982898">
        <ele>23.209</ele>
        <time>2013-04-09T16:40:18Z</time>
      </trkpt>
      <trkpt lat="59.955104" lon="17.7984007">
        <ele>23.6896</ele>
        <time>2013-04-09T16:40:19Z</time>
      </trkpt>
      <trkpt lat="59.955062" lon="17.7985049">
        <ele>23.6896</ele>
        <time>2013-04-09T16:40:20Z</time>
      </trkpt>
      <trkpt lat="59.9550201" lon="17.7986053">
        <ele>24.1703</ele>
        <time>2013-04-09T16:40:21Z</time>
      </trkpt>
      <trkpt lat="59.9549786" lon="17.7986963">
        <ele>24.1703</ele>
        <time>2013-04-09T16:40:22Z</time>
      </trkpt>
      <trkpt lat="59.9549362" lon="17.7987813">
        <ele>23.6896</ele>
        <time>2013-04-09T16:40:23Z</time>
      </trkpt>
      <trkpt lat="59.954892" lon="17.7988669">
        <ele>23.6896</ele>
        <time>2013-04-09T16:40:24Z</time>
      </trkpt>
      <trkpt lat="59.954845" lon="17.7989499">
        <ele>23.209</ele>
        <time>2013-04-09T16:40:25Z</time>
      </trkpt>
      <trkpt lat="59.9547967" lon="17.7990337">
        <ele>23.209</ele>
        <time>2013-04-09T16:40:26Z</time>
      </trkpt>
      <trkpt lat="59.954748" lon="17.7991218">
        <ele>22.7283</ele>
        <time>2013-04-09T16:40:27Z</time>
      </trkpt>
      <trkpt lat="59.9546984" lon="17.7992128">
        <ele>22.2476</ele>
        <time>2013-04-09T16:40:28Z</time>
      </trkpt>
      <trkpt lat="59.9546481" lon="17.7993088">
        <ele>22.2476</ele>
        <time>2013-04-09T16:40:29Z</time>
      </trkpt>
      <trkpt lat="59.9545972" lon="17.7994124">
        <ele>22.2476</ele>
        <time>2013-04-09T16:40:30Z</time>
      </trkpt>
      <trkpt lat="59.9545471" lon="17.799519">
        <ele>22.2476</ele>
        <time>2013-04-09T16:40:31Z</time>
      </trkpt>
      <trkpt lat="59.9544974" lon="17.7996319">
        <ele>22.2476</ele>
        <time>2013-04-09T16:40:32Z</time>
      </trkpt>
      <trkpt lat="59.9544473" lon="17.799746">
        <ele>22.2476</ele>
        <time>2013-04-09T16:40:33Z</time>
      </trkpt>
      <trkpt lat="59.9543974" lon="17.7998577">
        <ele>22.2476</ele>
        <time>2013-04-09T16:40:34Z</time>
      </trkpt>
      <trkpt lat="59.9543494" lon="17.7999701">
        <ele>22.7283</ele>
        <time>2013-04-09T16:40:35Z</time>
      </trkpt>
      <trkpt lat="59.9543047" lon="17.8000842">
        <ele>22.7283</ele>
        <time>2013-04-09T16:40:36Z</time>
      </trkpt>
      <trkpt lat="59.9542601" lon="17.8001905">
        <ele>22.7283</ele>
        <time>2013-04-09T16:40:37Z</time>
      </trkpt>
      <trkpt lat="59.954216" lon="17.8002947">
        <ele>22.2476</ele>
        <time>2013-04-09T16:40:38Z</time>
      </trkpt>
      <trkpt lat="59.9541722" lon="17.800425">
        <ele>21.767</ele>
        <time>2013-04-09T16:40:39Z</time>
      </trkpt>
      <trkpt lat="59.9541219" lon="17.8005428">
        <ele>21.767</ele>
        <time>2013-04-09T16:40:40Z</time>
      </trkpt>
      <trkpt lat="59.9540681" lon="17.8006687">
        <ele>21.767</ele>
        <time>2013-04-09T16:40:41Z</time>
      </trkpt>
      <trkpt lat="59.9540219" lon="17.8007991">
        <ele>21.2864</ele>
        <time>2013-04-09T16:40:42Z</time>
      </trkpt>
      <trkpt lat="59.9539778" lon="17.800909">
        <ele>21.2864</ele>
        <time>2013-04-09T16:40:43Z</time>
      </trkpt>
      <trkpt lat="59.9539349" lon="17.8010136">
        <ele>20.8057</ele>
        <time>2013-04-09T16:40:44Z</time>
      </trkpt>
      <trkpt lat="59.9538898" lon="17.8011218">
        <ele>21.2864</ele>
        <time>2013-04-09T16:40:45Z</time>
      </trkpt>
      <trkpt lat="59.9538499" lon="17.8012195">
        <ele>20.8057</ele>
        <time>2013-04-09T16:40:46Z</time>
      </trkpt>
      <trkpt lat="59.9538084" lon="17.8013188">
        <ele>21.2864</ele>
        <time>2013-04-09T16:40:47Z</time>
      </trkpt>
      <trkpt lat="59.9537696" lon="17.8014156">
        <ele>20.8057</ele>
        <time>2013-04-09T16:40:48Z</time>
      </trkpt>
      <trkpt lat="59.9537306" lon="17.8014881">
        <ele>20.8057</ele>
        <time>2013-04-09T16:40:49Z</time>
      </trkpt>
      <trkpt lat="59.9536985" lon="17.8015906">
        <ele>21.2864</ele>
        <time>2013-04-09T16:40:50Z</time>
      </trkpt>
      <trkpt lat="59.9536736" lon="17.8016889">
        <ele>21.767</ele>
        <time>2013-04-09T16:40:51Z</time>
      </trkpt>
      <trkpt lat="59.9536478" lon="17.8017757">
        <ele>21.767</ele>
        <time>2013-04-09T16:40:52Z</time>
      </trkpt>
      <trkpt lat="59.9536275" lon="17.8018639">
        <ele>21.767</ele>
        <time>2013-04-09T16:40:53Z</time>
      </trkpt>
      <trkpt lat="59.9536151" lon="17.8019662">
        <ele>22.2476</ele>
        <time>2013-04-09T16:40:54Z</time>
      </trkpt>
      <trkpt lat="59.9536028" lon="17.8020613">
        <ele>22.7283</ele>
        <time>2013-04-09T16:40:55Z</time>
      </trkpt>
      <trkpt lat="59.9535894" lon="17.8021578">
        <ele>22.7283</ele>
        <time>2013-04-09T16:40:56Z</time>
      </trkpt>
      <trkpt lat="59.9535777" lon="17.8022526">
        <ele>23.209</ele>
        <time>2013-04-09T16:40:57Z</time>
      </trkpt>
      <trkpt lat="59.9535672" lon="17.8023546">
        <ele>24.651</ele>
        <time>2013-04-09T16:40:58Z</time>
      </trkpt>
      <trkpt lat="59.9535556" lon="17.8024493">
        <ele>25.1317</ele>
        <time>2013-04-09T16:40:59Z</time>
      </trkpt>
      <trkpt lat="59.9535421" lon="17.8025376">
        <ele>25.6123</ele>
        <time>2013-04-09T16:41:00Z</time>
      </trkpt>
      <trkpt lat="59.9535272" lon="17.8026242">
        <ele>26.0929</ele>
        <time>2013-04-09T16:41:01Z</time>
      </trkpt>
      <trkpt lat="59.9535081" lon="17.8027096">
        <ele>26.5736</ele>
        <time>2013-04-09T16:41:02Z</time>
      </trkpt>
      <trkpt lat="59.95349" lon="17.802797">
        <ele>26.5736</ele>
        <time>2013-04-09T16:41:03Z</time>
      </trkpt>
      <trkpt lat="59.9534734" lon="17.8028856">
        <ele>27.0543</ele>
        <time>2013-04-09T16:41:04Z</time>
      </trkpt>
      <trkpt lat="59.9534552" lon="17.8029816">
        <ele>27.0543</ele>
        <time>2013-04-09T16:41:05Z</time>
      </trkpt>
      <trkpt lat="59.9534359" lon="17.8030726">
        <ele>27.0543</ele>
        <time>2013-04-09T16:41:06Z</time>
      </trkpt>
      <trkpt lat="59.9534151" lon="17.8031592">
        <ele>27.0543</ele>
        <time>2013-04-09T16:41:07Z</time>
      </trkpt>
      <trkpt lat="59.9533889" lon="17.8032514">
        <ele>27.0543</ele>
        <time>2013-04-09T16:41:08Z</time>
      </trkpt>
      <trkpt lat="59.9533557" lon="17.8033535">
        <ele>28.4962</ele>
        <time>2013-04-09T16:41:09Z</time>
      </trkpt>
      <trkpt lat="59.9533234" lon="17.8034404">
        <ele>28.4962</ele>
        <time>2013-04-09T16:41:10Z</time>
      </trkpt>
      <trkpt lat="59.9532903" lon="17.8035278">
        <ele>28.0155</ele>
        <time>2013-04-09T16:41:11Z</time>
      </trkpt>
      <trkpt lat="59.9532552" lon="17.8036129">
        <ele>28.0155</ele>
        <time>2013-04-09T16:41:12Z</time>
      </trkpt>
      <trkpt lat="59.9532169" lon="17.8037">
        <ele>28.0155</ele>
        <time>2013-04-09T16:41:13Z</time>
      </trkpt>
      <trkpt lat="59.9531749" lon="17.8037988">
        <ele>28.9769</ele>
        <time>2013-04-09T16:41:14Z</time>
      </trkpt>
      <trkpt lat="59.9531324" lon="17.8038959">
        <ele>29.4575</ele>
        <time>2013-04-09T16:41:15Z</time>
      </trkpt>
      <trkpt lat="59.9530888" lon="17.8039868">
        <ele>28.9769</ele>
        <time>2013-04-09T16:41:16Z</time>
      </trkpt>
      <trkpt lat="59.9530407" lon="17.8040753">
        <ele>28.0155</ele>
        <time>2013-04-09T16:41:17Z</time>
      </trkpt>
      <trkpt lat="59.9529921" lon="17.8041722">
        <ele>27.5349</ele>
        <time>2013-04-09T16:41:18Z</time>
      </trkpt>
      <trkpt lat="59.9529455" lon="17.804279">
        <ele>27.0543</ele>
        <time>2013-04-09T16:41:19Z</time>
      </trkpt>
      <trkpt lat="59.952903" lon="17.8043998">
        <ele>26.5736</ele>
        <time>2013-04-09T16:41:20Z</time>
      </trkpt>
      <trkpt lat="59.9528656" lon="17.8045324">
        <ele>26.5736</ele>
        <time>2013-04-09T16:41:21Z</time>
      </trkpt>
      <trkpt lat="59.9528157" lon="17.804704">
        <ele>26.5736</ele>
        <time>2013-04-09T16:41:22Z</time>
      </trkpt>
      <trkpt lat="59.952788" lon="17.8048368">
        <ele>26.0929</ele>
        <time>2013-04-09T16:41:23Z</time>
      </trkpt>
      <trkpt lat="59.9527657" lon="17.8050051">
        <ele>25.6123</ele>
        <time>2013-04-09T16:41:24Z</time>
      </trkpt>
      <trkpt lat="59.952745" lon="17.8051663">
        <ele>25.6123</ele>
        <time>2013-04-09T16:41:25Z</time>
      </trkpt>
      <trkpt lat="59.9527287" lon="17.8053261">
        <ele>25.1317</ele>
        <time>2013-04-09T16:41:26Z</time>
      </trkpt>
      <trkpt lat="59.9527103" lon="17.8054848">
        <ele>25.1317</ele>
        <time>2013-04-09T16:41:27Z</time>
      </trkpt>
      <trkpt lat="59.9526932" lon="17.8056433">
        <ele>25.1317</ele>
        <time>2013-04-09T16:41:28Z</time>
      </trkpt>
      <trkpt lat="59.9526741" lon="17.8057946">
        <ele>25.1317</ele>
        <time>2013-04-09T16:41:29Z</time>
      </trkpt>
      <trkpt lat="59.9526498" lon="17.8059388">
        <ele>24.651</ele>
        <time>2013-04-09T16:41:30Z</time>
      </trkpt>
      <trkpt lat="59.9526254" lon="17.806086">
        <ele>24.651</ele>
        <time>2013-04-09T16:41:31Z</time>
      </trkpt>
      <trkpt lat="59.9525958" lon="17.806223">
        <ele>24.1703</ele>
        <time>2013-04-09T16:41:32Z</time>
      </trkpt>
      <trkpt lat="59.9525661" lon="17.8063609">
        <ele>23.6896</ele>
        <time>2013-04-09T16:41:33Z</time>
      </trkpt>
      <trkpt lat="59.9525367" lon="17.8064998">
        <ele>23.6896</ele>
        <time>2013-04-09T16:41:34Z</time>
      </trkpt>
      <trkpt lat="59.9525073" lon="17.8066463">
        <ele>23.6896</ele>
        <time>2013-04-09T16:41:35Z</time>
      </trkpt>
      <trkpt lat="59.952473" lon="17.80679">
        <ele>23.209</ele>
        <time>2013-04-09T16:41:36Z</time>
      </trkpt>
      <trkpt lat="59.9524373" lon="17.806936">
        <ele>22.7283</ele>
        <time>2013-04-09T16:41:37Z</time>
      </trkpt>
      <trkpt lat="59.9524003" lon="17.8070847">
        <ele>22.7283</ele>
        <time>2013-04-09T16:41:38Z</time>
      </trkpt>
      <trkpt lat="59.9523612" lon="17.807236">
        <ele>22.2476</ele>
        <time>2013-04-09T16:41:39Z</time>
      </trkpt>
      <trkpt lat="59.9523205" lon="17.8073906">
        <ele>22.2476</ele>
        <time>2013-04-09T16:41:40Z</time>
      </trkpt>
      <trkpt lat="59.9522792" lon="17.8075451">
        <ele>22.2476</ele>
        <time>2013-04-09T16:41:41Z</time>
      </trkpt>
      <trkpt lat="59.9522388" lon="17.8077004">
        <ele>21.767</ele>
        <time>2013-04-09T16:41:42Z</time>
      </trkpt>
      <trkpt lat="59.9521983" lon="17.8078564">
        <ele>21.767</ele>
        <time>2013-04-09T16:41:43Z</time>
      </trkpt>
      <trkpt lat="59.9521561" lon="17.808012">
        <ele>21.2864</ele>
        <time>2013-04-09T16:41:44Z</time>
      </trkpt>
      <trkpt lat="59.9521133" lon="17.8081683">
        <ele>21.2864</ele>
        <time>2013-04-09T16:41:45Z</time>
      </trkpt>
      <trkpt lat="59.9520704" lon="17.8083266">
        <ele>21.2864</ele>
        <time>2013-04-09T16:41:46Z</time>
      </trkpt>
      <trkpt lat="59.9520279" lon="17.8084877">
        <ele>20.8057</ele>
        <time>2013-04-09T16:41:47Z</time>
      </trkpt>
      <trkpt lat="59.9519852" lon="17.8086486">
        <ele>20.8057</ele>
        <time>2013-04-09T16:41:48Z</time>
      </trkpt>
      <trkpt lat="59.9519425" lon="17.8088104">
        <ele>20.8057</ele>
        <time>2013-04-09T16:41:49Z</time>
      </trkpt>
      <trkpt lat="59.9518999" lon="17.8089737">
        <ele>20.8057</ele>
        <time>2013-04-09T16:41:50Z</time>
      </trkpt>
      <trkpt lat="59.9518574" lon="17.8091378">
        <ele>20.8057</ele>
        <time>2013-04-09T16:41:51Z</time>
      </trkpt>
      <trkpt lat="59.951815" lon="17.8093017">
        <ele>20.325</ele>
        <time>2013-04-09T16:41:52Z</time>
      </trkpt>
      <trkpt lat="59.9517719" lon="17.8094654">
        <ele>20.325</ele>
        <time>2013-04-09T16:41:53Z</time>
      </trkpt>
      <trkpt lat="59.9517281" lon="17.8096284">
        <ele>20.325</ele>
        <time>2013-04-09T16:41:54Z</time>
      </trkpt>
      <trkpt lat="59.9516847" lon="17.8097898">
        <ele>20.325</ele>
        <time>2013-04-09T16:41:55Z</time>
      </trkpt>
      <trkpt lat="59.9516425" lon="17.8099523">
        <ele>20.325</ele>
        <time>2013-04-09T16:41:56Z</time>
      </trkpt>
      <trkpt lat="59.9516003" lon="17.8101145">
        <ele>20.325</ele>
        <time>2013-04-09T16:41:57Z</time>
      </trkpt>
      <trkpt lat="59.9515598" lon="17.8102756">
        <ele>20.325</ele>
        <time>2013-04-09T16:41:58Z</time>
      </trkpt>
      <trkpt lat="59.951523" lon="17.8104385">
        <ele>20.325</ele>
        <time>2013-04-09T16:41:59Z</time>
      </trkpt>
      <trkpt lat="59.9514889" lon="17.8106034">
        <ele>20.325</ele>
        <time>2013-04-09T16:42:00Z</time>
      </trkpt>
      <trkpt lat="59.951457" lon="17.8107682">
        <ele>20.325</ele>
        <time>2013-04-09T16:42:01Z</time>
      </trkpt>
      <trkpt lat="59.951427" lon="17.8109339">
        <ele>20.325</ele>
        <time>2013-04-09T16:42:02Z</time>
      </trkpt>
      <trkpt lat="59.9513998" lon="17.8111008">
        <ele>19.8444</ele>
        <time>2013-04-09T16:42:03Z</time>
      </trkpt>
      <trkpt lat="59.951376" lon="17.8112694">
        <ele>19.8444</ele>
        <time>2013-04-09T16:42:04Z</time>
      </trkpt>
      <trkpt lat="59.9513541" lon="17.8114401">
        <ele>19.8444</ele>
        <time>2013-04-09T16:42:05Z</time>
      </trkpt>
      <trkpt lat="59.9513333" lon="17.8116114">
        <ele>19.8444</ele>
        <time>2013-04-09T16:42:06Z</time>
      </trkpt>
      <trkpt lat="59.9513146" lon="17.8117823">
        <ele>19.8444</ele>
        <time>2013-04-09T16:42:07Z</time>
      </trkpt>
      <trkpt lat="59.9513028" lon="17.8119599">
        <ele>19.8444</ele>
        <time>2013-04-09T16:42:08Z</time>
      </trkpt>
      <trkpt lat="59.9512972" lon="17.81214">
        <ele>20.325</ele>
        <time>2013-04-09T16:42:09Z</time>
      </trkpt>
      <trkpt lat="59.9512949" lon="17.8123218">
        <ele>20.325</ele>
        <time>2013-04-09T16:42:10Z</time>
      </trkpt>
      <trkpt lat="59.9512929" lon="17.8125056">
        <ele>20.325</ele>
        <time>2013-04-09T16:42:11Z</time>
      </trkpt>
      <trkpt lat="59.9512909" lon="17.8126916">
        <ele>20.325</ele>
        <time>2013-04-09T16:42:12Z</time>
      </trkpt>
      <trkpt lat="59.9512903" lon="17.8128786">
        <ele>20.8057</ele>
        <time>2013-04-09T16:42:13Z</time>
      </trkpt>
      <trkpt lat="59.95129" lon="17.8130656">
        <ele>20.8057</ele>
        <time>2013-04-09T16:42:14Z</time>
      </trkpt>
      <trkpt lat="59.9512899" lon="17.8132563">
        <ele>20.8057</ele>
        <time>2013-04-09T16:42:15Z</time>
      </trkpt>
      <trkpt lat="59.9512908" lon="17.8134456">
        <ele>20.8057</ele>
        <time>2013-04-09T16:42:16Z</time>
      </trkpt>
      <trkpt lat="59.9512923" lon="17.8136358">
        <ele>21.2864</ele>
        <time>2013-04-09T16:42:17Z</time>
      </trkpt>
      <trkpt lat="59.9512931" lon="17.8138256">
        <ele>21.2864</ele>
        <time>2013-04-09T16:42:18Z</time>
      </trkpt>
      <trkpt lat="59.951293" lon="17.814015">
        <ele>21.767</ele>
        <time>2013-04-09T16:42:19Z</time>
      </trkpt>
      <trkpt lat="59.9512923" lon="17.814204">
        <ele>21.767</ele>
        <time>2013-04-09T16:42:20Z</time>
      </trkpt>
      <trkpt lat="59.9512917" lon="17.8143952">
        <ele>22.2476</ele>
        <time>2013-04-09T16:42:21Z</time>
      </trkpt>
      <trkpt lat="59.9512914" lon="17.8145855">
        <ele>22.7283</ele>
        <time>2013-04-09T16:42:22Z</time>
      </trkpt>
      <trkpt lat="59.9512904" lon="17.8147729">
        <ele>23.209</ele>
        <time>2013-04-09T16:42:23Z</time>
      </trkpt>
      <trkpt lat="59.9512884" lon="17.8149598">
        <ele>23.209</ele>
        <time>2013-04-09T16:42:24Z</time>
      </trkpt>
      <trkpt lat="59.9512858" lon="17.8151474">
        <ele>23.6896</ele>
        <time>2013-04-09T16:42:25Z</time>
      </trkpt>
      <trkpt lat="59.9512822" lon="17.8153332">
        <ele>24.1703</ele>
        <time>2013-04-09T16:42:26Z</time>
      </trkpt>
      <trkpt lat="59.9512778" lon="17.8155177">
        <ele>24.1703</ele>
        <time>2013-04-09T16:42:27Z</time>
      </trkpt>
      <trkpt lat="59.9512718" lon="17.8157002">
        <ele>24.651</ele>
        <time>2013-04-09T16:42:28Z</time>
      </trkpt>
      <trkpt lat="59.9512636" lon="17.8158818">
        <ele>25.1317</ele>
        <time>2013-04-09T16:42:29Z</time>
      </trkpt>
      <trkpt lat="59.9512524" lon="17.8160585">
        <ele>25.1317</ele>
        <time>2013-04-09T16:42:30Z</time>
      </trkpt>
      <trkpt lat="59.9512403" lon="17.8162353">
        <ele>25.1317</ele>
        <time>2013-04-09T16:42:31Z</time>
      </trkpt>
      <trkpt lat="59.9512261" lon="17.8164098">
        <ele>25.1317</ele>
        <time>2013-04-09T16:42:32Z</time>
      </trkpt>
      <trkpt lat="59.9512105" lon="17.8165823">
        <ele>25.1317</ele>
        <time>2013-04-09T16:42:33Z</time>
      </trkpt>
      <trkpt lat="59.9511941" lon="17.8167528">
        <ele>25.1317</ele>
        <time>2013-04-09T16:42:34Z</time>
      </trkpt>
      <trkpt lat="59.9511773" lon="17.8169227">
        <ele>25.1317</ele>
        <time>2013-04-09T16:42:35Z</time>
      </trkpt>
      <trkpt lat="59.9511599" lon="17.817092">
        <ele>25.1317</ele>
        <time>2013-04-09T16:42:36Z</time>
      </trkpt>
      <trkpt lat="59.9511432" lon="17.8172631">
        <ele>25.1317</ele>
        <time>2013-04-09T16:42:37Z</time>
      </trkpt>
      <trkpt lat="59.9511258" lon="17.817433">
        <ele>25.1317</ele>
        <time>2013-04-09T16:42:38Z</time>
      </trkpt>
      <trkpt lat="59.9511084" lon="17.8176001">
        <ele>25.1317</ele>
        <time>2013-04-09T16:42:39Z</time>
      </trkpt>
      <trkpt lat="59.951092" lon="17.8177659">
        <ele>25.1317</ele>
        <time>2013-04-09T16:42:40Z</time>
      </trkpt>
      <trkpt lat="59.9510761" lon="17.8179307">
        <ele>25.1317</ele>
        <time>2013-04-09T16:42:41Z</time>
      </trkpt>
      <trkpt lat="59.9510597" lon="17.8180934">
        <ele>25.6123</ele>
        <time>2013-04-09T16:42:42Z</time>
      </trkpt>
      <trkpt lat="59.9510432" lon="17.818254">
        <ele>25.6123</ele>
        <time>2013-04-09T16:42:43Z</time>
      </trkpt>
      <trkpt lat="59.9510272" lon="17.8184135">
        <ele>25.6123</ele>
        <time>2013-04-09T16:42:44Z</time>
      </trkpt>
      <trkpt lat="59.9510117" lon="17.8185719">
        <ele>25.6123</ele>
        <time>2013-04-09T16:42:45Z</time>
      </trkpt>
      <trkpt lat="59.9509973" lon="17.8187338">
        <ele>25.6123</ele>
        <time>2013-04-09T16:42:46Z</time>
      </trkpt>
      <trkpt lat="59.9509837" lon="17.8188983">
        <ele>25.6123</ele>
        <time>2013-04-09T16:42:47Z</time>
      </trkpt>
      <trkpt lat="59.9509714" lon="17.8190641">
        <ele>25.6123</ele>
        <time>2013-04-09T16:42:48Z</time>
      </trkpt>
      <trkpt lat="59.9509625" lon="17.8192309">
        <ele>25.1317</ele>
        <time>2013-04-09T16:42:49Z</time>
      </trkpt>
      <trkpt lat="59.9509587" lon="17.8193937">
        <ele>24.651</ele>
        <time>2013-04-09T16:42:50Z</time>
      </trkpt>
      <trkpt lat="59.9509569" lon="17.8195644">
        <ele>24.651</ele>
        <time>2013-04-09T16:42:51Z</time>
      </trkpt>
      <trkpt lat="59.9509561" lon="17.8197351">
        <ele>24.651</ele>
        <time>2013-04-09T16:42:52Z</time>
      </trkpt>
      <trkpt lat="59.950954" lon="17.8199089">
        <ele>24.651</ele>
        <time>2013-04-09T16:42:53Z</time>
      </trkpt>
      <trkpt lat="59.9509507" lon="17.8200846">
        <ele>24.651</ele>
        <time>2013-04-09T16:42:54Z</time>
      </trkpt>
      <trkpt lat="59.9509444" lon="17.8202576">
        <ele>24.1703</ele>
        <time>2013-04-09T16:42:55Z</time>
      </trkpt>
      <trkpt lat="59.9509355" lon="17.8204325">
        <ele>23.6896</ele>
        <time>2013-04-09T16:42:56Z</time>
      </trkpt>
      <trkpt lat="59.950925" lon="17.8206076">
        <ele>23.6896</ele>
        <time>2013-04-09T16:42:57Z</time>
      </trkpt>
      <trkpt lat="59.9509141" lon="17.8207837">
        <ele>23.6896</ele>
        <time>2013-04-09T16:42:58Z</time>
      </trkpt>
      <trkpt lat="59.9509024" lon="17.8209584">
        <ele>23.209</ele>
        <time>2013-04-09T16:42:59Z</time>
      </trkpt>
      <trkpt lat="59.9508887" lon="17.8211337">
        <ele>23.209</ele>
        <time>2013-04-09T16:43:00Z</time>
      </trkpt>
      <trkpt lat="59.9508733" lon="17.8213092">
        <ele>23.209</ele>
        <time>2013-04-09T16:43:01Z</time>
      </trkpt>
      <trkpt lat="59.9508574" lon="17.8214836">
        <ele>23.209</ele>
        <time>2013-04-09T16:43:02Z</time>
      </trkpt>
      <trkpt lat="59.9508406" lon="17.8216578">
        <ele>23.209</ele>
        <time>2013-04-09T16:43:03Z</time>
      </trkpt>
      <trkpt lat="59.9508219" lon="17.8218323">
        <ele>22.7283</ele>
        <time>2013-04-09T16:43:04Z</time>
      </trkpt>
      <trkpt lat="59.9508023" lon="17.8220083">
        <ele>22.7283</ele>
        <time>2013-04-09T16:43:05Z</time>
      </trkpt>
      <trkpt lat="59.9507825" lon="17.8221834">
        <ele>22.7283</ele>
        <time>2013-04-09T16:43:06Z</time>
      </trkpt>
      <trkpt lat="59.9507616" lon="17.8223583">
        <ele>22.7283</ele>
        <time>2013-04-09T16:43:07Z</time>
      </trkpt>
      <trkpt lat="59.9507397" lon="17.8225334">
        <ele>22.7283</ele>
        <time>2013-04-09T16:43:08Z</time>
      </trkpt>
      <trkpt lat="59.950718" lon="17.8227094">
        <ele>22.2476</ele>
        <time>2013-04-09T16:43:09Z</time>
      </trkpt>
      <trkpt lat="59.9506989" lon="17.8228859">
        <ele>22.2476</ele>
        <time>2013-04-09T16:43:10Z</time>
      </trkpt>
      <trkpt lat="59.9506822" lon="17.8230626">
        <ele>22.2476</ele>
        <time>2013-04-09T16:43:11Z</time>
      </trkpt>
      <trkpt lat="59.9506662" lon="17.8232392">
        <ele>22.2476</ele>
        <time>2013-04-09T16:43:12Z</time>
      </trkpt>
      <trkpt lat="59.9506491" lon="17.8234159">
        <ele>22.2476</ele>
        <time>2013-04-09T16:43:13Z</time>
      </trkpt>
      <trkpt lat="59.9506294" lon="17.8235915">
        <ele>22.2476</ele>
        <time>2013-04-09T16:43:14Z</time>
      </trkpt>
      <trkpt lat="59.9506059" lon="17.8237651">
        <ele>22.2476</ele>
        <time>2013-04-09T16:43:15Z</time>
      </trkpt>
      <trkpt lat="59.9505771" lon="17.8239343">
        <ele>21.767</ele>
        <time>2013-04-09T16:43:16Z</time>
      </trkpt>
      <trkpt lat="59.9505453" lon="17.8241021">
        <ele>21.767</ele>
        <time>2013-04-09T16:43:17Z</time>
      </trkpt>
      <trkpt lat="59.9505098" lon="17.824265">
        <ele>21.2864</ele>
        <time>2013-04-09T16:43:18Z</time>
      </trkpt>
      <trkpt lat="59.950472" lon="17.824426">
        <ele>20.8057</ele>
        <time>2013-04-09T16:43:19Z</time>
      </trkpt>
      <trkpt lat="59.9504331" lon="17.8245866">
        <ele>20.8057</ele>
        <time>2013-04-09T16:43:20Z</time>
      </trkpt>
      <trkpt lat="59.9503952" lon="17.8247472">
        <ele>20.325</ele>
        <time>2013-04-09T16:43:21Z</time>
      </trkpt>
      <trkpt lat="59.9503583" lon="17.8249083">
        <ele>20.325</ele>
        <time>2013-04-09T16:43:22Z</time>
      </trkpt>
      <trkpt lat="59.9503217" lon="17.8250695">
        <ele>20.325</ele>
        <time>2013-04-09T16:43:23Z</time>
      </trkpt>
      <trkpt lat="59.9502845" lon="17.8252295">
        <ele>19.8444</ele>
        <time>2013-04-09T16:43:24Z</time>
      </trkpt>
      <trkpt lat="59.9502471" lon="17.8253883">
        <ele>19.8444</ele>
        <time>2013-04-09T16:43:25Z</time>
      </trkpt>
      <trkpt lat="59.9502091" lon="17.825546">
        <ele>19.3638</ele>
        <time>2013-04-09T16:43:26Z</time>
      </trkpt>
      <trkpt lat="59.9501723" lon="17.8257035">
        <ele>19.3638</ele>
        <time>2013-04-09T16:43:27Z</time>
      </trkpt>
      <trkpt lat="59.9501368" lon="17.8258608">
        <ele>19.3638</ele>
        <time>2013-04-09T16:43:28Z</time>
      </trkpt>
      <trkpt lat="59.9501024" lon="17.8260189">
        <ele>19.3638</ele>
        <time>2013-04-09T16:43:29Z</time>
      </trkpt>
      <trkpt lat="59.9500705" lon="17.8261789">
        <ele>19.3638</ele>
        <time>2013-04-09T16:43:30Z</time>
      </trkpt>
      <trkpt lat="59.9500434" lon="17.8263416">
        <ele>18.8831</ele>
        <time>2013-04-09T16:43:31Z</time>
      </trkpt>
      <trkpt lat="59.9500221" lon="17.8265079">
        <ele>18.8831</ele>
        <time>2013-04-09T16:43:32Z</time>
      </trkpt>
      <trkpt lat="59.9500057" lon="17.8266756">
        <ele>18.8831</ele>
        <time>2013-04-09T16:43:33Z</time>
      </trkpt>
      <trkpt lat="59.9499936" lon="17.8268437">
        <ele>18.8831</ele>
        <time>2013-04-09T16:43:34Z</time>
      </trkpt>
      <trkpt lat="59.9499848" lon="17.8270138">
        <ele>18.8831</ele>
        <time>2013-04-09T16:43:35Z</time>
      </trkpt>
      <trkpt lat="59.9499787" lon="17.8271845">
        <ele>18.8831</ele>
        <time>2013-04-09T16:43:36Z</time>
      </trkpt>
      <trkpt lat="59.9499753" lon="17.8273559">
        <ele>18.8831</ele>
        <time>2013-04-09T16:43:37Z</time>
      </trkpt>
      <trkpt lat="59.9499747" lon="17.8275269">
        <ele>18.8831</ele>
        <time>2013-04-09T16:43:38Z</time>
      </trkpt>
      <trkpt lat="59.949976" lon="17.8276982">
        <ele>18.8831</ele>
        <time>2013-04-09T16:43:39Z</time>
      </trkpt>
      <trkpt lat="59.9499778" lon="17.8278698">
        <ele>19.3638</ele>
        <time>2013-04-09T16:43:40Z</time>
      </trkpt>
      <trkpt lat="59.9499802" lon="17.8280407">
        <ele>19.3638</ele>
        <time>2013-04-09T16:43:41Z</time>
      </trkpt>
      <trkpt lat="59.9499831" lon="17.8282118">
        <ele>19.3638</ele>
        <time>2013-04-09T16:43:42Z</time>
      </trkpt>
      <trkpt lat="59.9499871" lon="17.8283811">
        <ele>19.3638</ele>
        <time>2013-04-09T16:43:43Z</time>
      </trkpt>
      <trkpt lat="59.9499916" lon="17.8285479">
        <ele>19.3638</ele>
        <time>2013-04-09T16:43:44Z</time>
      </trkpt>
      <trkpt lat="59.9499964" lon="17.8287124">
        <ele>19.8444</ele>
        <time>2013-04-09T16:43:45Z</time>
      </trkpt>
      <trkpt lat="59.950001" lon="17.8288731">
        <ele>19.8444</ele>
        <time>2013-04-09T16:43:46Z</time>
      </trkpt>
      <trkpt lat="59.9500022" lon="17.8290299">
        <ele>19.8444</ele>
        <time>2013-04-09T16:43:47Z</time>
      </trkpt>
      <trkpt lat="59.9499996" lon="17.8291794">
        <ele>19.8444</ele>
        <time>2013-04-09T16:43:48Z</time>
      </trkpt>
      <trkpt lat="59.9499938" lon="17.8293233">
        <ele>19.8444</ele>
        <time>2013-04-09T16:43:49Z</time>
      </trkpt>
      <trkpt lat="59.949983" lon="17.82946">
        <ele>19.8444</ele>
        <time>2013-04-09T16:43:50Z</time>
      </trkpt>
      <trkpt lat="59.9499622" lon="17.8295861">
        <ele>20.325</ele>
        <time>2013-04-09T16:43:51Z</time>
      </trkpt>
      <trkpt lat="59.9499275" lon="17.8296886">
        <ele>20.325</ele>
        <time>2013-04-09T16:43:52Z</time>
      </trkpt>
      <trkpt lat="59.9498788" lon="17.829757">
        <ele>20.325</ele>
        <time>2013-04-09T16:43:53Z</time>
      </trkpt>
      <trkpt lat="59.9498203" lon="17.8297759">
        <ele>20.325</ele>
        <time>2013-04-09T16:43:54Z</time>
      </trkpt>
      <trkpt lat="59.9497633" lon="17.8297414">
        <ele>19.8444</ele>
        <time>2013-04-09T16:43:55Z</time>
      </trkpt>
      <trkpt lat="59.9497128" lon="17.8296673">
        <ele>19.3638</ele>
        <time>2013-04-09T16:43:56Z</time>
      </trkpt>
      <trkpt lat="59.9496634" lon="17.829583">
        <ele>18.8831</ele>
        <time>2013-04-09T16:43:57Z</time>
      </trkpt>
      <trkpt lat="59.9496132" lon="17.8294978">
        <ele>18.4023</ele>
        <time>2013-04-09T16:43:58Z</time>
      </trkpt>
      <trkpt lat="59.9495633" lon="17.8294093">
        <ele>17.9218</ele>
        <time>2013-04-09T16:43:59Z</time>
      </trkpt>
      <trkpt lat="59.9495132" lon="17.8293171">
        <ele>17.4412</ele>
        <time>2013-04-09T16:44:00Z</time>
      </trkpt>
      <trkpt lat="59.9494623" lon="17.8292285">
        <ele>17.4412</ele>
        <time>2013-04-09T16:44:01Z</time>
      </trkpt>
      <trkpt lat="59.9494069" lon="17.8291475">
        <ele>16.9604</ele>
        <time>2013-04-09T16:44:02Z</time>
      </trkpt>
      <trkpt lat="59.9493487" lon="17.82907">
        <ele>16.9604</ele>
        <time>2013-04-09T16:44:03Z</time>
      </trkpt>
      <trkpt lat="59.9492884" lon="17.8289934">
        <ele>16.9604</ele>
        <time>2013-04-09T16:44:04Z</time>
      </trkpt>
      <trkpt lat="59.9492251" lon="17.8289198">
        <ele>16.9604</ele>
        <time>2013-04-09T16:44:05Z</time>
      </trkpt>
      <trkpt lat="59.9491613" lon="17.8288478">
        <ele>16.9604</ele>
        <time>2013-04-09T16:44:06Z</time>
      </trkpt>
      <trkpt lat="59.9490978" lon="17.8287737">
        <ele>16.9604</ele>
        <time>2013-04-09T16:44:07Z</time>
      </trkpt>
      <trkpt lat="59.9490334" lon="17.8287001">
        <ele>16.9604</ele>
        <time>2013-04-09T16:44:08Z</time>
      </trkpt>
      <trkpt lat="59.9489682" lon="17.8286282">
        <ele>16.9604</ele>
        <time>2013-04-09T16:44:09Z</time>
      </trkpt>
      <trkpt lat="59.9489048" lon="17.8285555">
        <ele>16.9604</ele>
        <time>2013-04-09T16:44:10Z</time>
      </trkpt>
      <trkpt lat="59.9488428" lon="17.828484">
        <ele>16.9604</ele>
        <time>2013-04-09T16:44:11Z</time>
      </trkpt>
      <trkpt lat="59.9487818" lon="17.8284161">
        <ele>16.9604</ele>
        <time>2013-04-09T16:44:12Z</time>
      </trkpt>
      <trkpt lat="59.9487209" lon="17.82835">
        <ele>16.9604</ele>
        <time>2013-04-09T16:44:13Z</time>
      </trkpt>
      <trkpt lat="59.9486616" lon="17.8282838">
        <ele>16.9604</ele>
        <time>2013-04-09T16:44:14Z</time>
      </trkpt>
      <trkpt lat="59.948603" lon="17.8282196">
        <ele>17.4412</ele>
        <time>2013-04-09T16:44:15Z</time>
      </trkpt>
      <trkpt lat="59.9485444" lon="17.8281581">
        <ele>17.4412</ele>
        <time>2013-04-09T16:44:16Z</time>
      </trkpt>
      <trkpt lat="59.9484867" lon="17.8280972">
        <ele>17.4412</ele>
        <time>2013-04-09T16:44:17Z</time>
      </trkpt>
      <trkpt lat="59.9484305" lon="17.8280356">
        <ele>17.4412</ele>
        <time>2013-04-09T16:44:18Z</time>
      </trkpt>
      <trkpt lat="59.9483735" lon="17.8279723">
        <ele>17.4412</ele>
        <time>2013-04-09T16:44:19Z</time>
      </trkpt>
      <trkpt lat="59.9483148" lon="17.8279089">
        <ele>17.4412</ele>
        <time>2013-04-09T16:44:20Z</time>
      </trkpt>
      <trkpt lat="59.9482543" lon="17.8278456">
        <ele>17.4412</ele>
        <time>2013-04-09T16:44:21Z</time>
      </trkpt>
      <trkpt lat="59.9481948" lon="17.8277826">
        <ele>17.4412</ele>
        <time>2013-04-09T16:44:22Z</time>
      </trkpt>
      <trkpt lat="59.9481355" lon="17.8277207">
        <ele>17.4412</ele>
        <time>2013-04-09T16:44:23Z</time>
      </trkpt>
      <trkpt lat="59.9480765" lon="17.8276605">
        <ele>17.4412</ele>
        <time>2013-04-09T16:44:24Z</time>
      </trkpt>
      <trkpt lat="59.9480176" lon="17.8276">
        <ele>17.4412</ele>
        <time>2013-04-09T16:44:25Z</time>
      </trkpt>
      <trkpt lat="59.9479587" lon="17.8275398">
        <ele>17.4412</ele>
        <time>2013-04-09T16:44:26Z</time>
      </trkpt>
      <trkpt lat="59.9478998" lon="17.82748">
        <ele>17.4412</ele>
        <time>2013-04-09T16:44:27Z</time>
      </trkpt>
      <trkpt lat="59.9478415" lon="17.8274196">
        <ele>17.4412</ele>
        <time>2013-04-09T16:44:28Z</time>
      </trkpt>
      <trkpt lat="59.9477841" lon="17.82736">
        <ele>17.4412</ele>
        <time>2013-04-09T16:44:29Z</time>
      </trkpt>
      <trkpt lat="59.9477266" lon="17.8273004">
        <ele>17.4412</ele>
        <time>2013-04-09T16:44:30Z</time>
      </trkpt>
      <trkpt lat="59.9476691" lon="17.8272423">
        <ele>17.4412</ele>
        <time>2013-04-09T16:44:31Z</time>
      </trkpt>
      <trkpt lat="59.9476123" lon="17.827184">
        <ele>17.9218</ele>
        <time>2013-04-09T16:44:32Z</time>
      </trkpt>
      <trkpt lat="59.9475549" lon="17.8271249">
        <ele>17.9218</ele>
        <time>2013-04-09T16:44:33Z</time>
      </trkpt>
      <trkpt lat="59.9474982" lon="17.8270641">
        <ele>17.9218</ele>
        <time>2013-04-09T16:44:34Z</time>
      </trkpt>
      <trkpt lat="59.9474424" lon="17.8270033">
        <ele>17.9218</ele>
        <time>2013-04-09T16:44:35Z</time>
      </trkpt>
      <trkpt lat="59.947386" lon="17.8269454">
        <ele>17.9218</ele>
        <time>2013-04-09T16:44:36Z</time>
      </trkpt>
      <trkpt lat="59.9473301" lon="17.8268869">
        <ele>17.9218</ele>
        <time>2013-04-09T16:44:37Z</time>
      </trkpt>
      <trkpt lat="59.9472749" lon="17.8268284">
        <ele>17.9218</ele>
        <time>2013-04-09T16:44:38Z</time>
      </trkpt>
      <trkpt lat="59.9472205" lon="17.8267724">
        <ele>17.9218</ele>
        <time>2013-04-09T16:44:39Z</time>
      </trkpt>
      <trkpt lat="59.9471668" lon="17.8267163">
        <ele>17.9218</ele>
        <time>2013-04-09T16:44:40Z</time>
      </trkpt>
      <trkpt lat="59.9471132" lon="17.8266597">
        <ele>17.9218</ele>
        <time>2013-04-09T16:44:41Z</time>
      </trkpt>
      <trkpt lat="59.9470599" lon="17.8266038">
        <ele>17.9218</ele>
        <time>2013-04-09T16:44:42Z</time>
      </trkpt>
      <trkpt lat="59.947007" lon="17.8265493">
        <ele>17.9218</ele>
        <time>2013-04-09T16:44:43Z</time>
      </trkpt>
      <trkpt lat="59.9469544" lon="17.8264948">
        <ele>17.9218</ele>
        <time>2013-04-09T16:44:44Z</time>
      </trkpt>
      <trkpt lat="59.9469018" lon="17.8264409">
        <ele>17.9218</ele>
        <time>2013-04-09T16:44:45Z</time>
      </trkpt>
      <trkpt lat="59.9468495" lon="17.8263865">
        <ele>17.9218</ele>
        <time>2013-04-09T16:44:46Z</time>
      </trkpt>
      <trkpt lat="59.9467968" lon="17.8263308">
        <ele>17.9218</ele>
        <time>2013-04-09T16:44:47Z</time>
      </trkpt>
      <trkpt lat="59.9467449" lon="17.8262764">
        <ele>17.9218</ele>
        <time>2013-04-09T16:44:48Z</time>
      </trkpt>
      <trkpt lat="59.9466931" lon="17.8262226">
        <ele>17.9218</ele>
        <time>2013-04-09T16:44:49Z</time>
      </trkpt>
      <trkpt lat="59.9466408" lon="17.8261692">
        <ele>18.4023</ele>
        <time>2013-04-09T16:44:50Z</time>
      </trkpt>
      <trkpt lat="59.9465889" lon="17.8261158">
        <ele>18.4023</ele>
        <time>2013-04-09T16:44:51Z</time>
      </trkpt>
      <trkpt lat="59.9465371" lon="17.8260635">
        <ele>18.4023</ele>
        <time>2013-04-09T16:44:52Z</time>
      </trkpt>
      <trkpt lat="59.9464862" lon="17.8260113">
        <ele>18.4023</ele>
        <time>2013-04-09T16:44:53Z</time>
      </trkpt>
      <trkpt lat="59.9464359" lon="17.8259588">
        <ele>18.4023</ele>
        <time>2013-04-09T16:44:54Z</time>
      </trkpt>
      <trkpt lat="59.9463864" lon="17.825907">
        <ele>18.4023</ele>
        <time>2013-04-09T16:44:55Z</time>
      </trkpt>
      <trkpt lat="59.946338" lon="17.8258559">
        <ele>18.8831</ele>
        <time>2013-04-09T16:44:56Z</time>
      </trkpt>
      <trkpt lat="59.9462899" lon="17.825805">
        <ele>18.8831</ele>
        <time>2013-04-09T16:44:57Z</time>
      </trkpt>
      <trkpt lat="59.9462415" lon="17.8257552">
        <ele>18.8831</ele>
        <time>2013-04-09T16:44:58Z</time>
      </trkpt>
      <trkpt lat="59.9461937" lon="17.8257064">
        <ele>18.8831</ele>
        <time>2013-04-09T16:44:59Z</time>
      </trkpt>
      <trkpt lat="59.946146" lon="17.8256556">
        <ele>19.3638</ele>
        <time>2013-04-09T16:45:00Z</time>
      </trkpt>
      <trkpt lat="59.9460968" lon="17.8256035">
        <ele>19.3638</ele>
        <time>2013-04-09T16:45:01Z</time>
      </trkpt>
      <trkpt lat="59.9460466" lon="17.8255518">
        <ele>19.3638</ele>
        <time>2013-04-09T16:45:02Z</time>
      </trkpt>
      <trkpt lat="59.9459961" lon="17.8255002">
        <ele>19.3638</ele>
        <time>2013-04-09T16:45:03Z</time>
      </trkpt>
      <trkpt lat="59.9459455" lon="17.8254472">
        <ele>19.3638</ele>
        <time>2013-04-09T16:45:04Z</time>
      </trkpt>
      <trkpt lat="59.9458963" lon="17.8253945">
        <ele>19.8444</ele>
        <time>2013-04-09T16:45:05Z</time>
      </trkpt>
      <trkpt lat="59.9458465" lon="17.8253424">
        <ele>19.8444</ele>
        <time>2013-04-09T16:45:06Z</time>
      </trkpt>
      <trkpt lat="59.9457964" lon="17.8252901">
        <ele>20.325</ele>
        <time>2013-04-09T16:45:07Z</time>
      </trkpt>
      <trkpt lat="59.9457472" lon="17.8252383">
        <ele>20.325</ele>
        <time>2013-04-09T16:45:08Z</time>
      </trkpt>
      <trkpt lat="59.9456975" lon="17.8251866">
        <ele>20.325</ele>
        <time>2013-04-09T16:45:09Z</time>
      </trkpt>
      <trkpt lat="59.9456471" lon="17.8251337">
        <ele>20.325</ele>
        <time>2013-04-09T16:45:10Z</time>
      </trkpt>
      <trkpt lat="59.9455993" lon="17.8250812">
        <ele>20.8057</ele>
        <time>2013-04-09T16:45:11Z</time>
      </trkpt>
      <trkpt lat="59.9455493" lon="17.8250294">
        <ele>20.8057</ele>
        <time>2013-04-09T16:45:12Z</time>
      </trkpt>
      <trkpt lat="59.945498" lon="17.8249788">
        <ele>20.8057</ele>
        <time>2013-04-09T16:45:13Z</time>
      </trkpt>
      <trkpt lat="59.9454456" lon="17.8249266">
        <ele>20.8057</ele>
        <time>2013-04-09T16:45:14Z</time>
      </trkpt>
      <trkpt lat="59.945395" lon="17.824872">
        <ele>21.2864</ele>
        <time>2013-04-09T16:45:15Z</time>
      </trkpt>
      <trkpt lat="59.945343" lon="17.8248183">
        <ele>21.2864</ele>
        <time>2013-04-09T16:45:16Z</time>
      </trkpt>
      <trkpt lat="59.9452929" lon="17.8247657">
        <ele>21.2864</ele>
        <time>2013-04-09T16:45:17Z</time>
      </trkpt>
      <trkpt lat="59.945243" lon="17.8247133">
        <ele>21.767</ele>
        <time>2013-04-09T16:45:18Z</time>
      </trkpt>
      <trkpt lat="59.9451927" lon="17.8246619">
        <ele>21.767</ele>
        <time>2013-04-09T16:45:19Z</time>
      </trkpt>
      <trkpt lat="59.9451427" lon="17.8246105">
        <ele>21.767</ele>
        <time>2013-04-09T16:45:20Z</time>
      </trkpt>
      <trkpt lat="59.9450929" lon="17.8245595">
        <ele>21.767</ele>
        <time>2013-04-09T16:45:21Z</time>
      </trkpt>
      <trkpt lat="59.9450427" lon="17.8245088">
        <ele>22.2476</ele>
        <time>2013-04-09T16:45:22Z</time>
      </trkpt>
      <trkpt lat="59.944992" lon="17.824457">
        <ele>22.2476</ele>
        <time>2013-04-09T16:45:23Z</time>
      </trkpt>
      <trkpt lat="59.9449416" lon="17.8244038">
        <ele>22.2476</ele>
        <time>2013-04-09T16:45:24Z</time>
      </trkpt>
      <trkpt lat="59.9448893" lon="17.8243502">
        <ele>22.2476</ele>
        <time>2013-04-09T16:45:25Z</time>
      </trkpt>
      <trkpt lat="59.9448368" lon="17.8242965">
        <ele>22.2476</ele>
        <time>2013-04-09T16:45:26Z</time>
      </trkpt>
      <trkpt lat="59.9447856" lon="17.8242431">
        <ele>22.2476</ele>
        <time>2013-04-09T16:45:27Z</time>
      </trkpt>
      <trkpt lat="59.9447343" lon="17.8241887">
        <ele>22.2476</ele>
        <time>2013-04-09T16:45:28Z</time>
      </trkpt>
      <trkpt lat="59.9446822" lon="17.8241339">
        <ele>22.2476</ele>
        <time>2013-04-09T16:45:29Z</time>
      </trkpt>
      <trkpt lat="59.9446303" lon="17.8240785">
        <ele>22.2476</ele>
        <time>2013-04-09T16:45:30Z</time>
      </trkpt>
      <trkpt lat="59.944579" lon="17.8240214">
        <ele>22.2476</ele>
        <time>2013-04-09T16:45:31Z</time>
      </trkpt>
      <trkpt lat="59.9445277" lon="17.8239638">
        <ele>22.2476</ele>
        <time>2013-04-09T16:45:32Z</time>
      </trkpt>
      <trkpt lat="59.9444761" lon="17.8239068">
        <ele>22.2476</ele>
        <time>2013-04-09T16:45:33Z</time>
      </trkpt>
      <trkpt lat="59.9444251" lon="17.823848">
        <ele>21.767</ele>
        <time>2013-04-09T16:45:34Z</time>
      </trkpt>
      <trkpt lat="59.9443744" lon="17.8237905">
        <ele>21.767</ele>
        <time>2013-04-09T16:45:35Z</time>
      </trkpt>
      <trkpt lat="59.9443253" lon="17.8237319">
        <ele>21.767</ele>
        <time>2013-04-09T16:45:36Z</time>
      </trkpt>
      <trkpt lat="59.944275" lon="17.8236719">
        <ele>21.767</ele>
        <time>2013-04-09T16:45:37Z</time>
      </trkpt>
      <trkpt lat="59.9442223" lon="17.8236115">
        <ele>21.767</ele>
        <time>2013-04-09T16:45:38Z</time>
      </trkpt>
      <trkpt lat="59.9441678" lon="17.8235487">
        <ele>21.2864</ele>
        <time>2013-04-09T16:45:39Z</time>
      </trkpt>
      <trkpt lat="59.9441155" lon="17.8234854">
        <ele>21.2864</ele>
        <time>2013-04-09T16:45:40Z</time>
      </trkpt>
      <trkpt lat="59.9440638" lon="17.8234209">
        <ele>21.2864</ele>
        <time>2013-04-09T16:45:41Z</time>
      </trkpt>
      <trkpt lat="59.9440118" lon="17.8233554">
        <ele>21.2864</ele>
        <time>2013-04-09T16:45:42Z</time>
      </trkpt>
      <trkpt lat="59.9439589" lon="17.823289">
        <ele>21.2864</ele>
        <time>2013-04-09T16:45:43Z</time>
      </trkpt>
      <trkpt lat="59.9439056" lon="17.8232215">
        <ele>21.2864</ele>
        <time>2013-04-09T16:45:44Z</time>
      </trkpt>
      <trkpt lat="59.9438513" lon="17.8231538">
        <ele>21.2864</ele>
        <time>2013-04-09T16:45:45Z</time>
      </trkpt>
      <trkpt lat="59.9437965" lon="17.8230829">
        <ele>21.2864</ele>
        <time>2013-04-09T16:45:46Z</time>
      </trkpt>
      <trkpt lat="59.9437412" lon="17.8230102">
        <ele>21.2864</ele>
        <time>2013-04-09T16:45:47Z</time>
      </trkpt>
      <trkpt lat="59.9436846" lon="17.8229383">
        <ele>21.2864</ele>
        <time>2013-04-09T16:45:48Z</time>
      </trkpt>
      <trkpt lat="59.9436279" lon="17.8228653">
        <ele>21.2864</ele>
        <time>2013-04-09T16:45:49Z</time>
      </trkpt>
      <trkpt lat="59.9435698" lon="17.822792">
        <ele>21.2864</ele>
        <time>2013-04-09T16:45:50Z</time>
      </trkpt>
      <trkpt lat="59.9435104" lon="17.8227182">
        <ele>21.2864</ele>
        <time>2013-04-09T16:45:51Z</time>
      </trkpt>
      <trkpt lat="59.9434496" lon="17.8226431">
        <ele>21.2864</ele>
        <time>2013-04-09T16:45:52Z</time>
      </trkpt>
      <trkpt lat="59.9433876" lon="17.8225668">
        <ele>20.8057</ele>
        <time>2013-04-09T16:45:53Z</time>
      </trkpt>
      <trkpt lat="59.9433243" lon="17.8224913">
        <ele>20.8057</ele>
        <time>2013-04-09T16:45:54Z</time>
      </trkpt>
      <trkpt lat="59.9432597" lon="17.8224171">
        <ele>20.8057</ele>
        <time>2013-04-09T16:45:55Z</time>
      </trkpt>
      <trkpt lat="59.9431954" lon="17.8223412">
        <ele>20.325</ele>
        <time>2013-04-09T16:45:56Z</time>
      </trkpt>
      <trkpt lat="59.9431315" lon="17.8222638">
        <ele>20.325</ele>
        <time>2013-04-09T16:45:57Z</time>
      </trkpt>
      <trkpt lat="59.9430676" lon="17.8221858">
        <ele>20.325</ele>
        <time>2013-04-09T16:45:58Z</time>
      </trkpt>
      <trkpt lat="59.9430044" lon="17.8221074">
        <ele>19.8444</ele>
        <time>2013-04-09T16:45:59Z</time>
      </trkpt>
      <trkpt lat="59.9429411" lon="17.8220283">
        <ele>19.8444</ele>
        <time>2013-04-09T16:46:00Z</time>
      </trkpt>
      <trkpt lat="59.9428775" lon="17.8219488">
        <ele>19.3638</ele>
        <time>2013-04-09T16:46:01Z</time>
      </trkpt>
      <trkpt lat="59.9428136" lon="17.8218686">
        <ele>19.3638</ele>
        <time>2013-04-09T16:46:02Z</time>
      </trkpt>
      <trkpt lat="59.9427493" lon="17.8217873">
        <ele>18.8831</ele>
        <time>2013-04-09T16:46:03Z</time>
      </trkpt>
      <trkpt lat="59.9426837" lon="17.8217063">
        <ele>18.8831</ele>
        <time>2013-04-09T16:46:04Z</time>
      </trkpt>
      <trkpt lat="59.9426177" lon="17.8216248">
        <ele>18.8831</ele>
        <time>2013-04-09T16:46:05Z</time>
      </trkpt>
      <trkpt lat="59.9425511" lon="17.8215432">
        <ele>18.4023</ele>
        <time>2013-04-09T16:46:06Z</time>
      </trkpt>
      <trkpt lat="59.9424842" lon="17.8214624">
        <ele>18.4023</ele>
        <time>2013-04-09T16:46:07Z</time>
      </trkpt>
      <trkpt lat="59.9424184" lon="17.8213807">
        <ele>18.4023</ele>
        <time>2013-04-09T16:46:08Z</time>
      </trkpt>
      <trkpt lat="59.9423527" lon="17.8212993">
        <ele>17.9218</ele>
        <time>2013-04-09T16:46:09Z</time>
      </trkpt>
      <trkpt lat="59.9422864" lon="17.8212183">
        <ele>17.9218</ele>
        <time>2013-04-09T16:46:10Z</time>
      </trkpt>
      <trkpt lat="59.94222" lon="17.8211363">
        <ele>17.4412</ele>
        <time>2013-04-09T16:46:11Z</time>
      </trkpt>
      <trkpt lat="59.9421536" lon="17.8210538">
        <ele>17.4412</ele>
        <time>2013-04-09T16:46:12Z</time>
      </trkpt>
      <trkpt lat="59.942087" lon="17.8209716">
        <ele>17.4412</ele>
        <time>2013-04-09T16:46:13Z</time>
      </trkpt>
      <trkpt lat="59.9420206" lon="17.8208899">
        <ele>16.9604</ele>
        <time>2013-04-09T16:46:14Z</time>
      </trkpt>
      <trkpt lat="59.9419542" lon="17.8208086">
        <ele>16.9604</ele>
        <time>2013-04-09T16:46:15Z</time>
      </trkpt>
      <trkpt lat="59.941888" lon="17.8207276">
        <ele>16.9604</ele>
        <time>2013-04-09T16:46:16Z</time>
      </trkpt>
      <trkpt lat="59.9418223" lon="17.8206468">
        <ele>16.9604</ele>
        <time>2013-04-09T16:46:17Z</time>
      </trkpt>
      <trkpt lat="59.9417574" lon="17.8205658">
        <ele>16.4797</ele>
        <time>2013-04-09T16:46:18Z</time>
      </trkpt>
      <trkpt lat="59.9416927" lon="17.8204846">
        <ele>16.4797</ele>
        <time>2013-04-09T16:46:19Z</time>
      </trkpt>
      <trkpt lat="59.9416285" lon="17.8204036">
        <ele>15.999</ele>
        <time>2013-04-09T16:46:20Z</time>
      </trkpt>
      <trkpt lat="59.9415643" lon="17.8203227">
        <ele>15.999</ele>
        <time>2013-04-09T16:46:21Z</time>
      </trkpt>
      <trkpt lat="59.9415012" lon="17.8202421">
        <ele>15.999</ele>
        <time>2013-04-09T16:46:22Z</time>
      </trkpt>
      <trkpt lat="59.9414397" lon="17.8201649">
        <ele>16.4797</ele>
        <time>2013-04-09T16:46:23Z</time>
      </trkpt>
      <trkpt lat="59.9413788" lon="17.8200914">
        <ele>16.4797</ele>
        <time>2013-04-09T16:46:24Z</time>
      </trkpt>
      <trkpt lat="59.9413192" lon="17.8200199">
        <ele>16.4797</ele>
        <time>2013-04-09T16:46:25Z</time>
      </trkpt>
      <trkpt lat="59.941262" lon="17.8199492">
        <ele>16.9604</ele>
        <time>2013-04-09T16:46:26Z</time>
      </trkpt>
      <trkpt lat="59.9412062" lon="17.8198799">
        <ele>16.9604</ele>
        <time>2013-04-09T16:46:27Z</time>
      </trkpt>
      <trkpt lat="59.9411514" lon="17.8198126">
        <ele>16.9604</ele>
        <time>2013-04-09T16:46:28Z</time>
      </trkpt>
      <trkpt lat="59.9410979" lon="17.8197459">
        <ele>16.9604</ele>
        <time>2013-04-09T16:46:29Z</time>
      </trkpt>
      <trkpt lat="59.9410462" lon="17.8196814">
        <ele>16.9604</ele>
        <time>2013-04-09T16:46:30Z</time>
      </trkpt>
      <trkpt lat="59.940996" lon="17.8196201">
        <ele>16.9604</ele>
        <time>2013-04-09T16:46:31Z</time>
      </trkpt>
      <trkpt lat="59.9409477" lon="17.8195604">
        <ele>17.4412</ele>
        <time>2013-04-09T16:46:32Z</time>
      </trkpt>
      <trkpt lat="59.9409003" lon="17.819502">
        <ele>17.4412</ele>
        <time>2013-04-09T16:46:33Z</time>
      </trkpt>
      <trkpt lat="59.9408539" lon="17.8194467">
        <ele>17.4412</ele>
        <time>2013-04-09T16:46:34Z</time>
      </trkpt>
      <trkpt lat="59.9408091" lon="17.819392">
        <ele>17.4412</ele>
        <time>2013-04-09T16:46:35Z</time>
      </trkpt>
      <trkpt lat="59.940766" lon="17.819337">
        <ele>17.4412</ele>
        <time>2013-04-09T16:46:36Z</time>
      </trkpt>
      <trkpt lat="59.940724" lon="17.8192828">
        <ele>17.4412</ele>
        <time>2013-04-09T16:46:37Z</time>
      </trkpt>
      <trkpt lat="59.9406815" lon="17.8192304">
        <ele>17.9218</ele>
        <time>2013-04-09T16:46:38Z</time>
      </trkpt>
      <trkpt lat="59.9406396" lon="17.8191782">
        <ele>17.9218</ele>
        <time>2013-04-09T16:46:39Z</time>
      </trkpt>
      <trkpt lat="59.9405979" lon="17.8191262">
        <ele>17.9218</ele>
        <time>2013-04-09T16:46:40Z</time>
      </trkpt>
      <trkpt lat="59.9405552" lon="17.8190746">
        <ele>17.9218</ele>
        <time>2013-04-09T16:46:41Z</time>
      </trkpt>
      <trkpt lat="59.9405133" lon="17.8190231">
        <ele>17.9218</ele>
        <time>2013-04-09T16:46:42Z</time>
      </trkpt>
      <trkpt lat="59.9404719" lon="17.8189714">
        <ele>18.4023</ele>
        <time>2013-04-09T16:46:43Z</time>
      </trkpt>
      <trkpt lat="59.9404311" lon="17.818919">
        <ele>18.4023</ele>
        <time>2013-04-09T16:46:44Z</time>
      </trkpt>
      <trkpt lat="59.9403893" lon="17.8188651">
        <ele>18.4023</ele>
        <time>2013-04-09T16:46:45Z</time>
      </trkpt>
      <trkpt lat="59.94035" lon="17.8188132">
        <ele>18.8831</ele>
        <time>2013-04-09T16:46:46Z</time>
      </trkpt>
      <trkpt lat="59.9403091" lon="17.818763">
        <ele>18.8831</ele>
        <time>2013-04-09T16:46:47Z</time>
      </trkpt>
      <trkpt lat="59.9402692" lon="17.8187128">
        <ele>19.3638</ele>
        <time>2013-04-09T16:46:48Z</time>
      </trkpt>
      <trkpt lat="59.9402279" lon="17.8186616">
        <ele>19.3638</ele>
        <time>2013-04-09T16:46:49Z</time>
      </trkpt>
      <trkpt lat="59.9401869" lon="17.8186114">
        <ele>19.3638</ele>
        <time>2013-04-09T16:46:50Z</time>
      </trkpt>
      <trkpt lat="59.9401462" lon="17.8185628">
        <ele>19.3638</ele>
        <time>2013-04-09T16:46:51Z</time>
      </trkpt>
      <trkpt lat="59.9401076" lon="17.8185161">
        <ele>19.3638</ele>
        <time>2013-04-09T16:46:52Z</time>
      </trkpt>
      <trkpt lat="59.9400698" lon="17.8184701">
        <ele>19.3638</ele>
        <time>2013-04-09T16:46:53Z</time>
      </trkpt>
      <trkpt lat="59.9400328" lon="17.8184229">
        <ele>19.3638</ele>
        <time>2013-04-09T16:46:54Z</time>
      </trkpt>
      <trkpt lat="59.9399968" lon="17.8183793">
        <ele>19.3638</ele>
        <time>2013-04-09T16:46:55Z</time>
      </trkpt>
      <trkpt lat="59.9399613" lon="17.8183432">
        <ele>19.8444</ele>
        <time>2013-04-09T16:46:56Z</time>
      </trkpt>
      <trkpt lat="59.9399256" lon="17.8183087">
        <ele>19.8444</ele>
        <time>2013-04-09T16:46:57Z</time>
      </trkpt>
      <trkpt lat="59.9398885" lon="17.8182778">
        <ele>19.8444</ele>
        <time>2013-04-09T16:46:58Z</time>
      </trkpt>
      <trkpt lat="59.9398495" lon="17.818268">
        <ele>20.325</ele>
        <time>2013-04-09T16:46:59Z</time>
      </trkpt>
      <trkpt lat="59.9398109" lon="17.8182902">
        <ele>20.325</ele>
        <time>2013-04-09T16:47:00Z</time>
      </trkpt>
      <trkpt lat="59.9397703" lon="17.8183218">
        <ele>19.8444</ele>
        <time>2013-04-09T16:47:01Z</time>
      </trkpt>
      <trkpt lat="59.9397248" lon="17.818332">
        <ele>19.8444</ele>
        <time>2013-04-09T16:47:02Z</time>
      </trkpt>
      <trkpt lat="59.9396776" lon="17.8183225">
        <ele>19.8444</ele>
        <time>2013-04-09T16:47:03Z</time>
      </trkpt>
      <trkpt lat="59.9396313" lon="17.818313">
        <ele>19.8444</ele>
        <time>2013-04-09T16:47:04Z</time>
      </trkpt>
      <trkpt lat="59.9395833" lon="17.8183125">
        <ele>19.8444</ele>
        <time>2013-04-09T16:47:05Z</time>
      </trkpt>
      <trkpt lat="59.9395331" lon="17.8183198">
        <ele>19.8444</ele>
        <time>2013-04-09T16:47:06Z</time>
      </trkpt>
      <trkpt lat="59.9394824" lon="17.8183385">
        <ele>19.8444</ele>
        <time>2013-04-09T16:47:07Z</time>
      </trkpt>
      <trkpt lat="59.9394316" lon="17.8183668">
        <ele>19.3638</ele>
        <time>2013-04-09T16:47:08Z</time>
      </trkpt>
      <trkpt lat="59.9393803" lon="17.8184006">
        <ele>19.3638</ele>
        <time>2013-04-09T16:47:09Z</time>
      </trkpt>
      <trkpt lat="59.9393293" lon="17.8184384">
        <ele>19.3638</ele>
        <time>2013-04-09T16:47:10Z</time>
      </trkpt>
      <trkpt lat="59.9392779" lon="17.8184827">
        <ele>18.8831</ele>
        <time>2013-04-09T16:47:11Z</time>
      </trkpt>
      <trkpt lat="59.9392275" lon="17.8185332">
        <ele>18.8831</ele>
        <time>2013-04-09T16:47:12Z</time>
      </trkpt>
      <trkpt lat="59.9391765" lon="17.8185872">
        <ele>18.8831</ele>
        <time>2013-04-09T16:47:13Z</time>
      </trkpt>
      <trkpt lat="59.9391252" lon="17.8186523">
        <ele>18.8831</ele>
        <time>2013-04-09T16:47:14Z</time>
      </trkpt>
      <trkpt lat="59.9390757" lon="17.8187308">
        <ele>18.8831</ele>
        <time>2013-04-09T16:47:15Z</time>
      </trkpt>
      <trkpt lat="59.9390285" lon="17.8188191">
        <ele>18.8831</ele>
        <time>2013-04-09T16:47:16Z</time>
      </trkpt>
      <trkpt lat="59.938979" lon="17.8189139">
        <ele>18.8831</ele>
        <time>2013-04-09T16:47:17Z</time>
      </trkpt>
      <trkpt lat="59.9389313" lon="17.8190072">
        <ele>19.3638</ele>
        <time>2013-04-09T16:47:18Z</time>
      </trkpt>
      <trkpt lat="59.9388878" lon="17.819103">
        <ele>19.8444</ele>
        <time>2013-04-09T16:47:19Z</time>
      </trkpt>
      <trkpt lat="59.9388468" lon="17.8191978">
        <ele>19.8444</ele>
        <time>2013-04-09T16:47:20Z</time>
      </trkpt>
      <trkpt lat="59.9388063" lon="17.819289">
        <ele>20.325</ele>
        <time>2013-04-09T16:47:21Z</time>
      </trkpt>
      <trkpt lat="59.9387674" lon="17.8193795">
        <ele>20.325</ele>
        <time>2013-04-09T16:47:22Z</time>
      </trkpt>
      <trkpt lat="59.9387293" lon="17.8194703">
        <ele>20.325</ele>
        <time>2013-04-09T16:47:23Z</time>
      </trkpt>
      <trkpt lat="59.9386914" lon="17.8195614">
        <ele>20.8057</ele>
        <time>2013-04-09T16:47:24Z</time>
      </trkpt>
      <trkpt lat="59.9386528" lon="17.8196522">
        <ele>20.8057</ele>
        <time>2013-04-09T16:47:25Z</time>
      </trkpt>
      <trkpt lat="59.9386134" lon="17.8197432">
        <ele>21.2864</ele>
        <time>2013-04-09T16:47:26Z</time>
      </trkpt>
      <trkpt lat="59.9385736" lon="17.8198366">
        <ele>21.2864</ele>
        <time>2013-04-09T16:47:27Z</time>
      </trkpt>
      <trkpt lat="59.9385329" lon="17.8199332">
        <ele>21.2864</ele>
        <time>2013-04-09T16:47:28Z</time>
      </trkpt>
      <trkpt lat="59.9384899" lon="17.8200311">
        <ele>21.767</ele>
        <time>2013-04-09T16:47:29Z</time>
      </trkpt>
      <trkpt lat="59.9384449" lon="17.8201311">
        <ele>21.767</ele>
        <time>2013-04-09T16:47:30Z</time>
      </trkpt>
      <trkpt lat="59.9384013" lon="17.8202369">
        <ele>22.2476</ele>
        <time>2013-04-09T16:47:31Z</time>
      </trkpt>
      <trkpt lat="59.9383573" lon="17.8203447">
        <ele>22.2476</ele>
        <time>2013-04-09T16:47:32Z</time>
      </trkpt>
      <trkpt lat="59.9383106" lon="17.8204509">
        <ele>22.7283</ele>
        <time>2013-04-09T16:47:33Z</time>
      </trkpt>
      <trkpt lat="59.9382624" lon="17.8205581">
        <ele>22.7283</ele>
        <time>2013-04-09T16:47:34Z</time>
      </trkpt>
      <trkpt lat="59.9382141" lon="17.8206687">
        <ele>22.2476</ele>
        <time>2013-04-09T16:47:35Z</time>
      </trkpt>
      <trkpt lat="59.9381655" lon="17.8207811">
        <ele>22.2476</ele>
        <time>2013-04-09T16:47:36Z</time>
      </trkpt>
      <trkpt lat="59.9381164" lon="17.8208943">
        <ele>22.2476</ele>
        <time>2013-04-09T16:47:37Z</time>
      </trkpt>
      <trkpt lat="59.9380664" lon="17.8210082">
        <ele>22.2476</ele>
        <time>2013-04-09T16:47:38Z</time>
      </trkpt>
      <trkpt lat="59.9380149" lon="17.8211217">
        <ele>21.767</ele>
        <time>2013-04-09T16:47:39Z</time>
      </trkpt>
      <trkpt lat="59.937962" lon="17.8212342">
        <ele>21.2864</ele>
        <time>2013-04-09T16:47:40Z</time>
      </trkpt>
      <trkpt lat="59.937909" lon="17.8213495">
        <ele>20.8057</ele>
        <time>2013-04-09T16:47:41Z</time>
      </trkpt>
      <trkpt lat="59.9378541" lon="17.821465">
        <ele>20.325</ele>
        <time>2013-04-09T16:47:42Z</time>
      </trkpt>
      <trkpt lat="59.9377976" lon="17.8215791">
        <ele>20.325</ele>
        <time>2013-04-09T16:47:43Z</time>
      </trkpt>
      <trkpt lat="59.9377434" lon="17.8216951">
        <ele>19.8444</ele>
        <time>2013-04-09T16:47:44Z</time>
      </trkpt>
      <trkpt lat="59.9376935" lon="17.8218135">
        <ele>19.8444</ele>
        <time>2013-04-09T16:47:45Z</time>
      </trkpt>
      <trkpt lat="59.9376469" lon="17.8219348">
        <ele>19.3638</ele>
        <time>2013-04-09T16:47:46Z</time>
      </trkpt>
      <trkpt lat="59.9376042" lon="17.8220634">
        <ele>18.8831</ele>
        <time>2013-04-09T16:47:47Z</time>
      </trkpt>
      <trkpt lat="59.9375634" lon="17.8221959">
        <ele>18.4023</ele>
        <time>2013-04-09T16:47:48Z</time>
      </trkpt>
      <trkpt lat="59.9375252" lon="17.8223298">
        <ele>17.9218</ele>
        <time>2013-04-09T16:47:49Z</time>
      </trkpt>
      <trkpt lat="59.9374878" lon="17.8224634">
        <ele>17.4412</ele>
        <time>2013-04-09T16:47:50Z</time>
      </trkpt>
      <trkpt lat="59.9374492" lon="17.8225945">
        <ele>16.9604</ele>
        <time>2013-04-09T16:47:51Z</time>
      </trkpt>
      <trkpt lat="59.9374093" lon="17.8227249">
        <ele>16.4797</ele>
        <time>2013-04-09T16:47:52Z</time>
      </trkpt>
      <trkpt lat="59.9373668" lon="17.8228528">
        <ele>16.4797</ele>
        <time>2013-04-09T16:47:53Z</time>
      </trkpt>
      <trkpt lat="59.9373216" lon="17.8229751">
        <ele>15.999</ele>
        <time>2013-04-09T16:47:54Z</time>
      </trkpt>
      <trkpt lat="59.9372755" lon="17.8230957">
        <ele>15.5184</ele>
        <time>2013-04-09T16:47:55Z</time>
      </trkpt>
      <trkpt lat="59.9372298" lon="17.8232187">
        <ele>15.5184</ele>
        <time>2013-04-09T16:47:56Z</time>
      </trkpt>
      <trkpt lat="59.9371834" lon="17.8233411">
        <ele>15.0377</ele>
        <time>2013-04-09T16:47:57Z</time>
      </trkpt>
      <trkpt lat="59.9371364" lon="17.8234614">
        <ele>14.557</ele>
        <time>2013-04-09T16:47:58Z</time>
      </trkpt>
      <trkpt lat="59.9370893" lon="17.8235884">
        <ele>15.0377</ele>
        <time>2013-04-09T16:47:59Z</time>
      </trkpt>
      <trkpt lat="59.9370419" lon="17.8237116">
        <ele>15.5184</ele>
        <time>2013-04-09T16:48:00Z</time>
      </trkpt>
      <trkpt lat="59.9369944" lon="17.8238289">
        <ele>15.5184</ele>
        <time>2013-04-09T16:48:01Z</time>
      </trkpt>
      <trkpt lat="59.9369472" lon="17.8239488">
        <ele>15.5184</ele>
        <time>2013-04-09T16:48:02Z</time>
      </trkpt>
      <trkpt lat="59.9368985" lon="17.8240659">
        <ele>15.5184</ele>
        <time>2013-04-09T16:48:03Z</time>
      </trkpt>
      <trkpt lat="59.9368472" lon="17.8241791">
        <ele>15.5184</ele>
        <time>2013-04-09T16:48:04Z</time>
      </trkpt>
      <trkpt lat="59.9367926" lon="17.8242887">
        <ele>15.5184</ele>
        <time>2013-04-09T16:48:05Z</time>
      </trkpt>
      <trkpt lat="59.9367352" lon="17.8243908">
        <ele>15.0377</ele>
        <time>2013-04-09T16:48:06Z</time>
      </trkpt>
      <trkpt lat="59.9366753" lon="17.8244857">
        <ele>15.5184</ele>
        <time>2013-04-09T16:48:07Z</time>
      </trkpt>
      <trkpt lat="59.9366121" lon="17.8245719">
        <ele>15.5184</ele>
        <time>2013-04-09T16:48:08Z</time>
      </trkpt>
      <trkpt lat="59.9365474" lon="17.8246457">
        <ele>15.0377</ele>
        <time>2013-04-09T16:48:09Z</time>
      </trkpt>
      <trkpt lat="59.9364813" lon="17.824708">
        <ele>15.0377</ele>
        <time>2013-04-09T16:48:10Z</time>
      </trkpt>
      <trkpt lat="59.9364125" lon="17.8247597">
        <ele>15.0377</ele>
        <time>2013-04-09T16:48:11Z</time>
      </trkpt>
      <trkpt lat="59.9363411" lon="17.8247991">
        <ele>15.0377</ele>
        <time>2013-04-09T16:48:12Z</time>
      </trkpt>
      <trkpt lat="59.936269" lon="17.8248312">
        <ele>14.557</ele>
        <time>2013-04-09T16:48:13Z</time>
      </trkpt>
      <trkpt lat="59.9361966" lon="17.8248607">
        <ele>14.557</ele>
        <time>2013-04-09T16:48:14Z</time>
      </trkpt>
      <trkpt lat="59.9361235" lon="17.8248898">
        <ele>14.0764</ele>
        <time>2013-04-09T16:48:15Z</time>
      </trkpt>
      <trkpt lat="59.936049" lon="17.8249208">
        <ele>14.0764</ele>
        <time>2013-04-09T16:48:16Z</time>
      </trkpt>
      <trkpt lat="59.9359742" lon="17.8249539">
        <ele>14.0764</ele>
        <time>2013-04-09T16:48:17Z</time>
      </trkpt>
      <trkpt lat="59.9358988" lon="17.8249886">
        <ele>14.0764</ele>
        <time>2013-04-09T16:48:18Z</time>
      </trkpt>
      <trkpt lat="59.9358226" lon="17.8250191">
        <ele>14.0764</ele>
        <time>2013-04-09T16:48:19Z</time>
      </trkpt>
      <trkpt lat="59.9357458" lon="17.8250482">
        <ele>14.0764</ele>
        <time>2013-04-09T16:48:20Z</time>
      </trkpt>
      <trkpt lat="59.9356683" lon="17.8250767">
        <ele>14.0764</ele>
        <time>2013-04-09T16:48:21Z</time>
      </trkpt>
      <trkpt lat="59.9355909" lon="17.8251067">
        <ele>13.5958</ele>
        <time>2013-04-09T16:48:22Z</time>
      </trkpt>
      <trkpt lat="59.9355134" lon="17.8251399">
        <ele>13.5958</ele>
        <time>2013-04-09T16:48:23Z</time>
      </trkpt>
      <trkpt lat="59.9354357" lon="17.8251735">
        <ele>13.5958</ele>
        <time>2013-04-09T16:48:24Z</time>
      </trkpt>
      <trkpt lat="59.9353584" lon="17.8252056">
        <ele>13.5958</ele>
        <time>2013-04-09T16:48:25Z</time>
      </trkpt>
      <trkpt lat="59.9352813" lon="17.8252363">
        <ele>13.5958</ele>
        <time>2013-04-09T16:48:26Z</time>
      </trkpt>
      <trkpt lat="59.9352049" lon="17.8252671">
        <ele>13.1151</ele>
        <time>2013-04-09T16:48:27Z</time>
      </trkpt>
      <trkpt lat="59.9351295" lon="17.8252974">
        <ele>13.1151</ele>
        <time>2013-04-09T16:48:28Z</time>
      </trkpt>
      <trkpt lat="59.9350547" lon="17.8253304">
        <ele>13.1151</ele>
        <time>2013-04-09T16:48:29Z</time>
      </trkpt>
      <trkpt lat="59.9349819" lon="17.8253668">
        <ele>14.0764</ele>
        <time>2013-04-09T16:48:30Z</time>
      </trkpt>
      <trkpt lat="59.9349099" lon="17.8254015">
        <ele>14.557</ele>
        <time>2013-04-09T16:48:31Z</time>
      </trkpt>
      <trkpt lat="59.934838" lon="17.8254357">
        <ele>15.0377</ele>
        <time>2013-04-09T16:48:32Z</time>
      </trkpt>
      <trkpt lat="59.9347669" lon="17.8254694">
        <ele>15.0377</ele>
        <time>2013-04-09T16:48:33Z</time>
      </trkpt>
      <trkpt lat="59.9346971" lon="17.8255035">
        <ele>15.5184</ele>
        <time>2013-04-09T16:48:34Z</time>
      </trkpt>
      <trkpt lat="59.9346281" lon="17.8255366">
        <ele>15.999</ele>
        <time>2013-04-09T16:48:35Z</time>
      </trkpt>
      <trkpt lat="59.9345585" lon="17.8255691">
        <ele>15.999</ele>
        <time>2013-04-09T16:48:36Z</time>
      </trkpt>
      <trkpt lat="59.9344889" lon="17.8256007">
        <ele>15.999</ele>
        <time>2013-04-09T16:48:37Z</time>
      </trkpt>
      <trkpt lat="59.9344197" lon="17.8256298">
        <ele>15.999</ele>
        <time>2013-04-09T16:48:38Z</time>
      </trkpt>
      <trkpt lat="59.9343503" lon="17.8256587">
        <ele>15.999</ele>
        <time>2013-04-09T16:48:39Z</time>
      </trkpt>
      <trkpt lat="59.9342808" lon="17.8256885">
        <ele>15.999</ele>
        <time>2013-04-09T16:48:40Z</time>
      </trkpt>
      <trkpt lat="59.9342119" lon="17.8257193">
        <ele>15.999</ele>
        <time>2013-04-09T16:48:41Z</time>
      </trkpt>
      <trkpt lat="59.9341443" lon="17.8257502">
        <ele>16.4797</ele>
        <time>2013-04-09T16:48:42Z</time>
      </trkpt>
      <trkpt lat="59.9340784" lon="17.8257791">
        <ele>16.4797</ele>
        <time>2013-04-09T16:48:43Z</time>
      </trkpt>
      <trkpt lat="59.9340142" lon="17.8258053">
        <ele>16.4797</ele>
        <time>2013-04-09T16:48:44Z</time>
      </trkpt>
      <trkpt lat="59.933952" lon="17.8258318">
        <ele>16.4797</ele>
        <time>2013-04-09T16:48:45Z</time>
      </trkpt>
      <trkpt lat="59.933891" lon="17.8258597">
        <ele>16.9604</ele>
        <time>2013-04-09T16:48:46Z</time>
      </trkpt>
      <trkpt lat="59.9338308" lon="17.8258894">
        <ele>16.9604</ele>
        <time>2013-04-09T16:48:47Z</time>
      </trkpt>
      <trkpt lat="59.9337711" lon="17.8259217">
        <ele>16.9604</ele>
        <time>2013-04-09T16:48:48Z</time>
      </trkpt>
      <trkpt lat="59.9337115" lon="17.825955">
        <ele>16.4797</ele>
        <time>2013-04-09T16:48:49Z</time>
      </trkpt>
      <trkpt lat="59.9336501" lon="17.8259854">
        <ele>16.4797</ele>
        <time>2013-04-09T16:48:50Z</time>
      </trkpt>
      <trkpt lat="59.9335898" lon="17.8260203">
        <ele>16.4797</ele>
        <time>2013-04-09T16:48:51Z</time>
      </trkpt>
      <trkpt lat="59.9335299" lon="17.8260597">
        <ele>16.4797</ele>
        <time>2013-04-09T16:48:52Z</time>
      </trkpt>
      <trkpt lat="59.9334702" lon="17.8261032">
        <ele>16.4797</ele>
        <time>2013-04-09T16:48:53Z</time>
      </trkpt>
      <trkpt lat="59.9334098" lon="17.8261498">
        <ele>15.999</ele>
        <time>2013-04-09T16:48:54Z</time>
      </trkpt>
      <trkpt lat="59.9333495" lon="17.8262012">
        <ele>15.999</ele>
        <time>2013-04-09T16:48:55Z</time>
      </trkpt>
      <trkpt lat="59.9332895" lon="17.8262583">
        <ele>15.999</ele>
        <time>2013-04-09T16:48:56Z</time>
      </trkpt>
      <trkpt lat="59.933231" lon="17.8263213">
        <ele>15.999</ele>
        <time>2013-04-09T16:48:57Z</time>
      </trkpt>
      <trkpt lat="59.9331733" lon="17.8263903">
        <ele>15.5184</ele>
        <time>2013-04-09T16:48:58Z</time>
      </trkpt>
      <trkpt lat="59.933116" lon="17.8264653">
        <ele>15.5184</ele>
        <time>2013-04-09T16:48:59Z</time>
      </trkpt>
      <trkpt lat="59.9330595" lon="17.8265443">
        <ele>15.5184</ele>
        <time>2013-04-09T16:49:00Z</time>
      </trkpt>
      <trkpt lat="59.9330041" lon="17.8266275">
        <ele>15.0377</ele>
        <time>2013-04-09T16:49:01Z</time>
      </trkpt>
      <trkpt lat="59.9329497" lon="17.826713">
        <ele>15.0377</ele>
        <time>2013-04-09T16:49:02Z</time>
      </trkpt>
      <trkpt lat="59.9328964" lon="17.826801">
        <ele>15.0377</ele>
        <time>2013-04-09T16:49:03Z</time>
      </trkpt>
      <trkpt lat="59.9328435" lon="17.8268919">
        <ele>15.0377</ele>
        <time>2013-04-09T16:49:04Z</time>
      </trkpt>
      <trkpt lat="59.9327903" lon="17.826984">
        <ele>15.0377</ele>
        <time>2013-04-09T16:49:05Z</time>
      </trkpt>
      <trkpt lat="59.9327371" lon="17.8270755">
        <ele>15.5184</ele>
        <time>2013-04-09T16:49:06Z</time>
      </trkpt>
      <trkpt lat="59.9326848" lon="17.8271669">
        <ele>15.5184</ele>
        <time>2013-04-09T16:49:07Z</time>
      </trkpt>
      <trkpt lat="59.9326328" lon="17.8272591">
        <ele>15.5184</ele>
        <time>2013-04-09T16:49:08Z</time>
      </trkpt>
      <trkpt lat="59.9325809" lon="17.8273507">
        <ele>15.5184</ele>
        <time>2013-04-09T16:49:09Z</time>
      </trkpt>
      <trkpt lat="59.9325277" lon="17.8274386">
        <ele>15.5184</ele>
        <time>2013-04-09T16:49:10Z</time>
      </trkpt>
      <trkpt lat="59.9324748" lon="17.8275248">
        <ele>15.999</ele>
        <time>2013-04-09T16:49:11Z</time>
      </trkpt>
      <trkpt lat="59.9324234" lon="17.8276128">
        <ele>15.999</ele>
        <time>2013-04-09T16:49:12Z</time>
      </trkpt>
      <trkpt lat="59.9323737" lon="17.8277038">
        <ele>16.4797</ele>
        <time>2013-04-09T16:49:13Z</time>
      </trkpt>
      <trkpt lat="59.932325" lon="17.8277973">
        <ele>16.4797</ele>
        <time>2013-04-09T16:49:14Z</time>
      </trkpt>
      <trkpt lat="59.9322761" lon="17.8278934">
        <ele>16.4797</ele>
        <time>2013-04-09T16:49:15Z</time>
      </trkpt>
      <trkpt lat="59.9322272" lon="17.8279915">
        <ele>16.4797</ele>
        <time>2013-04-09T16:49:16Z</time>
      </trkpt>
      <trkpt lat="59.9321793" lon="17.8280934">
        <ele>16.4797</ele>
        <time>2013-04-09T16:49:17Z</time>
      </trkpt>
      <trkpt lat="59.9321313" lon="17.8282013">
        <ele>16.9604</ele>
        <time>2013-04-09T16:49:18Z</time>
      </trkpt>
      <trkpt lat="59.9320845" lon="17.8283122">
        <ele>16.9604</ele>
        <time>2013-04-09T16:49:19Z</time>
      </trkpt>
      <trkpt lat="59.9320397" lon="17.8284241">
        <ele>16.9604</ele>
        <time>2013-04-09T16:49:20Z</time>
      </trkpt>
      <trkpt lat="59.9319981" lon="17.8285368">
        <ele>16.9604</ele>
        <time>2013-04-09T16:49:21Z</time>
      </trkpt>
      <trkpt lat="59.9319599" lon="17.8286534">
        <ele>17.4412</ele>
        <time>2013-04-09T16:49:22Z</time>
      </trkpt>
      <trkpt lat="59.931926" lon="17.8287738">
        <ele>17.9218</ele>
        <time>2013-04-09T16:49:23Z</time>
      </trkpt>
      <trkpt lat="59.9318977" lon="17.8289004">
        <ele>18.4023</ele>
        <time>2013-04-09T16:49:24Z</time>
      </trkpt>
      <trkpt lat="59.9318696" lon="17.829025">
        <ele>19.3638</ele>
        <time>2013-04-09T16:49:25Z</time>
      </trkpt>
      <trkpt lat="59.9318411" lon="17.8291473">
        <ele>19.8444</ele>
        <time>2013-04-09T16:49:26Z</time>
      </trkpt>
      <trkpt lat="59.9318127" lon="17.8292675">
        <ele>20.325</ele>
        <time>2013-04-09T16:49:27Z</time>
      </trkpt>
      <trkpt lat="59.9317832" lon="17.829384">
        <ele>20.8057</ele>
        <time>2013-04-09T16:49:28Z</time>
      </trkpt>
      <trkpt lat="59.9317524" lon="17.8294968">
        <ele>21.2864</ele>
        <time>2013-04-09T16:49:29Z</time>
      </trkpt>
      <trkpt lat="59.9317224" lon="17.8296062">
        <ele>21.2864</ele>
        <time>2013-04-09T16:49:30Z</time>
      </trkpt>
      <trkpt lat="59.9316925" lon="17.8297137">
        <ele>21.767</ele>
        <time>2013-04-09T16:49:31Z</time>
      </trkpt>
      <trkpt lat="59.9316625" lon="17.8298196">
        <ele>22.2476</ele>
        <time>2013-04-09T16:49:32Z</time>
      </trkpt>
      <trkpt lat="59.9316325" lon="17.8299237">
        <ele>22.7283</ele>
        <time>2013-04-09T16:49:33Z</time>
      </trkpt>
      <trkpt lat="59.931604" lon="17.8300273">
        <ele>23.209</ele>
        <time>2013-04-09T16:49:34Z</time>
      </trkpt>
      <trkpt lat="59.9315785" lon="17.8301294">
        <ele>23.209</ele>
        <time>2013-04-09T16:49:35Z</time>
      </trkpt>
      <trkpt lat="59.9315521" lon="17.8302299">
        <ele>23.6896</ele>
        <time>2013-04-09T16:49:36Z</time>
      </trkpt>
      <trkpt lat="59.9315229" lon="17.8303265">
        <ele>23.6896</ele>
        <time>2013-04-09T16:49:37Z</time>
      </trkpt>
      <trkpt lat="59.9314909" lon="17.8304214">
        <ele>23.6896</ele>
        <time>2013-04-09T16:49:38Z</time>
      </trkpt>
      <trkpt lat="59.9314568" lon="17.8305163">
        <ele>23.6896</ele>
        <time>2013-04-09T16:49:39Z</time>
      </trkpt>
      <trkpt lat="59.9314219" lon="17.8306106">
        <ele>23.209</ele>
        <time>2013-04-09T16:49:40Z</time>
      </trkpt>
      <trkpt lat="59.9313843" lon="17.8307096">
        <ele>22.7283</ele>
        <time>2013-04-09T16:49:41Z</time>
      </trkpt>
      <trkpt lat="59.9313444" lon="17.830812">
        <ele>22.7283</ele>
        <time>2013-04-09T16:49:42Z</time>
      </trkpt>
      <trkpt lat="59.9313023" lon="17.8309134">
        <ele>22.2476</ele>
        <time>2013-04-09T16:49:43Z</time>
      </trkpt>
      <trkpt lat="59.931258" lon="17.8310127">
        <ele>22.2476</ele>
        <time>2013-04-09T16:49:44Z</time>
      </trkpt>
      <trkpt lat="59.9312118" lon="17.8311097">
        <ele>22.2476</ele>
        <time>2013-04-09T16:49:45Z</time>
      </trkpt>
      <trkpt lat="59.9311645" lon="17.8312033">
        <ele>21.767</ele>
        <time>2013-04-09T16:49:46Z</time>
      </trkpt>
      <trkpt lat="59.9311168" lon="17.8312953">
        <ele>21.767</ele>
        <time>2013-04-09T16:49:47Z</time>
      </trkpt>
      <trkpt lat="59.9310682" lon="17.8313855">
        <ele>21.767</ele>
        <time>2013-04-09T16:49:48Z</time>
      </trkpt>
      <trkpt lat="59.9310187" lon="17.8314731">
        <ele>21.767</ele>
        <time>2013-04-09T16:49:49Z</time>
      </trkpt>
      <trkpt lat="59.9309683" lon="17.8315576">
        <ele>21.767</ele>
        <time>2013-04-09T16:49:50Z</time>
      </trkpt>
      <trkpt lat="59.9309175" lon="17.8316384">
        <ele>21.767</ele>
        <time>2013-04-09T16:49:51Z</time>
      </trkpt>
      <trkpt lat="59.9308671" lon="17.8317192">
        <ele>21.767</ele>
        <time>2013-04-09T16:49:52Z</time>
      </trkpt>
      <trkpt lat="59.9308172" lon="17.8317998">
        <ele>21.767</ele>
        <time>2013-04-09T16:49:53Z</time>
      </trkpt>
      <trkpt lat="59.9307679" lon="17.8318776">
        <ele>21.767</ele>
        <time>2013-04-09T16:49:54Z</time>
      </trkpt>
      <trkpt lat="59.9307175" lon="17.8319507">
        <ele>21.767</ele>
        <time>2013-04-09T16:49:55Z</time>
      </trkpt>
      <trkpt lat="59.930667" lon="17.8320236">
        <ele>21.767</ele>
        <time>2013-04-09T16:49:56Z</time>
      </trkpt>
      <trkpt lat="59.9306166" lon="17.8320961">
        <ele>21.2864</ele>
        <time>2013-04-09T16:49:57Z</time>
      </trkpt>
      <trkpt lat="59.930568" lon="17.8321676">
        <ele>21.2864</ele>
        <time>2013-04-09T16:49:58Z</time>
      </trkpt>
      <trkpt lat="59.9305198" lon="17.832236">
        <ele>20.8057</ele>
        <time>2013-04-09T16:49:59Z</time>
      </trkpt>
      <trkpt lat="59.9304705" lon="17.8323035">
        <ele>20.8057</ele>
        <time>2013-04-09T16:50:00Z</time>
      </trkpt>
      <trkpt lat="59.9304212" lon="17.8323754">
        <ele>20.8057</ele>
        <time>2013-04-09T16:50:01Z</time>
      </trkpt>
      <trkpt lat="59.9303721" lon="17.8324483">
        <ele>20.8057</ele>
        <time>2013-04-09T16:50:02Z</time>
      </trkpt>
      <trkpt lat="59.9303214" lon="17.8325175">
        <ele>20.325</ele>
        <time>2013-04-09T16:50:03Z</time>
      </trkpt>
      <trkpt lat="59.9302714" lon="17.832594">
        <ele>20.325</ele>
        <time>2013-04-09T16:50:04Z</time>
      </trkpt>
      <trkpt lat="59.9302209" lon="17.8326728">
        <ele>20.325</ele>
        <time>2013-04-09T16:50:05Z</time>
      </trkpt>
      <trkpt lat="59.9301696" lon="17.8327541">
        <ele>20.325</ele>
        <time>2013-04-09T16:50:06Z</time>
      </trkpt>
      <trkpt lat="59.9301178" lon="17.8328368">
        <ele>20.325</ele>
        <time>2013-04-09T16:50:07Z</time>
      </trkpt>
      <trkpt lat="59.9300656" lon="17.8329202">
        <ele>20.325</ele>
        <time>2013-04-09T16:50:08Z</time>
      </trkpt>
      <trkpt lat="59.9300132" lon="17.8330041">
        <ele>20.325</ele>
        <time>2013-04-09T16:50:09Z</time>
      </trkpt>
      <trkpt lat="59.9299617" lon="17.8330893">
        <ele>20.325</ele>
        <time>2013-04-09T16:50:10Z</time>
      </trkpt>
      <trkpt lat="59.9299111" lon="17.8331761">
        <ele>20.8057</ele>
        <time>2013-04-09T16:50:11Z</time>
      </trkpt>
      <trkpt lat="59.9298603" lon="17.8332618">
        <ele>20.8057</ele>
        <time>2013-04-09T16:50:12Z</time>
      </trkpt>
      <trkpt lat="59.9298089" lon="17.8333456">
        <ele>20.8057</ele>
        <time>2013-04-09T16:50:13Z</time>
      </trkpt>
      <trkpt lat="59.9297573" lon="17.833428">
        <ele>21.2864</ele>
        <time>2013-04-09T16:50:14Z</time>
      </trkpt>
      <trkpt lat="59.9297066" lon="17.83351">
        <ele>21.2864</ele>
        <time>2013-04-09T16:50:15Z</time>
      </trkpt>
      <trkpt lat="59.9296568" lon="17.8335913">
        <ele>21.2864</ele>
        <time>2013-04-09T16:50:16Z</time>
      </trkpt>
      <trkpt lat="59.9296061" lon="17.8336673">
        <ele>21.2864</ele>
        <time>2013-04-09T16:50:17Z</time>
      </trkpt>
      <trkpt lat="59.9295566" lon="17.8337444">
        <ele>21.2864</ele>
        <time>2013-04-09T16:50:18Z</time>
      </trkpt>
      <trkpt lat="59.9295075" lon="17.8338202">
        <ele>21.2864</ele>
        <time>2013-04-09T16:50:19Z</time>
      </trkpt>
      <trkpt lat="59.9294595" lon="17.8338963">
        <ele>21.2864</ele>
        <time>2013-04-09T16:50:20Z</time>
      </trkpt>
      <trkpt lat="59.9294118" lon="17.833972">
        <ele>21.767</ele>
        <time>2013-04-09T16:50:21Z</time>
      </trkpt>
      <trkpt lat="59.9293626" lon="17.8340474">
        <ele>21.767</ele>
        <time>2013-04-09T16:50:22Z</time>
      </trkpt>
      <trkpt lat="59.9293112" lon="17.8341228">
        <ele>21.767</ele>
        <time>2013-04-09T16:50:23Z</time>
      </trkpt>
      <trkpt lat="59.9292589" lon="17.8341999">
        <ele>21.767</ele>
        <time>2013-04-09T16:50:24Z</time>
      </trkpt>
      <trkpt lat="59.9292054" lon="17.8342772">
        <ele>21.767</ele>
        <time>2013-04-09T16:50:25Z</time>
      </trkpt>
      <trkpt lat="59.9291501" lon="17.8343536">
        <ele>21.2864</ele>
        <time>2013-04-09T16:50:26Z</time>
      </trkpt>
      <trkpt lat="59.9290932" lon="17.8344268">
        <ele>21.2864</ele>
        <time>2013-04-09T16:50:27Z</time>
      </trkpt>
      <trkpt lat="59.9290352" lon="17.8344984">
        <ele>21.2864</ele>
        <time>2013-04-09T16:50:28Z</time>
      </trkpt>
      <trkpt lat="59.9289774" lon="17.8345696">
        <ele>21.2864</ele>
        <time>2013-04-09T16:50:29Z</time>
      </trkpt>
      <trkpt lat="59.9289199" lon="17.8346384">
        <ele>21.2864</ele>
        <time>2013-04-09T16:50:30Z</time>
      </trkpt>
      <trkpt lat="59.9288625" lon="17.8347056">
        <ele>21.2864</ele>
        <time>2013-04-09T16:50:31Z</time>
      </trkpt>
      <trkpt lat="59.9288058" lon="17.8347762">
        <ele>21.2864</ele>
        <time>2013-04-09T16:50:32Z</time>
      </trkpt>
      <trkpt lat="59.9287503" lon="17.8348508">
        <ele>21.2864</ele>
        <time>2013-04-09T16:50:33Z</time>
      </trkpt>
      <trkpt lat="59.9286954" lon="17.8349267">
        <ele>21.2864</ele>
        <time>2013-04-09T16:50:34Z</time>
      </trkpt>
      <trkpt lat="59.9286413" lon="17.8350052">
        <ele>21.2864</ele>
        <time>2013-04-09T16:50:35Z</time>
      </trkpt>
      <trkpt lat="59.9285874" lon="17.835085">
        <ele>21.2864</ele>
        <time>2013-04-09T16:50:36Z</time>
      </trkpt>
      <trkpt lat="59.9285333" lon="17.8351668">
        <ele>21.2864</ele>
        <time>2013-04-09T16:50:37Z</time>
      </trkpt>
      <trkpt lat="59.9284791" lon="17.8352504">
        <ele>21.2864</ele>
        <time>2013-04-09T16:50:38Z</time>
      </trkpt>
      <trkpt lat="59.9284243" lon="17.8353349">
        <ele>21.2864</ele>
        <time>2013-04-09T16:50:39Z</time>
      </trkpt>
      <trkpt lat="59.9283685" lon="17.8354185">
        <ele>21.2864</ele>
        <time>2013-04-09T16:50:40Z</time>
      </trkpt>
      <trkpt lat="59.9283129" lon="17.8355015">
        <ele>21.2864</ele>
        <time>2013-04-09T16:50:41Z</time>
      </trkpt>
      <trkpt lat="59.9282575" lon="17.8355833">
        <ele>21.2864</ele>
        <time>2013-04-09T16:50:42Z</time>
      </trkpt>
      <trkpt lat="59.9282021" lon="17.8356638">
        <ele>21.2864</ele>
        <time>2013-04-09T16:50:43Z</time>
      </trkpt>
      <trkpt lat="59.9281468" lon="17.8357446">
        <ele>21.2864</ele>
        <time>2013-04-09T16:50:44Z</time>
      </trkpt>
      <trkpt lat="59.9280903" lon="17.8358228">
        <ele>21.2864</ele>
        <time>2013-04-09T16:50:45Z</time>
      </trkpt>
      <trkpt lat="59.9280343" lon="17.8359036">
        <ele>21.2864</ele>
        <time>2013-04-09T16:50:46Z</time>
      </trkpt>
      <trkpt lat="59.9279788" lon="17.8359873">
        <ele>21.2864</ele>
        <time>2013-04-09T16:50:47Z</time>
      </trkpt>
      <trkpt lat="59.9279235" lon="17.8360725">
        <ele>21.2864</ele>
        <time>2013-04-09T16:50:48Z</time>
      </trkpt>
      <trkpt lat="59.9278689" lon="17.8361581">
        <ele>21.2864</ele>
        <time>2013-04-09T16:50:49Z</time>
      </trkpt>
      <trkpt lat="59.9278157" lon="17.8362472">
        <ele>21.2864</ele>
        <time>2013-04-09T16:50:50Z</time>
      </trkpt>
      <trkpt lat="59.9277624" lon="17.836338">
        <ele>21.2864</ele>
        <time>2013-04-09T16:50:51Z</time>
      </trkpt>
      <trkpt lat="59.9277124" lon="17.836432">
        <ele>20.8057</ele>
        <time>2013-04-09T16:50:52Z</time>
      </trkpt>
      <trkpt lat="59.927662" lon="17.8365217">
        <ele>20.8057</ele>
        <time>2013-04-09T16:50:53Z</time>
      </trkpt>
      <trkpt lat="59.9276101" lon="17.8366076">
        <ele>20.8057</ele>
        <time>2013-04-09T16:50:54Z</time>
      </trkpt>
      <trkpt lat="59.9275552" lon="17.8366899">
        <ele>20.8057</ele>
        <time>2013-04-09T16:50:55Z</time>
      </trkpt>
      <trkpt lat="59.9274973" lon="17.8367691">
        <ele>21.2864</ele>
        <time>2013-04-09T16:50:56Z</time>
      </trkpt>
      <trkpt lat="59.9274386" lon="17.8368473">
        <ele>21.2864</ele>
        <time>2013-04-09T16:50:57Z</time>
      </trkpt>
      <trkpt lat="59.9273795" lon="17.8369247">
        <ele>21.2864</ele>
        <time>2013-04-09T16:50:58Z</time>
      </trkpt>
      <trkpt lat="59.9273182" lon="17.8370002">
        <ele>21.767</ele>
        <time>2013-04-09T16:50:59Z</time>
      </trkpt>
      <trkpt lat="59.9272579" lon="17.8370793">
        <ele>21.767</ele>
        <time>2013-04-09T16:51:00Z</time>
      </trkpt>
      <trkpt lat="59.9271979" lon="17.8371603">
        <ele>21.767</ele>
        <time>2013-04-09T16:51:01Z</time>
      </trkpt>
      <trkpt lat="59.9271367" lon="17.8372421">
        <ele>21.767</ele>
        <time>2013-04-09T16:51:02Z</time>
      </trkpt>
      <trkpt lat="59.9270765" lon="17.8373264">
        <ele>21.767</ele>
        <time>2013-04-09T16:51:03Z</time>
      </trkpt>
      <trkpt lat="59.9270165" lon="17.8374104">
        <ele>21.767</ele>
        <time>2013-04-09T16:51:04Z</time>
      </trkpt>
      <trkpt lat="59.9269552" lon="17.8374917">
        <ele>21.767</ele>
        <time>2013-04-09T16:51:05Z</time>
      </trkpt>
      <trkpt lat="59.9268992" lon="17.83756">
        <ele>21.767</ele>
        <time>2013-04-09T16:51:06Z</time>
      </trkpt>
      <trkpt lat="59.9268327" lon="17.837628">
        <ele>21.2864</ele>
        <time>2013-04-09T16:51:07Z</time>
      </trkpt>
      <trkpt lat="59.9267652" lon="17.8376819">
        <ele>21.2864</ele>
        <time>2013-04-09T16:51:08Z</time>
      </trkpt>
      <trkpt lat="59.9266988" lon="17.8377382">
        <ele>20.8057</ele>
        <time>2013-04-09T16:51:09Z</time>
      </trkpt>
      <trkpt lat="59.9266265" lon="17.8377907">
        <ele>20.8057</ele>
        <time>2013-04-09T16:51:10Z</time>
      </trkpt>
      <trkpt lat="59.9265472" lon="17.8378539">
        <ele>19.8444</ele>
        <time>2013-04-09T16:51:11Z</time>
      </trkpt>
      <trkpt lat="59.9264716" lon="17.8379433">
        <ele>19.3638</ele>
        <time>2013-04-09T16:51:12Z</time>
      </trkpt>
      <trkpt lat="59.9264036" lon="17.83806">
        <ele>18.8831</ele>
        <time>2013-04-09T16:51:13Z</time>
      </trkpt>
      <trkpt lat="59.9263416" lon="17.8381891">
        <ele>18.4023</ele>
        <time>2013-04-09T16:51:14Z</time>
      </trkpt>
      <trkpt lat="59.9262802" lon="17.8383196">
        <ele>17.4412</ele>
        <time>2013-04-09T16:51:15Z</time>
      </trkpt>
      <trkpt lat="59.9262175" lon="17.8384513">
        <ele>16.9604</ele>
        <time>2013-04-09T16:51:16Z</time>
      </trkpt>
      <trkpt lat="59.9261618" lon="17.8385899">
        <ele>16.9604</ele>
        <time>2013-04-09T16:51:17Z</time>
      </trkpt>
      <trkpt lat="59.9260996" lon="17.8387256">
        <ele>16.4797</ele>
        <time>2013-04-09T16:51:18Z</time>
      </trkpt>
      <trkpt lat="59.9260373" lon="17.8388583">
        <ele>16.4797</ele>
        <time>2013-04-09T16:51:19Z</time>
      </trkpt>
      <trkpt lat="59.9259753" lon="17.8389866">
        <ele>15.999</ele>
        <time>2013-04-09T16:51:20Z</time>
      </trkpt>
      <trkpt lat="59.9259152" lon="17.8391147">
        <ele>16.4797</ele>
        <time>2013-04-09T16:51:21Z</time>
      </trkpt>
      <trkpt lat="59.9258486" lon="17.8392252">
        <ele>16.4797</ele>
        <time>2013-04-09T16:51:22Z</time>
      </trkpt>
      <trkpt lat="59.9257747" lon="17.8393124">
        <ele>16.4797</ele>
        <time>2013-04-09T16:51:23Z</time>
      </trkpt>
      <trkpt lat="59.9256951" lon="17.8393675">
        <ele>16.4797</ele>
        <time>2013-04-09T16:51:24Z</time>
      </trkpt>
      <trkpt lat="59.9256158" lon="17.8393827">
        <ele>16.4797</ele>
        <time>2013-04-09T16:51:25Z</time>
      </trkpt>
      <trkpt lat="59.9255379" lon="17.8393784">
        <ele>15.999</ele>
        <time>2013-04-09T16:51:26Z</time>
      </trkpt>
      <trkpt lat="59.9254623" lon="17.8393661">
        <ele>15.999</ele>
        <time>2013-04-09T16:51:27Z</time>
      </trkpt>
      <trkpt lat="59.9253893" lon="17.8393552">
        <ele>15.999</ele>
        <time>2013-04-09T16:51:28Z</time>
      </trkpt>
      <trkpt lat="59.925319" lon="17.8393474">
        <ele>15.999</ele>
        <time>2013-04-09T16:51:29Z</time>
      </trkpt>
      <trkpt lat="59.9252512" lon="17.8393435">
        <ele>15.999</ele>
        <time>2013-04-09T16:51:30Z</time>
      </trkpt>
      <trkpt lat="59.9251861" lon="17.8393421">
        <ele>15.999</ele>
        <time>2013-04-09T16:51:31Z</time>
      </trkpt>
      <trkpt lat="59.925122" lon="17.8393438">
        <ele>15.999</ele>
        <time>2013-04-09T16:51:32Z</time>
      </trkpt>
      <trkpt lat="59.9250574" lon="17.8393469">
        <ele>15.999</ele>
        <time>2013-04-09T16:51:33Z</time>
      </trkpt>
      <trkpt lat="59.9249929" lon="17.8393499">
        <ele>15.999</ele>
        <time>2013-04-09T16:51:34Z</time>
      </trkpt>
      <trkpt lat="59.9249281" lon="17.8393547">
        <ele>15.999</ele>
        <time>2013-04-09T16:51:35Z</time>
      </trkpt>
      <trkpt lat="59.9248626" lon="17.8393608">
        <ele>16.4797</ele>
        <time>2013-04-09T16:51:36Z</time>
      </trkpt>
      <trkpt lat="59.9247959" lon="17.8393675">
        <ele>16.4797</ele>
        <time>2013-04-09T16:51:37Z</time>
      </trkpt>
      <trkpt lat="59.924729" lon="17.8393751">
        <ele>16.4797</ele>
        <time>2013-04-09T16:51:38Z</time>
      </trkpt>
      <trkpt lat="59.9246617" lon="17.8393834">
        <ele>16.4797</ele>
        <time>2013-04-09T16:51:39Z</time>
      </trkpt>
      <trkpt lat="59.9245947" lon="17.8393913">
        <ele>16.4797</ele>
        <time>2013-04-09T16:51:40Z</time>
      </trkpt>
      <trkpt lat="59.924528" lon="17.8394018">
        <ele>16.4797</ele>
        <time>2013-04-09T16:51:41Z</time>
      </trkpt>
      <trkpt lat="59.9244616" lon="17.8394162">
        <ele>15.999</ele>
        <time>2013-04-09T16:51:42Z</time>
      </trkpt>
      <trkpt lat="59.9243948" lon="17.8394323">
        <ele>15.999</ele>
        <time>2013-04-09T16:51:43Z</time>
      </trkpt>
      <trkpt lat="59.924328" lon="17.8394513">
        <ele>16.4797</ele>
        <time>2013-04-09T16:51:44Z</time>
      </trkpt>
      <trkpt lat="59.9242613" lon="17.8394722">
        <ele>16.4797</ele>
        <time>2013-04-09T16:51:45Z</time>
      </trkpt>
      <trkpt lat="59.9241946" lon="17.8394951">
        <ele>16.9604</ele>
        <time>2013-04-09T16:51:46Z</time>
      </trkpt>
      <trkpt lat="59.924128" lon="17.8395187">
        <ele>16.9604</ele>
        <time>2013-04-09T16:51:47Z</time>
      </trkpt>
      <trkpt lat="59.9240608" lon="17.8395433">
        <ele>17.4412</ele>
        <time>2013-04-09T16:51:48Z</time>
      </trkpt>
      <trkpt lat="59.9239934" lon="17.83957">
        <ele>17.4412</ele>
        <time>2013-04-09T16:51:49Z</time>
      </trkpt>
      <trkpt lat="59.9239264" lon="17.8395974">
        <ele>17.9218</ele>
        <time>2013-04-09T16:51:50Z</time>
      </trkpt>
      <trkpt lat="59.9238593" lon="17.8396255">
        <ele>18.4023</ele>
        <time>2013-04-09T16:51:51Z</time>
      </trkpt>
      <trkpt lat="59.9237929" lon="17.8396548">
        <ele>18.4023</ele>
        <time>2013-04-09T16:51:52Z</time>
      </trkpt>
      <trkpt lat="59.9237269" lon="17.8396856">
        <ele>18.4023</ele>
        <time>2013-04-09T16:51:53Z</time>
      </trkpt>
      <trkpt lat="59.9236608" lon="17.8397176">
        <ele>18.8831</ele>
        <time>2013-04-09T16:51:54Z</time>
      </trkpt>
      <trkpt lat="59.9235949" lon="17.8397499">
        <ele>18.8831</ele>
        <time>2013-04-09T16:51:55Z</time>
      </trkpt>
      <trkpt lat="59.92353" lon="17.8397841">
        <ele>19.3638</ele>
        <time>2013-04-09T16:51:56Z</time>
      </trkpt>
      <trkpt lat="59.9234656" lon="17.8398182">
        <ele>19.3638</ele>
        <time>2013-04-09T16:51:57Z</time>
      </trkpt>
      <trkpt lat="59.9234017" lon="17.839852">
        <ele>19.3638</ele>
        <time>2013-04-09T16:51:58Z</time>
      </trkpt>
      <trkpt lat="59.9233384" lon="17.8398876">
        <ele>19.8444</ele>
        <time>2013-04-09T16:51:59Z</time>
      </trkpt>
      <trkpt lat="59.9232753" lon="17.8399228">
        <ele>19.8444</ele>
        <time>2013-04-09T16:52:00Z</time>
      </trkpt>
      <trkpt lat="59.9232123" lon="17.8399569">
        <ele>19.8444</ele>
        <time>2013-04-09T16:52:01Z</time>
      </trkpt>
      <trkpt lat="59.9231498" lon="17.8399902">
        <ele>19.8444</ele>
        <time>2013-04-09T16:52:02Z</time>
      </trkpt>
      <trkpt lat="59.9230873" lon="17.8400218">
        <ele>19.3638</ele>
        <time>2013-04-09T16:52:03Z</time>
      </trkpt>
      <trkpt lat="59.9230248" lon="17.840056">
        <ele>19.3638</ele>
        <time>2013-04-09T16:52:04Z</time>
      </trkpt>
      <trkpt lat="59.9229615" lon="17.8400896">
        <ele>18.8831</ele>
        <time>2013-04-09T16:52:05Z</time>
      </trkpt>
      <trkpt lat="59.9228991" lon="17.8401244">
        <ele>18.8831</ele>
        <time>2013-04-09T16:52:06Z</time>
      </trkpt>
      <trkpt lat="59.922838" lon="17.8401597">
        <ele>18.8831</ele>
        <time>2013-04-09T16:52:07Z</time>
      </trkpt>
      <trkpt lat="59.9227766" lon="17.8401927">
        <ele>19.3638</ele>
        <time>2013-04-09T16:52:08Z</time>
      </trkpt>
      <trkpt lat="59.9227149" lon="17.8402258">
        <ele>19.3638</ele>
        <time>2013-04-09T16:52:09Z</time>
      </trkpt>
      <trkpt lat="59.9226525" lon="17.8402588">
        <ele>19.3638</ele>
        <time>2013-04-09T16:52:10Z</time>
      </trkpt>
      <trkpt lat="59.9225895" lon="17.8402886">
        <ele>19.3638</ele>
        <time>2013-04-09T16:52:11Z</time>
      </trkpt>
      <trkpt lat="59.9225258" lon="17.8403172">
        <ele>18.8831</ele>
        <time>2013-04-09T16:52:12Z</time>
      </trkpt>
      <trkpt lat="59.9224611" lon="17.8403471">
        <ele>18.8831</ele>
        <time>2013-04-09T16:52:13Z</time>
      </trkpt>
      <trkpt lat="59.9223958" lon="17.8403771">
        <ele>18.8831</ele>
        <time>2013-04-09T16:52:14Z</time>
      </trkpt>
      <trkpt lat="59.922329" lon="17.8404018">
        <ele>18.4023</ele>
        <time>2013-04-09T16:52:15Z</time>
      </trkpt>
      <trkpt lat="59.9222612" lon="17.8404228">
        <ele>17.9218</ele>
        <time>2013-04-09T16:52:16Z</time>
      </trkpt>
      <trkpt lat="59.9221938" lon="17.8404424">
        <ele>16.9604</ele>
        <time>2013-04-09T16:52:17Z</time>
      </trkpt>
      <trkpt lat="59.9221274" lon="17.8404621">
        <ele>16.9604</ele>
        <time>2013-04-09T16:52:18Z</time>
      </trkpt>
      <trkpt lat="59.9220612" lon="17.8404813">
        <ele>16.9604</ele>
        <time>2013-04-09T16:52:19Z</time>
      </trkpt>
      <trkpt lat="59.9219953" lon="17.8405018">
        <ele>16.9604</ele>
        <time>2013-04-09T16:52:20Z</time>
      </trkpt>
      <trkpt lat="59.9219279" lon="17.8405176">
        <ele>16.4797</ele>
        <time>2013-04-09T16:52:21Z</time>
      </trkpt>
      <trkpt lat="59.9218607" lon="17.8405332">
        <ele>16.4797</ele>
        <time>2013-04-09T16:52:22Z</time>
      </trkpt>
      <trkpt lat="59.9217926" lon="17.8405465">
        <ele>15.999</ele>
        <time>2013-04-09T16:52:23Z</time>
      </trkpt>
      <trkpt lat="59.9217244" lon="17.8405613">
        <ele>15.5184</ele>
        <time>2013-04-09T16:52:24Z</time>
      </trkpt>
      <trkpt lat="59.9216561" lon="17.8405761">
        <ele>15.0377</ele>
        <time>2013-04-09T16:52:25Z</time>
      </trkpt>
      <trkpt lat="59.9215878" lon="17.8405904">
        <ele>14.557</ele>
        <time>2013-04-09T16:52:26Z</time>
      </trkpt>
      <trkpt lat="59.9215199" lon="17.8406057">
        <ele>14.557</ele>
        <time>2013-04-09T16:52:27Z</time>
      </trkpt>
      <trkpt lat="59.9214526" lon="17.8406204">
        <ele>14.0764</ele>
        <time>2013-04-09T16:52:28Z</time>
      </trkpt>
      <trkpt lat="59.9213197" lon="17.840642">
        <ele>14.0764</ele>
        <time>2013-04-09T16:52:30Z</time>
      </trkpt>
      <trkpt lat="59.9212542" lon="17.8406506">
        <ele>14.0764</ele>
        <time>2013-04-09T16:52:31Z</time>
      </trkpt>
      <trkpt lat="59.9211895" lon="17.8406574">
        <ele>14.0764</ele>
        <time>2013-04-09T16:52:32Z</time>
      </trkpt>
      <trkpt lat="59.9211254" lon="17.8406605">
        <ele>14.0764</ele>
        <time>2013-04-09T16:52:33Z</time>
      </trkpt>
      <trkpt lat="59.9210614" lon="17.8406613">
        <ele>14.0764</ele>
        <time>2013-04-09T16:52:34Z</time>
      </trkpt>
      <trkpt lat="59.9209982" lon="17.8406616">
        <ele>14.557</ele>
        <time>2013-04-09T16:52:35Z</time>
      </trkpt>
      <trkpt lat="59.9209358" lon="17.8406625">
        <ele>14.557</ele>
        <time>2013-04-09T16:52:36Z</time>
      </trkpt>
      <trkpt lat="59.9208754" lon="17.840665">
        <ele>14.557</ele>
        <time>2013-04-09T16:52:37Z</time>
      </trkpt>
      <trkpt lat="59.9208165" lon="17.8406677">
        <ele>14.557</ele>
        <time>2013-04-09T16:52:38Z</time>
      </trkpt>
      <trkpt lat="59.9207584" lon="17.8406701">
        <ele>15.0377</ele>
        <time>2013-04-09T16:52:39Z</time>
      </trkpt>
      <trkpt lat="59.9207014" lon="17.8406729">
        <ele>15.0377</ele>
        <time>2013-04-09T16:52:40Z</time>
      </trkpt>
      <trkpt lat="59.9206458" lon="17.8406779">
        <ele>15.0377</ele>
        <time>2013-04-09T16:52:41Z</time>
      </trkpt>
      <trkpt lat="59.920592" lon="17.8406821">
        <ele>15.0377</ele>
        <time>2013-04-09T16:52:42Z</time>
      </trkpt>
      <trkpt lat="59.9205393" lon="17.8406848">
        <ele>15.5184</ele>
        <time>2013-04-09T16:52:43Z</time>
      </trkpt>
      <trkpt lat="59.9204879" lon="17.8406867">
        <ele>15.5184</ele>
        <time>2013-04-09T16:52:44Z</time>
      </trkpt>
      <trkpt lat="59.9204378" lon="17.8406884">
        <ele>15.999</ele>
        <time>2013-04-09T16:52:45Z</time>
      </trkpt>
      <trkpt lat="59.9203896" lon="17.8406894">
        <ele>16.4797</ele>
        <time>2013-04-09T16:52:46Z</time>
      </trkpt>
      <trkpt lat="59.9203425" lon="17.8406903">
        <ele>16.4797</ele>
        <time>2013-04-09T16:52:47Z</time>
      </trkpt>
      <trkpt lat="59.9202957" lon="17.8406898">
        <ele>16.9604</ele>
        <time>2013-04-09T16:52:48Z</time>
      </trkpt>
      <trkpt lat="59.920248" lon="17.8406868">
        <ele>16.4797</ele>
        <time>2013-04-09T16:52:49Z</time>
      </trkpt>
      <trkpt lat="59.9202" lon="17.8406837">
        <ele>16.4797</ele>
        <time>2013-04-09T16:52:50Z</time>
      </trkpt>
      <trkpt lat="59.9201512" lon="17.8406816">
        <ele>15.999</ele>
        <time>2013-04-09T16:52:51Z</time>
      </trkpt>
      <trkpt lat="59.9201005" lon="17.8406781">
        <ele>15.999</ele>
        <time>2013-04-09T16:52:52Z</time>
      </trkpt>
      <trkpt lat="59.9200492" lon="17.8406765">
        <ele>15.999</ele>
        <time>2013-04-09T16:52:53Z</time>
      </trkpt>
      <trkpt lat="59.919997" lon="17.8406763">
        <ele>15.999</ele>
        <time>2013-04-09T16:52:54Z</time>
      </trkpt>
      <trkpt lat="59.9199451" lon="17.8406802">
        <ele>15.5184</ele>
        <time>2013-04-09T16:52:55Z</time>
      </trkpt>
      <trkpt lat="59.9198928" lon="17.8406874">
        <ele>15.999</ele>
        <time>2013-04-09T16:52:56Z</time>
      </trkpt>
      <trkpt lat="59.9198384" lon="17.8406952">
        <ele>15.999</ele>
        <time>2013-04-09T16:52:57Z</time>
      </trkpt>
      <trkpt lat="59.919784" lon="17.840705">
        <ele>15.5184</ele>
        <time>2013-04-09T16:52:58Z</time>
      </trkpt>
      <trkpt lat="59.9197275" lon="17.8407212">
        <ele>15.5184</ele>
        <time>2013-04-09T16:52:59Z</time>
      </trkpt>
      <trkpt lat="59.9196689" lon="17.8407427">
        <ele>15.5184</ele>
        <time>2013-04-09T16:53:00Z</time>
      </trkpt>
      <trkpt lat="59.9196078" lon="17.8407688">
        <ele>15.5184</ele>
        <time>2013-04-09T16:53:01Z</time>
      </trkpt>
      <trkpt lat="59.9195439" lon="17.8407984">
        <ele>15.0377</ele>
        <time>2013-04-09T16:53:02Z</time>
      </trkpt>
      <trkpt lat="59.9194793" lon="17.8408331">
        <ele>15.0377</ele>
        <time>2013-04-09T16:53:03Z</time>
      </trkpt>
      <trkpt lat="59.9194186" lon="17.840874">
        <ele>15.5184</ele>
        <time>2013-04-09T16:53:04Z</time>
      </trkpt>
      <trkpt lat="59.9193596" lon="17.8409139">
        <ele>15.0377</ele>
        <time>2013-04-09T16:53:05Z</time>
      </trkpt>
      <trkpt lat="59.919302" lon="17.8409521">
        <ele>15.0377</ele>
        <time>2013-04-09T16:53:06Z</time>
      </trkpt>
      <trkpt lat="59.9192436" lon="17.8409861">
        <ele>15.0377</ele>
        <time>2013-04-09T16:53:07Z</time>
      </trkpt>
      <trkpt lat="59.9191852" lon="17.8410242">
        <ele>15.0377</ele>
        <time>2013-04-09T16:53:08Z</time>
      </trkpt>
      <trkpt lat="59.9191275" lon="17.8410644">
        <ele>15.5184</ele>
        <time>2013-04-09T16:53:09Z</time>
      </trkpt>
      <trkpt lat="59.9190702" lon="17.841106">
        <ele>15.5184</ele>
        <time>2013-04-09T16:53:10Z</time>
      </trkpt>
      <trkpt lat="59.919013" lon="17.8411459">
        <ele>15.5184</ele>
        <time>2013-04-09T16:53:11Z</time>
      </trkpt>
      <trkpt lat="59.9189557" lon="17.8411843">
        <ele>15.5184</ele>
        <time>2013-04-09T16:53:12Z</time>
      </trkpt>
      <trkpt lat="59.9188987" lon="17.8412232">
        <ele>15.999</ele>
        <time>2013-04-09T16:53:13Z</time>
      </trkpt>
      <trkpt lat="59.9188416" lon="17.8412604">
        <ele>15.5184</ele>
        <time>2013-04-09T16:53:14Z</time>
      </trkpt>
      <trkpt lat="59.9187849" lon="17.8412991">
        <ele>15.5184</ele>
        <time>2013-04-09T16:53:15Z</time>
      </trkpt>
      <trkpt lat="59.9187287" lon="17.8413394">
        <ele>15.5184</ele>
        <time>2013-04-09T16:53:16Z</time>
      </trkpt>
      <trkpt lat="59.918673" lon="17.8413825">
        <ele>15.0377</ele>
        <time>2013-04-09T16:53:17Z</time>
      </trkpt>
      <trkpt lat="59.9186177" lon="17.841427">
        <ele>15.0377</ele>
        <time>2013-04-09T16:53:18Z</time>
      </trkpt>
      <trkpt lat="59.9185624" lon="17.8414723">
        <ele>15.0377</ele>
        <time>2013-04-09T16:53:19Z</time>
      </trkpt>
      <trkpt lat="59.9185071" lon="17.8415202">
        <ele>15.0377</ele>
        <time>2013-04-09T16:53:20Z</time>
      </trkpt>
      <trkpt lat="59.9184515" lon="17.8415675">
        <ele>15.0377</ele>
        <time>2013-04-09T16:53:21Z</time>
      </trkpt>
      <trkpt lat="59.9183963" lon="17.8416165">
        <ele>15.0377</ele>
        <time>2013-04-09T16:53:22Z</time>
      </trkpt>
      <trkpt lat="59.9183424" lon="17.8416681">
        <ele>15.5184</ele>
        <time>2013-04-09T16:53:23Z</time>
      </trkpt>
      <trkpt lat="59.918289" lon="17.8417209">
        <ele>15.5184</ele>
        <time>2013-04-09T16:53:24Z</time>
      </trkpt>
      <trkpt lat="59.9182358" lon="17.8417716">
        <ele>15.5184</ele>
        <time>2013-04-09T16:53:25Z</time>
      </trkpt>
      <trkpt lat="59.9181833" lon="17.8418225">
        <ele>15.5184</ele>
        <time>2013-04-09T16:53:26Z</time>
      </trkpt>
      <trkpt lat="59.9181315" lon="17.8418766">
        <ele>15.999</ele>
        <time>2013-04-09T16:53:27Z</time>
      </trkpt>
      <trkpt lat="59.9180796" lon="17.8419301">
        <ele>15.999</ele>
        <time>2013-04-09T16:53:28Z</time>
      </trkpt>
      <trkpt lat="59.9180285" lon="17.8419822">
        <ele>15.999</ele>
        <time>2013-04-09T16:53:29Z</time>
      </trkpt>
      <trkpt lat="59.917978" lon="17.8420358">
        <ele>15.999</ele>
        <time>2013-04-09T16:53:30Z</time>
      </trkpt>
      <trkpt lat="59.9179264" lon="17.8420881">
        <ele>15.999</ele>
        <time>2013-04-09T16:53:31Z</time>
      </trkpt>
      <trkpt lat="59.9178745" lon="17.8421409">
        <ele>15.999</ele>
        <time>2013-04-09T16:53:32Z</time>
      </trkpt>
      <trkpt lat="59.9178223" lon="17.8421941">
        <ele>15.999</ele>
        <time>2013-04-09T16:53:33Z</time>
      </trkpt>
      <trkpt lat="59.9177703" lon="17.8422487">
        <ele>15.999</ele>
        <time>2013-04-09T16:53:34Z</time>
      </trkpt>
      <trkpt lat="59.9177191" lon="17.8423022">
        <ele>15.999</ele>
        <time>2013-04-09T16:53:35Z</time>
      </trkpt>
      <trkpt lat="59.9176685" lon="17.8423557">
        <ele>15.999</ele>
        <time>2013-04-09T16:53:36Z</time>
      </trkpt>
      <trkpt lat="59.9176183" lon="17.8424091">
        <ele>15.999</ele>
        <time>2013-04-09T16:53:37Z</time>
      </trkpt>
      <trkpt lat="59.9175669" lon="17.8424569">
        <ele>15.999</ele>
        <time>2013-04-09T16:53:38Z</time>
      </trkpt>
      <trkpt lat="59.9175133" lon="17.8425049">
        <ele>15.999</ele>
        <time>2013-04-09T16:53:39Z</time>
      </trkpt>
      <trkpt lat="59.9174588" lon="17.8425521">
        <ele>15.5184</ele>
        <time>2013-04-09T16:53:40Z</time>
      </trkpt>
      <trkpt lat="59.9174048" lon="17.8425987">
        <ele>15.0377</ele>
        <time>2013-04-09T16:53:41Z</time>
      </trkpt>
      <trkpt lat="59.9173502" lon="17.8426455">
        <ele>14.557</ele>
        <time>2013-04-09T16:53:42Z</time>
      </trkpt>
      <trkpt lat="59.917295" lon="17.8426863">
        <ele>14.557</ele>
        <time>2013-04-09T16:53:43Z</time>
      </trkpt>
      <trkpt lat="59.9172409" lon="17.8427244">
        <ele>14.557</ele>
        <time>2013-04-09T16:53:44Z</time>
      </trkpt>
      <trkpt lat="59.9171889" lon="17.8427658">
        <ele>14.557</ele>
        <time>2013-04-09T16:53:45Z</time>
      </trkpt>
      <trkpt lat="59.9171375" lon="17.8428076">
        <ele>14.557</ele>
        <time>2013-04-09T16:53:46Z</time>
      </trkpt>
      <trkpt lat="59.9170877" lon="17.8428479">
        <ele>14.557</ele>
        <time>2013-04-09T16:53:47Z</time>
      </trkpt>
      <trkpt lat="59.9170392" lon="17.8428854">
        <ele>15.0377</ele>
        <time>2013-04-09T16:53:48Z</time>
      </trkpt>
      <trkpt lat="59.9169931" lon="17.8429215">
        <ele>15.0377</ele>
        <time>2013-04-09T16:53:49Z</time>
      </trkpt>
      <trkpt lat="59.9169477" lon="17.8429521">
        <ele>15.5184</ele>
        <time>2013-04-09T16:53:50Z</time>
      </trkpt>
      <trkpt lat="59.9169001" lon="17.8429663">
        <ele>15.5184</ele>
        <time>2013-04-09T16:53:51Z</time>
      </trkpt>
      <trkpt lat="59.9168508" lon="17.8429572">
        <ele>15.0377</ele>
        <time>2013-04-09T16:53:52Z</time>
      </trkpt>
      <trkpt lat="59.9168018" lon="17.8429258">
        <ele>15.0377</ele>
        <time>2013-04-09T16:53:53Z</time>
      </trkpt>
      <trkpt lat="59.9167558" lon="17.8428737">
        <ele>14.557</ele>
        <time>2013-04-09T16:53:54Z</time>
      </trkpt>
      <trkpt lat="59.9167115" lon="17.8428085">
        <ele>14.0764</ele>
        <time>2013-04-09T16:53:55Z</time>
      </trkpt>
      <trkpt lat="59.9166671" lon="17.842737">
        <ele>13.5958</ele>
        <time>2013-04-09T16:53:56Z</time>
      </trkpt>
      <trkpt lat="59.9166205" lon="17.842662">
        <ele>13.5958</ele>
        <time>2013-04-09T16:53:57Z</time>
      </trkpt>
      <trkpt lat="59.9165717" lon="17.842584">
        <ele>13.1151</ele>
        <time>2013-04-09T16:53:58Z</time>
      </trkpt>
      <trkpt lat="59.9165224" lon="17.8425028">
        <ele>12.6344</ele>
        <time>2013-04-09T16:53:59Z</time>
      </trkpt>
      <trkpt lat="59.9164713" lon="17.842421">
        <ele>12.1538</ele>
        <time>2013-04-09T16:54:00Z</time>
      </trkpt>
      <trkpt lat="59.9164194" lon="17.8423383">
        <ele>11.6732</ele>
        <time>2013-04-09T16:54:01Z</time>
      </trkpt>
      <trkpt lat="59.9163667" lon="17.8422544">
        <ele>11.6732</ele>
        <time>2013-04-09T16:54:02Z</time>
      </trkpt>
      <trkpt lat="59.9163137" lon="17.8421692">
        <ele>11.6732</ele>
        <time>2013-04-09T16:54:03Z</time>
      </trkpt>
      <trkpt lat="59.9162616" lon="17.8420819">
        <ele>11.6732</ele>
        <time>2013-04-09T16:54:04Z</time>
      </trkpt>
      <trkpt lat="59.9162071" lon="17.8419969">
        <ele>11.6732</ele>
        <time>2013-04-09T16:54:05Z</time>
      </trkpt>
      <trkpt lat="59.9161472" lon="17.8419213">
        <ele>11.6732</ele>
        <time>2013-04-09T16:54:06Z</time>
      </trkpt>
      <trkpt lat="59.9160823" lon="17.841858">
        <ele>12.1538</ele>
        <time>2013-04-09T16:54:07Z</time>
      </trkpt>
      <trkpt lat="59.9160143" lon="17.8418092">
        <ele>11.6732</ele>
        <time>2013-04-09T16:54:08Z</time>
      </trkpt>
      <trkpt lat="59.9159431" lon="17.8417784">
        <ele>11.1925</ele>
        <time>2013-04-09T16:54:09Z</time>
      </trkpt>
      <trkpt lat="59.9158711" lon="17.8417602">
        <ele>11.1925</ele>
        <time>2013-04-09T16:54:10Z</time>
      </trkpt>
      <trkpt lat="59.9157984" lon="17.8417509">
        <ele>10.7118</ele>
        <time>2013-04-09T16:54:11Z</time>
      </trkpt>
      <trkpt lat="59.9157252" lon="17.8417481">
        <ele>10.2312</ele>
        <time>2013-04-09T16:54:12Z</time>
      </trkpt>
      <trkpt lat="59.9156518" lon="17.8417469">
        <ele>10.2312</ele>
        <time>2013-04-09T16:54:13Z</time>
      </trkpt>
      <trkpt lat="59.9155772" lon="17.8417421">
        <ele>9.75061</ele>
        <time>2013-04-09T16:54:14Z</time>
      </trkpt>
      <trkpt lat="59.9155026" lon="17.8417321">
        <ele>9.75061</ele>
        <time>2013-04-09T16:54:15Z</time>
      </trkpt>
      <trkpt lat="59.915427" lon="17.8417238">
        <ele>9.2699</ele>
        <time>2013-04-09T16:54:16Z</time>
      </trkpt>
      <trkpt lat="59.9153514" lon="17.8417189">
        <ele>9.2699</ele>
        <time>2013-04-09T16:54:17Z</time>
      </trkpt>
      <trkpt lat="59.915274" lon="17.8417144">
        <ele>9.2699</ele>
        <time>2013-04-09T16:54:18Z</time>
      </trkpt>
      <trkpt lat="59.9151966" lon="17.8417134">
        <ele>9.2699</ele>
        <time>2013-04-09T16:54:19Z</time>
      </trkpt>
      <trkpt lat="59.9151183" lon="17.8417188">
        <ele>8.78918</ele>
        <time>2013-04-09T16:54:20Z</time>
      </trkpt>
      <trkpt lat="59.9150406" lon="17.8417357">
        <ele>8.78918</ele>
        <time>2013-04-09T16:54:21Z</time>
      </trkpt>
      <trkpt lat="59.9149624" lon="17.8417618">
        <ele>8.78918</ele>
        <time>2013-04-09T16:54:22Z</time>
      </trkpt>
      <trkpt lat="59.9148837" lon="17.8417976">
        <ele>8.78918</ele>
        <time>2013-04-09T16:54:23Z</time>
      </trkpt>
      <trkpt lat="59.9148058" lon="17.8418386">
        <ele>8.30859</ele>
        <time>2013-04-09T16:54:24Z</time>
      </trkpt>
      <trkpt lat="59.9147298" lon="17.8418846">
        <ele>8.30859</ele>
        <time>2013-04-09T16:54:25Z</time>
      </trkpt>
      <trkpt lat="59.9146562" lon="17.8419388">
        <ele>7.82788</ele>
        <time>2013-04-09T16:54:26Z</time>
      </trkpt>
      <trkpt lat="59.9145842" lon="17.8419973">
        <ele>7.34717</ele>
        <time>2013-04-09T16:54:27Z</time>
      </trkpt>
      <trkpt lat="59.9145142" lon="17.8420621">
        <ele>6.86646</ele>
        <time>2013-04-09T16:54:28Z</time>
      </trkpt>
      <trkpt lat="59.9144468" lon="17.8421345">
        <ele>6.86646</ele>
        <time>2013-04-09T16:54:29Z</time>
      </trkpt>
      <trkpt lat="59.9143817" lon="17.8422123">
        <ele>6.38586</ele>
        <time>2013-04-09T16:54:30Z</time>
      </trkpt>
      <trkpt lat="59.9143185" lon="17.8422938">
        <ele>6.38586</ele>
        <time>2013-04-09T16:54:31Z</time>
      </trkpt>
      <trkpt lat="59.9142563" lon="17.8423733">
        <ele>6.38586</ele>
        <time>2013-04-09T16:54:32Z</time>
      </trkpt>
      <trkpt lat="59.9141936" lon="17.8424483">
        <ele>6.38586</ele>
        <time>2013-04-09T16:54:33Z</time>
      </trkpt>
      <trkpt lat="59.914131" lon="17.8425181">
        <ele>5.90527</ele>
        <time>2013-04-09T16:54:34Z</time>
      </trkpt>
      <trkpt lat="59.9140689" lon="17.8425837">
        <ele>5.90527</ele>
        <time>2013-04-09T16:54:35Z</time>
      </trkpt>
      <trkpt lat="59.9140081" lon="17.8426465">
        <ele>5.90527</ele>
        <time>2013-04-09T16:54:36Z</time>
      </trkpt>
      <trkpt lat="59.913948" lon="17.8427066">
        <ele>5.90527</ele>
        <time>2013-04-09T16:54:37Z</time>
      </trkpt>
      <trkpt lat="59.913889" lon="17.8427647">
        <ele>5.90527</ele>
        <time>2013-04-09T16:54:38Z</time>
      </trkpt>
      <trkpt lat="59.9138313" lon="17.8428214">
        <ele>5.90527</ele>
        <time>2013-04-09T16:54:39Z</time>
      </trkpt>
      <trkpt lat="59.9137735" lon="17.8428744">
        <ele>5.90527</ele>
        <time>2013-04-09T16:54:40Z</time>
      </trkpt>
      <trkpt lat="59.9137169" lon="17.8429237">
        <ele>5.90527</ele>
        <time>2013-04-09T16:54:41Z</time>
      </trkpt>
      <trkpt lat="59.9136602" lon="17.8429706">
        <ele>5.90527</ele>
        <time>2013-04-09T16:54:42Z</time>
      </trkpt>
      <trkpt lat="59.9136034" lon="17.8430129">
        <ele>5.90527</ele>
        <time>2013-04-09T16:54:43Z</time>
      </trkpt>
      <trkpt lat="59.9135461" lon="17.8430506">
        <ele>5.90527</ele>
        <time>2013-04-09T16:54:44Z</time>
      </trkpt>
      <trkpt lat="59.913489" lon="17.8430844">
        <ele>5.42456</ele>
        <time>2013-04-09T16:54:45Z</time>
      </trkpt>
      <trkpt lat="59.9134327" lon="17.8431139">
        <ele>5.42456</ele>
        <time>2013-04-09T16:54:46Z</time>
      </trkpt>
      <trkpt lat="59.9133752" lon="17.8431392">
        <ele>5.42456</ele>
        <time>2013-04-09T16:54:47Z</time>
      </trkpt>
      <trkpt lat="59.913316" lon="17.8431604">
        <ele>5.90527</ele>
        <time>2013-04-09T16:54:48Z</time>
      </trkpt>
      <trkpt lat="59.9132564" lon="17.8431801">
        <ele>5.90527</ele>
        <time>2013-04-09T16:54:49Z</time>
      </trkpt>
      <trkpt lat="59.9131964" lon="17.8431988">
        <ele>5.90527</ele>
        <time>2013-04-09T16:54:50Z</time>
      </trkpt>
      <trkpt lat="59.9131356" lon="17.8432158">
        <ele>5.90527</ele>
        <time>2013-04-09T16:54:51Z</time>
      </trkpt>
      <trkpt lat="59.9130735" lon="17.8432317">
        <ele>5.90527</ele>
        <time>2013-04-09T16:54:52Z</time>
      </trkpt>
      <trkpt lat="59.913011" lon="17.8432479">
        <ele>6.38586</ele>
        <time>2013-04-09T16:54:53Z</time>
      </trkpt>
      <trkpt lat="59.912949" lon="17.8432635">
        <ele>6.38586</ele>
        <time>2013-04-09T16:54:54Z</time>
      </trkpt>
      <trkpt lat="59.9128881" lon="17.8432795">
        <ele>6.38586</ele>
        <time>2013-04-09T16:54:55Z</time>
      </trkpt>
      <trkpt lat="59.9128281" lon="17.843297">
        <ele>6.38586</ele>
        <time>2013-04-09T16:54:56Z</time>
      </trkpt>
      <trkpt lat="59.9127691" lon="17.843318">
        <ele>6.38586</ele>
        <time>2013-04-09T16:54:57Z</time>
      </trkpt>
      <trkpt lat="59.9127115" lon="17.8433454">
        <ele>6.38586</ele>
        <time>2013-04-09T16:54:58Z</time>
      </trkpt>
      <trkpt lat="59.9126546" lon="17.8433765">
        <ele>6.38586</ele>
        <time>2013-04-09T16:54:59Z</time>
      </trkpt>
      <trkpt lat="59.912598" lon="17.8434095">
        <ele>6.38586</ele>
        <time>2013-04-09T16:55:00Z</time>
      </trkpt>
      <trkpt lat="59.9125411" lon="17.843451">
        <ele>6.38586</ele>
        <time>2013-04-09T16:55:01Z</time>
      </trkpt>
      <trkpt lat="59.9124863" lon="17.8435002">
        <ele>5.90527</ele>
        <time>2013-04-09T16:55:02Z</time>
      </trkpt>
      <trkpt lat="59.9124298" lon="17.8435457">
        <ele>5.90527</ele>
        <time>2013-04-09T16:55:03Z</time>
      </trkpt>
      <trkpt lat="59.9123853" lon="17.8436044">
        <ele>5.90527</ele>
        <time>2013-04-09T16:55:04Z</time>
      </trkpt>
      <trkpt lat="59.9123428" lon="17.8436658">
        <ele>5.90527</ele>
        <time>2013-04-09T16:55:05Z</time>
      </trkpt>
      <trkpt lat="59.9122986" lon="17.843724">
        <ele>5.90527</ele>
        <time>2013-04-09T16:55:06Z</time>
      </trkpt>
      <trkpt lat="59.9122504" lon="17.8437772">
        <ele>5.90527</ele>
        <time>2013-04-09T16:55:07Z</time>
      </trkpt>
      <trkpt lat="59.9122012" lon="17.8438277">
        <ele>5.90527</ele>
        <time>2013-04-09T16:55:08Z</time>
      </trkpt>
      <trkpt lat="59.9121509" lon="17.8438732">
        <ele>5.42456</ele>
        <time>2013-04-09T16:55:09Z</time>
      </trkpt>
      <trkpt lat="59.9120989" lon="17.843916">
        <ele>4.94385</ele>
        <time>2013-04-09T16:55:10Z</time>
      </trkpt>
      <trkpt lat="59.9120449" lon="17.8439603">
        <ele>4.46326</ele>
        <time>2013-04-09T16:55:11Z</time>
      </trkpt>
      <trkpt lat="59.9119884" lon="17.8439969">
        <ele>3.98267</ele>
        <time>2013-04-09T16:55:12Z</time>
      </trkpt>
      <trkpt lat="59.9119294" lon="17.84403">
        <ele>3.50195</ele>
        <time>2013-04-09T16:55:13Z</time>
      </trkpt>
      <trkpt lat="59.9118668" lon="17.8440636">
        <ele>3.02124</ele>
        <time>2013-04-09T16:55:14Z</time>
      </trkpt>
      <trkpt lat="59.911803" lon="17.8440965">
        <ele>3.50195</ele>
        <time>2013-04-09T16:55:15Z</time>
      </trkpt>
      <trkpt lat="59.9117375" lon="17.8441228">
        <ele>3.02124</ele>
        <time>2013-04-09T16:55:16Z</time>
      </trkpt>
      <trkpt lat="59.9116695" lon="17.8441395">
        <ele>3.02124</ele>
        <time>2013-04-09T16:55:17Z</time>
      </trkpt>
      <trkpt lat="59.9115998" lon="17.8441533">
        <ele>2.54065</ele>
        <time>2013-04-09T16:55:18Z</time>
      </trkpt>
      <trkpt lat="59.91153" lon="17.8441594">
        <ele>2.54065</ele>
        <time>2013-04-09T16:55:19Z</time>
      </trkpt>
      <trkpt lat="59.91146" lon="17.8441601">
        <ele>2.06006</ele>
        <time>2013-04-09T16:55:20Z</time>
      </trkpt>
      <trkpt lat="59.9113896" lon="17.8441598">
        <ele>2.06006</ele>
        <time>2013-04-09T16:55:21Z</time>
      </trkpt>
      <trkpt lat="59.9113183" lon="17.8441565">
        <ele>1.57935</ele>
        <time>2013-04-09T16:55:22Z</time>
      </trkpt>
      <trkpt lat="59.9112476" lon="17.8441524">
        <ele>1.57935</ele>
        <time>2013-04-09T16:55:23Z</time>
      </trkpt>
      <trkpt lat="59.9111769" lon="17.8441405">
        <ele>1.57935</ele>
        <time>2013-04-09T16:55:24Z</time>
      </trkpt>
      <trkpt lat="59.9111084" lon="17.8441337">
        <ele>2.06006</ele>
        <time>2013-04-09T16:55:25Z</time>
      </trkpt>
      <trkpt lat="59.9110408" lon="17.8441204">
        <ele>2.54065</ele>
        <time>2013-04-09T16:55:26Z</time>
      </trkpt>
      <trkpt lat="59.9109755" lon="17.8440994">
        <ele>3.02124</ele>
        <time>2013-04-09T16:55:27Z</time>
      </trkpt>
      <trkpt lat="59.9109136" lon="17.8440694">
        <ele>3.98267</ele>
        <time>2013-04-09T16:55:28Z</time>
      </trkpt>
      <trkpt lat="59.9108528" lon="17.8440277">
        <ele>3.98267</ele>
        <time>2013-04-09T16:55:29Z</time>
      </trkpt>
      <trkpt lat="59.9107944" lon="17.843982">
        <ele>3.98267</ele>
        <time>2013-04-09T16:55:30Z</time>
      </trkpt>
      <trkpt lat="59.9107401" lon="17.843937">
        <ele>4.46326</ele>
        <time>2013-04-09T16:55:31Z</time>
      </trkpt>
      <trkpt lat="59.9106883" lon="17.8438934">
        <ele>4.94385</ele>
        <time>2013-04-09T16:55:32Z</time>
      </trkpt>
      <trkpt lat="59.9106355" lon="17.8438505">
        <ele>5.42456</ele>
        <time>2013-04-09T16:55:33Z</time>
      </trkpt>
      <trkpt lat="59.9105816" lon="17.8438147">
        <ele>6.38586</ele>
        <time>2013-04-09T16:55:34Z</time>
      </trkpt>
      <trkpt lat="59.9105298" lon="17.8437775">
        <ele>6.38586</ele>
        <time>2013-04-09T16:55:35Z</time>
      </trkpt>
      <trkpt lat="59.9104799" lon="17.8437379">
        <ele>6.86646</ele>
        <time>2013-04-09T16:55:36Z</time>
      </trkpt>
      <trkpt lat="59.9104318" lon="17.8436991">
        <ele>7.34717</ele>
        <time>2013-04-09T16:55:37Z</time>
      </trkpt>
      <trkpt lat="59.9103825" lon="17.8436638">
        <ele>7.82788</ele>
        <time>2013-04-09T16:55:38Z</time>
      </trkpt>
      <trkpt lat="59.9103355" lon="17.8436271">
        <ele>8.30859</ele>
        <time>2013-04-09T16:55:39Z</time>
      </trkpt>
      <trkpt lat="59.9102854" lon="17.8435847">
        <ele>7.82788</ele>
        <time>2013-04-09T16:55:40Z</time>
      </trkpt>
      <trkpt lat="59.9102344" lon="17.8435495">
        <ele>7.82788</ele>
        <time>2013-04-09T16:55:41Z</time>
      </trkpt>
      <trkpt lat="59.9101827" lon="17.843512">
        <ele>8.30859</ele>
        <time>2013-04-09T16:55:42Z</time>
      </trkpt>
      <trkpt lat="59.9101309" lon="17.8434663">
        <ele>8.30859</ele>
        <time>2013-04-09T16:55:43Z</time>
      </trkpt>
      <trkpt lat="59.9100809" lon="17.8434205">
        <ele>8.78918</ele>
        <time>2013-04-09T16:55:44Z</time>
      </trkpt>
      <trkpt lat="59.9100345" lon="17.843375">
        <ele>8.78918</ele>
        <time>2013-04-09T16:55:45Z</time>
      </trkpt>
      <trkpt lat="59.9099874" lon="17.843334">
        <ele>8.78918</ele>
        <time>2013-04-09T16:55:46Z</time>
      </trkpt>
      <trkpt lat="59.9099377" lon="17.8432905">
        <ele>8.78918</ele>
        <time>2013-04-09T16:55:47Z</time>
      </trkpt>
      <trkpt lat="59.90989" lon="17.8432443">
        <ele>9.2699</ele>
        <time>2013-04-09T16:55:48Z</time>
      </trkpt>
      <trkpt lat="59.9098421" lon="17.8431956">
        <ele>8.78918</ele>
        <time>2013-04-09T16:55:49Z</time>
      </trkpt>
      <trkpt lat="59.9097953" lon="17.8431423">
        <ele>9.2699</ele>
        <time>2013-04-09T16:55:50Z</time>
      </trkpt>
      <trkpt lat="59.9097508" lon="17.8430859">
        <ele>9.75061</ele>
        <time>2013-04-09T16:55:51Z</time>
      </trkpt>
      <trkpt lat="59.9097061" lon="17.8430335">
        <ele>10.2312</ele>
        <time>2013-04-09T16:55:52Z</time>
      </trkpt>
      <trkpt lat="59.9096642" lon="17.8429759">
        <ele>9.75061</ele>
        <time>2013-04-09T16:55:53Z</time>
      </trkpt>
      <trkpt lat="59.909631" lon="17.8428999">
        <ele>10.2312</ele>
        <time>2013-04-09T16:55:54Z</time>
      </trkpt>
      <trkpt lat="59.9096094" lon="17.8428056">
        <ele>10.2312</ele>
        <time>2013-04-09T16:55:55Z</time>
      </trkpt>
      <trkpt lat="59.9096026" lon="17.8427021">
        <ele>10.7118</ele>
        <time>2013-04-09T16:55:56Z</time>
      </trkpt>
      <trkpt lat="59.9096062" lon="17.8425942">
        <ele>10.7118</ele>
        <time>2013-04-09T16:55:57Z</time>
      </trkpt>
      <trkpt lat="59.9096158" lon="17.8424866">
        <ele>10.7118</ele>
        <time>2013-04-09T16:55:58Z</time>
      </trkpt>
      <trkpt lat="59.9096261" lon="17.8423785">
        <ele>11.1925</ele>
        <time>2013-04-09T16:55:59Z</time>
      </trkpt>
      <trkpt lat="59.9096361" lon="17.8422648">
        <ele>11.1925</ele>
        <time>2013-04-09T16:56:00Z</time>
      </trkpt>
      <trkpt lat="59.9096481" lon="17.8421446">
        <ele>11.6732</ele>
        <time>2013-04-09T16:56:01Z</time>
      </trkpt>
      <trkpt lat="59.9096605" lon="17.8420235">
        <ele>12.6344</ele>
        <time>2013-04-09T16:56:02Z</time>
      </trkpt>
      <trkpt lat="59.9096713" lon="17.8418947">
        <ele>13.1151</ele>
        <time>2013-04-09T16:56:03Z</time>
      </trkpt>
      <trkpt lat="59.9096791" lon="17.8417525">
        <ele>13.5958</ele>
        <time>2013-04-09T16:56:04Z</time>
      </trkpt>
      <trkpt lat="59.9096828" lon="17.8416048">
        <ele>13.5958</ele>
        <time>2013-04-09T16:56:05Z</time>
      </trkpt>
      <trkpt lat="59.9096786" lon="17.8414532">
        <ele>13.5958</ele>
        <time>2013-04-09T16:56:06Z</time>
      </trkpt>
      <trkpt lat="59.9096689" lon="17.8413008">
        <ele>14.0764</ele>
        <time>2013-04-09T16:56:07Z</time>
      </trkpt>
      <trkpt lat="59.9096503" lon="17.8411473">
        <ele>14.0764</ele>
        <time>2013-04-09T16:56:08Z</time>
      </trkpt>
      <trkpt lat="59.9096252" lon="17.8409975">
        <ele>14.557</ele>
        <time>2013-04-09T16:56:09Z</time>
      </trkpt>
      <trkpt lat="59.9095972" lon="17.8408561">
        <ele>14.557</ele>
        <time>2013-04-09T16:56:10Z</time>
      </trkpt>
      <trkpt lat="59.9095657" lon="17.8407266">
        <ele>15.0377</ele>
        <time>2013-04-09T16:56:11Z</time>
      </trkpt>
      <trkpt lat="59.9095181" lon="17.8405842">
        <ele>15.0377</ele>
        <time>2013-04-09T16:56:12Z</time>
      </trkpt>
      <trkpt lat="59.9094564" lon="17.8404683">
        <ele>14.557</ele>
        <time>2013-04-09T16:56:13Z</time>
      </trkpt>
      <trkpt lat="59.9094047" lon="17.84035">
        <ele>14.557</ele>
        <time>2013-04-09T16:56:14Z</time>
      </trkpt>
      <trkpt lat="59.9093512" lon="17.8402234">
        <ele>14.0764</ele>
        <time>2013-04-09T16:56:15Z</time>
      </trkpt>
      <trkpt lat="59.9093078" lon="17.8401107">
        <ele>14.557</ele>
        <time>2013-04-09T16:56:16Z</time>
      </trkpt>
      <trkpt lat="59.9092677" lon="17.8400017">
        <ele>14.557</ele>
        <time>2013-04-09T16:56:17Z</time>
      </trkpt>
      <trkpt lat="59.9092299" lon="17.8398979">
        <ele>15.0377</ele>
        <time>2013-04-09T16:56:18Z</time>
      </trkpt>
      <trkpt lat="59.9091942" lon="17.8397988">
        <ele>15.5184</ele>
        <time>2013-04-09T16:56:19Z</time>
      </trkpt>
      <trkpt lat="59.9091617" lon="17.8397022">
        <ele>15.999</ele>
        <time>2013-04-09T16:56:20Z</time>
      </trkpt>
      <trkpt lat="59.9091295" lon="17.8396072">
        <ele>16.4797</ele>
        <time>2013-04-09T16:56:21Z</time>
      </trkpt>
      <trkpt lat="59.9090962" lon="17.839515">
        <ele>16.9604</ele>
        <time>2013-04-09T16:56:22Z</time>
      </trkpt>
      <trkpt lat="59.9090659" lon="17.839426">
        <ele>17.4412</ele>
        <time>2013-04-09T16:56:23Z</time>
      </trkpt>
      <trkpt lat="59.9090368" lon="17.8393426">
        <ele>17.4412</ele>
        <time>2013-04-09T16:56:24Z</time>
      </trkpt>
      <trkpt lat="59.9090077" lon="17.8392627">
        <ele>18.4023</ele>
        <time>2013-04-09T16:56:25Z</time>
      </trkpt>
      <trkpt lat="59.9089772" lon="17.8391878">
        <ele>18.8831</ele>
        <time>2013-04-09T16:56:26Z</time>
      </trkpt>
      <trkpt lat="59.9089426" lon="17.8391147">
        <ele>19.3638</ele>
        <time>2013-04-09T16:56:27Z</time>
      </trkpt>
      <trkpt lat="59.9089047" lon="17.8390403">
        <ele>19.3638</ele>
        <time>2013-04-09T16:56:28Z</time>
      </trkpt>
      <trkpt lat="59.9088719" lon="17.8389733">
        <ele>19.3638</ele>
        <time>2013-04-09T16:56:29Z</time>
      </trkpt>
      <trkpt lat="59.9088353" lon="17.8389108">
        <ele>18.8831</ele>
        <time>2013-04-09T16:56:30Z</time>
      </trkpt>
      <trkpt lat="59.9087944" lon="17.8388532">
        <ele>18.4023</ele>
        <time>2013-04-09T16:56:31Z</time>
      </trkpt>
      <trkpt lat="59.9087556" lon="17.8388027">
        <ele>17.9218</ele>
        <time>2013-04-09T16:56:32Z</time>
      </trkpt>
      <trkpt lat="59.9087127" lon="17.8387582">
        <ele>17.9218</ele>
        <time>2013-04-09T16:56:33Z</time>
      </trkpt>
      <trkpt lat="59.9086706" lon="17.8387185">
        <ele>18.4023</ele>
        <time>2013-04-09T16:56:34Z</time>
      </trkpt>
      <trkpt lat="59.9086285" lon="17.8386831">
        <ele>18.4023</ele>
        <time>2013-04-09T16:56:35Z</time>
      </trkpt>
      <trkpt lat="59.9085857" lon="17.8386561">
        <ele>18.4023</ele>
        <time>2013-04-09T16:56:36Z</time>
      </trkpt>
      <trkpt lat="59.9085419" lon="17.8386309">
        <ele>18.8831</ele>
        <time>2013-04-09T16:56:37Z</time>
      </trkpt>
      <trkpt lat="59.9084997" lon="17.8386082">
        <ele>18.8831</ele>
        <time>2013-04-09T16:56:38Z</time>
      </trkpt>
      <trkpt lat="59.9084568" lon="17.8385922">
        <ele>18.8831</ele>
        <time>2013-04-09T16:56:39Z</time>
      </trkpt>
      <trkpt lat="59.9084145" lon="17.8385836">
        <ele>18.8831</ele>
        <time>2013-04-09T16:56:40Z</time>
      </trkpt>
      <trkpt lat="59.9083689" lon="17.8385798">
        <ele>19.3638</ele>
        <time>2013-04-09T16:56:41Z</time>
      </trkpt>
      <trkpt lat="59.9083236" lon="17.8385808">
        <ele>19.3638</ele>
        <time>2013-04-09T16:56:42Z</time>
      </trkpt>
      <trkpt lat="59.9082795" lon="17.8385849">
        <ele>19.8444</ele>
        <time>2013-04-09T16:56:43Z</time>
      </trkpt>
      <trkpt lat="59.9082394" lon="17.8385962">
        <ele>19.8444</ele>
        <time>2013-04-09T16:56:44Z</time>
      </trkpt>
      <trkpt lat="59.9082007" lon="17.8386107">
        <ele>19.3638</ele>
        <time>2013-04-09T16:56:45Z</time>
      </trkpt>
      <trkpt lat="59.9081604" lon="17.8386268">
        <ele>19.8444</ele>
        <time>2013-04-09T16:56:46Z</time>
      </trkpt>
      <trkpt lat="59.9081257" lon="17.8386464">
        <ele>19.8444</ele>
        <time>2013-04-09T16:56:47Z</time>
      </trkpt>
      <trkpt lat="59.9080923" lon="17.8386708">
        <ele>19.8444</ele>
        <time>2013-04-09T16:56:48Z</time>
      </trkpt>
      <trkpt lat="59.9080604" lon="17.8387027">
        <ele>19.8444</ele>
        <time>2013-04-09T16:56:49Z</time>
      </trkpt>
      <trkpt lat="59.9080301" lon="17.8387387">
        <ele>20.325</ele>
        <time>2013-04-09T16:56:50Z</time>
      </trkpt>
      <trkpt lat="59.907998" lon="17.8387743">
        <ele>20.325</ele>
        <time>2013-04-09T16:56:51Z</time>
      </trkpt>
      <trkpt lat="59.9079661" lon="17.8388102">
        <ele>20.8057</ele>
        <time>2013-04-09T16:56:52Z</time>
      </trkpt>
      <trkpt lat="59.9079367" lon="17.8388473">
        <ele>21.2864</ele>
        <time>2013-04-09T16:56:53Z</time>
      </trkpt>
      <trkpt lat="59.9079071" lon="17.83888">
        <ele>21.2864</ele>
        <time>2013-04-09T16:56:54Z</time>
      </trkpt>
      <trkpt lat="59.9078781" lon="17.8389138">
        <ele>21.767</ele>
        <time>2013-04-09T16:56:55Z</time>
      </trkpt>
      <trkpt lat="59.9078499" lon="17.8389477">
        <ele>21.767</ele>
        <time>2013-04-09T16:56:56Z</time>
      </trkpt>
      <trkpt lat="59.9078233" lon="17.8389859">
        <ele>22.7283</ele>
        <time>2013-04-09T16:56:57Z</time>
      </trkpt>
      <trkpt lat="59.9077971" lon="17.8390256">
        <ele>23.209</ele>
        <time>2013-04-09T16:56:58Z</time>
      </trkpt>
      <trkpt lat="59.9077704" lon="17.8390698">
        <ele>24.1703</ele>
        <time>2013-04-09T16:56:59Z</time>
      </trkpt>
      <trkpt lat="59.9077454" lon="17.8391112">
        <ele>25.1317</ele>
        <time>2013-04-09T16:57:00Z</time>
      </trkpt>
      <trkpt lat="59.9077194" lon="17.8391472">
        <ele>25.6123</ele>
        <time>2013-04-09T16:57:01Z</time>
      </trkpt>
      <trkpt lat="59.9076916" lon="17.83918">
        <ele>26.0929</ele>
        <time>2013-04-09T16:57:02Z</time>
      </trkpt>
      <trkpt lat="59.9076626" lon="17.8392126">
        <ele>25.6123</ele>
        <time>2013-04-09T16:57:03Z</time>
      </trkpt>
      <trkpt lat="59.9076356" lon="17.8392453">
        <ele>26.0929</ele>
        <time>2013-04-09T16:57:04Z</time>
      </trkpt>
      <trkpt lat="59.9076096" lon="17.83928">
        <ele>26.5736</ele>
        <time>2013-04-09T16:57:05Z</time>
      </trkpt>
      <trkpt lat="59.9075802" lon="17.8393131">
        <ele>26.5736</ele>
        <time>2013-04-09T16:57:06Z</time>
      </trkpt>
      <trkpt lat="59.9075484" lon="17.8393458">
        <ele>26.5736</ele>
        <time>2013-04-09T16:57:07Z</time>
      </trkpt>
      <trkpt lat="59.907517" lon="17.8393827">
        <ele>26.0929</ele>
        <time>2013-04-09T16:57:08Z</time>
      </trkpt>
      <trkpt lat="59.907485" lon="17.8394272">
        <ele>25.6123</ele>
        <time>2013-04-09T16:57:09Z</time>
      </trkpt>
      <trkpt lat="59.9074449" lon="17.8394756">
        <ele>25.6123</ele>
        <time>2013-04-09T16:57:10Z</time>
      </trkpt>
      <trkpt lat="59.9073994" lon="17.8395235">
        <ele>25.1317</ele>
        <time>2013-04-09T16:57:11Z</time>
      </trkpt>
      <trkpt lat="59.9073507" lon="17.8395694">
        <ele>25.1317</ele>
        <time>2013-04-09T16:57:12Z</time>
      </trkpt>
      <trkpt lat="59.9072963" lon="17.8396188">
        <ele>24.651</ele>
        <time>2013-04-09T16:57:13Z</time>
      </trkpt>
      <trkpt lat="59.9072381" lon="17.8396715">
        <ele>24.651</ele>
        <time>2013-04-09T16:57:14Z</time>
      </trkpt>
      <trkpt lat="59.9071746" lon="17.8397234">
        <ele>24.1703</ele>
        <time>2013-04-09T16:57:15Z</time>
      </trkpt>
      <trkpt lat="59.9071076" lon="17.8397726">
        <ele>22.2476</ele>
        <time>2013-04-09T16:57:16Z</time>
      </trkpt>
      <trkpt lat="59.9070414" lon="17.8398238">
        <ele>21.2864</ele>
        <time>2013-04-09T16:57:17Z</time>
      </trkpt>
      <trkpt lat="59.9069704" lon="17.8398736">
        <ele>20.325</ele>
        <time>2013-04-09T16:57:18Z</time>
      </trkpt>
      <trkpt lat="59.9068983" lon="17.8399226">
        <ele>19.8444</ele>
        <time>2013-04-09T16:57:19Z</time>
      </trkpt>
      <trkpt lat="59.906826" lon="17.839972">
        <ele>18.8831</ele>
        <time>2013-04-09T16:57:20Z</time>
      </trkpt>
      <trkpt lat="59.906754" lon="17.8400247">
        <ele>18.4023</ele>
        <time>2013-04-09T16:57:21Z</time>
      </trkpt>
      <trkpt lat="59.9066825" lon="17.8400798">
        <ele>17.9218</ele>
        <time>2013-04-09T16:57:22Z</time>
      </trkpt>
      <trkpt lat="59.9066111" lon="17.8401373">
        <ele>17.4412</ele>
        <time>2013-04-09T16:57:23Z</time>
      </trkpt>
      <trkpt lat="59.9065379" lon="17.8401993">
        <ele>16.9604</ele>
        <time>2013-04-09T16:57:24Z</time>
      </trkpt>
      <trkpt lat="59.9064658" lon="17.840262">
        <ele>15.999</ele>
        <time>2013-04-09T16:57:25Z</time>
      </trkpt>
      <trkpt lat="59.9063967" lon="17.8403331">
        <ele>15.999</ele>
        <time>2013-04-09T16:57:26Z</time>
      </trkpt>
      <trkpt lat="59.9063291" lon="17.8404088">
        <ele>15.5184</ele>
        <time>2013-04-09T16:57:27Z</time>
      </trkpt>
      <trkpt lat="59.9062511" lon="17.8404999">
        <ele>15.0377</ele>
        <time>2013-04-09T16:57:28Z</time>
      </trkpt>
      <trkpt lat="59.9061829" lon="17.8405914">
        <ele>15.0377</ele>
        <time>2013-04-09T16:57:29Z</time>
      </trkpt>
      <trkpt lat="59.9061184" lon="17.8406803">
        <ele>14.557</ele>
        <time>2013-04-09T16:57:30Z</time>
      </trkpt>
      <trkpt lat="59.9060535" lon="17.8407657">
        <ele>14.0764</ele>
        <time>2013-04-09T16:57:31Z</time>
      </trkpt>
      <trkpt lat="59.9059919" lon="17.8408512">
        <ele>13.1151</ele>
        <time>2013-04-09T16:57:32Z</time>
      </trkpt>
      <trkpt lat="59.9059281" lon="17.8409307">
        <ele>12.6344</ele>
        <time>2013-04-09T16:57:33Z</time>
      </trkpt>
      <trkpt lat="59.9058599" lon="17.841002">
        <ele>12.6344</ele>
        <time>2013-04-09T16:57:34Z</time>
      </trkpt>
      <trkpt lat="59.9057849" lon="17.8410747">
        <ele>12.6344</ele>
        <time>2013-04-09T16:57:35Z</time>
      </trkpt>
      <trkpt lat="59.9057097" lon="17.8411265">
        <ele>12.6344</ele>
        <time>2013-04-09T16:57:36Z</time>
      </trkpt>
      <trkpt lat="59.9056364" lon="17.8411659">
        <ele>12.1538</ele>
        <time>2013-04-09T16:57:37Z</time>
      </trkpt>
      <trkpt lat="59.9055647" lon="17.8411924">
        <ele>11.6732</ele>
        <time>2013-04-09T16:57:38Z</time>
      </trkpt>
      <trkpt lat="59.9054958" lon="17.8412194">
        <ele>10.7118</ele>
        <time>2013-04-09T16:57:39Z</time>
      </trkpt>
      <trkpt lat="59.9054285" lon="17.8412431">
        <ele>9.75061</ele>
        <time>2013-04-09T16:57:40Z</time>
      </trkpt>
      <trkpt lat="59.9053642" lon="17.841265">
        <ele>9.75061</ele>
        <time>2013-04-09T16:57:41Z</time>
      </trkpt>
      <trkpt lat="59.9053044" lon="17.8412847">
        <ele>9.75061</ele>
        <time>2013-04-09T16:57:42Z</time>
      </trkpt>
      <trkpt lat="59.9052438" lon="17.8413028">
        <ele>10.2312</ele>
        <time>2013-04-09T16:57:43Z</time>
      </trkpt>
      <trkpt lat="59.9051827" lon="17.8413176">
        <ele>10.2312</ele>
        <time>2013-04-09T16:57:44Z</time>
      </trkpt>
      <trkpt lat="59.9051249" lon="17.8413328">
        <ele>10.2312</ele>
        <time>2013-04-09T16:57:45Z</time>
      </trkpt>
      <trkpt lat="59.9050725" lon="17.8413501">
        <ele>10.7118</ele>
        <time>2013-04-09T16:57:46Z</time>
      </trkpt>
      <trkpt lat="59.9050217" lon="17.8413721">
        <ele>11.6732</ele>
        <time>2013-04-09T16:57:47Z</time>
      </trkpt>
      <trkpt lat="59.9049756" lon="17.8413899">
        <ele>11.6732</ele>
        <time>2013-04-09T16:57:48Z</time>
      </trkpt>
      <trkpt lat="59.9049322" lon="17.8414064">
        <ele>11.6732</ele>
        <time>2013-04-09T16:57:49Z</time>
      </trkpt>
      <trkpt lat="59.9048895" lon="17.8414143">
        <ele>11.6732</ele>
        <time>2013-04-09T16:57:50Z</time>
      </trkpt>
      <trkpt lat="59.9048506" lon="17.8414261">
        <ele>11.1925</ele>
        <time>2013-04-09T16:57:51Z</time>
      </trkpt>
      <trkpt lat="59.9048102" lon="17.8414484">
        <ele>11.1925</ele>
        <time>2013-04-09T16:57:52Z</time>
      </trkpt>
      <trkpt lat="59.9047741" lon="17.8414655">
        <ele>10.7118</ele>
        <time>2013-04-09T16:57:53Z</time>
      </trkpt>
      <trkpt lat="59.9047404" lon="17.8414857">
        <ele>10.2312</ele>
        <time>2013-04-09T16:57:54Z</time>
      </trkpt>
      <trkpt lat="59.9047014" lon="17.8415062">
        <ele>10.2312</ele>
        <time>2013-04-09T16:57:55Z</time>
      </trkpt>
      <trkpt lat="59.9046605" lon="17.8415275">
        <ele>9.2699</ele>
        <time>2013-04-09T16:57:56Z</time>
      </trkpt>
      <trkpt lat="59.9046218" lon="17.8415494">
        <ele>9.2699</ele>
        <time>2013-04-09T16:57:57Z</time>
      </trkpt>
      <trkpt lat="59.9045865" lon="17.8415752">
        <ele>8.78918</ele>
        <time>2013-04-09T16:57:58Z</time>
      </trkpt>
      <trkpt lat="59.9045508" lon="17.8415984">
        <ele>8.30859</ele>
        <time>2013-04-09T16:57:59Z</time>
      </trkpt>
      <trkpt lat="59.9045141" lon="17.841622">
        <ele>7.34717</ele>
        <time>2013-04-09T16:58:00Z</time>
      </trkpt>
      <trkpt lat="59.9044756" lon="17.8416481">
        <ele>6.86646</ele>
        <time>2013-04-09T16:58:01Z</time>
      </trkpt>
      <trkpt lat="59.9044346" lon="17.8416707">
        <ele>5.90527</ele>
        <time>2013-04-09T16:58:02Z</time>
      </trkpt>
      <trkpt lat="59.9043928" lon="17.8416943">
        <ele>4.94385</ele>
        <time>2013-04-09T16:58:03Z</time>
      </trkpt>
      <trkpt lat="59.9043457" lon="17.8417271">
        <ele>6.38586</ele>
        <time>2013-04-09T16:58:04Z</time>
      </trkpt>
      <trkpt lat="59.9042977" lon="17.8417541">
        <ele>6.86646</ele>
        <time>2013-04-09T16:58:05Z</time>
      </trkpt>
      <trkpt lat="59.9042498" lon="17.8417773">
        <ele>6.86646</ele>
        <time>2013-04-09T16:58:06Z</time>
      </trkpt>
      <trkpt lat="59.9042046" lon="17.8417978">
        <ele>6.86646</ele>
        <time>2013-04-09T16:58:07Z</time>
      </trkpt>
      <trkpt lat="59.9041604" lon="17.8418163">
        <ele>7.82788</ele>
        <time>2013-04-09T16:58:08Z</time>
      </trkpt>
      <trkpt lat="59.9041174" lon="17.8418225">
        <ele>7.34717</ele>
        <time>2013-04-09T16:58:09Z</time>
      </trkpt>
      <trkpt lat="59.904065" lon="17.8418592">
        <ele>10.2312</ele>
        <time>2013-04-09T16:58:10Z</time>
      </trkpt>
      <trkpt lat="59.9040178" lon="17.8418799">
        <ele>12.1538</ele>
        <time>2013-04-09T16:58:11Z</time>
      </trkpt>
      <trkpt lat="59.9039726" lon="17.8418932">
        <ele>13.1151</ele>
        <time>2013-04-09T16:58:12Z</time>
      </trkpt>
      <trkpt lat="59.9039335" lon="17.8419032">
        <ele>13.5958</ele>
        <time>2013-04-09T16:58:13Z</time>
      </trkpt>
      <trkpt lat="59.9038973" lon="17.8419001">
        <ele>14.0764</ele>
        <time>2013-04-09T16:58:14Z</time>
      </trkpt>
      <trkpt lat="59.9038619" lon="17.8418845">
        <ele>14.0764</ele>
        <time>2013-04-09T16:58:15Z</time>
      </trkpt>
      <trkpt lat="59.9038263" lon="17.8418721">
        <ele>14.557</ele>
        <time>2013-04-09T16:58:16Z</time>
      </trkpt>
      <trkpt lat="59.9037909" lon="17.8418572">
        <ele>14.557</ele>
        <time>2013-04-09T16:58:17Z</time>
      </trkpt>
      <trkpt lat="59.9037562" lon="17.8418356">
        <ele>14.557</ele>
        <time>2013-04-09T16:58:18Z</time>
      </trkpt>
      <trkpt lat="59.9037286" lon="17.8418119">
        <ele>15.0377</ele>
        <time>2013-04-09T16:58:19Z</time>
      </trkpt>
      <trkpt lat="59.9037025" lon="17.8417887">
        <ele>15.5184</ele>
        <time>2013-04-09T16:58:20Z</time>
      </trkpt>
      <trkpt lat="59.9036748" lon="17.8417636">
        <ele>15.999</ele>
        <time>2013-04-09T16:58:21Z</time>
      </trkpt>
      <trkpt lat="59.9036468" lon="17.8417346">
        <ele>15.999</ele>
        <time>2013-04-09T16:58:22Z</time>
      </trkpt>
      <trkpt lat="59.9036184" lon="17.8416986">
        <ele>16.4797</ele>
        <time>2013-04-09T16:58:23Z</time>
      </trkpt>
      <trkpt lat="59.9035895" lon="17.8416582">
        <ele>16.9604</ele>
        <time>2013-04-09T16:58:24Z</time>
      </trkpt>
      <trkpt lat="59.9035599" lon="17.8416187">
        <ele>17.9218</ele>
        <time>2013-04-09T16:58:25Z</time>
      </trkpt>
      <trkpt lat="59.9035299" lon="17.8415748">
        <ele>18.4023</ele>
        <time>2013-04-09T16:58:26Z</time>
      </trkpt>
      <trkpt lat="59.9034988" lon="17.8415297">
        <ele>18.4023</ele>
        <time>2013-04-09T16:58:27Z</time>
      </trkpt>
      <trkpt lat="59.9034688" lon="17.8414852">
        <ele>18.4023</ele>
        <time>2013-04-09T16:58:28Z</time>
      </trkpt>
      <trkpt lat="59.9034387" lon="17.8414397">
        <ele>18.4023</ele>
        <time>2013-04-09T16:58:29Z</time>
      </trkpt>
      <trkpt lat="59.9034082" lon="17.8413955">
        <ele>18.4023</ele>
        <time>2013-04-09T16:58:30Z</time>
      </trkpt>
      <trkpt lat="59.9033764" lon="17.8413552">
        <ele>18.4023</ele>
        <time>2013-04-09T16:58:31Z</time>
      </trkpt>
      <trkpt lat="59.9033419" lon="17.8413199">
        <ele>18.4023</ele>
        <time>2013-04-09T16:58:32Z</time>
      </trkpt>
      <trkpt lat="59.903303" lon="17.8412881">
        <ele>18.4023</ele>
        <time>2013-04-09T16:58:33Z</time>
      </trkpt>
      <trkpt lat="59.9032613" lon="17.8412618">
        <ele>17.9218</ele>
        <time>2013-04-09T16:58:34Z</time>
      </trkpt>
      <trkpt lat="59.9032201" lon="17.8412395">
        <ele>17.4412</ele>
        <time>2013-04-09T16:58:35Z</time>
      </trkpt>
      <trkpt lat="59.9031765" lon="17.8412234">
        <ele>17.4412</ele>
        <time>2013-04-09T16:58:36Z</time>
      </trkpt>
      <trkpt lat="59.9031314" lon="17.8412175">
        <ele>16.9604</ele>
        <time>2013-04-09T16:58:37Z</time>
      </trkpt>
      <trkpt lat="59.9030827" lon="17.8412173">
        <ele>16.9604</ele>
        <time>2013-04-09T16:58:38Z</time>
      </trkpt>
      <trkpt lat="59.9030357" lon="17.8412237">
        <ele>16.4797</ele>
        <time>2013-04-09T16:58:39Z</time>
      </trkpt>
      <trkpt lat="59.9029879" lon="17.8412366">
        <ele>16.4797</ele>
        <time>2013-04-09T16:58:40Z</time>
      </trkpt>
      <trkpt lat="59.9029383" lon="17.8412526">
        <ele>15.999</ele>
        <time>2013-04-09T16:58:41Z</time>
      </trkpt>
      <trkpt lat="59.9028843" lon="17.8412711">
        <ele>16.9604</ele>
        <time>2013-04-09T16:58:42Z</time>
      </trkpt>
      <trkpt lat="59.9028291" lon="17.841292">
        <ele>16.9604</ele>
        <time>2013-04-09T16:58:43Z</time>
      </trkpt>
      <trkpt lat="59.902774" lon="17.8413121">
        <ele>16.9604</ele>
        <time>2013-04-09T16:58:44Z</time>
      </trkpt>
      <trkpt lat="59.9027182" lon="17.8413342">
        <ele>16.4797</ele>
        <time>2013-04-09T16:58:45Z</time>
      </trkpt>
      <trkpt lat="59.9026634" lon="17.8413604">
        <ele>16.9604</ele>
        <time>2013-04-09T16:58:46Z</time>
      </trkpt>
      <trkpt lat="59.9026108" lon="17.841384">
        <ele>16.9604</ele>
        <time>2013-04-09T16:58:47Z</time>
      </trkpt>
      <trkpt lat="59.902566" lon="17.8414107">
        <ele>16.9604</ele>
        <time>2013-04-09T16:58:48Z</time>
      </trkpt>
      <trkpt lat="59.9025229" lon="17.8414354">
        <ele>16.9604</ele>
        <time>2013-04-09T16:58:49Z</time>
      </trkpt>
      <trkpt lat="59.9024797" lon="17.841455">
        <ele>16.9604</ele>
        <time>2013-04-09T16:58:50Z</time>
      </trkpt>
      <trkpt lat="59.9024373" lon="17.8414791">
        <ele>17.4412</ele>
        <time>2013-04-09T16:58:51Z</time>
      </trkpt>
      <trkpt lat="59.9023952" lon="17.8414917">
        <ele>17.9218</ele>
        <time>2013-04-09T16:58:52Z</time>
      </trkpt>
      <trkpt lat="59.9023543" lon="17.8415027">
        <ele>18.8831</ele>
        <time>2013-04-09T16:58:53Z</time>
      </trkpt>
      <trkpt lat="59.9023131" lon="17.8415259">
        <ele>20.325</ele>
        <time>2013-04-09T16:58:54Z</time>
      </trkpt>
      <trkpt lat="59.9022741" lon="17.8415421">
        <ele>20.8057</ele>
        <time>2013-04-09T16:58:55Z</time>
      </trkpt>
      <trkpt lat="59.9022339" lon="17.8415596">
        <ele>21.767</ele>
        <time>2013-04-09T16:58:56Z</time>
      </trkpt>
      <trkpt lat="59.9021965" lon="17.8415706">
        <ele>22.2476</ele>
        <time>2013-04-09T16:58:57Z</time>
      </trkpt>
      <trkpt lat="59.902158" lon="17.8415732">
        <ele>22.7283</ele>
        <time>2013-04-09T16:58:58Z</time>
      </trkpt>
      <trkpt lat="59.9021226" lon="17.8415727">
        <ele>22.2476</ele>
        <time>2013-04-09T16:58:59Z</time>
      </trkpt>
      <trkpt lat="59.9020883" lon="17.8415747">
        <ele>22.2476</ele>
        <time>2013-04-09T16:59:00Z</time>
      </trkpt>
      <trkpt lat="59.9020479" lon="17.8415696">
        <ele>22.2476</ele>
        <time>2013-04-09T16:59:01Z</time>
      </trkpt>
      <trkpt lat="59.9020079" lon="17.8415587">
        <ele>21.767</ele>
        <time>2013-04-09T16:59:02Z</time>
      </trkpt>
      <trkpt lat="59.9019663" lon="17.8415376">
        <ele>20.8057</ele>
        <time>2013-04-09T16:59:03Z</time>
      </trkpt>
      <trkpt lat="59.9019281" lon="17.8415205">
        <ele>21.2864</ele>
        <time>2013-04-09T16:59:04Z</time>
      </trkpt>
      <trkpt lat="59.9018881" lon="17.8415077">
        <ele>20.8057</ele>
        <time>2013-04-09T16:59:05Z</time>
      </trkpt>
      <trkpt lat="59.9018503" lon="17.8414966">
        <ele>20.325</ele>
        <time>2013-04-09T16:59:06Z</time>
      </trkpt>
      <trkpt lat="59.9018096" lon="17.8414855">
        <ele>19.8444</ele>
        <time>2013-04-09T16:59:07Z</time>
      </trkpt>
      <trkpt lat="59.9017685" lon="17.8414736">
        <ele>18.8831</ele>
        <time>2013-04-09T16:59:08Z</time>
      </trkpt>
      <trkpt lat="59.9017255" lon="17.8414639">
        <ele>18.4023</ele>
        <time>2013-04-09T16:59:09Z</time>
      </trkpt>
      <trkpt lat="59.9016805" lon="17.8414566">
        <ele>18.8831</ele>
        <time>2013-04-09T16:59:10Z</time>
      </trkpt>
      <trkpt lat="59.9016346" lon="17.8414509">
        <ele>18.8831</ele>
        <time>2013-04-09T16:59:11Z</time>
      </trkpt>
      <trkpt lat="59.9015894" lon="17.8414464">
        <ele>19.3638</ele>
        <time>2013-04-09T16:59:12Z</time>
      </trkpt>
      <trkpt lat="59.9015449" lon="17.8414468">
        <ele>19.8444</ele>
        <time>2013-04-09T16:59:13Z</time>
      </trkpt>
      <trkpt lat="59.9014967" lon="17.8414397">
        <ele>20.325</ele>
        <time>2013-04-09T16:59:14Z</time>
      </trkpt>
      <trkpt lat="59.90145" lon="17.8414308">
        <ele>20.8057</ele>
        <time>2013-04-09T16:59:15Z</time>
      </trkpt>
      <trkpt lat="59.9014056" lon="17.8414276">
        <ele>21.2864</ele>
        <time>2013-04-09T16:59:16Z</time>
      </trkpt>
      <trkpt lat="59.9013676" lon="17.8414376">
        <ele>21.767</ele>
        <time>2013-04-09T16:59:17Z</time>
      </trkpt>
      <trkpt lat="59.9013235" lon="17.8414427">
        <ele>22.2476</ele>
        <time>2013-04-09T16:59:18Z</time>
      </trkpt>
      <trkpt lat="59.9012771" lon="17.8414435">
        <ele>23.209</ele>
        <time>2013-04-09T16:59:19Z</time>
      </trkpt>
      <trkpt lat="59.90123" lon="17.8414421">
        <ele>23.6896</ele>
        <time>2013-04-09T16:59:20Z</time>
      </trkpt>
      <trkpt lat="59.9011833" lon="17.84144">
        <ele>23.6896</ele>
        <time>2013-04-09T16:59:21Z</time>
      </trkpt>
      <trkpt lat="59.9011354" lon="17.8414338">
        <ele>23.6896</ele>
        <time>2013-04-09T16:59:22Z</time>
      </trkpt>
      <trkpt lat="59.9010876" lon="17.8414221">
        <ele>23.6896</ele>
        <time>2013-04-09T16:59:23Z</time>
      </trkpt>
      <trkpt lat="59.9010396" lon="17.8414125">
        <ele>23.6896</ele>
        <time>2013-04-09T16:59:24Z</time>
      </trkpt>
      <trkpt lat="59.9009921" lon="17.8414034">
        <ele>24.1703</ele>
        <time>2013-04-09T16:59:25Z</time>
      </trkpt>
      <trkpt lat="59.9009448" lon="17.8413964">
        <ele>23.6896</ele>
        <time>2013-04-09T16:59:26Z</time>
      </trkpt>
      <trkpt lat="59.9008948" lon="17.8413931">
        <ele>24.651</ele>
        <time>2013-04-09T16:59:27Z</time>
      </trkpt>
      <trkpt lat="59.9008455" lon="17.8413862">
        <ele>25.6123</ele>
        <time>2013-04-09T16:59:28Z</time>
      </trkpt>
      <trkpt lat="59.9007962" lon="17.8413788">
        <ele>26.0929</ele>
        <time>2013-04-09T16:59:29Z</time>
      </trkpt>
      <trkpt lat="59.9007491" lon="17.8413686">
        <ele>26.0929</ele>
        <time>2013-04-09T16:59:30Z</time>
      </trkpt>
      <trkpt lat="59.9007016" lon="17.8413576">
        <ele>26.0929</ele>
        <time>2013-04-09T16:59:31Z</time>
      </trkpt>
      <trkpt lat="59.9006544" lon="17.8413477">
        <ele>26.0929</ele>
        <time>2013-04-09T16:59:32Z</time>
      </trkpt>
      <trkpt lat="59.9006082" lon="17.8413401">
        <ele>26.0929</ele>
        <time>2013-04-09T16:59:33Z</time>
      </trkpt>
      <trkpt lat="59.9005613" lon="17.8413384">
        <ele>26.5736</ele>
        <time>2013-04-09T16:59:34Z</time>
      </trkpt>
      <trkpt lat="59.9005144" lon="17.8413361">
        <ele>27.5349</ele>
        <time>2013-04-09T16:59:35Z</time>
      </trkpt>
      <trkpt lat="59.9004685" lon="17.8413321">
        <ele>28.0155</ele>
        <time>2013-04-09T16:59:36Z</time>
      </trkpt>
      <trkpt lat="59.9004218" lon="17.8413335">
        <ele>28.4962</ele>
        <time>2013-04-09T16:59:37Z</time>
      </trkpt>
      <trkpt lat="59.9003768" lon="17.841336">
        <ele>28.9769</ele>
        <time>2013-04-09T16:59:38Z</time>
      </trkpt>
      <trkpt lat="59.9003315" lon="17.8413349">
        <ele>29.4575</ele>
        <time>2013-04-09T16:59:39Z</time>
      </trkpt>
      <trkpt lat="59.9002866" lon="17.8413337">
        <ele>29.4575</ele>
        <time>2013-04-09T16:59:40Z</time>
      </trkpt>
      <trkpt lat="59.900244" lon="17.8413375">
        <ele>29.9381</ele>
        <time>2013-04-09T16:59:41Z</time>
      </trkpt>
      <trkpt lat="59.9002018" lon="17.8413442">
        <ele>30.4188</ele>
        <time>2013-04-09T16:59:42Z</time>
      </trkpt>
      <trkpt lat="59.9001627" lon="17.8413509">
        <ele>30.8995</ele>
        <time>2013-04-09T16:59:43Z</time>
      </trkpt>
      <trkpt lat="59.9001229" lon="17.8413523">
        <ele>31.3801</ele>
        <time>2013-04-09T16:59:44Z</time>
      </trkpt>
      <trkpt lat="59.9000841" lon="17.8413537">
        <ele>31.3801</ele>
        <time>2013-04-09T16:59:45Z</time>
      </trkpt>
      <trkpt lat="59.9000446" lon="17.8413572">
        <ele>31.3801</ele>
        <time>2013-04-09T16:59:46Z</time>
      </trkpt>
      <trkpt lat="59.9000058" lon="17.8413608">
        <ele>31.3801</ele>
        <time>2013-04-09T16:59:47Z</time>
      </trkpt>
      <trkpt lat="59.8999676" lon="17.8413635">
        <ele>30.8995</ele>
        <time>2013-04-09T16:59:48Z</time>
      </trkpt>
      <trkpt lat="59.8999298" lon="17.8413665">
        <ele>30.8995</ele>
        <time>2013-04-09T16:59:49Z</time>
      </trkpt>
      <trkpt lat="59.8998919" lon="17.841366">
        <ele>30.8995</ele>
        <time>2013-04-09T16:59:50Z</time>
      </trkpt>
      <trkpt lat="59.8998551" lon="17.8413687">
        <ele>30.8995</ele>
        <time>2013-04-09T16:59:51Z</time>
      </trkpt>
      <trkpt lat="59.8998193" lon="17.8413753">
        <ele>30.4188</ele>
        <time>2013-04-09T16:59:52Z</time>
      </trkpt>
      <trkpt lat="59.8997843" lon="17.8413857">
        <ele>30.4188</ele>
        <time>2013-04-09T16:59:53Z</time>
      </trkpt>
      <trkpt lat="59.8997513" lon="17.841394">
        <ele>30.4188</ele>
        <time>2013-04-09T16:59:54Z</time>
      </trkpt>
      <trkpt lat="59.899721" lon="17.8414007">
        <ele>29.9381</ele>
        <time>2013-04-09T16:59:55Z</time>
      </trkpt>
      <trkpt lat="59.8996892" lon="17.8414112">
        <ele>30.4188</ele>
        <time>2013-04-09T16:59:56Z</time>
      </trkpt>
      <trkpt lat="59.8996581" lon="17.8414223">
        <ele>30.4188</ele>
        <time>2013-04-09T16:59:57Z</time>
      </trkpt>
      <trkpt lat="59.8996263" lon="17.8414317">
        <ele>30.8995</ele>
        <time>2013-04-09T16:59:58Z</time>
      </trkpt>
      <trkpt lat="59.8995956" lon="17.8414422">
        <ele>30.8995</ele>
        <time>2013-04-09T16:59:59Z</time>
      </trkpt>
      <trkpt lat="59.8995654" lon="17.841455">
        <ele>31.8607</ele>
        <time>2013-04-09T17:00:00Z</time>
      </trkpt>
      <trkpt lat="59.8995364" lon="17.8414694">
        <ele>31.8607</ele>
        <time>2013-04-09T17:00:01Z</time>
      </trkpt>
      <trkpt lat="59.8995089" lon="17.8414894">
        <ele>32.3416</ele>
        <time>2013-04-09T17:00:02Z</time>
      </trkpt>
      <trkpt lat="59.8994809" lon="17.8415096">
        <ele>31.3801</ele>
        <time>2013-04-09T17:00:03Z</time>
      </trkpt>
      <trkpt lat="59.8994506" lon="17.8415314">
        <ele>30.8995</ele>
        <time>2013-04-09T17:00:04Z</time>
      </trkpt>
      <trkpt lat="59.8994195" lon="17.8415554">
        <ele>30.8995</ele>
        <time>2013-04-09T17:00:05Z</time>
      </trkpt>
      <trkpt lat="59.899389" lon="17.8415824">
        <ele>31.3801</ele>
        <time>2013-04-09T17:00:06Z</time>
      </trkpt>
      <trkpt lat="59.8993567" lon="17.8416152">
        <ele>31.3801</ele>
        <time>2013-04-09T17:00:07Z</time>
      </trkpt>
      <trkpt lat="59.8993225" lon="17.8416513">
        <ele>31.8607</ele>
        <time>2013-04-09T17:00:08Z</time>
      </trkpt>
      <trkpt lat="59.8992884" lon="17.8416878">
        <ele>31.8607</ele>
        <time>2013-04-09T17:00:09Z</time>
      </trkpt>
      <trkpt lat="59.8992531" lon="17.8417313">
        <ele>31.8607</ele>
        <time>2013-04-09T17:00:10Z</time>
      </trkpt>
      <trkpt lat="59.8992162" lon="17.8417731">
        <ele>32.3416</ele>
        <time>2013-04-09T17:00:11Z</time>
      </trkpt>
      <trkpt lat="59.8991773" lon="17.8418127">
        <ele>32.3416</ele>
        <time>2013-04-09T17:00:12Z</time>
      </trkpt>
      <trkpt lat="59.8991362" lon="17.8418434">
        <ele>32.3416</ele>
        <time>2013-04-09T17:00:13Z</time>
      </trkpt>
      <trkpt lat="59.8990956" lon="17.8418737">
        <ele>32.3416</ele>
        <time>2013-04-09T17:00:14Z</time>
      </trkpt>
      <trkpt lat="59.8990526" lon="17.8419031">
        <ele>32.8223</ele>
        <time>2013-04-09T17:00:15Z</time>
      </trkpt>
      <trkpt lat="59.8990064" lon="17.8419281">
        <ele>33.7834</ele>
        <time>2013-04-09T17:00:16Z</time>
      </trkpt>
      <trkpt lat="59.8989579" lon="17.841951">
        <ele>34.2642</ele>
        <time>2013-04-09T17:00:17Z</time>
      </trkpt>
      <trkpt lat="59.898909" lon="17.8419784">
        <ele>34.2642</ele>
        <time>2013-04-09T17:00:18Z</time>
      </trkpt>
      <trkpt lat="59.8988608" lon="17.8420107">
        <ele>34.2642</ele>
        <time>2013-04-09T17:00:19Z</time>
      </trkpt>
      <trkpt lat="59.8988086" lon="17.8420435">
        <ele>34.2642</ele>
        <time>2013-04-09T17:00:20Z</time>
      </trkpt>
      <trkpt lat="59.8987495" lon="17.8420787">
        <ele>34.7449</ele>
        <time>2013-04-09T17:00:21Z</time>
      </trkpt>
      <trkpt lat="59.8986868" lon="17.8421058">
        <ele>35.2255</ele>
        <time>2013-04-09T17:00:22Z</time>
      </trkpt>
      <trkpt lat="59.8986223" lon="17.8421364">
        <ele>35.2255</ele>
        <time>2013-04-09T17:00:23Z</time>
      </trkpt>
      <trkpt lat="59.8985559" lon="17.8421724">
        <ele>35.2255</ele>
        <time>2013-04-09T17:00:24Z</time>
      </trkpt>
      <trkpt lat="59.8984876" lon="17.8422004">
        <ele>35.2255</ele>
        <time>2013-04-09T17:00:25Z</time>
      </trkpt>
      <trkpt lat="59.8984202" lon="17.8422207">
        <ele>34.2642</ele>
        <time>2013-04-09T17:00:26Z</time>
      </trkpt>
      <trkpt lat="59.8983529" lon="17.8422358">
        <ele>33.7834</ele>
        <time>2013-04-09T17:00:27Z</time>
      </trkpt>
      <trkpt lat="59.898285" lon="17.8422518">
        <ele>33.7834</ele>
        <time>2013-04-09T17:00:28Z</time>
      </trkpt>
      <trkpt lat="59.8982177" lon="17.842257">
        <ele>33.3029</ele>
        <time>2013-04-09T17:00:29Z</time>
      </trkpt>
      <trkpt lat="59.8981499" lon="17.8422591">
        <ele>32.8223</ele>
        <time>2013-04-09T17:00:30Z</time>
      </trkpt>
      <trkpt lat="59.8980803" lon="17.8422559">
        <ele>32.3416</ele>
        <time>2013-04-09T17:00:31Z</time>
      </trkpt>
      <trkpt lat="59.8980136" lon="17.8422428">
        <ele>31.8607</ele>
        <time>2013-04-09T17:00:32Z</time>
      </trkpt>
      <trkpt lat="59.897951" lon="17.8422311">
        <ele>31.3801</ele>
        <time>2013-04-09T17:00:33Z</time>
      </trkpt>
      <trkpt lat="59.8978908" lon="17.8422126">
        <ele>30.8995</ele>
        <time>2013-04-09T17:00:34Z</time>
      </trkpt>
      <trkpt lat="59.8978261" lon="17.8422134">
        <ele>29.4575</ele>
        <time>2013-04-09T17:00:35Z</time>
      </trkpt>
      <trkpt lat="59.8977597" lon="17.8422279">
        <ele>28.4962</ele>
        <time>2013-04-09T17:00:36Z</time>
      </trkpt>
      <trkpt lat="59.8976901" lon="17.8422409">
        <ele>27.0543</ele>
        <time>2013-04-09T17:00:37Z</time>
      </trkpt>
      <trkpt lat="59.8976225" lon="17.8422669">
        <ele>25.1317</ele>
        <time>2013-04-09T17:00:38Z</time>
      </trkpt>
      <trkpt lat="59.8975588" lon="17.8423062">
        <ele>24.651</ele>
        <time>2013-04-09T17:00:39Z</time>
      </trkpt>
      <trkpt lat="59.8974945" lon="17.8423535">
        <ele>24.651</ele>
        <time>2013-04-09T17:00:40Z</time>
      </trkpt>
      <trkpt lat="59.8974309" lon="17.842405">
        <ele>24.651</ele>
        <time>2013-04-09T17:00:41Z</time>
      </trkpt>
      <trkpt lat="59.8973692" lon="17.8424521">
        <ele>24.1703</ele>
        <time>2013-04-09T17:00:42Z</time>
      </trkpt>
      <trkpt lat="59.8973108" lon="17.8425004">
        <ele>23.209</ele>
        <time>2013-04-09T17:00:43Z</time>
      </trkpt>
      <trkpt lat="59.8972521" lon="17.8425492">
        <ele>22.2476</ele>
        <time>2013-04-09T17:00:44Z</time>
      </trkpt>
      <trkpt lat="59.8971908" lon="17.8426046">
        <ele>21.2864</ele>
        <time>2013-04-09T17:00:45Z</time>
      </trkpt>
      <trkpt lat="59.8971245" lon="17.8426585">
        <ele>20.325</ele>
        <time>2013-04-09T17:00:46Z</time>
      </trkpt>
      <trkpt lat="59.8970516" lon="17.8427098">
        <ele>19.8444</ele>
        <time>2013-04-09T17:00:47Z</time>
      </trkpt>
      <trkpt lat="59.8969409" lon="17.8427786">
        <ele>21.2864</ele>
        <time>2013-04-09T17:00:48Z</time>
      </trkpt>
      <trkpt lat="59.8968418" lon="17.8428175">
        <ele>21.767</ele>
        <time>2013-04-09T17:00:49Z</time>
      </trkpt>
      <trkpt lat="59.8967588" lon="17.8428505">
        <ele>21.767</ele>
        <time>2013-04-09T17:00:50Z</time>
      </trkpt>
      <trkpt lat="59.8966695" lon="17.8428755">
        <ele>21.767</ele>
        <time>2013-04-09T17:00:51Z</time>
      </trkpt>
      <trkpt lat="59.8965883" lon="17.8429004">
        <ele>21.767</ele>
        <time>2013-04-09T17:00:52Z</time>
      </trkpt>
      <trkpt lat="59.8965117" lon="17.8428967">
        <ele>21.767</ele>
        <time>2013-04-09T17:00:53Z</time>
      </trkpt>
      <trkpt lat="59.8964291" lon="17.8428724">
        <ele>21.2864</ele>
        <time>2013-04-09T17:00:54Z</time>
      </trkpt>
      <trkpt lat="59.8963315" lon="17.8428242">
        <ele>20.8057</ele>
        <time>2013-04-09T17:00:55Z</time>
      </trkpt>
      <trkpt lat="59.8962325" lon="17.8427803">
        <ele>20.325</ele>
        <time>2013-04-09T17:00:56Z</time>
      </trkpt>
      <trkpt lat="59.8961348" lon="17.8427512">
        <ele>19.8444</ele>
        <time>2013-04-09T17:00:57Z</time>
      </trkpt>
      <trkpt lat="59.896038" lon="17.8427434">
        <ele>19.3638</ele>
        <time>2013-04-09T17:00:58Z</time>
      </trkpt>
      <trkpt lat="59.8959405" lon="17.8427444">
        <ele>19.8444</ele>
        <time>2013-04-09T17:00:59Z</time>
      </trkpt>
      <trkpt lat="59.8958469" lon="17.8427538">
        <ele>20.325</ele>
        <time>2013-04-09T17:01:00Z</time>
      </trkpt>
      <trkpt lat="59.8957592" lon="17.8427663">
        <ele>20.8057</ele>
        <time>2013-04-09T17:01:01Z</time>
      </trkpt>
      <trkpt lat="59.8956768" lon="17.84279">
        <ele>20.8057</ele>
        <time>2013-04-09T17:01:02Z</time>
      </trkpt>
      <trkpt lat="59.8955945" lon="17.8428315">
        <ele>20.325</ele>
        <time>2013-04-09T17:01:03Z</time>
      </trkpt>
      <trkpt lat="59.8955184" lon="17.8428569">
        <ele>18.8831</ele>
        <time>2013-04-09T17:01:04Z</time>
      </trkpt>
      <trkpt lat="59.8954391" lon="17.842892">
        <ele>18.4023</ele>
        <time>2013-04-09T17:01:05Z</time>
      </trkpt>
      <trkpt lat="59.8953563" lon="17.8429341">
        <ele>17.9218</ele>
        <time>2013-04-09T17:01:06Z</time>
      </trkpt>
      <trkpt lat="59.8952712" lon="17.8429786">
        <ele>18.4023</ele>
        <time>2013-04-09T17:01:07Z</time>
      </trkpt>
      <trkpt lat="59.8951884" lon="17.8430164">
        <ele>18.4023</ele>
        <time>2013-04-09T17:01:08Z</time>
      </trkpt>
      <trkpt lat="59.8951077" lon="17.8430381">
        <ele>16.9604</ele>
        <time>2013-04-09T17:01:09Z</time>
      </trkpt>
      <trkpt lat="59.8950255" lon="17.8430602">
        <ele>16.4797</ele>
        <time>2013-04-09T17:01:10Z</time>
      </trkpt>
      <trkpt lat="59.8949401" lon="17.8430755">
        <ele>16.4797</ele>
        <time>2013-04-09T17:01:11Z</time>
      </trkpt>
      <trkpt lat="59.89485" lon="17.843066">
        <ele>16.4797</ele>
        <time>2013-04-09T17:01:12Z</time>
      </trkpt>
      <trkpt lat="59.8947724" lon="17.8430547">
        <ele>16.9604</ele>
        <time>2013-04-09T17:01:13Z</time>
      </trkpt>
      <trkpt lat="59.8946937" lon="17.8430528">
        <ele>16.9604</ele>
        <time>2013-04-09T17:01:14Z</time>
      </trkpt>
      <trkpt lat="59.8946206" lon="17.8430452">
        <ele>16.9604</ele>
        <time>2013-04-09T17:01:15Z</time>
      </trkpt>
      <trkpt lat="59.8945555" lon="17.842989">
        <ele>17.4412</ele>
        <time>2013-04-09T17:01:16Z</time>
      </trkpt>
      <trkpt lat="59.8944857" lon="17.8429692">
        <ele>17.9218</ele>
        <time>2013-04-09T17:01:17Z</time>
      </trkpt>
      <trkpt lat="59.8944008" lon="17.8429325">
        <ele>18.8831</ele>
        <time>2013-04-09T17:01:18Z</time>
      </trkpt>
      <trkpt lat="59.8943254" lon="17.8429126">
        <ele>19.3638</ele>
        <time>2013-04-09T17:01:19Z</time>
      </trkpt>
      <trkpt lat="59.8942518" lon="17.8428977">
        <ele>19.8444</ele>
        <time>2013-04-09T17:01:20Z</time>
      </trkpt>
      <trkpt lat="59.8941838" lon="17.8428941">
        <ele>19.8444</ele>
        <time>2013-04-09T17:01:21Z</time>
      </trkpt>
      <trkpt lat="59.8941217" lon="17.8428988">
        <ele>20.8057</ele>
        <time>2013-04-09T17:01:22Z</time>
      </trkpt>
      <trkpt lat="59.8940582" lon="17.8429029">
        <ele>21.2864</ele>
        <time>2013-04-09T17:01:23Z</time>
      </trkpt>
      <trkpt lat="59.8939929" lon="17.8429059">
        <ele>21.2864</ele>
        <time>2013-04-09T17:01:24Z</time>
      </trkpt>
      <trkpt lat="59.8939222" lon="17.8429055">
        <ele>21.767</ele>
        <time>2013-04-09T17:01:25Z</time>
      </trkpt>
      <trkpt lat="59.8938554" lon="17.8428994">
        <ele>21.767</ele>
        <time>2013-04-09T17:01:26Z</time>
      </trkpt>
      <trkpt lat="59.8937904" lon="17.8429031">
        <ele>22.2476</ele>
        <time>2013-04-09T17:01:27Z</time>
      </trkpt>
      <trkpt lat="59.8937295" lon="17.8429092">
        <ele>23.209</ele>
        <time>2013-04-09T17:01:28Z</time>
      </trkpt>
      <trkpt lat="59.8936759" lon="17.842918">
        <ele>23.6896</ele>
        <time>2013-04-09T17:01:29Z</time>
      </trkpt>
      <trkpt lat="59.8936209" lon="17.8429163">
        <ele>23.6896</ele>
        <time>2013-04-09T17:01:30Z</time>
      </trkpt>
      <trkpt lat="59.8935621" lon="17.842909">
        <ele>23.209</ele>
        <time>2013-04-09T17:01:31Z</time>
      </trkpt>
      <trkpt lat="59.8934986" lon="17.8428903">
        <ele>22.7283</ele>
        <time>2013-04-09T17:01:32Z</time>
      </trkpt>
      <trkpt lat="59.8934344" lon="17.8428649">
        <ele>22.7283</ele>
        <time>2013-04-09T17:01:33Z</time>
      </trkpt>
      <trkpt lat="59.8933728" lon="17.8428458">
        <ele>23.209</ele>
        <time>2013-04-09T17:01:34Z</time>
      </trkpt>
      <trkpt lat="59.893311" lon="17.8428226">
        <ele>23.209</ele>
        <time>2013-04-09T17:01:35Z</time>
      </trkpt>
      <trkpt lat="59.8932557" lon="17.8428035">
        <ele>22.7283</ele>
        <time>2013-04-09T17:01:36Z</time>
      </trkpt>
      <trkpt lat="59.8932023" lon="17.8427819">
        <ele>23.209</ele>
        <time>2013-04-09T17:01:37Z</time>
      </trkpt>
      <trkpt lat="59.8931462" lon="17.8427518">
        <ele>23.6896</ele>
        <time>2013-04-09T17:01:38Z</time>
      </trkpt>
      <trkpt lat="59.8930926" lon="17.8427247">
        <ele>24.1703</ele>
        <time>2013-04-09T17:01:39Z</time>
      </trkpt>
      <trkpt lat="59.8930428" lon="17.8427073">
        <ele>24.651</ele>
        <time>2013-04-09T17:01:40Z</time>
      </trkpt>
      <trkpt lat="59.8929946" lon="17.842688">
        <ele>24.651</ele>
        <time>2013-04-09T17:01:41Z</time>
      </trkpt>
      <trkpt lat="59.8929454" lon="17.8426665">
        <ele>24.651</ele>
        <time>2013-04-09T17:01:42Z</time>
      </trkpt>
      <trkpt lat="59.8928957" lon="17.8426441">
        <ele>24.651</ele>
        <time>2013-04-09T17:01:43Z</time>
      </trkpt>
      <trkpt lat="59.8928469" lon="17.8426223">
        <ele>24.1703</ele>
        <time>2013-04-09T17:01:44Z</time>
      </trkpt>
      <trkpt lat="59.8927984" lon="17.8425982">
        <ele>24.1703</ele>
        <time>2013-04-09T17:01:45Z</time>
      </trkpt>
      <trkpt lat="59.8927507" lon="17.8425754">
        <ele>24.651</ele>
        <time>2013-04-09T17:01:46Z</time>
      </trkpt>
      <trkpt lat="59.8927024" lon="17.8425515">
        <ele>24.1703</ele>
        <time>2013-04-09T17:01:47Z</time>
      </trkpt>
      <trkpt lat="59.8926541" lon="17.8425278">
        <ele>23.6896</ele>
        <time>2013-04-09T17:01:48Z</time>
      </trkpt>
      <trkpt lat="59.8926076" lon="17.8425077">
        <ele>23.6896</ele>
        <time>2013-04-09T17:01:49Z</time>
      </trkpt>
      <trkpt lat="59.8925629" lon="17.8424907">
        <ele>24.1703</ele>
        <time>2013-04-09T17:01:50Z</time>
      </trkpt>
      <trkpt lat="59.8925173" lon="17.8424715">
        <ele>24.651</ele>
        <time>2013-04-09T17:01:51Z</time>
      </trkpt>
      <trkpt lat="59.8924702" lon="17.8424482">
        <ele>24.651</ele>
        <time>2013-04-09T17:01:52Z</time>
      </trkpt>
      <trkpt lat="59.8924222" lon="17.8424263">
        <ele>24.651</ele>
        <time>2013-04-09T17:01:53Z</time>
      </trkpt>
      <trkpt lat="59.892374" lon="17.8424053">
        <ele>25.1317</ele>
        <time>2013-04-09T17:01:54Z</time>
      </trkpt>
      <trkpt lat="59.8923258" lon="17.8423855">
        <ele>25.6123</ele>
        <time>2013-04-09T17:01:55Z</time>
      </trkpt>
      <trkpt lat="59.8922786" lon="17.8423635">
        <ele>25.6123</ele>
        <time>2013-04-09T17:01:56Z</time>
      </trkpt>
      <trkpt lat="59.8922319" lon="17.8423407">
        <ele>25.6123</ele>
        <time>2013-04-09T17:01:57Z</time>
      </trkpt>
      <trkpt lat="59.8921853" lon="17.8423202">
        <ele>25.6123</ele>
        <time>2013-04-09T17:01:58Z</time>
      </trkpt>
      <trkpt lat="59.8921384" lon="17.8423026">
        <ele>26.0929</ele>
        <time>2013-04-09T17:01:59Z</time>
      </trkpt>
      <trkpt lat="59.892092" lon="17.8422839">
        <ele>26.5736</ele>
        <time>2013-04-09T17:02:00Z</time>
      </trkpt>
      <trkpt lat="59.8920446" lon="17.8422683">
        <ele>27.0543</ele>
        <time>2013-04-09T17:02:01Z</time>
      </trkpt>
      <trkpt lat="59.8919969" lon="17.8422545">
        <ele>27.5349</ele>
        <time>2013-04-09T17:02:02Z</time>
      </trkpt>
      <trkpt lat="59.8919482" lon="17.8422408">
        <ele>28.0155</ele>
        <time>2013-04-09T17:02:03Z</time>
      </trkpt>
      <trkpt lat="59.8918965" lon="17.8422259">
        <ele>28.0155</ele>
        <time>2013-04-09T17:02:04Z</time>
      </trkpt>
      <trkpt lat="59.891845" lon="17.8422134">
        <ele>28.0155</ele>
        <time>2013-04-09T17:02:05Z</time>
      </trkpt>
      <trkpt lat="59.8917934" lon="17.842202">
        <ele>28.4962</ele>
        <time>2013-04-09T17:02:06Z</time>
      </trkpt>
      <trkpt lat="59.8917431" lon="17.8421896">
        <ele>28.4962</ele>
        <time>2013-04-09T17:02:07Z</time>
      </trkpt>
      <trkpt lat="59.8916914" lon="17.8421765">
        <ele>28.0155</ele>
        <time>2013-04-09T17:02:08Z</time>
      </trkpt>
      <trkpt lat="59.8916422" lon="17.8421669">
        <ele>28.4962</ele>
        <time>2013-04-09T17:02:09Z</time>
      </trkpt>
      <trkpt lat="59.8915932" lon="17.8421573">
        <ele>28.0155</ele>
        <time>2013-04-09T17:02:10Z</time>
      </trkpt>
      <trkpt lat="59.8915435" lon="17.8421468">
        <ele>28.0155</ele>
        <time>2013-04-09T17:02:11Z</time>
      </trkpt>
      <trkpt lat="59.8914945" lon="17.8421351">
        <ele>28.0155</ele>
        <time>2013-04-09T17:02:12Z</time>
      </trkpt>
      <trkpt lat="59.8914468" lon="17.8421186">
        <ele>28.0155</ele>
        <time>2013-04-09T17:02:13Z</time>
      </trkpt>
      <trkpt lat="59.8914013" lon="17.8420991">
        <ele>27.5349</ele>
        <time>2013-04-09T17:02:14Z</time>
      </trkpt>
      <trkpt lat="59.8913583" lon="17.8420765">
        <ele>27.5349</ele>
        <time>2013-04-09T17:02:15Z</time>
      </trkpt>
      <trkpt lat="59.891313" lon="17.8420485">
        <ele>27.5349</ele>
        <time>2013-04-09T17:02:16Z</time>
      </trkpt>
      <trkpt lat="59.891266" lon="17.8420182">
        <ele>27.0543</ele>
        <time>2013-04-09T17:02:17Z</time>
      </trkpt>
      <trkpt lat="59.8912192" lon="17.8419845">
        <ele>27.0543</ele>
        <time>2013-04-09T17:02:18Z</time>
      </trkpt>
      <trkpt lat="59.8911732" lon="17.841952">
        <ele>26.5736</ele>
        <time>2013-04-09T17:02:19Z</time>
      </trkpt>
      <trkpt lat="59.8911273" lon="17.8419168">
        <ele>26.5736</ele>
        <time>2013-04-09T17:02:20Z</time>
      </trkpt>
      <trkpt lat="59.8910822" lon="17.8418781">
        <ele>26.5736</ele>
        <time>2013-04-09T17:02:21Z</time>
      </trkpt>
      <trkpt lat="59.891036" lon="17.841836">
        <ele>27.0543</ele>
        <time>2013-04-09T17:02:22Z</time>
      </trkpt>
      <trkpt lat="59.89099" lon="17.8417909">
        <ele>27.5349</ele>
        <time>2013-04-09T17:02:23Z</time>
      </trkpt>
      <trkpt lat="59.8909441" lon="17.8417421">
        <ele>28.0155</ele>
        <time>2013-04-09T17:02:24Z</time>
      </trkpt>
      <trkpt lat="59.890898" lon="17.8416907">
        <ele>28.0155</ele>
        <time>2013-04-09T17:02:25Z</time>
      </trkpt>
      <trkpt lat="59.8908524" lon="17.8416349">
        <ele>28.0155</ele>
        <time>2013-04-09T17:02:26Z</time>
      </trkpt>
      <trkpt lat="59.8908055" lon="17.8415741">
        <ele>28.4962</ele>
        <time>2013-04-09T17:02:27Z</time>
      </trkpt>
      <trkpt lat="59.8907589" lon="17.8415065">
        <ele>28.9769</ele>
        <time>2013-04-09T17:02:28Z</time>
      </trkpt>
      <trkpt lat="59.8907144" lon="17.8414375">
        <ele>29.4575</ele>
        <time>2013-04-09T17:02:29Z</time>
      </trkpt>
      <trkpt lat="59.8906716" lon="17.8413681">
        <ele>30.4188</ele>
        <time>2013-04-09T17:02:30Z</time>
      </trkpt>
      <trkpt lat="59.8906287" lon="17.841296">
        <ele>30.8995</ele>
        <time>2013-04-09T17:02:31Z</time>
      </trkpt>
      <trkpt lat="59.8905831" lon="17.8412215">
        <ele>30.4188</ele>
        <time>2013-04-09T17:02:32Z</time>
      </trkpt>
      <trkpt lat="59.8905356" lon="17.8411439">
        <ele>30.4188</ele>
        <time>2013-04-09T17:02:33Z</time>
      </trkpt>
      <trkpt lat="59.8904878" lon="17.8410655">
        <ele>30.4188</ele>
        <time>2013-04-09T17:02:34Z</time>
      </trkpt>
      <trkpt lat="59.8904373" lon="17.8409882">
        <ele>29.9381</ele>
        <time>2013-04-09T17:02:35Z</time>
      </trkpt>
      <trkpt lat="59.8903863" lon="17.8409138">
        <ele>30.4188</ele>
        <time>2013-04-09T17:02:36Z</time>
      </trkpt>
      <trkpt lat="59.8903279" lon="17.8408439">
        <ele>30.4188</ele>
        <time>2013-04-09T17:02:37Z</time>
      </trkpt>
      <trkpt lat="59.8902677" lon="17.8407937">
        <ele>30.4188</ele>
        <time>2013-04-09T17:02:38Z</time>
      </trkpt>
      <trkpt lat="59.890205" lon="17.8407662">
        <ele>30.4188</ele>
        <time>2013-04-09T17:02:39Z</time>
      </trkpt>
      <trkpt lat="59.8901414" lon="17.8407667">
        <ele>30.4188</ele>
        <time>2013-04-09T17:02:40Z</time>
      </trkpt>
      <trkpt lat="59.8900814" lon="17.8407946">
        <ele>29.9381</ele>
        <time>2013-04-09T17:02:41Z</time>
      </trkpt>
      <trkpt lat="59.8900259" lon="17.8408506">
        <ele>29.9381</ele>
        <time>2013-04-09T17:02:42Z</time>
      </trkpt>
      <trkpt lat="59.8899668" lon="17.8409545">
        <ele>29.9381</ele>
        <time>2013-04-09T17:02:43Z</time>
      </trkpt>
      <trkpt lat="59.8899203" lon="17.8410697">
        <ele>30.4188</ele>
        <time>2013-04-09T17:02:44Z</time>
      </trkpt>
      <trkpt lat="59.8898855" lon="17.8411755">
        <ele>30.8995</ele>
        <time>2013-04-09T17:02:45Z</time>
      </trkpt>
      <trkpt lat="59.8898625" lon="17.8412888">
        <ele>31.3801</ele>
        <time>2013-04-09T17:02:46Z</time>
      </trkpt>
      <trkpt lat="59.8898456" lon="17.8414085">
        <ele>31.3801</ele>
        <time>2013-04-09T17:02:47Z</time>
      </trkpt>
      <trkpt lat="59.8898327" lon="17.8415287">
        <ele>31.3801</ele>
        <time>2013-04-09T17:02:48Z</time>
      </trkpt>
      <trkpt lat="59.8898206" lon="17.8416493">
        <ele>30.8995</ele>
        <time>2013-04-09T17:02:49Z</time>
      </trkpt>
      <trkpt lat="59.8898103" lon="17.8417702">
        <ele>30.8995</ele>
        <time>2013-04-09T17:02:50Z</time>
      </trkpt>
      <trkpt lat="59.8898016" lon="17.8418934">
        <ele>30.4188</ele>
        <time>2013-04-09T17:02:51Z</time>
      </trkpt>
      <trkpt lat="59.8897938" lon="17.8420273">
        <ele>29.9381</ele>
        <time>2013-04-09T17:02:52Z</time>
      </trkpt>
      <trkpt lat="59.8897768" lon="17.8421779">
        <ele>30.4188</ele>
        <time>2013-04-09T17:02:53Z</time>
      </trkpt>
      <trkpt lat="59.8897684" lon="17.8423145">
        <ele>29.9381</ele>
        <time>2013-04-09T17:02:54Z</time>
      </trkpt>
      <trkpt lat="59.8897601" lon="17.8424542">
        <ele>29.4575</ele>
        <time>2013-04-09T17:02:55Z</time>
      </trkpt>
      <trkpt lat="59.8897501" lon="17.8425976">
        <ele>28.9769</ele>
        <time>2013-04-09T17:02:56Z</time>
      </trkpt>
      <trkpt lat="59.8897361" lon="17.8427408">
        <ele>28.4962</ele>
        <time>2013-04-09T17:02:57Z</time>
      </trkpt>
      <trkpt lat="59.8897182" lon="17.8428816">
        <ele>28.0155</ele>
        <time>2013-04-09T17:02:58Z</time>
      </trkpt>
      <trkpt lat="59.8896939" lon="17.843019">
        <ele>27.5349</ele>
        <time>2013-04-09T17:02:59Z</time>
      </trkpt>
      <trkpt lat="59.889658" lon="17.8431444">
        <ele>27.0543</ele>
        <time>2013-04-09T17:03:00Z</time>
      </trkpt>
      <trkpt lat="59.8896079" lon="17.8432511">
        <ele>26.0929</ele>
        <time>2013-04-09T17:03:01Z</time>
      </trkpt>
      <trkpt lat="59.8895301" lon="17.843361">
        <ele>25.6123</ele>
        <time>2013-04-09T17:03:02Z</time>
      </trkpt>
      <trkpt lat="59.8894427" lon="17.8433951">
        <ele>24.651</ele>
        <time>2013-04-09T17:03:03Z</time>
      </trkpt>
      <trkpt lat="59.8893593" lon="17.8433826">
        <ele>24.1703</ele>
        <time>2013-04-09T17:03:04Z</time>
      </trkpt>
      <trkpt lat="59.8892701" lon="17.8433126">
        <ele>23.6896</ele>
        <time>2013-04-09T17:03:05Z</time>
      </trkpt>
      <trkpt lat="59.8892047" lon="17.8432641">
        <ele>23.209</ele>
        <time>2013-04-09T17:03:06Z</time>
      </trkpt>
      <trkpt lat="59.8891404" lon="17.8432148">
        <ele>22.7283</ele>
        <time>2013-04-09T17:03:07Z</time>
      </trkpt>
      <trkpt lat="59.8890777" lon="17.8431674">
        <ele>22.7283</ele>
        <time>2013-04-09T17:03:08Z</time>
      </trkpt>
      <trkpt lat="59.8890148" lon="17.8431239">
        <ele>22.2476</ele>
        <time>2013-04-09T17:03:09Z</time>
      </trkpt>
      <trkpt lat="59.88895" lon="17.8430893">
        <ele>21.767</ele>
        <time>2013-04-09T17:03:10Z</time>
      </trkpt>
      <trkpt lat="59.8888822" lon="17.843063">
        <ele>21.767</ele>
        <time>2013-04-09T17:03:11Z</time>
      </trkpt>
      <trkpt lat="59.8888131" lon="17.8430437">
        <ele>21.767</ele>
        <time>2013-04-09T17:03:12Z</time>
      </trkpt>
      <trkpt lat="59.8887395" lon="17.8430444">
        <ele>21.767</ele>
        <time>2013-04-09T17:03:13Z</time>
      </trkpt>
      <trkpt lat="59.8886692" lon="17.8430335">
        <ele>21.767</ele>
        <time>2013-04-09T17:03:14Z</time>
      </trkpt>
      <trkpt lat="59.8886044" lon="17.8430291">
        <ele>21.767</ele>
        <time>2013-04-09T17:03:15Z</time>
      </trkpt>
      <trkpt lat="59.8885364" lon="17.8430138">
        <ele>21.2864</ele>
        <time>2013-04-09T17:03:16Z</time>
      </trkpt>
      <trkpt lat="59.888462" lon="17.8429862">
        <ele>20.8057</ele>
        <time>2013-04-09T17:03:17Z</time>
      </trkpt>
      <trkpt lat="59.8883874" lon="17.8429496">
        <ele>20.8057</ele>
        <time>2013-04-09T17:03:18Z</time>
      </trkpt>
      <trkpt lat="59.8883138" lon="17.842906">
        <ele>20.325</ele>
        <time>2013-04-09T17:03:19Z</time>
      </trkpt>
      <trkpt lat="59.8882408" lon="17.8428541">
        <ele>19.8444</ele>
        <time>2013-04-09T17:03:20Z</time>
      </trkpt>
      <trkpt lat="59.8881688" lon="17.8427963">
        <ele>19.8444</ele>
        <time>2013-04-09T17:03:21Z</time>
      </trkpt>
      <trkpt lat="59.8880973" lon="17.8427319">
        <ele>19.3638</ele>
        <time>2013-04-09T17:03:22Z</time>
      </trkpt>
      <trkpt lat="59.8880264" lon="17.8426635">
        <ele>19.3638</ele>
        <time>2013-04-09T17:03:23Z</time>
      </trkpt>
      <trkpt lat="59.8879559" lon="17.8425926">
        <ele>19.3638</ele>
        <time>2013-04-09T17:03:24Z</time>
      </trkpt>
      <trkpt lat="59.8878849" lon="17.8425176">
        <ele>19.8444</ele>
        <time>2013-04-09T17:03:25Z</time>
      </trkpt>
      <trkpt lat="59.8878154" lon="17.8424399">
        <ele>19.8444</ele>
        <time>2013-04-09T17:03:26Z</time>
      </trkpt>
      <trkpt lat="59.8877467" lon="17.8423579">
        <ele>19.8444</ele>
        <time>2013-04-09T17:03:27Z</time>
      </trkpt>
      <trkpt lat="59.8876804" lon="17.8422694">
        <ele>20.325</ele>
        <time>2013-04-09T17:03:28Z</time>
      </trkpt>
      <trkpt lat="59.8876156" lon="17.8421755">
        <ele>20.8057</ele>
        <time>2013-04-09T17:03:29Z</time>
      </trkpt>
      <trkpt lat="59.8875544" lon="17.842076">
        <ele>21.2864</ele>
        <time>2013-04-09T17:03:30Z</time>
      </trkpt>
      <trkpt lat="59.8874971" lon="17.8419715">
        <ele>21.2864</ele>
        <time>2013-04-09T17:03:31Z</time>
      </trkpt>
      <trkpt lat="59.8874471" lon="17.8418667">
        <ele>21.767</ele>
        <time>2013-04-09T17:03:32Z</time>
      </trkpt>
      <trkpt lat="59.8874016" lon="17.8417576">
        <ele>22.2476</ele>
        <time>2013-04-09T17:03:33Z</time>
      </trkpt>
      <trkpt lat="59.8873592" lon="17.8416478">
        <ele>22.2476</ele>
        <time>2013-04-09T17:03:34Z</time>
      </trkpt>
      <trkpt lat="59.8873178" lon="17.841537">
        <ele>22.2476</ele>
        <time>2013-04-09T17:03:35Z</time>
      </trkpt>
      <trkpt lat="59.8872766" lon="17.8414318">
        <ele>22.7283</ele>
        <time>2013-04-09T17:03:36Z</time>
      </trkpt>
      <trkpt lat="59.8872306" lon="17.8413308">
        <ele>23.209</ele>
        <time>2013-04-09T17:03:37Z</time>
      </trkpt>
      <trkpt lat="59.8871768" lon="17.8412364">
        <ele>23.209</ele>
        <time>2013-04-09T17:03:38Z</time>
      </trkpt>
      <trkpt lat="59.8871177" lon="17.8411548">
        <ele>23.209</ele>
        <time>2013-04-09T17:03:39Z</time>
      </trkpt>
      <trkpt lat="59.8870551" lon="17.8410857">
        <ele>23.6896</ele>
        <time>2013-04-09T17:03:40Z</time>
      </trkpt>
      <trkpt lat="59.8869894" lon="17.8410314">
        <ele>23.6896</ele>
        <time>2013-04-09T17:03:41Z</time>
      </trkpt>
      <trkpt lat="59.886922" lon="17.8409956">
        <ele>23.6896</ele>
        <time>2013-04-09T17:03:42Z</time>
      </trkpt>
      <trkpt lat="59.886853" lon="17.8409771">
        <ele>24.1703</ele>
        <time>2013-04-09T17:03:43Z</time>
      </trkpt>
      <trkpt lat="59.8867847" lon="17.8409739">
        <ele>24.1703</ele>
        <time>2013-04-09T17:03:44Z</time>
      </trkpt>
      <trkpt lat="59.8867185" lon="17.8409846">
        <ele>24.651</ele>
        <time>2013-04-09T17:03:45Z</time>
      </trkpt>
      <trkpt lat="59.8866537" lon="17.8410069">
        <ele>25.1317</ele>
        <time>2013-04-09T17:03:46Z</time>
      </trkpt>
      <trkpt lat="59.8865904" lon="17.8410382">
        <ele>25.6123</ele>
        <time>2013-04-09T17:03:47Z</time>
      </trkpt>
      <trkpt lat="59.8865277" lon="17.8410732">
        <ele>26.0929</ele>
        <time>2013-04-09T17:03:48Z</time>
      </trkpt>
      <trkpt lat="59.886465" lon="17.8411054">
        <ele>26.0929</ele>
        <time>2013-04-09T17:03:49Z</time>
      </trkpt>
      <trkpt lat="59.8864015" lon="17.8411361">
        <ele>26.5736</ele>
        <time>2013-04-09T17:03:50Z</time>
      </trkpt>
      <trkpt lat="59.8863359" lon="17.8411653">
        <ele>26.0929</ele>
        <time>2013-04-09T17:03:51Z</time>
      </trkpt>
      <trkpt lat="59.8862711" lon="17.8411977">
        <ele>26.0929</ele>
        <time>2013-04-09T17:03:52Z</time>
      </trkpt>
      <trkpt lat="59.8862057" lon="17.8412277">
        <ele>26.0929</ele>
        <time>2013-04-09T17:03:53Z</time>
      </trkpt>
      <trkpt lat="59.8861393" lon="17.8412531">
        <ele>26.0929</ele>
        <time>2013-04-09T17:03:54Z</time>
      </trkpt>
      <trkpt lat="59.8860715" lon="17.8412763">
        <ele>26.0929</ele>
        <time>2013-04-09T17:03:55Z</time>
      </trkpt>
      <trkpt lat="59.8860025" lon="17.8412965">
        <ele>26.0929</ele>
        <time>2013-04-09T17:03:56Z</time>
      </trkpt>
      <trkpt lat="59.8859324" lon="17.8413117">
        <ele>26.0929</ele>
        <time>2013-04-09T17:03:57Z</time>
      </trkpt>
      <trkpt lat="59.8858615" lon="17.8413249">
        <ele>25.6123</ele>
        <time>2013-04-09T17:03:58Z</time>
      </trkpt>
      <trkpt lat="59.8857892" lon="17.8413354">
        <ele>25.6123</ele>
        <time>2013-04-09T17:03:59Z</time>
      </trkpt>
      <trkpt lat="59.8857165" lon="17.8413421">
        <ele>25.6123</ele>
        <time>2013-04-09T17:04:00Z</time>
      </trkpt>
      <trkpt lat="59.8856436" lon="17.8413487">
        <ele>25.6123</ele>
        <time>2013-04-09T17:04:01Z</time>
      </trkpt>
      <trkpt lat="59.8855709" lon="17.841356">
        <ele>25.6123</ele>
        <time>2013-04-09T17:04:02Z</time>
      </trkpt>
      <trkpt lat="59.8854991" lon="17.8413645">
        <ele>25.1317</ele>
        <time>2013-04-09T17:04:03Z</time>
      </trkpt>
      <trkpt lat="59.8854266" lon="17.8413729">
        <ele>25.1317</ele>
        <time>2013-04-09T17:04:04Z</time>
      </trkpt>
      <trkpt lat="59.885355" lon="17.8413834">
        <ele>24.651</ele>
        <time>2013-04-09T17:04:05Z</time>
      </trkpt>
      <trkpt lat="59.8852825" lon="17.841394">
        <ele>24.651</ele>
        <time>2013-04-09T17:04:06Z</time>
      </trkpt>
      <trkpt lat="59.8852089" lon="17.8414049">
        <ele>24.651</ele>
        <time>2013-04-09T17:04:07Z</time>
      </trkpt>
      <trkpt lat="59.8851344" lon="17.8414127">
        <ele>24.1703</ele>
        <time>2013-04-09T17:04:08Z</time>
      </trkpt>
      <trkpt lat="59.8850578" lon="17.8414183">
        <ele>24.1703</ele>
        <time>2013-04-09T17:04:09Z</time>
      </trkpt>
      <trkpt lat="59.8849798" lon="17.8414178">
        <ele>24.1703</ele>
        <time>2013-04-09T17:04:10Z</time>
      </trkpt>
      <trkpt lat="59.8849017" lon="17.8414089">
        <ele>23.6896</ele>
        <time>2013-04-09T17:04:11Z</time>
      </trkpt>
      <trkpt lat="59.8848244" lon="17.8413931">
        <ele>23.6896</ele>
        <time>2013-04-09T17:04:12Z</time>
      </trkpt>
      <trkpt lat="59.8847474" lon="17.8413679">
        <ele>23.6896</ele>
        <time>2013-04-09T17:04:13Z</time>
      </trkpt>
      <trkpt lat="59.8846723" lon="17.8413338">
        <ele>23.6896</ele>
        <time>2013-04-09T17:04:14Z</time>
      </trkpt>
      <trkpt lat="59.8846" lon="17.8412912">
        <ele>23.6896</ele>
        <time>2013-04-09T17:04:15Z</time>
      </trkpt>
      <trkpt lat="59.8845304" lon="17.8412413">
        <ele>23.6896</ele>
        <time>2013-04-09T17:04:16Z</time>
      </trkpt>
      <trkpt lat="59.8844631" lon="17.8411873">
        <ele>23.6896</ele>
        <time>2013-04-09T17:04:17Z</time>
      </trkpt>
      <trkpt lat="59.8843987" lon="17.8411301">
        <ele>23.6896</ele>
        <time>2013-04-09T17:04:18Z</time>
      </trkpt>
      <trkpt lat="59.884336" lon="17.8410697">
        <ele>23.6896</ele>
        <time>2013-04-09T17:04:19Z</time>
      </trkpt>
      <trkpt lat="59.8842748" lon="17.8410061">
        <ele>23.6896</ele>
        <time>2013-04-09T17:04:20Z</time>
      </trkpt>
      <trkpt lat="59.8842149" lon="17.8409401">
        <ele>23.6896</ele>
        <time>2013-04-09T17:04:21Z</time>
      </trkpt>
      <trkpt lat="59.8841561" lon="17.8408719">
        <ele>23.6896</ele>
        <time>2013-04-09T17:04:22Z</time>
      </trkpt>
      <trkpt lat="59.8840991" lon="17.8408004">
        <ele>23.6896</ele>
        <time>2013-04-09T17:04:23Z</time>
      </trkpt>
      <trkpt lat="59.8840432" lon="17.8407263">
        <ele>23.6896</ele>
        <time>2013-04-09T17:04:24Z</time>
      </trkpt>
      <trkpt lat="59.8839875" lon="17.8406521">
        <ele>23.6896</ele>
        <time>2013-04-09T17:04:25Z</time>
      </trkpt>
      <trkpt lat="59.883933" lon="17.8405771">
        <ele>24.1703</ele>
        <time>2013-04-09T17:04:26Z</time>
      </trkpt>
      <trkpt lat="59.8838784" lon="17.8405038">
        <ele>24.1703</ele>
        <time>2013-04-09T17:04:27Z</time>
      </trkpt>
      <trkpt lat="59.8838232" lon="17.8404325">
        <ele>24.651</ele>
        <time>2013-04-09T17:04:28Z</time>
      </trkpt>
      <trkpt lat="59.8837694" lon="17.8403602">
        <ele>24.651</ele>
        <time>2013-04-09T17:04:29Z</time>
      </trkpt>
      <trkpt lat="59.8837165" lon="17.8402881">
        <ele>25.1317</ele>
        <time>2013-04-09T17:04:30Z</time>
      </trkpt>
      <trkpt lat="59.8836642" lon="17.8402156">
        <ele>25.6123</ele>
        <time>2013-04-09T17:04:31Z</time>
      </trkpt>
      <trkpt lat="59.8836133" lon="17.8401456">
        <ele>26.0929</ele>
        <time>2013-04-09T17:04:32Z</time>
      </trkpt>
      <trkpt lat="59.8835642" lon="17.840076">
        <ele>26.5736</ele>
        <time>2013-04-09T17:04:33Z</time>
      </trkpt>
      <trkpt lat="59.8835149" lon="17.8400082">
        <ele>27.0543</ele>
        <time>2013-04-09T17:04:34Z</time>
      </trkpt>
      <trkpt lat="59.8834667" lon="17.8399415">
        <ele>27.5349</ele>
        <time>2013-04-09T17:04:35Z</time>
      </trkpt>
      <trkpt lat="59.8834187" lon="17.8398752">
        <ele>27.5349</ele>
        <time>2013-04-09T17:04:36Z</time>
      </trkpt>
      <trkpt lat="59.8833706" lon="17.8398116">
        <ele>28.4962</ele>
        <time>2013-04-09T17:04:37Z</time>
      </trkpt>
      <trkpt lat="59.8833219" lon="17.839747">
        <ele>28.9769</ele>
        <time>2013-04-09T17:04:38Z</time>
      </trkpt>
      <trkpt lat="59.8832746" lon="17.839683">
        <ele>29.4575</ele>
        <time>2013-04-09T17:04:39Z</time>
      </trkpt>
      <trkpt lat="59.8832281" lon="17.8396208">
        <ele>29.9381</ele>
        <time>2013-04-09T17:04:40Z</time>
      </trkpt>
      <trkpt lat="59.883182" lon="17.8395602">
        <ele>30.4188</ele>
        <time>2013-04-09T17:04:41Z</time>
      </trkpt>
      <trkpt lat="59.8831382" lon="17.8395015">
        <ele>30.8995</ele>
        <time>2013-04-09T17:04:42Z</time>
      </trkpt>
      <trkpt lat="59.8830966" lon="17.8394445">
        <ele>31.8607</ele>
        <time>2013-04-09T17:04:43Z</time>
      </trkpt>
      <trkpt lat="59.8830566" lon="17.8393924">
        <ele>32.3416</ele>
        <time>2013-04-09T17:04:44Z</time>
      </trkpt>
      <trkpt lat="59.8830172" lon="17.8393432">
        <ele>32.8223</ele>
        <time>2013-04-09T17:04:45Z</time>
      </trkpt>
      <trkpt lat="59.8829789" lon="17.8392972">
        <ele>33.7834</ele>
        <time>2013-04-09T17:04:46Z</time>
      </trkpt>
      <trkpt lat="59.8829405" lon="17.8392509">
        <ele>34.2642</ele>
        <time>2013-04-09T17:04:47Z</time>
      </trkpt>
      <trkpt lat="59.882903" lon="17.8392064">
        <ele>34.2642</ele>
        <time>2013-04-09T17:04:48Z</time>
      </trkpt>
      <trkpt lat="59.882867" lon="17.8391653">
        <ele>34.7449</ele>
        <time>2013-04-09T17:04:49Z</time>
      </trkpt>
      <trkpt lat="59.8828282" lon="17.8391256">
        <ele>34.7449</ele>
        <time>2013-04-09T17:04:50Z</time>
      </trkpt>
      <trkpt lat="59.8827893" lon="17.8390894">
        <ele>34.7449</ele>
        <time>2013-04-09T17:04:51Z</time>
      </trkpt>
      <trkpt lat="59.882749" lon="17.8390563">
        <ele>34.7449</ele>
        <time>2013-04-09T17:04:52Z</time>
      </trkpt>
      <trkpt lat="59.8827072" lon="17.8390289">
        <ele>34.7449</ele>
        <time>2013-04-09T17:04:53Z</time>
      </trkpt>
      <trkpt lat="59.8826651" lon="17.8390101">
        <ele>34.7449</ele>
        <time>2013-04-09T17:04:54Z</time>
      </trkpt>
      <trkpt lat="59.8826214" lon="17.8389961">
        <ele>34.7449</ele>
        <time>2013-04-09T17:04:55Z</time>
      </trkpt>
      <trkpt lat="59.8825727" lon="17.8389788">
        <ele>33.7834</ele>
        <time>2013-04-09T17:04:56Z</time>
      </trkpt>
      <trkpt lat="59.8825207" lon="17.8389595">
        <ele>33.3029</ele>
        <time>2013-04-09T17:04:57Z</time>
      </trkpt>
      <trkpt lat="59.8824645" lon="17.838941">
        <ele>32.8223</ele>
        <time>2013-04-09T17:04:58Z</time>
      </trkpt>
      <trkpt lat="59.8824052" lon="17.8389232">
        <ele>31.8607</ele>
        <time>2013-04-09T17:04:59Z</time>
      </trkpt>
      <trkpt lat="59.8823425" lon="17.8389029">
        <ele>30.8995</ele>
        <time>2013-04-09T17:05:00Z</time>
      </trkpt>
      <trkpt lat="59.8822763" lon="17.8388752">
        <ele>29.9381</ele>
        <time>2013-04-09T17:05:01Z</time>
      </trkpt>
      <trkpt lat="59.8822086" lon="17.8388407">
        <ele>28.9769</ele>
        <time>2013-04-09T17:05:02Z</time>
      </trkpt>
      <trkpt lat="59.8821406" lon="17.8387989">
        <ele>28.0155</ele>
        <time>2013-04-09T17:05:03Z</time>
      </trkpt>
      <trkpt lat="59.8820734" lon="17.8387479">
        <ele>27.5349</ele>
        <time>2013-04-09T17:05:04Z</time>
      </trkpt>
      <trkpt lat="59.88201" lon="17.8386847">
        <ele>27.0543</ele>
        <time>2013-04-09T17:05:05Z</time>
      </trkpt>
      <trkpt lat="59.881953" lon="17.8386097">
        <ele>26.5736</ele>
        <time>2013-04-09T17:05:06Z</time>
      </trkpt>
      <trkpt lat="59.8818966" lon="17.8385237">
        <ele>26.0929</ele>
        <time>2013-04-09T17:05:07Z</time>
      </trkpt>
      <trkpt lat="59.8818401" lon="17.838436">
        <ele>26.0929</ele>
        <time>2013-04-09T17:05:08Z</time>
      </trkpt>
      <trkpt lat="59.8817833" lon="17.8383469">
        <ele>26.0929</ele>
        <time>2013-04-09T17:05:09Z</time>
      </trkpt>
      <trkpt lat="59.8817267" lon="17.8382586">
        <ele>25.6123</ele>
        <time>2013-04-09T17:05:10Z</time>
      </trkpt>
      <trkpt lat="59.8816714" lon="17.8381699">
        <ele>25.6123</ele>
        <time>2013-04-09T17:05:11Z</time>
      </trkpt>
      <trkpt lat="59.8816165" lon="17.8380798">
        <ele>25.6123</ele>
        <time>2013-04-09T17:05:12Z</time>
      </trkpt>
      <trkpt lat="59.8815621" lon="17.837989">
        <ele>25.1317</ele>
        <time>2013-04-09T17:05:13Z</time>
      </trkpt>
      <trkpt lat="59.8815076" lon="17.8378983">
        <ele>24.651</ele>
        <time>2013-04-09T17:05:14Z</time>
      </trkpt>
      <trkpt lat="59.8814519" lon="17.8378118">
        <ele>24.651</ele>
        <time>2013-04-09T17:05:15Z</time>
      </trkpt>
      <trkpt lat="59.8813943" lon="17.8377296">
        <ele>24.651</ele>
        <time>2013-04-09T17:05:16Z</time>
      </trkpt>
      <trkpt lat="59.8813363" lon="17.8376514">
        <ele>24.651</ele>
        <time>2013-04-09T17:05:17Z</time>
      </trkpt>
      <trkpt lat="59.8812787" lon="17.8375709">
        <ele>24.651</ele>
        <time>2013-04-09T17:05:18Z</time>
      </trkpt>
      <trkpt lat="59.8812218" lon="17.8374877">
        <ele>24.1703</ele>
        <time>2013-04-09T17:05:19Z</time>
      </trkpt>
      <trkpt lat="59.8811661" lon="17.8374054">
        <ele>24.1703</ele>
        <time>2013-04-09T17:05:20Z</time>
      </trkpt>
      <trkpt lat="59.881112" lon="17.8373251">
        <ele>24.651</ele>
        <time>2013-04-09T17:05:21Z</time>
      </trkpt>
      <trkpt lat="59.8810602" lon="17.8372425">
        <ele>24.651</ele>
        <time>2013-04-09T17:05:22Z</time>
      </trkpt>
      <trkpt lat="59.8810115" lon="17.8371606">
        <ele>24.651</ele>
        <time>2013-04-09T17:05:23Z</time>
      </trkpt>
      <trkpt lat="59.880966" lon="17.8370782">
        <ele>25.1317</ele>
        <time>2013-04-09T17:05:24Z</time>
      </trkpt>
      <trkpt lat="59.8809208" lon="17.8370034">
        <ele>25.1317</ele>
        <time>2013-04-09T17:05:25Z</time>
      </trkpt>
      <trkpt lat="59.8808757" lon="17.8369301">
        <ele>25.1317</ele>
        <time>2013-04-09T17:05:26Z</time>
      </trkpt>
      <trkpt lat="59.8808297" lon="17.8368519">
        <ele>25.6123</ele>
        <time>2013-04-09T17:05:27Z</time>
      </trkpt>
      <trkpt lat="59.8807831" lon="17.8367719">
        <ele>25.6123</ele>
        <time>2013-04-09T17:05:28Z</time>
      </trkpt>
      <trkpt lat="59.8807349" lon="17.836693">
        <ele>25.6123</ele>
        <time>2013-04-09T17:05:29Z</time>
      </trkpt>
      <trkpt lat="59.8806854" lon="17.8366147">
        <ele>25.6123</ele>
        <time>2013-04-09T17:05:30Z</time>
      </trkpt>
      <trkpt lat="59.8806353" lon="17.8365376">
        <ele>25.6123</ele>
        <time>2013-04-09T17:05:31Z</time>
      </trkpt>
      <trkpt lat="59.8805839" lon="17.8364621">
        <ele>25.6123</ele>
        <time>2013-04-09T17:05:32Z</time>
      </trkpt>
      <trkpt lat="59.8805313" lon="17.8363895">
        <ele>26.0929</ele>
        <time>2013-04-09T17:05:33Z</time>
      </trkpt>
      <trkpt lat="59.8804765" lon="17.8363205">
        <ele>26.0929</ele>
        <time>2013-04-09T17:05:34Z</time>
      </trkpt>
      <trkpt lat="59.8804212" lon="17.8362547">
        <ele>26.0929</ele>
        <time>2013-04-09T17:05:35Z</time>
      </trkpt>
      <trkpt lat="59.8803655" lon="17.8361935">
        <ele>26.0929</ele>
        <time>2013-04-09T17:05:36Z</time>
      </trkpt>
      <trkpt lat="59.880309" lon="17.8361353">
        <ele>26.0929</ele>
        <time>2013-04-09T17:05:37Z</time>
      </trkpt>
      <trkpt lat="59.8802532" lon="17.8360798">
        <ele>26.0929</ele>
        <time>2013-04-09T17:05:38Z</time>
      </trkpt>
      <trkpt lat="59.8801981" lon="17.8360256">
        <ele>26.0929</ele>
        <time>2013-04-09T17:05:39Z</time>
      </trkpt>
      <trkpt lat="59.8801438" lon="17.8359747">
        <ele>26.5736</ele>
        <time>2013-04-09T17:05:40Z</time>
      </trkpt>
      <trkpt lat="59.8800915" lon="17.8359268">
        <ele>27.0543</ele>
        <time>2013-04-09T17:05:41Z</time>
      </trkpt>
      <trkpt lat="59.8800391" lon="17.8358854">
        <ele>27.0543</ele>
        <time>2013-04-09T17:05:42Z</time>
      </trkpt>
      <trkpt lat="59.8799873" lon="17.8358487">
        <ele>28.0155</ele>
        <time>2013-04-09T17:05:43Z</time>
      </trkpt>
      <trkpt lat="59.8799365" lon="17.8358179">
        <ele>28.4962</ele>
        <time>2013-04-09T17:05:44Z</time>
      </trkpt>
      <trkpt lat="59.8798882" lon="17.8357967">
        <ele>28.9769</ele>
        <time>2013-04-09T17:05:45Z</time>
      </trkpt>
      <trkpt lat="59.8798375" lon="17.8357793">
        <ele>28.9769</ele>
        <time>2013-04-09T17:05:46Z</time>
      </trkpt>
      <trkpt lat="59.8797869" lon="17.8357657">
        <ele>28.9769</ele>
        <time>2013-04-09T17:05:47Z</time>
      </trkpt>
      <trkpt lat="59.8797349" lon="17.8357596">
        <ele>28.4962</ele>
        <time>2013-04-09T17:05:48Z</time>
      </trkpt>
      <trkpt lat="59.8796802" lon="17.8357643">
        <ele>28.0155</ele>
        <time>2013-04-09T17:05:49Z</time>
      </trkpt>
      <trkpt lat="59.8796185" lon="17.8357652">
        <ele>27.5349</ele>
        <time>2013-04-09T17:05:50Z</time>
      </trkpt>
      <trkpt lat="59.8795496" lon="17.8357612">
        <ele>27.0543</ele>
        <time>2013-04-09T17:05:51Z</time>
      </trkpt>
      <trkpt lat="59.8794765" lon="17.8357592">
        <ele>26.5736</ele>
        <time>2013-04-09T17:05:52Z</time>
      </trkpt>
      <trkpt lat="59.8794018" lon="17.8357537">
        <ele>26.0929</ele>
        <time>2013-04-09T17:05:53Z</time>
      </trkpt>
      <trkpt lat="59.8793274" lon="17.8357461">
        <ele>25.6123</ele>
        <time>2013-04-09T17:05:54Z</time>
      </trkpt>
      <trkpt lat="59.8792554" lon="17.8357351">
        <ele>25.6123</ele>
        <time>2013-04-09T17:05:55Z</time>
      </trkpt>
      <trkpt lat="59.8791851" lon="17.8357228">
        <ele>25.1317</ele>
        <time>2013-04-09T17:05:56Z</time>
      </trkpt>
      <trkpt lat="59.8791181" lon="17.83571">
        <ele>25.1317</ele>
        <time>2013-04-09T17:05:57Z</time>
      </trkpt>
      <trkpt lat="59.8790537" lon="17.8356965">
        <ele>24.651</ele>
        <time>2013-04-09T17:05:58Z</time>
      </trkpt>
      <trkpt lat="59.8789911" lon="17.8356814">
        <ele>24.651</ele>
        <time>2013-04-09T17:05:59Z</time>
      </trkpt>
      <trkpt lat="59.8789315" lon="17.8356618">
        <ele>24.651</ele>
        <time>2013-04-09T17:06:00Z</time>
      </trkpt>
      <trkpt lat="59.8788679" lon="17.8356332">
        <ele>24.1703</ele>
        <time>2013-04-09T17:06:01Z</time>
      </trkpt>
      <trkpt lat="59.8788042" lon="17.8356011">
        <ele>24.1703</ele>
        <time>2013-04-09T17:06:02Z</time>
      </trkpt>
      <trkpt lat="59.878739" lon="17.8355465">
        <ele>24.1703</ele>
        <time>2013-04-09T17:06:03Z</time>
      </trkpt>
      <trkpt lat="59.878669" lon="17.8354892">
        <ele>24.1703</ele>
        <time>2013-04-09T17:06:04Z</time>
      </trkpt>
      <trkpt lat="59.878601" lon="17.8354379">
        <ele>24.1703</ele>
        <time>2013-04-09T17:06:05Z</time>
      </trkpt>
      <trkpt lat="59.8785342" lon="17.835388">
        <ele>24.1703</ele>
        <time>2013-04-09T17:06:06Z</time>
      </trkpt>
      <trkpt lat="59.8784676" lon="17.8353313">
        <ele>24.1703</ele>
        <time>2013-04-09T17:06:07Z</time>
      </trkpt>
      <trkpt lat="59.8784031" lon="17.8352715">
        <ele>24.1703</ele>
        <time>2013-04-09T17:06:08Z</time>
      </trkpt>
      <trkpt lat="59.8783401" lon="17.8352139">
        <ele>24.1703</ele>
        <time>2013-04-09T17:06:09Z</time>
      </trkpt>
      <trkpt lat="59.8782732" lon="17.8351616">
        <ele>24.1703</ele>
        <time>2013-04-09T17:06:10Z</time>
      </trkpt>
      <trkpt lat="59.8782105" lon="17.8351057">
        <ele>24.1703</ele>
        <time>2013-04-09T17:06:11Z</time>
      </trkpt>
      <trkpt lat="59.8781474" lon="17.8350464">
        <ele>23.6896</ele>
        <time>2013-04-09T17:06:12Z</time>
      </trkpt>
      <trkpt lat="59.8780889" lon="17.8349873">
        <ele>23.209</ele>
        <time>2013-04-09T17:06:13Z</time>
      </trkpt>
      <trkpt lat="59.8780339" lon="17.8349269">
        <ele>23.209</ele>
        <time>2013-04-09T17:06:14Z</time>
      </trkpt>
      <trkpt lat="59.877979" lon="17.8348689">
        <ele>23.209</ele>
        <time>2013-04-09T17:06:15Z</time>
      </trkpt>
      <trkpt lat="59.8779273" lon="17.834808">
        <ele>23.6896</ele>
        <time>2013-04-09T17:06:16Z</time>
      </trkpt>
      <trkpt lat="59.877876" lon="17.8347494">
        <ele>23.6896</ele>
        <time>2013-04-09T17:06:17Z</time>
      </trkpt>
      <trkpt lat="59.877826" lon="17.83469">
        <ele>23.6896</ele>
        <time>2013-04-09T17:06:18Z</time>
      </trkpt>
      <trkpt lat="59.8777755" lon="17.8346309">
        <ele>23.6896</ele>
        <time>2013-04-09T17:06:19Z</time>
      </trkpt>
      <trkpt lat="59.8777247" lon="17.8345687">
        <ele>23.6896</ele>
        <time>2013-04-09T17:06:20Z</time>
      </trkpt>
      <trkpt lat="59.8776727" lon="17.834502">
        <ele>23.6896</ele>
        <time>2013-04-09T17:06:21Z</time>
      </trkpt>
      <trkpt lat="59.8776206" lon="17.834434">
        <ele>23.209</ele>
        <time>2013-04-09T17:06:22Z</time>
      </trkpt>
      <trkpt lat="59.877566" lon="17.8343656">
        <ele>23.209</ele>
        <time>2013-04-09T17:06:23Z</time>
      </trkpt>
      <trkpt lat="59.8775123" lon="17.834294">
        <ele>23.6896</ele>
        <time>2013-04-09T17:06:24Z</time>
      </trkpt>
      <trkpt lat="59.8774582" lon="17.8342197">
        <ele>24.651</ele>
        <time>2013-04-09T17:06:25Z</time>
      </trkpt>
      <trkpt lat="59.8774031" lon="17.8341444">
        <ele>25.1317</ele>
        <time>2013-04-09T17:06:26Z</time>
      </trkpt>
      <trkpt lat="59.8773471" lon="17.8340686">
        <ele>25.6123</ele>
        <time>2013-04-09T17:06:27Z</time>
      </trkpt>
      <trkpt lat="59.8772899" lon="17.8339911">
        <ele>26.0929</ele>
        <time>2013-04-09T17:06:28Z</time>
      </trkpt>
      <trkpt lat="59.8772319" lon="17.8339164">
        <ele>26.5736</ele>
        <time>2013-04-09T17:06:29Z</time>
      </trkpt>
      <trkpt lat="59.877173" lon="17.8338476">
        <ele>27.0543</ele>
        <time>2013-04-09T17:06:30Z</time>
      </trkpt>
      <trkpt lat="59.8771138" lon="17.8337834">
        <ele>27.5349</ele>
        <time>2013-04-09T17:06:31Z</time>
      </trkpt>
      <trkpt lat="59.8770575" lon="17.8337105">
        <ele>27.5349</ele>
        <time>2013-04-09T17:06:32Z</time>
      </trkpt>
      <trkpt lat="59.8769979" lon="17.8336671">
        <ele>28.0155</ele>
        <time>2013-04-09T17:06:33Z</time>
      </trkpt>
      <trkpt lat="59.8769342" lon="17.8336103">
        <ele>28.0155</ele>
        <time>2013-04-09T17:06:34Z</time>
      </trkpt>
      <trkpt lat="59.8768715" lon="17.8335604">
        <ele>28.4962</ele>
        <time>2013-04-09T17:06:35Z</time>
      </trkpt>
      <trkpt lat="59.8768089" lon="17.8335149">
        <ele>28.4962</ele>
        <time>2013-04-09T17:06:36Z</time>
      </trkpt>
      <trkpt lat="59.8767478" lon="17.8334761">
        <ele>28.4962</ele>
        <time>2013-04-09T17:06:37Z</time>
      </trkpt>
      <trkpt lat="59.8766912" lon="17.8334394">
        <ele>28.4962</ele>
        <time>2013-04-09T17:06:38Z</time>
      </trkpt>
      <trkpt lat="59.8766365" lon="17.8334063">
        <ele>28.9769</ele>
        <time>2013-04-09T17:06:39Z</time>
      </trkpt>
      <trkpt lat="59.8765821" lon="17.833376">
        <ele>28.4962</ele>
        <time>2013-04-09T17:06:40Z</time>
      </trkpt>
      <trkpt lat="59.8765297" lon="17.8333436">
        <ele>28.4962</ele>
        <time>2013-04-09T17:06:41Z</time>
      </trkpt>
      <trkpt lat="59.8764795" lon="17.8333165">
        <ele>28.0155</ele>
        <time>2013-04-09T17:06:42Z</time>
      </trkpt>
      <trkpt lat="59.8764279" lon="17.8332859">
        <ele>27.5349</ele>
        <time>2013-04-09T17:06:43Z</time>
      </trkpt>
      <trkpt lat="59.876373" lon="17.8332508">
        <ele>27.0543</ele>
        <time>2013-04-09T17:06:44Z</time>
      </trkpt>
      <trkpt lat="59.8763142" lon="17.8332187">
        <ele>27.0543</ele>
        <time>2013-04-09T17:06:45Z</time>
      </trkpt>
      <trkpt lat="59.8762531" lon="17.8331813">
        <ele>27.0543</ele>
        <time>2013-04-09T17:06:46Z</time>
      </trkpt>
      <trkpt lat="59.8761901" lon="17.8331408">
        <ele>27.5349</ele>
        <time>2013-04-09T17:06:47Z</time>
      </trkpt>
      <trkpt lat="59.8761275" lon="17.8330953">
        <ele>27.5349</ele>
        <time>2013-04-09T17:06:48Z</time>
      </trkpt>
      <trkpt lat="59.8760645" lon="17.8330473">
        <ele>27.5349</ele>
        <time>2013-04-09T17:06:49Z</time>
      </trkpt>
      <trkpt lat="59.8760008" lon="17.8329939">
        <ele>27.0543</ele>
        <time>2013-04-09T17:06:50Z</time>
      </trkpt>
      <trkpt lat="59.875937" lon="17.8329339">
        <ele>26.5736</ele>
        <time>2013-04-09T17:06:51Z</time>
      </trkpt>
      <trkpt lat="59.8758775" lon="17.8328716">
        <ele>26.5736</ele>
        <time>2013-04-09T17:06:52Z</time>
      </trkpt>
      <trkpt lat="59.8758203" lon="17.8328091">
        <ele>26.5736</ele>
        <time>2013-04-09T17:06:53Z</time>
      </trkpt>
      <trkpt lat="59.8757634" lon="17.8327484">
        <ele>27.0543</ele>
        <time>2013-04-09T17:06:54Z</time>
      </trkpt>
      <trkpt lat="59.875706" lon="17.8326914">
        <ele>27.0543</ele>
        <time>2013-04-09T17:06:55Z</time>
      </trkpt>
      <trkpt lat="59.8756497" lon="17.832637">
        <ele>27.5349</ele>
        <time>2013-04-09T17:06:56Z</time>
      </trkpt>
      <trkpt lat="59.8755952" lon="17.8325847">
        <ele>27.5349</ele>
        <time>2013-04-09T17:06:57Z</time>
      </trkpt>
      <trkpt lat="59.8755395" lon="17.8325386">
        <ele>27.5349</ele>
        <time>2013-04-09T17:06:58Z</time>
      </trkpt>
      <trkpt lat="59.8754825" lon="17.8324967">
        <ele>27.5349</ele>
        <time>2013-04-09T17:06:59Z</time>
      </trkpt>
      <trkpt lat="59.875424" lon="17.8324557">
        <ele>27.5349</ele>
        <time>2013-04-09T17:07:00Z</time>
      </trkpt>
      <trkpt lat="59.875363" lon="17.832418">
        <ele>27.5349</ele>
        <time>2013-04-09T17:07:01Z</time>
      </trkpt>
      <trkpt lat="59.8752989" lon="17.8323889">
        <ele>27.5349</ele>
        <time>2013-04-09T17:07:02Z</time>
      </trkpt>
      <trkpt lat="59.8752325" lon="17.8323678">
        <ele>27.0543</ele>
        <time>2013-04-09T17:07:03Z</time>
      </trkpt>
      <trkpt lat="59.8751645" lon="17.832348">
        <ele>26.5736</ele>
        <time>2013-04-09T17:07:04Z</time>
      </trkpt>
      <trkpt lat="59.8750961" lon="17.8323282">
        <ele>26.0929</ele>
        <time>2013-04-09T17:07:05Z</time>
      </trkpt>
      <trkpt lat="59.8750278" lon="17.8323101">
        <ele>26.0929</ele>
        <time>2013-04-09T17:07:06Z</time>
      </trkpt>
      <trkpt lat="59.8749597" lon="17.8322924">
        <ele>26.0929</ele>
        <time>2013-04-09T17:07:07Z</time>
      </trkpt>
      <trkpt lat="59.8748923" lon="17.8322774">
        <ele>25.6123</ele>
        <time>2013-04-09T17:07:08Z</time>
      </trkpt>
      <trkpt lat="59.8748258" lon="17.8322631">
        <ele>25.6123</ele>
        <time>2013-04-09T17:07:09Z</time>
      </trkpt>
      <trkpt lat="59.8747601" lon="17.8322444">
        <ele>25.6123</ele>
        <time>2013-04-09T17:07:10Z</time>
      </trkpt>
      <trkpt lat="59.8746946" lon="17.8322255">
        <ele>25.6123</ele>
        <time>2013-04-09T17:07:11Z</time>
      </trkpt>
      <trkpt lat="59.8746301" lon="17.8322081">
        <ele>25.1317</ele>
        <time>2013-04-09T17:07:12Z</time>
      </trkpt>
      <trkpt lat="59.874567" lon="17.8321906">
        <ele>25.1317</ele>
        <time>2013-04-09T17:07:13Z</time>
      </trkpt>
      <trkpt lat="59.8745058" lon="17.8321688">
        <ele>25.1317</ele>
        <time>2013-04-09T17:07:14Z</time>
      </trkpt>
      <trkpt lat="59.8744471" lon="17.8321387">
        <ele>25.1317</ele>
        <time>2013-04-09T17:07:15Z</time>
      </trkpt>
      <trkpt lat="59.8743911" lon="17.8321008">
        <ele>25.1317</ele>
        <time>2013-04-09T17:07:16Z</time>
      </trkpt>
      <trkpt lat="59.8743384" lon="17.8320579">
        <ele>24.651</ele>
        <time>2013-04-09T17:07:17Z</time>
      </trkpt>
      <trkpt lat="59.8742882" lon="17.8320118">
        <ele>25.1317</ele>
        <time>2013-04-09T17:07:18Z</time>
      </trkpt>
      <trkpt lat="59.8742393" lon="17.8319629">
        <ele>25.1317</ele>
        <time>2013-04-09T17:07:19Z</time>
      </trkpt>
      <trkpt lat="59.8741924" lon="17.8319134">
        <ele>25.1317</ele>
        <time>2013-04-09T17:07:20Z</time>
      </trkpt>
      <trkpt lat="59.8741478" lon="17.8318624">
        <ele>24.651</ele>
        <time>2013-04-09T17:07:21Z</time>
      </trkpt>
      <trkpt lat="59.8741039" lon="17.8318087">
        <ele>24.651</ele>
        <time>2013-04-09T17:07:22Z</time>
      </trkpt>
      <trkpt lat="59.8740593" lon="17.8317538">
        <ele>24.651</ele>
        <time>2013-04-09T17:07:23Z</time>
      </trkpt>
      <trkpt lat="59.8740152" lon="17.8316993">
        <ele>24.651</ele>
        <time>2013-04-09T17:07:24Z</time>
      </trkpt>
      <trkpt lat="59.8739706" lon="17.8316405">
        <ele>24.651</ele>
        <time>2013-04-09T17:07:25Z</time>
      </trkpt>
      <trkpt lat="59.8739246" lon="17.8315782">
        <ele>24.651</ele>
        <time>2013-04-09T17:07:26Z</time>
      </trkpt>
      <trkpt lat="59.8738757" lon="17.8315172">
        <ele>24.651</ele>
        <time>2013-04-09T17:07:27Z</time>
      </trkpt>
      <trkpt lat="59.8738249" lon="17.8314556">
        <ele>24.651</ele>
        <time>2013-04-09T17:07:28Z</time>
      </trkpt>
      <trkpt lat="59.8737738" lon="17.8313907">
        <ele>24.651</ele>
        <time>2013-04-09T17:07:29Z</time>
      </trkpt>
      <trkpt lat="59.8737232" lon="17.8313234">
        <ele>24.651</ele>
        <time>2013-04-09T17:07:30Z</time>
      </trkpt>
      <trkpt lat="59.8736723" lon="17.8312579">
        <ele>25.1317</ele>
        <time>2013-04-09T17:07:31Z</time>
      </trkpt>
      <trkpt lat="59.8736195" lon="17.8311952">
        <ele>25.1317</ele>
        <time>2013-04-09T17:07:32Z</time>
      </trkpt>
      <trkpt lat="59.8735646" lon="17.8311353">
        <ele>24.651</ele>
        <time>2013-04-09T17:07:33Z</time>
      </trkpt>
      <trkpt lat="59.8735086" lon="17.8310777">
        <ele>24.651</ele>
        <time>2013-04-09T17:07:34Z</time>
      </trkpt>
      <trkpt lat="59.8734521" lon="17.8310234">
        <ele>24.1703</ele>
        <time>2013-04-09T17:07:35Z</time>
      </trkpt>
      <trkpt lat="59.873395" lon="17.8309723">
        <ele>24.1703</ele>
        <time>2013-04-09T17:07:36Z</time>
      </trkpt>
      <trkpt lat="59.8733355" lon="17.8309218">
        <ele>23.6896</ele>
        <time>2013-04-09T17:07:37Z</time>
      </trkpt>
      <trkpt lat="59.8732751" lon="17.8308731">
        <ele>23.209</ele>
        <time>2013-04-09T17:07:38Z</time>
      </trkpt>
      <trkpt lat="59.8732143" lon="17.830824">
        <ele>23.209</ele>
        <time>2013-04-09T17:07:39Z</time>
      </trkpt>
      <trkpt lat="59.8731537" lon="17.8307777">
        <ele>23.209</ele>
        <time>2013-04-09T17:07:40Z</time>
      </trkpt>
      <trkpt lat="59.8730932" lon="17.8307348">
        <ele>23.6896</ele>
        <time>2013-04-09T17:07:41Z</time>
      </trkpt>
      <trkpt lat="59.8730316" lon="17.8306985">
        <ele>23.209</ele>
        <time>2013-04-09T17:07:42Z</time>
      </trkpt>
      <trkpt lat="59.8729682" lon="17.830666">
        <ele>22.7283</ele>
        <time>2013-04-09T17:07:43Z</time>
      </trkpt>
      <trkpt lat="59.8729046" lon="17.830638">
        <ele>22.2476</ele>
        <time>2013-04-09T17:07:44Z</time>
      </trkpt>
      <trkpt lat="59.8728417" lon="17.8306105">
        <ele>21.2864</ele>
        <time>2013-04-09T17:07:45Z</time>
      </trkpt>
      <trkpt lat="59.8727786" lon="17.8305829">
        <ele>20.8057</ele>
        <time>2013-04-09T17:07:46Z</time>
      </trkpt>
      <trkpt lat="59.8727145" lon="17.8305551">
        <ele>20.325</ele>
        <time>2013-04-09T17:07:47Z</time>
      </trkpt>
      <trkpt lat="59.8726502" lon="17.8305255">
        <ele>19.3638</ele>
        <time>2013-04-09T17:07:48Z</time>
      </trkpt>
      <trkpt lat="59.8725849" lon="17.8304899">
        <ele>18.8831</ele>
        <time>2013-04-09T17:07:49Z</time>
      </trkpt>
      <trkpt lat="59.8725187" lon="17.830449">
        <ele>17.9218</ele>
        <time>2013-04-09T17:07:50Z</time>
      </trkpt>
      <trkpt lat="59.8724514" lon="17.8304032">
        <ele>17.4412</ele>
        <time>2013-04-09T17:07:51Z</time>
      </trkpt>
      <trkpt lat="59.8723828" lon="17.8303529">
        <ele>16.9604</ele>
        <time>2013-04-09T17:07:52Z</time>
      </trkpt>
      <trkpt lat="59.8723134" lon="17.8302983">
        <ele>16.4797</ele>
        <time>2013-04-09T17:07:53Z</time>
      </trkpt>
      <trkpt lat="59.8722441" lon="17.8302397">
        <ele>15.999</ele>
        <time>2013-04-09T17:07:54Z</time>
      </trkpt>
      <trkpt lat="59.8721802" lon="17.8301721">
        <ele>15.5184</ele>
        <time>2013-04-09T17:07:55Z</time>
      </trkpt>
      <trkpt lat="59.8721276" lon="17.8300837">
        <ele>15.0377</ele>
        <time>2013-04-09T17:07:56Z</time>
      </trkpt>
      <trkpt lat="59.8720985" lon="17.8299673">
        <ele>15.0377</ele>
        <time>2013-04-09T17:07:57Z</time>
      </trkpt>
      <trkpt lat="59.8720959" lon="17.8298363">
        <ele>14.557</ele>
        <time>2013-04-09T17:07:58Z</time>
      </trkpt>
      <trkpt lat="59.8721121" lon="17.8297061">
        <ele>14.557</ele>
        <time>2013-04-09T17:07:59Z</time>
      </trkpt>
      <trkpt lat="59.8721322" lon="17.8295769">
        <ele>14.557</ele>
        <time>2013-04-09T17:08:00Z</time>
      </trkpt>
      <trkpt lat="59.8721495" lon="17.8294465">
        <ele>15.0377</ele>
        <time>2013-04-09T17:08:01Z</time>
      </trkpt>
      <trkpt lat="59.872168" lon="17.8293177">
        <ele>15.5184</ele>
        <time>2013-04-09T17:08:02Z</time>
      </trkpt>
      <trkpt lat="59.8721871" lon="17.8291917">
        <ele>15.5184</ele>
        <time>2013-04-09T17:08:03Z</time>
      </trkpt>
      <trkpt lat="59.8722048" lon="17.8290679">
        <ele>15.999</ele>
        <time>2013-04-09T17:08:04Z</time>
      </trkpt>
      <trkpt lat="59.8722197" lon="17.8289468">
        <ele>15.999</ele>
        <time>2013-04-09T17:08:05Z</time>
      </trkpt>
      <trkpt lat="59.8722328" lon="17.8288256">
        <ele>15.5184</ele>
        <time>2013-04-09T17:08:06Z</time>
      </trkpt>
      <trkpt lat="59.8722466" lon="17.8287067">
        <ele>15.5184</ele>
        <time>2013-04-09T17:08:07Z</time>
      </trkpt>
      <trkpt lat="59.8722601" lon="17.8285896">
        <ele>15.5184</ele>
        <time>2013-04-09T17:08:08Z</time>
      </trkpt>
      <trkpt lat="59.8722747" lon="17.8284739">
        <ele>15.5184</ele>
        <time>2013-04-09T17:08:09Z</time>
      </trkpt>
      <trkpt lat="59.8722902" lon="17.8283604">
        <ele>15.5184</ele>
        <time>2013-04-09T17:08:10Z</time>
      </trkpt>
      <trkpt lat="59.8723056" lon="17.8282474">
        <ele>15.999</ele>
        <time>2013-04-09T17:08:11Z</time>
      </trkpt>
      <trkpt lat="59.872319" lon="17.8281335">
        <ele>15.999</ele>
        <time>2013-04-09T17:08:12Z</time>
      </trkpt>
      <trkpt lat="59.8723305" lon="17.828019">
        <ele>15.999</ele>
        <time>2013-04-09T17:08:13Z</time>
      </trkpt>
      <trkpt lat="59.8723424" lon="17.8279038">
        <ele>15.999</ele>
        <time>2013-04-09T17:08:14Z</time>
      </trkpt>
      <trkpt lat="59.8723534" lon="17.8277884">
        <ele>15.999</ele>
        <time>2013-04-09T17:08:15Z</time>
      </trkpt>
      <trkpt lat="59.8723634" lon="17.8276725">
        <ele>15.999</ele>
        <time>2013-04-09T17:08:16Z</time>
      </trkpt>
      <trkpt lat="59.8723736" lon="17.8275558">
        <ele>16.4797</ele>
        <time>2013-04-09T17:08:17Z</time>
      </trkpt>
      <trkpt lat="59.872385" lon="17.8274389">
        <ele>16.4797</ele>
        <time>2013-04-09T17:08:18Z</time>
      </trkpt>
      <trkpt lat="59.8723978" lon="17.8273227">
        <ele>16.9604</ele>
        <time>2013-04-09T17:08:19Z</time>
      </trkpt>
      <trkpt lat="59.8724098" lon="17.8272078">
        <ele>16.9604</ele>
        <time>2013-04-09T17:08:20Z</time>
      </trkpt>
      <trkpt lat="59.8724229" lon="17.8270944">
        <ele>17.4412</ele>
        <time>2013-04-09T17:08:21Z</time>
      </trkpt>
      <trkpt lat="59.8724346" lon="17.8269803">
        <ele>17.4412</ele>
        <time>2013-04-09T17:08:22Z</time>
      </trkpt>
      <trkpt lat="59.8724477" lon="17.8268665">
        <ele>17.4412</ele>
        <time>2013-04-09T17:08:23Z</time>
      </trkpt>
      <trkpt lat="59.8724622" lon="17.8267536">
        <ele>17.4412</ele>
        <time>2013-04-09T17:08:24Z</time>
      </trkpt>
      <trkpt lat="59.8724782" lon="17.8266411">
        <ele>17.4412</ele>
        <time>2013-04-09T17:08:25Z</time>
      </trkpt>
      <trkpt lat="59.8724993" lon="17.8265342">
        <ele>18.4023</ele>
        <time>2013-04-09T17:08:26Z</time>
      </trkpt>
      <trkpt lat="59.8725177" lon="17.8264244">
        <ele>18.4023</ele>
        <time>2013-04-09T17:08:27Z</time>
      </trkpt>
      <trkpt lat="59.8725379" lon="17.8263168">
        <ele>18.4023</ele>
        <time>2013-04-09T17:08:28Z</time>
      </trkpt>
      <trkpt lat="59.8725585" lon="17.8262114">
        <ele>18.4023</ele>
        <time>2013-04-09T17:08:29Z</time>
      </trkpt>
      <trkpt lat="59.8725807" lon="17.8261089">
        <ele>18.4023</ele>
        <time>2013-04-09T17:08:30Z</time>
      </trkpt>
      <trkpt lat="59.8726019" lon="17.8260082">
        <ele>18.4023</ele>
        <time>2013-04-09T17:08:31Z</time>
      </trkpt>
      <trkpt lat="59.8726299" lon="17.8259111">
        <ele>19.8444</ele>
        <time>2013-04-09T17:08:32Z</time>
      </trkpt>
      <trkpt lat="59.872656" lon="17.8258131">
        <ele>20.325</ele>
        <time>2013-04-09T17:08:33Z</time>
      </trkpt>
      <trkpt lat="59.8726812" lon="17.8257148">
        <ele>21.2864</ele>
        <time>2013-04-09T17:08:34Z</time>
      </trkpt>
      <trkpt lat="59.872707" lon="17.825618">
        <ele>22.7283</ele>
        <time>2013-04-09T17:08:35Z</time>
      </trkpt>
      <trkpt lat="59.8727327" lon="17.8255227">
        <ele>23.6896</ele>
        <time>2013-04-09T17:08:36Z</time>
      </trkpt>
      <trkpt lat="59.8727591" lon="17.8254289">
        <ele>25.1317</ele>
        <time>2013-04-09T17:08:37Z</time>
      </trkpt>
      <trkpt lat="59.8727855" lon="17.8253358">
        <ele>26.5736</ele>
        <time>2013-04-09T17:08:38Z</time>
      </trkpt>
      <trkpt lat="59.8728109" lon="17.825244">
        <ele>28.0155</ele>
        <time>2013-04-09T17:08:39Z</time>
      </trkpt>
      <trkpt lat="59.8728352" lon="17.8251542">
        <ele>29.9381</ele>
        <time>2013-04-09T17:08:40Z</time>
      </trkpt>
      <trkpt lat="59.8728554" lon="17.8250637">
        <ele>30.4188</ele>
        <time>2013-04-09T17:08:41Z</time>
      </trkpt>
      <trkpt lat="59.8728738" lon="17.8249731">
        <ele>31.3801</ele>
        <time>2013-04-09T17:08:42Z</time>
      </trkpt>
      <trkpt lat="59.8728904" lon="17.824884">
        <ele>31.8607</ele>
        <time>2013-04-09T17:08:43Z</time>
      </trkpt>
      <trkpt lat="59.8729076" lon="17.8247978">
        <ele>33.3029</ele>
        <time>2013-04-09T17:08:44Z</time>
      </trkpt>
      <trkpt lat="59.8729228" lon="17.8247111">
        <ele>34.2642</ele>
        <time>2013-04-09T17:08:45Z</time>
      </trkpt>
      <trkpt lat="59.8729382" lon="17.8246264">
        <ele>35.2255</ele>
        <time>2013-04-09T17:08:46Z</time>
      </trkpt>
      <trkpt lat="59.872946" lon="17.8245378">
        <ele>34.7449</ele>
        <time>2013-04-09T17:08:47Z</time>
      </trkpt>
      <trkpt lat="59.8729538" lon="17.8244524">
        <ele>34.2642</ele>
        <time>2013-04-09T17:08:48Z</time>
      </trkpt>
      <trkpt lat="59.8729606" lon="17.8243701">
        <ele>34.2642</ele>
        <time>2013-04-09T17:08:49Z</time>
      </trkpt>
      <trkpt lat="59.8729663" lon="17.8242887">
        <ele>33.7834</ele>
        <time>2013-04-09T17:08:50Z</time>
      </trkpt>
      <trkpt lat="59.8729704" lon="17.824208">
        <ele>32.8223</ele>
        <time>2013-04-09T17:08:51Z</time>
      </trkpt>
      <trkpt lat="59.8729798" lon="17.8241342">
        <ele>33.3029</ele>
        <time>2013-04-09T17:08:52Z</time>
      </trkpt>
      <trkpt lat="59.8729818" lon="17.8240562">
        <ele>32.8223</ele>
        <time>2013-04-09T17:08:53Z</time>
      </trkpt>
      <trkpt lat="59.8729839" lon="17.823978">
        <ele>32.3416</ele>
        <time>2013-04-09T17:08:54Z</time>
      </trkpt>
      <trkpt lat="59.8729875" lon="17.8239018">
        <ele>31.8607</ele>
        <time>2013-04-09T17:08:55Z</time>
      </trkpt>
      <trkpt lat="59.8729892" lon="17.8238252">
        <ele>31.8607</ele>
        <time>2013-04-09T17:08:56Z</time>
      </trkpt>
      <trkpt lat="59.8729884" lon="17.8237464">
        <ele>31.8607</ele>
        <time>2013-04-09T17:08:57Z</time>
      </trkpt>
      <trkpt lat="59.8729838" lon="17.8236656">
        <ele>31.3801</ele>
        <time>2013-04-09T17:08:58Z</time>
      </trkpt>
      <trkpt lat="59.8729757" lon="17.8235831">
        <ele>31.3801</ele>
        <time>2013-04-09T17:08:59Z</time>
      </trkpt>
      <trkpt lat="59.8729647" lon="17.8235019">
        <ele>30.8995</ele>
        <time>2013-04-09T17:09:00Z</time>
      </trkpt>
      <trkpt lat="59.8729492" lon="17.8234216">
        <ele>30.8995</ele>
        <time>2013-04-09T17:09:01Z</time>
      </trkpt>
      <trkpt lat="59.8729296" lon="17.8233458">
        <ele>30.4188</ele>
        <time>2013-04-09T17:09:02Z</time>
      </trkpt>
      <trkpt lat="59.8729072" lon="17.8232723">
        <ele>29.9381</ele>
        <time>2013-04-09T17:09:03Z</time>
      </trkpt>
      <trkpt lat="59.872886" lon="17.8231966">
        <ele>29.9381</ele>
        <time>2013-04-09T17:09:04Z</time>
      </trkpt>
      <trkpt lat="59.8728636" lon="17.8231222">
        <ele>29.9381</ele>
        <time>2013-04-09T17:09:05Z</time>
      </trkpt>
      <trkpt lat="59.8728399" lon="17.8230497">
        <ele>29.4575</ele>
        <time>2013-04-09T17:09:06Z</time>
      </trkpt>
      <trkpt lat="59.8728169" lon="17.8229782">
        <ele>28.9769</ele>
        <time>2013-04-09T17:09:07Z</time>
      </trkpt>
      <trkpt lat="59.8727931" lon="17.8229057">
        <ele>28.0155</ele>
        <time>2013-04-09T17:09:08Z</time>
      </trkpt>
      <trkpt lat="59.8727705" lon="17.8228312">
        <ele>27.0543</ele>
        <time>2013-04-09T17:09:09Z</time>
      </trkpt>
      <trkpt lat="59.8727485" lon="17.8227533">
        <ele>26.0929</ele>
        <time>2013-04-09T17:09:10Z</time>
      </trkpt>
      <trkpt lat="59.8727291" lon="17.8226704">
        <ele>25.1317</ele>
        <time>2013-04-09T17:09:11Z</time>
      </trkpt>
      <trkpt lat="59.872715" lon="17.8225792">
        <ele>25.1317</ele>
        <time>2013-04-09T17:09:12Z</time>
      </trkpt>
      <trkpt lat="59.8726996" lon="17.8224828">
        <ele>24.651</ele>
        <time>2013-04-09T17:09:13Z</time>
      </trkpt>
      <trkpt lat="59.8726876" lon="17.8223834">
        <ele>24.651</ele>
        <time>2013-04-09T17:09:14Z</time>
      </trkpt>
      <trkpt lat="59.8726777" lon="17.8222814">
        <ele>24.651</ele>
        <time>2013-04-09T17:09:15Z</time>
      </trkpt>
      <trkpt lat="59.8726675" lon="17.8221758">
        <ele>24.1703</ele>
        <time>2013-04-09T17:09:16Z</time>
      </trkpt>
      <trkpt lat="59.8726544" lon="17.8220669">
        <ele>23.6896</ele>
        <time>2013-04-09T17:09:17Z</time>
      </trkpt>
      <trkpt lat="59.8726363" lon="17.8219551">
        <ele>22.2476</ele>
        <time>2013-04-09T17:09:18Z</time>
      </trkpt>
      <trkpt lat="59.8726227" lon="17.8218413">
        <ele>22.2476</ele>
        <time>2013-04-09T17:09:19Z</time>
      </trkpt>
      <trkpt lat="59.8726091" lon="17.8217249">
        <ele>21.767</ele>
        <time>2013-04-09T17:09:20Z</time>
      </trkpt>
      <trkpt lat="59.872596" lon="17.8216049">
        <ele>21.2864</ele>
        <time>2013-04-09T17:09:21Z</time>
      </trkpt>
      <trkpt lat="59.8725828" lon="17.8214828">
        <ele>20.8057</ele>
        <time>2013-04-09T17:09:22Z</time>
      </trkpt>
      <trkpt lat="59.8725682" lon="17.8213598">
        <ele>20.325</ele>
        <time>2013-04-09T17:09:23Z</time>
      </trkpt>
      <trkpt lat="59.8725532" lon="17.8212356">
        <ele>19.8444</ele>
        <time>2013-04-09T17:09:24Z</time>
      </trkpt>
      <trkpt lat="59.8725346" lon="17.8211095">
        <ele>18.8831</ele>
        <time>2013-04-09T17:09:25Z</time>
      </trkpt>
      <trkpt lat="59.8725171" lon="17.8209809">
        <ele>18.4023</ele>
        <time>2013-04-09T17:09:26Z</time>
      </trkpt>
      <trkpt lat="59.872498" lon="17.8208508">
        <ele>17.4412</ele>
        <time>2013-04-09T17:09:27Z</time>
      </trkpt>
      <trkpt lat="59.8724824" lon="17.8207202">
        <ele>16.9604</ele>
        <time>2013-04-09T17:09:28Z</time>
      </trkpt>
      <trkpt lat="59.8724674" lon="17.8205891">
        <ele>16.4797</ele>
        <time>2013-04-09T17:09:29Z</time>
      </trkpt>
      <trkpt lat="59.8724525" lon="17.8204591">
        <ele>15.999</ele>
        <time>2013-04-09T17:09:30Z</time>
      </trkpt>
      <trkpt lat="59.8724379" lon="17.8203296">
        <ele>15.999</ele>
        <time>2013-04-09T17:09:31Z</time>
      </trkpt>
      <trkpt lat="59.8724233" lon="17.8202012">
        <ele>15.5184</ele>
        <time>2013-04-09T17:09:32Z</time>
      </trkpt>
      <trkpt lat="59.8724063" lon="17.8200731">
        <ele>15.0377</ele>
        <time>2013-04-09T17:09:33Z</time>
      </trkpt>
      <trkpt lat="59.8723895" lon="17.8199452">
        <ele>14.0764</ele>
        <time>2013-04-09T17:09:34Z</time>
      </trkpt>
      <trkpt lat="59.8723735" lon="17.8198173">
        <ele>14.0764</ele>
        <time>2013-04-09T17:09:35Z</time>
      </trkpt>
      <trkpt lat="59.8723563" lon="17.8196904">
        <ele>13.1151</ele>
        <time>2013-04-09T17:09:36Z</time>
      </trkpt>
      <trkpt lat="59.8723405" lon="17.8195651">
        <ele>13.1151</ele>
        <time>2013-04-09T17:09:37Z</time>
      </trkpt>
      <trkpt lat="59.8723242" lon="17.8194422">
        <ele>12.6344</ele>
        <time>2013-04-09T17:09:38Z</time>
      </trkpt>
      <trkpt lat="59.8723089" lon="17.819321">
        <ele>12.1538</ele>
        <time>2013-04-09T17:09:39Z</time>
      </trkpt>
      <trkpt lat="59.8722949" lon="17.8192008">
        <ele>12.1538</ele>
        <time>2013-04-09T17:09:40Z</time>
      </trkpt>
      <trkpt lat="59.8722795" lon="17.8190816">
        <ele>11.6732</ele>
        <time>2013-04-09T17:09:41Z</time>
      </trkpt>
      <trkpt lat="59.8722648" lon="17.8189636">
        <ele>11.6732</ele>
        <time>2013-04-09T17:09:42Z</time>
      </trkpt>
      <trkpt lat="59.8722508" lon="17.8188476">
        <ele>11.1925</ele>
        <time>2013-04-09T17:09:43Z</time>
      </trkpt>
      <trkpt lat="59.8722374" lon="17.8187329">
        <ele>11.1925</ele>
        <time>2013-04-09T17:09:44Z</time>
      </trkpt>
      <trkpt lat="59.8722243" lon="17.8186174">
        <ele>11.1925</ele>
        <time>2013-04-09T17:09:45Z</time>
      </trkpt>
      <trkpt lat="59.8722114" lon="17.818502">
        <ele>11.1925</ele>
        <time>2013-04-09T17:09:46Z</time>
      </trkpt>
      <trkpt lat="59.8721999" lon="17.8183864">
        <ele>11.1925</ele>
        <time>2013-04-09T17:09:47Z</time>
      </trkpt>
      <trkpt lat="59.8721898" lon="17.8182696">
        <ele>11.6732</ele>
        <time>2013-04-09T17:09:48Z</time>
      </trkpt>
      <trkpt lat="59.8721778" lon="17.8181543">
        <ele>12.1538</ele>
        <time>2013-04-09T17:09:49Z</time>
      </trkpt>
      <trkpt lat="59.8721655" lon="17.8180393">
        <ele>12.1538</ele>
        <time>2013-04-09T17:09:50Z</time>
      </trkpt>
      <trkpt lat="59.872153" lon="17.817924">
        <ele>12.6344</ele>
        <time>2013-04-09T17:09:51Z</time>
      </trkpt>
      <trkpt lat="59.8721416" lon="17.8178122">
        <ele>13.1151</ele>
        <time>2013-04-09T17:09:52Z</time>
      </trkpt>
      <trkpt lat="59.8721289" lon="17.8177031">
        <ele>13.1151</ele>
        <time>2013-04-09T17:09:53Z</time>
      </trkpt>
      <trkpt lat="59.8721183" lon="17.8175949">
        <ele>13.1151</ele>
        <time>2013-04-09T17:09:54Z</time>
      </trkpt>
      <trkpt lat="59.8721083" lon="17.8174877">
        <ele>13.5958</ele>
        <time>2013-04-09T17:09:55Z</time>
      </trkpt>
      <trkpt lat="59.8720977" lon="17.8173817">
        <ele>13.1151</ele>
        <time>2013-04-09T17:09:56Z</time>
      </trkpt>
      <trkpt lat="59.8720898" lon="17.8172774">
        <ele>13.1151</ele>
        <time>2013-04-09T17:09:57Z</time>
      </trkpt>
      <trkpt lat="59.8720835" lon="17.8171734">
        <ele>13.1151</ele>
        <time>2013-04-09T17:09:58Z</time>
      </trkpt>
      <trkpt lat="59.8720766" lon="17.8170709">
        <ele>13.1151</ele>
        <time>2013-04-09T17:09:59Z</time>
      </trkpt>
      <trkpt lat="59.8720732" lon="17.8169707">
        <ele>13.5958</ele>
        <time>2013-04-09T17:10:00Z</time>
      </trkpt>
      <trkpt lat="59.872068" lon="17.8168727">
        <ele>13.5958</ele>
        <time>2013-04-09T17:10:01Z</time>
      </trkpt>
      <trkpt lat="59.8720601" lon="17.8167757">
        <ele>13.1151</ele>
        <time>2013-04-09T17:10:02Z</time>
      </trkpt>
      <trkpt lat="59.872053" lon="17.816678">
        <ele>13.1151</ele>
        <time>2013-04-09T17:10:03Z</time>
      </trkpt>
      <trkpt lat="59.8720478" lon="17.8165793">
        <ele>12.6344</ele>
        <time>2013-04-09T17:10:04Z</time>
      </trkpt>
      <trkpt lat="59.872042" lon="17.8164798">
        <ele>12.6344</ele>
        <time>2013-04-09T17:10:05Z</time>
      </trkpt>
      <trkpt lat="59.8720386" lon="17.8163798">
        <ele>12.6344</ele>
        <time>2013-04-09T17:10:06Z</time>
      </trkpt>
      <trkpt lat="59.8720314" lon="17.8162799">
        <ele>12.1538</ele>
        <time>2013-04-09T17:10:07Z</time>
      </trkpt>
      <trkpt lat="59.8720277" lon="17.8161774">
        <ele>12.1538</ele>
        <time>2013-04-09T17:10:08Z</time>
      </trkpt>
      <trkpt lat="59.8720238" lon="17.8160731">
        <ele>12.1538</ele>
        <time>2013-04-09T17:10:09Z</time>
      </trkpt>
      <trkpt lat="59.8720173" lon="17.8159686">
        <ele>11.6732</ele>
        <time>2013-04-09T17:10:10Z</time>
      </trkpt>
      <trkpt lat="59.8720137" lon="17.8158623">
        <ele>11.6732</ele>
        <time>2013-04-09T17:10:11Z</time>
      </trkpt>
      <trkpt lat="59.8720083" lon="17.815752">
        <ele>11.1925</ele>
        <time>2013-04-09T17:10:12Z</time>
      </trkpt>
      <trkpt lat="59.8720023" lon="17.8156366">
        <ele>11.1925</ele>
        <time>2013-04-09T17:10:13Z</time>
      </trkpt>
      <trkpt lat="59.8719991" lon="17.8155179">
        <ele>11.1925</ele>
        <time>2013-04-09T17:10:14Z</time>
      </trkpt>
      <trkpt lat="59.8719979" lon="17.8153967">
        <ele>11.1925</ele>
        <time>2013-04-09T17:10:15Z</time>
      </trkpt>
      <trkpt lat="59.8719976" lon="17.815274">
        <ele>11.1925</ele>
        <time>2013-04-09T17:10:16Z</time>
      </trkpt>
      <trkpt lat="59.8719972" lon="17.8151491">
        <ele>10.7118</ele>
        <time>2013-04-09T17:10:17Z</time>
      </trkpt>
      <trkpt lat="59.8719992" lon="17.8150214">
        <ele>11.1925</ele>
        <time>2013-04-09T17:10:18Z</time>
      </trkpt>
      <trkpt lat="59.8720067" lon="17.8148931">
        <ele>11.1925</ele>
        <time>2013-04-09T17:10:19Z</time>
      </trkpt>
      <trkpt lat="59.8720194" lon="17.8147676">
        <ele>11.6732</ele>
        <time>2013-04-09T17:10:20Z</time>
      </trkpt>
      <trkpt lat="59.8720357" lon="17.8146427">
        <ele>12.1538</ele>
        <time>2013-04-09T17:10:21Z</time>
      </trkpt>
      <trkpt lat="59.872051" lon="17.8145172">
        <ele>12.1538</ele>
        <time>2013-04-09T17:10:22Z</time>
      </trkpt>
      <trkpt lat="59.8720683" lon="17.8143923">
        <ele>12.6344</ele>
        <time>2013-04-09T17:10:23Z</time>
      </trkpt>
      <trkpt lat="59.8720868" lon="17.8142678">
        <ele>12.1538</ele>
        <time>2013-04-09T17:10:24Z</time>
      </trkpt>
      <trkpt lat="59.8721061" lon="17.8141419">
        <ele>12.6344</ele>
        <time>2013-04-09T17:10:25Z</time>
      </trkpt>
      <trkpt lat="59.872127" lon="17.8140141">
        <ele>12.6344</ele>
        <time>2013-04-09T17:10:26Z</time>
      </trkpt>
      <trkpt lat="59.8721494" lon="17.8138861">
        <ele>13.1151</ele>
        <time>2013-04-09T17:10:27Z</time>
      </trkpt>
      <trkpt lat="59.8721697" lon="17.8137574">
        <ele>13.1151</ele>
        <time>2013-04-09T17:10:28Z</time>
      </trkpt>
      <trkpt lat="59.8721912" lon="17.813629">
        <ele>13.1151</ele>
        <time>2013-04-09T17:10:29Z</time>
      </trkpt>
      <trkpt lat="59.8722131" lon="17.8135012">
        <ele>13.5958</ele>
        <time>2013-04-09T17:10:30Z</time>
      </trkpt>
      <trkpt lat="59.8722348" lon="17.8133739">
        <ele>13.5958</ele>
        <time>2013-04-09T17:10:31Z</time>
      </trkpt>
      <trkpt lat="59.8722561" lon="17.8132468">
        <ele>14.0764</ele>
        <time>2013-04-09T17:10:32Z</time>
      </trkpt>
      <trkpt lat="59.8722783" lon="17.813119">
        <ele>14.0764</ele>
        <time>2013-04-09T17:10:33Z</time>
      </trkpt>
      <trkpt lat="59.8723011" lon="17.8129895">
        <ele>14.557</ele>
        <time>2013-04-09T17:10:34Z</time>
      </trkpt>
      <trkpt lat="59.8723244" lon="17.8128584">
        <ele>14.557</ele>
        <time>2013-04-09T17:10:35Z</time>
      </trkpt>
      <trkpt lat="59.8723475" lon="17.8127261">
        <ele>14.557</ele>
        <time>2013-04-09T17:10:36Z</time>
      </trkpt>
      <trkpt lat="59.872368" lon="17.8125956">
        <ele>14.0764</ele>
        <time>2013-04-09T17:10:37Z</time>
      </trkpt>
      <trkpt lat="59.872389" lon="17.8124658">
        <ele>13.5958</ele>
        <time>2013-04-09T17:10:38Z</time>
      </trkpt>
      <trkpt lat="59.8724119" lon="17.8123384">
        <ele>13.1151</ele>
        <time>2013-04-09T17:10:39Z</time>
      </trkpt>
      <trkpt lat="59.8724352" lon="17.8122123">
        <ele>12.6344</ele>
        <time>2013-04-09T17:10:40Z</time>
      </trkpt>
      <trkpt lat="59.8724581" lon="17.812086">
        <ele>12.1538</ele>
        <time>2013-04-09T17:10:41Z</time>
      </trkpt>
      <trkpt lat="59.8724817" lon="17.8119601">
        <ele>11.6732</ele>
        <time>2013-04-09T17:10:42Z</time>
      </trkpt>
      <trkpt lat="59.8725063" lon="17.8118361">
        <ele>11.1925</ele>
        <time>2013-04-09T17:10:43Z</time>
      </trkpt>
      <trkpt lat="59.8725332" lon="17.8117141">
        <ele>10.7118</ele>
        <time>2013-04-09T17:10:44Z</time>
      </trkpt>
      <trkpt lat="59.8725604" lon="17.8115934">
        <ele>10.2312</ele>
        <time>2013-04-09T17:10:45Z</time>
      </trkpt>
      <trkpt lat="59.8725902" lon="17.8114804">
        <ele>9.75061</ele>
        <time>2013-04-09T17:10:46Z</time>
      </trkpt>
      <trkpt lat="59.8726213" lon="17.8113743">
        <ele>9.75061</ele>
        <time>2013-04-09T17:10:47Z</time>
      </trkpt>
      <trkpt lat="59.8726522" lon="17.8112703">
        <ele>9.2699</ele>
        <time>2013-04-09T17:10:48Z</time>
      </trkpt>
      <trkpt lat="59.872687" lon="17.8111676">
        <ele>9.75061</ele>
        <time>2013-04-09T17:10:49Z</time>
      </trkpt>
      <trkpt lat="59.8727181" lon="17.8110603">
        <ele>9.2699</ele>
        <time>2013-04-09T17:10:50Z</time>
      </trkpt>
      <trkpt lat="59.8727518" lon="17.8109586">
        <ele>9.2699</ele>
        <time>2013-04-09T17:10:51Z</time>
      </trkpt>
      <trkpt lat="59.8727848" lon="17.8108586">
        <ele>9.75061</ele>
        <time>2013-04-09T17:10:52Z</time>
      </trkpt>
      <trkpt lat="59.872815" lon="17.8107578">
        <ele>9.75061</ele>
        <time>2013-04-09T17:10:53Z</time>
      </trkpt>
      <trkpt lat="59.872846" lon="17.810662">
        <ele>10.7118</ele>
        <time>2013-04-09T17:10:54Z</time>
      </trkpt>
      <trkpt lat="59.8728723" lon="17.8105687">
        <ele>9.75061</ele>
        <time>2013-04-09T17:10:55Z</time>
      </trkpt>
      <trkpt lat="59.8728999" lon="17.8104774">
        <ele>9.75061</ele>
        <time>2013-04-09T17:10:56Z</time>
      </trkpt>
      <trkpt lat="59.8729288" lon="17.8103812">
        <ele>10.2312</ele>
        <time>2013-04-09T17:10:57Z</time>
      </trkpt>
      <trkpt lat="59.8729548" lon="17.8102833">
        <ele>10.7118</ele>
        <time>2013-04-09T17:10:58Z</time>
      </trkpt>
      <trkpt lat="59.8729813" lon="17.8101807">
        <ele>10.7118</ele>
        <time>2013-04-09T17:10:59Z</time>
      </trkpt>
      <trkpt lat="59.8730061" lon="17.8100709">
        <ele>10.7118</ele>
        <time>2013-04-09T17:11:00Z</time>
      </trkpt>
      <trkpt lat="59.8730323" lon="17.8099544">
        <ele>11.6732</ele>
        <time>2013-04-09T17:11:01Z</time>
      </trkpt>
      <trkpt lat="59.8730579" lon="17.8098348">
        <ele>12.6344</ele>
        <time>2013-04-09T17:11:02Z</time>
      </trkpt>
      <trkpt lat="59.8730827" lon="17.8097095">
        <ele>13.5958</ele>
        <time>2013-04-09T17:11:03Z</time>
      </trkpt>
      <trkpt lat="59.8731055" lon="17.8095833">
        <ele>13.5958</ele>
        <time>2013-04-09T17:11:04Z</time>
      </trkpt>
      <trkpt lat="59.873132" lon="17.8094587">
        <ele>15.0377</ele>
        <time>2013-04-09T17:11:05Z</time>
      </trkpt>
      <trkpt lat="59.8731539" lon="17.8093373">
        <ele>16.4797</ele>
        <time>2013-04-09T17:11:06Z</time>
      </trkpt>
      <trkpt lat="59.8731719" lon="17.8092178">
        <ele>17.4412</ele>
        <time>2013-04-09T17:11:07Z</time>
      </trkpt>
      <trkpt lat="59.8731885" lon="17.8091037">
        <ele>17.9218</ele>
        <time>2013-04-09T17:11:08Z</time>
      </trkpt>
      <trkpt lat="59.8732051" lon="17.808995">
        <ele>18.8831</ele>
        <time>2013-04-09T17:11:09Z</time>
      </trkpt>
      <trkpt lat="59.8732178" lon="17.808884">
        <ele>19.8444</ele>
        <time>2013-04-09T17:11:10Z</time>
      </trkpt>
      <trkpt lat="59.873228" lon="17.8087714">
        <ele>20.325</ele>
        <time>2013-04-09T17:11:11Z</time>
      </trkpt>
      <trkpt lat="59.8732402" lon="17.8086598">
        <ele>20.8057</ele>
        <time>2013-04-09T17:11:12Z</time>
      </trkpt>
      <trkpt lat="59.873253" lon="17.8085496">
        <ele>21.2864</ele>
        <time>2013-04-09T17:11:13Z</time>
      </trkpt>
      <trkpt lat="59.8732651" lon="17.8084407">
        <ele>21.2864</ele>
        <time>2013-04-09T17:11:14Z</time>
      </trkpt>
      <trkpt lat="59.873274" lon="17.8083249">
        <ele>21.2864</ele>
        <time>2013-04-09T17:11:15Z</time>
      </trkpt>
      <trkpt lat="59.8732828" lon="17.8082076">
        <ele>20.8057</ele>
        <time>2013-04-09T17:11:16Z</time>
      </trkpt>
      <trkpt lat="59.873291" lon="17.8080853">
        <ele>20.8057</ele>
        <time>2013-04-09T17:11:17Z</time>
      </trkpt>
      <trkpt lat="59.8733002" lon="17.8079574">
        <ele>20.325</ele>
        <time>2013-04-09T17:11:18Z</time>
      </trkpt>
      <trkpt lat="59.8733111" lon="17.8078264">
        <ele>19.8444</ele>
        <time>2013-04-09T17:11:19Z</time>
      </trkpt>
      <trkpt lat="59.8733237" lon="17.8076918">
        <ele>19.3638</ele>
        <time>2013-04-09T17:11:20Z</time>
      </trkpt>
      <trkpt lat="59.8733377" lon="17.8075548">
        <ele>18.8831</ele>
        <time>2013-04-09T17:11:21Z</time>
      </trkpt>
      <trkpt lat="59.8733532" lon="17.8074162">
        <ele>18.4023</ele>
        <time>2013-04-09T17:11:22Z</time>
      </trkpt>
      <trkpt lat="59.8733719" lon="17.8072773">
        <ele>18.4023</ele>
        <time>2013-04-09T17:11:23Z</time>
      </trkpt>
      <trkpt lat="59.873394" lon="17.8071395">
        <ele>17.9218</ele>
        <time>2013-04-09T17:11:24Z</time>
      </trkpt>
      <trkpt lat="59.873419" lon="17.8070021">
        <ele>17.4412</ele>
        <time>2013-04-09T17:11:25Z</time>
      </trkpt>
      <trkpt lat="59.8734459" lon="17.8068649">
        <ele>17.4412</ele>
        <time>2013-04-09T17:11:26Z</time>
      </trkpt>
      <trkpt lat="59.8734742" lon="17.8067298">
        <ele>16.9604</ele>
        <time>2013-04-09T17:11:27Z</time>
      </trkpt>
      <trkpt lat="59.8735055" lon="17.8065987">
        <ele>15.999</ele>
        <time>2013-04-09T17:11:28Z</time>
      </trkpt>
      <trkpt lat="59.8735388" lon="17.8064692">
        <ele>15.999</ele>
        <time>2013-04-09T17:11:29Z</time>
      </trkpt>
      <trkpt lat="59.8735729" lon="17.8063403">
        <ele>15.5184</ele>
        <time>2013-04-09T17:11:30Z</time>
      </trkpt>
      <trkpt lat="59.8736075" lon="17.8062138">
        <ele>15.0377</ele>
        <time>2013-04-09T17:11:31Z</time>
      </trkpt>
      <trkpt lat="59.8736441" lon="17.806089">
        <ele>14.557</ele>
        <time>2013-04-09T17:11:32Z</time>
      </trkpt>
      <trkpt lat="59.8736794" lon="17.8059642">
        <ele>14.0764</ele>
        <time>2013-04-09T17:11:33Z</time>
      </trkpt>
      <trkpt lat="59.8737144" lon="17.8058392">
        <ele>13.5958</ele>
        <time>2013-04-09T17:11:34Z</time>
      </trkpt>
      <trkpt lat="59.87375" lon="17.8057146">
        <ele>13.1151</ele>
        <time>2013-04-09T17:11:35Z</time>
      </trkpt>
      <trkpt lat="59.8737856" lon="17.8055911">
        <ele>13.1151</ele>
        <time>2013-04-09T17:11:36Z</time>
      </trkpt>
      <trkpt lat="59.8738218" lon="17.8054695">
        <ele>12.1538</ele>
        <time>2013-04-09T17:11:37Z</time>
      </trkpt>
      <trkpt lat="59.8738598" lon="17.805352">
        <ele>11.6732</ele>
        <time>2013-04-09T17:11:38Z</time>
      </trkpt>
      <trkpt lat="59.8738992" lon="17.8052386">
        <ele>11.1925</ele>
        <time>2013-04-09T17:11:39Z</time>
      </trkpt>
      <trkpt lat="59.8739427" lon="17.8051317">
        <ele>10.7118</ele>
        <time>2013-04-09T17:11:40Z</time>
      </trkpt>
      <trkpt lat="59.8739879" lon="17.8050287">
        <ele>10.2312</ele>
        <time>2013-04-09T17:11:41Z</time>
      </trkpt>
      <trkpt lat="59.8740344" lon="17.8049277">
        <ele>10.2312</ele>
        <time>2013-04-09T17:11:42Z</time>
      </trkpt>
      <trkpt lat="59.8740789" lon="17.8048261">
        <ele>10.2312</ele>
        <time>2013-04-09T17:11:43Z</time>
      </trkpt>
      <trkpt lat="59.874124" lon="17.8047277">
        <ele>10.2312</ele>
        <time>2013-04-09T17:11:44Z</time>
      </trkpt>
      <trkpt lat="59.8741691" lon="17.8046319">
        <ele>10.2312</ele>
        <time>2013-04-09T17:11:45Z</time>
      </trkpt>
      <trkpt lat="59.8742114" lon="17.8045324">
        <ele>9.75061</ele>
        <time>2013-04-09T17:11:46Z</time>
      </trkpt>
      <trkpt lat="59.8742543" lon="17.8044317">
        <ele>10.2312</ele>
        <time>2013-04-09T17:11:47Z</time>
      </trkpt>
      <trkpt lat="59.8742955" lon="17.8043313">
        <ele>11.1925</ele>
        <time>2013-04-09T17:11:48Z</time>
      </trkpt>
      <trkpt lat="59.8743343" lon="17.80423">
        <ele>11.6732</ele>
        <time>2013-04-09T17:11:49Z</time>
      </trkpt>
      <trkpt lat="59.8743701" lon="17.8041284">
        <ele>11.6732</ele>
        <time>2013-04-09T17:11:50Z</time>
      </trkpt>
      <trkpt lat="59.8744089" lon="17.804032">
        <ele>12.6344</ele>
        <time>2013-04-09T17:11:51Z</time>
      </trkpt>
      <trkpt lat="59.8744398" lon="17.8039289">
        <ele>12.1538</ele>
        <time>2013-04-09T17:11:52Z</time>
      </trkpt>
      <trkpt lat="59.8744711" lon="17.8038275">
        <ele>12.1538</ele>
        <time>2013-04-09T17:11:53Z</time>
      </trkpt>
      <trkpt lat="59.8745016" lon="17.8037262">
        <ele>12.1538</ele>
        <time>2013-04-09T17:11:54Z</time>
      </trkpt>
      <trkpt lat="59.8745306" lon="17.8036231">
        <ele>11.6732</ele>
        <time>2013-04-09T17:11:55Z</time>
      </trkpt>
      <trkpt lat="59.874557" lon="17.8035197">
        <ele>11.1925</ele>
        <time>2013-04-09T17:11:56Z</time>
      </trkpt>
      <trkpt lat="59.8745848" lon="17.8034166">
        <ele>10.2312</ele>
        <time>2013-04-09T17:11:57Z</time>
      </trkpt>
      <trkpt lat="59.8746167" lon="17.8033145">
        <ele>10.2312</ele>
        <time>2013-04-09T17:11:58Z</time>
      </trkpt>
      <trkpt lat="59.8746488" lon="17.803211">
        <ele>10.2312</ele>
        <time>2013-04-09T17:11:59Z</time>
      </trkpt>
      <trkpt lat="59.8746819" lon="17.8031057">
        <ele>10.2312</ele>
        <time>2013-04-09T17:12:00Z</time>
      </trkpt>
      <trkpt lat="59.8747171" lon="17.8030005">
        <ele>10.2312</ele>
        <time>2013-04-09T17:12:01Z</time>
      </trkpt>
      <trkpt lat="59.8747555" lon="17.8028965">
        <ele>10.2312</ele>
        <time>2013-04-09T17:12:02Z</time>
      </trkpt>
      <trkpt lat="59.8747977" lon="17.802794">
        <ele>10.2312</ele>
        <time>2013-04-09T17:12:03Z</time>
      </trkpt>
      <trkpt lat="59.8748435" lon="17.8026954">
        <ele>10.7118</ele>
        <time>2013-04-09T17:12:04Z</time>
      </trkpt>
      <trkpt lat="59.87489" lon="17.8025992">
        <ele>11.1925</ele>
        <time>2013-04-09T17:12:05Z</time>
      </trkpt>
      <trkpt lat="59.8749353" lon="17.8025061">
        <ele>11.6732</ele>
        <time>2013-04-09T17:12:06Z</time>
      </trkpt>
      <trkpt lat="59.8749777" lon="17.8024132">
        <ele>12.1538</ele>
        <time>2013-04-09T17:12:07Z</time>
      </trkpt>
      <trkpt lat="59.8750163" lon="17.8023221">
        <ele>12.6344</ele>
        <time>2013-04-09T17:12:08Z</time>
      </trkpt>
      <trkpt lat="59.875051" lon="17.8022324">
        <ele>13.1151</ele>
        <time>2013-04-09T17:12:09Z</time>
      </trkpt>
      <trkpt lat="59.8750857" lon="17.8021443">
        <ele>13.5958</ele>
        <time>2013-04-09T17:12:10Z</time>
      </trkpt>
      <trkpt lat="59.8751191" lon="17.8020579">
        <ele>14.557</ele>
        <time>2013-04-09T17:12:11Z</time>
      </trkpt>
      <trkpt lat="59.8751484" lon="17.8019702">
        <ele>15.5184</ele>
        <time>2013-04-09T17:12:12Z</time>
      </trkpt>
      <trkpt lat="59.8751752" lon="17.8018819">
        <ele>16.4797</ele>
        <time>2013-04-09T17:12:13Z</time>
      </trkpt>
      <trkpt lat="59.8752007" lon="17.8017936">
        <ele>16.9604</ele>
        <time>2013-04-09T17:12:14Z</time>
      </trkpt>
      <trkpt lat="59.8752225" lon="17.8017019">
        <ele>16.9604</ele>
        <time>2013-04-09T17:12:15Z</time>
      </trkpt>
      <trkpt lat="59.8752429" lon="17.8016101">
        <ele>16.9604</ele>
        <time>2013-04-09T17:12:16Z</time>
      </trkpt>
      <trkpt lat="59.8752636" lon="17.8015213">
        <ele>16.9604</ele>
        <time>2013-04-09T17:12:17Z</time>
      </trkpt>
      <trkpt lat="59.8752837" lon="17.8014322">
        <ele>16.9604</ele>
        <time>2013-04-09T17:12:18Z</time>
      </trkpt>
      <trkpt lat="59.8753025" lon="17.801342">
        <ele>16.9604</ele>
        <time>2013-04-09T17:12:19Z</time>
      </trkpt>
      <trkpt lat="59.8753206" lon="17.8012506">
        <ele>16.9604</ele>
        <time>2013-04-09T17:12:20Z</time>
      </trkpt>
      <trkpt lat="59.8753394" lon="17.8011629">
        <ele>17.4412</ele>
        <time>2013-04-09T17:12:21Z</time>
      </trkpt>
      <trkpt lat="59.8753559" lon="17.8010794">
        <ele>16.4797</ele>
        <time>2013-04-09T17:12:22Z</time>
      </trkpt>
      <trkpt lat="59.8753725" lon="17.8010009">
        <ele>16.4797</ele>
        <time>2013-04-09T17:12:23Z</time>
      </trkpt>
      <trkpt lat="59.8753869" lon="17.8009264">
        <ele>15.5184</ele>
        <time>2013-04-09T17:12:24Z</time>
      </trkpt>
      <trkpt lat="59.8754019" lon="17.8008524">
        <ele>15.0377</ele>
        <time>2013-04-09T17:12:25Z</time>
      </trkpt>
      <trkpt lat="59.8754201" lon="17.8007773">
        <ele>14.557</ele>
        <time>2013-04-09T17:12:26Z</time>
      </trkpt>
      <trkpt lat="59.8754382" lon="17.8007001">
        <ele>14.557</ele>
        <time>2013-04-09T17:12:27Z</time>
      </trkpt>
      <trkpt lat="59.8754584" lon="17.8006195">
        <ele>14.557</ele>
        <time>2013-04-09T17:12:28Z</time>
      </trkpt>
      <trkpt lat="59.8754791" lon="17.8005368">
        <ele>14.557</ele>
        <time>2013-04-09T17:12:29Z</time>
      </trkpt>
      <trkpt lat="59.8754996" lon="17.8004536">
        <ele>14.0764</ele>
        <time>2013-04-09T17:12:30Z</time>
      </trkpt>
      <trkpt lat="59.875519" lon="17.80037">
        <ele>14.0764</ele>
        <time>2013-04-09T17:12:31Z</time>
      </trkpt>
      <trkpt lat="59.8755392" lon="17.8002859">
        <ele>14.0764</ele>
        <time>2013-04-09T17:12:32Z</time>
      </trkpt>
      <trkpt lat="59.8755592" lon="17.8002022">
        <ele>14.0764</ele>
        <time>2013-04-09T17:12:33Z</time>
      </trkpt>
      <trkpt lat="59.8755799" lon="17.800117">
        <ele>14.0764</ele>
        <time>2013-04-09T17:12:34Z</time>
      </trkpt>
      <trkpt lat="59.8756028" lon="17.800034">
        <ele>14.557</ele>
        <time>2013-04-09T17:12:35Z</time>
      </trkpt>
      <trkpt lat="59.8756243" lon="17.7999507">
        <ele>14.557</ele>
        <time>2013-04-09T17:12:36Z</time>
      </trkpt>
      <trkpt lat="59.8756462" lon="17.7998682">
        <ele>14.557</ele>
        <time>2013-04-09T17:12:37Z</time>
      </trkpt>
      <trkpt lat="59.8756677" lon="17.7997869">
        <ele>14.0764</ele>
        <time>2013-04-09T17:12:38Z</time>
      </trkpt>
      <trkpt lat="59.8756952" lon="17.7997102">
        <ele>15.0377</ele>
        <time>2013-04-09T17:12:39Z</time>
      </trkpt>
      <trkpt lat="59.8757237" lon="17.7996351">
        <ele>15.5184</ele>
        <time>2013-04-09T17:12:40Z</time>
      </trkpt>
      <trkpt lat="59.8757547" lon="17.7995636">
        <ele>16.4797</ele>
        <time>2013-04-09T17:12:41Z</time>
      </trkpt>
      <trkpt lat="59.8757837" lon="17.7994956">
        <ele>16.9604</ele>
        <time>2013-04-09T17:12:42Z</time>
      </trkpt>
      <trkpt lat="59.8758159" lon="17.7994357">
        <ele>17.4412</ele>
        <time>2013-04-09T17:12:43Z</time>
      </trkpt>
      <trkpt lat="59.8758443" lon="17.7993724">
        <ele>17.9218</ele>
        <time>2013-04-09T17:12:44Z</time>
      </trkpt>
      <trkpt lat="59.8758733" lon="17.7993061">
        <ele>18.8831</ele>
        <time>2013-04-09T17:12:45Z</time>
      </trkpt>
      <trkpt lat="59.8758992" lon="17.7992351">
        <ele>17.9218</ele>
        <time>2013-04-09T17:12:46Z</time>
      </trkpt>
      <trkpt lat="59.8759292" lon="17.799173">
        <ele>18.4023</ele>
        <time>2013-04-09T17:12:47Z</time>
      </trkpt>
      <trkpt lat="59.8759591" lon="17.7991081">
        <ele>18.4023</ele>
        <time>2013-04-09T17:12:48Z</time>
      </trkpt>
      <trkpt lat="59.8759883" lon="17.7990394">
        <ele>18.4023</ele>
        <time>2013-04-09T17:12:49Z</time>
      </trkpt>
      <trkpt lat="59.8760173" lon="17.7989662">
        <ele>18.4023</ele>
        <time>2013-04-09T17:12:50Z</time>
      </trkpt>
      <trkpt lat="59.8760427" lon="17.7988823">
        <ele>17.9218</ele>
        <time>2013-04-09T17:12:51Z</time>
      </trkpt>
      <trkpt lat="59.8760686" lon="17.798795">
        <ele>17.4412</ele>
        <time>2013-04-09T17:12:52Z</time>
      </trkpt>
      <trkpt lat="59.8760943" lon="17.798707">
        <ele>16.9604</ele>
        <time>2013-04-09T17:12:53Z</time>
      </trkpt>
      <trkpt lat="59.8761224" lon="17.7986219">
        <ele>16.4797</ele>
        <time>2013-04-09T17:12:54Z</time>
      </trkpt>
      <trkpt lat="59.8761498" lon="17.7985345">
        <ele>16.4797</ele>
        <time>2013-04-09T17:12:55Z</time>
      </trkpt>
      <trkpt lat="59.8761757" lon="17.7984453">
        <ele>15.999</ele>
        <time>2013-04-09T17:12:56Z</time>
      </trkpt>
      <trkpt lat="59.8762017" lon="17.7983552">
        <ele>15.5184</ele>
        <time>2013-04-09T17:12:57Z</time>
      </trkpt>
      <trkpt lat="59.8762264" lon="17.7982645">
        <ele>15.0377</ele>
        <time>2013-04-09T17:12:58Z</time>
      </trkpt>
      <trkpt lat="59.8762519" lon="17.7981739">
        <ele>14.557</ele>
        <time>2013-04-09T17:12:59Z</time>
      </trkpt>
      <trkpt lat="59.8762823" lon="17.7980852">
        <ele>15.5184</ele>
        <time>2013-04-09T17:13:00Z</time>
      </trkpt>
      <trkpt lat="59.876312" lon="17.7979967">
        <ele>15.999</ele>
        <time>2013-04-09T17:13:01Z</time>
      </trkpt>
      <trkpt lat="59.8763442" lon="17.7979055">
        <ele>16.9604</ele>
        <time>2013-04-09T17:13:02Z</time>
      </trkpt>
      <trkpt lat="59.8763753" lon="17.7978121">
        <ele>18.4023</ele>
        <time>2013-04-09T17:13:03Z</time>
      </trkpt>
      <trkpt lat="59.8764041" lon="17.7977191">
        <ele>18.8831</ele>
        <time>2013-04-09T17:13:04Z</time>
      </trkpt>
      <trkpt lat="59.8764326" lon="17.7976294">
        <ele>19.8444</ele>
        <time>2013-04-09T17:13:05Z</time>
      </trkpt>
      <trkpt lat="59.8764597" lon="17.7975433">
        <ele>20.325</ele>
        <time>2013-04-09T17:13:06Z</time>
      </trkpt>
      <trkpt lat="59.8764856" lon="17.7974584">
        <ele>20.325</ele>
        <time>2013-04-09T17:13:07Z</time>
      </trkpt>
      <trkpt lat="59.8765144" lon="17.7973809">
        <ele>21.2864</ele>
        <time>2013-04-09T17:13:08Z</time>
      </trkpt>
      <trkpt lat="59.8765391" lon="17.7973031">
        <ele>21.767</ele>
        <time>2013-04-09T17:13:09Z</time>
      </trkpt>
      <trkpt lat="59.8765588" lon="17.7972242">
        <ele>20.8057</ele>
        <time>2013-04-09T17:13:10Z</time>
      </trkpt>
      <trkpt lat="59.8765839" lon="17.7971493">
        <ele>21.2864</ele>
        <time>2013-04-09T17:13:11Z</time>
      </trkpt>
      <trkpt lat="59.8766083" lon="17.7970725">
        <ele>21.2864</ele>
        <time>2013-04-09T17:13:12Z</time>
      </trkpt>
      <trkpt lat="59.8766318" lon="17.7969916">
        <ele>21.2864</ele>
        <time>2013-04-09T17:13:13Z</time>
      </trkpt>
      <trkpt lat="59.8766538" lon="17.7969089">
        <ele>20.8057</ele>
        <time>2013-04-09T17:13:14Z</time>
      </trkpt>
      <trkpt lat="59.8766752" lon="17.7968289">
        <ele>20.325</ele>
        <time>2013-04-09T17:13:15Z</time>
      </trkpt>
      <trkpt lat="59.8766963" lon="17.7967492">
        <ele>19.8444</ele>
        <time>2013-04-09T17:13:16Z</time>
      </trkpt>
      <trkpt lat="59.8767172" lon="17.7966681">
        <ele>19.3638</ele>
        <time>2013-04-09T17:13:17Z</time>
      </trkpt>
      <trkpt lat="59.8767367" lon="17.7965842">
        <ele>18.4023</ele>
        <time>2013-04-09T17:13:18Z</time>
      </trkpt>
      <trkpt lat="59.8767579" lon="17.7964991">
        <ele>17.4412</ele>
        <time>2013-04-09T17:13:19Z</time>
      </trkpt>
      <trkpt lat="59.8767791" lon="17.7964119">
        <ele>16.9604</ele>
        <time>2013-04-09T17:13:20Z</time>
      </trkpt>
      <trkpt lat="59.8768021" lon="17.7963205">
        <ele>16.4797</ele>
        <time>2013-04-09T17:13:21Z</time>
      </trkpt>
      <trkpt lat="59.8768285" lon="17.7962264">
        <ele>16.4797</ele>
        <time>2013-04-09T17:13:22Z</time>
      </trkpt>
      <trkpt lat="59.8768523" lon="17.7961314">
        <ele>15.5184</ele>
        <time>2013-04-09T17:13:23Z</time>
      </trkpt>
      <trkpt lat="59.8768767" lon="17.7960359">
        <ele>15.0377</ele>
        <time>2013-04-09T17:13:24Z</time>
      </trkpt>
      <trkpt lat="59.8769021" lon="17.7959372">
        <ele>15.0377</ele>
        <time>2013-04-09T17:13:25Z</time>
      </trkpt>
      <trkpt lat="59.8769286" lon="17.7958371">
        <ele>14.557</ele>
        <time>2013-04-09T17:13:26Z</time>
      </trkpt>
      <trkpt lat="59.876957" lon="17.7957366">
        <ele>14.0764</ele>
        <time>2013-04-09T17:13:27Z</time>
      </trkpt>
      <trkpt lat="59.8769853" lon="17.7956346">
        <ele>13.5958</ele>
        <time>2013-04-09T17:13:28Z</time>
      </trkpt>
      <trkpt lat="59.8770136" lon="17.7955315">
        <ele>13.5958</ele>
        <time>2013-04-09T17:13:29Z</time>
      </trkpt>
      <trkpt lat="59.877043" lon="17.7954285">
        <ele>13.1151</ele>
        <time>2013-04-09T17:13:30Z</time>
      </trkpt>
      <trkpt lat="59.8770726" lon="17.7953256">
        <ele>12.6344</ele>
        <time>2013-04-09T17:13:31Z</time>
      </trkpt>
      <trkpt lat="59.8771031" lon="17.7952231">
        <ele>12.6344</ele>
        <time>2013-04-09T17:13:32Z</time>
      </trkpt>
      <trkpt lat="59.8771329" lon="17.795121">
        <ele>12.6344</ele>
        <time>2013-04-09T17:13:33Z</time>
      </trkpt>
      <trkpt lat="59.8771621" lon="17.7950206">
        <ele>12.6344</ele>
        <time>2013-04-09T17:13:34Z</time>
      </trkpt>
      <trkpt lat="59.8771901" lon="17.7949211">
        <ele>12.6344</ele>
        <time>2013-04-09T17:13:35Z</time>
      </trkpt>
      <trkpt lat="59.8772186" lon="17.7948228">
        <ele>12.6344</ele>
        <time>2013-04-09T17:13:36Z</time>
      </trkpt>
      <trkpt lat="59.8772495" lon="17.7947261">
        <ele>13.1151</ele>
        <time>2013-04-09T17:13:37Z</time>
      </trkpt>
      <trkpt lat="59.8772787" lon="17.7946307">
        <ele>13.1151</ele>
        <time>2013-04-09T17:13:38Z</time>
      </trkpt>
      <trkpt lat="59.8773103" lon="17.7945369">
        <ele>13.5958</ele>
        <time>2013-04-09T17:13:39Z</time>
      </trkpt>
      <trkpt lat="59.8773432" lon="17.7944414">
        <ele>14.0764</ele>
        <time>2013-04-09T17:13:40Z</time>
      </trkpt>
      <trkpt lat="59.8773723" lon="17.7943458">
        <ele>14.0764</ele>
        <time>2013-04-09T17:13:41Z</time>
      </trkpt>
      <trkpt lat="59.8773994" lon="17.7942473">
        <ele>14.0764</ele>
        <time>2013-04-09T17:13:42Z</time>
      </trkpt>
      <trkpt lat="59.8774293" lon="17.7941463">
        <ele>14.557</ele>
        <time>2013-04-09T17:13:43Z</time>
      </trkpt>
      <trkpt lat="59.8774589" lon="17.7940453">
        <ele>14.557</ele>
        <time>2013-04-09T17:13:44Z</time>
      </trkpt>
      <trkpt lat="59.8774852" lon="17.7939457">
        <ele>14.557</ele>
        <time>2013-04-09T17:13:45Z</time>
      </trkpt>
      <trkpt lat="59.8775122" lon="17.7938479">
        <ele>14.0764</ele>
        <time>2013-04-09T17:13:46Z</time>
      </trkpt>
      <trkpt lat="59.877537" lon="17.7937488">
        <ele>14.0764</ele>
        <time>2013-04-09T17:13:47Z</time>
      </trkpt>
      <trkpt lat="59.87756" lon="17.7936441">
        <ele>14.0764</ele>
        <time>2013-04-09T17:13:48Z</time>
      </trkpt>
      <trkpt lat="59.8775841" lon="17.79353">
        <ele>15.5184</ele>
        <time>2013-04-09T17:13:49Z</time>
      </trkpt>
      <trkpt lat="59.8776066" lon="17.7934132">
        <ele>16.4797</ele>
        <time>2013-04-09T17:13:50Z</time>
      </trkpt>
      <trkpt lat="59.8776255" lon="17.7932932">
        <ele>16.9604</ele>
        <time>2013-04-09T17:13:51Z</time>
      </trkpt>
      <trkpt lat="59.8776414" lon="17.7931698">
        <ele>17.4412</ele>
        <time>2013-04-09T17:13:52Z</time>
      </trkpt>
      <trkpt lat="59.8776562" lon="17.7930441">
        <ele>17.4412</ele>
        <time>2013-04-09T17:13:53Z</time>
      </trkpt>
      <trkpt lat="59.8776704" lon="17.7929184">
        <ele>17.4412</ele>
        <time>2013-04-09T17:13:54Z</time>
      </trkpt>
      <trkpt lat="59.8776833" lon="17.7927925">
        <ele>17.4412</ele>
        <time>2013-04-09T17:13:55Z</time>
      </trkpt>
      <trkpt lat="59.8776945" lon="17.7926653">
        <ele>17.4412</ele>
        <time>2013-04-09T17:13:56Z</time>
      </trkpt>
      <trkpt lat="59.8777048" lon="17.7925363">
        <ele>17.4412</ele>
        <time>2013-04-09T17:13:57Z</time>
      </trkpt>
      <trkpt lat="59.8777128" lon="17.7924074">
        <ele>17.9218</ele>
        <time>2013-04-09T17:13:58Z</time>
      </trkpt>
      <trkpt lat="59.8777194" lon="17.7922778">
        <ele>17.9218</ele>
        <time>2013-04-09T17:13:59Z</time>
      </trkpt>
      <trkpt lat="59.877726" lon="17.7921477">
        <ele>17.9218</ele>
        <time>2013-04-09T17:14:00Z</time>
      </trkpt>
      <trkpt lat="59.8777302" lon="17.7920171">
        <ele>17.9218</ele>
        <time>2013-04-09T17:14:01Z</time>
      </trkpt>
      <trkpt lat="59.8777315" lon="17.7918857">
        <ele>18.4023</ele>
        <time>2013-04-09T17:14:02Z</time>
      </trkpt>
      <trkpt lat="59.8777312" lon="17.7917542">
        <ele>18.4023</ele>
        <time>2013-04-09T17:14:03Z</time>
      </trkpt>
      <trkpt lat="59.8777299" lon="17.7916216">
        <ele>18.4023</ele>
        <time>2013-04-09T17:14:04Z</time>
      </trkpt>
      <trkpt lat="59.8777277" lon="17.7914869">
        <ele>18.4023</ele>
        <time>2013-04-09T17:14:05Z</time>
      </trkpt>
      <trkpt lat="59.8777246" lon="17.7913509">
        <ele>18.8831</ele>
        <time>2013-04-09T17:14:06Z</time>
      </trkpt>
      <trkpt lat="59.8777231" lon="17.7912144">
        <ele>19.3638</ele>
        <time>2013-04-09T17:14:07Z</time>
      </trkpt>
      <trkpt lat="59.8777195" lon="17.7910767">
        <ele>19.3638</ele>
        <time>2013-04-09T17:14:08Z</time>
      </trkpt>
      <trkpt lat="59.8777155" lon="17.7909388">
        <ele>19.3638</ele>
        <time>2013-04-09T17:14:09Z</time>
      </trkpt>
      <trkpt lat="59.8777137" lon="17.7907994">
        <ele>19.8444</ele>
        <time>2013-04-09T17:14:10Z</time>
      </trkpt>
      <trkpt lat="59.8777117" lon="17.790658">
        <ele>19.8444</ele>
        <time>2013-04-09T17:14:11Z</time>
      </trkpt>
      <trkpt lat="59.8777084" lon="17.790515">
        <ele>19.3638</ele>
        <time>2013-04-09T17:14:12Z</time>
      </trkpt>
      <trkpt lat="59.8777065" lon="17.790371">
        <ele>19.3638</ele>
        <time>2013-04-09T17:14:13Z</time>
      </trkpt>
      <trkpt lat="59.8777071" lon="17.790226">
        <ele>19.3638</ele>
        <time>2013-04-09T17:14:14Z</time>
      </trkpt>
      <trkpt lat="59.8777071" lon="17.7900794">
        <ele>19.3638</ele>
        <time>2013-04-09T17:14:15Z</time>
      </trkpt>
      <trkpt lat="59.8777051" lon="17.7899316">
        <ele>19.3638</ele>
        <time>2013-04-09T17:14:16Z</time>
      </trkpt>
      <trkpt lat="59.8777013" lon="17.7897837">
        <ele>19.3638</ele>
        <time>2013-04-09T17:14:17Z</time>
      </trkpt>
      <trkpt lat="59.8776952" lon="17.7896365">
        <ele>19.3638</ele>
        <time>2013-04-09T17:14:18Z</time>
      </trkpt>
      <trkpt lat="59.8776879" lon="17.78949">
        <ele>19.3638</ele>
        <time>2013-04-09T17:14:19Z</time>
      </trkpt>
      <trkpt lat="59.8776799" lon="17.7893447">
        <ele>19.3638</ele>
        <time>2013-04-09T17:14:20Z</time>
      </trkpt>
      <trkpt lat="59.8776702" lon="17.7892014">
        <ele>19.3638</ele>
        <time>2013-04-09T17:14:21Z</time>
      </trkpt>
      <trkpt lat="59.8776616" lon="17.7890603">
        <ele>19.8444</ele>
        <time>2013-04-09T17:14:22Z</time>
      </trkpt>
      <trkpt lat="59.8776559" lon="17.7889207">
        <ele>19.8444</ele>
        <time>2013-04-09T17:14:23Z</time>
      </trkpt>
      <trkpt lat="59.8776547" lon="17.7887829">
        <ele>19.8444</ele>
        <time>2013-04-09T17:14:24Z</time>
      </trkpt>
      <trkpt lat="59.8776584" lon="17.7886466">
        <ele>19.8444</ele>
        <time>2013-04-09T17:14:25Z</time>
      </trkpt>
      <trkpt lat="59.8776692" lon="17.7885129">
        <ele>20.8057</ele>
        <time>2013-04-09T17:14:26Z</time>
      </trkpt>
      <trkpt lat="59.8776817" lon="17.7883813">
        <ele>20.325</ele>
        <time>2013-04-09T17:14:27Z</time>
      </trkpt>
      <trkpt lat="59.8776998" lon="17.7882539">
        <ele>20.325</ele>
        <time>2013-04-09T17:14:28Z</time>
      </trkpt>
      <trkpt lat="59.8777229" lon="17.7881306">
        <ele>20.325</ele>
        <time>2013-04-09T17:14:29Z</time>
      </trkpt>
      <trkpt lat="59.8777462" lon="17.7880083">
        <ele>19.8444</ele>
        <time>2013-04-09T17:14:30Z</time>
      </trkpt>
      <trkpt lat="59.8777685" lon="17.7878855">
        <ele>19.3638</ele>
        <time>2013-04-09T17:14:31Z</time>
      </trkpt>
      <trkpt lat="59.8777906" lon="17.7877617">
        <ele>18.4023</ele>
        <time>2013-04-09T17:14:32Z</time>
      </trkpt>
      <trkpt lat="59.877824" lon="17.7876402">
        <ele>18.8831</ele>
        <time>2013-04-09T17:14:33Z</time>
      </trkpt>
      <trkpt lat="59.8778582" lon="17.7875198">
        <ele>18.8831</ele>
        <time>2013-04-09T17:14:34Z</time>
      </trkpt>
      <trkpt lat="59.8778932" lon="17.7873957">
        <ele>19.3638</ele>
        <time>2013-04-09T17:14:35Z</time>
      </trkpt>
      <trkpt lat="59.8779252" lon="17.7872669">
        <ele>19.3638</ele>
        <time>2013-04-09T17:14:36Z</time>
      </trkpt>
      <trkpt lat="59.8779516" lon="17.787135">
        <ele>18.4023</ele>
        <time>2013-04-09T17:14:37Z</time>
      </trkpt>
      <trkpt lat="59.8779785" lon="17.7870045">
        <ele>17.4412</ele>
        <time>2013-04-09T17:14:38Z</time>
      </trkpt>
      <trkpt lat="59.8780102" lon="17.7868758">
        <ele>17.4412</ele>
        <time>2013-04-09T17:14:39Z</time>
      </trkpt>
      <trkpt lat="59.87804" lon="17.7867443">
        <ele>17.4412</ele>
        <time>2013-04-09T17:14:40Z</time>
      </trkpt>
      <trkpt lat="59.8780649" lon="17.7866104">
        <ele>17.4412</ele>
        <time>2013-04-09T17:14:41Z</time>
      </trkpt>
      <trkpt lat="59.8780907" lon="17.7864756">
        <ele>16.9604</ele>
        <time>2013-04-09T17:14:42Z</time>
      </trkpt>
      <trkpt lat="59.8781174" lon="17.7863423">
        <ele>16.9604</ele>
        <time>2013-04-09T17:14:43Z</time>
      </trkpt>
      <trkpt lat="59.8781441" lon="17.7862047">
        <ele>16.9604</ele>
        <time>2013-04-09T17:14:44Z</time>
      </trkpt>
      <trkpt lat="59.8781712" lon="17.7860674">
        <ele>16.9604</ele>
        <time>2013-04-09T17:14:45Z</time>
      </trkpt>
      <trkpt lat="59.8781976" lon="17.78593">
        <ele>16.9604</ele>
        <time>2013-04-09T17:14:46Z</time>
      </trkpt>
      <trkpt lat="59.8782225" lon="17.7857925">
        <ele>16.9604</ele>
        <time>2013-04-09T17:14:47Z</time>
      </trkpt>
      <trkpt lat="59.8782463" lon="17.7856562">
        <ele>16.9604</ele>
        <time>2013-04-09T17:14:48Z</time>
      </trkpt>
      <trkpt lat="59.8782707" lon="17.7855224">
        <ele>16.9604</ele>
        <time>2013-04-09T17:14:49Z</time>
      </trkpt>
      <trkpt lat="59.8782946" lon="17.7853893">
        <ele>16.9604</ele>
        <time>2013-04-09T17:14:50Z</time>
      </trkpt>
      <trkpt lat="59.8783184" lon="17.7852572">
        <ele>16.9604</ele>
        <time>2013-04-09T17:14:51Z</time>
      </trkpt>
      <trkpt lat="59.8783428" lon="17.7851272">
        <ele>16.9604</ele>
        <time>2013-04-09T17:14:52Z</time>
      </trkpt>
      <trkpt lat="59.8783674" lon="17.7849986">
        <ele>16.9604</ele>
        <time>2013-04-09T17:14:53Z</time>
      </trkpt>
      <trkpt lat="59.878394" lon="17.7848719">
        <ele>17.4412</ele>
        <time>2013-04-09T17:14:54Z</time>
      </trkpt>
      <trkpt lat="59.878425" lon="17.7847481">
        <ele>17.4412</ele>
        <time>2013-04-09T17:14:55Z</time>
      </trkpt>
      <trkpt lat="59.8784613" lon="17.7846292">
        <ele>16.9604</ele>
        <time>2013-04-09T17:14:56Z</time>
      </trkpt>
      <trkpt lat="59.8785031" lon="17.7845168">
        <ele>16.9604</ele>
        <time>2013-04-09T17:14:57Z</time>
      </trkpt>
      <trkpt lat="59.8785498" lon="17.7844124">
        <ele>16.4797</ele>
        <time>2013-04-09T17:14:58Z</time>
      </trkpt>
      <trkpt lat="59.8786" lon="17.784318">
        <ele>16.4797</ele>
        <time>2013-04-09T17:14:59Z</time>
      </trkpt>
      <trkpt lat="59.8786507" lon="17.7842316">
        <ele>16.4797</ele>
        <time>2013-04-09T17:15:00Z</time>
      </trkpt>
      <trkpt lat="59.8787023" lon="17.7841508">
        <ele>16.4797</ele>
        <time>2013-04-09T17:15:01Z</time>
      </trkpt>
      <trkpt lat="59.8787528" lon="17.784068">
        <ele>16.9604</ele>
        <time>2013-04-09T17:15:02Z</time>
      </trkpt>
      <trkpt lat="59.8788032" lon="17.7839891">
        <ele>17.4412</ele>
        <time>2013-04-09T17:15:03Z</time>
      </trkpt>
      <trkpt lat="59.8788522" lon="17.7839093">
        <ele>17.9218</ele>
        <time>2013-04-09T17:15:04Z</time>
      </trkpt>
      <trkpt lat="59.878902" lon="17.7838327">
        <ele>18.4023</ele>
        <time>2013-04-09T17:15:05Z</time>
      </trkpt>
      <trkpt lat="59.8789514" lon="17.7837575">
        <ele>18.4023</ele>
        <time>2013-04-09T17:15:06Z</time>
      </trkpt>
      <trkpt lat="59.8790004" lon="17.7836814">
        <ele>18.4023</ele>
        <time>2013-04-09T17:15:07Z</time>
      </trkpt>
      <trkpt lat="59.8790488" lon="17.7836048">
        <ele>18.4023</ele>
        <time>2013-04-09T17:15:08Z</time>
      </trkpt>
      <trkpt lat="59.8790973" lon="17.783529">
        <ele>18.8831</ele>
        <time>2013-04-09T17:15:09Z</time>
      </trkpt>
      <trkpt lat="59.8791455" lon="17.7834541">
        <ele>18.8831</ele>
        <time>2013-04-09T17:15:10Z</time>
      </trkpt>
      <trkpt lat="59.8791938" lon="17.7833805">
        <ele>19.3638</ele>
        <time>2013-04-09T17:15:11Z</time>
      </trkpt>
      <trkpt lat="59.8792417" lon="17.7833062">
        <ele>19.3638</ele>
        <time>2013-04-09T17:15:12Z</time>
      </trkpt>
      <trkpt lat="59.8792889" lon="17.7832304">
        <ele>19.3638</ele>
        <time>2013-04-09T17:15:13Z</time>
      </trkpt>
      <trkpt lat="59.8793368" lon="17.7831556">
        <ele>19.8444</ele>
        <time>2013-04-09T17:15:14Z</time>
      </trkpt>
      <trkpt lat="59.8793843" lon="17.7830811">
        <ele>19.8444</ele>
        <time>2013-04-09T17:15:15Z</time>
      </trkpt>
      <trkpt lat="59.8794329" lon="17.7830121">
        <ele>19.8444</ele>
        <time>2013-04-09T17:15:16Z</time>
      </trkpt>
      <trkpt lat="59.8794829" lon="17.78295">
        <ele>19.8444</ele>
        <time>2013-04-09T17:15:17Z</time>
      </trkpt>
      <trkpt lat="59.8795351" lon="17.7828972">
        <ele>19.8444</ele>
        <time>2013-04-09T17:15:18Z</time>
      </trkpt>
      <trkpt lat="59.8795894" lon="17.7828567">
        <ele>19.8444</ele>
        <time>2013-04-09T17:15:19Z</time>
      </trkpt>
      <trkpt lat="59.8796459" lon="17.7828315">
        <ele>19.8444</ele>
        <time>2013-04-09T17:15:20Z</time>
      </trkpt>
      <trkpt lat="59.8797048" lon="17.7828236">
        <ele>19.8444</ele>
        <time>2013-04-09T17:15:21Z</time>
      </trkpt>
      <trkpt lat="59.879764" lon="17.7828314">
        <ele>19.8444</ele>
        <time>2013-04-09T17:15:22Z</time>
      </trkpt>
      <trkpt lat="59.8798195" lon="17.7828553">
        <ele>19.8444</ele>
        <time>2013-04-09T17:15:23Z</time>
      </trkpt>
      <trkpt lat="59.8798712" lon="17.7828898">
        <ele>19.8444</ele>
        <time>2013-04-09T17:15:24Z</time>
      </trkpt>
      <trkpt lat="59.879919" lon="17.7829288">
        <ele>19.3638</ele>
        <time>2013-04-09T17:15:25Z</time>
      </trkpt>
      <trkpt lat="59.8799688" lon="17.7829664">
        <ele>19.8444</ele>
        <time>2013-04-09T17:15:26Z</time>
      </trkpt>
      <trkpt lat="59.8800172" lon="17.7830039">
        <ele>19.3638</ele>
        <time>2013-04-09T17:15:27Z</time>
      </trkpt>
      <trkpt lat="59.8800666" lon="17.7830389">
        <ele>19.3638</ele>
        <time>2013-04-09T17:15:28Z</time>
      </trkpt>
      <trkpt lat="59.8801162" lon="17.7830732">
        <ele>19.3638</ele>
        <time>2013-04-09T17:15:29Z</time>
      </trkpt>
      <trkpt lat="59.8801671" lon="17.7831102">
        <ele>19.3638</ele>
        <time>2013-04-09T17:15:30Z</time>
      </trkpt>
      <trkpt lat="59.8802192" lon="17.7831477">
        <ele>19.8444</ele>
        <time>2013-04-09T17:15:31Z</time>
      </trkpt>
      <trkpt lat="59.8802734" lon="17.7831814">
        <ele>19.8444</ele>
        <time>2013-04-09T17:15:32Z</time>
      </trkpt>
      <trkpt lat="59.8803277" lon="17.7832179">
        <ele>20.325</ele>
        <time>2013-04-09T17:15:33Z</time>
      </trkpt>
      <trkpt lat="59.8803821" lon="17.7832575">
        <ele>20.325</ele>
        <time>2013-04-09T17:15:34Z</time>
      </trkpt>
      <trkpt lat="59.8804363" lon="17.7832964">
        <ele>20.8057</ele>
        <time>2013-04-09T17:15:35Z</time>
      </trkpt>
      <trkpt lat="59.8804905" lon="17.7833345">
        <ele>20.8057</ele>
        <time>2013-04-09T17:15:36Z</time>
      </trkpt>
      <trkpt lat="59.8805442" lon="17.783371">
        <ele>20.8057</ele>
        <time>2013-04-09T17:15:37Z</time>
      </trkpt>
      <trkpt lat="59.8805989" lon="17.7834069">
        <ele>20.8057</ele>
        <time>2013-04-09T17:15:38Z</time>
      </trkpt>
      <trkpt lat="59.8806561" lon="17.7834393">
        <ele>21.2864</ele>
        <time>2013-04-09T17:15:39Z</time>
      </trkpt>
      <trkpt lat="59.8807135" lon="17.7834664">
        <ele>21.767</ele>
        <time>2013-04-09T17:15:40Z</time>
      </trkpt>
      <trkpt lat="59.8807702" lon="17.783495">
        <ele>21.767</ele>
        <time>2013-04-09T17:15:41Z</time>
      </trkpt>
      <trkpt lat="59.8808297" lon="17.7835079">
        <ele>21.767</ele>
        <time>2013-04-09T17:15:42Z</time>
      </trkpt>
      <trkpt lat="59.8808896" lon="17.7835111">
        <ele>22.2476</ele>
        <time>2013-04-09T17:15:43Z</time>
      </trkpt>
      <trkpt lat="59.8809486" lon="17.7835063">
        <ele>22.2476</ele>
        <time>2013-04-09T17:15:44Z</time>
      </trkpt>
      <trkpt lat="59.8810042" lon="17.7834903">
        <ele>22.2476</ele>
        <time>2013-04-09T17:15:45Z</time>
      </trkpt>
      <trkpt lat="59.88106" lon="17.7834764">
        <ele>22.2476</ele>
        <time>2013-04-09T17:15:46Z</time>
      </trkpt>
      <trkpt lat="59.881117" lon="17.7834604">
        <ele>22.2476</ele>
        <time>2013-04-09T17:15:47Z</time>
      </trkpt>
      <trkpt lat="59.8811729" lon="17.7834442">
        <ele>22.7283</ele>
        <time>2013-04-09T17:15:48Z</time>
      </trkpt>
      <trkpt lat="59.8812284" lon="17.7834265">
        <ele>22.7283</ele>
        <time>2013-04-09T17:15:49Z</time>
      </trkpt>
      <trkpt lat="59.881285" lon="17.7834075">
        <ele>22.7283</ele>
        <time>2013-04-09T17:15:50Z</time>
      </trkpt>
      <trkpt lat="59.881342" lon="17.7833872">
        <ele>23.209</ele>
        <time>2013-04-09T17:15:51Z</time>
      </trkpt>
      <trkpt lat="59.8813984" lon="17.7833664">
        <ele>23.209</ele>
        <time>2013-04-09T17:15:52Z</time>
      </trkpt>
      <trkpt lat="59.8814547" lon="17.78335">
        <ele>23.209</ele>
        <time>2013-04-09T17:15:53Z</time>
      </trkpt>
      <trkpt lat="59.8815124" lon="17.7833329">
        <ele>23.6896</ele>
        <time>2013-04-09T17:15:54Z</time>
      </trkpt>
      <trkpt lat="59.8815672" lon="17.7833116">
        <ele>23.6896</ele>
        <time>2013-04-09T17:15:55Z</time>
      </trkpt>
      <trkpt lat="59.8816175" lon="17.7832909">
        <ele>23.6896</ele>
        <time>2013-04-09T17:15:56Z</time>
      </trkpt>
      <trkpt lat="59.8816652" lon="17.7832753">
        <ele>23.6896</ele>
        <time>2013-04-09T17:15:57Z</time>
      </trkpt>
      <trkpt lat="59.8817109" lon="17.7832597">
        <ele>24.1703</ele>
        <time>2013-04-09T17:15:58Z</time>
      </trkpt>
      <trkpt lat="59.8817551" lon="17.7832437">
        <ele>24.1703</ele>
        <time>2013-04-09T17:15:59Z</time>
      </trkpt>
      <trkpt lat="59.8817981" lon="17.7832292">
        <ele>24.1703</ele>
        <time>2013-04-09T17:16:00Z</time>
      </trkpt>
      <trkpt lat="59.8818391" lon="17.7832152">
        <ele>23.6896</ele>
        <time>2013-04-09T17:16:01Z</time>
      </trkpt>
      <trkpt lat="59.8818797" lon="17.7831983">
        <ele>23.6896</ele>
        <time>2013-04-09T17:16:02Z</time>
      </trkpt>
      <trkpt lat="59.8819199" lon="17.7831867">
        <ele>23.6896</ele>
        <time>2013-04-09T17:16:03Z</time>
      </trkpt>
      <trkpt lat="59.8819583" lon="17.7831768">
        <ele>23.6896</ele>
        <time>2013-04-09T17:16:04Z</time>
      </trkpt>
      <trkpt lat="59.881993" lon="17.7831655">
        <ele>23.6896</ele>
        <time>2013-04-09T17:16:05Z</time>
      </trkpt>
      <trkpt lat="59.882026" lon="17.7831552">
        <ele>24.1703</ele>
        <time>2013-04-09T17:16:06Z</time>
      </trkpt>
      <trkpt lat="59.8820585" lon="17.7831433">
        <ele>24.1703</ele>
        <time>2013-04-09T17:16:07Z</time>
      </trkpt>
      <trkpt lat="59.8820905" lon="17.7831329">
        <ele>24.1703</ele>
        <time>2013-04-09T17:16:08Z</time>
      </trkpt>
      <trkpt lat="59.8821199" lon="17.7831226">
        <ele>24.651</ele>
        <time>2013-04-09T17:16:09Z</time>
      </trkpt>
      <trkpt lat="59.8821485" lon="17.7831107">
        <ele>25.1317</ele>
        <time>2013-04-09T17:16:10Z</time>
      </trkpt>
      <trkpt lat="59.8821765" lon="17.7830987">
        <ele>25.1317</ele>
        <time>2013-04-09T17:16:11Z</time>
      </trkpt>
      <trkpt lat="59.8822055" lon="17.7830873">
        <ele>25.6123</ele>
        <time>2013-04-09T17:16:12Z</time>
      </trkpt>
      <trkpt lat="59.8822355" lon="17.7830788">
        <ele>26.0929</ele>
        <time>2013-04-09T17:16:13Z</time>
      </trkpt>
      <trkpt lat="59.8822661" lon="17.7830719">
        <ele>26.5736</ele>
        <time>2013-04-09T17:16:14Z</time>
      </trkpt>
      <trkpt lat="59.8822972" lon="17.7830643">
        <ele>26.5736</ele>
        <time>2013-04-09T17:16:15Z</time>
      </trkpt>
      <trkpt lat="59.8823287" lon="17.7830555">
        <ele>27.0543</ele>
        <time>2013-04-09T17:16:16Z</time>
      </trkpt>
      <trkpt lat="59.8823614" lon="17.7830441">
        <ele>27.5349</ele>
        <time>2013-04-09T17:16:17Z</time>
      </trkpt>
      <trkpt lat="59.882392" lon="17.7830334">
        <ele>27.5349</ele>
        <time>2013-04-09T17:16:18Z</time>
      </trkpt>
      <trkpt lat="59.8824228" lon="17.7830242">
        <ele>27.5349</ele>
        <time>2013-04-09T17:16:19Z</time>
      </trkpt>
      <trkpt lat="59.8824542" lon="17.7830157">
        <ele>27.5349</ele>
        <time>2013-04-09T17:16:20Z</time>
      </trkpt>
      <trkpt lat="59.8824867" lon="17.7830055">
        <ele>27.5349</ele>
        <time>2013-04-09T17:16:21Z</time>
      </trkpt>
      <trkpt lat="59.8825199" lon="17.7829928">
        <ele>27.5349</ele>
        <time>2013-04-09T17:16:22Z</time>
      </trkpt>
      <trkpt lat="59.8825544" lon="17.7829784">
        <ele>27.5349</ele>
        <time>2013-04-09T17:16:23Z</time>
      </trkpt>
      <trkpt lat="59.8825899" lon="17.782964">
        <ele>27.5349</ele>
        <time>2013-04-09T17:16:24Z</time>
      </trkpt>
      <trkpt lat="59.8826261" lon="17.78295">
        <ele>28.0155</ele>
        <time>2013-04-09T17:16:25Z</time>
      </trkpt>
      <trkpt lat="59.882662" lon="17.7829361">
        <ele>28.0155</ele>
        <time>2013-04-09T17:16:26Z</time>
      </trkpt>
      <trkpt lat="59.8826981" lon="17.7829225">
        <ele>28.4962</ele>
        <time>2013-04-09T17:16:27Z</time>
      </trkpt>
      <trkpt lat="59.8827342" lon="17.7829117">
        <ele>28.4962</ele>
        <time>2013-04-09T17:16:28Z</time>
      </trkpt>
      <trkpt lat="59.8827699" lon="17.7828967">
        <ele>28.4962</ele>
        <time>2013-04-09T17:16:29Z</time>
      </trkpt>
      <trkpt lat="59.8828036" lon="17.7828778">
        <ele>28.4962</ele>
        <time>2013-04-09T17:16:30Z</time>
      </trkpt>
      <trkpt lat="59.882839" lon="17.7828604">
        <ele>28.4962</ele>
        <time>2013-04-09T17:16:31Z</time>
      </trkpt>
      <trkpt lat="59.8828749" lon="17.782847">
        <ele>28.9769</ele>
        <time>2013-04-09T17:16:32Z</time>
      </trkpt>
      <trkpt lat="59.882912" lon="17.7828377">
        <ele>28.9769</ele>
        <time>2013-04-09T17:16:33Z</time>
      </trkpt>
      <trkpt lat="59.8829469" lon="17.7828276">
        <ele>28.9769</ele>
        <time>2013-04-09T17:16:34Z</time>
      </trkpt>
      <trkpt lat="59.8829813" lon="17.7828158">
        <ele>28.9769</ele>
        <time>2013-04-09T17:16:35Z</time>
      </trkpt>
      <trkpt lat="59.8830171" lon="17.7828071">
        <ele>28.9769</ele>
        <time>2013-04-09T17:16:36Z</time>
      </trkpt>
      <trkpt lat="59.8830508" lon="17.7828037">
        <ele>28.9769</ele>
        <time>2013-04-09T17:16:37Z</time>
      </trkpt>
      <trkpt lat="59.8830864" lon="17.7827991">
        <ele>29.4575</ele>
        <time>2013-04-09T17:16:38Z</time>
      </trkpt>
      <trkpt lat="59.883123" lon="17.7827878">
        <ele>30.4188</ele>
        <time>2013-04-09T17:16:39Z</time>
      </trkpt>
      <trkpt lat="59.8831555" lon="17.7827774">
        <ele>30.8995</ele>
        <time>2013-04-09T17:16:40Z</time>
      </trkpt>
      <trkpt lat="59.8831846" lon="17.7827623">
        <ele>30.8995</ele>
        <time>2013-04-09T17:16:41Z</time>
      </trkpt>
      <trkpt lat="59.8832113" lon="17.782739">
        <ele>31.3801</ele>
        <time>2013-04-09T17:16:42Z</time>
      </trkpt>
      <trkpt lat="59.8832356" lon="17.7827018">
        <ele>31.8607</ele>
        <time>2013-04-09T17:16:43Z</time>
      </trkpt>
      <trkpt lat="59.8832574" lon="17.7826575">
        <ele>32.3416</ele>
        <time>2013-04-09T17:16:44Z</time>
      </trkpt>
      <trkpt lat="59.8832711" lon="17.7826064">
        <ele>32.3416</ele>
        <time>2013-04-09T17:16:45Z</time>
      </trkpt>
      <trkpt lat="59.883284" lon="17.7825512">
        <ele>32.8223</ele>
        <time>2013-04-09T17:16:46Z</time>
      </trkpt>
      <trkpt lat="59.883299" lon="17.7824895">
        <ele>34.2642</ele>
        <time>2013-04-09T17:16:47Z</time>
      </trkpt>
      <trkpt lat="59.8833118" lon="17.7824244">
        <ele>34.7449</ele>
        <time>2013-04-09T17:16:48Z</time>
      </trkpt>
      <trkpt lat="59.8833229" lon="17.782361">
        <ele>35.7061</ele>
        <time>2013-04-09T17:16:49Z</time>
      </trkpt>
      <trkpt lat="59.8833301" lon="17.7822884">
        <ele>36.6675</ele>
        <time>2013-04-09T17:16:50Z</time>
      </trkpt>
      <trkpt lat="59.8833323" lon="17.7822024">
        <ele>36.6675</ele>
        <time>2013-04-09T17:16:51Z</time>
      </trkpt>
      <trkpt lat="59.883334" lon="17.7821118">
        <ele>36.6675</ele>
        <time>2013-04-09T17:16:52Z</time>
      </trkpt>
      <trkpt lat="59.8833351" lon="17.7820134">
        <ele>36.6675</ele>
        <time>2013-04-09T17:16:53Z</time>
      </trkpt>
      <trkpt lat="59.8833369" lon="17.781913">
        <ele>36.6675</ele>
        <time>2013-04-09T17:16:54Z</time>
      </trkpt>
      <trkpt lat="59.8833325" lon="17.7817866">
        <ele>36.1868</ele>
        <time>2013-04-09T17:16:55Z</time>
      </trkpt>
      <trkpt lat="59.8833347" lon="17.7816555">
        <ele>35.7061</ele>
        <time>2013-04-09T17:16:56Z</time>
      </trkpt>
      <trkpt lat="59.8833328" lon="17.7815115">
        <ele>35.2255</ele>
        <time>2013-04-09T17:16:57Z</time>
      </trkpt>
      <trkpt lat="59.8833435" lon="17.7814146">
        <ele>34.7449</ele>
        <time>2013-04-09T17:16:58Z</time>
      </trkpt>
      <trkpt lat="59.8833467" lon="17.7813031">
        <ele>33.7834</ele>
        <time>2013-04-09T17:16:59Z</time>
      </trkpt>
      <trkpt lat="59.8833485" lon="17.7811894">
        <ele>32.8223</ele>
        <time>2013-04-09T17:17:00Z</time>
      </trkpt>
      <trkpt lat="59.8833544" lon="17.7810786">
        <ele>31.8607</ele>
        <time>2013-04-09T17:17:01Z</time>
      </trkpt>
      <trkpt lat="59.883357" lon="17.7809674">
        <ele>31.3801</ele>
        <time>2013-04-09T17:17:02Z</time>
      </trkpt>
      <trkpt lat="59.8833648" lon="17.7808543">
        <ele>30.8995</ele>
        <time>2013-04-09T17:17:03Z</time>
      </trkpt>
      <trkpt lat="59.8833734" lon="17.7807376">
        <ele>30.4188</ele>
        <time>2013-04-09T17:17:04Z</time>
      </trkpt>
      <trkpt lat="59.8833832" lon="17.7806184">
        <ele>29.9381</ele>
        <time>2013-04-09T17:17:05Z</time>
      </trkpt>
      <trkpt lat="59.8833902" lon="17.7804934">
        <ele>29.4575</ele>
        <time>2013-04-09T17:17:06Z</time>
      </trkpt>
      <trkpt lat="59.8833908" lon="17.7803646">
        <ele>28.4962</ele>
        <time>2013-04-09T17:17:07Z</time>
      </trkpt>
      <trkpt lat="59.883384" lon="17.7802331">
        <ele>27.5349</ele>
        <time>2013-04-09T17:17:08Z</time>
      </trkpt>
      <trkpt lat="59.8833661" lon="17.7801044">
        <ele>27.0543</ele>
        <time>2013-04-09T17:17:09Z</time>
      </trkpt>
      <trkpt lat="59.8833358" lon="17.7799808">
        <ele>26.0929</ele>
        <time>2013-04-09T17:17:10Z</time>
      </trkpt>
      <trkpt lat="59.883252" lon="17.7797742">
        <ele>24.651</ele>
        <time>2013-04-09T17:17:12Z</time>
      </trkpt>
      <trkpt lat="59.8832035" lon="17.7796831">
        <ele>24.1703</ele>
        <time>2013-04-09T17:17:13Z</time>
      </trkpt>
      <trkpt lat="59.8831548" lon="17.7795891">
        <ele>23.6896</ele>
        <time>2013-04-09T17:17:14Z</time>
      </trkpt>
      <trkpt lat="59.8831082" lon="17.7794851">
        <ele>23.209</ele>
        <time>2013-04-09T17:17:15Z</time>
      </trkpt>
      <trkpt lat="59.8830653" lon="17.7793746">
        <ele>22.7283</ele>
        <time>2013-04-09T17:17:16Z</time>
      </trkpt>
      <trkpt lat="59.8830274" lon="17.7792541">
        <ele>22.7283</ele>
        <time>2013-04-09T17:17:17Z</time>
      </trkpt>
      <trkpt lat="59.8829944" lon="17.7791207">
        <ele>22.2476</ele>
        <time>2013-04-09T17:17:18Z</time>
      </trkpt>
      <trkpt lat="59.8829691" lon="17.7789755">
        <ele>21.767</ele>
        <time>2013-04-09T17:17:19Z</time>
      </trkpt>
      <trkpt lat="59.8829493" lon="17.7788229">
        <ele>21.2864</ele>
        <time>2013-04-09T17:17:20Z</time>
      </trkpt>
      <trkpt lat="59.882938" lon="17.7786654">
        <ele>21.767</ele>
        <time>2013-04-09T17:17:21Z</time>
      </trkpt>
      <trkpt lat="59.8829317" lon="17.7785041">
        <ele>21.2864</ele>
        <time>2013-04-09T17:17:22Z</time>
      </trkpt>
      <trkpt lat="59.8829338" lon="17.7783404">
        <ele>20.8057</ele>
        <time>2013-04-09T17:17:23Z</time>
      </trkpt>
      <trkpt lat="59.8829473" lon="17.7781776">
        <ele>20.8057</ele>
        <time>2013-04-09T17:17:24Z</time>
      </trkpt>
      <trkpt lat="59.8829963" lon="17.7780103">
        <ele>20.8057</ele>
        <time>2013-04-09T17:17:25Z</time>
      </trkpt>
      <trkpt lat="59.8830477" lon="17.7779149">
        <ele>20.325</ele>
        <time>2013-04-09T17:17:26Z</time>
      </trkpt>
      <trkpt lat="59.8831146" lon="17.777845">
        <ele>19.8444</ele>
        <time>2013-04-09T17:17:27Z</time>
      </trkpt>
      <trkpt lat="59.8831778" lon="17.7778003">
        <ele>19.3638</ele>
        <time>2013-04-09T17:17:28Z</time>
      </trkpt>
      <trkpt lat="59.8832519" lon="17.7777894">
        <ele>18.8831</ele>
        <time>2013-04-09T17:17:29Z</time>
      </trkpt>
      <trkpt lat="59.883327" lon="17.7777834">
        <ele>17.9218</ele>
        <time>2013-04-09T17:17:30Z</time>
      </trkpt>
      <trkpt lat="59.8834063" lon="17.777773">
        <ele>17.9218</ele>
        <time>2013-04-09T17:17:31Z</time>
      </trkpt>
      <trkpt lat="59.8834854" lon="17.7777506">
        <ele>18.4023</ele>
        <time>2013-04-09T17:17:32Z</time>
      </trkpt>
      <trkpt lat="59.8835627" lon="17.7777165">
        <ele>18.4023</ele>
        <time>2013-04-09T17:17:33Z</time>
      </trkpt>
      <trkpt lat="59.8836412" lon="17.7776706">
        <ele>19.3638</ele>
        <time>2013-04-09T17:17:34Z</time>
      </trkpt>
      <trkpt lat="59.8837182" lon="17.7776175">
        <ele>19.3638</ele>
        <time>2013-04-09T17:17:35Z</time>
      </trkpt>
      <trkpt lat="59.8837896" lon="17.7775548">
        <ele>19.3638</ele>
        <time>2013-04-09T17:17:36Z</time>
      </trkpt>
      <trkpt lat="59.8838573" lon="17.7774774">
        <ele>19.3638</ele>
        <time>2013-04-09T17:17:37Z</time>
      </trkpt>
      <trkpt lat="59.8839201" lon="17.7773867">
        <ele>19.3638</ele>
        <time>2013-04-09T17:17:38Z</time>
      </trkpt>
      <trkpt lat="59.883979" lon="17.777287">
        <ele>19.3638</ele>
        <time>2013-04-09T17:17:39Z</time>
      </trkpt>
      <trkpt lat="59.8840352" lon="17.7771794">
        <ele>19.3638</ele>
        <time>2013-04-09T17:17:40Z</time>
      </trkpt>
      <trkpt lat="59.8840856" lon="17.7770632">
        <ele>19.3638</ele>
        <time>2013-04-09T17:17:41Z</time>
      </trkpt>
      <trkpt lat="59.8841309" lon="17.7769404">
        <ele>19.3638</ele>
        <time>2013-04-09T17:17:42Z</time>
      </trkpt>
      <trkpt lat="59.8841713" lon="17.7768131">
        <ele>19.3638</ele>
        <time>2013-04-09T17:17:43Z</time>
      </trkpt>
      <trkpt lat="59.8842081" lon="17.7766852">
        <ele>19.3638</ele>
        <time>2013-04-09T17:17:44Z</time>
      </trkpt>
      <trkpt lat="59.8842443" lon="17.7765591">
        <ele>19.3638</ele>
        <time>2013-04-09T17:17:45Z</time>
      </trkpt>
      <trkpt lat="59.8842851" lon="17.776432">
        <ele>19.8444</ele>
        <time>2013-04-09T17:17:46Z</time>
      </trkpt>
      <trkpt lat="59.8843241" lon="17.7763081">
        <ele>20.8057</ele>
        <time>2013-04-09T17:17:47Z</time>
      </trkpt>
      <trkpt lat="59.8843625" lon="17.7761874">
        <ele>21.2864</ele>
        <time>2013-04-09T17:17:48Z</time>
      </trkpt>
      <trkpt lat="59.8844013" lon="17.7760707">
        <ele>21.767</ele>
        <time>2013-04-09T17:17:49Z</time>
      </trkpt>
      <trkpt lat="59.8844416" lon="17.7759589">
        <ele>22.2476</ele>
        <time>2013-04-09T17:17:50Z</time>
      </trkpt>
      <trkpt lat="59.8844828" lon="17.7758497">
        <ele>22.2476</ele>
        <time>2013-04-09T17:17:51Z</time>
      </trkpt>
      <trkpt lat="59.884523" lon="17.775742">
        <ele>22.7283</ele>
        <time>2013-04-09T17:17:52Z</time>
      </trkpt>
      <trkpt lat="59.8845619" lon="17.7756367">
        <ele>22.7283</ele>
        <time>2013-04-09T17:17:53Z</time>
      </trkpt>
      <trkpt lat="59.8846012" lon="17.7755337">
        <ele>23.209</ele>
        <time>2013-04-09T17:17:54Z</time>
      </trkpt>
      <trkpt lat="59.8846408" lon="17.7754327">
        <ele>23.6896</ele>
        <time>2013-04-09T17:17:55Z</time>
      </trkpt>
      <trkpt lat="59.8846805" lon="17.7753309">
        <ele>24.1703</ele>
        <time>2013-04-09T17:17:56Z</time>
      </trkpt>
      <trkpt lat="59.8847197" lon="17.77523">
        <ele>24.651</ele>
        <time>2013-04-09T17:17:57Z</time>
      </trkpt>
      <trkpt lat="59.8847599" lon="17.7751302">
        <ele>25.1317</ele>
        <time>2013-04-09T17:17:58Z</time>
      </trkpt>
      <trkpt lat="59.8847972" lon="17.7750342">
        <ele>25.1317</ele>
        <time>2013-04-09T17:17:59Z</time>
      </trkpt>
      <trkpt lat="59.8848339" lon="17.7749407">
        <ele>25.1317</ele>
        <time>2013-04-09T17:18:00Z</time>
      </trkpt>
      <trkpt lat="59.8848702" lon="17.7748485">
        <ele>24.651</ele>
        <time>2013-04-09T17:18:01Z</time>
      </trkpt>
      <trkpt lat="59.8849053" lon="17.7747526">
        <ele>24.1703</ele>
        <time>2013-04-09T17:18:02Z</time>
      </trkpt>
      <trkpt lat="59.8849379" lon="17.774654">
        <ele>24.1703</ele>
        <time>2013-04-09T17:18:03Z</time>
      </trkpt>
      <trkpt lat="59.8849696" lon="17.7745557">
        <ele>23.6896</ele>
        <time>2013-04-09T17:18:04Z</time>
      </trkpt>
      <trkpt lat="59.8850006" lon="17.7744551">
        <ele>23.6896</ele>
        <time>2013-04-09T17:18:05Z</time>
      </trkpt>
      <trkpt lat="59.88503" lon="17.7743534">
        <ele>23.6896</ele>
        <time>2013-04-09T17:18:06Z</time>
      </trkpt>
      <trkpt lat="59.8850591" lon="17.7742443">
        <ele>24.1703</ele>
        <time>2013-04-09T17:18:07Z</time>
      </trkpt>
      <trkpt lat="59.8850842" lon="17.7741369">
        <ele>24.1703</ele>
        <time>2013-04-09T17:18:08Z</time>
      </trkpt>
      <trkpt lat="59.885112" lon="17.7740293">
        <ele>24.1703</ele>
        <time>2013-04-09T17:18:09Z</time>
      </trkpt>
      <trkpt lat="59.8851417" lon="17.7739192">
        <ele>24.1703</ele>
        <time>2013-04-09T17:18:10Z</time>
      </trkpt>
      <trkpt lat="59.8851755" lon="17.7738134">
        <ele>24.1703</ele>
        <time>2013-04-09T17:18:11Z</time>
      </trkpt>
      <trkpt lat="59.8852156" lon="17.7737138">
        <ele>24.651</ele>
        <time>2013-04-09T17:18:12Z</time>
      </trkpt>
      <trkpt lat="59.8852574" lon="17.7736197">
        <ele>25.1317</ele>
        <time>2013-04-09T17:18:13Z</time>
      </trkpt>
      <trkpt lat="59.885298" lon="17.7735293">
        <ele>24.651</ele>
        <time>2013-04-09T17:18:14Z</time>
      </trkpt>
      <trkpt lat="59.8853442" lon="17.773446">
        <ele>23.6896</ele>
        <time>2013-04-09T17:18:15Z</time>
      </trkpt>
      <trkpt lat="59.8853906" lon="17.773357">
        <ele>23.209</ele>
        <time>2013-04-09T17:18:16Z</time>
      </trkpt>
      <trkpt lat="59.8854392" lon="17.7732721">
        <ele>23.209</ele>
        <time>2013-04-09T17:18:17Z</time>
      </trkpt>
      <trkpt lat="59.8854877" lon="17.7731871">
        <ele>22.2476</ele>
        <time>2013-04-09T17:18:18Z</time>
      </trkpt>
      <trkpt lat="59.8855387" lon="17.7731011">
        <ele>21.767</ele>
        <time>2013-04-09T17:18:19Z</time>
      </trkpt>
      <trkpt lat="59.8855903" lon="17.7730135">
        <ele>21.2864</ele>
        <time>2013-04-09T17:18:20Z</time>
      </trkpt>
      <trkpt lat="59.8856387" lon="17.7729193">
        <ele>21.2864</ele>
        <time>2013-04-09T17:18:21Z</time>
      </trkpt>
      <trkpt lat="59.8856829" lon="17.7728186">
        <ele>20.8057</ele>
        <time>2013-04-09T17:18:22Z</time>
      </trkpt>
      <trkpt lat="59.8857212" lon="17.7727073">
        <ele>21.2864</ele>
        <time>2013-04-09T17:18:23Z</time>
      </trkpt>
      <trkpt lat="59.8857512" lon="17.7725884">
        <ele>21.2864</ele>
        <time>2013-04-09T17:18:24Z</time>
      </trkpt>
      <trkpt lat="59.8857725" lon="17.7724601">
        <ele>20.8057</ele>
        <time>2013-04-09T17:18:25Z</time>
      </trkpt>
      <trkpt lat="59.8857871" lon="17.7723282">
        <ele>20.325</ele>
        <time>2013-04-09T17:18:26Z</time>
      </trkpt>
      <trkpt lat="59.8857954" lon="17.7722023">
        <ele>19.8444</ele>
        <time>2013-04-09T17:18:27Z</time>
      </trkpt>
      <trkpt lat="59.8857958" lon="17.7720744">
        <ele>19.3638</ele>
        <time>2013-04-09T17:18:28Z</time>
      </trkpt>
      <trkpt lat="59.8857899" lon="17.7719398">
        <ele>19.3638</ele>
        <time>2013-04-09T17:18:29Z</time>
      </trkpt>
      <trkpt lat="59.8857829" lon="17.7717966">
        <ele>20.325</ele>
        <time>2013-04-09T17:18:30Z</time>
      </trkpt>
      <trkpt lat="59.8857718" lon="17.7716538">
        <ele>21.2864</ele>
        <time>2013-04-09T17:18:31Z</time>
      </trkpt>
      <trkpt lat="59.8857573" lon="17.771522">
        <ele>21.2864</ele>
        <time>2013-04-09T17:18:32Z</time>
      </trkpt>
      <trkpt lat="59.8857227" lon="17.7713534">
        <ele>21.2864</ele>
        <time>2013-04-09T17:18:33Z</time>
      </trkpt>
      <trkpt lat="59.8856803" lon="17.7712176">
        <ele>21.767</ele>
        <time>2013-04-09T17:18:34Z</time>
      </trkpt>
      <trkpt lat="59.8856435" lon="17.7710871">
        <ele>21.767</ele>
        <time>2013-04-09T17:18:35Z</time>
      </trkpt>
      <trkpt lat="59.8855995" lon="17.7709719">
        <ele>21.767</ele>
        <time>2013-04-09T17:18:36Z</time>
      </trkpt>
      <trkpt lat="59.8855485" lon="17.7708685">
        <ele>22.2476</ele>
        <time>2013-04-09T17:18:37Z</time>
      </trkpt>
      <trkpt lat="59.8855004" lon="17.7707715">
        <ele>22.2476</ele>
        <time>2013-04-09T17:18:38Z</time>
      </trkpt>
      <trkpt lat="59.8854518" lon="17.7706875">
        <ele>22.2476</ele>
        <time>2013-04-09T17:18:39Z</time>
      </trkpt>
      <trkpt lat="59.8853979" lon="17.770611">
        <ele>21.767</ele>
        <time>2013-04-09T17:18:40Z</time>
      </trkpt>
      <trkpt lat="59.8853451" lon="17.7705419">
        <ele>21.2864</ele>
        <time>2013-04-09T17:18:41Z</time>
      </trkpt>
      <trkpt lat="59.8852917" lon="17.7704742">
        <ele>20.8057</ele>
        <time>2013-04-09T17:18:42Z</time>
      </trkpt>
      <trkpt lat="59.8852406" lon="17.7704018">
        <ele>20.325</ele>
        <time>2013-04-09T17:18:43Z</time>
      </trkpt>
      <trkpt lat="59.8851912" lon="17.7703266">
        <ele>20.325</ele>
        <time>2013-04-09T17:18:44Z</time>
      </trkpt>
      <trkpt lat="59.8851437" lon="17.7702488">
        <ele>19.8444</ele>
        <time>2013-04-09T17:18:45Z</time>
      </trkpt>
      <trkpt lat="59.8850975" lon="17.7701662">
        <ele>19.3638</ele>
        <time>2013-04-09T17:18:46Z</time>
      </trkpt>
      <trkpt lat="59.8850536" lon="17.770079">
        <ele>18.8831</ele>
        <time>2013-04-09T17:18:47Z</time>
      </trkpt>
      <trkpt lat="59.8850106" lon="17.7699915">
        <ele>18.8831</ele>
        <time>2013-04-09T17:18:48Z</time>
      </trkpt>
      <trkpt lat="59.8849681" lon="17.7699012">
        <ele>18.8831</ele>
        <time>2013-04-09T17:18:49Z</time>
      </trkpt>
      <trkpt lat="59.8849254" lon="17.7698101">
        <ele>18.4023</ele>
        <time>2013-04-09T17:18:50Z</time>
      </trkpt>
      <trkpt lat="59.8848816" lon="17.7697205">
        <ele>18.4023</ele>
        <time>2013-04-09T17:18:51Z</time>
      </trkpt>
      <trkpt lat="59.8848369" lon="17.7696305">
        <ele>18.4023</ele>
        <time>2013-04-09T17:18:52Z</time>
      </trkpt>
      <trkpt lat="59.8847924" lon="17.7695393">
        <ele>18.4023</ele>
        <time>2013-04-09T17:18:53Z</time>
      </trkpt>
      <trkpt lat="59.8847488" lon="17.7694477">
        <ele>18.4023</ele>
        <time>2013-04-09T17:18:54Z</time>
      </trkpt>
      <trkpt lat="59.8847055" lon="17.7693572">
        <ele>18.4023</ele>
        <time>2013-04-09T17:18:55Z</time>
      </trkpt>
      <trkpt lat="59.8846643" lon="17.7692689">
        <ele>17.9218</ele>
        <time>2013-04-09T17:18:56Z</time>
      </trkpt>
      <trkpt lat="59.8846242" lon="17.7691829">
        <ele>17.9218</ele>
        <time>2013-04-09T17:18:57Z</time>
      </trkpt>
      <trkpt lat="59.8845852" lon="17.7690993">
        <ele>17.9218</ele>
        <time>2013-04-09T17:18:58Z</time>
      </trkpt>
      <trkpt lat="59.8845482" lon="17.7690071">
        <ele>17.9218</ele>
        <time>2013-04-09T17:18:59Z</time>
      </trkpt>
      <trkpt lat="59.884522" lon="17.7689109">
        <ele>18.8831</ele>
        <time>2013-04-09T17:19:00Z</time>
      </trkpt>
      <trkpt lat="59.8845045" lon="17.7688053">
        <ele>20.325</ele>
        <time>2013-04-09T17:19:01Z</time>
      </trkpt>
      <trkpt lat="59.8845013" lon="17.7686954">
        <ele>21.2864</ele>
        <time>2013-04-09T17:19:02Z</time>
      </trkpt>
      <trkpt lat="59.8845075" lon="17.7685878">
        <ele>22.2476</ele>
        <time>2013-04-09T17:19:03Z</time>
      </trkpt>
      <trkpt lat="59.8845213" lon="17.768483">
        <ele>23.209</ele>
        <time>2013-04-09T17:19:04Z</time>
      </trkpt>
      <trkpt lat="59.8845421" lon="17.7683858">
        <ele>24.1703</ele>
        <time>2013-04-09T17:19:05Z</time>
      </trkpt>
      <trkpt lat="59.8845671" lon="17.7682865">
        <ele>24.651</ele>
        <time>2013-04-09T17:19:06Z</time>
      </trkpt>
      <trkpt lat="59.884598" lon="17.7681936">
        <ele>26.0929</ele>
        <time>2013-04-09T17:19:07Z</time>
      </trkpt>
      <trkpt lat="59.8846365" lon="17.7681074">
        <ele>27.5349</ele>
        <time>2013-04-09T17:19:08Z</time>
      </trkpt>
      <trkpt lat="59.8846723" lon="17.7680163">
        <ele>29.9381</ele>
        <time>2013-04-09T17:19:09Z</time>
      </trkpt>
      <trkpt lat="59.8847045" lon="17.7678822">
        <ele>30.4188</ele>
        <time>2013-04-09T17:19:10Z</time>
      </trkpt>
      <trkpt lat="59.8847373" lon="17.7677744">
        <ele>30.8995</ele>
        <time>2013-04-09T17:19:11Z</time>
      </trkpt>
      <trkpt lat="59.8847494" lon="17.7676662">
        <ele>31.3801</ele>
        <time>2013-04-09T17:19:12Z</time>
      </trkpt>
      <trkpt lat="59.8847386" lon="17.7675655">
        <ele>31.8607</ele>
        <time>2013-04-09T17:19:13Z</time>
      </trkpt>
      <trkpt lat="59.8847283" lon="17.7674698">
        <ele>31.3801</ele>
        <time>2013-04-09T17:19:14Z</time>
      </trkpt>
      <trkpt lat="59.8847162" lon="17.7673819">
        <ele>30.8995</ele>
        <time>2013-04-09T17:19:15Z</time>
      </trkpt>
      <trkpt lat="59.8847044" lon="17.7672917">
        <ele>31.3801</ele>
        <time>2013-04-09T17:19:16Z</time>
      </trkpt>
      <trkpt lat="59.8846919" lon="17.7671922">
        <ele>30.8995</ele>
        <time>2013-04-09T17:19:17Z</time>
      </trkpt>
      <trkpt lat="59.8846824" lon="17.7670984">
        <ele>30.4188</ele>
        <time>2013-04-09T17:19:18Z</time>
      </trkpt>
      <trkpt lat="59.8846799" lon="17.7669972">
        <ele>29.4575</ele>
        <time>2013-04-09T17:19:19Z</time>
      </trkpt>
      <trkpt lat="59.8846811" lon="17.7668963">
        <ele>28.4962</ele>
        <time>2013-04-09T17:19:20Z</time>
      </trkpt>
      <trkpt lat="59.884684" lon="17.7667751">
        <ele>28.0155</ele>
        <time>2013-04-09T17:19:21Z</time>
      </trkpt>
      <trkpt lat="59.8846893" lon="17.7666494">
        <ele>28.0155</ele>
        <time>2013-04-09T17:19:22Z</time>
      </trkpt>
      <trkpt lat="59.8847007" lon="17.766526">
        <ele>27.5349</ele>
        <time>2013-04-09T17:19:23Z</time>
      </trkpt>
      <trkpt lat="59.8847131" lon="17.7664021">
        <ele>27.0543</ele>
        <time>2013-04-09T17:19:24Z</time>
      </trkpt>
      <trkpt lat="59.884721" lon="17.7662725">
        <ele>27.0543</ele>
        <time>2013-04-09T17:19:25Z</time>
      </trkpt>
      <trkpt lat="59.8847259" lon="17.7661311">
        <ele>26.5736</ele>
        <time>2013-04-09T17:19:26Z</time>
      </trkpt>
      <trkpt lat="59.8847311" lon="17.7659861">
        <ele>26.5736</ele>
        <time>2013-04-09T17:19:27Z</time>
      </trkpt>
      <trkpt lat="59.8847357" lon="17.7658467">
        <ele>26.5736</ele>
        <time>2013-04-09T17:19:28Z</time>
      </trkpt>
      <trkpt lat="59.8847387" lon="17.7657126">
        <ele>26.5736</ele>
        <time>2013-04-09T17:19:29Z</time>
      </trkpt>
      <trkpt lat="59.8847462" lon="17.7655821">
        <ele>27.0543</ele>
        <time>2013-04-09T17:19:30Z</time>
      </trkpt>
      <trkpt lat="59.884751" lon="17.7654585">
        <ele>26.5736</ele>
        <time>2013-04-09T17:19:31Z</time>
      </trkpt>
      <trkpt lat="59.8847563" lon="17.7653328">
        <ele>27.0543</ele>
        <time>2013-04-09T17:19:32Z</time>
      </trkpt>
      <trkpt lat="59.8847587" lon="17.765199">
        <ele>27.0543</ele>
        <time>2013-04-09T17:19:33Z</time>
      </trkpt>
      <trkpt lat="59.884758" lon="17.7650627">
        <ele>27.0543</ele>
        <time>2013-04-09T17:19:34Z</time>
      </trkpt>
      <trkpt lat="59.8847604" lon="17.7649257">
        <ele>27.0543</ele>
        <time>2013-04-09T17:19:35Z</time>
      </trkpt>
      <trkpt lat="59.8847675" lon="17.7647959">
        <ele>27.5349</ele>
        <time>2013-04-09T17:19:36Z</time>
      </trkpt>
      <trkpt lat="59.8847767" lon="17.7646654">
        <ele>27.5349</ele>
        <time>2013-04-09T17:19:37Z</time>
      </trkpt>
      <trkpt lat="59.8847888" lon="17.7645221">
        <ele>27.0543</ele>
        <time>2013-04-09T17:19:38Z</time>
      </trkpt>
      <trkpt lat="59.8848013" lon="17.7643728">
        <ele>27.0543</ele>
        <time>2013-04-09T17:19:39Z</time>
      </trkpt>
      <trkpt lat="59.8848173" lon="17.764224">
        <ele>27.0543</ele>
        <time>2013-04-09T17:19:40Z</time>
      </trkpt>
      <trkpt lat="59.8848411" lon="17.7640801">
        <ele>26.5736</ele>
        <time>2013-04-09T17:19:41Z</time>
      </trkpt>
      <trkpt lat="59.8848742" lon="17.7639396">
        <ele>25.6123</ele>
        <time>2013-04-09T17:19:42Z</time>
      </trkpt>
      <trkpt lat="59.8849079" lon="17.7637888">
        <ele>25.1317</ele>
        <time>2013-04-09T17:19:43Z</time>
      </trkpt>
      <trkpt lat="59.884942" lon="17.7636377">
        <ele>25.1317</ele>
        <time>2013-04-09T17:19:44Z</time>
      </trkpt>
      <trkpt lat="59.8849744" lon="17.7634931">
        <ele>24.1703</ele>
        <time>2013-04-09T17:19:45Z</time>
      </trkpt>
      <trkpt lat="59.885002" lon="17.7633445">
        <ele>24.1703</ele>
        <time>2013-04-09T17:19:46Z</time>
      </trkpt>
      <trkpt lat="59.8850303" lon="17.7632043">
        <ele>23.6896</ele>
        <time>2013-04-09T17:19:47Z</time>
      </trkpt>
      <trkpt lat="59.8850608" lon="17.7630679">
        <ele>24.1703</ele>
        <time>2013-04-09T17:19:48Z</time>
      </trkpt>
      <trkpt lat="59.8850814" lon="17.7629243">
        <ele>23.209</ele>
        <time>2013-04-09T17:19:49Z</time>
      </trkpt>
      <trkpt lat="59.8851006" lon="17.762784">
        <ele>23.209</ele>
        <time>2013-04-09T17:19:50Z</time>
      </trkpt>
      <trkpt lat="59.8851165" lon="17.7626473">
        <ele>22.7283</ele>
        <time>2013-04-09T17:19:51Z</time>
      </trkpt>
      <trkpt lat="59.8851317" lon="17.7625067">
        <ele>22.7283</ele>
        <time>2013-04-09T17:19:52Z</time>
      </trkpt>
      <trkpt lat="59.8851517" lon="17.7623736">
        <ele>22.2476</ele>
        <time>2013-04-09T17:19:53Z</time>
      </trkpt>
      <trkpt lat="59.8851763" lon="17.7622539">
        <ele>22.7283</ele>
        <time>2013-04-09T17:19:54Z</time>
      </trkpt>
      <trkpt lat="59.8852001" lon="17.7621364">
        <ele>22.2476</ele>
        <time>2013-04-09T17:19:55Z</time>
      </trkpt>
      <trkpt lat="59.8852224" lon="17.7620075">
        <ele>22.2476</ele>
        <time>2013-04-09T17:19:56Z</time>
      </trkpt>
      <trkpt lat="59.8852471" lon="17.7618857">
        <ele>21.767</ele>
        <time>2013-04-09T17:19:57Z</time>
      </trkpt>
      <trkpt lat="59.8852674" lon="17.7617545">
        <ele>21.2864</ele>
        <time>2013-04-09T17:19:58Z</time>
      </trkpt>
      <trkpt lat="59.8852897" lon="17.7616316">
        <ele>21.2864</ele>
        <time>2013-04-09T17:19:59Z</time>
      </trkpt>
      <trkpt lat="59.8853454" lon="17.7614988">
        <ele>21.767</ele>
        <time>2013-04-09T17:20:00Z</time>
      </trkpt>
      <trkpt lat="59.8853736" lon="17.7613475">
        <ele>21.2864</ele>
        <time>2013-04-09T17:20:01Z</time>
      </trkpt>
      <trkpt lat="59.8853996" lon="17.7612325">
        <ele>21.2864</ele>
        <time>2013-04-09T17:20:02Z</time>
      </trkpt>
      <trkpt lat="59.8854197" lon="17.7610755">
        <ele>20.8057</ele>
        <time>2013-04-09T17:20:03Z</time>
      </trkpt>
      <trkpt lat="59.8854285" lon="17.7609118">
        <ele>19.8444</ele>
        <time>2013-04-09T17:20:04Z</time>
      </trkpt>
      <trkpt lat="59.8854311" lon="17.7607319">
        <ele>19.3638</ele>
        <time>2013-04-09T17:20:05Z</time>
      </trkpt>
      <trkpt lat="59.8854423" lon="17.7605724">
        <ele>19.3638</ele>
        <time>2013-04-09T17:20:06Z</time>
      </trkpt>
      <trkpt lat="59.8854519" lon="17.7604073">
        <ele>19.3638</ele>
        <time>2013-04-09T17:20:07Z</time>
      </trkpt>
      <trkpt lat="59.8854613" lon="17.7602426">
        <ele>19.3638</ele>
        <time>2013-04-09T17:20:08Z</time>
      </trkpt>
      <trkpt lat="59.8854701" lon="17.7600818">
        <ele>18.8831</ele>
        <time>2013-04-09T17:20:09Z</time>
      </trkpt>
      <trkpt lat="59.8854828" lon="17.7599244">
        <ele>18.8831</ele>
        <time>2013-04-09T17:20:10Z</time>
      </trkpt>
      <trkpt lat="59.8854957" lon="17.7597637">
        <ele>18.4023</ele>
        <time>2013-04-09T17:20:11Z</time>
      </trkpt>
      <trkpt lat="59.8855105" lon="17.759606">
        <ele>18.8831</ele>
        <time>2013-04-09T17:20:12Z</time>
      </trkpt>
      <trkpt lat="59.8855254" lon="17.7594463">
        <ele>18.8831</ele>
        <time>2013-04-09T17:20:13Z</time>
      </trkpt>
      <trkpt lat="59.8855378" lon="17.7592868">
        <ele>18.8831</ele>
        <time>2013-04-09T17:20:14Z</time>
      </trkpt>
      <trkpt lat="59.8855465" lon="17.759125">
        <ele>18.8831</ele>
        <time>2013-04-09T17:20:15Z</time>
      </trkpt>
      <trkpt lat="59.8855581" lon="17.7589684">
        <ele>18.8831</ele>
        <time>2013-04-09T17:20:16Z</time>
      </trkpt>
      <trkpt lat="59.8855742" lon="17.7588139">
        <ele>19.3638</ele>
        <time>2013-04-09T17:20:17Z</time>
      </trkpt>
      <trkpt lat="59.885589" lon="17.7586616">
        <ele>19.8444</ele>
        <time>2013-04-09T17:20:18Z</time>
      </trkpt>
      <trkpt lat="59.885602" lon="17.7585093">
        <ele>19.8444</ele>
        <time>2013-04-09T17:20:19Z</time>
      </trkpt>
      <trkpt lat="59.8856184" lon="17.7583597">
        <ele>19.8444</ele>
        <time>2013-04-09T17:20:20Z</time>
      </trkpt>
      <trkpt lat="59.8856347" lon="17.7582095">
        <ele>20.325</ele>
        <time>2013-04-09T17:20:21Z</time>
      </trkpt>
      <trkpt lat="59.8856575" lon="17.7580712">
        <ele>20.8057</ele>
        <time>2013-04-09T17:20:22Z</time>
      </trkpt>
      <trkpt lat="59.8856835" lon="17.7579369">
        <ele>20.8057</ele>
        <time>2013-04-09T17:20:23Z</time>
      </trkpt>
      <trkpt lat="59.8857127" lon="17.7578096">
        <ele>21.2864</ele>
        <time>2013-04-09T17:20:24Z</time>
      </trkpt>
      <trkpt lat="59.8857457" lon="17.757694">
        <ele>21.767</ele>
        <time>2013-04-09T17:20:25Z</time>
      </trkpt>
      <trkpt lat="59.8857834" lon="17.7575941">
        <ele>22.2476</ele>
        <time>2013-04-09T17:20:26Z</time>
      </trkpt>
      <trkpt lat="59.8858239" lon="17.7575054">
        <ele>22.7283</ele>
        <time>2013-04-09T17:20:27Z</time>
      </trkpt>
      <trkpt lat="59.8858641" lon="17.7574197">
        <ele>23.209</ele>
        <time>2013-04-09T17:20:28Z</time>
      </trkpt>
      <trkpt lat="59.885904" lon="17.7573358">
        <ele>23.6896</ele>
        <time>2013-04-09T17:20:29Z</time>
      </trkpt>
      <trkpt lat="59.8859444" lon="17.7572591">
        <ele>23.6896</ele>
        <time>2013-04-09T17:20:30Z</time>
      </trkpt>
      <trkpt lat="59.8859874" lon="17.7571866">
        <ele>23.6896</ele>
        <time>2013-04-09T17:20:31Z</time>
      </trkpt>
      <trkpt lat="59.8860316" lon="17.7571179">
        <ele>23.209</ele>
        <time>2013-04-09T17:20:32Z</time>
      </trkpt>
      <trkpt lat="59.8860798" lon="17.7570558">
        <ele>23.6896</ele>
        <time>2013-04-09T17:20:33Z</time>
      </trkpt>
      <trkpt lat="59.8861267" lon="17.7569992">
        <ele>23.6896</ele>
        <time>2013-04-09T17:20:34Z</time>
      </trkpt>
      <trkpt lat="59.8861749" lon="17.7569502">
        <ele>23.209</ele>
        <time>2013-04-09T17:20:35Z</time>
      </trkpt>
      <trkpt lat="59.8862232" lon="17.7569058">
        <ele>22.7283</ele>
        <time>2013-04-09T17:20:36Z</time>
      </trkpt>
      <trkpt lat="59.8862719" lon="17.756863">
        <ele>22.7283</ele>
        <time>2013-04-09T17:20:37Z</time>
      </trkpt>
      <trkpt lat="59.8863217" lon="17.7568193">
        <ele>22.2476</ele>
        <time>2013-04-09T17:20:38Z</time>
      </trkpt>
      <trkpt lat="59.8863703" lon="17.756776">
        <ele>22.2476</ele>
        <time>2013-04-09T17:20:39Z</time>
      </trkpt>
      <trkpt lat="59.8864165" lon="17.7567372">
        <ele>21.2864</ele>
        <time>2013-04-09T17:20:40Z</time>
      </trkpt>
      <trkpt lat="59.8864628" lon="17.7566962">
        <ele>21.2864</ele>
        <time>2013-04-09T17:20:41Z</time>
      </trkpt>
      <trkpt lat="59.8865016" lon="17.7566584">
        <ele>21.2864</ele>
        <time>2013-04-09T17:20:42Z</time>
      </trkpt>
      <trkpt lat="59.8865389" lon="17.7566277">
        <ele>20.8057</ele>
        <time>2013-04-09T17:20:43Z</time>
      </trkpt>
      <trkpt lat="59.8865811" lon="17.7565977">
        <ele>20.8057</ele>
        <time>2013-04-09T17:20:44Z</time>
      </trkpt>
      <trkpt lat="59.886624" lon="17.7565632">
        <ele>21.767</ele>
        <time>2013-04-09T17:20:45Z</time>
      </trkpt>
      <trkpt lat="59.8866646" lon="17.7565275">
        <ele>20.8057</ele>
        <time>2013-04-09T17:20:46Z</time>
      </trkpt>
      <trkpt lat="59.8867084" lon="17.7564947">
        <ele>20.8057</ele>
        <time>2013-04-09T17:20:47Z</time>
      </trkpt>
      <trkpt lat="59.8867524" lon="17.7564619">
        <ele>20.325</ele>
        <time>2013-04-09T17:20:48Z</time>
      </trkpt>
      <trkpt lat="59.8867976" lon="17.756426">
        <ele>19.8444</ele>
        <time>2013-04-09T17:20:49Z</time>
      </trkpt>
      <trkpt lat="59.8868442" lon="17.7563799">
        <ele>19.8444</ele>
        <time>2013-04-09T17:20:50Z</time>
      </trkpt>
      <trkpt lat="59.8868883" lon="17.7563305">
        <ele>18.8831</ele>
        <time>2013-04-09T17:20:51Z</time>
      </trkpt>
      <trkpt lat="59.8869301" lon="17.7562778">
        <ele>17.4412</ele>
        <time>2013-04-09T17:20:52Z</time>
      </trkpt>
      <trkpt lat="59.886972" lon="17.7562249">
        <ele>16.4797</ele>
        <time>2013-04-09T17:20:53Z</time>
      </trkpt>
      <trkpt lat="59.8870099" lon="17.7561641">
        <ele>15.999</ele>
        <time>2013-04-09T17:20:54Z</time>
      </trkpt>
      <trkpt lat="59.8870462" lon="17.7560993">
        <ele>15.5184</ele>
        <time>2013-04-09T17:20:55Z</time>
      </trkpt>
      <trkpt lat="59.8870831" lon="17.7560316">
        <ele>15.0377</ele>
        <time>2013-04-09T17:20:56Z</time>
      </trkpt>
      <trkpt lat="59.8871205" lon="17.7559594">
        <ele>15.0377</ele>
        <time>2013-04-09T17:20:57Z</time>
      </trkpt>
      <trkpt lat="59.8871569" lon="17.7558866">
        <ele>14.557</ele>
        <time>2013-04-09T17:20:58Z</time>
      </trkpt>
      <trkpt lat="59.8871934" lon="17.7558151">
        <ele>13.5958</ele>
        <time>2013-04-09T17:20:59Z</time>
      </trkpt>
      <trkpt lat="59.887232" lon="17.7557412">
        <ele>12.6344</ele>
        <time>2013-04-09T17:21:00Z</time>
      </trkpt>
      <trkpt lat="59.8872742" lon="17.7556654">
        <ele>12.1538</ele>
        <time>2013-04-09T17:21:01Z</time>
      </trkpt>
      <trkpt lat="59.8873193" lon="17.7555924">
        <ele>11.1925</ele>
        <time>2013-04-09T17:21:02Z</time>
      </trkpt>
      <trkpt lat="59.8873716" lon="17.7555266">
        <ele>11.6732</ele>
        <time>2013-04-09T17:21:03Z</time>
      </trkpt>
      <trkpt lat="59.88743" lon="17.7554699">
        <ele>11.1925</ele>
        <time>2013-04-09T17:21:04Z</time>
      </trkpt>
      <trkpt lat="59.8874917" lon="17.7554219">
        <ele>10.7118</ele>
        <time>2013-04-09T17:21:05Z</time>
      </trkpt>
      <trkpt lat="59.8875533" lon="17.755383">
        <ele>10.7118</ele>
        <time>2013-04-09T17:21:06Z</time>
      </trkpt>
      <trkpt lat="59.8876198" lon="17.7553577">
        <ele>10.7118</ele>
        <time>2013-04-09T17:21:07Z</time>
      </trkpt>
      <trkpt lat="59.8876967" lon="17.7553442">
        <ele>11.6732</ele>
        <time>2013-04-09T17:21:08Z</time>
      </trkpt>
      <trkpt lat="59.8877736" lon="17.7553407">
        <ele>12.6344</ele>
        <time>2013-04-09T17:21:09Z</time>
      </trkpt>
      <trkpt lat="59.8878493" lon="17.7553458">
        <ele>13.5958</ele>
        <time>2013-04-09T17:21:10Z</time>
      </trkpt>
      <trkpt lat="59.8879239" lon="17.7553537">
        <ele>14.557</ele>
        <time>2013-04-09T17:21:11Z</time>
      </trkpt>
      <trkpt lat="59.8880004" lon="17.7553643">
        <ele>15.5184</ele>
        <time>2013-04-09T17:21:12Z</time>
      </trkpt>
      <trkpt lat="59.8880739" lon="17.7553718">
        <ele>16.4797</ele>
        <time>2013-04-09T17:21:13Z</time>
      </trkpt>
      <trkpt lat="59.8881464" lon="17.7553832">
        <ele>16.9604</ele>
        <time>2013-04-09T17:21:14Z</time>
      </trkpt>
      <trkpt lat="59.8882209" lon="17.7553879">
        <ele>17.4412</ele>
        <time>2013-04-09T17:21:15Z</time>
      </trkpt>
      <trkpt lat="59.8882972" lon="17.7553772">
        <ele>17.9218</ele>
        <time>2013-04-09T17:21:16Z</time>
      </trkpt>
      <trkpt lat="59.8883744" lon="17.7553561">
        <ele>17.9218</ele>
        <time>2013-04-09T17:21:17Z</time>
      </trkpt>
      <trkpt lat="59.8884542" lon="17.7553255">
        <ele>17.9218</ele>
        <time>2013-04-09T17:21:18Z</time>
      </trkpt>
      <trkpt lat="59.8885315" lon="17.7552757">
        <ele>17.9218</ele>
        <time>2013-04-09T17:21:19Z</time>
      </trkpt>
      <trkpt lat="59.8886069" lon="17.7552122">
        <ele>18.4023</ele>
        <time>2013-04-09T17:21:20Z</time>
      </trkpt>
      <trkpt lat="59.8886779" lon="17.7551381">
        <ele>18.4023</ele>
        <time>2013-04-09T17:21:21Z</time>
      </trkpt>
      <trkpt lat="59.8887428" lon="17.7550521">
        <ele>18.8831</ele>
        <time>2013-04-09T17:21:22Z</time>
      </trkpt>
      <trkpt lat="59.8888029" lon="17.7549504">
        <ele>18.4023</ele>
        <time>2013-04-09T17:21:23Z</time>
      </trkpt>
      <trkpt lat="59.8888643" lon="17.7548369">
        <ele>18.8831</ele>
        <time>2013-04-09T17:21:24Z</time>
      </trkpt>
      <trkpt lat="59.8889149" lon="17.7547074">
        <ele>18.4023</ele>
        <time>2013-04-09T17:21:25Z</time>
      </trkpt>
      <trkpt lat="59.8889671" lon="17.7545682">
        <ele>19.8444</ele>
        <time>2013-04-09T17:21:26Z</time>
      </trkpt>
      <trkpt lat="59.8890125" lon="17.7544186">
        <ele>20.325</ele>
        <time>2013-04-09T17:21:27Z</time>
      </trkpt>
      <trkpt lat="59.8890525" lon="17.7542627">
        <ele>20.8057</ele>
        <time>2013-04-09T17:21:28Z</time>
      </trkpt>
      <trkpt lat="59.8890877" lon="17.754101">
        <ele>20.325</ele>
        <time>2013-04-09T17:21:29Z</time>
      </trkpt>
      <trkpt lat="59.8891269" lon="17.7539436">
        <ele>20.325</ele>
        <time>2013-04-09T17:21:30Z</time>
      </trkpt>
      <trkpt lat="59.8891685" lon="17.7537927">
        <ele>20.325</ele>
        <time>2013-04-09T17:21:31Z</time>
      </trkpt>
      <trkpt lat="59.8892106" lon="17.7536456">
        <ele>20.325</ele>
        <time>2013-04-09T17:21:32Z</time>
      </trkpt>
      <trkpt lat="59.889254" lon="17.7535037">
        <ele>19.8444</ele>
        <time>2013-04-09T17:21:33Z</time>
      </trkpt>
      <trkpt lat="59.8892974" lon="17.7533652">
        <ele>19.3638</ele>
        <time>2013-04-09T17:21:34Z</time>
      </trkpt>
      <trkpt lat="59.88934" lon="17.7532287">
        <ele>18.8831</ele>
        <time>2013-04-09T17:21:35Z</time>
      </trkpt>
      <trkpt lat="59.8893794" lon="17.753095">
        <ele>18.8831</ele>
        <time>2013-04-09T17:21:36Z</time>
      </trkpt>
      <trkpt lat="59.8894115" lon="17.7529552">
        <ele>18.8831</ele>
        <time>2013-04-09T17:21:37Z</time>
      </trkpt>
      <trkpt lat="59.8894358" lon="17.7528111">
        <ele>18.8831</ele>
        <time>2013-04-09T17:21:38Z</time>
      </trkpt>
      <trkpt lat="59.8894536" lon="17.7526654">
        <ele>18.4023</ele>
        <time>2013-04-09T17:21:39Z</time>
      </trkpt>
      <trkpt lat="59.8894679" lon="17.7525195">
        <ele>18.4023</ele>
        <time>2013-04-09T17:21:40Z</time>
      </trkpt>
      <trkpt lat="59.8894794" lon="17.7523744">
        <ele>18.4023</ele>
        <time>2013-04-09T17:21:41Z</time>
      </trkpt>
      <trkpt lat="59.8894907" lon="17.752231">
        <ele>17.9218</ele>
        <time>2013-04-09T17:21:42Z</time>
      </trkpt>
      <trkpt lat="59.8895011" lon="17.7520886">
        <ele>17.9218</ele>
        <time>2013-04-09T17:21:43Z</time>
      </trkpt>
      <trkpt lat="59.8895098" lon="17.7519471">
        <ele>17.9218</ele>
        <time>2013-04-09T17:21:44Z</time>
      </trkpt>
      <trkpt lat="59.8895182" lon="17.7518086">
        <ele>17.4412</ele>
        <time>2013-04-09T17:21:45Z</time>
      </trkpt>
      <trkpt lat="59.8895269" lon="17.7516765">
        <ele>17.4412</ele>
        <time>2013-04-09T17:21:46Z</time>
      </trkpt>
      <trkpt lat="59.8895338" lon="17.7515448">
        <ele>16.9604</ele>
        <time>2013-04-09T17:21:47Z</time>
      </trkpt>
      <trkpt lat="59.8895405" lon="17.7514136">
        <ele>16.9604</ele>
        <time>2013-04-09T17:21:48Z</time>
      </trkpt>
      <trkpt lat="59.8895488" lon="17.7512849">
        <ele>16.9604</ele>
        <time>2013-04-09T17:21:49Z</time>
      </trkpt>
      <trkpt lat="59.8895612" lon="17.7511582">
        <ele>16.9604</ele>
        <time>2013-04-09T17:21:50Z</time>
      </trkpt>
      <trkpt lat="59.8895776" lon="17.751033">
        <ele>16.4797</ele>
        <time>2013-04-09T17:21:51Z</time>
      </trkpt>
      <trkpt lat="59.889598" lon="17.7509092">
        <ele>16.9604</ele>
        <time>2013-04-09T17:21:52Z</time>
      </trkpt>
      <trkpt lat="59.8896264" lon="17.7507828">
        <ele>16.9604</ele>
        <time>2013-04-09T17:21:53Z</time>
      </trkpt>
      <trkpt lat="59.8896595" lon="17.7506577">
        <ele>16.4797</ele>
        <time>2013-04-09T17:21:54Z</time>
      </trkpt>
      <trkpt lat="59.8896995" lon="17.7505414">
        <ele>15.999</ele>
        <time>2013-04-09T17:21:55Z</time>
      </trkpt>
      <trkpt lat="59.8897478" lon="17.750439">
        <ele>15.999</ele>
        <time>2013-04-09T17:21:56Z</time>
      </trkpt>
      <trkpt lat="59.8898016" lon="17.7503432">
        <ele>15.5184</ele>
        <time>2013-04-09T17:21:57Z</time>
      </trkpt>
      <trkpt lat="59.8898586" lon="17.7502491">
        <ele>15.5184</ele>
        <time>2013-04-09T17:21:58Z</time>
      </trkpt>
      <trkpt lat="59.889915" lon="17.7501517">
        <ele>15.5184</ele>
        <time>2013-04-09T17:21:59Z</time>
      </trkpt>
      <trkpt lat="59.8899723" lon="17.7500601">
        <ele>15.0377</ele>
        <time>2013-04-09T17:22:00Z</time>
      </trkpt>
      <trkpt lat="59.8900317" lon="17.7499673">
        <ele>15.0377</ele>
        <time>2013-04-09T17:22:01Z</time>
      </trkpt>
      <trkpt lat="59.8900894" lon="17.749865">
        <ele>14.557</ele>
        <time>2013-04-09T17:22:02Z</time>
      </trkpt>
      <trkpt lat="59.8901505" lon="17.7497589">
        <ele>15.0377</ele>
        <time>2013-04-09T17:22:03Z</time>
      </trkpt>
      <trkpt lat="59.8902099" lon="17.7496459">
        <ele>15.5184</ele>
        <time>2013-04-09T17:22:04Z</time>
      </trkpt>
      <trkpt lat="59.8902669" lon="17.7495257">
        <ele>15.999</ele>
        <time>2013-04-09T17:22:05Z</time>
      </trkpt>
      <trkpt lat="59.8903191" lon="17.7494042">
        <ele>15.999</ele>
        <time>2013-04-09T17:22:06Z</time>
      </trkpt>
      <trkpt lat="59.8903722" lon="17.749282">
        <ele>15.5184</ele>
        <time>2013-04-09T17:22:07Z</time>
      </trkpt>
      <trkpt lat="59.8904258" lon="17.7491571">
        <ele>15.0377</ele>
        <time>2013-04-09T17:22:08Z</time>
      </trkpt>
      <trkpt lat="59.8904794" lon="17.7490282">
        <ele>14.557</ele>
        <time>2013-04-09T17:22:09Z</time>
      </trkpt>
      <trkpt lat="59.8905323" lon="17.7488944">
        <ele>14.557</ele>
        <time>2013-04-09T17:22:10Z</time>
      </trkpt>
      <trkpt lat="59.8905851" lon="17.7487588">
        <ele>14.0764</ele>
        <time>2013-04-09T17:22:11Z</time>
      </trkpt>
      <trkpt lat="59.890644" lon="17.7486263">
        <ele>14.557</ele>
        <time>2013-04-09T17:22:12Z</time>
      </trkpt>
      <trkpt lat="59.8907046" lon="17.7484997">
        <ele>14.557</ele>
        <time>2013-04-09T17:22:13Z</time>
      </trkpt>
      <trkpt lat="59.8907681" lon="17.748383">
        <ele>14.0764</ele>
        <time>2013-04-09T17:22:14Z</time>
      </trkpt>
      <trkpt lat="59.8908356" lon="17.748275">
        <ele>14.0764</ele>
        <time>2013-04-09T17:22:15Z</time>
      </trkpt>
      <trkpt lat="59.8909065" lon="17.748175">
        <ele>13.5958</ele>
        <time>2013-04-09T17:22:16Z</time>
      </trkpt>
      <trkpt lat="59.8909789" lon="17.7480777">
        <ele>13.5958</ele>
        <time>2013-04-09T17:22:17Z</time>
      </trkpt>
      <trkpt lat="59.8910513" lon="17.7479813">
        <ele>13.5958</ele>
        <time>2013-04-09T17:22:18Z</time>
      </trkpt>
      <trkpt lat="59.8911235" lon="17.7478881">
        <ele>14.0764</ele>
        <time>2013-04-09T17:22:19Z</time>
      </trkpt>
      <trkpt lat="59.8911955" lon="17.747798">
        <ele>14.0764</ele>
        <time>2013-04-09T17:22:20Z</time>
      </trkpt>
      <trkpt lat="59.8912669" lon="17.747711">
        <ele>14.0764</ele>
        <time>2013-04-09T17:22:21Z</time>
      </trkpt>
      <trkpt lat="59.8913367" lon="17.7476237">
        <ele>14.557</ele>
        <time>2013-04-09T17:22:22Z</time>
      </trkpt>
      <trkpt lat="59.8914038" lon="17.7475331">
        <ele>14.557</ele>
        <time>2013-04-09T17:22:23Z</time>
      </trkpt>
      <trkpt lat="59.891469" lon="17.7474413">
        <ele>14.557</ele>
        <time>2013-04-09T17:22:24Z</time>
      </trkpt>
      <trkpt lat="59.8915329" lon="17.7473498">
        <ele>14.557</ele>
        <time>2013-04-09T17:22:25Z</time>
      </trkpt>
      <trkpt lat="59.8915947" lon="17.7472586">
        <ele>15.0377</ele>
        <time>2013-04-09T17:22:26Z</time>
      </trkpt>
      <trkpt lat="59.8916556" lon="17.7471681">
        <ele>15.5184</ele>
        <time>2013-04-09T17:22:27Z</time>
      </trkpt>
      <trkpt lat="59.8917163" lon="17.7470754">
        <ele>15.5184</ele>
        <time>2013-04-09T17:22:28Z</time>
      </trkpt>
      <trkpt lat="59.8917767" lon="17.7469825">
        <ele>15.5184</ele>
        <time>2013-04-09T17:22:29Z</time>
      </trkpt>
      <trkpt lat="59.8918377" lon="17.7468903">
        <ele>15.0377</ele>
        <time>2013-04-09T17:22:30Z</time>
      </trkpt>
      <trkpt lat="59.891899" lon="17.7467985">
        <ele>15.0377</ele>
        <time>2013-04-09T17:22:31Z</time>
      </trkpt>
      <trkpt lat="59.8919627" lon="17.7467027">
        <ele>15.5184</ele>
        <time>2013-04-09T17:22:32Z</time>
      </trkpt>
      <trkpt lat="59.8920238" lon="17.7466094">
        <ele>15.5184</ele>
        <time>2013-04-09T17:22:33Z</time>
      </trkpt>
      <trkpt lat="59.8920812" lon="17.7465154">
        <ele>15.5184</ele>
        <time>2013-04-09T17:22:34Z</time>
      </trkpt>
      <trkpt lat="59.8921337" lon="17.7464177">
        <ele>15.999</ele>
        <time>2013-04-09T17:22:35Z</time>
      </trkpt>
      <trkpt lat="59.8921829" lon="17.7463165">
        <ele>15.999</ele>
        <time>2013-04-09T17:22:36Z</time>
      </trkpt>
      <trkpt lat="59.8922283" lon="17.7462134">
        <ele>16.4797</ele>
        <time>2013-04-09T17:22:37Z</time>
      </trkpt>
      <trkpt lat="59.89227" lon="17.7461079">
        <ele>16.4797</ele>
        <time>2013-04-09T17:22:38Z</time>
      </trkpt>
      <trkpt lat="59.8923089" lon="17.7460003">
        <ele>16.9604</ele>
        <time>2013-04-09T17:22:39Z</time>
      </trkpt>
      <trkpt lat="59.892346" lon="17.7458898">
        <ele>16.9604</ele>
        <time>2013-04-09T17:22:40Z</time>
      </trkpt>
      <trkpt lat="59.8923807" lon="17.7457782">
        <ele>16.9604</ele>
        <time>2013-04-09T17:22:41Z</time>
      </trkpt>
      <trkpt lat="59.8924152" lon="17.7456707">
        <ele>16.9604</ele>
        <time>2013-04-09T17:22:42Z</time>
      </trkpt>
      <trkpt lat="59.8924495" lon="17.7455693">
        <ele>17.4412</ele>
        <time>2013-04-09T17:22:43Z</time>
      </trkpt>
      <trkpt lat="59.8924833" lon="17.7454675">
        <ele>17.4412</ele>
        <time>2013-04-09T17:22:44Z</time>
      </trkpt>
      <trkpt lat="59.8925173" lon="17.7453647">
        <ele>17.4412</ele>
        <time>2013-04-09T17:22:45Z</time>
      </trkpt>
      <trkpt lat="59.8925504" lon="17.745263">
        <ele>17.4412</ele>
        <time>2013-04-09T17:22:46Z</time>
      </trkpt>
      <trkpt lat="59.8925829" lon="17.7451622">
        <ele>17.4412</ele>
        <time>2013-04-09T17:22:47Z</time>
      </trkpt>
      <trkpt lat="59.8926159" lon="17.7450615">
        <ele>17.4412</ele>
        <time>2013-04-09T17:22:48Z</time>
      </trkpt>
      <trkpt lat="59.8926486" lon="17.744958">
        <ele>17.9218</ele>
        <time>2013-04-09T17:22:49Z</time>
      </trkpt>
      <trkpt lat="59.892682" lon="17.7448545">
        <ele>17.9218</ele>
        <time>2013-04-09T17:22:50Z</time>
      </trkpt>
      <trkpt lat="59.892716" lon="17.7447552">
        <ele>18.4023</ele>
        <time>2013-04-09T17:22:51Z</time>
      </trkpt>
      <trkpt lat="59.8927494" lon="17.7446555">
        <ele>18.4023</ele>
        <time>2013-04-09T17:22:52Z</time>
      </trkpt>
      <trkpt lat="59.8927796" lon="17.7445539">
        <ele>18.4023</ele>
        <time>2013-04-09T17:22:53Z</time>
      </trkpt>
      <trkpt lat="59.8928091" lon="17.744456">
        <ele>18.4023</ele>
        <time>2013-04-09T17:22:54Z</time>
      </trkpt>
      <trkpt lat="59.8928413" lon="17.7443687">
        <ele>18.4023</ele>
        <time>2013-04-09T17:22:55Z</time>
      </trkpt>
      <trkpt lat="59.8928728" lon="17.744291">
        <ele>18.8831</ele>
        <time>2013-04-09T17:22:56Z</time>
      </trkpt>
      <trkpt lat="59.8928985" lon="17.7442272">
        <ele>18.4023</ele>
        <time>2013-04-09T17:22:57Z</time>
      </trkpt>
      <trkpt lat="59.8929241" lon="17.7441722">
        <ele>18.8831</ele>
        <time>2013-04-09T17:22:58Z</time>
      </trkpt>
      <trkpt lat="59.8929459" lon="17.7441068">
        <ele>18.8831</ele>
        <time>2013-04-09T17:22:59Z</time>
      </trkpt>
      <trkpt lat="59.8929677" lon="17.7440282">
        <ele>18.8831</ele>
        <time>2013-04-09T17:23:00Z</time>
      </trkpt>
      <trkpt lat="59.8929937" lon="17.7439476">
        <ele>19.3638</ele>
        <time>2013-04-09T17:23:01Z</time>
      </trkpt>
      <trkpt lat="59.893017" lon="17.7438574">
        <ele>18.8831</ele>
        <time>2013-04-09T17:23:02Z</time>
      </trkpt>
      <trkpt lat="59.8930422" lon="17.743771">
        <ele>18.8831</ele>
        <time>2013-04-09T17:23:03Z</time>
      </trkpt>
      <trkpt lat="59.8930654" lon="17.7436868">
        <ele>18.8831</ele>
        <time>2013-04-09T17:23:04Z</time>
      </trkpt>
      <trkpt lat="59.8930868" lon="17.7436015">
        <ele>17.9218</ele>
        <time>2013-04-09T17:23:05Z</time>
      </trkpt>
      <trkpt lat="59.8931127" lon="17.7435191">
        <ele>17.4412</ele>
        <time>2013-04-09T17:23:06Z</time>
      </trkpt>
      <trkpt lat="59.8931381" lon="17.7434232">
        <ele>17.4412</ele>
        <time>2013-04-09T17:23:07Z</time>
      </trkpt>
      <trkpt lat="59.8931664" lon="17.7433257">
        <ele>17.4412</ele>
        <time>2013-04-09T17:23:08Z</time>
      </trkpt>
      <trkpt lat="59.8931986" lon="17.7432278">
        <ele>18.4023</ele>
        <time>2013-04-09T17:23:09Z</time>
      </trkpt>
      <trkpt lat="59.8932298" lon="17.7431326">
        <ele>19.3638</ele>
        <time>2013-04-09T17:23:10Z</time>
      </trkpt>
      <trkpt lat="59.8932624" lon="17.7430375">
        <ele>19.8444</ele>
        <time>2013-04-09T17:23:11Z</time>
      </trkpt>
      <trkpt lat="59.8932924" lon="17.7429419">
        <ele>19.8444</ele>
        <time>2013-04-09T17:23:12Z</time>
      </trkpt>
      <trkpt lat="59.8933216" lon="17.7428439">
        <ele>19.3638</ele>
        <time>2013-04-09T17:23:13Z</time>
      </trkpt>
      <trkpt lat="59.8933539" lon="17.742739">
        <ele>18.8831</ele>
        <time>2013-04-09T17:23:14Z</time>
      </trkpt>
      <trkpt lat="59.8933888" lon="17.7426311">
        <ele>18.8831</ele>
        <time>2013-04-09T17:23:15Z</time>
      </trkpt>
      <trkpt lat="59.8934256" lon="17.7425174">
        <ele>18.4023</ele>
        <time>2013-04-09T17:23:16Z</time>
      </trkpt>
      <trkpt lat="59.8934635" lon="17.7423987">
        <ele>18.4023</ele>
        <time>2013-04-09T17:23:17Z</time>
      </trkpt>
      <trkpt lat="59.8935022" lon="17.7422762">
        <ele>18.4023</ele>
        <time>2013-04-09T17:23:18Z</time>
      </trkpt>
      <trkpt lat="59.8935437" lon="17.7421519">
        <ele>18.4023</ele>
        <time>2013-04-09T17:23:19Z</time>
      </trkpt>
      <trkpt lat="59.8935865" lon="17.7420252">
        <ele>18.8831</ele>
        <time>2013-04-09T17:23:20Z</time>
      </trkpt>
      <trkpt lat="59.8936286" lon="17.7418941">
        <ele>18.8831</ele>
        <time>2013-04-09T17:23:21Z</time>
      </trkpt>
      <trkpt lat="59.893672" lon="17.7417677">
        <ele>19.3638</ele>
        <time>2013-04-09T17:23:22Z</time>
      </trkpt>
      <trkpt lat="59.8937141" lon="17.7416402">
        <ele>19.3638</ele>
        <time>2013-04-09T17:23:23Z</time>
      </trkpt>
      <trkpt lat="59.8937551" lon="17.7415133">
        <ele>19.3638</ele>
        <time>2013-04-09T17:23:24Z</time>
      </trkpt>
      <trkpt lat="59.8937944" lon="17.7413874">
        <ele>19.3638</ele>
        <time>2013-04-09T17:23:25Z</time>
      </trkpt>
      <trkpt lat="59.8938328" lon="17.7412648">
        <ele>19.3638</ele>
        <time>2013-04-09T17:23:26Z</time>
      </trkpt>
      <trkpt lat="59.8938712" lon="17.7411461">
        <ele>19.3638</ele>
        <time>2013-04-09T17:23:27Z</time>
      </trkpt>
      <trkpt lat="59.8939062" lon="17.7410319">
        <ele>18.8831</ele>
        <time>2013-04-09T17:23:28Z</time>
      </trkpt>
      <trkpt lat="59.8939398" lon="17.7409134">
        <ele>18.8831</ele>
        <time>2013-04-09T17:23:29Z</time>
      </trkpt>
      <trkpt lat="59.8939742" lon="17.7407943">
        <ele>18.4023</ele>
        <time>2013-04-09T17:23:30Z</time>
      </trkpt>
      <trkpt lat="59.8940093" lon="17.7406747">
        <ele>18.4023</ele>
        <time>2013-04-09T17:23:31Z</time>
      </trkpt>
      <trkpt lat="59.8940459" lon="17.7405571">
        <ele>18.4023</ele>
        <time>2013-04-09T17:23:32Z</time>
      </trkpt>
      <trkpt lat="59.8940838" lon="17.7404411">
        <ele>18.4023</ele>
        <time>2013-04-09T17:23:33Z</time>
      </trkpt>
      <trkpt lat="59.8941209" lon="17.7403287">
        <ele>18.8831</ele>
        <time>2013-04-09T17:23:34Z</time>
      </trkpt>
      <trkpt lat="59.8941549" lon="17.7402246">
        <ele>19.3638</ele>
        <time>2013-04-09T17:23:35Z</time>
      </trkpt>
      <trkpt lat="59.8941855" lon="17.740132">
        <ele>19.3638</ele>
        <time>2013-04-09T17:23:36Z</time>
      </trkpt>
      <trkpt lat="59.8942156" lon="17.7400459">
        <ele>19.3638</ele>
        <time>2013-04-09T17:23:37Z</time>
      </trkpt>
      <trkpt lat="59.894244" lon="17.7399749">
        <ele>19.3638</ele>
        <time>2013-04-09T17:23:38Z</time>
      </trkpt>
      <trkpt lat="59.8942713" lon="17.7399054">
        <ele>18.8831</ele>
        <time>2013-04-09T17:23:39Z</time>
      </trkpt>
      <trkpt lat="59.8943" lon="17.7398351">
        <ele>18.8831</ele>
        <time>2013-04-09T17:23:40Z</time>
      </trkpt>
      <trkpt lat="59.8943334" lon="17.7397725">
        <ele>18.8831</ele>
        <time>2013-04-09T17:23:41Z</time>
      </trkpt>
      <trkpt lat="59.8943704" lon="17.7397155">
        <ele>18.8831</ele>
        <time>2013-04-09T17:23:42Z</time>
      </trkpt>
      <trkpt lat="59.894404" lon="17.7396572">
        <ele>19.3638</ele>
        <time>2013-04-09T17:23:43Z</time>
      </trkpt>
      <trkpt lat="59.8944321" lon="17.7395981">
        <ele>19.3638</ele>
        <time>2013-04-09T17:23:44Z</time>
      </trkpt>
      <trkpt lat="59.8944651" lon="17.7395465">
        <ele>18.8831</ele>
        <time>2013-04-09T17:23:45Z</time>
      </trkpt>
      <trkpt lat="59.894758" lon="17.7393347">
        <ele>22.7283</ele>
        <time>2013-04-09T17:36:41Z</time>
      </trkpt>
      <trkpt lat="59.8947803" lon="17.7393205">
        <ele>22.7283</ele>
        <time>2013-04-09T17:36:42Z</time>
      </trkpt>
      <trkpt lat="59.8948055" lon="17.7393077">
        <ele>22.7283</ele>
        <time>2013-04-09T17:36:43Z</time>
      </trkpt>
      <trkpt lat="59.894835" lon="17.7392976">
        <ele>22.2476</ele>
        <time>2013-04-09T17:36:44Z</time>
      </trkpt>
      <trkpt lat="59.8948719" lon="17.7392827">
        <ele>22.2476</ele>
        <time>2013-04-09T17:36:45Z</time>
      </trkpt>
      <trkpt lat="59.8949185" lon="17.7392641">
        <ele>21.767</ele>
        <time>2013-04-09T17:36:46Z</time>
      </trkpt>
      <trkpt lat="59.8949743" lon="17.7392427">
        <ele>21.767</ele>
        <time>2013-04-09T17:36:47Z</time>
      </trkpt>
      <trkpt lat="59.8950384" lon="17.7392191">
        <ele>21.2864</ele>
        <time>2013-04-09T17:36:48Z</time>
      </trkpt>
      <trkpt lat="59.8951081" lon="17.7391956">
        <ele>21.2864</ele>
        <time>2013-04-09T17:36:49Z</time>
      </trkpt>
      <trkpt lat="59.8951804" lon="17.7391746">
        <ele>21.2864</ele>
        <time>2013-04-09T17:36:50Z</time>
      </trkpt>
      <trkpt lat="59.8952525" lon="17.7391562">
        <ele>20.8057</ele>
        <time>2013-04-09T17:36:51Z</time>
      </trkpt>
      <trkpt lat="59.8953267" lon="17.7391373">
        <ele>20.8057</ele>
        <time>2013-04-09T17:36:52Z</time>
      </trkpt>
      <trkpt lat="59.8954053" lon="17.7391205">
        <ele>20.8057</ele>
        <time>2013-04-09T17:36:53Z</time>
      </trkpt>
      <trkpt lat="59.8954873" lon="17.7391057">
        <ele>20.325</ele>
        <time>2013-04-09T17:36:54Z</time>
      </trkpt>
      <trkpt lat="59.8955733" lon="17.7390891">
        <ele>20.325</ele>
        <time>2013-04-09T17:36:55Z</time>
      </trkpt>
      <trkpt lat="59.8956629" lon="17.7390703">
        <ele>20.325</ele>
        <time>2013-04-09T17:36:56Z</time>
      </trkpt>
      <trkpt lat="59.8957545" lon="17.7390459">
        <ele>20.325</ele>
        <time>2013-04-09T17:36:57Z</time>
      </trkpt>
      <trkpt lat="59.8958455" lon="17.7390149">
        <ele>20.8057</ele>
        <time>2013-04-09T17:36:58Z</time>
      </trkpt>
      <trkpt lat="59.8959359" lon="17.7389808">
        <ele>20.8057</ele>
        <time>2013-04-09T17:36:59Z</time>
      </trkpt>
      <trkpt lat="59.8960258" lon="17.738945">
        <ele>21.2864</ele>
        <time>2013-04-09T17:37:00Z</time>
      </trkpt>
      <trkpt lat="59.8961145" lon="17.7389097">
        <ele>21.2864</ele>
        <time>2013-04-09T17:37:01Z</time>
      </trkpt>
      <trkpt lat="59.8962019" lon="17.7388786">
        <ele>21.767</ele>
        <time>2013-04-09T17:37:02Z</time>
      </trkpt>
      <trkpt lat="59.8962853" lon="17.7388414">
        <ele>22.2476</ele>
        <time>2013-04-09T17:37:03Z</time>
      </trkpt>
      <trkpt lat="59.8963622" lon="17.7387799">
        <ele>22.2476</ele>
        <time>2013-04-09T17:37:04Z</time>
      </trkpt>
      <trkpt lat="59.8964326" lon="17.7386887">
        <ele>22.7283</ele>
        <time>2013-04-09T17:37:05Z</time>
      </trkpt>
      <trkpt lat="59.8964927" lon="17.7385712">
        <ele>22.7283</ele>
        <time>2013-04-09T17:37:06Z</time>
      </trkpt>
      <trkpt lat="59.8965413" lon="17.7384296">
        <ele>22.7283</ele>
        <time>2013-04-09T17:37:07Z</time>
      </trkpt>
      <trkpt lat="59.8965823" lon="17.7382795">
        <ele>23.209</ele>
        <time>2013-04-09T17:37:08Z</time>
      </trkpt>
      <trkpt lat="59.8966196" lon="17.7381292">
        <ele>23.209</ele>
        <time>2013-04-09T17:37:09Z</time>
      </trkpt>
      <trkpt lat="59.8966579" lon="17.7379842">
        <ele>23.209</ele>
        <time>2013-04-09T17:37:10Z</time>
      </trkpt>
      <trkpt lat="59.8966989" lon="17.7378464">
        <ele>23.6896</ele>
        <time>2013-04-09T17:37:11Z</time>
      </trkpt>
      <trkpt lat="59.8967424" lon="17.7377151">
        <ele>23.6896</ele>
        <time>2013-04-09T17:37:12Z</time>
      </trkpt>
      <trkpt lat="59.8967876" lon="17.7375874">
        <ele>23.6896</ele>
        <time>2013-04-09T17:37:13Z</time>
      </trkpt>
      <trkpt lat="59.8968315" lon="17.7374584">
        <ele>23.6896</ele>
        <time>2013-04-09T17:37:14Z</time>
      </trkpt>
      <trkpt lat="59.8968744" lon="17.7373267">
        <ele>23.6896</ele>
        <time>2013-04-09T17:37:15Z</time>
      </trkpt>
      <trkpt lat="59.8969185" lon="17.7371931">
        <ele>23.209</ele>
        <time>2013-04-09T17:37:16Z</time>
      </trkpt>
      <trkpt lat="59.8969634" lon="17.7370575">
        <ele>23.209</ele>
        <time>2013-04-09T17:37:17Z</time>
      </trkpt>
      <trkpt lat="59.8970075" lon="17.7369186">
        <ele>23.209</ele>
        <time>2013-04-09T17:37:18Z</time>
      </trkpt>
      <trkpt lat="59.8970496" lon="17.7367761">
        <ele>22.7283</ele>
        <time>2013-04-09T17:37:19Z</time>
      </trkpt>
      <trkpt lat="59.8970875" lon="17.736628">
        <ele>22.7283</ele>
        <time>2013-04-09T17:37:20Z</time>
      </trkpt>
      <trkpt lat="59.897119" lon="17.7364748">
        <ele>22.7283</ele>
        <time>2013-04-09T17:37:21Z</time>
      </trkpt>
      <trkpt lat="59.8971433" lon="17.7363193">
        <ele>22.7283</ele>
        <time>2013-04-09T17:37:22Z</time>
      </trkpt>
      <trkpt lat="59.8971604" lon="17.7361639">
        <ele>23.209</ele>
        <time>2013-04-09T17:37:23Z</time>
      </trkpt>
      <trkpt lat="59.8971704" lon="17.7360135">
        <ele>23.209</ele>
        <time>2013-04-09T17:37:24Z</time>
      </trkpt>
      <trkpt lat="59.897176" lon="17.7358671">
        <ele>23.209</ele>
        <time>2013-04-09T17:37:25Z</time>
      </trkpt>
      <trkpt lat="59.8971789" lon="17.7357201">
        <ele>23.6896</ele>
        <time>2013-04-09T17:37:26Z</time>
      </trkpt>
      <trkpt lat="59.89718" lon="17.7355768">
        <ele>24.1703</ele>
        <time>2013-04-09T17:37:27Z</time>
      </trkpt>
      <trkpt lat="59.897181" lon="17.7354374">
        <ele>24.1703</ele>
        <time>2013-04-09T17:37:28Z</time>
      </trkpt>
      <trkpt lat="59.8971822" lon="17.7353031">
        <ele>24.651</ele>
        <time>2013-04-09T17:37:29Z</time>
      </trkpt>
      <trkpt lat="59.8971844" lon="17.7351769">
        <ele>25.1317</ele>
        <time>2013-04-09T17:37:30Z</time>
      </trkpt>
      <trkpt lat="59.8971879" lon="17.7350539">
        <ele>25.1317</ele>
        <time>2013-04-09T17:37:31Z</time>
      </trkpt>
      <trkpt lat="59.8971958" lon="17.734936">
        <ele>25.6123</ele>
        <time>2013-04-09T17:37:32Z</time>
      </trkpt>
      <trkpt lat="59.8972076" lon="17.7348233">
        <ele>25.6123</ele>
        <time>2013-04-09T17:37:33Z</time>
      </trkpt>
      <trkpt lat="59.8972231" lon="17.7347131">
        <ele>25.6123</ele>
        <time>2013-04-09T17:37:34Z</time>
      </trkpt>
      <trkpt lat="59.8972428" lon="17.7346058">
        <ele>25.6123</ele>
        <time>2013-04-09T17:37:35Z</time>
      </trkpt>
      <trkpt lat="59.8972647" lon="17.7344998">
        <ele>26.0929</ele>
        <time>2013-04-09T17:37:36Z</time>
      </trkpt>
      <trkpt lat="59.8972894" lon="17.7343981">
        <ele>26.0929</ele>
        <time>2013-04-09T17:37:37Z</time>
      </trkpt>
      <trkpt lat="59.8973139" lon="17.7343043">
        <ele>26.0929</ele>
        <time>2013-04-09T17:37:38Z</time>
      </trkpt>
      <trkpt lat="59.8973366" lon="17.7342134">
        <ele>26.5736</ele>
        <time>2013-04-09T17:37:39Z</time>
      </trkpt>
      <trkpt lat="59.8973593" lon="17.7341224">
        <ele>26.5736</ele>
        <time>2013-04-09T17:37:40Z</time>
      </trkpt>
      <trkpt lat="59.8973816" lon="17.7340314">
        <ele>27.0543</ele>
        <time>2013-04-09T17:37:41Z</time>
      </trkpt>
      <trkpt lat="59.8974013" lon="17.7339373">
        <ele>27.0543</ele>
        <time>2013-04-09T17:37:42Z</time>
      </trkpt>
      <trkpt lat="59.8974183" lon="17.7338396">
        <ele>27.5349</ele>
        <time>2013-04-09T17:37:43Z</time>
      </trkpt>
      <trkpt lat="59.897434" lon="17.7337413">
        <ele>27.5349</ele>
        <time>2013-04-09T17:37:44Z</time>
      </trkpt>
      <trkpt lat="59.8974499" lon="17.7336437">
        <ele>27.5349</ele>
        <time>2013-04-09T17:37:45Z</time>
      </trkpt>
      <trkpt lat="59.8974653" lon="17.7335448">
        <ele>27.5349</ele>
        <time>2013-04-09T17:37:46Z</time>
      </trkpt>
      <trkpt lat="59.8974799" lon="17.7334454">
        <ele>27.5349</ele>
        <time>2013-04-09T17:37:47Z</time>
      </trkpt>
      <trkpt lat="59.8974918" lon="17.7333418">
        <ele>27.5349</ele>
        <time>2013-04-09T17:37:48Z</time>
      </trkpt>
      <trkpt lat="59.8975018" lon="17.7332319">
        <ele>27.5349</ele>
        <time>2013-04-09T17:37:49Z</time>
      </trkpt>
      <trkpt lat="59.8975097" lon="17.7331175">
        <ele>27.5349</ele>
        <time>2013-04-09T17:37:50Z</time>
      </trkpt>
      <trkpt lat="59.8975172" lon="17.7330003">
        <ele>27.5349</ele>
        <time>2013-04-09T17:37:51Z</time>
      </trkpt>
      <trkpt lat="59.8975234" lon="17.7328814">
        <ele>27.5349</ele>
        <time>2013-04-09T17:37:52Z</time>
      </trkpt>
      <trkpt lat="59.8975282" lon="17.732764">
        <ele>27.5349</ele>
        <time>2013-04-09T17:37:53Z</time>
      </trkpt>
      <trkpt lat="59.8975321" lon="17.7326454">
        <ele>28.0155</ele>
        <time>2013-04-09T17:37:54Z</time>
      </trkpt>
      <trkpt lat="59.897537" lon="17.7325269">
        <ele>28.0155</ele>
        <time>2013-04-09T17:37:55Z</time>
      </trkpt>
      <trkpt lat="59.8975435" lon="17.7324083">
        <ele>27.5349</ele>
        <time>2013-04-09T17:37:56Z</time>
      </trkpt>
      <trkpt lat="59.8975489" lon="17.7322892">
        <ele>28.0155</ele>
        <time>2013-04-09T17:37:57Z</time>
      </trkpt>
      <trkpt lat="59.8975531" lon="17.732168">
        <ele>28.0155</ele>
        <time>2013-04-09T17:37:58Z</time>
      </trkpt>
      <trkpt lat="59.8975561" lon="17.7320448">
        <ele>28.0155</ele>
        <time>2013-04-09T17:37:59Z</time>
      </trkpt>
      <trkpt lat="59.8975617" lon="17.7319254">
        <ele>28.0155</ele>
        <time>2013-04-09T17:38:00Z</time>
      </trkpt>
      <trkpt lat="59.8975655" lon="17.7318036">
        <ele>28.0155</ele>
        <time>2013-04-09T17:38:01Z</time>
      </trkpt>
      <trkpt lat="59.897569" lon="17.7316831">
        <ele>28.4962</ele>
        <time>2013-04-09T17:38:02Z</time>
      </trkpt>
      <trkpt lat="59.8975715" lon="17.7315633">
        <ele>28.4962</ele>
        <time>2013-04-09T17:38:03Z</time>
      </trkpt>
      <trkpt lat="59.8975703" lon="17.7314432">
        <ele>28.9769</ele>
        <time>2013-04-09T17:38:04Z</time>
      </trkpt>
      <trkpt lat="59.8975676" lon="17.731324">
        <ele>28.9769</ele>
        <time>2013-04-09T17:38:05Z</time>
      </trkpt>
      <trkpt lat="59.897566" lon="17.7312107">
        <ele>28.9769</ele>
        <time>2013-04-09T17:38:06Z</time>
      </trkpt>
      <trkpt lat="59.8975603" lon="17.7310976">
        <ele>28.9769</ele>
        <time>2013-04-09T17:38:07Z</time>
      </trkpt>
      <trkpt lat="59.8975511" lon="17.7309816">
        <ele>28.9769</ele>
        <time>2013-04-09T17:38:08Z</time>
      </trkpt>
      <trkpt lat="59.897539" lon="17.7308657">
        <ele>28.9769</ele>
        <time>2013-04-09T17:38:09Z</time>
      </trkpt>
      <trkpt lat="59.897522" lon="17.7307418">
        <ele>28.9769</ele>
        <time>2013-04-09T17:38:10Z</time>
      </trkpt>
      <trkpt lat="59.8975035" lon="17.7306102">
        <ele>28.9769</ele>
        <time>2013-04-09T17:38:11Z</time>
      </trkpt>
      <trkpt lat="59.8974842" lon="17.7304716">
        <ele>28.9769</ele>
        <time>2013-04-09T17:38:12Z</time>
      </trkpt>
      <trkpt lat="59.8974679" lon="17.7303264">
        <ele>28.4962</ele>
        <time>2013-04-09T17:38:13Z</time>
      </trkpt>
      <trkpt lat="59.8974593" lon="17.7301779">
        <ele>28.0155</ele>
        <time>2013-04-09T17:38:14Z</time>
      </trkpt>
      <trkpt lat="59.8974572" lon="17.7300219">
        <ele>27.0543</ele>
        <time>2013-04-09T17:38:15Z</time>
      </trkpt>
      <trkpt lat="59.8974635" lon="17.7298575">
        <ele>26.5736</ele>
        <time>2013-04-09T17:38:16Z</time>
      </trkpt>
      <trkpt lat="59.8974779" lon="17.729694">
        <ele>26.0929</ele>
        <time>2013-04-09T17:38:17Z</time>
      </trkpt>
      <trkpt lat="59.8974974" lon="17.7295319">
        <ele>25.6123</ele>
        <time>2013-04-09T17:38:18Z</time>
      </trkpt>
      <trkpt lat="59.8975204" lon="17.7293712">
        <ele>25.1317</ele>
        <time>2013-04-09T17:38:19Z</time>
      </trkpt>
      <trkpt lat="59.8975463" lon="17.7292132">
        <ele>24.651</ele>
        <time>2013-04-09T17:38:20Z</time>
      </trkpt>
      <trkpt lat="59.8975738" lon="17.7290576">
        <ele>24.651</ele>
        <time>2013-04-09T17:38:21Z</time>
      </trkpt>
      <trkpt lat="59.8976022" lon="17.7289054">
        <ele>25.1317</ele>
        <time>2013-04-09T17:38:22Z</time>
      </trkpt>
      <trkpt lat="59.8976314" lon="17.7287588">
        <ele>24.651</ele>
        <time>2013-04-09T17:38:23Z</time>
      </trkpt>
      <trkpt lat="59.8976593" lon="17.7286145">
        <ele>24.651</ele>
        <time>2013-04-09T17:38:24Z</time>
      </trkpt>
      <trkpt lat="59.8976873" lon="17.7284734">
        <ele>24.1703</ele>
        <time>2013-04-09T17:38:25Z</time>
      </trkpt>
      <trkpt lat="59.8977164" lon="17.728336">
        <ele>24.1703</ele>
        <time>2013-04-09T17:38:26Z</time>
      </trkpt>
      <trkpt lat="59.8977479" lon="17.7282026">
        <ele>23.6896</ele>
        <time>2013-04-09T17:38:27Z</time>
      </trkpt>
      <trkpt lat="59.8977827" lon="17.7280739">
        <ele>23.6896</ele>
        <time>2013-04-09T17:38:28Z</time>
      </trkpt>
      <trkpt lat="59.89782" lon="17.7279502">
        <ele>23.6896</ele>
        <time>2013-04-09T17:38:29Z</time>
      </trkpt>
      <trkpt lat="59.8978585" lon="17.7278307">
        <ele>23.6896</ele>
        <time>2013-04-09T17:38:30Z</time>
      </trkpt>
      <trkpt lat="59.8978981" lon="17.727717">
        <ele>23.6896</ele>
        <time>2013-04-09T17:38:31Z</time>
      </trkpt>
      <trkpt lat="59.8979395" lon="17.7276094">
        <ele>23.209</ele>
        <time>2013-04-09T17:38:32Z</time>
      </trkpt>
      <trkpt lat="59.8979807" lon="17.7275043">
        <ele>23.209</ele>
        <time>2013-04-09T17:38:33Z</time>
      </trkpt>
      <trkpt lat="59.8980201" lon="17.7273988">
        <ele>23.209</ele>
        <time>2013-04-09T17:38:34Z</time>
      </trkpt>
      <trkpt lat="59.8980584" lon="17.7272929">
        <ele>23.209</ele>
        <time>2013-04-09T17:38:35Z</time>
      </trkpt>
      <trkpt lat="59.8980958" lon="17.7271863">
        <ele>22.7283</ele>
        <time>2013-04-09T17:38:36Z</time>
      </trkpt>
      <trkpt lat="59.8981317" lon="17.7270788">
        <ele>22.7283</ele>
        <time>2013-04-09T17:38:37Z</time>
      </trkpt>
      <trkpt lat="59.8981672" lon="17.7269704">
        <ele>22.7283</ele>
        <time>2013-04-09T17:38:38Z</time>
      </trkpt>
      <trkpt lat="59.898202" lon="17.7268603">
        <ele>22.7283</ele>
        <time>2013-04-09T17:38:39Z</time>
      </trkpt>
      <trkpt lat="59.8982347" lon="17.726747">
        <ele>22.7283</ele>
        <time>2013-04-09T17:38:40Z</time>
      </trkpt>
      <trkpt lat="59.8982653" lon="17.7266319">
        <ele>22.2476</ele>
        <time>2013-04-09T17:38:41Z</time>
      </trkpt>
      <trkpt lat="59.8982953" lon="17.7265168">
        <ele>22.2476</ele>
        <time>2013-04-09T17:38:42Z</time>
      </trkpt>
      <trkpt lat="59.8983245" lon="17.7264039">
        <ele>22.2476</ele>
        <time>2013-04-09T17:38:43Z</time>
      </trkpt>
      <trkpt lat="59.898352" lon="17.7262935">
        <ele>22.2476</ele>
        <time>2013-04-09T17:38:44Z</time>
      </trkpt>
      <trkpt lat="59.8983787" lon="17.7261843">
        <ele>22.2476</ele>
        <time>2013-04-09T17:38:45Z</time>
      </trkpt>
      <trkpt lat="59.8984055" lon="17.7260758">
        <ele>22.2476</ele>
        <time>2013-04-09T17:38:46Z</time>
      </trkpt>
      <trkpt lat="59.8984311" lon="17.7259663">
        <ele>22.2476</ele>
        <time>2013-04-09T17:38:47Z</time>
      </trkpt>
      <trkpt lat="59.8984549" lon="17.7258555">
        <ele>22.2476</ele>
        <time>2013-04-09T17:38:48Z</time>
      </trkpt>
      <trkpt lat="59.8984772" lon="17.7257436">
        <ele>22.2476</ele>
        <time>2013-04-09T17:38:49Z</time>
      </trkpt>
      <trkpt lat="59.8984985" lon="17.7256323">
        <ele>22.2476</ele>
        <time>2013-04-09T17:38:50Z</time>
      </trkpt>
      <trkpt lat="59.8985192" lon="17.7255224">
        <ele>22.7283</ele>
        <time>2013-04-09T17:38:51Z</time>
      </trkpt>
      <trkpt lat="59.8985378" lon="17.7254137">
        <ele>22.7283</ele>
        <time>2013-04-09T17:38:52Z</time>
      </trkpt>
      <trkpt lat="59.8985553" lon="17.7253057">
        <ele>22.7283</ele>
        <time>2013-04-09T17:38:53Z</time>
      </trkpt>
      <trkpt lat="59.8985724" lon="17.7251979">
        <ele>22.7283</ele>
        <time>2013-04-09T17:38:54Z</time>
      </trkpt>
      <trkpt lat="59.8985896" lon="17.725091">
        <ele>22.7283</ele>
        <time>2013-04-09T17:38:55Z</time>
      </trkpt>
      <trkpt lat="59.8986066" lon="17.7249848">
        <ele>22.7283</ele>
        <time>2013-04-09T17:38:56Z</time>
      </trkpt>
      <trkpt lat="59.8986237" lon="17.7248795">
        <ele>22.7283</ele>
        <time>2013-04-09T17:38:57Z</time>
      </trkpt>
      <trkpt lat="59.8986417" lon="17.7247748">
        <ele>22.7283</ele>
        <time>2013-04-09T17:38:58Z</time>
      </trkpt>
      <trkpt lat="59.8986595" lon="17.7246699">
        <ele>22.7283</ele>
        <time>2013-04-09T17:38:59Z</time>
      </trkpt>
      <trkpt lat="59.8986772" lon="17.7245662">
        <ele>22.7283</ele>
        <time>2013-04-09T17:39:00Z</time>
      </trkpt>
      <trkpt lat="59.8986938" lon="17.7244631">
        <ele>23.209</ele>
        <time>2013-04-09T17:39:01Z</time>
      </trkpt>
      <trkpt lat="59.8987091" lon="17.7243605">
        <ele>23.209</ele>
        <time>2013-04-09T17:39:02Z</time>
      </trkpt>
      <trkpt lat="59.8987248" lon="17.7242593">
        <ele>23.209</ele>
        <time>2013-04-09T17:39:03Z</time>
      </trkpt>
      <trkpt lat="59.898741" lon="17.7241576">
        <ele>23.209</ele>
        <time>2013-04-09T17:39:04Z</time>
      </trkpt>
      <trkpt lat="59.8987576" lon="17.7240552">
        <ele>23.209</ele>
        <time>2013-04-09T17:39:05Z</time>
      </trkpt>
      <trkpt lat="59.8987731" lon="17.7239518">
        <ele>23.209</ele>
        <time>2013-04-09T17:39:06Z</time>
      </trkpt>
      <trkpt lat="59.8987886" lon="17.7238483">
        <ele>23.6896</ele>
        <time>2013-04-09T17:39:07Z</time>
      </trkpt>
      <trkpt lat="59.8988052" lon="17.7237456">
        <ele>23.6896</ele>
        <time>2013-04-09T17:39:08Z</time>
      </trkpt>
      <trkpt lat="59.8988227" lon="17.7236431">
        <ele>23.6896</ele>
        <time>2013-04-09T17:39:09Z</time>
      </trkpt>
      <trkpt lat="59.8988402" lon="17.7235414">
        <ele>23.6896</ele>
        <time>2013-04-09T17:39:10Z</time>
      </trkpt>
      <trkpt lat="59.8988569" lon="17.7234403">
        <ele>24.1703</ele>
        <time>2013-04-09T17:39:11Z</time>
      </trkpt>
      <trkpt lat="59.898873" lon="17.72334">
        <ele>24.1703</ele>
        <time>2013-04-09T17:39:12Z</time>
      </trkpt>
      <trkpt lat="59.8988894" lon="17.723239">
        <ele>24.1703</ele>
        <time>2013-04-09T17:39:13Z</time>
      </trkpt>
      <trkpt lat="59.898906" lon="17.7231375">
        <ele>24.651</ele>
        <time>2013-04-09T17:39:14Z</time>
      </trkpt>
      <trkpt lat="59.8989227" lon="17.7230353">
        <ele>24.651</ele>
        <time>2013-04-09T17:39:15Z</time>
      </trkpt>
      <trkpt lat="59.8989397" lon="17.7229324">
        <ele>24.651</ele>
        <time>2013-04-09T17:39:16Z</time>
      </trkpt>
      <trkpt lat="59.8989572" lon="17.7228293">
        <ele>24.651</ele>
        <time>2013-04-09T17:39:17Z</time>
      </trkpt>
      <trkpt lat="59.8989746" lon="17.7227257">
        <ele>24.651</ele>
        <time>2013-04-09T17:39:18Z</time>
      </trkpt>
      <trkpt lat="59.8989907" lon="17.72262">
        <ele>25.1317</ele>
        <time>2013-04-09T17:39:19Z</time>
      </trkpt>
      <trkpt lat="59.8990056" lon="17.7225123">
        <ele>25.1317</ele>
        <time>2013-04-09T17:39:20Z</time>
      </trkpt>
      <trkpt lat="59.8990206" lon="17.7224041">
        <ele>25.1317</ele>
        <time>2013-04-09T17:39:21Z</time>
      </trkpt>
      <trkpt lat="59.8990371" lon="17.7222952">
        <ele>25.1317</ele>
        <time>2013-04-09T17:39:22Z</time>
      </trkpt>
      <trkpt lat="59.8990536" lon="17.7221853">
        <ele>25.1317</ele>
        <time>2013-04-09T17:39:23Z</time>
      </trkpt>
      <trkpt lat="59.8990696" lon="17.7220751">
        <ele>25.1317</ele>
        <time>2013-04-09T17:39:24Z</time>
      </trkpt>
      <trkpt lat="59.8990868" lon="17.7219652">
        <ele>25.1317</ele>
        <time>2013-04-09T17:39:25Z</time>
      </trkpt>
      <trkpt lat="59.8991041" lon="17.7218545">
        <ele>25.1317</ele>
        <time>2013-04-09T17:39:26Z</time>
      </trkpt>
      <trkpt lat="59.899121" lon="17.7217425">
        <ele>25.1317</ele>
        <time>2013-04-09T17:39:27Z</time>
      </trkpt>
      <trkpt lat="59.8991377" lon="17.7216297">
        <ele>25.1317</ele>
        <time>2013-04-09T17:39:28Z</time>
      </trkpt>
      <trkpt lat="59.8991543" lon="17.7215166">
        <ele>25.1317</ele>
        <time>2013-04-09T17:39:29Z</time>
      </trkpt>
      <trkpt lat="59.8991712" lon="17.7214047">
        <ele>25.1317</ele>
        <time>2013-04-09T17:39:30Z</time>
      </trkpt>
      <trkpt lat="59.8991891" lon="17.7212939">
        <ele>25.1317</ele>
        <time>2013-04-09T17:39:31Z</time>
      </trkpt>
      <trkpt lat="59.8992084" lon="17.7211839">
        <ele>25.1317</ele>
        <time>2013-04-09T17:39:32Z</time>
      </trkpt>
      <trkpt lat="59.8992274" lon="17.7210778">
        <ele>25.1317</ele>
        <time>2013-04-09T17:39:33Z</time>
      </trkpt>
      <trkpt lat="59.8992457" lon="17.7209758">
        <ele>25.1317</ele>
        <time>2013-04-09T17:39:34Z</time>
      </trkpt>
      <trkpt lat="59.8994332" lon="17.7201045">
        <ele>20.8057</ele>
        <time>2013-04-09T17:45:01Z</time>
      </trkpt>
      <trkpt lat="59.8994486" lon="17.720033">
        <ele>20.325</ele>
        <time>2013-04-09T17:45:02Z</time>
      </trkpt>
      <trkpt lat="59.8994656" lon="17.7199557">
        <ele>20.325</ele>
        <time>2013-04-09T17:45:03Z</time>
      </trkpt>
      <trkpt lat="59.8994816" lon="17.7198777">
        <ele>20.325</ele>
        <time>2013-04-09T17:45:04Z</time>
      </trkpt>
      <trkpt lat="59.8994971" lon="17.7197947">
        <ele>20.325</ele>
        <time>2013-04-09T17:45:05Z</time>
      </trkpt>
      <trkpt lat="59.8995151" lon="17.7197039">
        <ele>20.325</ele>
        <time>2013-04-09T17:45:06Z</time>
      </trkpt>
      <trkpt lat="59.899535" lon="17.7196091">
        <ele>20.325</ele>
        <time>2013-04-09T17:45:07Z</time>
      </trkpt>
      <trkpt lat="59.8995553" lon="17.719514">
        <ele>20.8057</ele>
        <time>2013-04-09T17:45:08Z</time>
      </trkpt>
      <trkpt lat="59.8995762" lon="17.7194204">
        <ele>20.8057</ele>
        <time>2013-04-09T17:45:09Z</time>
      </trkpt>
      <trkpt lat="59.8995971" lon="17.719326">
        <ele>21.2864</ele>
        <time>2013-04-09T17:45:10Z</time>
      </trkpt>
      <trkpt lat="59.8996198" lon="17.7192276">
        <ele>21.767</ele>
        <time>2013-04-09T17:45:11Z</time>
      </trkpt>
      <trkpt lat="59.8996427" lon="17.7191269">
        <ele>21.767</ele>
        <time>2013-04-09T17:45:12Z</time>
      </trkpt>
      <trkpt lat="59.8996693" lon="17.719025">
        <ele>21.767</ele>
        <time>2013-04-09T17:45:13Z</time>
      </trkpt>
      <trkpt lat="59.8997008" lon="17.7189233">
        <ele>21.767</ele>
        <time>2013-04-09T17:45:14Z</time>
      </trkpt>
      <trkpt lat="59.8997342" lon="17.7188198">
        <ele>21.767</ele>
        <time>2013-04-09T17:45:15Z</time>
      </trkpt>
      <trkpt lat="59.899769" lon="17.7187137">
        <ele>22.2476</ele>
        <time>2013-04-09T17:45:16Z</time>
      </trkpt>
      <trkpt lat="59.8998043" lon="17.7186045">
        <ele>22.2476</ele>
        <time>2013-04-09T17:45:17Z</time>
      </trkpt>
      <trkpt lat="59.8998392" lon="17.7184908">
        <ele>22.2476</ele>
        <time>2013-04-09T17:45:18Z</time>
      </trkpt>
      <trkpt lat="59.8998754" lon="17.7183765">
        <ele>22.2476</ele>
        <time>2013-04-09T17:45:19Z</time>
      </trkpt>
      <trkpt lat="59.8999117" lon="17.7182597">
        <ele>22.2476</ele>
        <time>2013-04-09T17:45:20Z</time>
      </trkpt>
      <trkpt lat="59.8999453" lon="17.7181382">
        <ele>22.2476</ele>
        <time>2013-04-09T17:45:21Z</time>
      </trkpt>
      <trkpt lat="59.8999749" lon="17.7180139">
        <ele>22.2476</ele>
        <time>2013-04-09T17:45:22Z</time>
      </trkpt>
      <trkpt lat="59.9000008" lon="17.7178885">
        <ele>22.2476</ele>
        <time>2013-04-09T17:45:23Z</time>
      </trkpt>
      <trkpt lat="59.9000224" lon="17.7177619">
        <ele>22.2476</ele>
        <time>2013-04-09T17:45:24Z</time>
      </trkpt>
      <trkpt lat="59.9000398" lon="17.7176347">
        <ele>22.2476</ele>
        <time>2013-04-09T17:45:25Z</time>
      </trkpt>
      <trkpt lat="59.9000525" lon="17.7175073">
        <ele>22.2476</ele>
        <time>2013-04-09T17:45:26Z</time>
      </trkpt>
      <trkpt lat="59.9000617" lon="17.7173799">
        <ele>22.2476</ele>
        <time>2013-04-09T17:45:27Z</time>
      </trkpt>
      <trkpt lat="59.9000691" lon="17.7172535">
        <ele>22.2476</ele>
        <time>2013-04-09T17:45:28Z</time>
      </trkpt>
      <trkpt lat="59.9000748" lon="17.7171296">
        <ele>22.2476</ele>
        <time>2013-04-09T17:45:29Z</time>
      </trkpt>
      <trkpt lat="59.9000789" lon="17.7170037">
        <ele>22.2476</ele>
        <time>2013-04-09T17:45:30Z</time>
      </trkpt>
      <trkpt lat="59.9000842" lon="17.7168747">
        <ele>22.2476</ele>
        <time>2013-04-09T17:45:31Z</time>
      </trkpt>
      <trkpt lat="59.9000913" lon="17.7167427">
        <ele>22.2476</ele>
        <time>2013-04-09T17:45:32Z</time>
      </trkpt>
      <trkpt lat="59.9000984" lon="17.7166078">
        <ele>22.2476</ele>
        <time>2013-04-09T17:45:33Z</time>
      </trkpt>
      <trkpt lat="59.9001068" lon="17.7164706">
        <ele>22.2476</ele>
        <time>2013-04-09T17:45:34Z</time>
      </trkpt>
      <trkpt lat="59.9001167" lon="17.7163272">
        <ele>22.2476</ele>
        <time>2013-04-09T17:45:35Z</time>
      </trkpt>
      <trkpt lat="59.900128" lon="17.7161884">
        <ele>22.2476</ele>
        <time>2013-04-09T17:45:36Z</time>
      </trkpt>
      <trkpt lat="59.9001398" lon="17.7160604">
        <ele>22.2476</ele>
        <time>2013-04-09T17:45:37Z</time>
      </trkpt>
      <trkpt lat="59.9001526" lon="17.7159402">
        <ele>22.2476</ele>
        <time>2013-04-09T17:45:38Z</time>
      </trkpt>
      <trkpt lat="59.9001685" lon="17.7158273">
        <ele>22.2476</ele>
        <time>2013-04-09T17:45:39Z</time>
      </trkpt>
      <trkpt lat="59.9001866" lon="17.7157204">
        <ele>22.2476</ele>
        <time>2013-04-09T17:45:40Z</time>
      </trkpt>
      <trkpt lat="59.9002057" lon="17.715617">
        <ele>22.2476</ele>
        <time>2013-04-09T17:45:41Z</time>
      </trkpt>
      <trkpt lat="59.900225" lon="17.7155165">
        <ele>22.2476</ele>
        <time>2013-04-09T17:45:42Z</time>
      </trkpt>
      <trkpt lat="59.9002452" lon="17.7154184">
        <ele>22.2476</ele>
        <time>2013-04-09T17:45:43Z</time>
      </trkpt>
      <trkpt lat="59.9002663" lon="17.7153197">
        <ele>22.2476</ele>
        <time>2013-04-09T17:45:44Z</time>
      </trkpt>
      <trkpt lat="59.9002885" lon="17.7152192">
        <ele>22.2476</ele>
        <time>2013-04-09T17:45:45Z</time>
      </trkpt>
      <trkpt lat="59.9003119" lon="17.7151161">
        <ele>22.2476</ele>
        <time>2013-04-09T17:45:46Z</time>
      </trkpt>
      <trkpt lat="59.9003373" lon="17.715011">
        <ele>22.2476</ele>
        <time>2013-04-09T17:45:47Z</time>
      </trkpt>
      <trkpt lat="59.9003648" lon="17.7149049">
        <ele>22.2476</ele>
        <time>2013-04-09T17:45:48Z</time>
      </trkpt>
      <trkpt lat="59.9003934" lon="17.7147974">
        <ele>22.2476</ele>
        <time>2013-04-09T17:45:49Z</time>
      </trkpt>
      <trkpt lat="59.900423" lon="17.7146882">
        <ele>21.767</ele>
        <time>2013-04-09T17:45:50Z</time>
      </trkpt>
      <trkpt lat="59.9004545" lon="17.7145782">
        <ele>21.767</ele>
        <time>2013-04-09T17:45:51Z</time>
      </trkpt>
      <trkpt lat="59.9004887" lon="17.7144689">
        <ele>21.767</ele>
        <time>2013-04-09T17:45:52Z</time>
      </trkpt>
      <trkpt lat="59.9005239" lon="17.7143603">
        <ele>21.767</ele>
        <time>2013-04-09T17:45:53Z</time>
      </trkpt>
      <trkpt lat="59.9005587" lon="17.7142522">
        <ele>21.2864</ele>
        <time>2013-04-09T17:45:54Z</time>
      </trkpt>
      <trkpt lat="59.9005927" lon="17.7141454">
        <ele>21.2864</ele>
        <time>2013-04-09T17:45:55Z</time>
      </trkpt>
      <trkpt lat="59.9006259" lon="17.714041">
        <ele>21.2864</ele>
        <time>2013-04-09T17:45:56Z</time>
      </trkpt>
      <trkpt lat="59.9006592" lon="17.7139393">
        <ele>21.2864</ele>
        <time>2013-04-09T17:45:57Z</time>
      </trkpt>
      <trkpt lat="59.9006918" lon="17.7138403">
        <ele>21.2864</ele>
        <time>2013-04-09T17:45:58Z</time>
      </trkpt>
      <trkpt lat="59.9007236" lon="17.7137435">
        <ele>21.2864</ele>
        <time>2013-04-09T17:45:59Z</time>
      </trkpt>
      <trkpt lat="59.9007543" lon="17.7136491">
        <ele>21.767</ele>
        <time>2013-04-09T17:46:00Z</time>
      </trkpt>
      <trkpt lat="59.9007838" lon="17.7135569">
        <ele>21.767</ele>
        <time>2013-04-09T17:46:01Z</time>
      </trkpt>
      <trkpt lat="59.9008129" lon="17.7134672">
        <ele>21.767</ele>
        <time>2013-04-09T17:46:02Z</time>
      </trkpt>
      <trkpt lat="59.9008419" lon="17.7133771">
        <ele>21.767</ele>
        <time>2013-04-09T17:46:03Z</time>
      </trkpt>
      <trkpt lat="59.9008703" lon="17.7132844">
        <ele>21.767</ele>
        <time>2013-04-09T17:46:04Z</time>
      </trkpt>
      <trkpt lat="59.9008979" lon="17.713193">
        <ele>21.767</ele>
        <time>2013-04-09T17:46:05Z</time>
      </trkpt>
      <trkpt lat="59.9009234" lon="17.7131045">
        <ele>22.2476</ele>
        <time>2013-04-09T17:46:06Z</time>
      </trkpt>
      <trkpt lat="59.9009449" lon="17.7130176">
        <ele>22.2476</ele>
        <time>2013-04-09T17:46:07Z</time>
      </trkpt>
      <trkpt lat="59.9009624" lon="17.7129343">
        <ele>22.2476</ele>
        <time>2013-04-09T17:46:08Z</time>
      </trkpt>
      <trkpt lat="59.9009803" lon="17.7128638">
        <ele>22.2476</ele>
        <time>2013-04-09T17:46:09Z</time>
      </trkpt>
      <trkpt lat="59.9010008" lon="17.7128163">
        <ele>22.2476</ele>
        <time>2013-04-09T17:46:10Z</time>
      </trkpt>
      <trkpt lat="59.9010197" lon="17.7127867">
        <ele>22.7283</ele>
        <time>2013-04-09T17:46:11Z</time>
      </trkpt>
      <trkpt lat="59.9010352" lon="17.7127613">
        <ele>22.7283</ele>
        <time>2013-04-09T17:46:12Z</time>
      </trkpt>
      <trkpt lat="59.9010445" lon="17.7127318">
        <ele>22.7283</ele>
        <time>2013-04-09T17:46:13Z</time>
      </trkpt>
      <trkpt lat="59.9010425" lon="17.7127027">
        <ele>22.7283</ele>
        <time>2013-04-09T17:46:14Z</time>
      </trkpt>
      <trkpt lat="59.9010332" lon="17.7126778">
        <ele>22.7283</ele>
        <time>2013-04-09T17:46:15Z</time>
      </trkpt>
      <trkpt lat="59.9010238" lon="17.7126514">
        <ele>22.7283</ele>
        <time>2013-04-09T17:46:16Z</time>
      </trkpt>
      <trkpt lat="59.9010194" lon="17.7126193">
        <ele>22.7283</ele>
        <time>2013-04-09T17:46:17Z</time>
      </trkpt>
      <trkpt lat="59.9010217" lon="17.7125877">
        <ele>22.7283</ele>
        <time>2013-04-09T17:46:18Z</time>
      </trkpt>
      <trkpt lat="59.9010305" lon="17.7125614">
        <ele>22.7283</ele>
        <time>2013-04-09T17:46:19Z</time>
      </trkpt>
      <trkpt lat="59.9010429" lon="17.7125311">
        <ele>22.7283</ele>
        <time>2013-04-09T17:46:20Z</time>
      </trkpt>
      <trkpt lat="59.9010544" lon="17.7124861">
        <ele>23.209</ele>
        <time>2013-04-09T17:46:21Z</time>
      </trkpt>
      <trkpt lat="59.9010577" lon="17.7124256">
        <ele>23.209</ele>
        <time>2013-04-09T17:46:22Z</time>
      </trkpt>
      <trkpt lat="59.9010445" lon="17.7123577">
        <ele>23.209</ele>
        <time>2013-04-09T17:46:23Z</time>
      </trkpt>
      <trkpt lat="59.901016" lon="17.7122943">
        <ele>23.209</ele>
        <time>2013-04-09T17:46:24Z</time>
      </trkpt>
      <trkpt lat="59.9009769" lon="17.7122399">
        <ele>23.209</ele>
        <time>2013-04-09T17:46:25Z</time>
      </trkpt>
      <trkpt lat="59.9009332" lon="17.7121907">
        <ele>23.209</ele>
        <time>2013-04-09T17:46:26Z</time>
      </trkpt>
      <trkpt lat="59.9008885" lon="17.7121399">
        <ele>23.209</ele>
        <time>2013-04-09T17:46:27Z</time>
      </trkpt>
      <trkpt lat="59.9008413" lon="17.7120894">
        <ele>23.209</ele>
        <time>2013-04-09T17:46:28Z</time>
      </trkpt>
      <trkpt lat="59.9007927" lon="17.7120376">
        <ele>23.209</ele>
        <time>2013-04-09T17:46:29Z</time>
      </trkpt>
      <trkpt lat="59.9007445" lon="17.7119811">
        <ele>23.209</ele>
        <time>2013-04-09T17:46:30Z</time>
      </trkpt>
      <trkpt lat="59.9006958" lon="17.7119213">
        <ele>23.209</ele>
        <time>2013-04-09T17:46:31Z</time>
      </trkpt>
      <trkpt lat="59.9006446" lon="17.7118629">
        <ele>23.209</ele>
        <time>2013-04-09T17:46:32Z</time>
      </trkpt>
      <trkpt lat="59.9005917" lon="17.7118056">
        <ele>23.209</ele>
        <time>2013-04-09T17:46:33Z</time>
      </trkpt>
      <trkpt lat="59.9005383" lon="17.7117464">
        <ele>23.6896</ele>
        <time>2013-04-09T17:46:34Z</time>
      </trkpt>
      <trkpt lat="59.9004848" lon="17.7116838">
        <ele>23.6896</ele>
        <time>2013-04-09T17:46:35Z</time>
      </trkpt>
      <trkpt lat="59.9004312" lon="17.7116195">
        <ele>23.6896</ele>
        <time>2013-04-09T17:46:36Z</time>
      </trkpt>
      <trkpt lat="59.9003777" lon="17.7115557">
        <ele>23.6896</ele>
        <time>2013-04-09T17:46:37Z</time>
      </trkpt>
      <trkpt lat="59.9003238" lon="17.7114942">
        <ele>23.6896</ele>
        <time>2013-04-09T17:46:38Z</time>
      </trkpt>
      <trkpt lat="59.9002694" lon="17.7114346">
        <ele>23.6896</ele>
        <time>2013-04-09T17:46:39Z</time>
      </trkpt>
      <trkpt lat="59.900215" lon="17.7113746">
        <ele>23.6896</ele>
        <time>2013-04-09T17:46:40Z</time>
      </trkpt>
      <trkpt lat="59.9001611" lon="17.7113113">
        <ele>23.6896</ele>
        <time>2013-04-09T17:46:41Z</time>
      </trkpt>
      <trkpt lat="59.9001069" lon="17.7112466">
        <ele>23.6896</ele>
        <time>2013-04-09T17:46:42Z</time>
      </trkpt>
      <trkpt lat="59.9000512" lon="17.7111835">
        <ele>23.6896</ele>
        <time>2013-04-09T17:46:43Z</time>
      </trkpt>
      <trkpt lat="59.8999948" lon="17.7111191">
        <ele>23.6896</ele>
        <time>2013-04-09T17:46:44Z</time>
      </trkpt>
      <trkpt lat="59.8999383" lon="17.7110526">
        <ele>23.6896</ele>
        <time>2013-04-09T17:46:45Z</time>
      </trkpt>
      <trkpt lat="59.8998809" lon="17.7109882">
        <ele>23.6896</ele>
        <time>2013-04-09T17:46:46Z</time>
      </trkpt>
      <trkpt lat="59.8998225" lon="17.7109263">
        <ele>23.6896</ele>
        <time>2013-04-09T17:46:47Z</time>
      </trkpt>
      <trkpt lat="59.899764" lon="17.7108627">
        <ele>23.6896</ele>
        <time>2013-04-09T17:46:48Z</time>
      </trkpt>
      <trkpt lat="59.8997066" lon="17.7107923">
        <ele>23.6896</ele>
        <time>2013-04-09T17:46:49Z</time>
      </trkpt>
      <trkpt lat="59.89965" lon="17.7107155">
        <ele>23.6896</ele>
        <time>2013-04-09T17:46:50Z</time>
      </trkpt>
      <trkpt lat="59.899592" lon="17.7106394">
        <ele>23.6896</ele>
        <time>2013-04-09T17:46:51Z</time>
      </trkpt>
      <trkpt lat="59.8995325" lon="17.7105658">
        <ele>23.6896</ele>
        <time>2013-04-09T17:46:52Z</time>
      </trkpt>
      <trkpt lat="59.8994728" lon="17.7104924">
        <ele>23.6896</ele>
        <time>2013-04-09T17:46:53Z</time>
      </trkpt>
      <trkpt lat="59.899413" lon="17.7104203">
        <ele>23.6896</ele>
        <time>2013-04-09T17:46:54Z</time>
      </trkpt>
      <trkpt lat="59.8993535" lon="17.7103489">
        <ele>23.6896</ele>
        <time>2013-04-09T17:46:55Z</time>
      </trkpt>
      <trkpt lat="59.8992945" lon="17.7102768">
        <ele>23.6896</ele>
        <time>2013-04-09T17:46:56Z</time>
      </trkpt>
      <trkpt lat="59.8992354" lon="17.7102046">
        <ele>23.6896</ele>
        <time>2013-04-09T17:46:57Z</time>
      </trkpt>
      <trkpt lat="59.8991766" lon="17.7101309">
        <ele>23.6896</ele>
        <time>2013-04-09T17:46:58Z</time>
      </trkpt>
      <trkpt lat="59.8991185" lon="17.7100561">
        <ele>23.6896</ele>
        <time>2013-04-09T17:46:59Z</time>
      </trkpt>
      <trkpt lat="59.8990605" lon="17.7099809">
        <ele>23.6896</ele>
        <time>2013-04-09T17:47:00Z</time>
      </trkpt>
      <trkpt lat="59.8990024" lon="17.7099059">
        <ele>23.6896</ele>
        <time>2013-04-09T17:47:01Z</time>
      </trkpt>
      <trkpt lat="59.8989439" lon="17.7098314">
        <ele>23.6896</ele>
        <time>2013-04-09T17:47:02Z</time>
      </trkpt>
      <trkpt lat="59.8988855" lon="17.7097568">
        <ele>23.6896</ele>
        <time>2013-04-09T17:47:03Z</time>
      </trkpt>
      <trkpt lat="59.8988277" lon="17.709681">
        <ele>23.6896</ele>
        <time>2013-04-09T17:47:04Z</time>
      </trkpt>
      <trkpt lat="59.89877" lon="17.7096034">
        <ele>23.209</ele>
        <time>2013-04-09T17:47:05Z</time>
      </trkpt>
      <trkpt lat="59.898712" lon="17.7095257">
        <ele>23.209</ele>
        <time>2013-04-09T17:47:06Z</time>
      </trkpt>
      <trkpt lat="59.8986533" lon="17.7094499">
        <ele>23.209</ele>
        <time>2013-04-09T17:47:07Z</time>
      </trkpt>
      <trkpt lat="59.8985951" lon="17.709374">
        <ele>23.209</ele>
        <time>2013-04-09T17:47:08Z</time>
      </trkpt>
      <trkpt lat="59.8985381" lon="17.7092956">
        <ele>23.209</ele>
        <time>2013-04-09T17:47:09Z</time>
      </trkpt>
      <trkpt lat="59.8984818" lon="17.7092155">
        <ele>23.209</ele>
        <time>2013-04-09T17:47:10Z</time>
      </trkpt>
      <trkpt lat="59.8984245" lon="17.7091381">
        <ele>23.209</ele>
        <time>2013-04-09T17:47:11Z</time>
      </trkpt>
      <trkpt lat="59.8983668" lon="17.7090627">
        <ele>23.209</ele>
        <time>2013-04-09T17:47:12Z</time>
      </trkpt>
      <trkpt lat="59.8983099" lon="17.708987">
        <ele>23.209</ele>
        <time>2013-04-09T17:47:13Z</time>
      </trkpt>
      <trkpt lat="59.8982543" lon="17.7089112">
        <ele>23.209</ele>
        <time>2013-04-09T17:47:14Z</time>
      </trkpt>
      <trkpt lat="59.8981995" lon="17.708835">
        <ele>23.209</ele>
        <time>2013-04-09T17:47:15Z</time>
      </trkpt>
      <trkpt lat="59.8981446" lon="17.7087611">
        <ele>23.209</ele>
        <time>2013-04-09T17:47:16Z</time>
      </trkpt>
      <trkpt lat="59.8980906" lon="17.7086881">
        <ele>23.209</ele>
        <time>2013-04-09T17:47:17Z</time>
      </trkpt>
      <trkpt lat="59.8980373" lon="17.7086166">
        <ele>23.209</ele>
        <time>2013-04-09T17:47:18Z</time>
      </trkpt>
      <trkpt lat="59.8979845" lon="17.7085487">
        <ele>23.209</ele>
        <time>2013-04-09T17:47:19Z</time>
      </trkpt>
      <trkpt lat="59.8979332" lon="17.7084813">
        <ele>23.209</ele>
        <time>2013-04-09T17:47:20Z</time>
      </trkpt>
      <trkpt lat="59.8978832" lon="17.7084136">
        <ele>23.209</ele>
        <time>2013-04-09T17:47:21Z</time>
      </trkpt>
      <trkpt lat="59.8978344" lon="17.7083469">
        <ele>23.209</ele>
        <time>2013-04-09T17:47:22Z</time>
      </trkpt>
      <trkpt lat="59.897786" lon="17.7082813">
        <ele>23.209</ele>
        <time>2013-04-09T17:47:23Z</time>
      </trkpt>
      <trkpt lat="59.8977373" lon="17.7082182">
        <ele>23.209</ele>
        <time>2013-04-09T17:47:24Z</time>
      </trkpt>
      <trkpt lat="59.8976892" lon="17.7081554">
        <ele>22.7283</ele>
        <time>2013-04-09T17:47:25Z</time>
      </trkpt>
      <trkpt lat="59.897642" lon="17.708091">
        <ele>22.7283</ele>
        <time>2013-04-09T17:47:26Z</time>
      </trkpt>
      <trkpt lat="59.8975951" lon="17.7080254">
        <ele>22.7283</ele>
        <time>2013-04-09T17:47:27Z</time>
      </trkpt>
      <trkpt lat="59.8975473" lon="17.7079604">
        <ele>22.7283</ele>
        <time>2013-04-09T17:47:28Z</time>
      </trkpt>
      <trkpt lat="59.8974983" lon="17.7078974">
        <ele>22.7283</ele>
        <time>2013-04-09T17:47:29Z</time>
      </trkpt>
      <trkpt lat="59.89745" lon="17.7078339">
        <ele>22.7283</ele>
        <time>2013-04-09T17:47:30Z</time>
      </trkpt>
      <trkpt lat="59.8974021" lon="17.7077687">
        <ele>22.7283</ele>
        <time>2013-04-09T17:47:31Z</time>
      </trkpt>
      <trkpt lat="59.8973541" lon="17.7077023">
        <ele>22.7283</ele>
        <time>2013-04-09T17:47:32Z</time>
      </trkpt>
      <trkpt lat="59.8973055" lon="17.7076369">
        <ele>22.7283</ele>
        <time>2013-04-09T17:47:33Z</time>
      </trkpt>
      <trkpt lat="59.8972571" lon="17.7075713">
        <ele>22.7283</ele>
        <time>2013-04-09T17:47:34Z</time>
      </trkpt>
      <trkpt lat="59.8972086" lon="17.7075035">
        <ele>22.7283</ele>
        <time>2013-04-09T17:47:35Z</time>
      </trkpt>
      <trkpt lat="59.8971587" lon="17.7074367">
        <ele>22.7283</ele>
        <time>2013-04-09T17:47:36Z</time>
      </trkpt>
      <trkpt lat="59.8971086" lon="17.7073716">
        <ele>22.7283</ele>
        <time>2013-04-09T17:47:37Z</time>
      </trkpt>
      <trkpt lat="59.8970599" lon="17.7073055">
        <ele>22.7283</ele>
        <time>2013-04-09T17:47:38Z</time>
      </trkpt>
      <trkpt lat="59.8970113" lon="17.7072393">
        <ele>22.7283</ele>
        <time>2013-04-09T17:47:39Z</time>
      </trkpt>
      <trkpt lat="59.8969625" lon="17.7071733">
        <ele>22.2476</ele>
        <time>2013-04-09T17:47:40Z</time>
      </trkpt>
      <trkpt lat="59.8969133" lon="17.7071073">
        <ele>22.2476</ele>
        <time>2013-04-09T17:47:41Z</time>
      </trkpt>
      <trkpt lat="59.8968635" lon="17.7070419">
        <ele>22.2476</ele>
        <time>2013-04-09T17:47:42Z</time>
      </trkpt>
      <trkpt lat="59.8968144" lon="17.7069761">
        <ele>22.2476</ele>
        <time>2013-04-09T17:47:43Z</time>
      </trkpt>
      <trkpt lat="59.8967656" lon="17.7069109">
        <ele>22.2476</ele>
        <time>2013-04-09T17:47:44Z</time>
      </trkpt>
      <trkpt lat="59.896717" lon="17.7068476">
        <ele>22.2476</ele>
        <time>2013-04-09T17:47:45Z</time>
      </trkpt>
      <trkpt lat="59.8966694" lon="17.706783">
        <ele>22.2476</ele>
        <time>2013-04-09T17:47:46Z</time>
      </trkpt>
      <trkpt lat="59.8966225" lon="17.7067176">
        <ele>22.2476</ele>
        <time>2013-04-09T17:47:47Z</time>
      </trkpt>
      <trkpt lat="59.8965746" lon="17.7066547">
        <ele>22.2476</ele>
        <time>2013-04-09T17:47:48Z</time>
      </trkpt>
      <trkpt lat="59.8965265" lon="17.7065937">
        <ele>22.2476</ele>
        <time>2013-04-09T17:47:49Z</time>
      </trkpt>
      <trkpt lat="59.8964791" lon="17.7065326">
        <ele>22.2476</ele>
        <time>2013-04-09T17:47:50Z</time>
      </trkpt>
      <trkpt lat="59.8964321" lon="17.7064705">
        <ele>22.2476</ele>
        <time>2013-04-09T17:47:51Z</time>
      </trkpt>
      <trkpt lat="59.8963856" lon="17.7064071">
        <ele>22.2476</ele>
        <time>2013-04-09T17:47:52Z</time>
      </trkpt>
      <trkpt lat="59.8963389" lon="17.7063431">
        <ele>22.2476</ele>
        <time>2013-04-09T17:47:53Z</time>
      </trkpt>
      <trkpt lat="59.8962918" lon="17.7062795">
        <ele>22.2476</ele>
        <time>2013-04-09T17:47:54Z</time>
      </trkpt>
      <trkpt lat="59.8962451" lon="17.7062157">
        <ele>22.2476</ele>
        <time>2013-04-09T17:47:55Z</time>
      </trkpt>
      <trkpt lat="59.8961988" lon="17.7061505">
        <ele>22.2476</ele>
        <time>2013-04-09T17:47:56Z</time>
      </trkpt>
      <trkpt lat="59.896152" lon="17.7060846">
        <ele>22.2476</ele>
        <time>2013-04-09T17:47:57Z</time>
      </trkpt>
      <trkpt lat="59.8961042" lon="17.7060203">
        <ele>22.2476</ele>
        <time>2013-04-09T17:47:58Z</time>
      </trkpt>
      <trkpt lat="59.8960559" lon="17.7059572">
        <ele>22.7283</ele>
        <time>2013-04-09T17:47:59Z</time>
      </trkpt>
      <trkpt lat="59.8960079" lon="17.7058933">
        <ele>22.7283</ele>
        <time>2013-04-09T17:48:00Z</time>
      </trkpt>
      <trkpt lat="59.8959601" lon="17.7058292">
        <ele>22.7283</ele>
        <time>2013-04-09T17:48:01Z</time>
      </trkpt>
      <trkpt lat="59.8959123" lon="17.7057663">
        <ele>22.7283</ele>
        <time>2013-04-09T17:48:02Z</time>
      </trkpt>
      <trkpt lat="59.8958649" lon="17.7057021">
        <ele>22.7283</ele>
        <time>2013-04-09T17:48:03Z</time>
      </trkpt>
      <trkpt lat="59.8958175" lon="17.7056381">
        <ele>22.7283</ele>
        <time>2013-04-09T17:48:04Z</time>
      </trkpt>
      <trkpt lat="59.8957694" lon="17.7055749">
        <ele>22.7283</ele>
        <time>2013-04-09T17:48:05Z</time>
      </trkpt>
      <trkpt lat="59.8957215" lon="17.70551">
        <ele>22.7283</ele>
        <time>2013-04-09T17:48:06Z</time>
      </trkpt>
      <trkpt lat="59.8956741" lon="17.7054443">
        <ele>22.7283</ele>
        <time>2013-04-09T17:48:07Z</time>
      </trkpt>
      <trkpt lat="59.8956261" lon="17.7053802">
        <ele>22.7283</ele>
        <time>2013-04-09T17:48:08Z</time>
      </trkpt>
      <trkpt lat="59.8955775" lon="17.7053174">
        <ele>22.7283</ele>
        <time>2013-04-09T17:48:09Z</time>
      </trkpt>
      <trkpt lat="59.8955295" lon="17.7052538">
        <ele>22.7283</ele>
        <time>2013-04-09T17:48:10Z</time>
      </trkpt>
      <trkpt lat="59.8954813" lon="17.7051901">
        <ele>22.7283</ele>
        <time>2013-04-09T17:48:11Z</time>
      </trkpt>
      <trkpt lat="59.8954333" lon="17.7051263">
        <ele>22.7283</ele>
        <time>2013-04-09T17:48:12Z</time>
      </trkpt>
      <trkpt lat="59.8953855" lon="17.7050626">
        <ele>22.7283</ele>
        <time>2013-04-09T17:48:13Z</time>
      </trkpt>
      <trkpt lat="59.895337" lon="17.7050008">
        <ele>22.7283</ele>
        <time>2013-04-09T17:48:14Z</time>
      </trkpt>
      <trkpt lat="59.8952892" lon="17.704937">
        <ele>23.209</ele>
        <time>2013-04-09T17:48:15Z</time>
      </trkpt>
      <trkpt lat="59.895242" lon="17.7048697">
        <ele>23.209</ele>
        <time>2013-04-09T17:48:16Z</time>
      </trkpt>
      <trkpt lat="59.8951945" lon="17.7048021">
        <ele>23.209</ele>
        <time>2013-04-09T17:48:17Z</time>
      </trkpt>
      <trkpt lat="59.8951459" lon="17.7047373">
        <ele>23.209</ele>
        <time>2013-04-09T17:48:18Z</time>
      </trkpt>
      <trkpt lat="59.8950967" lon="17.7046747">
        <ele>23.209</ele>
        <time>2013-04-09T17:48:19Z</time>
      </trkpt>
      <trkpt lat="59.8950483" lon="17.7046119">
        <ele>23.209</ele>
        <time>2013-04-09T17:48:20Z</time>
      </trkpt>
      <trkpt lat="59.8950007" lon="17.7045475">
        <ele>23.209</ele>
        <time>2013-04-09T17:48:21Z</time>
      </trkpt>
      <trkpt lat="59.8949532" lon="17.7044837">
        <ele>23.209</ele>
        <time>2013-04-09T17:48:22Z</time>
      </trkpt>
      <trkpt lat="59.8949038" lon="17.704413">
        <ele>23.6896</ele>
        <time>2013-04-09T17:48:23Z</time>
      </trkpt>
      <trkpt lat="59.8948569" lon="17.7043476">
        <ele>23.6896</ele>
        <time>2013-04-09T17:48:24Z</time>
      </trkpt>
      <trkpt lat="59.8948105" lon="17.7042838">
        <ele>23.6896</ele>
        <time>2013-04-09T17:48:25Z</time>
      </trkpt>
      <trkpt lat="59.8947635" lon="17.7042202">
        <ele>23.6896</ele>
        <time>2013-04-09T17:48:26Z</time>
      </trkpt>
      <trkpt lat="59.8947166" lon="17.7041586">
        <ele>23.6896</ele>
        <time>2013-04-09T17:48:27Z</time>
      </trkpt>
      <trkpt lat="59.8946708" lon="17.7040966">
        <ele>23.6896</ele>
        <time>2013-04-09T17:48:28Z</time>
      </trkpt>
      <trkpt lat="59.8946253" lon="17.7040357">
        <ele>23.6896</ele>
        <time>2013-04-09T17:48:29Z</time>
      </trkpt>
      <trkpt lat="59.8945798" lon="17.7039767">
        <ele>24.1703</ele>
        <time>2013-04-09T17:48:30Z</time>
      </trkpt>
      <trkpt lat="59.8945357" lon="17.7039177">
        <ele>24.1703</ele>
        <time>2013-04-09T17:48:31Z</time>
      </trkpt>
      <trkpt lat="59.8944926" lon="17.7038592">
        <ele>24.1703</ele>
        <time>2013-04-09T17:48:32Z</time>
      </trkpt>
      <trkpt lat="59.8944492" lon="17.7038026">
        <ele>24.1703</ele>
        <time>2013-04-09T17:48:33Z</time>
      </trkpt>
      <trkpt lat="59.8944062" lon="17.7037458">
        <ele>24.1703</ele>
        <time>2013-04-09T17:48:34Z</time>
      </trkpt>
      <trkpt lat="59.8943638" lon="17.7036891">
        <ele>24.1703</ele>
        <time>2013-04-09T17:48:35Z</time>
      </trkpt>
      <trkpt lat="59.8943221" lon="17.7036328">
        <ele>24.1703</ele>
        <time>2013-04-09T17:48:36Z</time>
      </trkpt>
      <trkpt lat="59.8942811" lon="17.7035763">
        <ele>24.1703</ele>
        <time>2013-04-09T17:48:37Z</time>
      </trkpt>
      <trkpt lat="59.8942404" lon="17.7035194">
        <ele>24.1703</ele>
        <time>2013-04-09T17:48:38Z</time>
      </trkpt>
      <trkpt lat="59.894199" lon="17.7034635">
        <ele>24.1703</ele>
        <time>2013-04-09T17:48:39Z</time>
      </trkpt>
      <trkpt lat="59.8941568" lon="17.7034086">
        <ele>24.651</ele>
        <time>2013-04-09T17:48:40Z</time>
      </trkpt>
      <trkpt lat="59.8941145" lon="17.7033532">
        <ele>24.651</ele>
        <time>2013-04-09T17:48:41Z</time>
      </trkpt>
      <trkpt lat="59.8940726" lon="17.7032982">
        <ele>24.651</ele>
        <time>2013-04-09T17:48:42Z</time>
      </trkpt>
      <trkpt lat="59.8940309" lon="17.7032443">
        <ele>24.651</ele>
        <time>2013-04-09T17:48:43Z</time>
      </trkpt>
      <trkpt lat="59.8939895" lon="17.7031905">
        <ele>24.651</ele>
        <time>2013-04-09T17:48:44Z</time>
      </trkpt>
      <trkpt lat="59.8939493" lon="17.7031348">
        <ele>24.651</ele>
        <time>2013-04-09T17:48:45Z</time>
      </trkpt>
      <trkpt lat="59.8939094" lon="17.7030795">
        <ele>24.651</ele>
        <time>2013-04-09T17:48:46Z</time>
      </trkpt>
      <trkpt lat="59.8938693" lon="17.7030266">
        <ele>24.651</ele>
        <time>2013-04-09T17:48:47Z</time>
      </trkpt>
      <trkpt lat="59.8938291" lon="17.7029739">
        <ele>24.651</ele>
        <time>2013-04-09T17:48:48Z</time>
      </trkpt>
      <trkpt lat="59.8937885" lon="17.7029205">
        <ele>24.651</ele>
        <time>2013-04-09T17:48:49Z</time>
      </trkpt>
      <trkpt lat="59.8937477" lon="17.7028657">
        <ele>24.651</ele>
        <time>2013-04-09T17:48:50Z</time>
      </trkpt>
      <trkpt lat="59.8937064" lon="17.7028107">
        <ele>24.651</ele>
        <time>2013-04-09T17:48:51Z</time>
      </trkpt>
      <trkpt lat="59.8936645" lon="17.7027552">
        <ele>24.651</ele>
        <time>2013-04-09T17:48:52Z</time>
      </trkpt>
      <trkpt lat="59.8936224" lon="17.7026984">
        <ele>24.651</ele>
        <time>2013-04-09T17:48:53Z</time>
      </trkpt>
      <trkpt lat="59.8935801" lon="17.7026397">
        <ele>25.1317</ele>
        <time>2013-04-09T17:48:54Z</time>
      </trkpt>
      <trkpt lat="59.893537" lon="17.7025812">
        <ele>25.1317</ele>
        <time>2013-04-09T17:48:55Z</time>
      </trkpt>
      <trkpt lat="59.8934929" lon="17.7025236">
        <ele>25.1317</ele>
        <time>2013-04-09T17:48:56Z</time>
      </trkpt>
      <trkpt lat="59.8934494" lon="17.7024648">
        <ele>25.1317</ele>
        <time>2013-04-09T17:48:57Z</time>
      </trkpt>
      <trkpt lat="59.8934069" lon="17.7024072">
        <ele>25.1317</ele>
        <time>2013-04-09T17:48:58Z</time>
      </trkpt>
      <trkpt lat="59.8933644" lon="17.7023521">
        <ele>25.1317</ele>
        <time>2013-04-09T17:48:59Z</time>
      </trkpt>
      <trkpt lat="59.893322" lon="17.7022981">
        <ele>25.1317</ele>
        <time>2013-04-09T17:49:00Z</time>
      </trkpt>
      <trkpt lat="59.8932791" lon="17.7022446">
        <ele>25.1317</ele>
        <time>2013-04-09T17:49:01Z</time>
      </trkpt>
      <trkpt lat="59.8932364" lon="17.7021893">
        <ele>25.1317</ele>
        <time>2013-04-09T17:49:02Z</time>
      </trkpt>
      <trkpt lat="59.8931936" lon="17.7021309">
        <ele>25.1317</ele>
        <time>2013-04-09T17:49:03Z</time>
      </trkpt>
      <trkpt lat="59.89315" lon="17.7020707">
        <ele>25.1317</ele>
        <time>2013-04-09T17:49:04Z</time>
      </trkpt>
      <trkpt lat="59.8931053" lon="17.7020126">
        <ele>25.1317</ele>
        <time>2013-04-09T17:49:05Z</time>
      </trkpt>
      <trkpt lat="59.8930599" lon="17.7019559">
        <ele>25.1317</ele>
        <time>2013-04-09T17:49:06Z</time>
      </trkpt>
      <trkpt lat="59.8930148" lon="17.7018955">
        <ele>25.1317</ele>
        <time>2013-04-09T17:49:07Z</time>
      </trkpt>
      <trkpt lat="59.8929692" lon="17.7018324">
        <ele>25.1317</ele>
        <time>2013-04-09T17:49:08Z</time>
      </trkpt>
      <trkpt lat="59.8929226" lon="17.7017683">
        <ele>24.651</ele>
        <time>2013-04-09T17:49:09Z</time>
      </trkpt>
      <trkpt lat="59.8928745" lon="17.7017043">
        <ele>24.651</ele>
        <time>2013-04-09T17:49:10Z</time>
      </trkpt>
      <trkpt lat="59.8928257" lon="17.7016415">
        <ele>24.651</ele>
        <time>2013-04-09T17:49:11Z</time>
      </trkpt>
      <trkpt lat="59.892777" lon="17.7015774">
        <ele>24.651</ele>
        <time>2013-04-09T17:49:12Z</time>
      </trkpt>
      <trkpt lat="59.8927283" lon="17.7015111">
        <ele>24.651</ele>
        <time>2013-04-09T17:49:13Z</time>
      </trkpt>
      <trkpt lat="59.8926789" lon="17.7014447">
        <ele>24.651</ele>
        <time>2013-04-09T17:49:14Z</time>
      </trkpt>
      <trkpt lat="59.8926292" lon="17.7013791">
        <ele>24.651</ele>
        <time>2013-04-09T17:49:15Z</time>
      </trkpt>
      <trkpt lat="59.8925802" lon="17.7013154">
        <ele>24.651</ele>
        <time>2013-04-09T17:49:16Z</time>
      </trkpt>
      <trkpt lat="59.8925334" lon="17.7012542">
        <ele>24.651</ele>
        <time>2013-04-09T17:49:17Z</time>
      </trkpt>
      <trkpt lat="59.8924905" lon="17.7011977">
        <ele>24.651</ele>
        <time>2013-04-09T17:49:18Z</time>
      </trkpt>
      <trkpt lat="59.8924539" lon="17.7011488">
        <ele>24.651</ele>
        <time>2013-04-09T17:49:19Z</time>
      </trkpt>
      <trkpt lat="59.8924226" lon="17.7011077">
        <ele>24.651</ele>
        <time>2013-04-09T17:49:20Z</time>
      </trkpt>
      <trkpt lat="59.8923997" lon="17.7010697">
        <ele>24.651</ele>
        <time>2013-04-09T17:49:21Z</time>
      </trkpt>
      <trkpt lat="59.8923953" lon="17.7010334">
        <ele>24.651</ele>
        <time>2013-04-09T17:49:22Z</time>
      </trkpt>
      <trkpt lat="59.8924046" lon="17.7010006">
        <ele>24.651</ele>
        <time>2013-04-09T17:49:23Z</time>
      </trkpt>
      <trkpt lat="59.8924173" lon="17.7009696">
        <ele>24.651</ele>
        <time>2013-04-09T17:49:24Z</time>
      </trkpt>
      <trkpt lat="59.8924305" lon="17.7009442">
        <ele>24.651</ele>
        <time>2013-04-09T17:49:25Z</time>
      </trkpt>
      <trkpt lat="59.8924429" lon="17.7009263">
        <ele>24.651</ele>
        <time>2013-04-09T17:49:26Z</time>
      </trkpt>
      <trkpt lat="59.8924546" lon="17.7009232">
        <ele>24.1703</ele>
        <time>2013-04-09T17:49:27Z</time>
      </trkpt>
      <trkpt lat="59.8924683" lon="17.7009169">
        <ele>24.1703</ele>
        <time>2013-04-09T17:49:28Z</time>
      </trkpt>
      <trkpt lat="59.8924833" lon="17.7008936">
        <ele>23.6896</ele>
        <time>2013-04-09T17:49:29Z</time>
      </trkpt>
      <trkpt lat="59.8925003" lon="17.700864">
        <ele>23.6896</ele>
        <time>2013-04-09T17:49:30Z</time>
      </trkpt>
      <trkpt lat="59.8925161" lon="17.7008221">
        <ele>23.6896</ele>
        <time>2013-04-09T17:49:31Z</time>
      </trkpt>
      <trkpt lat="59.8925332" lon="17.7007698">
        <ele>23.209</ele>
        <time>2013-04-09T17:49:32Z</time>
      </trkpt>
      <trkpt lat="59.8925553" lon="17.7007123">
        <ele>23.209</ele>
        <time>2013-04-09T17:49:33Z</time>
      </trkpt>
      <trkpt lat="59.8925808" lon="17.7006528">
        <ele>23.6896</ele>
        <time>2013-04-09T17:49:34Z</time>
      </trkpt>
      <trkpt lat="59.8926077" lon="17.7005891">
        <ele>23.6896</ele>
        <time>2013-04-09T17:49:35Z</time>
      </trkpt>
      <trkpt lat="59.8926357" lon="17.7005207">
        <ele>23.6896</ele>
        <time>2013-04-09T17:49:36Z</time>
      </trkpt>
      <trkpt lat="59.8926646" lon="17.7004497">
        <ele>23.6896</ele>
        <time>2013-04-09T17:49:37Z</time>
      </trkpt>
      <trkpt lat="59.8926937" lon="17.7003768">
        <ele>23.6896</ele>
        <time>2013-04-09T17:49:38Z</time>
      </trkpt>
      <trkpt lat="59.8927236" lon="17.7003026">
        <ele>23.6896</ele>
        <time>2013-04-09T17:49:39Z</time>
      </trkpt>
      <trkpt lat="59.8927553" lon="17.700229">
        <ele>23.6896</ele>
        <time>2013-04-09T17:49:40Z</time>
      </trkpt>
      <trkpt lat="59.8927877" lon="17.7001561">
        <ele>23.6896</ele>
        <time>2013-04-09T17:49:41Z</time>
      </trkpt>
      <trkpt lat="59.8928204" lon="17.7000827">
        <ele>23.6896</ele>
        <time>2013-04-09T17:49:42Z</time>
      </trkpt>
      <trkpt lat="59.8928535" lon="17.7000073">
        <ele>24.1703</ele>
        <time>2013-04-09T17:49:43Z</time>
      </trkpt>
      <trkpt lat="59.8928866" lon="17.6999301">
        <ele>24.1703</ele>
        <time>2013-04-09T17:49:44Z</time>
      </trkpt>
      <trkpt lat="59.8929196" lon="17.6998501">
        <ele>24.1703</ele>
        <time>2013-04-09T17:49:45Z</time>
      </trkpt>
      <trkpt lat="59.892954" lon="17.6997691">
        <ele>24.1703</ele>
        <time>2013-04-09T17:49:46Z</time>
      </trkpt>
      <trkpt lat="59.8929902" lon="17.6996897">
        <ele>24.1703</ele>
        <time>2013-04-09T17:49:47Z</time>
      </trkpt>
      <trkpt lat="59.8930268" lon="17.6996094">
        <ele>24.1703</ele>
        <time>2013-04-09T17:49:48Z</time>
      </trkpt>
      <trkpt lat="59.893063" lon="17.6995259">
        <ele>24.1703</ele>
        <time>2013-04-09T17:49:49Z</time>
      </trkpt>
      <trkpt lat="59.893099" lon="17.6994399">
        <ele>24.651</ele>
        <time>2013-04-09T17:49:50Z</time>
      </trkpt>
      <trkpt lat="59.8931354" lon="17.6993536">
        <ele>24.651</ele>
        <time>2013-04-09T17:49:51Z</time>
      </trkpt>
      <trkpt lat="59.8931686" lon="17.6992654">
        <ele>24.651</ele>
        <time>2013-04-09T17:49:52Z</time>
      </trkpt>
      <trkpt lat="59.8931924" lon="17.6991698">
        <ele>24.651</ele>
        <time>2013-04-09T17:49:53Z</time>
      </trkpt>
      <trkpt lat="59.8932062" lon="17.6990696">
        <ele>24.651</ele>
        <time>2013-04-09T17:49:54Z</time>
      </trkpt>
      <trkpt lat="59.8932132" lon="17.698969">
        <ele>25.1317</ele>
        <time>2013-04-09T17:49:55Z</time>
      </trkpt>
      <trkpt lat="59.8932189" lon="17.6988749">
        <ele>25.1317</ele>
        <time>2013-04-09T17:49:56Z</time>
      </trkpt>
      <trkpt lat="59.8932311" lon="17.698792">
        <ele>25.1317</ele>
        <time>2013-04-09T17:49:57Z</time>
      </trkpt>
      <trkpt lat="59.8932526" lon="17.6987185">
        <ele>25.1317</ele>
        <time>2013-04-09T17:49:58Z</time>
      </trkpt>
      <trkpt lat="59.8932825" lon="17.6986525">
        <ele>25.1317</ele>
        <time>2013-04-09T17:49:59Z</time>
      </trkpt>
      <trkpt lat="59.8933189" lon="17.6985916">
        <ele>25.6123</ele>
        <time>2013-04-09T17:50:00Z</time>
      </trkpt>
      <trkpt lat="59.8933578" lon="17.6985294">
        <ele>25.6123</ele>
        <time>2013-04-09T17:50:01Z</time>
      </trkpt>
      <trkpt lat="59.8933974" lon="17.698462">
        <ele>25.6123</ele>
        <time>2013-04-09T17:50:02Z</time>
      </trkpt>
      <trkpt lat="59.8934366" lon="17.6983889">
        <ele>25.6123</ele>
        <time>2013-04-09T17:50:03Z</time>
      </trkpt>
      <trkpt lat="59.8934741" lon="17.6983109">
        <ele>25.6123</ele>
        <time>2013-04-09T17:50:04Z</time>
      </trkpt>
      <trkpt lat="59.8935095" lon="17.6982291">
        <ele>25.6123</ele>
        <time>2013-04-09T17:50:05Z</time>
      </trkpt>
      <trkpt lat="59.8935432" lon="17.6981434">
        <ele>25.6123</ele>
        <time>2013-04-09T17:50:06Z</time>
      </trkpt>
      <trkpt lat="59.8935742" lon="17.6980517">
        <ele>26.0929</ele>
        <time>2013-04-09T17:50:07Z</time>
      </trkpt>
      <trkpt lat="59.8936022" lon="17.6979535">
        <ele>26.0929</ele>
        <time>2013-04-09T17:50:08Z</time>
      </trkpt>
      <trkpt lat="59.8936279" lon="17.6978506">
        <ele>26.0929</ele>
        <time>2013-04-09T17:50:09Z</time>
      </trkpt>
      <trkpt lat="59.8936508" lon="17.6977436">
        <ele>26.0929</ele>
        <time>2013-04-09T17:50:10Z</time>
      </trkpt>
      <trkpt lat="59.8936725" lon="17.6976347">
        <ele>26.0929</ele>
        <time>2013-04-09T17:50:11Z</time>
      </trkpt>
      <trkpt lat="59.8936913" lon="17.6975227">
        <ele>26.0929</ele>
        <time>2013-04-09T17:50:12Z</time>
      </trkpt>
      <trkpt lat="59.8937077" lon="17.6974079">
        <ele>26.5736</ele>
        <time>2013-04-09T17:50:13Z</time>
      </trkpt>
      <trkpt lat="59.8937235" lon="17.6972914">
        <ele>26.5736</ele>
        <time>2013-04-09T17:50:14Z</time>
      </trkpt>
      <trkpt lat="59.8937374" lon="17.6971736">
        <ele>26.5736</ele>
        <time>2013-04-09T17:50:15Z</time>
      </trkpt>
      <trkpt lat="59.8937476" lon="17.6970547">
        <ele>26.5736</ele>
        <time>2013-04-09T17:50:16Z</time>
      </trkpt>
      <trkpt lat="59.8937549" lon="17.6969389">
        <ele>27.0543</ele>
        <time>2013-04-09T17:50:17Z</time>
      </trkpt>
      <trkpt lat="59.8937598" lon="17.6968278">
        <ele>27.0543</ele>
        <time>2013-04-09T17:50:18Z</time>
      </trkpt>
      <trkpt lat="59.8937618" lon="17.6967229">
        <ele>27.0543</ele>
        <time>2013-04-09T17:50:19Z</time>
      </trkpt>
      <trkpt lat="59.8937636" lon="17.6966232">
        <ele>27.0543</ele>
        <time>2013-04-09T17:50:20Z</time>
      </trkpt>
      <trkpt lat="59.893766" lon="17.6965242">
        <ele>27.0543</ele>
        <time>2013-04-09T17:50:21Z</time>
      </trkpt>
      <trkpt lat="59.8937689" lon="17.696424">
        <ele>26.5736</ele>
        <time>2013-04-09T17:50:22Z</time>
      </trkpt>
      <trkpt lat="59.8937709" lon="17.6963187">
        <ele>26.5736</ele>
        <time>2013-04-09T17:50:23Z</time>
      </trkpt>
      <trkpt lat="59.8937735" lon="17.6962077">
        <ele>26.0929</ele>
        <time>2013-04-09T17:50:24Z</time>
      </trkpt>
      <trkpt lat="59.8937771" lon="17.6960917">
        <ele>26.0929</ele>
        <time>2013-04-09T17:50:25Z</time>
      </trkpt>
      <trkpt lat="59.89378" lon="17.6959714">
        <ele>26.0929</ele>
        <time>2013-04-09T17:50:26Z</time>
      </trkpt>
      <trkpt lat="59.893783" lon="17.6958468">
        <ele>25.6123</ele>
        <time>2013-04-09T17:50:27Z</time>
      </trkpt>
      <trkpt lat="59.8937866" lon="17.6957195">
        <ele>25.6123</ele>
        <time>2013-04-09T17:50:28Z</time>
      </trkpt>
      <trkpt lat="59.89379" lon="17.695589">
        <ele>25.1317</ele>
        <time>2013-04-09T17:50:29Z</time>
      </trkpt>
      <trkpt lat="59.8937933" lon="17.6954548">
        <ele>25.1317</ele>
        <time>2013-04-09T17:50:30Z</time>
      </trkpt>
      <trkpt lat="59.8937965" lon="17.695317">
        <ele>25.1317</ele>
        <time>2013-04-09T17:50:31Z</time>
      </trkpt>
      <trkpt lat="59.8938002" lon="17.6951772">
        <ele>25.1317</ele>
        <time>2013-04-09T17:50:32Z</time>
      </trkpt>
      <trkpt lat="59.8938043" lon="17.6950364">
        <ele>25.1317</ele>
        <time>2013-04-09T17:50:33Z</time>
      </trkpt>
      <trkpt lat="59.8938074" lon="17.694895">
        <ele>25.1317</ele>
        <time>2013-04-09T17:50:34Z</time>
      </trkpt>
      <trkpt lat="59.8938094" lon="17.6947532">
        <ele>25.1317</ele>
        <time>2013-04-09T17:50:35Z</time>
      </trkpt>
      <trkpt lat="59.893811" lon="17.6946113">
        <ele>25.1317</ele>
        <time>2013-04-09T17:50:36Z</time>
      </trkpt>
      <trkpt lat="59.8938136" lon="17.6944696">
        <ele>24.651</ele>
        <time>2013-04-09T17:50:37Z</time>
      </trkpt>
      <trkpt lat="59.8938176" lon="17.6943278">
        <ele>25.1317</ele>
        <time>2013-04-09T17:50:38Z</time>
      </trkpt>
      <trkpt lat="59.8938214" lon="17.6941867">
        <ele>24.651</ele>
        <time>2013-04-09T17:50:39Z</time>
      </trkpt>
      <trkpt lat="59.8938237" lon="17.6940455">
        <ele>25.1317</ele>
        <time>2013-04-09T17:50:40Z</time>
      </trkpt>
      <trkpt lat="59.8938254" lon="17.6939049">
        <ele>25.1317</ele>
        <time>2013-04-09T17:50:41Z</time>
      </trkpt>
      <trkpt lat="59.8938269" lon="17.6937653">
        <ele>25.1317</ele>
        <time>2013-04-09T17:50:42Z</time>
      </trkpt>
      <trkpt lat="59.8938276" lon="17.6936263">
        <ele>25.1317</ele>
        <time>2013-04-09T17:50:43Z</time>
      </trkpt>
      <trkpt lat="59.8938301" lon="17.6934881">
        <ele>25.1317</ele>
        <time>2013-04-09T17:50:44Z</time>
      </trkpt>
      <trkpt lat="59.8938374" lon="17.693352">
        <ele>25.1317</ele>
        <time>2013-04-09T17:50:45Z</time>
      </trkpt>
      <trkpt lat="59.8938462" lon="17.6932183">
        <ele>25.1317</ele>
        <time>2013-04-09T17:50:46Z</time>
      </trkpt>
      <trkpt lat="59.8938545" lon="17.6930872">
        <ele>25.1317</ele>
        <time>2013-04-09T17:50:47Z</time>
      </trkpt>
      <trkpt lat="59.89386" lon="17.6929556">
        <ele>25.1317</ele>
        <time>2013-04-09T17:50:48Z</time>
      </trkpt>
      <trkpt lat="59.8938632" lon="17.6928251">
        <ele>25.1317</ele>
        <time>2013-04-09T17:50:49Z</time>
      </trkpt>
      <trkpt lat="59.8938669" lon="17.6926971">
        <ele>25.1317</ele>
        <time>2013-04-09T17:50:50Z</time>
      </trkpt>
      <trkpt lat="59.8938707" lon="17.6925703">
        <ele>25.1317</ele>
        <time>2013-04-09T17:50:51Z</time>
      </trkpt>
      <trkpt lat="59.8938731" lon="17.6924453">
        <ele>25.1317</ele>
        <time>2013-04-09T17:50:52Z</time>
      </trkpt>
      <trkpt lat="59.8938746" lon="17.6923231">
        <ele>25.6123</ele>
        <time>2013-04-09T17:50:53Z</time>
      </trkpt>
      <trkpt lat="59.8938751" lon="17.6922043">
        <ele>25.6123</ele>
        <time>2013-04-09T17:50:54Z</time>
      </trkpt>
      <trkpt lat="59.8938753" lon="17.6920893">
        <ele>25.6123</ele>
        <time>2013-04-09T17:50:55Z</time>
      </trkpt>
      <trkpt lat="59.8938757" lon="17.6919809">
        <ele>25.6123</ele>
        <time>2013-04-09T17:50:56Z</time>
      </trkpt>
      <trkpt lat="59.8938768" lon="17.6918798">
        <ele>26.0929</ele>
        <time>2013-04-09T17:50:57Z</time>
      </trkpt>
      <trkpt lat="59.8938803" lon="17.6917803">
        <ele>26.0929</ele>
        <time>2013-04-09T17:50:58Z</time>
      </trkpt>
      <trkpt lat="59.8938821" lon="17.691686">
        <ele>26.0929</ele>
        <time>2013-04-09T17:50:59Z</time>
      </trkpt>
      <trkpt lat="59.8938829" lon="17.6916">
        <ele>26.0929</ele>
        <time>2013-04-09T17:51:00Z</time>
      </trkpt>
      <trkpt lat="59.893885" lon="17.6915152">
        <ele>26.0929</ele>
        <time>2013-04-09T17:51:01Z</time>
      </trkpt>
      <trkpt lat="59.8938908" lon="17.6914275">
        <ele>26.0929</ele>
        <time>2013-04-09T17:51:02Z</time>
      </trkpt>
      <trkpt lat="59.8938991" lon="17.6913375">
        <ele>26.0929</ele>
        <time>2013-04-09T17:51:03Z</time>
      </trkpt>
      <trkpt lat="59.8939071" lon="17.6912479">
        <ele>26.0929</ele>
        <time>2013-04-09T17:51:04Z</time>
      </trkpt>
      <trkpt lat="59.893916" lon="17.691155">
        <ele>26.0929</ele>
        <time>2013-04-09T17:51:05Z</time>
      </trkpt>
      <trkpt lat="59.8939255" lon="17.6910509">
        <ele>26.0929</ele>
        <time>2013-04-09T17:51:06Z</time>
      </trkpt>
      <trkpt lat="59.8939379" lon="17.690945">
        <ele>26.0929</ele>
        <time>2013-04-09T17:51:07Z</time>
      </trkpt>
      <trkpt lat="59.8939534" lon="17.6908407">
        <ele>26.0929</ele>
        <time>2013-04-09T17:51:08Z</time>
      </trkpt>
      <trkpt lat="59.8939703" lon="17.6907345">
        <ele>26.0929</ele>
        <time>2013-04-09T17:51:09Z</time>
      </trkpt>
      <trkpt lat="59.8939897" lon="17.6906301">
        <ele>26.0929</ele>
        <time>2013-04-09T17:51:10Z</time>
      </trkpt>
      <trkpt lat="59.8940113" lon="17.6905298">
        <ele>26.5736</ele>
        <time>2013-04-09T17:51:11Z</time>
      </trkpt>
      <trkpt lat="59.894029" lon="17.6904196">
        <ele>27.0543</ele>
        <time>2013-04-09T17:51:12Z</time>
      </trkpt>
      <trkpt lat="59.8940456" lon="17.6903107">
        <ele>27.0543</ele>
        <time>2013-04-09T17:51:13Z</time>
      </trkpt>
      <trkpt lat="59.8940627" lon="17.6902035">
        <ele>27.5349</ele>
        <time>2013-04-09T17:51:14Z</time>
      </trkpt>
      <trkpt lat="59.8940794" lon="17.6900955">
        <ele>27.5349</ele>
        <time>2013-04-09T17:51:15Z</time>
      </trkpt>
      <trkpt lat="59.8940941" lon="17.6899801">
        <ele>27.5349</ele>
        <time>2013-04-09T17:51:16Z</time>
      </trkpt>
      <trkpt lat="59.8941072" lon="17.6898627">
        <ele>27.5349</ele>
        <time>2013-04-09T17:51:17Z</time>
      </trkpt>
      <trkpt lat="59.8941197" lon="17.6897492">
        <ele>27.5349</ele>
        <time>2013-04-09T17:51:18Z</time>
      </trkpt>
      <trkpt lat="59.8941341" lon="17.6896393">
        <ele>27.5349</ele>
        <time>2013-04-09T17:51:19Z</time>
      </trkpt>
      <trkpt lat="59.8941487" lon="17.6895312">
        <ele>27.5349</ele>
        <time>2013-04-09T17:51:20Z</time>
      </trkpt>
      <trkpt lat="59.8941615" lon="17.6894214">
        <ele>27.5349</ele>
        <time>2013-04-09T17:51:21Z</time>
      </trkpt>
      <trkpt lat="59.8941731" lon="17.6893057">
        <ele>27.5349</ele>
        <time>2013-04-09T17:51:22Z</time>
      </trkpt>
      <trkpt lat="59.8941845" lon="17.6891862">
        <ele>27.0543</ele>
        <time>2013-04-09T17:51:23Z</time>
      </trkpt>
      <trkpt lat="59.8941965" lon="17.689065">
        <ele>27.0543</ele>
        <time>2013-04-09T17:51:24Z</time>
      </trkpt>
      <trkpt lat="59.8942102" lon="17.6889431">
        <ele>27.0543</ele>
        <time>2013-04-09T17:51:25Z</time>
      </trkpt>
      <trkpt lat="59.8942243" lon="17.6888208">
        <ele>27.0543</ele>
        <time>2013-04-09T17:51:26Z</time>
      </trkpt>
      <trkpt lat="59.8942409" lon="17.688699">
        <ele>27.0543</ele>
        <time>2013-04-09T17:51:27Z</time>
      </trkpt>
      <trkpt lat="59.8942591" lon="17.688578">
        <ele>27.0543</ele>
        <time>2013-04-09T17:51:28Z</time>
      </trkpt>
      <trkpt lat="59.8942793" lon="17.6884539">
        <ele>26.5736</ele>
        <time>2013-04-09T17:51:29Z</time>
      </trkpt>
      <trkpt lat="59.8943022" lon="17.6883267">
        <ele>26.5736</ele>
        <time>2013-04-09T17:51:30Z</time>
      </trkpt>
      <trkpt lat="59.8943295" lon="17.6881975">
        <ele>26.5736</ele>
        <time>2013-04-09T17:51:31Z</time>
      </trkpt>
      <trkpt lat="59.8943605" lon="17.6880706">
        <ele>26.5736</ele>
        <time>2013-04-09T17:51:32Z</time>
      </trkpt>
      <trkpt lat="59.8943921" lon="17.6879429">
        <ele>26.5736</ele>
        <time>2013-04-09T17:51:33Z</time>
      </trkpt>
      <trkpt lat="59.8944233" lon="17.6878143">
        <ele>26.5736</ele>
        <time>2013-04-09T17:51:34Z</time>
      </trkpt>
      <trkpt lat="59.8944533" lon="17.6876826">
        <ele>26.5736</ele>
        <time>2013-04-09T17:51:35Z</time>
      </trkpt>
      <trkpt lat="59.8944828" lon="17.6875502">
        <ele>26.5736</ele>
        <time>2013-04-09T17:51:36Z</time>
      </trkpt>
      <trkpt lat="59.8945104" lon="17.6874155">
        <ele>27.0543</ele>
        <time>2013-04-09T17:51:37Z</time>
      </trkpt>
      <trkpt lat="59.8945372" lon="17.6872807">
        <ele>27.0543</ele>
        <time>2013-04-09T17:51:38Z</time>
      </trkpt>
      <trkpt lat="59.8945626" lon="17.6871446">
        <ele>27.0543</ele>
        <time>2013-04-09T17:51:39Z</time>
      </trkpt>
      <trkpt lat="59.8945863" lon="17.6870085">
        <ele>27.0543</ele>
        <time>2013-04-09T17:51:40Z</time>
      </trkpt>
      <trkpt lat="59.8946083" lon="17.6868737">
        <ele>27.0543</ele>
        <time>2013-04-09T17:51:41Z</time>
      </trkpt>
      <trkpt lat="59.8946287" lon="17.6867403">
        <ele>27.0543</ele>
        <time>2013-04-09T17:51:42Z</time>
      </trkpt>
      <trkpt lat="59.8946479" lon="17.6866085">
        <ele>27.0543</ele>
        <time>2013-04-09T17:51:43Z</time>
      </trkpt>
      <trkpt lat="59.8946658" lon="17.6864789">
        <ele>27.0543</ele>
        <time>2013-04-09T17:51:44Z</time>
      </trkpt>
      <trkpt lat="59.8946822" lon="17.6863491">
        <ele>27.0543</ele>
        <time>2013-04-09T17:51:45Z</time>
      </trkpt>
      <trkpt lat="59.8946974" lon="17.6862205">
        <ele>27.0543</ele>
        <time>2013-04-09T17:51:46Z</time>
      </trkpt>
      <trkpt lat="59.8947114" lon="17.6860932">
        <ele>27.0543</ele>
        <time>2013-04-09T17:51:47Z</time>
      </trkpt>
      <trkpt lat="59.8947232" lon="17.6859661">
        <ele>27.5349</ele>
        <time>2013-04-09T17:51:48Z</time>
      </trkpt>
      <trkpt lat="59.8947326" lon="17.6858413">
        <ele>27.5349</ele>
        <time>2013-04-09T17:51:49Z</time>
      </trkpt>
      <trkpt lat="59.8947409" lon="17.6857184">
        <ele>27.5349</ele>
        <time>2013-04-09T17:51:50Z</time>
      </trkpt>
      <trkpt lat="59.8947486" lon="17.6855987">
        <ele>27.5349</ele>
        <time>2013-04-09T17:51:51Z</time>
      </trkpt>
      <trkpt lat="59.8947553" lon="17.6854813">
        <ele>27.5349</ele>
        <time>2013-04-09T17:51:52Z</time>
      </trkpt>
      <trkpt lat="59.8947615" lon="17.6853676">
        <ele>27.5349</ele>
        <time>2013-04-09T17:51:53Z</time>
      </trkpt>
      <trkpt lat="59.8947699" lon="17.6852557">
        <ele>27.0543</ele>
        <time>2013-04-09T17:51:54Z</time>
      </trkpt>
      <trkpt lat="59.8947803" lon="17.6851495">
        <ele>27.0543</ele>
        <time>2013-04-09T17:51:55Z</time>
      </trkpt>
      <trkpt lat="59.8947899" lon="17.6850337">
        <ele>26.5736</ele>
        <time>2013-04-09T17:51:56Z</time>
      </trkpt>
      <trkpt lat="59.8947994" lon="17.684912">
        <ele>26.5736</ele>
        <time>2013-04-09T17:51:57Z</time>
      </trkpt>
      <trkpt lat="59.8948101" lon="17.6847877">
        <ele>26.5736</ele>
        <time>2013-04-09T17:51:58Z</time>
      </trkpt>
      <trkpt lat="59.8948214" lon="17.684665">
        <ele>26.5736</ele>
        <time>2013-04-09T17:51:59Z</time>
      </trkpt>
      <trkpt lat="59.8948338" lon="17.6845504">
        <ele>26.0929</ele>
        <time>2013-04-09T17:52:00Z</time>
      </trkpt>
      <trkpt lat="59.8948455" lon="17.6844396">
        <ele>26.5736</ele>
        <time>2013-04-09T17:52:01Z</time>
      </trkpt>
      <trkpt lat="59.8948553" lon="17.6843303">
        <ele>26.5736</ele>
        <time>2013-04-09T17:52:02Z</time>
      </trkpt>
      <trkpt lat="59.894865" lon="17.6842226">
        <ele>26.5736</ele>
        <time>2013-04-09T17:52:03Z</time>
      </trkpt>
      <trkpt lat="59.894875" lon="17.6841147">
        <ele>26.5736</ele>
        <time>2013-04-09T17:52:04Z</time>
      </trkpt>
      <trkpt lat="59.8948891" lon="17.6840037">
        <ele>27.0543</ele>
        <time>2013-04-09T17:52:05Z</time>
      </trkpt>
      <trkpt lat="59.8949086" lon="17.6838899">
        <ele>27.0543</ele>
        <time>2013-04-09T17:52:06Z</time>
      </trkpt>
      <trkpt lat="59.8949365" lon="17.6837813">
        <ele>26.5736</ele>
        <time>2013-04-09T17:52:07Z</time>
      </trkpt>
      <trkpt lat="59.8949702" lon="17.6836724">
        <ele>26.5736</ele>
        <time>2013-04-09T17:52:08Z</time>
      </trkpt>
      <trkpt lat="59.8950108" lon="17.6835677">
        <ele>26.5736</ele>
        <time>2013-04-09T17:52:09Z</time>
      </trkpt>
      <trkpt lat="59.8950551" lon="17.6834746">
        <ele>26.0929</ele>
        <time>2013-04-09T17:52:10Z</time>
      </trkpt>
      <trkpt lat="59.8950993" lon="17.6833951">
        <ele>25.6123</ele>
        <time>2013-04-09T17:52:11Z</time>
      </trkpt>
      <trkpt lat="59.8951469" lon="17.6833247">
        <ele>25.1317</ele>
        <time>2013-04-09T17:52:12Z</time>
      </trkpt>
      <trkpt lat="59.8951978" lon="17.6832562">
        <ele>25.1317</ele>
        <time>2013-04-09T17:52:13Z</time>
      </trkpt>
      <trkpt lat="59.8952519" lon="17.6831905">
        <ele>25.1317</ele>
        <time>2013-04-09T17:52:14Z</time>
      </trkpt>
      <trkpt lat="59.8953044" lon="17.6831236">
        <ele>25.1317</ele>
        <time>2013-04-09T17:52:15Z</time>
      </trkpt>
      <trkpt lat="59.8953579" lon="17.6830606">
        <ele>25.1317</ele>
        <time>2013-04-09T17:52:16Z</time>
      </trkpt>
      <trkpt lat="59.8954101" lon="17.6829996">
        <ele>25.1317</ele>
        <time>2013-04-09T17:52:17Z</time>
      </trkpt>
      <trkpt lat="59.8954612" lon="17.6829364">
        <ele>25.1317</ele>
        <time>2013-04-09T17:52:18Z</time>
      </trkpt>
      <trkpt lat="59.8955126" lon="17.6828746">
        <ele>25.1317</ele>
        <time>2013-04-09T17:52:19Z</time>
      </trkpt>
      <trkpt lat="59.8955656" lon="17.6828171">
        <ele>25.1317</ele>
        <time>2013-04-09T17:52:20Z</time>
      </trkpt>
      <trkpt lat="59.8956195" lon="17.6827665">
        <ele>25.1317</ele>
        <time>2013-04-09T17:52:21Z</time>
      </trkpt>
      <trkpt lat="59.8956744" lon="17.6827266">
        <ele>25.1317</ele>
        <time>2013-04-09T17:52:22Z</time>
      </trkpt>
      <trkpt lat="59.8957298" lon="17.6826939">
        <ele>25.1317</ele>
        <time>2013-04-09T17:52:23Z</time>
      </trkpt>
      <trkpt lat="59.8957823" lon="17.6826631">
        <ele>25.6123</ele>
        <time>2013-04-09T17:52:24Z</time>
      </trkpt>
      <trkpt lat="59.8958326" lon="17.682627">
        <ele>25.6123</ele>
        <time>2013-04-09T17:52:25Z</time>
      </trkpt>
      <trkpt lat="59.8958818" lon="17.6825922">
        <ele>25.6123</ele>
        <time>2013-04-09T17:52:26Z</time>
      </trkpt>
      <trkpt lat="59.8959321" lon="17.6825535">
        <ele>26.0929</ele>
        <time>2013-04-09T17:52:27Z</time>
      </trkpt>
      <trkpt lat="59.8959833" lon="17.6825074">
        <ele>26.0929</ele>
        <time>2013-04-09T17:52:28Z</time>
      </trkpt>
      <trkpt lat="59.8960358" lon="17.6824549">
        <ele>25.6123</ele>
        <time>2013-04-09T17:52:29Z</time>
      </trkpt>
      <trkpt lat="59.8960874" lon="17.6823966">
        <ele>25.6123</ele>
        <time>2013-04-09T17:52:30Z</time>
      </trkpt>
      <trkpt lat="59.896142" lon="17.682337">
        <ele>25.1317</ele>
        <time>2013-04-09T17:52:31Z</time>
      </trkpt>
      <trkpt lat="59.8962026" lon="17.6822764">
        <ele>25.1317</ele>
        <time>2013-04-09T17:52:32Z</time>
      </trkpt>
      <trkpt lat="59.8962669" lon="17.682209">
        <ele>24.651</ele>
        <time>2013-04-09T17:52:33Z</time>
      </trkpt>
      <trkpt lat="59.8963316" lon="17.6821391">
        <ele>24.1703</ele>
        <time>2013-04-09T17:52:34Z</time>
      </trkpt>
      <trkpt lat="59.8963978" lon="17.6820633">
        <ele>24.1703</ele>
        <time>2013-04-09T17:52:35Z</time>
      </trkpt>
      <trkpt lat="59.8964647" lon="17.681985">
        <ele>23.6896</ele>
        <time>2013-04-09T17:52:36Z</time>
      </trkpt>
      <trkpt lat="59.8965413" lon="17.6819029">
        <ele>23.6896</ele>
        <time>2013-04-09T17:52:37Z</time>
      </trkpt>
      <trkpt lat="59.8966098" lon="17.6818175">
        <ele>23.6896</ele>
        <time>2013-04-09T17:52:38Z</time>
      </trkpt>
      <trkpt lat="59.8966719" lon="17.6817221">
        <ele>23.209</ele>
        <time>2013-04-09T17:52:39Z</time>
      </trkpt>
      <trkpt lat="59.8967316" lon="17.6816278">
        <ele>23.209</ele>
        <time>2013-04-09T17:52:40Z</time>
      </trkpt>
      <trkpt lat="59.8967895" lon="17.6815286">
        <ele>23.209</ele>
        <time>2013-04-09T17:52:41Z</time>
      </trkpt>
      <trkpt lat="59.896845" lon="17.681425">
        <ele>23.209</ele>
        <time>2013-04-09T17:52:42Z</time>
      </trkpt>
      <trkpt lat="59.8968994" lon="17.6813178">
        <ele>23.209</ele>
        <time>2013-04-09T17:52:43Z</time>
      </trkpt>
      <trkpt lat="59.8969527" lon="17.6812072">
        <ele>23.209</ele>
        <time>2013-04-09T17:52:44Z</time>
      </trkpt>
      <trkpt lat="59.8970049" lon="17.6810957">
        <ele>23.209</ele>
        <time>2013-04-09T17:52:45Z</time>
      </trkpt>
      <trkpt lat="59.8970557" lon="17.6809844">
        <ele>23.209</ele>
        <time>2013-04-09T17:52:46Z</time>
      </trkpt>
      <trkpt lat="59.8971046" lon="17.6808732">
        <ele>23.209</ele>
        <time>2013-04-09T17:52:47Z</time>
      </trkpt>
      <trkpt lat="59.8971506" lon="17.6807602">
        <ele>23.209</ele>
        <time>2013-04-09T17:52:48Z</time>
      </trkpt>
      <trkpt lat="59.8971942" lon="17.680646">
        <ele>23.209</ele>
        <time>2013-04-09T17:52:49Z</time>
      </trkpt>
      <trkpt lat="59.8972366" lon="17.6805317">
        <ele>23.209</ele>
        <time>2013-04-09T17:52:50Z</time>
      </trkpt>
      <trkpt lat="59.8972785" lon="17.6804193">
        <ele>23.209</ele>
        <time>2013-04-09T17:52:51Z</time>
      </trkpt>
      <trkpt lat="59.8973206" lon="17.6803093">
        <ele>23.209</ele>
        <time>2013-04-09T17:52:52Z</time>
      </trkpt>
      <trkpt lat="59.8973628" lon="17.6802013">
        <ele>23.209</ele>
        <time>2013-04-09T17:52:53Z</time>
      </trkpt>
      <trkpt lat="59.8974049" lon="17.6800934">
        <ele>23.209</ele>
        <time>2013-04-09T17:52:54Z</time>
      </trkpt>
      <trkpt lat="59.8974462" lon="17.6799847">
        <ele>23.209</ele>
        <time>2013-04-09T17:52:55Z</time>
      </trkpt>
      <trkpt lat="59.8974857" lon="17.6798752">
        <ele>23.209</ele>
        <time>2013-04-09T17:52:56Z</time>
      </trkpt>
      <trkpt lat="59.897525" lon="17.679766">
        <ele>23.209</ele>
        <time>2013-04-09T17:52:57Z</time>
      </trkpt>
      <trkpt lat="59.8975644" lon="17.6796577">
        <ele>23.209</ele>
        <time>2013-04-09T17:52:58Z</time>
      </trkpt>
      <trkpt lat="59.8976045" lon="17.6795504">
        <ele>23.209</ele>
        <time>2013-04-09T17:52:59Z</time>
      </trkpt>
      <trkpt lat="59.8976458" lon="17.6794439">
        <ele>23.209</ele>
        <time>2013-04-09T17:53:00Z</time>
      </trkpt>
      <trkpt lat="59.8976871" lon="17.6793381">
        <ele>23.209</ele>
        <time>2013-04-09T17:53:01Z</time>
      </trkpt>
      <trkpt lat="59.8977276" lon="17.6792318">
        <ele>23.209</ele>
        <time>2013-04-09T17:53:02Z</time>
      </trkpt>
      <trkpt lat="59.8977665" lon="17.6791233">
        <ele>23.209</ele>
        <time>2013-04-09T17:53:03Z</time>
      </trkpt>
      <trkpt lat="59.8978053" lon="17.679014">
        <ele>23.209</ele>
        <time>2013-04-09T17:53:04Z</time>
      </trkpt>
      <trkpt lat="59.8978458" lon="17.6789062">
        <ele>23.209</ele>
        <time>2013-04-09T17:53:05Z</time>
      </trkpt>
      <trkpt lat="59.8978877" lon="17.6787991">
        <ele>23.209</ele>
        <time>2013-04-09T17:53:06Z</time>
      </trkpt>
      <trkpt lat="59.8979286" lon="17.6786901">
        <ele>23.209</ele>
        <time>2013-04-09T17:53:07Z</time>
      </trkpt>
      <trkpt lat="59.8979684" lon="17.6785798">
        <ele>23.209</ele>
        <time>2013-04-09T17:53:08Z</time>
      </trkpt>
      <trkpt lat="59.898007" lon="17.6784682">
        <ele>22.7283</ele>
        <time>2013-04-09T17:53:09Z</time>
      </trkpt>
      <trkpt lat="59.8980439" lon="17.6783528">
        <ele>22.7283</ele>
        <time>2013-04-09T17:53:10Z</time>
      </trkpt>
      <trkpt lat="59.8980789" lon="17.6782336">
        <ele>22.7283</ele>
        <time>2013-04-09T17:53:11Z</time>
      </trkpt>
      <trkpt lat="59.8981126" lon="17.6781115">
        <ele>22.7283</ele>
        <time>2013-04-09T17:53:12Z</time>
      </trkpt>
      <trkpt lat="59.8981456" lon="17.6779877">
        <ele>22.7283</ele>
        <time>2013-04-09T17:53:13Z</time>
      </trkpt>
      <trkpt lat="59.8981772" lon="17.6778623">
        <ele>22.7283</ele>
        <time>2013-04-09T17:53:14Z</time>
      </trkpt>
      <trkpt lat="59.8982058" lon="17.6777337">
        <ele>22.7283</ele>
        <time>2013-04-09T17:53:15Z</time>
      </trkpt>
      <trkpt lat="59.8982316" lon="17.6776025">
        <ele>22.7283</ele>
        <time>2013-04-09T17:53:16Z</time>
      </trkpt>
      <trkpt lat="59.8982555" lon="17.6774701">
        <ele>22.7283</ele>
        <time>2013-04-09T17:53:17Z</time>
      </trkpt>
      <trkpt lat="59.8982778" lon="17.6773371">
        <ele>23.209</ele>
        <time>2013-04-09T17:53:18Z</time>
      </trkpt>
      <trkpt lat="59.898298" lon="17.6772055">
        <ele>23.209</ele>
        <time>2013-04-09T17:53:19Z</time>
      </trkpt>
      <trkpt lat="59.8983151" lon="17.6770749">
        <ele>23.209</ele>
        <time>2013-04-09T17:53:20Z</time>
      </trkpt>
      <trkpt lat="59.898329" lon="17.6769454">
        <ele>23.6896</ele>
        <time>2013-04-09T17:53:21Z</time>
      </trkpt>
      <trkpt lat="59.8983405" lon="17.676819">
        <ele>23.6896</ele>
        <time>2013-04-09T17:53:22Z</time>
      </trkpt>
      <trkpt lat="59.8983503" lon="17.6766958">
        <ele>23.6896</ele>
        <time>2013-04-09T17:53:23Z</time>
      </trkpt>
      <trkpt lat="59.8983596" lon="17.676576">
        <ele>24.1703</ele>
        <time>2013-04-09T17:53:24Z</time>
      </trkpt>
      <trkpt lat="59.898368" lon="17.6764586">
        <ele>24.1703</ele>
        <time>2013-04-09T17:53:25Z</time>
      </trkpt>
      <trkpt lat="59.8983752" lon="17.6763435">
        <ele>24.1703</ele>
        <time>2013-04-09T17:53:26Z</time>
      </trkpt>
      <trkpt lat="59.8983814" lon="17.6762311">
        <ele>24.651</ele>
        <time>2013-04-09T17:53:27Z</time>
      </trkpt>
      <trkpt lat="59.898388" lon="17.6761223">
        <ele>24.651</ele>
        <time>2013-04-09T17:53:28Z</time>
      </trkpt>
      <trkpt lat="59.8983948" lon="17.6760163">
        <ele>24.651</ele>
        <time>2013-04-09T17:53:29Z</time>
      </trkpt>
      <trkpt lat="59.8984009" lon="17.675915">
        <ele>25.1317</ele>
        <time>2013-04-09T17:53:30Z</time>
      </trkpt>
      <trkpt lat="59.8984057" lon="17.6758171">
        <ele>25.1317</ele>
        <time>2013-04-09T17:53:31Z</time>
      </trkpt>
      <trkpt lat="59.89841" lon="17.675722">
        <ele>25.1317</ele>
        <time>2013-04-09T17:53:32Z</time>
      </trkpt>
      <trkpt lat="59.8984141" lon="17.6756323">
        <ele>25.6123</ele>
        <time>2013-04-09T17:53:33Z</time>
      </trkpt>
      <trkpt lat="59.8984186" lon="17.6755491">
        <ele>25.6123</ele>
        <time>2013-04-09T17:53:34Z</time>
      </trkpt>
      <trkpt lat="59.8984252" lon="17.6754643">
        <ele>25.6123</ele>
        <time>2013-04-09T17:53:35Z</time>
      </trkpt>
      <trkpt lat="59.8984351" lon="17.6753812">
        <ele>25.6123</ele>
        <time>2013-04-09T17:53:36Z</time>
      </trkpt>
      <trkpt lat="59.8984483" lon="17.6752987">
        <ele>25.6123</ele>
        <time>2013-04-09T17:53:37Z</time>
      </trkpt>
      <trkpt lat="59.8984642" lon="17.6752154">
        <ele>25.6123</ele>
        <time>2013-04-09T17:53:38Z</time>
      </trkpt>
      <trkpt lat="59.8984835" lon="17.6751325">
        <ele>25.6123</ele>
        <time>2013-04-09T17:53:39Z</time>
      </trkpt>
      <trkpt lat="59.8985068" lon="17.6750505">
        <ele>26.0929</ele>
        <time>2013-04-09T17:53:40Z</time>
      </trkpt>
      <trkpt lat="59.8985341" lon="17.6749718">
        <ele>26.0929</ele>
        <time>2013-04-09T17:53:41Z</time>
      </trkpt>
      <trkpt lat="59.8985642" lon="17.6748984">
        <ele>26.0929</ele>
        <time>2013-04-09T17:53:42Z</time>
      </trkpt>
      <trkpt lat="59.8985949" lon="17.6748311">
        <ele>26.0929</ele>
        <time>2013-04-09T17:53:43Z</time>
      </trkpt>
      <trkpt lat="59.8986263" lon="17.6747745">
        <ele>26.5736</ele>
        <time>2013-04-09T17:53:44Z</time>
      </trkpt>
      <trkpt lat="59.8986549" lon="17.6747295">
        <ele>26.5736</ele>
        <time>2013-04-09T17:53:45Z</time>
      </trkpt>
      <trkpt lat="59.8986833" lon="17.6746896">
        <ele>26.5736</ele>
        <time>2013-04-09T17:53:46Z</time>
      </trkpt>
      <trkpt lat="59.8987108" lon="17.6746515">
        <ele>26.0929</ele>
        <time>2013-04-09T17:53:47Z</time>
      </trkpt>
      <trkpt lat="59.8987394" lon="17.6746154">
        <ele>26.5736</ele>
        <time>2013-04-09T17:53:48Z</time>
      </trkpt>
      <trkpt lat="59.8987709" lon="17.6745806">
        <ele>26.5736</ele>
        <time>2013-04-09T17:53:49Z</time>
      </trkpt>
      <trkpt lat="59.8988061" lon="17.6745441">
        <ele>26.5736</ele>
        <time>2013-04-09T17:53:50Z</time>
      </trkpt>
      <trkpt lat="59.8988407" lon="17.6745037">
        <ele>27.0543</ele>
        <time>2013-04-09T17:53:51Z</time>
      </trkpt>
      <trkpt lat="59.8988671" lon="17.6744569">
        <ele>26.5736</ele>
        <time>2013-04-09T17:53:52Z</time>
      </trkpt>
      <trkpt lat="59.8989013" lon="17.6744041">
        <ele>26.5736</ele>
        <time>2013-04-09T17:53:53Z</time>
      </trkpt>
      <trkpt lat="59.8989449" lon="17.6743446">
        <ele>27.0543</ele>
        <time>2013-04-09T17:53:54Z</time>
      </trkpt>
      <trkpt lat="59.8989831" lon="17.6742762">
        <ele>27.0543</ele>
        <time>2013-04-09T17:53:55Z</time>
      </trkpt>
      <trkpt lat="59.8990153" lon="17.6741926">
        <ele>27.0543</ele>
        <time>2013-04-09T17:53:56Z</time>
      </trkpt>
      <trkpt lat="59.8990432" lon="17.6740957">
        <ele>28.0155</ele>
        <time>2013-04-09T17:53:57Z</time>
      </trkpt>
      <trkpt lat="59.8990646" lon="17.6739899">
        <ele>28.4962</ele>
        <time>2013-04-09T17:53:58Z</time>
      </trkpt>
      <trkpt lat="59.8990834" lon="17.6738784">
        <ele>29.9381</ele>
        <time>2013-04-09T17:53:59Z</time>
      </trkpt>
      <trkpt lat="59.8990934" lon="17.6737587">
        <ele>29.4575</ele>
        <time>2013-04-09T17:54:00Z</time>
      </trkpt>
      <trkpt lat="59.8990989" lon="17.6736509">
        <ele>28.9769</ele>
        <time>2013-04-09T17:54:01Z</time>
      </trkpt>
      <trkpt lat="59.8991018" lon="17.6735422">
        <ele>29.4575</ele>
        <time>2013-04-09T17:54:02Z</time>
      </trkpt>
      <trkpt lat="59.8991043" lon="17.6734428">
        <ele>29.9381</ele>
        <time>2013-04-09T17:54:03Z</time>
      </trkpt>
      <trkpt lat="59.89911" lon="17.6733603">
        <ele>29.4575</ele>
        <time>2013-04-09T17:54:04Z</time>
      </trkpt>
      <trkpt lat="59.8991179" lon="17.6732749">
        <ele>30.4188</ele>
        <time>2013-04-09T17:54:05Z</time>
      </trkpt>
      <trkpt lat="59.8991278" lon="17.6731924">
        <ele>30.4188</ele>
        <time>2013-04-09T17:54:06Z</time>
      </trkpt>
      <trkpt lat="59.8991392" lon="17.6731153">
        <ele>29.9381</ele>
        <time>2013-04-09T17:54:07Z</time>
      </trkpt>
      <trkpt lat="59.8991544" lon="17.673026">
        <ele>29.9381</ele>
        <time>2013-04-09T17:54:08Z</time>
      </trkpt>
      <trkpt lat="59.8991728" lon="17.6729258">
        <ele>29.4575</ele>
        <time>2013-04-09T17:54:09Z</time>
      </trkpt>
      <trkpt lat="59.8991915" lon="17.6728221">
        <ele>29.9381</ele>
        <time>2013-04-09T17:54:10Z</time>
      </trkpt>
      <trkpt lat="59.8992097" lon="17.6727235">
        <ele>29.9381</ele>
        <time>2013-04-09T17:54:11Z</time>
      </trkpt>
      <trkpt lat="59.899231" lon="17.6726264">
        <ele>29.9381</ele>
        <time>2013-04-09T17:54:12Z</time>
      </trkpt>
      <trkpt lat="59.8992512" lon="17.6725218">
        <ele>29.4575</ele>
        <time>2013-04-09T17:54:13Z</time>
      </trkpt>
      <trkpt lat="59.8992667" lon="17.6724145">
        <ele>29.9381</ele>
        <time>2013-04-09T17:54:14Z</time>
      </trkpt>
      <trkpt lat="59.8992846" lon="17.6722609">
        <ele>29.9381</ele>
        <time>2013-04-09T17:54:15Z</time>
      </trkpt>
      <trkpt lat="59.8993058" lon="17.6721123">
        <ele>30.4188</ele>
        <time>2013-04-09T17:54:16Z</time>
      </trkpt>
      <trkpt lat="59.8993185" lon="17.6719705">
        <ele>30.4188</ele>
        <time>2013-04-09T17:54:17Z</time>
      </trkpt>
      <trkpt lat="59.8993247" lon="17.6718269">
        <ele>30.4188</ele>
        <time>2013-04-09T17:54:18Z</time>
      </trkpt>
      <trkpt lat="59.89932" lon="17.6716886">
        <ele>30.4188</ele>
        <time>2013-04-09T17:54:19Z</time>
      </trkpt>
      <trkpt lat="59.8993225" lon="17.6715401">
        <ele>30.8995</ele>
        <time>2013-04-09T17:54:20Z</time>
      </trkpt>
      <trkpt lat="59.8993286" lon="17.6713112">
        <ele>31.8607</ele>
        <time>2013-04-09T17:54:21Z</time>
      </trkpt>
      <trkpt lat="59.8993237" lon="17.6711517">
        <ele>31.8607</ele>
        <time>2013-04-09T17:54:22Z</time>
      </trkpt>
      <trkpt lat="59.8993211" lon="17.6709978">
        <ele>32.3416</ele>
        <time>2013-04-09T17:54:23Z</time>
      </trkpt>
      <trkpt lat="59.8993232" lon="17.6708602">
        <ele>32.8223</ele>
        <time>2013-04-09T17:54:24Z</time>
      </trkpt>
      <trkpt lat="59.8993252" lon="17.6707252">
        <ele>33.3029</ele>
        <time>2013-04-09T17:54:25Z</time>
      </trkpt>
      <trkpt lat="59.8993357" lon="17.670609">
        <ele>33.3029</ele>
        <time>2013-04-09T17:54:26Z</time>
      </trkpt>
      <trkpt lat="59.8993623" lon="17.6705078">
        <ele>32.8223</ele>
        <time>2013-04-09T17:54:27Z</time>
      </trkpt>
      <trkpt lat="59.8993966" lon="17.6704125">
        <ele>32.3416</ele>
        <time>2013-04-09T17:54:28Z</time>
      </trkpt>
      <trkpt lat="59.8994334" lon="17.6703171">
        <ele>31.3801</ele>
        <time>2013-04-09T17:54:29Z</time>
      </trkpt>
      <trkpt lat="59.8994778" lon="17.6702487">
        <ele>30.8995</ele>
        <time>2013-04-09T17:54:30Z</time>
      </trkpt>
      <trkpt lat="59.8995262" lon="17.6701967">
        <ele>30.4188</ele>
        <time>2013-04-09T17:54:31Z</time>
      </trkpt>
      <trkpt lat="59.8995778" lon="17.6701602">
        <ele>29.9381</ele>
        <time>2013-04-09T17:54:32Z</time>
      </trkpt>
      <trkpt lat="59.8996491" lon="17.6701585">
        <ele>29.4575</ele>
        <time>2013-04-09T17:54:33Z</time>
      </trkpt>
      <trkpt lat="59.8997018" lon="17.6701544">
        <ele>28.4962</ele>
        <time>2013-04-09T17:54:34Z</time>
      </trkpt>
      <trkpt lat="59.8997555" lon="17.6701404">
        <ele>28.4962</ele>
        <time>2013-04-09T17:54:35Z</time>
      </trkpt>
      <trkpt lat="59.8998059" lon="17.670115">
        <ele>27.5349</ele>
        <time>2013-04-09T17:54:36Z</time>
      </trkpt>
      <trkpt lat="59.8998503" lon="17.6700871">
        <ele>28.0155</ele>
        <time>2013-04-09T17:54:37Z</time>
      </trkpt>
      <trkpt lat="59.8998986" lon="17.6700669">
        <ele>27.5349</ele>
        <time>2013-04-09T17:54:38Z</time>
      </trkpt>
      <trkpt lat="59.8999549" lon="17.6700373">
        <ele>27.5349</ele>
        <time>2013-04-09T17:54:39Z</time>
      </trkpt>
      <trkpt lat="59.9000049" lon="17.6700143">
        <ele>27.5349</ele>
        <time>2013-04-09T17:54:40Z</time>
      </trkpt>
      <trkpt lat="59.9000609" lon="17.6700047">
        <ele>27.5349</ele>
        <time>2013-04-09T17:54:41Z</time>
      </trkpt>
      <trkpt lat="59.9001182" lon="17.6699881">
        <ele>27.0543</ele>
        <time>2013-04-09T17:54:42Z</time>
      </trkpt>
      <trkpt lat="59.9001776" lon="17.6699638">
        <ele>26.0929</ele>
        <time>2013-04-09T17:54:43Z</time>
      </trkpt>
      <trkpt lat="59.9002446" lon="17.6699291">
        <ele>25.1317</ele>
        <time>2013-04-09T17:54:44Z</time>
      </trkpt>
      <trkpt lat="59.9003182" lon="17.6698928">
        <ele>24.1703</ele>
        <time>2013-04-09T17:54:45Z</time>
      </trkpt>
      <trkpt lat="59.900391" lon="17.6698646">
        <ele>23.6896</ele>
        <time>2013-04-09T17:54:46Z</time>
      </trkpt>
      <trkpt lat="59.9004591" lon="17.6698394">
        <ele>22.7283</ele>
        <time>2013-04-09T17:54:47Z</time>
      </trkpt>
      <trkpt lat="59.9005244" lon="17.6698167">
        <ele>22.2476</ele>
        <time>2013-04-09T17:54:48Z</time>
      </trkpt>
      <trkpt lat="59.9005908" lon="17.6697985">
        <ele>22.7283</ele>
        <time>2013-04-09T17:54:49Z</time>
      </trkpt>
      <trkpt lat="59.9006817" lon="17.6697852">
        <ele>23.6896</ele>
        <time>2013-04-09T17:54:50Z</time>
      </trkpt>
      <trkpt lat="59.9007461" lon="17.6697705">
        <ele>23.6896</ele>
        <time>2013-04-09T17:54:51Z</time>
      </trkpt>
      <trkpt lat="59.9008018" lon="17.6697683">
        <ele>24.1703</ele>
        <time>2013-04-09T17:54:52Z</time>
      </trkpt>
      <trkpt lat="59.9008524" lon="17.6697532">
        <ele>24.1703</ele>
        <time>2013-04-09T17:54:53Z</time>
      </trkpt>
      <trkpt lat="59.9008995" lon="17.6697403">
        <ele>24.1703</ele>
        <time>2013-04-09T17:54:54Z</time>
      </trkpt>
      <trkpt lat="59.9009575" lon="17.6697315">
        <ele>24.651</ele>
        <time>2013-04-09T17:54:55Z</time>
      </trkpt>
      <trkpt lat="59.9010148" lon="17.6697224">
        <ele>24.651</ele>
        <time>2013-04-09T17:54:56Z</time>
      </trkpt>
      <trkpt lat="59.9010989" lon="17.6696777">
        <ele>24.651</ele>
        <time>2013-04-09T17:54:57Z</time>
      </trkpt>
      <trkpt lat="59.9011657" lon="17.6696627">
        <ele>25.1317</ele>
        <time>2013-04-09T17:54:58Z</time>
      </trkpt>
      <trkpt lat="59.9012387" lon="17.6696462">
        <ele>25.1317</ele>
        <time>2013-04-09T17:54:59Z</time>
      </trkpt>
      <trkpt lat="59.9013076" lon="17.6696258">
        <ele>24.651</ele>
        <time>2013-04-09T17:55:00Z</time>
      </trkpt>
      <trkpt lat="59.9013801" lon="17.6696124">
        <ele>24.651</ele>
        <time>2013-04-09T17:55:01Z</time>
      </trkpt>
      <trkpt lat="59.901452" lon="17.6696125">
        <ele>24.651</ele>
        <time>2013-04-09T17:55:02Z</time>
      </trkpt>
      <trkpt lat="59.9015132" lon="17.6696184">
        <ele>25.1317</ele>
        <time>2013-04-09T17:55:03Z</time>
      </trkpt>
      <trkpt lat="59.9015766" lon="17.6696245">
        <ele>24.651</ele>
        <time>2013-04-09T17:55:04Z</time>
      </trkpt>
      <trkpt lat="59.901637" lon="17.6696365">
        <ele>24.651</ele>
        <time>2013-04-09T17:55:05Z</time>
      </trkpt>
      <trkpt lat="59.9016961" lon="17.6696536">
        <ele>24.1703</ele>
        <time>2013-04-09T17:55:06Z</time>
      </trkpt>
      <trkpt lat="59.9017521" lon="17.669672">
        <ele>23.6896</ele>
        <time>2013-04-09T17:55:07Z</time>
      </trkpt>
      <trkpt lat="59.9018039" lon="17.6696949">
        <ele>22.2476</ele>
        <time>2013-04-09T17:55:08Z</time>
      </trkpt>
      <trkpt lat="59.9018578" lon="17.6697279">
        <ele>21.767</ele>
        <time>2013-04-09T17:55:09Z</time>
      </trkpt>
      <trkpt lat="59.9019112" lon="17.6697807">
        <ele>20.8057</ele>
        <time>2013-04-09T17:55:10Z</time>
      </trkpt>
      <trkpt lat="59.9019642" lon="17.6698353">
        <ele>19.8444</ele>
        <time>2013-04-09T17:55:11Z</time>
      </trkpt>
      <trkpt lat="59.9020187" lon="17.6698871">
        <ele>18.4023</ele>
        <time>2013-04-09T17:55:12Z</time>
      </trkpt>
      <trkpt lat="59.9020788" lon="17.6699325">
        <ele>17.9218</ele>
        <time>2013-04-09T17:55:13Z</time>
      </trkpt>
      <trkpt lat="59.9021432" lon="17.6699691">
        <ele>17.9218</ele>
        <time>2013-04-09T17:55:14Z</time>
      </trkpt>
      <trkpt lat="59.9022132" lon="17.6699939">
        <ele>18.4023</ele>
        <time>2013-04-09T17:55:15Z</time>
      </trkpt>
      <trkpt lat="59.9022902" lon="17.6700125">
        <ele>19.8444</ele>
        <time>2013-04-09T17:55:16Z</time>
      </trkpt>
      <trkpt lat="59.9023608" lon="17.6700123">
        <ele>19.8444</ele>
        <time>2013-04-09T17:55:17Z</time>
      </trkpt>
      <trkpt lat="59.9024328" lon="17.6700005">
        <ele>20.325</ele>
        <time>2013-04-09T17:55:18Z</time>
      </trkpt>
      <trkpt lat="59.9025036" lon="17.6699796">
        <ele>20.8057</ele>
        <time>2013-04-09T17:55:19Z</time>
      </trkpt>
      <trkpt lat="59.902573" lon="17.6699555">
        <ele>21.2864</ele>
        <time>2013-04-09T17:55:20Z</time>
      </trkpt>
      <trkpt lat="59.9026384" lon="17.6699305">
        <ele>21.2864</ele>
        <time>2013-04-09T17:55:21Z</time>
      </trkpt>
      <trkpt lat="59.9027024" lon="17.6699038">
        <ele>21.2864</ele>
        <time>2013-04-09T17:55:22Z</time>
      </trkpt>
      <trkpt lat="59.9027698" lon="17.6698595">
        <ele>21.2864</ele>
        <time>2013-04-09T17:55:23Z</time>
      </trkpt>
      <trkpt lat="59.9028325" lon="17.6698358">
        <ele>21.767</ele>
        <time>2013-04-09T17:55:24Z</time>
      </trkpt>
      <trkpt lat="59.9028922" lon="17.6698374">
        <ele>22.2476</ele>
        <time>2013-04-09T17:55:25Z</time>
      </trkpt>
      <trkpt lat="59.9029462" lon="17.669859">
        <ele>22.7283</ele>
        <time>2013-04-09T17:55:26Z</time>
      </trkpt>
      <trkpt lat="59.9030086" lon="17.6698949">
        <ele>23.209</ele>
        <time>2013-04-09T17:55:27Z</time>
      </trkpt>
      <trkpt lat="59.9030666" lon="17.6699331">
        <ele>23.209</ele>
        <time>2013-04-09T17:55:28Z</time>
      </trkpt>
      <trkpt lat="59.903131" lon="17.66996">
        <ele>23.209</ele>
        <time>2013-04-09T17:55:29Z</time>
      </trkpt>
      <trkpt lat="59.9032092" lon="17.6699735">
        <ele>22.7283</ele>
        <time>2013-04-09T17:55:30Z</time>
      </trkpt>
      <trkpt lat="59.9032756" lon="17.6699735">
        <ele>22.7283</ele>
        <time>2013-04-09T17:55:31Z</time>
      </trkpt>
      <trkpt lat="59.903345" lon="17.6699249">
        <ele>23.209</ele>
        <time>2013-04-09T17:55:32Z</time>
      </trkpt>
      <trkpt lat="59.9034074" lon="17.6698765">
        <ele>23.209</ele>
        <time>2013-04-09T17:55:33Z</time>
      </trkpt>
      <trkpt lat="59.9034655" lon="17.6698263">
        <ele>23.209</ele>
        <time>2013-04-09T17:55:34Z</time>
      </trkpt>
      <trkpt lat="59.903492" lon="17.6696618">
        <ele>23.6896</ele>
        <time>2013-04-09T17:55:35Z</time>
      </trkpt>
      <trkpt lat="59.9035405" lon="17.6695183">
        <ele>24.1703</ele>
        <time>2013-04-09T17:55:36Z</time>
      </trkpt>
      <trkpt lat="59.903581" lon="17.6694388">
        <ele>24.1703</ele>
        <time>2013-04-09T17:55:37Z</time>
      </trkpt>
      <trkpt lat="59.9036117" lon="17.6693265">
        <ele>24.1703</ele>
        <time>2013-04-09T17:55:38Z</time>
      </trkpt>
      <trkpt lat="59.9036562" lon="17.6692209">
        <ele>25.1317</ele>
        <time>2013-04-09T17:55:39Z</time>
      </trkpt>
      <trkpt lat="59.9037002" lon="17.6691153">
        <ele>25.6123</ele>
        <time>2013-04-09T17:55:40Z</time>
      </trkpt>
      <trkpt lat="59.9037419" lon="17.6690003">
        <ele>25.6123</ele>
        <time>2013-04-09T17:55:41Z</time>
      </trkpt>
      <trkpt lat="59.9037878" lon="17.6688879">
        <ele>26.0929</ele>
        <time>2013-04-09T17:55:42Z</time>
      </trkpt>
      <trkpt lat="59.9038241" lon="17.6687773">
        <ele>26.0929</ele>
        <time>2013-04-09T17:55:43Z</time>
      </trkpt>
      <trkpt lat="59.9038619" lon="17.6686668">
        <ele>26.0929</ele>
        <time>2013-04-09T17:55:44Z</time>
      </trkpt>
      <trkpt lat="59.9039023" lon="17.6685734">
        <ele>26.0929</ele>
        <time>2013-04-09T17:55:45Z</time>
      </trkpt>
      <trkpt lat="59.9039437" lon="17.6684782">
        <ele>26.5736</ele>
        <time>2013-04-09T17:55:46Z</time>
      </trkpt>
      <trkpt lat="59.9039877" lon="17.6683932">
        <ele>27.0543</ele>
        <time>2013-04-09T17:55:47Z</time>
      </trkpt>
      <trkpt lat="59.904035" lon="17.6683169">
        <ele>28.0155</ele>
        <time>2013-04-09T17:55:48Z</time>
      </trkpt>
      <trkpt lat="59.9040705" lon="17.6682508">
        <ele>27.5349</ele>
        <time>2013-04-09T17:55:49Z</time>
      </trkpt>
      <trkpt lat="59.9041109" lon="17.6681961">
        <ele>27.0543</ele>
        <time>2013-04-09T17:55:50Z</time>
      </trkpt>
      <trkpt lat="59.904157" lon="17.668147">
        <ele>27.5349</ele>
        <time>2013-04-09T17:55:51Z</time>
      </trkpt>
      <trkpt lat="59.9042022" lon="17.6681027">
        <ele>27.0543</ele>
        <time>2013-04-09T17:55:52Z</time>
      </trkpt>
      <trkpt lat="59.9042502" lon="17.668055">
        <ele>26.5736</ele>
        <time>2013-04-09T17:55:53Z</time>
      </trkpt>
      <trkpt lat="59.9043022" lon="17.6680207">
        <ele>26.5736</ele>
        <time>2013-04-09T17:55:54Z</time>
      </trkpt>
      <trkpt lat="59.9043587" lon="17.6679988">
        <ele>26.5736</ele>
        <time>2013-04-09T17:55:55Z</time>
      </trkpt>
      <trkpt lat="59.9044175" lon="17.6679819">
        <ele>26.5736</ele>
        <time>2013-04-09T17:55:56Z</time>
      </trkpt>
      <trkpt lat="59.9044774" lon="17.6679648">
        <ele>27.0543</ele>
        <time>2013-04-09T17:55:57Z</time>
      </trkpt>
      <trkpt lat="59.9045399" lon="17.6679504">
        <ele>26.5736</ele>
        <time>2013-04-09T17:55:58Z</time>
      </trkpt>
      <trkpt lat="59.9046063" lon="17.6679381">
        <ele>26.5736</ele>
        <time>2013-04-09T17:55:59Z</time>
      </trkpt>
      <trkpt lat="59.9046747" lon="17.6679324">
        <ele>26.0929</ele>
        <time>2013-04-09T17:56:00Z</time>
      </trkpt>
      <trkpt lat="59.9047446" lon="17.6679322">
        <ele>25.6123</ele>
        <time>2013-04-09T17:56:01Z</time>
      </trkpt>
      <trkpt lat="59.9048188" lon="17.6679446">
        <ele>25.1317</ele>
        <time>2013-04-09T17:56:02Z</time>
      </trkpt>
      <trkpt lat="59.9048979" lon="17.6679687">
        <ele>24.651</ele>
        <time>2013-04-09T17:56:03Z</time>
      </trkpt>
      <trkpt lat="59.9049798" lon="17.6680041">
        <ele>24.1703</ele>
        <time>2013-04-09T17:56:04Z</time>
      </trkpt>
      <trkpt lat="59.9050581" lon="17.6680578">
        <ele>23.209</ele>
        <time>2013-04-09T17:56:05Z</time>
      </trkpt>
      <trkpt lat="59.9051383" lon="17.668102">
        <ele>22.2476</ele>
        <time>2013-04-09T17:56:06Z</time>
      </trkpt>
      <trkpt lat="59.9052212" lon="17.6681574">
        <ele>21.767</ele>
        <time>2013-04-09T17:56:07Z</time>
      </trkpt>
      <trkpt lat="59.9053026" lon="17.668204">
        <ele>21.2864</ele>
        <time>2013-04-09T17:56:08Z</time>
      </trkpt>
      <trkpt lat="59.9053942" lon="17.6682637">
        <ele>20.8057</ele>
        <time>2013-04-09T17:56:09Z</time>
      </trkpt>
      <trkpt lat="59.905475" lon="17.6682979">
        <ele>19.8444</ele>
        <time>2013-04-09T17:56:10Z</time>
      </trkpt>
      <trkpt lat="59.9055589" lon="17.6683329">
        <ele>19.3638</ele>
        <time>2013-04-09T17:56:11Z</time>
      </trkpt>
      <trkpt lat="59.9056464" lon="17.6683797">
        <ele>20.325</ele>
        <time>2013-04-09T17:56:12Z</time>
      </trkpt>
      <trkpt lat="59.905732" lon="17.6684297">
        <ele>20.8057</ele>
        <time>2013-04-09T17:56:13Z</time>
      </trkpt>
      <trkpt lat="59.9058151" lon="17.6684728">
        <ele>21.2864</ele>
        <time>2013-04-09T17:56:14Z</time>
      </trkpt>
      <trkpt lat="59.9058997" lon="17.6685034">
        <ele>21.767</ele>
        <time>2013-04-09T17:56:15Z</time>
      </trkpt>
      <trkpt lat="59.9059827" lon="17.6685304">
        <ele>22.2476</ele>
        <time>2013-04-09T17:56:16Z</time>
      </trkpt>
      <trkpt lat="59.9060649" lon="17.6685584">
        <ele>22.7283</ele>
        <time>2013-04-09T17:56:17Z</time>
      </trkpt>
      <trkpt lat="59.9061397" lon="17.6685836">
        <ele>22.7283</ele>
        <time>2013-04-09T17:56:18Z</time>
      </trkpt>
      <trkpt lat="59.9062071" lon="17.6686066">
        <ele>22.2476</ele>
        <time>2013-04-09T17:56:19Z</time>
      </trkpt>
      <trkpt lat="59.9062737" lon="17.6686252">
        <ele>22.2476</ele>
        <time>2013-04-09T17:56:20Z</time>
      </trkpt>
      <trkpt lat="59.9063364" lon="17.6686372">
        <ele>21.2864</ele>
        <time>2013-04-09T17:56:21Z</time>
      </trkpt>
      <trkpt lat="59.9064033" lon="17.6686433">
        <ele>21.2864</ele>
        <time>2013-04-09T17:56:22Z</time>
      </trkpt>
      <trkpt lat="59.9064711" lon="17.6686408">
        <ele>21.2864</ele>
        <time>2013-04-09T17:56:23Z</time>
      </trkpt>
      <trkpt lat="59.9065346" lon="17.6686336">
        <ele>21.2864</ele>
        <time>2013-04-09T17:56:24Z</time>
      </trkpt>
      <trkpt lat="59.9065996" lon="17.6686266">
        <ele>21.767</ele>
        <time>2013-04-09T17:56:25Z</time>
      </trkpt>
      <trkpt lat="59.9066629" lon="17.6686111">
        <ele>22.2476</ele>
        <time>2013-04-09T17:56:26Z</time>
      </trkpt>
      <trkpt lat="59.9067254" lon="17.6685857">
        <ele>22.2476</ele>
        <time>2013-04-09T17:56:27Z</time>
      </trkpt>
      <trkpt lat="59.9067891" lon="17.668559">
        <ele>22.7283</ele>
        <time>2013-04-09T17:56:28Z</time>
      </trkpt>
      <trkpt lat="59.9068533" lon="17.668535">
        <ele>22.7283</ele>
        <time>2013-04-09T17:56:29Z</time>
      </trkpt>
      <trkpt lat="59.9069192" lon="17.6685103">
        <ele>22.7283</ele>
        <time>2013-04-09T17:56:30Z</time>
      </trkpt>
      <trkpt lat="59.9069841" lon="17.6684979">
        <ele>22.7283</ele>
        <time>2013-04-09T17:56:31Z</time>
      </trkpt>
      <trkpt lat="59.9070517" lon="17.6684837">
        <ele>22.7283</ele>
        <time>2013-04-09T17:56:32Z</time>
      </trkpt>
      <trkpt lat="59.9071236" lon="17.6684615">
        <ele>23.209</ele>
        <time>2013-04-09T17:56:33Z</time>
      </trkpt>
      <trkpt lat="59.9071988" lon="17.66843">
        <ele>22.7283</ele>
        <time>2013-04-09T17:56:34Z</time>
      </trkpt>
      <trkpt lat="59.9072735" lon="17.6683999">
        <ele>22.2476</ele>
        <time>2013-04-09T17:56:35Z</time>
      </trkpt>
      <trkpt lat="59.9073475" lon="17.66837">
        <ele>22.2476</ele>
        <time>2013-04-09T17:56:36Z</time>
      </trkpt>
      <trkpt lat="59.9074191" lon="17.668337">
        <ele>21.767</ele>
        <time>2013-04-09T17:56:37Z</time>
      </trkpt>
      <trkpt lat="59.907489" lon="17.6682974">
        <ele>21.767</ele>
        <time>2013-04-09T17:56:38Z</time>
      </trkpt>
      <trkpt lat="59.9075531" lon="17.6682455">
        <ele>21.767</ele>
        <time>2013-04-09T17:56:39Z</time>
      </trkpt>
      <trkpt lat="59.9076113" lon="17.6681759">
        <ele>22.2476</ele>
        <time>2013-04-09T17:56:40Z</time>
      </trkpt>
      <trkpt lat="59.9076619" lon="17.6680847">
        <ele>22.2476</ele>
        <time>2013-04-09T17:56:41Z</time>
      </trkpt>
      <trkpt lat="59.9077024" lon="17.6679809">
        <ele>22.2476</ele>
        <time>2013-04-09T17:56:42Z</time>
      </trkpt>
      <trkpt lat="59.9077305" lon="17.6678742">
        <ele>22.2476</ele>
        <time>2013-04-09T17:56:43Z</time>
      </trkpt>
      <trkpt lat="59.9077471" lon="17.6677513">
        <ele>22.2476</ele>
        <time>2013-04-09T17:56:44Z</time>
      </trkpt>
      <trkpt lat="59.9077561" lon="17.667622">
        <ele>22.7283</ele>
        <time>2013-04-09T17:56:45Z</time>
      </trkpt>
      <trkpt lat="59.9077616" lon="17.6674974">
        <ele>22.7283</ele>
        <time>2013-04-09T17:56:46Z</time>
      </trkpt>
      <trkpt lat="59.9077662" lon="17.6673764">
        <ele>23.209</ele>
        <time>2013-04-09T17:56:47Z</time>
      </trkpt>
      <trkpt lat="59.9077713" lon="17.6672686">
        <ele>24.1703</ele>
        <time>2013-04-09T17:56:48Z</time>
      </trkpt>
      <trkpt lat="59.9077755" lon="17.6671675">
        <ele>25.1317</ele>
        <time>2013-04-09T17:56:49Z</time>
      </trkpt>
      <trkpt lat="59.9077781" lon="17.667072">
        <ele>26.0929</ele>
        <time>2013-04-09T17:56:50Z</time>
      </trkpt>
      <trkpt lat="59.907782" lon="17.6669799">
        <ele>27.0543</ele>
        <time>2013-04-09T17:56:51Z</time>
      </trkpt>
      <trkpt lat="59.907786" lon="17.6668949">
        <ele>28.0155</ele>
        <time>2013-04-09T17:56:52Z</time>
      </trkpt>
      <trkpt lat="59.9077931" lon="17.6668158">
        <ele>28.4962</ele>
        <time>2013-04-09T17:56:53Z</time>
      </trkpt>
      <trkpt lat="59.9078001" lon="17.6667367">
        <ele>28.9769</ele>
        <time>2013-04-09T17:56:54Z</time>
      </trkpt>
      <trkpt lat="59.9078046" lon="17.6666615">
        <ele>29.9381</ele>
        <time>2013-04-09T17:56:55Z</time>
      </trkpt>
      <trkpt lat="59.9078081" lon="17.666596">
        <ele>30.4188</ele>
        <time>2013-04-09T17:56:56Z</time>
      </trkpt>
      <trkpt lat="59.9078174" lon="17.6665376">
        <ele>31.3801</ele>
        <time>2013-04-09T17:56:57Z</time>
      </trkpt>
      <trkpt lat="59.9078214" lon="17.666477">
        <ele>32.3416</ele>
        <time>2013-04-09T17:56:58Z</time>
      </trkpt>
      <trkpt lat="59.9078274" lon="17.6664242">
        <ele>32.8223</ele>
        <time>2013-04-09T17:56:59Z</time>
      </trkpt>
      <trkpt lat="59.9078355" lon="17.6663744">
        <ele>33.3029</ele>
        <time>2013-04-09T17:57:00Z</time>
      </trkpt>
      <trkpt lat="59.9078438" lon="17.6663237">
        <ele>33.7834</ele>
        <time>2013-04-09T17:57:01Z</time>
      </trkpt>
      <trkpt lat="59.9078525" lon="17.666277">
        <ele>34.2642</ele>
        <time>2013-04-09T17:57:02Z</time>
      </trkpt>
      <trkpt lat="59.90786" lon="17.6662164">
        <ele>34.7449</ele>
        <time>2013-04-09T17:57:03Z</time>
      </trkpt>
      <trkpt lat="59.9078605" lon="17.6661595">
        <ele>34.2642</ele>
        <time>2013-04-09T17:57:04Z</time>
      </trkpt>
      <trkpt lat="59.9078646" lon="17.6661071">
        <ele>34.7449</ele>
        <time>2013-04-09T17:57:05Z</time>
      </trkpt>
      <trkpt lat="59.9078701" lon="17.666055">
        <ele>34.7449</ele>
        <time>2013-04-09T17:57:06Z</time>
      </trkpt>
      <trkpt lat="59.9078799" lon="17.6659988">
        <ele>35.2255</ele>
        <time>2013-04-09T17:57:07Z</time>
      </trkpt>
      <trkpt lat="59.9078848" lon="17.6659356">
        <ele>35.7061</ele>
        <time>2013-04-09T17:57:08Z</time>
      </trkpt>
      <trkpt lat="59.9078862" lon="17.6658673">
        <ele>35.2255</ele>
        <time>2013-04-09T17:57:09Z</time>
      </trkpt>
      <trkpt lat="59.9078858" lon="17.6658061">
        <ele>34.2642</ele>
        <time>2013-04-09T17:57:10Z</time>
      </trkpt>
      <trkpt lat="59.9078879" lon="17.6657473">
        <ele>33.3029</ele>
        <time>2013-04-09T17:57:11Z</time>
      </trkpt>
      <trkpt lat="59.9078879" lon="17.6656869">
        <ele>33.3029</ele>
        <time>2013-04-09T17:57:12Z</time>
      </trkpt>
      <trkpt lat="59.9078937" lon="17.665626">
        <ele>32.8223</ele>
        <time>2013-04-09T17:57:13Z</time>
      </trkpt>
      <trkpt lat="59.907898" lon="17.6655623">
        <ele>32.3416</ele>
        <time>2013-04-09T17:57:14Z</time>
      </trkpt>
      <trkpt lat="59.9079009" lon="17.6654973">
        <ele>32.8223</ele>
        <time>2013-04-09T17:57:15Z</time>
      </trkpt>
      <trkpt lat="59.9079075" lon="17.6654359">
        <ele>31.8607</ele>
        <time>2013-04-09T17:57:16Z</time>
      </trkpt>
      <trkpt lat="59.9079173" lon="17.6653645">
        <ele>30.8995</ele>
        <time>2013-04-09T17:57:17Z</time>
      </trkpt>
      <trkpt lat="59.9079294" lon="17.6652821">
        <ele>29.9381</ele>
        <time>2013-04-09T17:57:18Z</time>
      </trkpt>
      <trkpt lat="59.9079428" lon="17.6651979">
        <ele>29.4575</ele>
        <time>2013-04-09T17:57:19Z</time>
      </trkpt>
      <trkpt lat="59.9079531" lon="17.6651085">
        <ele>29.4575</ele>
        <time>2013-04-09T17:57:20Z</time>
      </trkpt>
      <trkpt lat="59.9079599" lon="17.6650199">
        <ele>28.0155</ele>
        <time>2013-04-09T17:57:21Z</time>
      </trkpt>
      <trkpt lat="59.9079693" lon="17.6649261">
        <ele>27.5349</ele>
        <time>2013-04-09T17:57:22Z</time>
      </trkpt>
      <trkpt lat="59.907975" lon="17.6648199">
        <ele>26.5736</ele>
        <time>2013-04-09T17:57:23Z</time>
      </trkpt>
      <trkpt lat="59.907981" lon="17.664713">
        <ele>25.6123</ele>
        <time>2013-04-09T17:57:24Z</time>
      </trkpt>
      <trkpt lat="59.9079835" lon="17.6645935">
        <ele>25.6123</ele>
        <time>2013-04-09T17:57:25Z</time>
      </trkpt>
      <trkpt lat="59.9079837" lon="17.664469">
        <ele>25.6123</ele>
        <time>2013-04-09T17:57:26Z</time>
      </trkpt>
      <trkpt lat="59.9079822" lon="17.6643435">
        <ele>26.0929</ele>
        <time>2013-04-09T17:57:27Z</time>
      </trkpt>
      <trkpt lat="59.9079781" lon="17.6642175">
        <ele>26.0929</ele>
        <time>2013-04-09T17:57:28Z</time>
      </trkpt>
      <trkpt lat="59.9079711" lon="17.6640907">
        <ele>26.0929</ele>
        <time>2013-04-09T17:57:29Z</time>
      </trkpt>
      <trkpt lat="59.907962" lon="17.6639626">
        <ele>26.0929</ele>
        <time>2013-04-09T17:57:30Z</time>
      </trkpt>
      <trkpt lat="59.9079511" lon="17.6638325">
        <ele>26.5736</ele>
        <time>2013-04-09T17:57:31Z</time>
      </trkpt>
      <trkpt lat="59.9079398" lon="17.663701">
        <ele>26.5736</ele>
        <time>2013-04-09T17:57:32Z</time>
      </trkpt>
      <trkpt lat="59.9079277" lon="17.6635725">
        <ele>26.5736</ele>
        <time>2013-04-09T17:57:33Z</time>
      </trkpt>
      <trkpt lat="59.9079144" lon="17.663443">
        <ele>26.5736</ele>
        <time>2013-04-09T17:57:34Z</time>
      </trkpt>
      <trkpt lat="59.9079001" lon="17.6633175">
        <ele>27.0543</ele>
        <time>2013-04-09T17:57:35Z</time>
      </trkpt>
      <trkpt lat="59.9078862" lon="17.6631909">
        <ele>28.0155</ele>
        <time>2013-04-09T17:57:36Z</time>
      </trkpt>
      <trkpt lat="59.9078687" lon="17.6630674">
        <ele>27.0543</ele>
        <time>2013-04-09T17:57:37Z</time>
      </trkpt>
      <trkpt lat="59.9078522" lon="17.66294">
        <ele>27.5349</ele>
        <time>2013-04-09T17:57:38Z</time>
      </trkpt>
      <trkpt lat="59.9078349" lon="17.662811">
        <ele>27.5349</ele>
        <time>2013-04-09T17:57:39Z</time>
      </trkpt>
      <trkpt lat="59.9078163" lon="17.6626791">
        <ele>27.0543</ele>
        <time>2013-04-09T17:57:40Z</time>
      </trkpt>
      <trkpt lat="59.9077983" lon="17.6625458">
        <ele>27.0543</ele>
        <time>2013-04-09T17:57:41Z</time>
      </trkpt>
      <trkpt lat="59.9077807" lon="17.6624106">
        <ele>27.5349</ele>
        <time>2013-04-09T17:57:42Z</time>
      </trkpt>
      <trkpt lat="59.9077629" lon="17.6622755">
        <ele>27.5349</ele>
        <time>2013-04-09T17:57:43Z</time>
      </trkpt>
      <trkpt lat="59.9077461" lon="17.6621421">
        <ele>27.0543</ele>
        <time>2013-04-09T17:57:44Z</time>
      </trkpt>
      <trkpt lat="59.9077318" lon="17.6620082">
        <ele>27.5349</ele>
        <time>2013-04-09T17:57:45Z</time>
      </trkpt>
      <trkpt lat="59.90772" lon="17.6618764">
        <ele>27.5349</ele>
        <time>2013-04-09T17:57:46Z</time>
      </trkpt>
      <trkpt lat="59.9077103" lon="17.6617436">
        <ele>28.0155</ele>
        <time>2013-04-09T17:57:47Z</time>
      </trkpt>
      <trkpt lat="59.9077018" lon="17.6616144">
        <ele>28.4962</ele>
        <time>2013-04-09T17:57:48Z</time>
      </trkpt>
      <trkpt lat="59.9076929" lon="17.661488">
        <ele>28.4962</ele>
        <time>2013-04-09T17:57:49Z</time>
      </trkpt>
      <trkpt lat="59.907687" lon="17.6613679">
        <ele>28.9769</ele>
        <time>2013-04-09T17:57:50Z</time>
      </trkpt>
      <trkpt lat="59.9076797" lon="17.6612496">
        <ele>29.4575</ele>
        <time>2013-04-09T17:57:51Z</time>
      </trkpt>
      <trkpt lat="59.9076693" lon="17.6611332">
        <ele>29.4575</ele>
        <time>2013-04-09T17:57:52Z</time>
      </trkpt>
      <trkpt lat="59.9076584" lon="17.6610188">
        <ele>29.9381</ele>
        <time>2013-04-09T17:57:53Z</time>
      </trkpt>
      <trkpt lat="59.9076456" lon="17.6609083">
        <ele>30.4188</ele>
        <time>2013-04-09T17:57:54Z</time>
      </trkpt>
      <trkpt lat="59.9076324" lon="17.6607976">
        <ele>30.4188</ele>
        <time>2013-04-09T17:57:55Z</time>
      </trkpt>
      <trkpt lat="59.9076183" lon="17.6606938">
        <ele>29.4575</ele>
        <time>2013-04-09T17:57:56Z</time>
      </trkpt>
      <trkpt lat="59.9076033" lon="17.6605873">
        <ele>28.4962</ele>
        <time>2013-04-09T17:57:57Z</time>
      </trkpt>
      <trkpt lat="59.9075862" lon="17.6604757">
        <ele>28.4962</ele>
        <time>2013-04-09T17:57:58Z</time>
      </trkpt>
      <trkpt lat="59.9075671" lon="17.6603614">
        <ele>28.4962</ele>
        <time>2013-04-09T17:57:59Z</time>
      </trkpt>
      <trkpt lat="59.9075439" lon="17.6602504">
        <ele>26.5736</ele>
        <time>2013-04-09T17:58:00Z</time>
      </trkpt>
      <trkpt lat="59.907521" lon="17.660133">
        <ele>26.0929</ele>
        <time>2013-04-09T17:58:01Z</time>
      </trkpt>
      <trkpt lat="59.9074999" lon="17.6600044">
        <ele>26.0929</ele>
        <time>2013-04-09T17:58:02Z</time>
      </trkpt>
      <trkpt lat="59.9074813" lon="17.6598756">
        <ele>26.0929</ele>
        <time>2013-04-09T17:58:03Z</time>
      </trkpt>
      <trkpt lat="59.9074656" lon="17.6597429">
        <ele>26.0929</ele>
        <time>2013-04-09T17:58:04Z</time>
      </trkpt>
      <trkpt lat="59.9074507" lon="17.6596113">
        <ele>26.0929</ele>
        <time>2013-04-09T17:58:05Z</time>
      </trkpt>
      <trkpt lat="59.9074365" lon="17.6594817">
        <ele>26.0929</ele>
        <time>2013-04-09T17:58:06Z</time>
      </trkpt>
      <trkpt lat="59.9074254" lon="17.6593507">
        <ele>26.0929</ele>
        <time>2013-04-09T17:58:07Z</time>
      </trkpt>
      <trkpt lat="59.907415" lon="17.6592195">
        <ele>26.0929</ele>
        <time>2013-04-09T17:58:08Z</time>
      </trkpt>
      <trkpt lat="59.9074021" lon="17.6590902">
        <ele>26.0929</ele>
        <time>2013-04-09T17:58:09Z</time>
      </trkpt>
      <trkpt lat="59.907389" lon="17.6589612">
        <ele>26.5736</ele>
        <time>2013-04-09T17:58:10Z</time>
      </trkpt>
      <trkpt lat="59.907374" lon="17.6588368">
        <ele>26.0929</ele>
        <time>2013-04-09T17:58:11Z</time>
      </trkpt>
      <trkpt lat="59.9073595" lon="17.6587084">
        <ele>26.5736</ele>
        <time>2013-04-09T17:58:12Z</time>
      </trkpt>
      <trkpt lat="59.9073445" lon="17.6585775">
        <ele>26.5736</ele>
        <time>2013-04-09T17:58:13Z</time>
      </trkpt>
      <trkpt lat="59.9073286" lon="17.6584482">
        <ele>26.0929</ele>
        <time>2013-04-09T17:58:14Z</time>
      </trkpt>
      <trkpt lat="59.9073118" lon="17.6583142">
        <ele>26.0929</ele>
        <time>2013-04-09T17:58:15Z</time>
      </trkpt>
      <trkpt lat="59.9072943" lon="17.6581765">
        <ele>26.0929</ele>
        <time>2013-04-09T17:58:16Z</time>
      </trkpt>
      <trkpt lat="59.907276" lon="17.6580401">
        <ele>26.0929</ele>
        <time>2013-04-09T17:58:17Z</time>
      </trkpt>
      <trkpt lat="59.9072564" lon="17.657904">
        <ele>25.6123</ele>
        <time>2013-04-09T17:58:18Z</time>
      </trkpt>
      <trkpt lat="59.9072357" lon="17.6577758">
        <ele>24.651</ele>
        <time>2013-04-09T17:58:19Z</time>
      </trkpt>
      <trkpt lat="59.9072145" lon="17.6576507">
        <ele>24.1703</ele>
        <time>2013-04-09T17:58:20Z</time>
      </trkpt>
      <trkpt lat="59.9071936" lon="17.6575263">
        <ele>23.6896</ele>
        <time>2013-04-09T17:58:21Z</time>
      </trkpt>
      <trkpt lat="59.9071726" lon="17.6574036">
        <ele>23.209</ele>
        <time>2013-04-09T17:58:22Z</time>
      </trkpt>
      <trkpt lat="59.9071524" lon="17.657277">
        <ele>23.209</ele>
        <time>2013-04-09T17:58:23Z</time>
      </trkpt>
      <trkpt lat="59.9071329" lon="17.6571502">
        <ele>23.209</ele>
        <time>2013-04-09T17:58:24Z</time>
      </trkpt>
      <trkpt lat="59.9071155" lon="17.6570217">
        <ele>23.209</ele>
        <time>2013-04-09T17:58:25Z</time>
      </trkpt>
      <trkpt lat="59.9071" lon="17.6568918">
        <ele>23.209</ele>
        <time>2013-04-09T17:58:26Z</time>
      </trkpt>
      <trkpt lat="59.9070868" lon="17.6567622">
        <ele>23.209</ele>
        <time>2013-04-09T17:58:27Z</time>
      </trkpt>
      <trkpt lat="59.9070755" lon="17.6566313">
        <ele>23.209</ele>
        <time>2013-04-09T17:58:28Z</time>
      </trkpt>
      <trkpt lat="59.9070658" lon="17.6564994">
        <ele>23.209</ele>
        <time>2013-04-09T17:58:29Z</time>
      </trkpt>
      <trkpt lat="59.9070586" lon="17.6563691">
        <ele>23.209</ele>
        <time>2013-04-09T17:58:30Z</time>
      </trkpt>
      <trkpt lat="59.9070529" lon="17.6562369">
        <ele>23.209</ele>
        <time>2013-04-09T17:58:31Z</time>
      </trkpt>
      <trkpt lat="59.9070487" lon="17.6561018">
        <ele>23.209</ele>
        <time>2013-04-09T17:58:32Z</time>
      </trkpt>
      <trkpt lat="59.9070455" lon="17.6559623">
        <ele>22.7283</ele>
        <time>2013-04-09T17:58:33Z</time>
      </trkpt>
      <trkpt lat="59.9070426" lon="17.655819">
        <ele>22.7283</ele>
        <time>2013-04-09T17:58:34Z</time>
      </trkpt>
      <trkpt lat="59.9070409" lon="17.6556724">
        <ele>22.7283</ele>
        <time>2013-04-09T17:58:35Z</time>
      </trkpt>
      <trkpt lat="59.9070398" lon="17.6555227">
        <ele>22.7283</ele>
        <time>2013-04-09T17:58:36Z</time>
      </trkpt>
      <trkpt lat="59.9070389" lon="17.6553717">
        <ele>22.7283</ele>
        <time>2013-04-09T17:58:37Z</time>
      </trkpt>
      <trkpt lat="59.9070392" lon="17.6552202">
        <ele>22.7283</ele>
        <time>2013-04-09T17:58:38Z</time>
      </trkpt>
      <trkpt lat="59.9070404" lon="17.655068">
        <ele>22.7283</ele>
        <time>2013-04-09T17:58:39Z</time>
      </trkpt>
      <trkpt lat="59.9070411" lon="17.6549156">
        <ele>22.7283</ele>
        <time>2013-04-09T17:58:40Z</time>
      </trkpt>
      <trkpt lat="59.9070419" lon="17.6547624">
        <ele>22.2476</ele>
        <time>2013-04-09T17:58:41Z</time>
      </trkpt>
      <trkpt lat="59.9070452" lon="17.6546109">
        <ele>22.2476</ele>
        <time>2013-04-09T17:58:42Z</time>
      </trkpt>
      <trkpt lat="59.9070502" lon="17.6544623">
        <ele>22.2476</ele>
        <time>2013-04-09T17:58:43Z</time>
      </trkpt>
      <trkpt lat="59.9070539" lon="17.6543158">
        <ele>22.7283</ele>
        <time>2013-04-09T17:58:44Z</time>
      </trkpt>
      <trkpt lat="59.9070566" lon="17.6541708">
        <ele>22.7283</ele>
        <time>2013-04-09T17:58:45Z</time>
      </trkpt>
      <trkpt lat="59.9070602" lon="17.6540285">
        <ele>22.7283</ele>
        <time>2013-04-09T17:58:46Z</time>
      </trkpt>
      <trkpt lat="59.9070654" lon="17.6538889">
        <ele>23.209</ele>
        <time>2013-04-09T17:58:47Z</time>
      </trkpt>
      <trkpt lat="59.9070715" lon="17.6537516">
        <ele>23.209</ele>
        <time>2013-04-09T17:58:48Z</time>
      </trkpt>
      <trkpt lat="59.9070771" lon="17.6536162">
        <ele>23.209</ele>
        <time>2013-04-09T17:58:49Z</time>
      </trkpt>
      <trkpt lat="59.9070823" lon="17.6534828">
        <ele>23.209</ele>
        <time>2013-04-09T17:58:50Z</time>
      </trkpt>
      <trkpt lat="59.9070874" lon="17.6533516">
        <ele>23.209</ele>
        <time>2013-04-09T17:58:51Z</time>
      </trkpt>
      <trkpt lat="59.9070913" lon="17.6532216">
        <ele>23.6896</ele>
        <time>2013-04-09T17:58:52Z</time>
      </trkpt>
      <trkpt lat="59.9070942" lon="17.6530913">
        <ele>23.6896</ele>
        <time>2013-04-09T17:58:53Z</time>
      </trkpt>
      <trkpt lat="59.9070959" lon="17.6529616">
        <ele>23.6896</ele>
        <time>2013-04-09T17:58:54Z</time>
      </trkpt>
      <trkpt lat="59.9070979" lon="17.6528327">
        <ele>23.6896</ele>
        <time>2013-04-09T17:58:55Z</time>
      </trkpt>
      <trkpt lat="59.9070991" lon="17.6527038">
        <ele>23.6896</ele>
        <time>2013-04-09T17:58:56Z</time>
      </trkpt>
      <trkpt lat="59.9070983" lon="17.6525746">
        <ele>23.6896</ele>
        <time>2013-04-09T17:58:57Z</time>
      </trkpt>
      <trkpt lat="59.9070959" lon="17.6524447">
        <ele>24.1703</ele>
        <time>2013-04-09T17:58:58Z</time>
      </trkpt>
      <trkpt lat="59.9070912" lon="17.6523155">
        <ele>24.1703</ele>
        <time>2013-04-09T17:58:59Z</time>
      </trkpt>
      <trkpt lat="59.9070839" lon="17.6521867">
        <ele>23.6896</ele>
        <time>2013-04-09T17:59:00Z</time>
      </trkpt>
      <trkpt lat="59.9070741" lon="17.6520578">
        <ele>23.6896</ele>
        <time>2013-04-09T17:59:01Z</time>
      </trkpt>
      <trkpt lat="59.9070607" lon="17.6519293">
        <ele>23.6896</ele>
        <time>2013-04-09T17:59:02Z</time>
      </trkpt>
      <trkpt lat="59.9070438" lon="17.6518008">
        <ele>23.6896</ele>
        <time>2013-04-09T17:59:03Z</time>
      </trkpt>
      <trkpt lat="59.907024" lon="17.651675">
        <ele>23.209</ele>
        <time>2013-04-09T17:59:04Z</time>
      </trkpt>
      <trkpt lat="59.9070026" lon="17.6515495">
        <ele>23.209</ele>
        <time>2013-04-09T17:59:05Z</time>
      </trkpt>
      <trkpt lat="59.9069793" lon="17.6514257">
        <ele>23.209</ele>
        <time>2013-04-09T17:59:06Z</time>
      </trkpt>
      <trkpt lat="59.9069544" lon="17.6513029">
        <ele>23.6896</ele>
        <time>2013-04-09T17:59:07Z</time>
      </trkpt>
      <trkpt lat="59.9069278" lon="17.6511831">
        <ele>24.1703</ele>
        <time>2013-04-09T17:59:08Z</time>
      </trkpt>
      <trkpt lat="59.9069007" lon="17.6510638">
        <ele>24.1703</ele>
        <time>2013-04-09T17:59:09Z</time>
      </trkpt>
      <trkpt lat="59.906874" lon="17.6509443">
        <ele>24.1703</ele>
        <time>2013-04-09T17:59:10Z</time>
      </trkpt>
      <trkpt lat="59.9068472" lon="17.6508243">
        <ele>24.651</ele>
        <time>2013-04-09T17:59:11Z</time>
      </trkpt>
      <trkpt lat="59.9068203" lon="17.650705">
        <ele>24.651</ele>
        <time>2013-04-09T17:59:12Z</time>
      </trkpt>
      <trkpt lat="59.9067932" lon="17.650587">
        <ele>24.651</ele>
        <time>2013-04-09T17:59:13Z</time>
      </trkpt>
      <trkpt lat="59.9067653" lon="17.6504696">
        <ele>24.651</ele>
        <time>2013-04-09T17:59:14Z</time>
      </trkpt>
      <trkpt lat="59.9067372" lon="17.6503519">
        <ele>25.1317</ele>
        <time>2013-04-09T17:59:15Z</time>
      </trkpt>
      <trkpt lat="59.9067098" lon="17.6502327">
        <ele>25.1317</ele>
        <time>2013-04-09T17:59:16Z</time>
      </trkpt>
      <trkpt lat="59.9066824" lon="17.6501136">
        <ele>25.1317</ele>
        <time>2013-04-09T17:59:17Z</time>
      </trkpt>
      <trkpt lat="59.9066544" lon="17.6499955">
        <ele>25.1317</ele>
        <time>2013-04-09T17:59:18Z</time>
      </trkpt>
      <trkpt lat="59.9066266" lon="17.6498778">
        <ele>25.1317</ele>
        <time>2013-04-09T17:59:19Z</time>
      </trkpt>
      <trkpt lat="59.9065986" lon="17.6497579">
        <ele>25.1317</ele>
        <time>2013-04-09T17:59:20Z</time>
      </trkpt>
      <trkpt lat="59.9065696" lon="17.6496359">
        <ele>25.1317</ele>
        <time>2013-04-09T17:59:21Z</time>
      </trkpt>
      <trkpt lat="59.9065391" lon="17.6495125">
        <ele>25.1317</ele>
        <time>2013-04-09T17:59:22Z</time>
      </trkpt>
      <trkpt lat="59.9065078" lon="17.6493877">
        <ele>25.1317</ele>
        <time>2013-04-09T17:59:23Z</time>
      </trkpt>
      <trkpt lat="59.9064754" lon="17.649262">
        <ele>25.1317</ele>
        <time>2013-04-09T17:59:24Z</time>
      </trkpt>
      <trkpt lat="59.9064402" lon="17.649138">
        <ele>25.1317</ele>
        <time>2013-04-09T17:59:25Z</time>
      </trkpt>
      <trkpt lat="59.9064013" lon="17.6490181">
        <ele>25.1317</ele>
        <time>2013-04-09T17:59:26Z</time>
      </trkpt>
      <trkpt lat="59.9063606" lon="17.6489004">
        <ele>25.1317</ele>
        <time>2013-04-09T17:59:27Z</time>
      </trkpt>
      <trkpt lat="59.9063187" lon="17.6487845">
        <ele>25.1317</ele>
        <time>2013-04-09T17:59:28Z</time>
      </trkpt>
      <trkpt lat="59.9062754" lon="17.6486716">
        <ele>25.1317</ele>
        <time>2013-04-09T17:59:29Z</time>
      </trkpt>
      <trkpt lat="59.9062326" lon="17.64856">
        <ele>25.1317</ele>
        <time>2013-04-09T17:59:30Z</time>
      </trkpt>
      <trkpt lat="59.9061914" lon="17.6484481">
        <ele>25.1317</ele>
        <time>2013-04-09T17:59:31Z</time>
      </trkpt>
      <trkpt lat="59.906152" lon="17.6483351">
        <ele>25.1317</ele>
        <time>2013-04-09T17:59:32Z</time>
      </trkpt>
      <trkpt lat="59.9061151" lon="17.6482209">
        <ele>25.1317</ele>
        <time>2013-04-09T17:59:33Z</time>
      </trkpt>
      <trkpt lat="59.9060814" lon="17.6481061">
        <ele>25.1317</ele>
        <time>2013-04-09T17:59:34Z</time>
      </trkpt>
      <trkpt lat="59.9060516" lon="17.6479902">
        <ele>25.1317</ele>
        <time>2013-04-09T17:59:35Z</time>
      </trkpt>
      <trkpt lat="59.9060265" lon="17.6478726">
        <ele>25.1317</ele>
        <time>2013-04-09T17:59:36Z</time>
      </trkpt>
      <trkpt lat="59.9060054" lon="17.6477531">
        <ele>25.6123</ele>
        <time>2013-04-09T17:59:37Z</time>
      </trkpt>
      <trkpt lat="59.9059882" lon="17.6476311">
        <ele>25.6123</ele>
        <time>2013-04-09T17:59:38Z</time>
      </trkpt>
      <trkpt lat="59.9059743" lon="17.647506">
        <ele>25.6123</ele>
        <time>2013-04-09T17:59:39Z</time>
      </trkpt>
      <trkpt lat="59.9059652" lon="17.6473794">
        <ele>25.6123</ele>
        <time>2013-04-09T17:59:40Z</time>
      </trkpt>
      <trkpt lat="59.905961" lon="17.6472521">
        <ele>25.6123</ele>
        <time>2013-04-09T17:59:41Z</time>
      </trkpt>
      <trkpt lat="59.9059608" lon="17.6471252">
        <ele>25.6123</ele>
        <time>2013-04-09T17:59:42Z</time>
      </trkpt>
      <trkpt lat="59.9059641" lon="17.6469992">
        <ele>26.0929</ele>
        <time>2013-04-09T17:59:43Z</time>
      </trkpt>
      <trkpt lat="59.9059708" lon="17.6468735">
        <ele>26.0929</ele>
        <time>2013-04-09T17:59:44Z</time>
      </trkpt>
      <trkpt lat="59.9059806" lon="17.6467492">
        <ele>26.0929</ele>
        <time>2013-04-09T17:59:45Z</time>
      </trkpt>
      <trkpt lat="59.9059916" lon="17.6466309">
        <ele>26.0929</ele>
        <time>2013-04-09T17:59:46Z</time>
      </trkpt>
      <trkpt lat="59.9060039" lon="17.6465119">
        <ele>26.0929</ele>
        <time>2013-04-09T17:59:47Z</time>
      </trkpt>
      <trkpt lat="59.9060178" lon="17.6463877">
        <ele>25.6123</ele>
        <time>2013-04-09T17:59:48Z</time>
      </trkpt>
      <trkpt lat="59.9060346" lon="17.6462638">
        <ele>25.6123</ele>
        <time>2013-04-09T17:59:49Z</time>
      </trkpt>
      <trkpt lat="59.9060541" lon="17.6461408">
        <ele>26.0929</ele>
        <time>2013-04-09T17:59:50Z</time>
      </trkpt>
      <trkpt lat="59.9060739" lon="17.6460206">
        <ele>26.0929</ele>
        <time>2013-04-09T17:59:51Z</time>
      </trkpt>
      <trkpt lat="59.9060934" lon="17.6459022">
        <ele>26.0929</ele>
        <time>2013-04-09T17:59:52Z</time>
      </trkpt>
      <trkpt lat="59.9061128" lon="17.6457861">
        <ele>25.6123</ele>
        <time>2013-04-09T17:59:53Z</time>
      </trkpt>
      <trkpt lat="59.9061308" lon="17.6456716">
        <ele>25.6123</ele>
        <time>2013-04-09T17:59:54Z</time>
      </trkpt>
      <trkpt lat="59.9061461" lon="17.6455562">
        <ele>25.6123</ele>
        <time>2013-04-09T17:59:55Z</time>
      </trkpt>
      <trkpt lat="59.9061594" lon="17.6454386">
        <ele>25.1317</ele>
        <time>2013-04-09T17:59:56Z</time>
      </trkpt>
      <trkpt lat="59.9061708" lon="17.6453163">
        <ele>25.1317</ele>
        <time>2013-04-09T17:59:57Z</time>
      </trkpt>
      <trkpt lat="59.9061795" lon="17.6451883">
        <ele>24.651</ele>
        <time>2013-04-09T17:59:58Z</time>
      </trkpt>
      <trkpt lat="59.9061834" lon="17.6450531">
        <ele>24.651</ele>
        <time>2013-04-09T17:59:59Z</time>
      </trkpt>
      <trkpt lat="59.906182" lon="17.6449144">
        <ele>24.651</ele>
        <time>2013-04-09T18:00:00Z</time>
      </trkpt>
      <trkpt lat="59.9061738" lon="17.6447749">
        <ele>24.1703</ele>
        <time>2013-04-09T18:00:01Z</time>
      </trkpt>
      <trkpt lat="59.9061584" lon="17.6446377">
        <ele>24.1703</ele>
        <time>2013-04-09T18:00:02Z</time>
      </trkpt>
      <trkpt lat="59.906137" lon="17.6445072">
        <ele>23.209</ele>
        <time>2013-04-09T18:00:03Z</time>
      </trkpt>
      <trkpt lat="59.9061079" lon="17.6443822">
        <ele>22.7283</ele>
        <time>2013-04-09T18:00:04Z</time>
      </trkpt>
      <trkpt lat="59.9060745" lon="17.6442637">
        <ele>21.767</ele>
        <time>2013-04-09T18:00:05Z</time>
      </trkpt>
      <trkpt lat="59.906039" lon="17.6441498">
        <ele>21.2864</ele>
        <time>2013-04-09T18:00:06Z</time>
      </trkpt>
      <trkpt lat="59.9060012" lon="17.6440408">
        <ele>19.8444</ele>
        <time>2013-04-09T18:00:07Z</time>
      </trkpt>
      <trkpt lat="59.9059655" lon="17.6439317">
        <ele>19.3638</ele>
        <time>2013-04-09T18:00:08Z</time>
      </trkpt>
      <trkpt lat="59.9059291" lon="17.6438279">
        <ele>18.8831</ele>
        <time>2013-04-09T18:00:09Z</time>
      </trkpt>
      <trkpt lat="59.9058952" lon="17.6437301">
        <ele>17.9218</ele>
        <time>2013-04-09T18:00:10Z</time>
      </trkpt>
      <trkpt lat="59.905868" lon="17.6436349">
        <ele>17.9218</ele>
        <time>2013-04-09T18:00:11Z</time>
      </trkpt>
      <trkpt lat="59.905849" lon="17.6435477">
        <ele>17.4412</ele>
        <time>2013-04-09T18:00:12Z</time>
      </trkpt>
      <trkpt lat="59.9058407" lon="17.6434768">
        <ele>17.4412</ele>
        <time>2013-04-09T18:00:13Z</time>
      </trkpt>
      <trkpt lat="59.90584" lon="17.6434277">
        <ele>17.4412</ele>
        <time>2013-04-09T18:00:14Z</time>
      </trkpt>
      <trkpt lat="59.9058406" lon="17.6433926">
        <ele>16.9604</ele>
        <time>2013-04-09T18:00:15Z</time>
      </trkpt>
      <trkpt lat="59.9058415" lon="17.643366">
        <ele>16.9604</ele>
        <time>2013-04-09T18:00:16Z</time>
      </trkpt>
      <trkpt lat="59.9058426" lon="17.643341">
        <ele>16.9604</ele>
        <time>2013-04-09T18:00:17Z</time>
      </trkpt>
      <trkpt lat="59.9058449" lon="17.6433109">
        <ele>16.4797</ele>
        <time>2013-04-09T18:00:18Z</time>
      </trkpt>
      <trkpt lat="59.9058542" lon="17.6432786">
        <ele>16.4797</ele>
        <time>2013-04-09T18:00:19Z</time>
      </trkpt>
      <trkpt lat="59.9058744" lon="17.6432541">
        <ele>16.9604</ele>
        <time>2013-04-09T18:00:20Z</time>
      </trkpt>
      <trkpt lat="59.9059038" lon="17.6432474">
        <ele>16.9604</ele>
        <time>2013-04-09T18:00:21Z</time>
      </trkpt>
      <trkpt lat="59.9059389" lon="17.6432608">
        <ele>17.4412</ele>
        <time>2013-04-09T18:00:22Z</time>
      </trkpt>
      <trkpt lat="59.9059745" lon="17.6432868">
        <ele>16.9604</ele>
        <time>2013-04-09T18:00:23Z</time>
      </trkpt>
      <trkpt lat="59.9060133" lon="17.6433106">
        <ele>17.4412</ele>
        <time>2013-04-09T18:00:24Z</time>
      </trkpt>
      <trkpt lat="59.9060576" lon="17.643335">
        <ele>16.4797</ele>
        <time>2013-04-09T18:00:25Z</time>
      </trkpt>
      <trkpt lat="59.9061034" lon="17.6433551">
        <ele>16.4797</ele>
        <time>2013-04-09T18:00:26Z</time>
      </trkpt>
      <trkpt lat="59.9061535" lon="17.6433781">
        <ele>16.4797</ele>
        <time>2013-04-09T18:00:27Z</time>
      </trkpt>
      <trkpt lat="59.9062048" lon="17.6434033">
        <ele>16.4797</ele>
        <time>2013-04-09T18:00:28Z</time>
      </trkpt>
      <trkpt lat="59.9062577" lon="17.6434308">
        <ele>16.4797</ele>
        <time>2013-04-09T18:00:29Z</time>
      </trkpt>
      <trkpt lat="59.9063114" lon="17.6434556">
        <ele>16.9604</ele>
        <time>2013-04-09T18:00:30Z</time>
      </trkpt>
      <trkpt lat="59.9063666" lon="17.6434793">
        <ele>16.9604</ele>
        <time>2013-04-09T18:00:31Z</time>
      </trkpt>
      <trkpt lat="59.9064234" lon="17.6435008">
        <ele>17.4412</ele>
        <time>2013-04-09T18:00:32Z</time>
      </trkpt>
      <trkpt lat="59.9064818" lon="17.6435233">
        <ele>17.4412</ele>
        <time>2013-04-09T18:00:33Z</time>
      </trkpt>
      <trkpt lat="59.9065416" lon="17.6435474">
        <ele>17.9218</ele>
        <time>2013-04-09T18:00:34Z</time>
      </trkpt>
      <trkpt lat="59.9066027" lon="17.6435704">
        <ele>17.9218</ele>
        <time>2013-04-09T18:00:35Z</time>
      </trkpt>
      <trkpt lat="59.906665" lon="17.6435904">
        <ele>18.4023</ele>
        <time>2013-04-09T18:00:36Z</time>
      </trkpt>
      <trkpt lat="59.906728" lon="17.6436105">
        <ele>18.4023</ele>
        <time>2013-04-09T18:00:37Z</time>
      </trkpt>
      <trkpt lat="59.9067913" lon="17.6436314">
        <ele>18.8831</ele>
        <time>2013-04-09T18:00:38Z</time>
      </trkpt>
      <trkpt lat="59.9068553" lon="17.6436507">
        <ele>18.8831</ele>
        <time>2013-04-09T18:00:39Z</time>
      </trkpt>
      <trkpt lat="59.9069192" lon="17.643668">
        <ele>19.3638</ele>
        <time>2013-04-09T18:00:40Z</time>
      </trkpt>
      <trkpt lat="59.9069828" lon="17.6436849">
        <ele>19.3638</ele>
        <time>2013-04-09T18:00:41Z</time>
      </trkpt>
      <trkpt lat="59.9070465" lon="17.6437023">
        <ele>19.8444</ele>
        <time>2013-04-09T18:00:42Z</time>
      </trkpt>
      <trkpt lat="59.9071107" lon="17.6437197">
        <ele>19.8444</ele>
        <time>2013-04-09T18:00:43Z</time>
      </trkpt>
      <trkpt lat="59.9071751" lon="17.643735">
        <ele>20.325</ele>
        <time>2013-04-09T18:00:44Z</time>
      </trkpt>
      <trkpt lat="59.9072395" lon="17.6437502">
        <ele>20.325</ele>
        <time>2013-04-09T18:00:45Z</time>
      </trkpt>
      <trkpt lat="59.9073031" lon="17.643766">
        <ele>20.8057</ele>
        <time>2013-04-09T18:00:46Z</time>
      </trkpt>
      <trkpt lat="59.9073662" lon="17.6437804">
        <ele>20.8057</ele>
        <time>2013-04-09T18:00:47Z</time>
      </trkpt>
      <trkpt lat="59.9074289" lon="17.6437918">
        <ele>21.2864</ele>
        <time>2013-04-09T18:00:48Z</time>
      </trkpt>
      <trkpt lat="59.9074916" lon="17.6438036">
        <ele>21.2864</ele>
        <time>2013-04-09T18:00:49Z</time>
      </trkpt>
      <trkpt lat="59.9075538" lon="17.6438172">
        <ele>21.767</ele>
        <time>2013-04-09T18:00:50Z</time>
      </trkpt>
      <trkpt lat="59.9076159" lon="17.6438294">
        <ele>21.767</ele>
        <time>2013-04-09T18:00:51Z</time>
      </trkpt>
      <trkpt lat="59.9076777" lon="17.6438411">
        <ele>22.2476</ele>
        <time>2013-04-09T18:00:52Z</time>
      </trkpt>
      <trkpt lat="59.9077388" lon="17.6438484">
        <ele>22.2476</ele>
        <time>2013-04-09T18:00:53Z</time>
      </trkpt>
      <trkpt lat="59.9077999" lon="17.6438467">
        <ele>22.2476</ele>
        <time>2013-04-09T18:00:54Z</time>
      </trkpt>
      <trkpt lat="59.9078615" lon="17.6438374">
        <ele>22.7283</ele>
        <time>2013-04-09T18:00:55Z</time>
      </trkpt>
      <trkpt lat="59.9079236" lon="17.6438266">
        <ele>22.7283</ele>
        <time>2013-04-09T18:00:56Z</time>
      </trkpt>
      <trkpt lat="59.9079861" lon="17.6438178">
        <ele>23.209</ele>
        <time>2013-04-09T18:00:57Z</time>
      </trkpt>
      <trkpt lat="59.9080484" lon="17.6438109">
        <ele>23.209</ele>
        <time>2013-04-09T18:00:58Z</time>
      </trkpt>
      <trkpt lat="59.908111" lon="17.6438063">
        <ele>23.209</ele>
        <time>2013-04-09T18:00:59Z</time>
      </trkpt>
      <trkpt lat="59.9081732" lon="17.6438009">
        <ele>23.6896</ele>
        <time>2013-04-09T18:01:00Z</time>
      </trkpt>
      <trkpt lat="59.908235" lon="17.6437893">
        <ele>23.6896</ele>
        <time>2013-04-09T18:01:01Z</time>
      </trkpt>
      <trkpt lat="59.908295" lon="17.6437606">
        <ele>23.6896</ele>
        <time>2013-04-09T18:01:02Z</time>
      </trkpt>
      <trkpt lat="59.9083537" lon="17.6437203">
        <ele>23.6896</ele>
        <time>2013-04-09T18:01:03Z</time>
      </trkpt>
      <trkpt lat="59.9084148" lon="17.6436906">
        <ele>23.6896</ele>
        <time>2013-04-09T18:01:04Z</time>
      </trkpt>
      <trkpt lat="59.9084796" lon="17.6436798">
        <ele>23.209</ele>
        <time>2013-04-09T18:01:05Z</time>
      </trkpt>
      <trkpt lat="59.9085463" lon="17.6436803">
        <ele>23.209</ele>
        <time>2013-04-09T18:01:06Z</time>
      </trkpt>
      <trkpt lat="59.908615" lon="17.643681">
        <ele>23.209</ele>
        <time>2013-04-09T18:01:07Z</time>
      </trkpt>
      <trkpt lat="59.9086844" lon="17.6436788">
        <ele>23.209</ele>
        <time>2013-04-09T18:01:08Z</time>
      </trkpt>
      <trkpt lat="59.9087545" lon="17.6436759">
        <ele>23.209</ele>
        <time>2013-04-09T18:01:09Z</time>
      </trkpt>
      <trkpt lat="59.9088255" lon="17.6436712">
        <ele>23.209</ele>
        <time>2013-04-09T18:01:10Z</time>
      </trkpt>
      <trkpt lat="59.9088973" lon="17.6436653">
        <ele>23.209</ele>
        <time>2013-04-09T18:01:11Z</time>
      </trkpt>
      <trkpt lat="59.9089694" lon="17.6436588">
        <ele>23.209</ele>
        <time>2013-04-09T18:01:12Z</time>
      </trkpt>
      <trkpt lat="59.909041" lon="17.6436513">
        <ele>23.209</ele>
        <time>2013-04-09T18:01:13Z</time>
      </trkpt>
      <trkpt lat="59.9091125" lon="17.6436435">
        <ele>23.209</ele>
        <time>2013-04-09T18:01:14Z</time>
      </trkpt>
      <trkpt lat="59.9091843" lon="17.6436355">
        <ele>23.209</ele>
        <time>2013-04-09T18:01:15Z</time>
      </trkpt>
      <trkpt lat="59.9092565" lon="17.6436253">
        <ele>23.209</ele>
        <time>2013-04-09T18:01:16Z</time>
      </trkpt>
      <trkpt lat="59.90933" lon="17.6436145">
        <ele>23.209</ele>
        <time>2013-04-09T18:01:17Z</time>
      </trkpt>
      <trkpt lat="59.9094041" lon="17.6436034">
        <ele>23.209</ele>
        <time>2013-04-09T18:01:18Z</time>
      </trkpt>
      <trkpt lat="59.9094788" lon="17.6435884">
        <ele>23.209</ele>
        <time>2013-04-09T18:01:19Z</time>
      </trkpt>
      <trkpt lat="59.9095536" lon="17.6435706">
        <ele>23.209</ele>
        <time>2013-04-09T18:01:20Z</time>
      </trkpt>
      <trkpt lat="59.9096274" lon="17.6435528">
        <ele>23.209</ele>
        <time>2013-04-09T18:01:21Z</time>
      </trkpt>
      <trkpt lat="59.9096999" lon="17.6435359">
        <ele>23.209</ele>
        <time>2013-04-09T18:01:22Z</time>
      </trkpt>
      <trkpt lat="59.9097714" lon="17.6435218">
        <ele>23.209</ele>
        <time>2013-04-09T18:01:23Z</time>
      </trkpt>
      <trkpt lat="59.9098419" lon="17.6435178">
        <ele>23.6896</ele>
        <time>2013-04-09T18:01:24Z</time>
      </trkpt>
      <trkpt lat="59.9099112" lon="17.6435288">
        <ele>23.6896</ele>
        <time>2013-04-09T18:01:25Z</time>
      </trkpt>
      <trkpt lat="59.9099791" lon="17.6435523">
        <ele>23.6896</ele>
        <time>2013-04-09T18:01:26Z</time>
      </trkpt>
      <trkpt lat="59.9100444" lon="17.6435792">
        <ele>24.1703</ele>
        <time>2013-04-09T18:01:27Z</time>
      </trkpt>
      <trkpt lat="59.9101049" lon="17.6435976">
        <ele>24.651</ele>
        <time>2013-04-09T18:01:28Z</time>
      </trkpt>
      <trkpt lat="59.9101616" lon="17.6436047">
        <ele>24.651</ele>
        <time>2013-04-09T18:01:29Z</time>
      </trkpt>
      <trkpt lat="59.9102173" lon="17.6436027">
        <ele>25.1317</ele>
        <time>2013-04-09T18:01:30Z</time>
      </trkpt>
      <trkpt lat="59.9102731" lon="17.6435955">
        <ele>25.1317</ele>
        <time>2013-04-09T18:01:31Z</time>
      </trkpt>
      <trkpt lat="59.9103297" lon="17.6435872">
        <ele>25.1317</ele>
        <time>2013-04-09T18:01:32Z</time>
      </trkpt>
      <trkpt lat="59.9103866" lon="17.6435753">
        <ele>25.1317</ele>
        <time>2013-04-09T18:01:33Z</time>
      </trkpt>
      <trkpt lat="59.9104435" lon="17.643558">
        <ele>25.1317</ele>
        <time>2013-04-09T18:01:34Z</time>
      </trkpt>
      <trkpt lat="59.9105011" lon="17.6435323">
        <ele>25.1317</ele>
        <time>2013-04-09T18:01:35Z</time>
      </trkpt>
      <trkpt lat="59.9105602" lon="17.643501">
        <ele>25.1317</ele>
        <time>2013-04-09T18:01:36Z</time>
      </trkpt>
      <trkpt lat="59.9106215" lon="17.6434707">
        <ele>25.1317</ele>
        <time>2013-04-09T18:01:37Z</time>
      </trkpt>
      <trkpt lat="59.9106851" lon="17.6434472">
        <ele>25.1317</ele>
        <time>2013-04-09T18:01:38Z</time>
      </trkpt>
      <trkpt lat="59.9107493" lon="17.6434319">
        <ele>25.1317</ele>
        <time>2013-04-09T18:01:39Z</time>
      </trkpt>
      <trkpt lat="59.9108136" lon="17.6434212">
        <ele>25.1317</ele>
        <time>2013-04-09T18:01:40Z</time>
      </trkpt>
      <trkpt lat="59.9108773" lon="17.6434104">
        <ele>25.1317</ele>
        <time>2013-04-09T18:01:41Z</time>
      </trkpt>
      <trkpt lat="59.91094" lon="17.6433986">
        <ele>25.1317</ele>
        <time>2013-04-09T18:01:42Z</time>
      </trkpt>
      <trkpt lat="59.9110023" lon="17.6433869">
        <ele>25.1317</ele>
        <time>2013-04-09T18:01:43Z</time>
      </trkpt>
      <trkpt lat="59.9110641" lon="17.6433752">
        <ele>25.1317</ele>
        <time>2013-04-09T18:01:44Z</time>
      </trkpt>
      <trkpt lat="59.911126" lon="17.643362">
        <ele>25.1317</ele>
        <time>2013-04-09T18:01:45Z</time>
      </trkpt>
      <trkpt lat="59.9111888" lon="17.6433493">
        <ele>25.1317</ele>
        <time>2013-04-09T18:01:46Z</time>
      </trkpt>
      <trkpt lat="59.9112524" lon="17.6433363">
        <ele>25.6123</ele>
        <time>2013-04-09T18:01:47Z</time>
      </trkpt>
      <trkpt lat="59.9113156" lon="17.64332">
        <ele>25.6123</ele>
        <time>2013-04-09T18:01:48Z</time>
      </trkpt>
      <trkpt lat="59.911378" lon="17.6433009">
        <ele>25.6123</ele>
        <time>2013-04-09T18:01:49Z</time>
      </trkpt>
      <trkpt lat="59.9114405" lon="17.6432845">
        <ele>25.6123</ele>
        <time>2013-04-09T18:01:50Z</time>
      </trkpt>
      <trkpt lat="59.9115041" lon="17.6432722">
        <ele>25.6123</ele>
        <time>2013-04-09T18:01:51Z</time>
      </trkpt>
      <trkpt lat="59.911569" lon="17.6432601">
        <ele>25.1317</ele>
        <time>2013-04-09T18:01:52Z</time>
      </trkpt>
      <trkpt lat="59.9116352" lon="17.6432474">
        <ele>25.1317</ele>
        <time>2013-04-09T18:01:53Z</time>
      </trkpt>
      <trkpt lat="59.9117016" lon="17.6432356">
        <ele>25.1317</ele>
        <time>2013-04-09T18:01:54Z</time>
      </trkpt>
      <trkpt lat="59.9117677" lon="17.6432252">
        <ele>25.1317</ele>
        <time>2013-04-09T18:01:55Z</time>
      </trkpt>
      <trkpt lat="59.9118324" lon="17.6432128">
        <ele>25.1317</ele>
        <time>2013-04-09T18:01:56Z</time>
      </trkpt>
      <trkpt lat="59.911895" lon="17.6431981">
        <ele>25.1317</ele>
        <time>2013-04-09T18:01:57Z</time>
      </trkpt>
      <trkpt lat="59.9119564" lon="17.6431806">
        <ele>25.1317</ele>
        <time>2013-04-09T18:01:58Z</time>
      </trkpt>
      <trkpt lat="59.9120176" lon="17.6431603">
        <ele>24.651</ele>
        <time>2013-04-09T18:01:59Z</time>
      </trkpt>
      <trkpt lat="59.9120808" lon="17.6431398">
        <ele>24.651</ele>
        <time>2013-04-09T18:02:00Z</time>
      </trkpt>
      <trkpt lat="59.9121463" lon="17.6431189">
        <ele>24.1703</ele>
        <time>2013-04-09T18:02:01Z</time>
      </trkpt>
      <trkpt lat="59.9122146" lon="17.6430971">
        <ele>24.1703</ele>
        <time>2013-04-09T18:02:02Z</time>
      </trkpt>
      <trkpt lat="59.9122849" lon="17.6430764">
        <ele>24.1703</ele>
        <time>2013-04-09T18:02:03Z</time>
      </trkpt>
      <trkpt lat="59.9123564" lon="17.6430583">
        <ele>23.6896</ele>
        <time>2013-04-09T18:02:04Z</time>
      </trkpt>
      <trkpt lat="59.9124287" lon="17.6430443">
        <ele>23.6896</ele>
        <time>2013-04-09T18:02:05Z</time>
      </trkpt>
      <trkpt lat="59.9125013" lon="17.643036">
        <ele>23.6896</ele>
        <time>2013-04-09T18:02:06Z</time>
      </trkpt>
      <trkpt lat="59.9125743" lon="17.6430392">
        <ele>23.6896</ele>
        <time>2013-04-09T18:02:07Z</time>
      </trkpt>
      <trkpt lat="59.9126456" lon="17.6430602">
        <ele>24.1703</ele>
        <time>2013-04-09T18:02:08Z</time>
      </trkpt>
      <trkpt lat="59.9127119" lon="17.6430902">
        <ele>24.651</ele>
        <time>2013-04-09T18:02:09Z</time>
      </trkpt>
      <trkpt lat="59.912773" lon="17.6431101">
        <ele>24.651</ele>
        <time>2013-04-09T18:02:10Z</time>
      </trkpt>
      <trkpt lat="59.9128318" lon="17.6431157">
        <ele>25.1317</ele>
        <time>2013-04-09T18:02:11Z</time>
      </trkpt>
      <trkpt lat="59.9128908" lon="17.6431133">
        <ele>25.1317</ele>
        <time>2013-04-09T18:02:12Z</time>
      </trkpt>
      <trkpt lat="59.9129515" lon="17.6431064">
        <ele>25.6123</ele>
        <time>2013-04-09T18:02:13Z</time>
      </trkpt>
      <trkpt lat="59.9130135" lon="17.6430973">
        <ele>25.6123</ele>
        <time>2013-04-09T18:02:14Z</time>
      </trkpt>
      <trkpt lat="59.9130774" lon="17.6430894">
        <ele>25.6123</ele>
        <time>2013-04-09T18:02:15Z</time>
      </trkpt>
      <trkpt lat="59.9131436" lon="17.6430792">
        <ele>25.6123</ele>
        <time>2013-04-09T18:02:16Z</time>
      </trkpt>
      <trkpt lat="59.9132111" lon="17.6430661">
        <ele>25.6123</ele>
        <time>2013-04-09T18:02:17Z</time>
      </trkpt>
      <trkpt lat="59.9132788" lon="17.6430501">
        <ele>25.6123</ele>
        <time>2013-04-09T18:02:18Z</time>
      </trkpt>
      <trkpt lat="59.9133467" lon="17.6430315">
        <ele>25.6123</ele>
        <time>2013-04-09T18:02:19Z</time>
      </trkpt>
      <trkpt lat="59.9134149" lon="17.6430123">
        <ele>25.6123</ele>
        <time>2013-04-09T18:02:20Z</time>
      </trkpt>
      <trkpt lat="59.9134835" lon="17.6429937">
        <ele>25.6123</ele>
        <time>2013-04-09T18:02:21Z</time>
      </trkpt>
      <trkpt lat="59.9135523" lon="17.6429755">
        <ele>25.1317</ele>
        <time>2013-04-09T18:02:22Z</time>
      </trkpt>
      <trkpt lat="59.9136218" lon="17.6429598">
        <ele>25.1317</ele>
        <time>2013-04-09T18:02:23Z</time>
      </trkpt>
      <trkpt lat="59.9136927" lon="17.642947">
        <ele>25.1317</ele>
        <time>2013-04-09T18:02:24Z</time>
      </trkpt>
      <trkpt lat="59.9137645" lon="17.6429326">
        <ele>24.651</ele>
        <time>2013-04-09T18:02:25Z</time>
      </trkpt>
      <trkpt lat="59.9138363" lon="17.6429162">
        <ele>24.651</ele>
        <time>2013-04-09T18:02:26Z</time>
      </trkpt>
      <trkpt lat="59.9139091" lon="17.6429003">
        <ele>24.651</ele>
        <time>2013-04-09T18:02:27Z</time>
      </trkpt>
      <trkpt lat="59.9139818" lon="17.6428837">
        <ele>24.1703</ele>
        <time>2013-04-09T18:02:28Z</time>
      </trkpt>
      <trkpt lat="59.9140538" lon="17.6428659">
        <ele>24.1703</ele>
        <time>2013-04-09T18:02:29Z</time>
      </trkpt>
      <trkpt lat="59.9141253" lon="17.6428496">
        <ele>23.6896</ele>
        <time>2013-04-09T18:02:30Z</time>
      </trkpt>
      <trkpt lat="59.9141962" lon="17.6428352">
        <ele>23.6896</ele>
        <time>2013-04-09T18:02:31Z</time>
      </trkpt>
      <trkpt lat="59.9142665" lon="17.6428214">
        <ele>23.209</ele>
        <time>2013-04-09T18:02:32Z</time>
      </trkpt>
      <trkpt lat="59.9143367" lon="17.6428095">
        <ele>23.209</ele>
        <time>2013-04-09T18:02:33Z</time>
      </trkpt>
      <trkpt lat="59.9144065" lon="17.6427986">
        <ele>22.7283</ele>
        <time>2013-04-09T18:02:34Z</time>
      </trkpt>
      <trkpt lat="59.9144753" lon="17.6427873">
        <ele>22.7283</ele>
        <time>2013-04-09T18:02:35Z</time>
      </trkpt>
      <trkpt lat="59.9145438" lon="17.6427749">
        <ele>22.2476</ele>
        <time>2013-04-09T18:02:36Z</time>
      </trkpt>
      <trkpt lat="59.9146132" lon="17.6427631">
        <ele>21.767</ele>
        <time>2013-04-09T18:02:37Z</time>
      </trkpt>
      <trkpt lat="59.9146845" lon="17.6427522">
        <ele>21.767</ele>
        <time>2013-04-09T18:02:38Z</time>
      </trkpt>
      <trkpt lat="59.9147566" lon="17.6427412">
        <ele>21.2864</ele>
        <time>2013-04-09T18:02:39Z</time>
      </trkpt>
      <trkpt lat="59.9148297" lon="17.6427299">
        <ele>21.2864</ele>
        <time>2013-04-09T18:02:40Z</time>
      </trkpt>
      <trkpt lat="59.9149029" lon="17.6427175">
        <ele>20.8057</ele>
        <time>2013-04-09T18:02:41Z</time>
      </trkpt>
      <trkpt lat="59.9149765" lon="17.6427044">
        <ele>20.8057</ele>
        <time>2013-04-09T18:02:42Z</time>
      </trkpt>
      <trkpt lat="59.9150509" lon="17.64269">
        <ele>20.8057</ele>
        <time>2013-04-09T18:02:43Z</time>
      </trkpt>
      <trkpt lat="59.9151245" lon="17.6426693">
        <ele>20.325</ele>
        <time>2013-04-09T18:02:44Z</time>
      </trkpt>
      <trkpt lat="59.9151979" lon="17.6426329">
        <ele>20.325</ele>
        <time>2013-04-09T18:02:45Z</time>
      </trkpt>
      <trkpt lat="59.9152722" lon="17.6425814">
        <ele>19.8444</ele>
        <time>2013-04-09T18:02:46Z</time>
      </trkpt>
      <trkpt lat="59.9153529" lon="17.6425308">
        <ele>19.3638</ele>
        <time>2013-04-09T18:02:47Z</time>
      </trkpt>
      <trkpt lat="59.915437" lon="17.6424937">
        <ele>19.3638</ele>
        <time>2013-04-09T18:02:48Z</time>
      </trkpt>
      <trkpt lat="59.9155233" lon="17.6424695">
        <ele>19.3638</ele>
        <time>2013-04-09T18:02:49Z</time>
      </trkpt>
      <trkpt lat="59.9156094" lon="17.6424512">
        <ele>19.3638</ele>
        <time>2013-04-09T18:02:50Z</time>
      </trkpt>
      <trkpt lat="59.9156946" lon="17.6424388">
        <ele>19.3638</ele>
        <time>2013-04-09T18:02:51Z</time>
      </trkpt>
      <trkpt lat="59.9157777" lon="17.642431">
        <ele>19.3638</ele>
        <time>2013-04-09T18:02:52Z</time>
      </trkpt>
      <trkpt lat="59.9158597" lon="17.6424282">
        <ele>19.3638</ele>
        <time>2013-04-09T18:02:53Z</time>
      </trkpt>
      <trkpt lat="59.9159398" lon="17.6424285">
        <ele>19.8444</ele>
        <time>2013-04-09T18:02:54Z</time>
      </trkpt>
      <trkpt lat="59.9160186" lon="17.6424301">
        <ele>19.8444</ele>
        <time>2013-04-09T18:02:55Z</time>
      </trkpt>
      <trkpt lat="59.9160962" lon="17.6424316">
        <ele>19.8444</ele>
        <time>2013-04-09T18:02:56Z</time>
      </trkpt>
      <trkpt lat="59.9161723" lon="17.6424324">
        <ele>19.8444</ele>
        <time>2013-04-09T18:02:57Z</time>
      </trkpt>
      <trkpt lat="59.916247" lon="17.642428">
        <ele>20.325</ele>
        <time>2013-04-09T18:02:58Z</time>
      </trkpt>
      <trkpt lat="59.9163206" lon="17.64242">
        <ele>20.325</ele>
        <time>2013-04-09T18:02:59Z</time>
      </trkpt>
      <trkpt lat="59.9163941" lon="17.6424103">
        <ele>20.325</ele>
        <time>2013-04-09T18:03:00Z</time>
      </trkpt>
      <trkpt lat="59.9164682" lon="17.6423987">
        <ele>20.325</ele>
        <time>2013-04-09T18:03:01Z</time>
      </trkpt>
      <trkpt lat="59.9165427" lon="17.6423865">
        <ele>20.325</ele>
        <time>2013-04-09T18:03:02Z</time>
      </trkpt>
      <trkpt lat="59.9166178" lon="17.6423752">
        <ele>19.8444</ele>
        <time>2013-04-09T18:03:03Z</time>
      </trkpt>
      <trkpt lat="59.9166941" lon="17.642365">
        <ele>19.8444</ele>
        <time>2013-04-09T18:03:04Z</time>
      </trkpt>
      <trkpt lat="59.9167718" lon="17.6423547">
        <ele>19.8444</ele>
        <time>2013-04-09T18:03:05Z</time>
      </trkpt>
      <trkpt lat="59.9168513" lon="17.6423444">
        <ele>19.3638</ele>
        <time>2013-04-09T18:03:06Z</time>
      </trkpt>
      <trkpt lat="59.9169322" lon="17.6423316">
        <ele>19.3638</ele>
        <time>2013-04-09T18:03:07Z</time>
      </trkpt>
      <trkpt lat="59.9170137" lon="17.6423135">
        <ele>19.3638</ele>
        <time>2013-04-09T18:03:08Z</time>
      </trkpt>
      <trkpt lat="59.9170954" lon="17.6422884">
        <ele>19.3638</ele>
        <time>2013-04-09T18:03:09Z</time>
      </trkpt>
      <trkpt lat="59.9171779" lon="17.642262">
        <ele>18.8831</ele>
        <time>2013-04-09T18:03:10Z</time>
      </trkpt>
      <trkpt lat="59.9172618" lon="17.6422487">
        <ele>18.8831</ele>
        <time>2013-04-09T18:03:11Z</time>
      </trkpt>
      <trkpt lat="59.9173457" lon="17.642249">
        <ele>18.8831</ele>
        <time>2013-04-09T18:03:12Z</time>
      </trkpt>
      <trkpt lat="59.9174287" lon="17.6422508">
        <ele>18.8831</ele>
        <time>2013-04-09T18:03:13Z</time>
      </trkpt>
      <trkpt lat="59.9175114" lon="17.6422493">
        <ele>18.8831</ele>
        <time>2013-04-09T18:03:14Z</time>
      </trkpt>
      <trkpt lat="59.9175931" lon="17.6422466">
        <ele>18.8831</ele>
        <time>2013-04-09T18:03:15Z</time>
      </trkpt>
      <trkpt lat="59.9176739" lon="17.6422456">
        <ele>18.8831</ele>
        <time>2013-04-09T18:03:16Z</time>
      </trkpt>
      <trkpt lat="59.9177534" lon="17.642247">
        <ele>19.3638</ele>
        <time>2013-04-09T18:03:17Z</time>
      </trkpt>
      <trkpt lat="59.9178317" lon="17.6422471">
        <ele>19.3638</ele>
        <time>2013-04-09T18:03:18Z</time>
      </trkpt>
      <trkpt lat="59.9179088" lon="17.6422425">
        <ele>19.3638</ele>
        <time>2013-04-09T18:03:19Z</time>
      </trkpt>
      <trkpt lat="59.9179849" lon="17.6422347">
        <ele>19.8444</ele>
        <time>2013-04-09T18:03:20Z</time>
      </trkpt>
      <trkpt lat="59.91806" lon="17.6422262">
        <ele>19.8444</ele>
        <time>2013-04-09T18:03:21Z</time>
      </trkpt>
      <trkpt lat="59.9181336" lon="17.6422181">
        <ele>20.325</ele>
        <time>2013-04-09T18:03:22Z</time>
      </trkpt>
      <trkpt lat="59.9182051" lon="17.6422108">
        <ele>20.325</ele>
        <time>2013-04-09T18:03:23Z</time>
      </trkpt>
      <trkpt lat="59.9182745" lon="17.6422052">
        <ele>20.8057</ele>
        <time>2013-04-09T18:03:24Z</time>
      </trkpt>
      <trkpt lat="59.9183419" lon="17.6422003">
        <ele>20.8057</ele>
        <time>2013-04-09T18:03:25Z</time>
      </trkpt>
      <trkpt lat="59.9184075" lon="17.6421925">
        <ele>21.2864</ele>
        <time>2013-04-09T18:03:26Z</time>
      </trkpt>
      <trkpt lat="59.9184714" lon="17.642184">
        <ele>21.2864</ele>
        <time>2013-04-09T18:03:27Z</time>
      </trkpt>
      <trkpt lat="59.9185341" lon="17.6421762">
        <ele>21.767</ele>
        <time>2013-04-09T18:03:28Z</time>
      </trkpt>
      <trkpt lat="59.9185963" lon="17.6421689">
        <ele>21.767</ele>
        <time>2013-04-09T18:03:29Z</time>
      </trkpt>
      <trkpt lat="59.9186587" lon="17.642163">
        <ele>21.767</ele>
        <time>2013-04-09T18:03:30Z</time>
      </trkpt>
      <trkpt lat="59.9187211" lon="17.6421573">
        <ele>22.2476</ele>
        <time>2013-04-09T18:03:31Z</time>
      </trkpt>
      <trkpt lat="59.9187842" lon="17.6421508">
        <ele>22.2476</ele>
        <time>2013-04-09T18:03:32Z</time>
      </trkpt>
      <trkpt lat="59.9188477" lon="17.6421429">
        <ele>22.2476</ele>
        <time>2013-04-09T18:03:33Z</time>
      </trkpt>
      <trkpt lat="59.918911" lon="17.6421342">
        <ele>22.2476</ele>
        <time>2013-04-09T18:03:34Z</time>
      </trkpt>
      <trkpt lat="59.9189742" lon="17.6421259">
        <ele>22.7283</ele>
        <time>2013-04-09T18:03:35Z</time>
      </trkpt>
      <trkpt lat="59.9190374" lon="17.6421175">
        <ele>22.7283</ele>
        <time>2013-04-09T18:03:36Z</time>
      </trkpt>
      <trkpt lat="59.9191007" lon="17.6421099">
        <ele>22.7283</ele>
        <time>2013-04-09T18:03:37Z</time>
      </trkpt>
      <trkpt lat="59.9191645" lon="17.6421021">
        <ele>22.7283</ele>
        <time>2013-04-09T18:03:38Z</time>
      </trkpt>
      <trkpt lat="59.9192288" lon="17.6420933">
        <ele>22.7283</ele>
        <time>2013-04-09T18:03:39Z</time>
      </trkpt>
      <trkpt lat="59.9192944" lon="17.642085">
        <ele>22.7283</ele>
        <time>2013-04-09T18:03:40Z</time>
      </trkpt>
      <trkpt lat="59.9193607" lon="17.6420781">
        <ele>22.7283</ele>
        <time>2013-04-09T18:03:41Z</time>
      </trkpt>
      <trkpt lat="59.919428" lon="17.6420726">
        <ele>22.7283</ele>
        <time>2013-04-09T18:03:42Z</time>
      </trkpt>
      <trkpt lat="59.9194955" lon="17.6420669">
        <ele>22.7283</ele>
        <time>2013-04-09T18:03:43Z</time>
      </trkpt>
      <trkpt lat="59.9195624" lon="17.6420576">
        <ele>22.7283</ele>
        <time>2013-04-09T18:03:44Z</time>
      </trkpt>
      <trkpt lat="59.9196277" lon="17.6420444">
        <ele>22.7283</ele>
        <time>2013-04-09T18:03:45Z</time>
      </trkpt>
      <trkpt lat="59.9196924" lon="17.6420294">
        <ele>22.7283</ele>
        <time>2013-04-09T18:03:46Z</time>
      </trkpt>
      <trkpt lat="59.9197575" lon="17.6420143">
        <ele>22.7283</ele>
        <time>2013-04-09T18:03:47Z</time>
      </trkpt>
      <trkpt lat="59.919823" lon="17.6419995">
        <ele>22.7283</ele>
        <time>2013-04-09T18:03:48Z</time>
      </trkpt>
      <trkpt lat="59.9198896" lon="17.6419865">
        <ele>22.7283</ele>
        <time>2013-04-09T18:03:49Z</time>
      </trkpt>
      <trkpt lat="59.919957" lon="17.6419739">
        <ele>22.7283</ele>
        <time>2013-04-09T18:03:50Z</time>
      </trkpt>
      <trkpt lat="59.9200253" lon="17.6419607">
        <ele>22.7283</ele>
        <time>2013-04-09T18:03:51Z</time>
      </trkpt>
      <trkpt lat="59.9200942" lon="17.6419504">
        <ele>22.7283</ele>
        <time>2013-04-09T18:03:52Z</time>
      </trkpt>
      <trkpt lat="59.9201625" lon="17.6419466">
        <ele>23.209</ele>
        <time>2013-04-09T18:03:53Z</time>
      </trkpt>
      <trkpt lat="59.9202291" lon="17.6419462">
        <ele>23.209</ele>
        <time>2013-04-09T18:03:54Z</time>
      </trkpt>
      <trkpt lat="59.9202957" lon="17.6419449">
        <ele>23.209</ele>
        <time>2013-04-09T18:03:55Z</time>
      </trkpt>
      <trkpt lat="59.9203636" lon="17.6419428">
        <ele>23.209</ele>
        <time>2013-04-09T18:03:56Z</time>
      </trkpt>
      <trkpt lat="59.9204323" lon="17.6419413">
        <ele>23.209</ele>
        <time>2013-04-09T18:03:57Z</time>
      </trkpt>
      <trkpt lat="59.9205007" lon="17.6419398">
        <ele>22.7283</ele>
        <time>2013-04-09T18:03:58Z</time>
      </trkpt>
      <trkpt lat="59.9205696" lon="17.6419378">
        <ele>22.7283</ele>
        <time>2013-04-09T18:03:59Z</time>
      </trkpt>
      <trkpt lat="59.9206386" lon="17.6419344">
        <ele>22.7283</ele>
        <time>2013-04-09T18:04:00Z</time>
      </trkpt>
      <trkpt lat="59.920707" lon="17.6419307">
        <ele>22.7283</ele>
        <time>2013-04-09T18:04:01Z</time>
      </trkpt>
      <trkpt lat="59.9207745" lon="17.6419285">
        <ele>22.7283</ele>
        <time>2013-04-09T18:04:02Z</time>
      </trkpt>
      <trkpt lat="59.9208413" lon="17.641928">
        <ele>22.7283</ele>
        <time>2013-04-09T18:04:03Z</time>
      </trkpt>
      <trkpt lat="59.9209073" lon="17.6419271">
        <ele>22.7283</ele>
        <time>2013-04-09T18:04:04Z</time>
      </trkpt>
      <trkpt lat="59.9209728" lon="17.6419232">
        <ele>22.7283</ele>
        <time>2013-04-09T18:04:05Z</time>
      </trkpt>
      <trkpt lat="59.9210376" lon="17.6419177">
        <ele>22.7283</ele>
        <time>2013-04-09T18:04:06Z</time>
      </trkpt>
      <trkpt lat="59.9211034" lon="17.6419125">
        <ele>22.7283</ele>
        <time>2013-04-09T18:04:07Z</time>
      </trkpt>
      <trkpt lat="59.9211695" lon="17.6419059">
        <ele>22.7283</ele>
        <time>2013-04-09T18:04:08Z</time>
      </trkpt>
      <trkpt lat="59.9212351" lon="17.6418999">
        <ele>22.7283</ele>
        <time>2013-04-09T18:04:09Z</time>
      </trkpt>
      <trkpt lat="59.9212992" lon="17.6418918">
        <ele>23.209</ele>
        <time>2013-04-09T18:04:10Z</time>
      </trkpt>
      <trkpt lat="59.9213618" lon="17.6418823">
        <ele>23.209</ele>
        <time>2013-04-09T18:04:11Z</time>
      </trkpt>
      <trkpt lat="59.9214226" lon="17.6418747">
        <ele>23.6896</ele>
        <time>2013-04-09T18:04:12Z</time>
      </trkpt>
      <trkpt lat="59.9214819" lon="17.6418686">
        <ele>23.6896</ele>
        <time>2013-04-09T18:04:13Z</time>
      </trkpt>
      <trkpt lat="59.9215404" lon="17.6418613">
        <ele>24.1703</ele>
        <time>2013-04-09T18:04:14Z</time>
      </trkpt>
      <trkpt lat="59.9215976" lon="17.6418513">
        <ele>24.1703</ele>
        <time>2013-04-09T18:04:15Z</time>
      </trkpt>
      <trkpt lat="59.9216566" lon="17.6418404">
        <ele>24.1703</ele>
        <time>2013-04-09T18:04:16Z</time>
      </trkpt>
      <trkpt lat="59.9217166" lon="17.6418278">
        <ele>24.1703</ele>
        <time>2013-04-09T18:04:17Z</time>
      </trkpt>
      <trkpt lat="59.9217787" lon="17.6418161">
        <ele>24.1703</ele>
        <time>2013-04-09T18:04:18Z</time>
      </trkpt>
      <trkpt lat="59.921842" lon="17.6418077">
        <ele>24.1703</ele>
        <time>2013-04-09T18:04:19Z</time>
      </trkpt>
      <trkpt lat="59.9219067" lon="17.6418021">
        <ele>23.6896</ele>
        <time>2013-04-09T18:04:20Z</time>
      </trkpt>
      <trkpt lat="59.9219725" lon="17.6417963">
        <ele>23.6896</ele>
        <time>2013-04-09T18:04:21Z</time>
      </trkpt>
      <trkpt lat="59.9220384" lon="17.6417886">
        <ele>23.6896</ele>
        <time>2013-04-09T18:04:22Z</time>
      </trkpt>
      <trkpt lat="59.9221047" lon="17.6417804">
        <ele>23.6896</ele>
        <time>2013-04-09T18:04:23Z</time>
      </trkpt>
      <trkpt lat="59.9221713" lon="17.641772">
        <ele>23.6896</ele>
        <time>2013-04-09T18:04:24Z</time>
      </trkpt>
      <trkpt lat="59.9222378" lon="17.6417633">
        <ele>23.209</ele>
        <time>2013-04-09T18:04:25Z</time>
      </trkpt>
      <trkpt lat="59.9223046" lon="17.6417554">
        <ele>23.209</ele>
        <time>2013-04-09T18:04:26Z</time>
      </trkpt>
      <trkpt lat="59.922371" lon="17.6417489">
        <ele>23.209</ele>
        <time>2013-04-09T18:04:27Z</time>
      </trkpt>
      <trkpt lat="59.9224379" lon="17.6417431">
        <ele>23.209</ele>
        <time>2013-04-09T18:04:28Z</time>
      </trkpt>
      <trkpt lat="59.9225051" lon="17.6417348">
        <ele>23.209</ele>
        <time>2013-04-09T18:04:29Z</time>
      </trkpt>
      <trkpt lat="59.922572" lon="17.641725">
        <ele>23.209</ele>
        <time>2013-04-09T18:04:30Z</time>
      </trkpt>
      <trkpt lat="59.9226391" lon="17.6417141">
        <ele>23.209</ele>
        <time>2013-04-09T18:04:31Z</time>
      </trkpt>
      <trkpt lat="59.922706" lon="17.6417048">
        <ele>23.209</ele>
        <time>2013-04-09T18:04:32Z</time>
      </trkpt>
      <trkpt lat="59.9227719" lon="17.641697">
        <ele>23.209</ele>
        <time>2013-04-09T18:04:33Z</time>
      </trkpt>
      <trkpt lat="59.9228373" lon="17.6416898">
        <ele>22.7283</ele>
        <time>2013-04-09T18:04:34Z</time>
      </trkpt>
      <trkpt lat="59.9229033" lon="17.6416834">
        <ele>22.7283</ele>
        <time>2013-04-09T18:04:35Z</time>
      </trkpt>
      <trkpt lat="59.9229696" lon="17.6416789">
        <ele>22.2476</ele>
        <time>2013-04-09T18:04:36Z</time>
      </trkpt>
      <trkpt lat="59.9230365" lon="17.6416743">
        <ele>22.2476</ele>
        <time>2013-04-09T18:04:37Z</time>
      </trkpt>
      <trkpt lat="59.9231032" lon="17.6416657">
        <ele>22.2476</ele>
        <time>2013-04-09T18:04:38Z</time>
      </trkpt>
      <trkpt lat="59.9231693" lon="17.641655">
        <ele>21.767</ele>
        <time>2013-04-09T18:04:39Z</time>
      </trkpt>
      <trkpt lat="59.9232355" lon="17.6416438">
        <ele>21.767</ele>
        <time>2013-04-09T18:04:40Z</time>
      </trkpt>
      <trkpt lat="59.9233021" lon="17.6416343">
        <ele>21.767</ele>
        <time>2013-04-09T18:04:41Z</time>
      </trkpt>
      <trkpt lat="59.9233698" lon="17.6416267">
        <ele>21.2864</ele>
        <time>2013-04-09T18:04:42Z</time>
      </trkpt>
      <trkpt lat="59.9234391" lon="17.6416183">
        <ele>21.2864</ele>
        <time>2013-04-09T18:04:43Z</time>
      </trkpt>
      <trkpt lat="59.9235095" lon="17.641608">
        <ele>20.8057</ele>
        <time>2013-04-09T18:04:44Z</time>
      </trkpt>
      <trkpt lat="59.9235815" lon="17.6415973">
        <ele>20.8057</ele>
        <time>2013-04-09T18:04:45Z</time>
      </trkpt>
      <trkpt lat="59.9236546" lon="17.6415866">
        <ele>20.325</ele>
        <time>2013-04-09T18:04:46Z</time>
      </trkpt>
      <trkpt lat="59.9237295" lon="17.6415769">
        <ele>20.325</ele>
        <time>2013-04-09T18:04:47Z</time>
      </trkpt>
      <trkpt lat="59.9238058" lon="17.6415678">
        <ele>19.8444</ele>
        <time>2013-04-09T18:04:48Z</time>
      </trkpt>
      <trkpt lat="59.9238833" lon="17.6415567">
        <ele>19.8444</ele>
        <time>2013-04-09T18:04:49Z</time>
      </trkpt>
      <trkpt lat="59.9239611" lon="17.6415452">
        <ele>19.8444</ele>
        <time>2013-04-09T18:04:50Z</time>
      </trkpt>
      <trkpt lat="59.9240392" lon="17.6415363">
        <ele>19.8444</ele>
        <time>2013-04-09T18:04:51Z</time>
      </trkpt>
      <trkpt lat="59.9241169" lon="17.6415297">
        <ele>19.3638</ele>
        <time>2013-04-09T18:04:52Z</time>
      </trkpt>
      <trkpt lat="59.9241943" lon="17.6415253">
        <ele>19.3638</ele>
        <time>2013-04-09T18:04:53Z</time>
      </trkpt>
      <trkpt lat="59.9242714" lon="17.6415223">
        <ele>19.3638</ele>
        <time>2013-04-09T18:04:54Z</time>
      </trkpt>
      <trkpt lat="59.9243482" lon="17.6415179">
        <ele>19.3638</ele>
        <time>2013-04-09T18:04:55Z</time>
      </trkpt>
      <trkpt lat="59.9244249" lon="17.6415121">
        <ele>19.3638</ele>
        <time>2013-04-09T18:04:56Z</time>
      </trkpt>
      <trkpt lat="59.924502" lon="17.6415052">
        <ele>19.3638</ele>
        <time>2013-04-09T18:04:57Z</time>
      </trkpt>
      <trkpt lat="59.9245787" lon="17.6414943">
        <ele>19.3638</ele>
        <time>2013-04-09T18:04:58Z</time>
      </trkpt>
      <trkpt lat="59.9246549" lon="17.6414775">
        <ele>19.3638</ele>
        <time>2013-04-09T18:04:59Z</time>
      </trkpt>
      <trkpt lat="59.9247314" lon="17.6414575">
        <ele>19.3638</ele>
        <time>2013-04-09T18:05:00Z</time>
      </trkpt>
      <trkpt lat="59.924808" lon="17.6414381">
        <ele>19.3638</ele>
        <time>2013-04-09T18:05:01Z</time>
      </trkpt>
      <trkpt lat="59.9248847" lon="17.6414214">
        <ele>19.3638</ele>
        <time>2013-04-09T18:05:02Z</time>
      </trkpt>
      <trkpt lat="59.924962" lon="17.6414108">
        <ele>18.8831</ele>
        <time>2013-04-09T18:05:03Z</time>
      </trkpt>
      <trkpt lat="59.92504" lon="17.6414075">
        <ele>18.8831</ele>
        <time>2013-04-09T18:05:04Z</time>
      </trkpt>
      <trkpt lat="59.9251179" lon="17.6414064">
        <ele>18.8831</ele>
        <time>2013-04-09T18:05:05Z</time>
      </trkpt>
      <trkpt lat="59.9251965" lon="17.6414048">
        <ele>18.8831</ele>
        <time>2013-04-09T18:05:06Z</time>
      </trkpt>
      <trkpt lat="59.9252748" lon="17.6414033">
        <ele>18.8831</ele>
        <time>2013-04-09T18:05:07Z</time>
      </trkpt>
      <trkpt lat="59.9253525" lon="17.6414013">
        <ele>18.8831</ele>
        <time>2013-04-09T18:05:08Z</time>
      </trkpt>
      <trkpt lat="59.9254304" lon="17.6413961">
        <ele>18.4023</ele>
        <time>2013-04-09T18:05:09Z</time>
      </trkpt>
      <trkpt lat="59.9255092" lon="17.6413883">
        <ele>18.4023</ele>
        <time>2013-04-09T18:05:10Z</time>
      </trkpt>
      <trkpt lat="59.9255883" lon="17.6413798">
        <ele>18.4023</ele>
        <time>2013-04-09T18:05:11Z</time>
      </trkpt>
      <trkpt lat="59.9256675" lon="17.6413707">
        <ele>18.4023</ele>
        <time>2013-04-09T18:05:12Z</time>
      </trkpt>
      <trkpt lat="59.9257468" lon="17.6413624">
        <ele>17.9218</ele>
        <time>2013-04-09T18:05:13Z</time>
      </trkpt>
      <trkpt lat="59.9258265" lon="17.6413525">
        <ele>17.9218</ele>
        <time>2013-04-09T18:05:14Z</time>
      </trkpt>
      <trkpt lat="59.9259061" lon="17.6413404">
        <ele>17.9218</ele>
        <time>2013-04-09T18:05:15Z</time>
      </trkpt>
      <trkpt lat="59.9259856" lon="17.6413285">
        <ele>17.9218</ele>
        <time>2013-04-09T18:05:16Z</time>
      </trkpt>
      <trkpt lat="59.9260655" lon="17.6413184">
        <ele>17.9218</ele>
        <time>2013-04-09T18:05:17Z</time>
      </trkpt>
      <trkpt lat="59.9261458" lon="17.6413084">
        <ele>17.9218</ele>
        <time>2013-04-09T18:05:18Z</time>
      </trkpt>
      <trkpt lat="59.926226" lon="17.6412971">
        <ele>17.9218</ele>
        <time>2013-04-09T18:05:19Z</time>
      </trkpt>
      <trkpt lat="59.9263053" lon="17.6412873">
        <ele>17.4412</ele>
        <time>2013-04-09T18:05:20Z</time>
      </trkpt>
      <trkpt lat="59.9263834" lon="17.641279">
        <ele>17.4412</ele>
        <time>2013-04-09T18:05:21Z</time>
      </trkpt>
      <trkpt lat="59.9264597" lon="17.6412696">
        <ele>17.9218</ele>
        <time>2013-04-09T18:05:22Z</time>
      </trkpt>
      <trkpt lat="59.9265347" lon="17.6412592">
        <ele>17.9218</ele>
        <time>2013-04-09T18:05:23Z</time>
      </trkpt>
      <trkpt lat="59.9266093" lon="17.6412497">
        <ele>17.9218</ele>
        <time>2013-04-09T18:05:24Z</time>
      </trkpt>
      <trkpt lat="59.9266854" lon="17.6412417">
        <ele>17.9218</ele>
        <time>2013-04-09T18:05:25Z</time>
      </trkpt>
      <trkpt lat="59.9267631" lon="17.6412332">
        <ele>17.9218</ele>
        <time>2013-04-09T18:05:26Z</time>
      </trkpt>
      <trkpt lat="59.9268418" lon="17.6412239">
        <ele>17.9218</ele>
        <time>2013-04-09T18:05:27Z</time>
      </trkpt>
      <trkpt lat="59.9269226" lon="17.6412138">
        <ele>17.9218</ele>
        <time>2013-04-09T18:05:28Z</time>
      </trkpt>
      <trkpt lat="59.9270049" lon="17.6412029">
        <ele>18.4023</ele>
        <time>2013-04-09T18:05:29Z</time>
      </trkpt>
      <trkpt lat="59.9270885" lon="17.6411926">
        <ele>18.4023</ele>
        <time>2013-04-09T18:05:30Z</time>
      </trkpt>
      <trkpt lat="59.9271743" lon="17.6411857">
        <ele>18.4023</ele>
        <time>2013-04-09T18:05:31Z</time>
      </trkpt>
      <trkpt lat="59.9272603" lon="17.641181">
        <ele>18.4023</ele>
        <time>2013-04-09T18:05:32Z</time>
      </trkpt>
      <trkpt lat="59.9273441" lon="17.6411774">
        <ele>18.4023</ele>
        <time>2013-04-09T18:05:33Z</time>
      </trkpt>
      <trkpt lat="59.9274256" lon="17.6411721">
        <ele>18.8831</ele>
        <time>2013-04-09T18:05:34Z</time>
      </trkpt>
      <trkpt lat="59.9275055" lon="17.6411634">
        <ele>18.8831</ele>
        <time>2013-04-09T18:05:35Z</time>
      </trkpt>
      <trkpt lat="59.927584" lon="17.6411546">
        <ele>18.8831</ele>
        <time>2013-04-09T18:05:36Z</time>
      </trkpt>
      <trkpt lat="59.9276603" lon="17.6411465">
        <ele>18.8831</ele>
        <time>2013-04-09T18:05:37Z</time>
      </trkpt>
      <trkpt lat="59.9277353" lon="17.6411401">
        <ele>18.8831</ele>
        <time>2013-04-09T18:05:38Z</time>
      </trkpt>
      <trkpt lat="59.9278093" lon="17.6411349">
        <ele>18.8831</ele>
        <time>2013-04-09T18:05:39Z</time>
      </trkpt>
      <trkpt lat="59.9278831" lon="17.6411276">
        <ele>18.8831</ele>
        <time>2013-04-09T18:05:40Z</time>
      </trkpt>
      <trkpt lat="59.9279564" lon="17.6411182">
        <ele>18.8831</ele>
        <time>2013-04-09T18:05:41Z</time>
      </trkpt>
      <trkpt lat="59.928029" lon="17.6411101">
        <ele>18.8831</ele>
        <time>2013-04-09T18:05:42Z</time>
      </trkpt>
      <trkpt lat="59.9281012" lon="17.6411027">
        <ele>18.8831</ele>
        <time>2013-04-09T18:05:43Z</time>
      </trkpt>
      <trkpt lat="59.9281732" lon="17.6410944">
        <ele>18.8831</ele>
        <time>2013-04-09T18:05:44Z</time>
      </trkpt>
      <trkpt lat="59.928245" lon="17.6410842">
        <ele>18.8831</ele>
        <time>2013-04-09T18:05:45Z</time>
      </trkpt>
      <trkpt lat="59.9283166" lon="17.6410726">
        <ele>18.8831</ele>
        <time>2013-04-09T18:05:46Z</time>
      </trkpt>
      <trkpt lat="59.9283881" lon="17.6410635">
        <ele>18.8831</ele>
        <time>2013-04-09T18:05:47Z</time>
      </trkpt>
      <trkpt lat="59.9284596" lon="17.6410557">
        <ele>19.3638</ele>
        <time>2013-04-09T18:05:48Z</time>
      </trkpt>
      <trkpt lat="59.9285301" lon="17.6410444">
        <ele>19.3638</ele>
        <time>2013-04-09T18:05:49Z</time>
      </trkpt>
      <trkpt lat="59.9285995" lon="17.6410314">
        <ele>19.3638</ele>
        <time>2013-04-09T18:05:50Z</time>
      </trkpt>
      <trkpt lat="59.928668" lon="17.6410178">
        <ele>19.3638</ele>
        <time>2013-04-09T18:05:51Z</time>
      </trkpt>
      <trkpt lat="59.9287367" lon="17.6410029">
        <ele>19.3638</ele>
        <time>2013-04-09T18:05:52Z</time>
      </trkpt>
      <trkpt lat="59.928806" lon="17.6409885">
        <ele>19.3638</ele>
        <time>2013-04-09T18:05:53Z</time>
      </trkpt>
      <trkpt lat="59.9288761" lon="17.6409739">
        <ele>19.3638</ele>
        <time>2013-04-09T18:05:54Z</time>
      </trkpt>
      <trkpt lat="59.9289469" lon="17.6409603">
        <ele>19.3638</ele>
        <time>2013-04-09T18:05:55Z</time>
      </trkpt>
      <trkpt lat="59.9290181" lon="17.6409515">
        <ele>19.3638</ele>
        <time>2013-04-09T18:05:56Z</time>
      </trkpt>
      <trkpt lat="59.9290895" lon="17.6409463">
        <ele>19.3638</ele>
        <time>2013-04-09T18:05:57Z</time>
      </trkpt>
      <trkpt lat="59.9291613" lon="17.6409418">
        <ele>19.3638</ele>
        <time>2013-04-09T18:05:58Z</time>
      </trkpt>
      <trkpt lat="59.9292326" lon="17.6409386">
        <ele>19.3638</ele>
        <time>2013-04-09T18:05:59Z</time>
      </trkpt>
      <trkpt lat="59.9293031" lon="17.6409362">
        <ele>19.3638</ele>
        <time>2013-04-09T18:06:00Z</time>
      </trkpt>
      <trkpt lat="59.929373" lon="17.6409314">
        <ele>19.3638</ele>
        <time>2013-04-09T18:06:01Z</time>
      </trkpt>
      <trkpt lat="59.9294423" lon="17.6409225">
        <ele>19.3638</ele>
        <time>2013-04-09T18:06:02Z</time>
      </trkpt>
      <trkpt lat="59.9295112" lon="17.6409125">
        <ele>19.3638</ele>
        <time>2013-04-09T18:06:03Z</time>
      </trkpt>
      <trkpt lat="59.9295796" lon="17.6409009">
        <ele>19.3638</ele>
        <time>2013-04-09T18:06:04Z</time>
      </trkpt>
      <trkpt lat="59.9296473" lon="17.6408858">
        <ele>19.8444</ele>
        <time>2013-04-09T18:06:05Z</time>
      </trkpt>
      <trkpt lat="59.9297131" lon="17.6408692">
        <ele>19.8444</ele>
        <time>2013-04-09T18:06:06Z</time>
      </trkpt>
      <trkpt lat="59.9297767" lon="17.6408548">
        <ele>19.8444</ele>
        <time>2013-04-09T18:06:07Z</time>
      </trkpt>
      <trkpt lat="59.9298386" lon="17.6408447">
        <ele>19.8444</ele>
        <time>2013-04-09T18:06:08Z</time>
      </trkpt>
      <trkpt lat="59.9299016" lon="17.6408406">
        <ele>19.8444</ele>
        <time>2013-04-09T18:06:09Z</time>
      </trkpt>
      <trkpt lat="59.9299666" lon="17.6408408">
        <ele>19.3638</ele>
        <time>2013-04-09T18:06:10Z</time>
      </trkpt>
      <trkpt lat="59.9300332" lon="17.6408423">
        <ele>19.3638</ele>
        <time>2013-04-09T18:06:11Z</time>
      </trkpt>
      <trkpt lat="59.9300996" lon="17.6408443">
        <ele>19.3638</ele>
        <time>2013-04-09T18:06:12Z</time>
      </trkpt>
      <trkpt lat="59.9301658" lon="17.6408468">
        <ele>19.8444</ele>
        <time>2013-04-09T18:06:13Z</time>
      </trkpt>
      <trkpt lat="59.9302313" lon="17.640849">
        <ele>19.8444</ele>
        <time>2013-04-09T18:06:14Z</time>
      </trkpt>
      <trkpt lat="59.930296" lon="17.6408506">
        <ele>19.8444</ele>
        <time>2013-04-09T18:06:15Z</time>
      </trkpt>
      <trkpt lat="59.9303596" lon="17.6408522">
        <ele>19.8444</ele>
        <time>2013-04-09T18:06:16Z</time>
      </trkpt>
      <trkpt lat="59.930422" lon="17.6408545">
        <ele>19.8444</ele>
        <time>2013-04-09T18:06:17Z</time>
      </trkpt>
      <trkpt lat="59.9304831" lon="17.6408562">
        <ele>20.325</ele>
        <time>2013-04-09T18:06:18Z</time>
      </trkpt>
      <trkpt lat="59.9305425" lon="17.6408526">
        <ele>20.325</ele>
        <time>2013-04-09T18:06:19Z</time>
      </trkpt>
      <trkpt lat="59.9305995" lon="17.6408438">
        <ele>20.8057</ele>
        <time>2013-04-09T18:06:20Z</time>
      </trkpt>
      <trkpt lat="59.9306544" lon="17.6408319">
        <ele>20.8057</ele>
        <time>2013-04-09T18:06:21Z</time>
      </trkpt>
      <trkpt lat="59.9307078" lon="17.6408216">
        <ele>20.8057</ele>
        <time>2013-04-09T18:06:22Z</time>
      </trkpt>
      <trkpt lat="59.9307604" lon="17.6408175">
        <ele>21.2864</ele>
        <time>2013-04-09T18:06:23Z</time>
      </trkpt>
      <trkpt lat="59.9308136" lon="17.64082">
        <ele>21.2864</ele>
        <time>2013-04-09T18:06:24Z</time>
      </trkpt>
      <trkpt lat="59.9308693" lon="17.6408274">
        <ele>20.8057</ele>
        <time>2013-04-09T18:06:25Z</time>
      </trkpt>
      <trkpt lat="59.9309263" lon="17.640841">
        <ele>20.8057</ele>
        <time>2013-04-09T18:06:26Z</time>
      </trkpt>
      <trkpt lat="59.9309823" lon="17.640863">
        <ele>20.8057</ele>
        <time>2013-04-09T18:06:27Z</time>
      </trkpt>
      <trkpt lat="59.9310357" lon="17.6408934">
        <ele>20.8057</ele>
        <time>2013-04-09T18:06:28Z</time>
      </trkpt>
      <trkpt lat="59.931087" lon="17.640932">
        <ele>20.8057</ele>
        <time>2013-04-09T18:06:29Z</time>
      </trkpt>
      <trkpt lat="59.9311381" lon="17.6409747">
        <ele>20.8057</ele>
        <time>2013-04-09T18:06:30Z</time>
      </trkpt>
      <trkpt lat="59.9311889" lon="17.641017">
        <ele>21.2864</ele>
        <time>2013-04-09T18:06:31Z</time>
      </trkpt>
      <trkpt lat="59.9312401" lon="17.6410578">
        <ele>21.767</ele>
        <time>2013-04-09T18:06:32Z</time>
      </trkpt>
      <trkpt lat="59.9312906" lon="17.6410957">
        <ele>21.767</ele>
        <time>2013-04-09T18:06:33Z</time>
      </trkpt>
      <trkpt lat="59.9313392" lon="17.6411313">
        <ele>22.2476</ele>
        <time>2013-04-09T18:06:34Z</time>
      </trkpt>
      <trkpt lat="59.9313865" lon="17.6411639">
        <ele>22.2476</ele>
        <time>2013-04-09T18:06:35Z</time>
      </trkpt>
      <trkpt lat="59.9314878" lon="17.6412355">
        <ele>22.2476</ele>
        <time>2013-04-09T18:06:36Z</time>
      </trkpt>
      <trkpt lat="59.9315423" lon="17.6412752">
        <ele>21.767</ele>
        <time>2013-04-09T18:06:37Z</time>
      </trkpt>
      <trkpt lat="59.9315986" lon="17.6413166">
        <ele>22.2476</ele>
        <time>2013-04-09T18:06:38Z</time>
      </trkpt>
      <trkpt lat="59.9316563" lon="17.6413611">
        <ele>22.2476</ele>
        <time>2013-04-09T18:06:39Z</time>
      </trkpt>
      <trkpt lat="59.9317148" lon="17.6414052">
        <ele>22.2476</ele>
        <time>2013-04-09T18:06:40Z</time>
      </trkpt>
      <trkpt lat="59.9317717" lon="17.6414466">
        <ele>22.2476</ele>
        <time>2013-04-09T18:06:41Z</time>
      </trkpt>
      <trkpt lat="59.9318271" lon="17.6414841">
        <ele>22.2476</ele>
        <time>2013-04-09T18:06:42Z</time>
      </trkpt>
      <trkpt lat="59.9318798" lon="17.6415183">
        <ele>22.2476</ele>
        <time>2013-04-09T18:06:43Z</time>
      </trkpt>
      <trkpt lat="59.9319318" lon="17.6415497">
        <ele>22.2476</ele>
        <time>2013-04-09T18:06:44Z</time>
      </trkpt>
      <trkpt lat="59.9319834" lon="17.6415811">
        <ele>22.2476</ele>
        <time>2013-04-09T18:06:45Z</time>
      </trkpt>
      <trkpt lat="59.9320321" lon="17.6416183">
        <ele>22.2476</ele>
        <time>2013-04-09T18:06:46Z</time>
      </trkpt>
      <trkpt lat="59.9320809" lon="17.6416633">
        <ele>22.2476</ele>
        <time>2013-04-09T18:06:47Z</time>
      </trkpt>
      <trkpt lat="59.9321327" lon="17.641716">
        <ele>21.767</ele>
        <time>2013-04-09T18:06:48Z</time>
      </trkpt>
      <trkpt lat="59.9321871" lon="17.6417711">
        <ele>21.767</ele>
        <time>2013-04-09T18:06:49Z</time>
      </trkpt>
      <trkpt lat="59.9322427" lon="17.6418224">
        <ele>21.767</ele>
        <time>2013-04-09T18:06:50Z</time>
      </trkpt>
      <trkpt lat="59.932299" lon="17.6418712">
        <ele>21.767</ele>
        <time>2013-04-09T18:06:51Z</time>
      </trkpt>
      <trkpt lat="59.9323545" lon="17.6419211">
        <ele>21.767</ele>
        <time>2013-04-09T18:06:52Z</time>
      </trkpt>
      <trkpt lat="59.9324087" lon="17.6419716">
        <ele>21.767</ele>
        <time>2013-04-09T18:06:53Z</time>
      </trkpt>
      <trkpt lat="59.932461" lon="17.6420219">
        <ele>21.767</ele>
        <time>2013-04-09T18:06:54Z</time>
      </trkpt>
      <trkpt lat="59.9325113" lon="17.6420711">
        <ele>21.767</ele>
        <time>2013-04-09T18:06:55Z</time>
      </trkpt>
      <trkpt lat="59.9325596" lon="17.6421214">
        <ele>21.767</ele>
        <time>2013-04-09T18:06:56Z</time>
      </trkpt>
      <trkpt lat="59.9326067" lon="17.6421739">
        <ele>21.767</ele>
        <time>2013-04-09T18:06:57Z</time>
      </trkpt>
      <trkpt lat="59.9326535" lon="17.6422274">
        <ele>22.2476</ele>
        <time>2013-04-09T18:06:58Z</time>
      </trkpt>
      <trkpt lat="59.9326983" lon="17.6422843">
        <ele>22.2476</ele>
        <time>2013-04-09T18:06:59Z</time>
      </trkpt>
      <trkpt lat="59.9327395" lon="17.6423445">
        <ele>22.2476</ele>
        <time>2013-04-09T18:07:00Z</time>
      </trkpt>
      <trkpt lat="59.9327781" lon="17.6424113">
        <ele>22.2476</ele>
        <time>2013-04-09T18:07:01Z</time>
      </trkpt>
      <trkpt lat="59.9328149" lon="17.6424836">
        <ele>22.2476</ele>
        <time>2013-04-09T18:07:02Z</time>
      </trkpt>
      <trkpt lat="59.9328533" lon="17.6425559">
        <ele>22.7283</ele>
        <time>2013-04-09T18:07:03Z</time>
      </trkpt>
      <trkpt lat="59.9328947" lon="17.6426258">
        <ele>22.7283</ele>
        <time>2013-04-09T18:07:04Z</time>
      </trkpt>
      <trkpt lat="59.9329382" lon="17.642691">
        <ele>22.7283</ele>
        <time>2013-04-09T18:07:05Z</time>
      </trkpt>
      <trkpt lat="59.9329834" lon="17.6427516">
        <ele>23.209</ele>
        <time>2013-04-09T18:07:06Z</time>
      </trkpt>
      <trkpt lat="59.9330306" lon="17.6428092">
        <ele>23.6896</ele>
        <time>2013-04-09T18:07:07Z</time>
      </trkpt>
      <trkpt lat="59.933079" lon="17.6428696">
        <ele>24.1703</ele>
        <time>2013-04-09T18:07:08Z</time>
      </trkpt>
      <trkpt lat="59.9331264" lon="17.6429313">
        <ele>24.1703</ele>
        <time>2013-04-09T18:07:09Z</time>
      </trkpt>
      <trkpt lat="59.9331714" lon="17.6429945">
        <ele>24.651</ele>
        <time>2013-04-09T18:07:10Z</time>
      </trkpt>
      <trkpt lat="59.9332149" lon="17.6430588">
        <ele>25.1317</ele>
        <time>2013-04-09T18:07:11Z</time>
      </trkpt>
      <trkpt lat="59.9332559" lon="17.6431257">
        <ele>25.6123</ele>
        <time>2013-04-09T18:07:12Z</time>
      </trkpt>
      <trkpt lat="59.9332932" lon="17.6431954">
        <ele>26.0929</ele>
        <time>2013-04-09T18:07:13Z</time>
      </trkpt>
      <trkpt lat="59.9333279" lon="17.6432602">
        <ele>26.0929</ele>
        <time>2013-04-09T18:07:14Z</time>
      </trkpt>
      <trkpt lat="59.933364" lon="17.6433172">
        <ele>26.5736</ele>
        <time>2013-04-09T18:07:15Z</time>
      </trkpt>
      <trkpt lat="59.9334004" lon="17.6433701">
        <ele>26.5736</ele>
        <time>2013-04-09T18:07:16Z</time>
      </trkpt>
      <trkpt lat="59.9334388" lon="17.6434218">
        <ele>27.0543</ele>
        <time>2013-04-09T18:07:17Z</time>
      </trkpt>
      <trkpt lat="59.9334756" lon="17.6434712">
        <ele>27.0543</ele>
        <time>2013-04-09T18:07:18Z</time>
      </trkpt>
      <trkpt lat="59.9335131" lon="17.643516">
        <ele>26.5736</ele>
        <time>2013-04-09T18:07:19Z</time>
      </trkpt>
      <trkpt lat="59.9335526" lon="17.6435598">
        <ele>27.0543</ele>
        <time>2013-04-09T18:07:20Z</time>
      </trkpt>
      <trkpt lat="59.9335916" lon="17.6436038">
        <ele>27.0543</ele>
        <time>2013-04-09T18:07:21Z</time>
      </trkpt>
      <trkpt lat="59.9336303" lon="17.6436478">
        <ele>27.0543</ele>
        <time>2013-04-09T18:07:22Z</time>
      </trkpt>
      <trkpt lat="59.9336724" lon="17.643692">
        <ele>27.0543</ele>
        <time>2013-04-09T18:07:23Z</time>
      </trkpt>
      <trkpt lat="59.9337147" lon="17.6437301">
        <ele>27.0543</ele>
        <time>2013-04-09T18:07:24Z</time>
      </trkpt>
      <trkpt lat="59.9337561" lon="17.6437668">
        <ele>27.0543</ele>
        <time>2013-04-09T18:07:25Z</time>
      </trkpt>
      <trkpt lat="59.9337985" lon="17.6438084">
        <ele>26.5736</ele>
        <time>2013-04-09T18:07:26Z</time>
      </trkpt>
      <trkpt lat="59.9338428" lon="17.6438533">
        <ele>26.5736</ele>
        <time>2013-04-09T18:07:27Z</time>
      </trkpt>
      <trkpt lat="59.9338889" lon="17.6439005">
        <ele>27.0543</ele>
        <time>2013-04-09T18:07:28Z</time>
      </trkpt>
      <trkpt lat="59.9339371" lon="17.643954">
        <ele>27.0543</ele>
        <time>2013-04-09T18:07:29Z</time>
      </trkpt>
      <trkpt lat="59.9339846" lon="17.6440125">
        <ele>27.0543</ele>
        <time>2013-04-09T18:07:30Z</time>
      </trkpt>
      <trkpt lat="59.9340299" lon="17.6440686">
        <ele>27.0543</ele>
        <time>2013-04-09T18:07:31Z</time>
      </trkpt>
      <trkpt lat="59.9340724" lon="17.6441231">
        <ele>27.0543</ele>
        <time>2013-04-09T18:07:32Z</time>
      </trkpt>
      <trkpt lat="59.9341131" lon="17.6441804">
        <ele>27.5349</ele>
        <time>2013-04-09T18:07:33Z</time>
      </trkpt>
      <trkpt lat="59.934152" lon="17.6442367">
        <ele>27.5349</ele>
        <time>2013-04-09T18:07:34Z</time>
      </trkpt>
      <trkpt lat="59.9341918" lon="17.6442907">
        <ele>28.0155</ele>
        <time>2013-04-09T18:07:35Z</time>
      </trkpt>
      <trkpt lat="59.9342314" lon="17.6443456">
        <ele>28.0155</ele>
        <time>2013-04-09T18:07:36Z</time>
      </trkpt>
      <trkpt lat="59.9342711" lon="17.644401">
        <ele>28.4962</ele>
        <time>2013-04-09T18:07:37Z</time>
      </trkpt>
      <trkpt lat="59.9343111" lon="17.6444534">
        <ele>28.4962</ele>
        <time>2013-04-09T18:07:38Z</time>
      </trkpt>
      <trkpt lat="59.9343493" lon="17.6445056">
        <ele>28.9769</ele>
        <time>2013-04-09T18:07:39Z</time>
      </trkpt>
      <trkpt lat="59.9343831" lon="17.644561">
        <ele>28.9769</ele>
        <time>2013-04-09T18:07:40Z</time>
      </trkpt>
      <trkpt lat="59.934412" lon="17.6446145">
        <ele>29.4575</ele>
        <time>2013-04-09T18:07:41Z</time>
      </trkpt>
      <trkpt lat="59.9344375" lon="17.6446625">
        <ele>29.4575</ele>
        <time>2013-04-09T18:07:42Z</time>
      </trkpt>
      <trkpt lat="59.9344616" lon="17.6447061">
        <ele>29.9381</ele>
        <time>2013-04-09T18:07:43Z</time>
      </trkpt>
      <trkpt lat="59.934487" lon="17.644744">
        <ele>29.9381</ele>
        <time>2013-04-09T18:07:44Z</time>
      </trkpt>
      <trkpt lat="59.9345132" lon="17.6447817">
        <ele>30.4188</ele>
        <time>2013-04-09T18:07:45Z</time>
      </trkpt>
      <trkpt lat="59.9345395" lon="17.6448216">
        <ele>30.4188</ele>
        <time>2013-04-09T18:07:46Z</time>
      </trkpt>
      <trkpt lat="59.9345663" lon="17.6448632">
        <ele>30.4188</ele>
        <time>2013-04-09T18:07:47Z</time>
      </trkpt>
      <trkpt lat="59.9345942" lon="17.6449051">
        <ele>30.4188</ele>
        <time>2013-04-09T18:07:48Z</time>
      </trkpt>
      <trkpt lat="59.9346232" lon="17.6449423">
        <ele>30.4188</ele>
        <time>2013-04-09T18:07:49Z</time>
      </trkpt>
      <trkpt lat="59.9346535" lon="17.6449791">
        <ele>30.8995</ele>
        <time>2013-04-09T18:07:50Z</time>
      </trkpt>
      <trkpt lat="59.9346861" lon="17.6450176">
        <ele>30.8995</ele>
        <time>2013-04-09T18:07:51Z</time>
      </trkpt>
      <trkpt lat="59.9347191" lon="17.6450563">
        <ele>31.3801</ele>
        <time>2013-04-09T18:07:52Z</time>
      </trkpt>
      <trkpt lat="59.9347524" lon="17.6450947">
        <ele>31.3801</ele>
        <time>2013-04-09T18:07:53Z</time>
      </trkpt>
      <trkpt lat="59.9347862" lon="17.645133">
        <ele>31.3801</ele>
        <time>2013-04-09T18:07:54Z</time>
      </trkpt>
      <trkpt lat="59.9348203" lon="17.6451712">
        <ele>31.3801</ele>
        <time>2013-04-09T18:07:55Z</time>
      </trkpt>
      <trkpt lat="59.9348535" lon="17.6452113">
        <ele>31.3801</ele>
        <time>2013-04-09T18:07:56Z</time>
      </trkpt>
      <trkpt lat="59.934888" lon="17.645254">
        <ele>31.3801</ele>
        <time>2013-04-09T18:07:57Z</time>
      </trkpt>
      <trkpt lat="59.9349231" lon="17.6452992">
        <ele>31.3801</ele>
        <time>2013-04-09T18:07:58Z</time>
      </trkpt>
      <trkpt lat="59.9349591" lon="17.6453478">
        <ele>31.3801</ele>
        <time>2013-04-09T18:07:59Z</time>
      </trkpt>
      <trkpt lat="59.9349975" lon="17.6454001">
        <ele>31.3801</ele>
        <time>2013-04-09T18:08:00Z</time>
      </trkpt>
      <trkpt lat="59.9350364" lon="17.645456">
        <ele>31.8607</ele>
        <time>2013-04-09T18:08:01Z</time>
      </trkpt>
      <trkpt lat="59.9350752" lon="17.6455145">
        <ele>31.8607</ele>
        <time>2013-04-09T18:08:02Z</time>
      </trkpt>
      <trkpt lat="59.9351112" lon="17.6455824">
        <ele>31.8607</ele>
        <time>2013-04-09T18:08:03Z</time>
      </trkpt>
      <trkpt lat="59.935143" lon="17.6456575">
        <ele>31.8607</ele>
        <time>2013-04-09T18:08:04Z</time>
      </trkpt>
      <trkpt lat="59.9351756" lon="17.6457328">
        <ele>31.8607</ele>
        <time>2013-04-09T18:08:05Z</time>
      </trkpt>
      <trkpt lat="59.9352098" lon="17.6458058">
        <ele>31.8607</ele>
        <time>2013-04-09T18:08:06Z</time>
      </trkpt>
      <trkpt lat="59.9352456" lon="17.64588">
        <ele>31.8607</ele>
        <time>2013-04-09T18:08:07Z</time>
      </trkpt>
      <trkpt lat="59.9352845" lon="17.6459545">
        <ele>31.8607</ele>
        <time>2013-04-09T18:08:08Z</time>
      </trkpt>
      <trkpt lat="59.9353269" lon="17.6460242">
        <ele>31.8607</ele>
        <time>2013-04-09T18:08:09Z</time>
      </trkpt>
      <trkpt lat="59.9353736" lon="17.6460887">
        <ele>31.8607</ele>
        <time>2013-04-09T18:08:10Z</time>
      </trkpt>
      <trkpt lat="59.9354221" lon="17.6461503">
        <ele>31.8607</ele>
        <time>2013-04-09T18:08:11Z</time>
      </trkpt>
      <trkpt lat="59.9354717" lon="17.6462126">
        <ele>31.8607</ele>
        <time>2013-04-09T18:08:12Z</time>
      </trkpt>
      <trkpt lat="59.9355217" lon="17.6462767">
        <ele>31.8607</ele>
        <time>2013-04-09T18:08:13Z</time>
      </trkpt>
      <trkpt lat="59.9355732" lon="17.646342">
        <ele>31.8607</ele>
        <time>2013-04-09T18:08:14Z</time>
      </trkpt>
      <trkpt lat="59.9356266" lon="17.6464078">
        <ele>31.8607</ele>
        <time>2013-04-09T18:08:15Z</time>
      </trkpt>
      <trkpt lat="59.9356802" lon="17.6464756">
        <ele>31.8607</ele>
        <time>2013-04-09T18:08:16Z</time>
      </trkpt>
      <trkpt lat="59.9357336" lon="17.646545">
        <ele>31.8607</ele>
        <time>2013-04-09T18:08:17Z</time>
      </trkpt>
      <trkpt lat="59.9357874" lon="17.6466138">
        <ele>31.8607</ele>
        <time>2013-04-09T18:08:18Z</time>
      </trkpt>
      <trkpt lat="59.9358423" lon="17.6466813">
        <ele>31.8607</ele>
        <time>2013-04-09T18:08:19Z</time>
      </trkpt>
      <trkpt lat="59.9358977" lon="17.6467492">
        <ele>31.8607</ele>
        <time>2013-04-09T18:08:20Z</time>
      </trkpt>
      <trkpt lat="59.9359522" lon="17.6468202">
        <ele>31.8607</ele>
        <time>2013-04-09T18:08:21Z</time>
      </trkpt>
      <trkpt lat="59.9360073" lon="17.6468911">
        <ele>31.8607</ele>
        <time>2013-04-09T18:08:22Z</time>
      </trkpt>
      <trkpt lat="59.9360631" lon="17.6469622">
        <ele>31.8607</ele>
        <time>2013-04-09T18:08:23Z</time>
      </trkpt>
      <trkpt lat="59.9361195" lon="17.6470352">
        <ele>31.8607</ele>
        <time>2013-04-09T18:08:24Z</time>
      </trkpt>
      <trkpt lat="59.9361769" lon="17.6471086">
        <ele>31.8607</ele>
        <time>2013-04-09T18:08:25Z</time>
      </trkpt>
      <trkpt lat="59.9362343" lon="17.6471827">
        <ele>31.8607</ele>
        <time>2013-04-09T18:08:26Z</time>
      </trkpt>
      <trkpt lat="59.9362925" lon="17.6472559">
        <ele>31.8607</ele>
        <time>2013-04-09T18:08:27Z</time>
      </trkpt>
      <trkpt lat="59.9363516" lon="17.6473302">
        <ele>31.8607</ele>
        <time>2013-04-09T18:08:28Z</time>
      </trkpt>
      <trkpt lat="59.936411" lon="17.6474053">
        <ele>31.8607</ele>
        <time>2013-04-09T18:08:29Z</time>
      </trkpt>
      <trkpt lat="59.9364707" lon="17.6474802">
        <ele>31.8607</ele>
        <time>2013-04-09T18:08:30Z</time>
      </trkpt>
      <trkpt lat="59.9365302" lon="17.6475558">
        <ele>31.8607</ele>
        <time>2013-04-09T18:08:31Z</time>
      </trkpt>
      <trkpt lat="59.9365893" lon="17.6476321">
        <ele>31.8607</ele>
        <time>2013-04-09T18:08:32Z</time>
      </trkpt>
      <trkpt lat="59.9366486" lon="17.6477075">
        <ele>31.8607</ele>
        <time>2013-04-09T18:08:33Z</time>
      </trkpt>
      <trkpt lat="59.9367084" lon="17.6477826">
        <ele>31.8607</ele>
        <time>2013-04-09T18:08:34Z</time>
      </trkpt>
      <trkpt lat="59.9367694" lon="17.6478585">
        <ele>31.8607</ele>
        <time>2013-04-09T18:08:35Z</time>
      </trkpt>
      <trkpt lat="59.936831" lon="17.6479354">
        <ele>31.8607</ele>
        <time>2013-04-09T18:08:36Z</time>
      </trkpt>
      <trkpt lat="59.9368926" lon="17.6480148">
        <ele>31.8607</ele>
        <time>2013-04-09T18:08:37Z</time>
      </trkpt>
      <trkpt lat="59.9369539" lon="17.6480944">
        <ele>31.8607</ele>
        <time>2013-04-09T18:08:38Z</time>
      </trkpt>
      <trkpt lat="59.9370156" lon="17.6481742">
        <ele>31.8607</ele>
        <time>2013-04-09T18:08:39Z</time>
      </trkpt>
      <trkpt lat="59.9370772" lon="17.6482558">
        <ele>31.8607</ele>
        <time>2013-04-09T18:08:40Z</time>
      </trkpt>
      <trkpt lat="59.9371393" lon="17.6483369">
        <ele>31.3801</ele>
        <time>2013-04-09T18:08:41Z</time>
      </trkpt>
      <trkpt lat="59.937202" lon="17.6484202">
        <ele>31.3801</ele>
        <time>2013-04-09T18:08:42Z</time>
      </trkpt>
      <trkpt lat="59.9372651" lon="17.6485079">
        <ele>31.3801</ele>
        <time>2013-04-09T18:08:43Z</time>
      </trkpt>
      <trkpt lat="59.9373274" lon="17.6485995">
        <ele>31.3801</ele>
        <time>2013-04-09T18:08:44Z</time>
      </trkpt>
      <trkpt lat="59.9373895" lon="17.6486939">
        <ele>31.3801</ele>
        <time>2013-04-09T18:08:45Z</time>
      </trkpt>
      <trkpt lat="59.9374519" lon="17.6487907">
        <ele>30.8995</ele>
        <time>2013-04-09T18:08:46Z</time>
      </trkpt>
      <trkpt lat="59.9375138" lon="17.6488875">
        <ele>30.8995</ele>
        <time>2013-04-09T18:08:47Z</time>
      </trkpt>
      <trkpt lat="59.9375756" lon="17.648987">
        <ele>30.8995</ele>
        <time>2013-04-09T18:08:48Z</time>
      </trkpt>
      <trkpt lat="59.9376356" lon="17.6490932">
        <ele>30.4188</ele>
        <time>2013-04-09T18:08:49Z</time>
      </trkpt>
      <trkpt lat="59.9376963" lon="17.6492051">
        <ele>30.4188</ele>
        <time>2013-04-09T18:08:50Z</time>
      </trkpt>
      <trkpt lat="59.9377523" lon="17.649325">
        <ele>30.4188</ele>
        <time>2013-04-09T18:08:51Z</time>
      </trkpt>
      <trkpt lat="59.9378" lon="17.6494614">
        <ele>29.9381</ele>
        <time>2013-04-09T18:08:52Z</time>
      </trkpt>
      <trkpt lat="59.9378434" lon="17.6496048">
        <ele>29.9381</ele>
        <time>2013-04-09T18:08:53Z</time>
      </trkpt>
      <trkpt lat="59.9378908" lon="17.6497431">
        <ele>29.4575</ele>
        <time>2013-04-09T18:08:54Z</time>
      </trkpt>
      <trkpt lat="59.937944" lon="17.6498746">
        <ele>29.4575</ele>
        <time>2013-04-09T18:08:55Z</time>
      </trkpt>
      <trkpt lat="59.9379991" lon="17.6500042">
        <ele>29.4575</ele>
        <time>2013-04-09T18:08:56Z</time>
      </trkpt>
      <trkpt lat="59.9380516" lon="17.6501385">
        <ele>29.4575</ele>
        <time>2013-04-09T18:08:57Z</time>
      </trkpt>
      <trkpt lat="59.9381027" lon="17.6502757">
        <ele>28.9769</ele>
        <time>2013-04-09T18:08:58Z</time>
      </trkpt>
      <trkpt lat="59.9381527" lon="17.650414">
        <ele>28.9769</ele>
        <time>2013-04-09T18:08:59Z</time>
      </trkpt>
      <trkpt lat="59.9382024" lon="17.6505529">
        <ele>28.9769</ele>
        <time>2013-04-09T18:09:00Z</time>
      </trkpt>
      <trkpt lat="59.9382531" lon="17.6506895">
        <ele>28.9769</ele>
        <time>2013-04-09T18:09:01Z</time>
      </trkpt>
      <trkpt lat="59.9383061" lon="17.6508207">
        <ele>28.9769</ele>
        <time>2013-04-09T18:09:02Z</time>
      </trkpt>
      <trkpt lat="59.9383617" lon="17.6509445">
        <ele>28.4962</ele>
        <time>2013-04-09T18:09:03Z</time>
      </trkpt>
      <trkpt lat="59.9384176" lon="17.651066">
        <ele>28.9769</ele>
        <time>2013-04-09T18:09:04Z</time>
      </trkpt>
      <trkpt lat="59.9384689" lon="17.6511932">
        <ele>28.9769</ele>
        <time>2013-04-09T18:09:05Z</time>
      </trkpt>
      <trkpt lat="59.9385152" lon="17.6513262">
        <ele>28.9769</ele>
        <time>2013-04-09T18:09:06Z</time>
      </trkpt>
      <trkpt lat="59.9385591" lon="17.6514603">
        <ele>28.9769</ele>
        <time>2013-04-09T18:09:07Z</time>
      </trkpt>
      <trkpt lat="59.9386021" lon="17.6515932">
        <ele>28.9769</ele>
        <time>2013-04-09T18:09:08Z</time>
      </trkpt>
      <trkpt lat="59.9386442" lon="17.6517261">
        <ele>28.9769</ele>
        <time>2013-04-09T18:09:09Z</time>
      </trkpt>
      <trkpt lat="59.9386856" lon="17.6518593">
        <ele>28.9769</ele>
        <time>2013-04-09T18:09:10Z</time>
      </trkpt>
      <trkpt lat="59.9387266" lon="17.6519919">
        <ele>28.9769</ele>
        <time>2013-04-09T18:09:11Z</time>
      </trkpt>
      <trkpt lat="59.9387665" lon="17.6521249">
        <ele>28.9769</ele>
        <time>2013-04-09T18:09:12Z</time>
      </trkpt>
      <trkpt lat="59.9388051" lon="17.6522587">
        <ele>28.9769</ele>
        <time>2013-04-09T18:09:13Z</time>
      </trkpt>
      <trkpt lat="59.938842" lon="17.6523935">
        <ele>29.4575</ele>
        <time>2013-04-09T18:09:14Z</time>
      </trkpt>
      <trkpt lat="59.9388771" lon="17.6525297">
        <ele>29.4575</ele>
        <time>2013-04-09T18:09:15Z</time>
      </trkpt>
      <trkpt lat="59.9389121" lon="17.6526647">
        <ele>29.4575</ele>
        <time>2013-04-09T18:09:16Z</time>
      </trkpt>
      <trkpt lat="59.9389478" lon="17.6527985">
        <ele>29.4575</ele>
        <time>2013-04-09T18:09:17Z</time>
      </trkpt>
      <trkpt lat="59.9389825" lon="17.6529326">
        <ele>29.4575</ele>
        <time>2013-04-09T18:09:18Z</time>
      </trkpt>
      <trkpt lat="59.9390165" lon="17.6530672">
        <ele>29.4575</ele>
        <time>2013-04-09T18:09:19Z</time>
      </trkpt>
      <trkpt lat="59.9390494" lon="17.6532021">
        <ele>29.4575</ele>
        <time>2013-04-09T18:09:20Z</time>
      </trkpt>
      <trkpt lat="59.9390813" lon="17.6533373">
        <ele>29.9381</ele>
        <time>2013-04-09T18:09:21Z</time>
      </trkpt>
      <trkpt lat="59.9391123" lon="17.6534725">
        <ele>29.9381</ele>
        <time>2013-04-09T18:09:22Z</time>
      </trkpt>
      <trkpt lat="59.9391431" lon="17.6536067">
        <ele>29.9381</ele>
        <time>2013-04-09T18:09:23Z</time>
      </trkpt>
      <trkpt lat="59.9391729" lon="17.6537412">
        <ele>29.9381</ele>
        <time>2013-04-09T18:09:24Z</time>
      </trkpt>
      <trkpt lat="59.939201" lon="17.653876">
        <ele>29.9381</ele>
        <time>2013-04-09T18:09:25Z</time>
      </trkpt>
      <trkpt lat="59.9392289" lon="17.6540102">
        <ele>29.9381</ele>
        <time>2013-04-09T18:09:26Z</time>
      </trkpt>
      <trkpt lat="59.9392566" lon="17.6541443">
        <ele>29.9381</ele>
        <time>2013-04-09T18:09:27Z</time>
      </trkpt>
      <trkpt lat="59.939285" lon="17.654277">
        <ele>29.9381</ele>
        <time>2013-04-09T18:09:28Z</time>
      </trkpt>
      <trkpt lat="59.9393135" lon="17.6544088">
        <ele>29.9381</ele>
        <time>2013-04-09T18:09:29Z</time>
      </trkpt>
      <trkpt lat="59.9393409" lon="17.6545404">
        <ele>29.9381</ele>
        <time>2013-04-09T18:09:30Z</time>
      </trkpt>
      <trkpt lat="59.939368" lon="17.6546721">
        <ele>29.9381</ele>
        <time>2013-04-09T18:09:31Z</time>
      </trkpt>
      <trkpt lat="59.9393948" lon="17.6548042">
        <ele>29.9381</ele>
        <time>2013-04-09T18:09:32Z</time>
      </trkpt>
      <trkpt lat="59.9394212" lon="17.6549363">
        <ele>29.9381</ele>
        <time>2013-04-09T18:09:33Z</time>
      </trkpt>
      <trkpt lat="59.939448" lon="17.655069">
        <ele>29.9381</ele>
        <time>2013-04-09T18:09:34Z</time>
      </trkpt>
      <trkpt lat="59.9394736" lon="17.6552025">
        <ele>30.4188</ele>
        <time>2013-04-09T18:09:35Z</time>
      </trkpt>
      <trkpt lat="59.9394992" lon="17.6553346">
        <ele>30.4188</ele>
        <time>2013-04-09T18:09:36Z</time>
      </trkpt>
      <trkpt lat="59.9395259" lon="17.6554653">
        <ele>30.4188</ele>
        <time>2013-04-09T18:09:37Z</time>
      </trkpt>
      <trkpt lat="59.9395524" lon="17.6555957">
        <ele>30.4188</ele>
        <time>2013-04-09T18:09:38Z</time>
      </trkpt>
      <trkpt lat="59.9395791" lon="17.6557262">
        <ele>30.4188</ele>
        <time>2013-04-09T18:09:39Z</time>
      </trkpt>
      <trkpt lat="59.9396061" lon="17.6558571">
        <ele>30.4188</ele>
        <time>2013-04-09T18:09:40Z</time>
      </trkpt>
      <trkpt lat="59.939634" lon="17.6559883">
        <ele>30.4188</ele>
        <time>2013-04-09T18:09:41Z</time>
      </trkpt>
      <trkpt lat="59.9396626" lon="17.6561201">
        <ele>29.9381</ele>
        <time>2013-04-09T18:09:42Z</time>
      </trkpt>
      <trkpt lat="59.9396901" lon="17.6562546">
        <ele>29.9381</ele>
        <time>2013-04-09T18:09:43Z</time>
      </trkpt>
      <trkpt lat="59.9397174" lon="17.6563901">
        <ele>29.9381</ele>
        <time>2013-04-09T18:09:44Z</time>
      </trkpt>
      <trkpt lat="59.9397456" lon="17.6565256">
        <ele>29.9381</ele>
        <time>2013-04-09T18:09:45Z</time>
      </trkpt>
      <trkpt lat="59.9397733" lon="17.6566626">
        <ele>29.9381</ele>
        <time>2013-04-09T18:09:46Z</time>
      </trkpt>
      <trkpt lat="59.9397997" lon="17.6568016">
        <ele>29.9381</ele>
        <time>2013-04-09T18:09:47Z</time>
      </trkpt>
      <trkpt lat="59.9398263" lon="17.6569415">
        <ele>29.4575</ele>
        <time>2013-04-09T18:09:48Z</time>
      </trkpt>
      <trkpt lat="59.9398542" lon="17.6570819">
        <ele>29.4575</ele>
        <time>2013-04-09T18:09:49Z</time>
      </trkpt>
      <trkpt lat="59.9398829" lon="17.6572243">
        <ele>29.4575</ele>
        <time>2013-04-09T18:09:50Z</time>
      </trkpt>
      <trkpt lat="59.9399118" lon="17.6573695">
        <ele>28.9769</ele>
        <time>2013-04-09T18:09:51Z</time>
      </trkpt>
      <trkpt lat="59.9399413" lon="17.657517">
        <ele>28.9769</ele>
        <time>2013-04-09T18:09:52Z</time>
      </trkpt>
      <trkpt lat="59.9399714" lon="17.6576658">
        <ele>28.4962</ele>
        <time>2013-04-09T18:09:53Z</time>
      </trkpt>
      <trkpt lat="59.9400023" lon="17.6578159">
        <ele>28.4962</ele>
        <time>2013-04-09T18:09:54Z</time>
      </trkpt>
      <trkpt lat="59.9400345" lon="17.6579667">
        <ele>28.4962</ele>
        <time>2013-04-09T18:09:55Z</time>
      </trkpt>
      <trkpt lat="59.9400673" lon="17.6581194">
        <ele>28.0155</ele>
        <time>2013-04-09T18:09:56Z</time>
      </trkpt>
      <trkpt lat="59.9401003" lon="17.6582747">
        <ele>28.0155</ele>
        <time>2013-04-09T18:09:57Z</time>
      </trkpt>
      <trkpt lat="59.9401345" lon="17.6584312">
        <ele>27.5349</ele>
        <time>2013-04-09T18:09:58Z</time>
      </trkpt>
      <trkpt lat="59.9401707" lon="17.6585875">
        <ele>27.5349</ele>
        <time>2013-04-09T18:09:59Z</time>
      </trkpt>
      <trkpt lat="59.9402071" lon="17.6587451">
        <ele>27.5349</ele>
        <time>2013-04-09T18:10:00Z</time>
      </trkpt>
      <trkpt lat="59.9402428" lon="17.6589044">
        <ele>27.5349</ele>
        <time>2013-04-09T18:10:01Z</time>
      </trkpt>
      <trkpt lat="59.9402758" lon="17.6590638">
        <ele>27.5349</ele>
        <time>2013-04-09T18:10:02Z</time>
      </trkpt>
      <trkpt lat="59.940305" lon="17.6592217">
        <ele>27.5349</ele>
        <time>2013-04-09T18:10:03Z</time>
      </trkpt>
      <trkpt lat="59.9403319" lon="17.6593763">
        <ele>28.0155</ele>
        <time>2013-04-09T18:10:04Z</time>
      </trkpt>
      <trkpt lat="59.9403576" lon="17.6595265">
        <ele>28.0155</ele>
        <time>2013-04-09T18:10:05Z</time>
      </trkpt>
      <trkpt lat="59.9403851" lon="17.6596678">
        <ele>28.4962</ele>
        <time>2013-04-09T18:10:06Z</time>
      </trkpt>
      <trkpt lat="59.9404148" lon="17.6598015">
        <ele>28.4962</ele>
        <time>2013-04-09T18:10:07Z</time>
      </trkpt>
      <trkpt lat="59.9404441" lon="17.6599361">
        <ele>28.4962</ele>
        <time>2013-04-09T18:10:08Z</time>
      </trkpt>
      <trkpt lat="59.9404789" lon="17.6600516">
        <ele>28.9769</ele>
        <time>2013-04-09T18:10:09Z</time>
      </trkpt>
      <trkpt lat="59.9404969" lon="17.6601536">
        <ele>28.9769</ele>
        <time>2013-04-09T18:10:10Z</time>
      </trkpt>
      <trkpt lat="59.9405228" lon="17.6603075">
        <ele>28.9769</ele>
        <time>2013-04-09T18:10:11Z</time>
      </trkpt>
      <trkpt lat="59.9405236" lon="17.6604848">
        <ele>28.4962</ele>
        <time>2013-04-09T18:10:12Z</time>
      </trkpt>
      <trkpt lat="59.9405021" lon="17.6606355">
        <ele>28.0155</ele>
        <time>2013-04-09T18:10:13Z</time>
      </trkpt>
      <trkpt lat="59.94047" lon="17.6607889">
        <ele>27.5349</ele>
        <time>2013-04-09T18:10:14Z</time>
      </trkpt>
      <trkpt lat="59.9404355" lon="17.6609379">
        <ele>27.5349</ele>
        <time>2013-04-09T18:10:15Z</time>
      </trkpt>
      <trkpt lat="59.9404115" lon="17.6610897">
        <ele>27.5349</ele>
        <time>2013-04-09T18:10:16Z</time>
      </trkpt>
      <trkpt lat="59.9403987" lon="17.6612462">
        <ele>27.5349</ele>
        <time>2013-04-09T18:10:17Z</time>
      </trkpt>
      <trkpt lat="59.9403996" lon="17.661404">
        <ele>27.5349</ele>
        <time>2013-04-09T18:10:18Z</time>
      </trkpt>
      <trkpt lat="59.9404101" lon="17.6615534">
        <ele>27.5349</ele>
        <time>2013-04-09T18:10:19Z</time>
      </trkpt>
      <trkpt lat="59.9404296" lon="17.6616938">
        <ele>28.0155</ele>
        <time>2013-04-09T18:10:20Z</time>
      </trkpt>
      <trkpt lat="59.9404608" lon="17.6618222">
        <ele>28.0155</ele>
        <time>2013-04-09T18:10:21Z</time>
      </trkpt>
      <trkpt lat="59.9405031" lon="17.6619321">
        <ele>28.4962</ele>
        <time>2013-04-09T18:10:22Z</time>
      </trkpt>
      <trkpt lat="59.9405536" lon="17.6620221">
        <ele>28.4962</ele>
        <time>2013-04-09T18:10:23Z</time>
      </trkpt>
      <trkpt lat="59.940609" lon="17.66209">
        <ele>28.4962</ele>
        <time>2013-04-09T18:10:24Z</time>
      </trkpt>
      <trkpt lat="59.9406713" lon="17.6621307">
        <ele>28.9769</ele>
        <time>2013-04-09T18:10:25Z</time>
      </trkpt>
      <trkpt lat="59.9407344" lon="17.6621548">
        <ele>28.9769</ele>
        <time>2013-04-09T18:10:26Z</time>
      </trkpt>
      <trkpt lat="59.940798" lon="17.662165">
        <ele>28.9769</ele>
        <time>2013-04-09T18:10:27Z</time>
      </trkpt>
      <trkpt lat="59.9408613" lon="17.6621724">
        <ele>28.9769</ele>
        <time>2013-04-09T18:10:28Z</time>
      </trkpt>
      <trkpt lat="59.940925" lon="17.6621867">
        <ele>28.9769</ele>
        <time>2013-04-09T18:10:29Z</time>
      </trkpt>
      <trkpt lat="59.940989" lon="17.6622065">
        <ele>28.9769</ele>
        <time>2013-04-09T18:10:30Z</time>
      </trkpt>
      <trkpt lat="59.9410525" lon="17.662233">
        <ele>28.9769</ele>
        <time>2013-04-09T18:10:31Z</time>
      </trkpt>
      <trkpt lat="59.9411155" lon="17.6622672">
        <ele>28.9769</ele>
        <time>2013-04-09T18:10:32Z</time>
      </trkpt>
      <trkpt lat="59.9411783" lon="17.6623066">
        <ele>28.9769</ele>
        <time>2013-04-09T18:10:33Z</time>
      </trkpt>
      <trkpt lat="59.9412414" lon="17.6623515">
        <ele>29.4575</ele>
        <time>2013-04-09T18:10:34Z</time>
      </trkpt>
      <trkpt lat="59.9413048" lon="17.662404">
        <ele>29.4575</ele>
        <time>2013-04-09T18:10:35Z</time>
      </trkpt>
      <trkpt lat="59.9413675" lon="17.6624648">
        <ele>29.4575</ele>
        <time>2013-04-09T18:10:36Z</time>
      </trkpt>
      <trkpt lat="59.9414291" lon="17.6625343">
        <ele>29.4575</ele>
        <time>2013-04-09T18:10:37Z</time>
      </trkpt>
      <trkpt lat="59.9414887" lon="17.6626133">
        <ele>29.4575</ele>
        <time>2013-04-09T18:10:38Z</time>
      </trkpt>
      <trkpt lat="59.9415467" lon="17.662699">
        <ele>29.4575</ele>
        <time>2013-04-09T18:10:39Z</time>
      </trkpt>
      <trkpt lat="59.9416034" lon="17.6627893">
        <ele>29.4575</ele>
        <time>2013-04-09T18:10:40Z</time>
      </trkpt>
      <trkpt lat="59.9416579" lon="17.6628846">
        <ele>29.4575</ele>
        <time>2013-04-09T18:10:41Z</time>
      </trkpt>
      <trkpt lat="59.9417103" lon="17.6629841">
        <ele>29.4575</ele>
        <time>2013-04-09T18:10:42Z</time>
      </trkpt>
      <trkpt lat="59.9417642" lon="17.6630851">
        <ele>29.4575</ele>
        <time>2013-04-09T18:10:43Z</time>
      </trkpt>
      <trkpt lat="59.9418196" lon="17.663183">
        <ele>29.4575</ele>
        <time>2013-04-09T18:10:44Z</time>
      </trkpt>
      <trkpt lat="59.9418761" lon="17.6632795">
        <ele>29.9381</ele>
        <time>2013-04-09T18:10:45Z</time>
      </trkpt>
      <trkpt lat="59.9419339" lon="17.6633731">
        <ele>29.9381</ele>
        <time>2013-04-09T18:10:46Z</time>
      </trkpt>
      <trkpt lat="59.9419931" lon="17.6634653">
        <ele>29.9381</ele>
        <time>2013-04-09T18:10:47Z</time>
      </trkpt>
      <trkpt lat="59.9420537" lon="17.6635592">
        <ele>29.9381</ele>
        <time>2013-04-09T18:10:48Z</time>
      </trkpt>
      <trkpt lat="59.9421153" lon="17.6636545">
        <ele>30.4188</ele>
        <time>2013-04-09T18:10:49Z</time>
      </trkpt>
      <trkpt lat="59.9421754" lon="17.6637464">
        <ele>30.4188</ele>
        <time>2013-04-09T18:10:50Z</time>
      </trkpt>
      <trkpt lat="59.9422375" lon="17.6638336">
        <ele>30.4188</ele>
        <time>2013-04-09T18:10:51Z</time>
      </trkpt>
      <trkpt lat="59.9423004" lon="17.6639217">
        <ele>30.4188</ele>
        <time>2013-04-09T18:10:52Z</time>
      </trkpt>
      <trkpt lat="59.9423654" lon="17.6640088">
        <ele>30.4188</ele>
        <time>2013-04-09T18:10:53Z</time>
      </trkpt>
      <trkpt lat="59.9424309" lon="17.6640957">
        <ele>30.4188</ele>
        <time>2013-04-09T18:10:54Z</time>
      </trkpt>
      <trkpt lat="59.942498" lon="17.664181">
        <ele>30.4188</ele>
        <time>2013-04-09T18:10:55Z</time>
      </trkpt>
      <trkpt lat="59.9425654" lon="17.6642662">
        <ele>30.4188</ele>
        <time>2013-04-09T18:10:56Z</time>
      </trkpt>
      <trkpt lat="59.9426342" lon="17.6643516">
        <ele>30.4188</ele>
        <time>2013-04-09T18:10:57Z</time>
      </trkpt>
      <trkpt lat="59.9427042" lon="17.664436">
        <ele>30.4188</ele>
        <time>2013-04-09T18:10:58Z</time>
      </trkpt>
      <trkpt lat="59.9427759" lon="17.6645195">
        <ele>30.4188</ele>
        <time>2013-04-09T18:10:59Z</time>
      </trkpt>
      <trkpt lat="59.9428489" lon="17.6646018">
        <ele>30.4188</ele>
        <time>2013-04-09T18:11:00Z</time>
      </trkpt>
      <trkpt lat="59.9429233" lon="17.6646815">
        <ele>30.4188</ele>
        <time>2013-04-09T18:11:01Z</time>
      </trkpt>
      <trkpt lat="59.9429991" lon="17.6647576">
        <ele>30.4188</ele>
        <time>2013-04-09T18:11:02Z</time>
      </trkpt>
      <trkpt lat="59.9430766" lon="17.6648307">
        <ele>30.4188</ele>
        <time>2013-04-09T18:11:03Z</time>
      </trkpt>
      <trkpt lat="59.9431556" lon="17.6649016">
        <ele>29.9381</ele>
        <time>2013-04-09T18:11:04Z</time>
      </trkpt>
      <trkpt lat="59.9432353" lon="17.6649729">
        <ele>29.9381</ele>
        <time>2013-04-09T18:11:05Z</time>
      </trkpt>
      <trkpt lat="59.9433159" lon="17.6650442">
        <ele>29.9381</ele>
        <time>2013-04-09T18:11:06Z</time>
      </trkpt>
      <trkpt lat="59.9433968" lon="17.6651135">
        <ele>29.9381</ele>
        <time>2013-04-09T18:11:07Z</time>
      </trkpt>
      <trkpt lat="59.9434791" lon="17.6651775">
        <ele>29.9381</ele>
        <time>2013-04-09T18:11:08Z</time>
      </trkpt>
      <trkpt lat="59.9435622" lon="17.6652363">
        <ele>29.9381</ele>
        <time>2013-04-09T18:11:09Z</time>
      </trkpt>
      <trkpt lat="59.9436456" lon="17.6652932">
        <ele>29.9381</ele>
        <time>2013-04-09T18:11:10Z</time>
      </trkpt>
      <trkpt lat="59.9437312" lon="17.6653458">
        <ele>30.4188</ele>
        <time>2013-04-09T18:11:11Z</time>
      </trkpt>
      <trkpt lat="59.9438176" lon="17.6653959">
        <ele>30.4188</ele>
        <time>2013-04-09T18:11:12Z</time>
      </trkpt>
      <trkpt lat="59.9439042" lon="17.6654446">
        <ele>30.4188</ele>
        <time>2013-04-09T18:11:13Z</time>
      </trkpt>
      <trkpt lat="59.9439912" lon="17.6654911">
        <ele>30.8995</ele>
        <time>2013-04-09T18:11:14Z</time>
      </trkpt>
      <trkpt lat="59.9440783" lon="17.6655349">
        <ele>30.8995</ele>
        <time>2013-04-09T18:11:15Z</time>
      </trkpt>
      <trkpt lat="59.9441653" lon="17.6655773">
        <ele>30.8995</ele>
        <time>2013-04-09T18:11:16Z</time>
      </trkpt>
      <trkpt lat="59.9442522" lon="17.6656175">
        <ele>30.8995</ele>
        <time>2013-04-09T18:11:17Z</time>
      </trkpt>
      <trkpt lat="59.9443395" lon="17.665654">
        <ele>30.8995</ele>
        <time>2013-04-09T18:11:18Z</time>
      </trkpt>
      <trkpt lat="59.9444268" lon="17.6656872">
        <ele>31.3801</ele>
        <time>2013-04-09T18:11:19Z</time>
      </trkpt>
      <trkpt lat="59.9445148" lon="17.6657197">
        <ele>31.3801</ele>
        <time>2013-04-09T18:11:20Z</time>
      </trkpt>
      <trkpt lat="59.9446034" lon="17.6657523">
        <ele>31.3801</ele>
        <time>2013-04-09T18:11:21Z</time>
      </trkpt>
      <trkpt lat="59.9446924" lon="17.665785">
        <ele>31.3801</ele>
        <time>2013-04-09T18:11:22Z</time>
      </trkpt>
      <trkpt lat="59.9447812" lon="17.6658177">
        <ele>31.3801</ele>
        <time>2013-04-09T18:11:23Z</time>
      </trkpt>
      <trkpt lat="59.9448702" lon="17.6658496">
        <ele>31.8607</ele>
        <time>2013-04-09T18:11:24Z</time>
      </trkpt>
      <trkpt lat="59.9449588" lon="17.6658827">
        <ele>31.8607</ele>
        <time>2013-04-09T18:11:25Z</time>
      </trkpt>
      <trkpt lat="59.9450467" lon="17.6659181">
        <ele>31.8607</ele>
        <time>2013-04-09T18:11:26Z</time>
      </trkpt>
      <trkpt lat="59.9451338" lon="17.6659538">
        <ele>31.8607</ele>
        <time>2013-04-09T18:11:27Z</time>
      </trkpt>
      <trkpt lat="59.9452209" lon="17.6659871">
        <ele>31.8607</ele>
        <time>2013-04-09T18:11:28Z</time>
      </trkpt>
      <trkpt lat="59.9453075" lon="17.6660185">
        <ele>31.8607</ele>
        <time>2013-04-09T18:11:29Z</time>
      </trkpt>
      <trkpt lat="59.9453938" lon="17.6660503">
        <ele>31.8607</ele>
        <time>2013-04-09T18:11:30Z</time>
      </trkpt>
      <trkpt lat="59.9454788" lon="17.6660817">
        <ele>31.8607</ele>
        <time>2013-04-09T18:11:31Z</time>
      </trkpt>
      <trkpt lat="59.9455629" lon="17.6661119">
        <ele>31.8607</ele>
        <time>2013-04-09T18:11:32Z</time>
      </trkpt>
      <trkpt lat="59.9456467" lon="17.6661424">
        <ele>31.3801</ele>
        <time>2013-04-09T18:11:33Z</time>
      </trkpt>
      <trkpt lat="59.9457296" lon="17.6661735">
        <ele>31.3801</ele>
        <time>2013-04-09T18:11:34Z</time>
      </trkpt>
      <trkpt lat="59.945811" lon="17.666205">
        <ele>31.3801</ele>
        <time>2013-04-09T18:11:35Z</time>
      </trkpt>
      <trkpt lat="59.9458912" lon="17.6662349">
        <ele>31.3801</ele>
        <time>2013-04-09T18:11:36Z</time>
      </trkpt>
      <trkpt lat="59.9459704" lon="17.6662636">
        <ele>31.3801</ele>
        <time>2013-04-09T18:11:37Z</time>
      </trkpt>
      <trkpt lat="59.9460485" lon="17.6662926">
        <ele>31.3801</ele>
        <time>2013-04-09T18:11:38Z</time>
      </trkpt>
      <trkpt lat="59.9461268" lon="17.6663221">
        <ele>31.3801</ele>
        <time>2013-04-09T18:11:39Z</time>
      </trkpt>
      <trkpt lat="59.9462039" lon="17.6663584">
        <ele>31.3801</ele>
        <time>2013-04-09T18:11:40Z</time>
      </trkpt>
      <trkpt lat="59.9462788" lon="17.666407">
        <ele>31.3801</ele>
        <time>2013-04-09T18:11:41Z</time>
      </trkpt>
      <trkpt lat="59.9463536" lon="17.6664589">
        <ele>31.3801</ele>
        <time>2013-04-09T18:11:42Z</time>
      </trkpt>
      <trkpt lat="59.9464294" lon="17.6665033">
        <ele>30.8995</ele>
        <time>2013-04-09T18:11:43Z</time>
      </trkpt>
      <trkpt lat="59.9465066" lon="17.6665367">
        <ele>30.8995</ele>
        <time>2013-04-09T18:11:44Z</time>
      </trkpt>
      <trkpt lat="59.9465851" lon="17.6665576">
        <ele>30.8995</ele>
        <time>2013-04-09T18:11:45Z</time>
      </trkpt>
      <trkpt lat="59.9466639" lon="17.6665662">
        <ele>30.8995</ele>
        <time>2013-04-09T18:11:46Z</time>
      </trkpt>
      <trkpt lat="59.9467427" lon="17.6665742">
        <ele>30.8995</ele>
        <time>2013-04-09T18:11:47Z</time>
      </trkpt>
      <trkpt lat="59.9468221" lon="17.6665923">
        <ele>30.4188</ele>
        <time>2013-04-09T18:11:48Z</time>
      </trkpt>
      <trkpt lat="59.9469019" lon="17.6666206">
        <ele>30.4188</ele>
        <time>2013-04-09T18:11:49Z</time>
      </trkpt>
      <trkpt lat="59.9469821" lon="17.6666533">
        <ele>30.4188</ele>
        <time>2013-04-09T18:11:50Z</time>
      </trkpt>
      <trkpt lat="59.9470623" lon="17.6666866">
        <ele>30.4188</ele>
        <time>2013-04-09T18:11:51Z</time>
      </trkpt>
      <trkpt lat="59.9471426" lon="17.6667215">
        <ele>29.9381</ele>
        <time>2013-04-09T18:11:52Z</time>
      </trkpt>
      <trkpt lat="59.9472229" lon="17.6667594">
        <ele>29.9381</ele>
        <time>2013-04-09T18:11:53Z</time>
      </trkpt>
      <trkpt lat="59.9473029" lon="17.6667986">
        <ele>29.9381</ele>
        <time>2013-04-09T18:11:54Z</time>
      </trkpt>
      <trkpt lat="59.9473835" lon="17.666837">
        <ele>29.9381</ele>
        <time>2013-04-09T18:11:55Z</time>
      </trkpt>
      <trkpt lat="59.9474639" lon="17.6668762">
        <ele>29.9381</ele>
        <time>2013-04-09T18:11:56Z</time>
      </trkpt>
      <trkpt lat="59.9475442" lon="17.6669164">
        <ele>29.4575</ele>
        <time>2013-04-09T18:11:57Z</time>
      </trkpt>
      <trkpt lat="59.9476248" lon="17.6669565">
        <ele>29.4575</ele>
        <time>2013-04-09T18:11:58Z</time>
      </trkpt>
      <trkpt lat="59.9477053" lon="17.6669975">
        <ele>29.4575</ele>
        <time>2013-04-09T18:11:59Z</time>
      </trkpt>
      <trkpt lat="59.947786" lon="17.6670392">
        <ele>29.4575</ele>
        <time>2013-04-09T18:12:00Z</time>
      </trkpt>
      <trkpt lat="59.9478667" lon="17.6670795">
        <ele>28.9769</ele>
        <time>2013-04-09T18:12:01Z</time>
      </trkpt>
      <trkpt lat="59.9479473" lon="17.6671198">
        <ele>28.9769</ele>
        <time>2013-04-09T18:12:02Z</time>
      </trkpt>
      <trkpt lat="59.948028" lon="17.6671613">
        <ele>28.9769</ele>
        <time>2013-04-09T18:12:03Z</time>
      </trkpt>
      <trkpt lat="59.9481084" lon="17.6672021">
        <ele>28.9769</ele>
        <time>2013-04-09T18:12:04Z</time>
      </trkpt>
      <trkpt lat="59.9481886" lon="17.6672428">
        <ele>28.4962</ele>
        <time>2013-04-09T18:12:05Z</time>
      </trkpt>
      <trkpt lat="59.9482681" lon="17.6672851">
        <ele>28.4962</ele>
        <time>2013-04-09T18:12:06Z</time>
      </trkpt>
      <trkpt lat="59.9483471" lon="17.6673267">
        <ele>28.4962</ele>
        <time>2013-04-09T18:12:07Z</time>
      </trkpt>
      <trkpt lat="59.9484259" lon="17.6673665">
        <ele>28.0155</ele>
        <time>2013-04-09T18:12:08Z</time>
      </trkpt>
      <trkpt lat="59.9485048" lon="17.6674054">
        <ele>28.0155</ele>
        <time>2013-04-09T18:12:09Z</time>
      </trkpt>
      <trkpt lat="59.9485832" lon="17.6674455">
        <ele>28.0155</ele>
        <time>2013-04-09T18:12:10Z</time>
      </trkpt>
      <trkpt lat="59.9486608" lon="17.6674891">
        <ele>27.5349</ele>
        <time>2013-04-09T18:12:11Z</time>
      </trkpt>
      <trkpt lat="59.9487376" lon="17.6675367">
        <ele>27.5349</ele>
        <time>2013-04-09T18:12:12Z</time>
      </trkpt>
      <trkpt lat="59.9488138" lon="17.6675871">
        <ele>27.5349</ele>
        <time>2013-04-09T18:12:13Z</time>
      </trkpt>
      <trkpt lat="59.9488899" lon="17.6676388">
        <ele>27.0543</ele>
        <time>2013-04-09T18:12:14Z</time>
      </trkpt>
      <trkpt lat="59.9489661" lon="17.6676881">
        <ele>27.0543</ele>
        <time>2013-04-09T18:12:15Z</time>
      </trkpt>
      <trkpt lat="59.9490429" lon="17.6677348">
        <ele>27.0543</ele>
        <time>2013-04-09T18:12:16Z</time>
      </trkpt>
      <trkpt lat="59.9491203" lon="17.667781">
        <ele>27.0543</ele>
        <time>2013-04-09T18:12:17Z</time>
      </trkpt>
      <trkpt lat="59.9491979" lon="17.6678273">
        <ele>27.0543</ele>
        <time>2013-04-09T18:12:18Z</time>
      </trkpt>
      <trkpt lat="59.9492759" lon="17.6678721">
        <ele>26.5736</ele>
        <time>2013-04-09T18:12:19Z</time>
      </trkpt>
      <trkpt lat="59.9493544" lon="17.6679154">
        <ele>26.5736</ele>
        <time>2013-04-09T18:12:20Z</time>
      </trkpt>
      <trkpt lat="59.9494333" lon="17.6679578">
        <ele>26.5736</ele>
        <time>2013-04-09T18:12:21Z</time>
      </trkpt>
      <trkpt lat="59.9495122" lon="17.6679995">
        <ele>26.5736</ele>
        <time>2013-04-09T18:12:22Z</time>
      </trkpt>
      <trkpt lat="59.9495914" lon="17.6680394">
        <ele>26.5736</ele>
        <time>2013-04-09T18:12:23Z</time>
      </trkpt>
      <trkpt lat="59.949671" lon="17.6680772">
        <ele>26.5736</ele>
        <time>2013-04-09T18:12:24Z</time>
      </trkpt>
      <trkpt lat="59.9497505" lon="17.6681133">
        <ele>26.5736</ele>
        <time>2013-04-09T18:12:25Z</time>
      </trkpt>
      <trkpt lat="59.9498304" lon="17.6681477">
        <ele>26.5736</ele>
        <time>2013-04-09T18:12:26Z</time>
      </trkpt>
      <trkpt lat="59.9499103" lon="17.6681803">
        <ele>26.0929</ele>
        <time>2013-04-09T18:12:27Z</time>
      </trkpt>
      <trkpt lat="59.9499903" lon="17.6682113">
        <ele>26.0929</ele>
        <time>2013-04-09T18:12:28Z</time>
      </trkpt>
      <trkpt lat="59.9500703" lon="17.6682423">
        <ele>26.0929</ele>
        <time>2013-04-09T18:12:29Z</time>
      </trkpt>
      <trkpt lat="59.9501502" lon="17.6682704">
        <ele>26.0929</ele>
        <time>2013-04-09T18:12:30Z</time>
      </trkpt>
      <trkpt lat="59.9502303" lon="17.6682927">
        <ele>26.0929</ele>
        <time>2013-04-09T18:12:31Z</time>
      </trkpt>
      <trkpt lat="59.9503108" lon="17.6683096">
        <ele>26.0929</ele>
        <time>2013-04-09T18:12:32Z</time>
      </trkpt>
      <trkpt lat="59.9503917" lon="17.6683223">
        <ele>26.0929</ele>
        <time>2013-04-09T18:12:33Z</time>
      </trkpt>
      <trkpt lat="59.9504728" lon="17.6683294">
        <ele>25.6123</ele>
        <time>2013-04-09T18:12:34Z</time>
      </trkpt>
      <trkpt lat="59.9505543" lon="17.6683305">
        <ele>25.6123</ele>
        <time>2013-04-09T18:12:35Z</time>
      </trkpt>
      <trkpt lat="59.9506357" lon="17.6683252">
        <ele>25.6123</ele>
        <time>2013-04-09T18:12:36Z</time>
      </trkpt>
      <trkpt lat="59.9507175" lon="17.6683118">
        <ele>25.1317</ele>
        <time>2013-04-09T18:12:37Z</time>
      </trkpt>
      <trkpt lat="59.9507988" lon="17.6682915">
        <ele>25.1317</ele>
        <time>2013-04-09T18:12:38Z</time>
      </trkpt>
      <trkpt lat="59.9508791" lon="17.6682657">
        <ele>25.1317</ele>
        <time>2013-04-09T18:12:39Z</time>
      </trkpt>
      <trkpt lat="59.9509583" lon="17.6682358">
        <ele>24.651</ele>
        <time>2013-04-09T18:12:40Z</time>
      </trkpt>
      <trkpt lat="59.9510372" lon="17.6682054">
        <ele>24.651</ele>
        <time>2013-04-09T18:12:41Z</time>
      </trkpt>
      <trkpt lat="59.9511167" lon="17.6681775">
        <ele>24.1703</ele>
        <time>2013-04-09T18:12:42Z</time>
      </trkpt>
      <trkpt lat="59.9511962" lon="17.6681503">
        <ele>23.6896</ele>
        <time>2013-04-09T18:12:43Z</time>
      </trkpt>
      <trkpt lat="59.951276" lon="17.6681229">
        <ele>23.6896</ele>
        <time>2013-04-09T18:12:44Z</time>
      </trkpt>
      <trkpt lat="59.9513557" lon="17.6680983">
        <ele>23.6896</ele>
        <time>2013-04-09T18:12:45Z</time>
      </trkpt>
      <trkpt lat="59.951435" lon="17.6680823">
        <ele>23.209</ele>
        <time>2013-04-09T18:12:46Z</time>
      </trkpt>
      <trkpt lat="59.9515147" lon="17.6680794">
        <ele>23.209</ele>
        <time>2013-04-09T18:12:47Z</time>
      </trkpt>
      <trkpt lat="59.9515934" lon="17.6681068">
        <ele>22.7283</ele>
        <time>2013-04-09T18:12:48Z</time>
      </trkpt>
      <trkpt lat="59.9516597" lon="17.668202">
        <ele>22.7283</ele>
        <time>2013-04-09T18:12:49Z</time>
      </trkpt>
      <trkpt lat="59.9517136" lon="17.6683327">
        <ele>22.7283</ele>
        <time>2013-04-09T18:12:50Z</time>
      </trkpt>
      <trkpt lat="59.9517597" lon="17.6684846">
        <ele>22.2476</ele>
        <time>2013-04-09T18:12:51Z</time>
      </trkpt>
      <trkpt lat="59.9517949" lon="17.668638">
        <ele>22.2476</ele>
        <time>2013-04-09T18:12:52Z</time>
      </trkpt>
      <trkpt lat="59.9518177" lon="17.668795">
        <ele>22.7283</ele>
        <time>2013-04-09T18:12:53Z</time>
      </trkpt>
      <trkpt lat="59.9518269" lon="17.6689505">
        <ele>22.7283</ele>
        <time>2013-04-09T18:12:54Z</time>
      </trkpt>
      <trkpt lat="59.951825" lon="17.6691013">
        <ele>22.7283</ele>
        <time>2013-04-09T18:12:55Z</time>
      </trkpt>
      <trkpt lat="59.951818" lon="17.6692468">
        <ele>22.7283</ele>
        <time>2013-04-09T18:12:56Z</time>
      </trkpt>
      <trkpt lat="59.9518095" lon="17.6693896">
        <ele>22.7283</ele>
        <time>2013-04-09T18:12:57Z</time>
      </trkpt>
      <trkpt lat="59.9518013" lon="17.6695312">
        <ele>22.7283</ele>
        <time>2013-04-09T18:12:58Z</time>
      </trkpt>
      <trkpt lat="59.951793" lon="17.669672">
        <ele>22.7283</ele>
        <time>2013-04-09T18:12:59Z</time>
      </trkpt>
      <trkpt lat="59.9517841" lon="17.6698113">
        <ele>22.7283</ele>
        <time>2013-04-09T18:13:00Z</time>
      </trkpt>
      <trkpt lat="59.9517764" lon="17.6699496">
        <ele>23.209</ele>
        <time>2013-04-09T18:13:01Z</time>
      </trkpt>
      <trkpt lat="59.9517704" lon="17.670087">
        <ele>23.209</ele>
        <time>2013-04-09T18:13:02Z</time>
      </trkpt>
      <trkpt lat="59.9517623" lon="17.6702224">
        <ele>23.209</ele>
        <time>2013-04-09T18:13:03Z</time>
      </trkpt>
      <trkpt lat="59.9517521" lon="17.670356">
        <ele>23.209</ele>
        <time>2013-04-09T18:13:04Z</time>
      </trkpt>
      <trkpt lat="59.9517412" lon="17.670489">
        <ele>23.6896</ele>
        <time>2013-04-09T18:13:05Z</time>
      </trkpt>
      <trkpt lat="59.9517307" lon="17.6706211">
        <ele>23.6896</ele>
        <time>2013-04-09T18:13:06Z</time>
      </trkpt>
      <trkpt lat="59.9517214" lon="17.6707499">
        <ele>23.6896</ele>
        <time>2013-04-09T18:13:07Z</time>
      </trkpt>
      <trkpt lat="59.9517162" lon="17.6708729">
        <ele>24.1703</ele>
        <time>2013-04-09T18:13:08Z</time>
      </trkpt>
      <trkpt lat="59.951717" lon="17.6709934">
        <ele>24.1703</ele>
        <time>2013-04-09T18:13:09Z</time>
      </trkpt>
      <trkpt lat="59.9517269" lon="17.67111">
        <ele>24.651</ele>
        <time>2013-04-09T18:13:10Z</time>
      </trkpt>
      <trkpt lat="59.9517477" lon="17.6712179">
        <ele>24.651</ele>
        <time>2013-04-09T18:13:11Z</time>
      </trkpt>
      <trkpt lat="59.9517737" lon="17.6713199">
        <ele>25.1317</ele>
        <time>2013-04-09T18:13:12Z</time>
      </trkpt>
      <trkpt lat="59.9517943" lon="17.6714189">
        <ele>25.1317</ele>
        <time>2013-04-09T18:13:13Z</time>
      </trkpt>
      <trkpt lat="59.9518054" lon="17.671516">
        <ele>25.6123</ele>
        <time>2013-04-09T18:13:14Z</time>
      </trkpt>
      <trkpt lat="59.95181" lon="17.671623">
        <ele>25.6123</ele>
        <time>2013-04-09T18:13:15Z</time>
      </trkpt>
      <trkpt lat="59.95181" lon="17.6717378">
        <ele>25.6123</ele>
        <time>2013-04-09T18:13:16Z</time>
      </trkpt>
      <trkpt lat="59.95181" lon="17.6718562">
        <ele>26.0929</ele>
        <time>2013-04-09T18:13:17Z</time>
      </trkpt>
      <trkpt lat="59.9518137" lon="17.6719791">
        <ele>26.0929</ele>
        <time>2013-04-09T18:13:18Z</time>
      </trkpt>
      <trkpt lat="59.9518217" lon="17.6721057">
        <ele>26.0929</ele>
        <time>2013-04-09T18:13:19Z</time>
      </trkpt>
      <trkpt lat="59.9518333" lon="17.6722353">
        <ele>26.0929</ele>
        <time>2013-04-09T18:13:20Z</time>
      </trkpt>
      <trkpt lat="59.9518463" lon="17.6723662">
        <ele>26.0929</ele>
        <time>2013-04-09T18:13:21Z</time>
      </trkpt>
      <trkpt lat="59.9518597" lon="17.6724966">
        <ele>26.5736</ele>
        <time>2013-04-09T18:13:22Z</time>
      </trkpt>
      <trkpt lat="59.9518745" lon="17.6726258">
        <ele>27.0543</ele>
        <time>2013-04-09T18:13:23Z</time>
      </trkpt>
      <trkpt lat="59.9518891" lon="17.6727543">
        <ele>27.0543</ele>
        <time>2013-04-09T18:13:24Z</time>
      </trkpt>
      <trkpt lat="59.9519045" lon="17.6728822">
        <ele>27.5349</ele>
        <time>2013-04-09T18:13:25Z</time>
      </trkpt>
      <trkpt lat="59.951922" lon="17.6730107">
        <ele>27.5349</ele>
        <time>2013-04-09T18:13:26Z</time>
      </trkpt>
      <trkpt lat="59.9519411" lon="17.6731407">
        <ele>27.5349</ele>
        <time>2013-04-09T18:13:27Z</time>
      </trkpt>
      <trkpt lat="59.9519612" lon="17.6732734">
        <ele>27.5349</ele>
        <time>2013-04-09T18:13:28Z</time>
      </trkpt>
      <trkpt lat="59.9519831" lon="17.6734019">
        <ele>27.5349</ele>
        <time>2013-04-09T18:13:29Z</time>
      </trkpt>
      <trkpt lat="59.9520059" lon="17.6735215">
        <ele>27.5349</ele>
        <time>2013-04-09T18:13:30Z</time>
      </trkpt>
      <trkpt lat="59.9520276" lon="17.6736354">
        <ele>27.5349</ele>
        <time>2013-04-09T18:13:31Z</time>
      </trkpt>
      <trkpt lat="59.9520465" lon="17.6737468">
        <ele>27.5349</ele>
        <time>2013-04-09T18:13:32Z</time>
      </trkpt>
      <trkpt lat="59.9520648" lon="17.6738549">
        <ele>27.5349</ele>
        <time>2013-04-09T18:13:33Z</time>
      </trkpt>
      <trkpt lat="59.9520853" lon="17.6739566">
        <ele>27.5349</ele>
        <time>2013-04-09T18:13:34Z</time>
      </trkpt>
      <trkpt lat="59.9521068" lon="17.6740525">
        <ele>28.0155</ele>
        <time>2013-04-09T18:13:35Z</time>
      </trkpt>
      <trkpt lat="59.9521275" lon="17.6741463">
        <ele>28.0155</ele>
        <time>2013-04-09T18:13:36Z</time>
      </trkpt>
      <trkpt lat="59.9521476" lon="17.6742392">
        <ele>28.0155</ele>
        <time>2013-04-09T18:13:37Z</time>
      </trkpt>
      <trkpt lat="59.9521675" lon="17.6743314">
        <ele>28.0155</ele>
        <time>2013-04-09T18:13:38Z</time>
      </trkpt>
      <trkpt lat="59.9521877" lon="17.6744228">
        <ele>28.0155</ele>
        <time>2013-04-09T18:13:39Z</time>
      </trkpt>
      <trkpt lat="59.9522072" lon="17.6745139">
        <ele>28.4962</ele>
        <time>2013-04-09T18:13:40Z</time>
      </trkpt>
      <trkpt lat="59.9522234" lon="17.674605">
        <ele>28.4962</ele>
        <time>2013-04-09T18:13:41Z</time>
      </trkpt>
      <trkpt lat="59.9522368" lon="17.6746933">
        <ele>28.9769</ele>
        <time>2013-04-09T18:13:42Z</time>
      </trkpt>
      <trkpt lat="59.9522488" lon="17.6747759">
        <ele>29.4575</ele>
        <time>2013-04-09T18:13:43Z</time>
      </trkpt>
      <trkpt lat="59.952261" lon="17.6748512">
        <ele>29.9381</ele>
        <time>2013-04-09T18:13:44Z</time>
      </trkpt>
      <trkpt lat="59.9522723" lon="17.6749197">
        <ele>29.9381</ele>
        <time>2013-04-09T18:13:45Z</time>
      </trkpt>
      <trkpt lat="59.9522823" lon="17.6749836">
        <ele>30.4188</ele>
        <time>2013-04-09T18:13:46Z</time>
      </trkpt>
      <trkpt lat="59.952292" lon="17.6750444">
        <ele>30.4188</ele>
        <time>2013-04-09T18:13:47Z</time>
      </trkpt>
      <trkpt lat="59.9523036" lon="17.6751029">
        <ele>30.8995</ele>
        <time>2013-04-09T18:13:48Z</time>
      </trkpt>
      <trkpt lat="59.9523185" lon="17.6751606">
        <ele>30.8995</ele>
        <time>2013-04-09T18:13:49Z</time>
      </trkpt>
      <trkpt lat="59.9523363" lon="17.6752196">
        <ele>30.8995</ele>
        <time>2013-04-09T18:13:50Z</time>
      </trkpt>
      <trkpt lat="59.9523565" lon="17.6752828">
        <ele>30.8995</ele>
        <time>2013-04-09T18:13:51Z</time>
      </trkpt>
      <trkpt lat="59.9523777" lon="17.6753527">
        <ele>30.8995</ele>
        <time>2013-04-09T18:13:52Z</time>
      </trkpt>
      <trkpt lat="59.9524029" lon="17.6754252">
        <ele>30.4188</ele>
        <time>2013-04-09T18:13:53Z</time>
      </trkpt>
      <trkpt lat="59.9524335" lon="17.6754975">
        <ele>30.4188</ele>
        <time>2013-04-09T18:13:54Z</time>
      </trkpt>
      <trkpt lat="59.9524668" lon="17.6755736">
        <ele>29.9381</ele>
        <time>2013-04-09T18:13:55Z</time>
      </trkpt>
      <trkpt lat="59.9525032" lon="17.6756557">
        <ele>29.9381</ele>
        <time>2013-04-09T18:13:56Z</time>
      </trkpt>
      <trkpt lat="59.9525408" lon="17.6757457">
        <ele>29.4575</ele>
        <time>2013-04-09T18:13:57Z</time>
      </trkpt>
      <trkpt lat="59.9525785" lon="17.6758407">
        <ele>29.4575</ele>
        <time>2013-04-09T18:13:58Z</time>
      </trkpt>
      <trkpt lat="59.952617" lon="17.6759375">
        <ele>28.9769</ele>
        <time>2013-04-09T18:13:59Z</time>
      </trkpt>
      <trkpt lat="59.9526553" lon="17.6760379">
        <ele>28.9769</ele>
        <time>2013-04-09T18:14:00Z</time>
      </trkpt>
      <trkpt lat="59.9526909" lon="17.6761411">
        <ele>28.9769</ele>
        <time>2013-04-09T18:14:01Z</time>
      </trkpt>
      <trkpt lat="59.9527242" lon="17.676242">
        <ele>28.9769</ele>
        <time>2013-04-09T18:14:02Z</time>
      </trkpt>
      <trkpt lat="59.9527528" lon="17.6763367">
        <ele>28.4962</ele>
        <time>2013-04-09T18:14:03Z</time>
      </trkpt>
      <trkpt lat="59.9527766" lon="17.6764202">
        <ele>28.4962</ele>
        <time>2013-04-09T18:14:04Z</time>
      </trkpt>
      <trkpt lat="59.9527974" lon="17.6764867">
        <ele>28.4962</ele>
        <time>2013-04-09T18:14:05Z</time>
      </trkpt>
      <trkpt lat="59.9528178" lon="17.6765317">
        <ele>28.4962</ele>
        <time>2013-04-09T18:14:06Z</time>
      </trkpt>
      <trkpt lat="59.9528401" lon="17.6765524">
        <ele>28.4962</ele>
        <time>2013-04-09T18:14:07Z</time>
      </trkpt>
      <trkpt lat="59.9528662" lon="17.6765544">
        <ele>28.0155</ele>
        <time>2013-04-09T18:14:08Z</time>
      </trkpt>
      <trkpt lat="59.9528976" lon="17.6765653">
        <ele>28.0155</ele>
        <time>2013-04-09T18:14:09Z</time>
      </trkpt>
      <trkpt lat="59.9529289" lon="17.6766044">
        <ele>28.0155</ele>
        <time>2013-04-09T18:14:10Z</time>
      </trkpt>
      <trkpt lat="59.9529571" lon="17.6766673">
        <ele>28.0155</ele>
        <time>2013-04-09T18:14:11Z</time>
      </trkpt>
      <trkpt lat="59.9529833" lon="17.6767429">
        <ele>28.0155</ele>
        <time>2013-04-09T18:14:12Z</time>
      </trkpt>
      <trkpt lat="59.9530108" lon="17.6768239">
        <ele>28.0155</ele>
        <time>2013-04-09T18:14:13Z</time>
      </trkpt>
      <trkpt lat="59.9530408" lon="17.6769093">
        <ele>28.0155</ele>
        <time>2013-04-09T18:14:14Z</time>
      </trkpt>
      <trkpt lat="59.9530724" lon="17.6769984">
        <ele>28.0155</ele>
        <time>2013-04-09T18:14:15Z</time>
      </trkpt>
      <trkpt lat="59.9531045" lon="17.6770895">
        <ele>28.0155</ele>
        <time>2013-04-09T18:14:16Z</time>
      </trkpt>
      <trkpt lat="59.9531379" lon="17.6771831">
        <ele>28.0155</ele>
        <time>2013-04-09T18:14:17Z</time>
      </trkpt>
      <trkpt lat="59.9531717" lon="17.6772792">
        <ele>28.0155</ele>
        <time>2013-04-09T18:14:18Z</time>
      </trkpt>
      <trkpt lat="59.9532066" lon="17.6773766">
        <ele>28.0155</ele>
        <time>2013-04-09T18:14:19Z</time>
      </trkpt>
      <trkpt lat="59.9532429" lon="17.6774755">
        <ele>28.0155</ele>
        <time>2013-04-09T18:14:20Z</time>
      </trkpt>
      <trkpt lat="59.9532796" lon="17.6775775">
        <ele>28.0155</ele>
        <time>2013-04-09T18:14:21Z</time>
      </trkpt>
      <trkpt lat="59.953317" lon="17.6776831">
        <ele>27.5349</ele>
        <time>2013-04-09T18:14:22Z</time>
      </trkpt>
      <trkpt lat="59.9533557" lon="17.6777904">
        <ele>27.5349</ele>
        <time>2013-04-09T18:14:23Z</time>
      </trkpt>
      <trkpt lat="59.953394" lon="17.6778997">
        <ele>27.5349</ele>
        <time>2013-04-09T18:14:24Z</time>
      </trkpt>
      <trkpt lat="59.9534318" lon="17.6780109">
        <ele>27.0543</ele>
        <time>2013-04-09T18:14:25Z</time>
      </trkpt>
      <trkpt lat="59.9534703" lon="17.678123">
        <ele>27.0543</ele>
        <time>2013-04-09T18:14:26Z</time>
      </trkpt>
      <trkpt lat="59.9535115" lon="17.678237">
        <ele>27.0543</ele>
        <time>2013-04-09T18:14:27Z</time>
      </trkpt>
      <trkpt lat="59.9535525" lon="17.6783534">
        <ele>27.0543</ele>
        <time>2013-04-09T18:14:28Z</time>
      </trkpt>
      <trkpt lat="59.9535944" lon="17.6784714">
        <ele>26.5736</ele>
        <time>2013-04-09T18:14:29Z</time>
      </trkpt>
      <trkpt lat="59.9536371" lon="17.6785903">
        <ele>26.5736</ele>
        <time>2013-04-09T18:14:30Z</time>
      </trkpt>
      <trkpt lat="59.95368" lon="17.6787098">
        <ele>26.5736</ele>
        <time>2013-04-09T18:14:31Z</time>
      </trkpt>
      <trkpt lat="59.9537225" lon="17.6788293">
        <ele>26.5736</ele>
        <time>2013-04-09T18:14:32Z</time>
      </trkpt>
      <trkpt lat="59.9537649" lon="17.6789487">
        <ele>26.5736</ele>
        <time>2013-04-09T18:14:33Z</time>
      </trkpt>
      <trkpt lat="59.9538073" lon="17.6790691">
        <ele>26.5736</ele>
        <time>2013-04-09T18:14:34Z</time>
      </trkpt>
      <trkpt lat="59.9538503" lon="17.6791891">
        <ele>26.5736</ele>
        <time>2013-04-09T18:14:35Z</time>
      </trkpt>
      <trkpt lat="59.9538934" lon="17.6793095">
        <ele>26.0929</ele>
        <time>2013-04-09T18:14:36Z</time>
      </trkpt>
      <trkpt lat="59.9539364" lon="17.6794304">
        <ele>26.0929</ele>
        <time>2013-04-09T18:14:37Z</time>
      </trkpt>
      <trkpt lat="59.9539789" lon="17.6795516">
        <ele>26.0929</ele>
        <time>2013-04-09T18:14:38Z</time>
      </trkpt>
      <trkpt lat="59.9540217" lon="17.6796731">
        <ele>26.0929</ele>
        <time>2013-04-09T18:14:39Z</time>
      </trkpt>
      <trkpt lat="59.9540647" lon="17.6797945">
        <ele>26.0929</ele>
        <time>2013-04-09T18:14:40Z</time>
      </trkpt>
      <trkpt lat="59.9541078" lon="17.6799158">
        <ele>26.0929</ele>
        <time>2013-04-09T18:14:41Z</time>
      </trkpt>
      <trkpt lat="59.9541515" lon="17.6800361">
        <ele>26.0929</ele>
        <time>2013-04-09T18:14:42Z</time>
      </trkpt>
      <trkpt lat="59.9541953" lon="17.6801565">
        <ele>26.0929</ele>
        <time>2013-04-09T18:14:43Z</time>
      </trkpt>
      <trkpt lat="59.9542384" lon="17.6802778">
        <ele>26.5736</ele>
        <time>2013-04-09T18:14:44Z</time>
      </trkpt>
      <trkpt lat="59.9542815" lon="17.6803996">
        <ele>26.0929</ele>
        <time>2013-04-09T18:14:45Z</time>
      </trkpt>
      <trkpt lat="59.9543249" lon="17.6805225">
        <ele>26.0929</ele>
        <time>2013-04-09T18:14:46Z</time>
      </trkpt>
      <trkpt lat="59.9543684" lon="17.6806461">
        <ele>26.0929</ele>
        <time>2013-04-09T18:14:47Z</time>
      </trkpt>
      <trkpt lat="59.9544123" lon="17.6807692">
        <ele>26.0929</ele>
        <time>2013-04-09T18:14:48Z</time>
      </trkpt>
      <trkpt lat="59.9544569" lon="17.680891">
        <ele>26.5736</ele>
        <time>2013-04-09T18:14:49Z</time>
      </trkpt>
      <trkpt lat="59.9545014" lon="17.6810114">
        <ele>26.5736</ele>
        <time>2013-04-09T18:14:50Z</time>
      </trkpt>
      <trkpt lat="59.9545451" lon="17.6811321">
        <ele>26.5736</ele>
        <time>2013-04-09T18:14:51Z</time>
      </trkpt>
      <trkpt lat="59.954588" lon="17.6812534">
        <ele>26.5736</ele>
        <time>2013-04-09T18:14:52Z</time>
      </trkpt>
      <trkpt lat="59.9546299" lon="17.681375">
        <ele>26.5736</ele>
        <time>2013-04-09T18:14:53Z</time>
      </trkpt>
      <trkpt lat="59.9546714" lon="17.6814958">
        <ele>26.5736</ele>
        <time>2013-04-09T18:14:54Z</time>
      </trkpt>
      <trkpt lat="59.9547129" lon="17.681615">
        <ele>26.5736</ele>
        <time>2013-04-09T18:14:55Z</time>
      </trkpt>
      <trkpt lat="59.9547534" lon="17.6817328">
        <ele>26.5736</ele>
        <time>2013-04-09T18:14:56Z</time>
      </trkpt>
      <trkpt lat="59.9547927" lon="17.6818507">
        <ele>26.5736</ele>
        <time>2013-04-09T18:14:57Z</time>
      </trkpt>
      <trkpt lat="59.954832" lon="17.6819677">
        <ele>27.0543</ele>
        <time>2013-04-09T18:14:58Z</time>
      </trkpt>
      <trkpt lat="59.9548719" lon="17.6820829">
        <ele>27.0543</ele>
        <time>2013-04-09T18:14:59Z</time>
      </trkpt>
      <trkpt lat="59.9549113" lon="17.682198">
        <ele>27.0543</ele>
        <time>2013-04-09T18:15:00Z</time>
      </trkpt>
      <trkpt lat="59.9549492" lon="17.6823142">
        <ele>27.0543</ele>
        <time>2013-04-09T18:15:01Z</time>
      </trkpt>
      <trkpt lat="59.9549863" lon="17.6824305">
        <ele>27.0543</ele>
        <time>2013-04-09T18:15:02Z</time>
      </trkpt>
      <trkpt lat="59.9550222" lon="17.6825465">
        <ele>27.0543</ele>
        <time>2013-04-09T18:15:03Z</time>
      </trkpt>
      <trkpt lat="59.9550572" lon="17.6826633">
        <ele>27.0543</ele>
        <time>2013-04-09T18:15:04Z</time>
      </trkpt>
      <trkpt lat="59.9550906" lon="17.6827799">
        <ele>27.0543</ele>
        <time>2013-04-09T18:15:05Z</time>
      </trkpt>
      <trkpt lat="59.9551237" lon="17.6828963">
        <ele>27.0543</ele>
        <time>2013-04-09T18:15:06Z</time>
      </trkpt>
      <trkpt lat="59.9551553" lon="17.6830146">
        <ele>27.0543</ele>
        <time>2013-04-09T18:15:07Z</time>
      </trkpt>
      <trkpt lat="59.9551846" lon="17.6831355">
        <ele>27.0543</ele>
        <time>2013-04-09T18:15:08Z</time>
      </trkpt>
      <trkpt lat="59.9552133" lon="17.6832574">
        <ele>27.0543</ele>
        <time>2013-04-09T18:15:09Z</time>
      </trkpt>
      <trkpt lat="59.9552423" lon="17.6833803">
        <ele>26.5736</ele>
        <time>2013-04-09T18:15:10Z</time>
      </trkpt>
      <trkpt lat="59.9552709" lon="17.6835051">
        <ele>26.5736</ele>
        <time>2013-04-09T18:15:11Z</time>
      </trkpt>
      <trkpt lat="59.9552993" lon="17.6836315">
        <ele>26.5736</ele>
        <time>2013-04-09T18:15:12Z</time>
      </trkpt>
      <trkpt lat="59.9553268" lon="17.6837603">
        <ele>26.5736</ele>
        <time>2013-04-09T18:15:13Z</time>
      </trkpt>
      <trkpt lat="59.9553543" lon="17.6838897">
        <ele>26.5736</ele>
        <time>2013-04-09T18:15:14Z</time>
      </trkpt>
      <trkpt lat="59.955382" lon="17.6840194">
        <ele>26.5736</ele>
        <time>2013-04-09T18:15:15Z</time>
      </trkpt>
      <trkpt lat="59.9554085" lon="17.6841504">
        <ele>26.5736</ele>
        <time>2013-04-09T18:15:16Z</time>
      </trkpt>
      <trkpt lat="59.955433" lon="17.6842832">
        <ele>26.5736</ele>
        <time>2013-04-09T18:15:17Z</time>
      </trkpt>
      <trkpt lat="59.9554567" lon="17.6844173">
        <ele>26.5736</ele>
        <time>2013-04-09T18:15:18Z</time>
      </trkpt>
      <trkpt lat="59.9554801" lon="17.6845525">
        <ele>26.5736</ele>
        <time>2013-04-09T18:15:19Z</time>
      </trkpt>
      <trkpt lat="59.955503" lon="17.6846877">
        <ele>26.5736</ele>
        <time>2013-04-09T18:15:20Z</time>
      </trkpt>
      <trkpt lat="59.9555256" lon="17.6848232">
        <ele>26.5736</ele>
        <time>2013-04-09T18:15:21Z</time>
      </trkpt>
      <trkpt lat="59.9555469" lon="17.6849589">
        <ele>26.5736</ele>
        <time>2013-04-09T18:15:22Z</time>
      </trkpt>
      <trkpt lat="59.955567" lon="17.6850944">
        <ele>26.5736</ele>
        <time>2013-04-09T18:15:23Z</time>
      </trkpt>
      <trkpt lat="59.9555867" lon="17.6852303">
        <ele>26.5736</ele>
        <time>2013-04-09T18:15:24Z</time>
      </trkpt>
      <trkpt lat="59.9556065" lon="17.6853652">
        <ele>26.0929</ele>
        <time>2013-04-09T18:15:25Z</time>
      </trkpt>
      <trkpt lat="59.955627" lon="17.6854984">
        <ele>26.0929</ele>
        <time>2013-04-09T18:15:26Z</time>
      </trkpt>
      <trkpt lat="59.9556475" lon="17.6856304">
        <ele>26.0929</ele>
        <time>2013-04-09T18:15:27Z</time>
      </trkpt>
      <trkpt lat="59.9556681" lon="17.6857604">
        <ele>26.0929</ele>
        <time>2013-04-09T18:15:28Z</time>
      </trkpt>
      <trkpt lat="59.9556876" lon="17.6858884">
        <ele>26.0929</ele>
        <time>2013-04-09T18:15:29Z</time>
      </trkpt>
      <trkpt lat="59.9557059" lon="17.6860151">
        <ele>26.0929</ele>
        <time>2013-04-09T18:15:30Z</time>
      </trkpt>
      <trkpt lat="59.9557242" lon="17.6861397">
        <ele>26.0929</ele>
        <time>2013-04-09T18:15:31Z</time>
      </trkpt>
      <trkpt lat="59.9557427" lon="17.6862625">
        <ele>26.0929</ele>
        <time>2013-04-09T18:15:32Z</time>
      </trkpt>
      <trkpt lat="59.9557607" lon="17.6863842">
        <ele>26.0929</ele>
        <time>2013-04-09T18:15:33Z</time>
      </trkpt>
      <trkpt lat="59.9557784" lon="17.6865054">
        <ele>26.0929</ele>
        <time>2013-04-09T18:15:34Z</time>
      </trkpt>
      <trkpt lat="59.9557969" lon="17.6866249">
        <ele>26.0929</ele>
        <time>2013-04-09T18:15:35Z</time>
      </trkpt>
      <trkpt lat="59.9558157" lon="17.6867436">
        <ele>26.0929</ele>
        <time>2013-04-09T18:15:36Z</time>
      </trkpt>
      <trkpt lat="59.9558333" lon="17.6868623">
        <ele>26.0929</ele>
        <time>2013-04-09T18:15:37Z</time>
      </trkpt>
      <trkpt lat="59.9558495" lon="17.6869817">
        <ele>25.6123</ele>
        <time>2013-04-09T18:15:38Z</time>
      </trkpt>
      <trkpt lat="59.9558659" lon="17.6871011">
        <ele>25.6123</ele>
        <time>2013-04-09T18:15:39Z</time>
      </trkpt>
      <trkpt lat="59.955884" lon="17.6872191">
        <ele>25.6123</ele>
        <time>2013-04-09T18:15:40Z</time>
      </trkpt>
      <trkpt lat="59.9559038" lon="17.6873358">
        <ele>25.6123</ele>
        <time>2013-04-09T18:15:41Z</time>
      </trkpt>
      <trkpt lat="59.955923" lon="17.6874531">
        <ele>25.6123</ele>
        <time>2013-04-09T18:15:42Z</time>
      </trkpt>
      <trkpt lat="59.9559419" lon="17.6875713">
        <ele>25.6123</ele>
        <time>2013-04-09T18:15:43Z</time>
      </trkpt>
      <trkpt lat="59.9559606" lon="17.6876902">
        <ele>26.0929</ele>
        <time>2013-04-09T18:15:44Z</time>
      </trkpt>
      <trkpt lat="59.9559784" lon="17.68781">
        <ele>26.0929</ele>
        <time>2013-04-09T18:15:45Z</time>
      </trkpt>
      <trkpt lat="59.9559964" lon="17.6879293">
        <ele>26.0929</ele>
        <time>2013-04-09T18:15:46Z</time>
      </trkpt>
      <trkpt lat="59.9560145" lon="17.6880486">
        <ele>26.0929</ele>
        <time>2013-04-09T18:15:47Z</time>
      </trkpt>
      <trkpt lat="59.9560326" lon="17.688168">
        <ele>26.0929</ele>
        <time>2013-04-09T18:15:48Z</time>
      </trkpt>
      <trkpt lat="59.9560514" lon="17.6882867">
        <ele>26.0929</ele>
        <time>2013-04-09T18:15:49Z</time>
      </trkpt>
      <trkpt lat="59.9560716" lon="17.688405">
        <ele>26.5736</ele>
        <time>2013-04-09T18:15:50Z</time>
      </trkpt>
      <trkpt lat="59.9560919" lon="17.688525">
        <ele>26.5736</ele>
        <time>2013-04-09T18:15:51Z</time>
      </trkpt>
      <trkpt lat="59.9561123" lon="17.6886466">
        <ele>26.5736</ele>
        <time>2013-04-09T18:15:52Z</time>
      </trkpt>
      <trkpt lat="59.9561333" lon="17.6887695">
        <ele>26.5736</ele>
        <time>2013-04-09T18:15:53Z</time>
      </trkpt>
      <trkpt lat="59.9561559" lon="17.6888929">
        <ele>26.5736</ele>
        <time>2013-04-09T18:15:54Z</time>
      </trkpt>
      <trkpt lat="59.9561795" lon="17.6890172">
        <ele>26.5736</ele>
        <time>2013-04-09T18:15:55Z</time>
      </trkpt>
      <trkpt lat="59.9562037" lon="17.6891422">
        <ele>26.5736</ele>
        <time>2013-04-09T18:15:56Z</time>
      </trkpt>
      <trkpt lat="59.9562285" lon="17.689267">
        <ele>26.5736</ele>
        <time>2013-04-09T18:15:57Z</time>
      </trkpt>
      <trkpt lat="59.9562533" lon="17.6893902">
        <ele>26.5736</ele>
        <time>2013-04-09T18:15:58Z</time>
      </trkpt>
      <trkpt lat="59.9562781" lon="17.6895104">
        <ele>26.5736</ele>
        <time>2013-04-09T18:15:59Z</time>
      </trkpt>
      <trkpt lat="59.9563037" lon="17.689628">
        <ele>26.5736</ele>
        <time>2013-04-09T18:16:00Z</time>
      </trkpt>
      <trkpt lat="59.9563296" lon="17.6897438">
        <ele>26.5736</ele>
        <time>2013-04-09T18:16:01Z</time>
      </trkpt>
      <trkpt lat="59.9563565" lon="17.6898574">
        <ele>27.0543</ele>
        <time>2013-04-09T18:16:02Z</time>
      </trkpt>
      <trkpt lat="59.9563851" lon="17.6899689">
        <ele>27.0543</ele>
        <time>2013-04-09T18:16:03Z</time>
      </trkpt>
      <trkpt lat="59.9564155" lon="17.6900787">
        <ele>27.0543</ele>
        <time>2013-04-09T18:16:04Z</time>
      </trkpt>
      <trkpt lat="59.956447" lon="17.6901877">
        <ele>27.0543</ele>
        <time>2013-04-09T18:16:05Z</time>
      </trkpt>
      <trkpt lat="59.9564803" lon="17.6902966">
        <ele>26.5736</ele>
        <time>2013-04-09T18:16:06Z</time>
      </trkpt>
      <trkpt lat="59.9565155" lon="17.6904045">
        <ele>26.5736</ele>
        <time>2013-04-09T18:16:07Z</time>
      </trkpt>
      <trkpt lat="59.9565499" lon="17.6905122">
        <ele>26.5736</ele>
        <time>2013-04-09T18:16:08Z</time>
      </trkpt>
      <trkpt lat="59.9565817" lon="17.6906228">
        <ele>26.0929</ele>
        <time>2013-04-09T18:16:09Z</time>
      </trkpt>
      <trkpt lat="59.9566161" lon="17.6907359">
        <ele>26.0929</ele>
        <time>2013-04-09T18:16:10Z</time>
      </trkpt>
      <trkpt lat="59.9566543" lon="17.6908534">
        <ele>26.0929</ele>
        <time>2013-04-09T18:16:11Z</time>
      </trkpt>
      <trkpt lat="59.9566953" lon="17.6909716">
        <ele>25.6123</ele>
        <time>2013-04-09T18:16:12Z</time>
      </trkpt>
      <trkpt lat="59.9567374" lon="17.6910928">
        <ele>25.6123</ele>
        <time>2013-04-09T18:16:13Z</time>
      </trkpt>
      <trkpt lat="59.9567799" lon="17.6912192">
        <ele>25.1317</ele>
        <time>2013-04-09T18:16:14Z</time>
      </trkpt>
      <trkpt lat="59.9568237" lon="17.691353">
        <ele>25.1317</ele>
        <time>2013-04-09T18:16:15Z</time>
      </trkpt>
      <trkpt lat="59.9568684" lon="17.69149">
        <ele>24.651</ele>
        <time>2013-04-09T18:16:16Z</time>
      </trkpt>
      <trkpt lat="59.9569155" lon="17.6916271">
        <ele>24.651</ele>
        <time>2013-04-09T18:16:17Z</time>
      </trkpt>
      <trkpt lat="59.956963" lon="17.6917653">
        <ele>24.1703</ele>
        <time>2013-04-09T18:16:18Z</time>
      </trkpt>
      <trkpt lat="59.9570101" lon="17.6919045">
        <ele>24.1703</ele>
        <time>2013-04-09T18:16:19Z</time>
      </trkpt>
      <trkpt lat="59.9570565" lon="17.6920438">
        <ele>24.1703</ele>
        <time>2013-04-09T18:16:20Z</time>
      </trkpt>
      <trkpt lat="59.957104" lon="17.6921802">
        <ele>24.1703</ele>
        <time>2013-04-09T18:16:21Z</time>
      </trkpt>
      <trkpt lat="59.9571523" lon="17.6923142">
        <ele>24.1703</ele>
        <time>2013-04-09T18:16:22Z</time>
      </trkpt>
      <trkpt lat="59.9571997" lon="17.6924483">
        <ele>23.6896</ele>
        <time>2013-04-09T18:16:23Z</time>
      </trkpt>
      <trkpt lat="59.9572455" lon="17.6925823">
        <ele>23.6896</ele>
        <time>2013-04-09T18:16:24Z</time>
      </trkpt>
      <trkpt lat="59.9572905" lon="17.6927153">
        <ele>23.6896</ele>
        <time>2013-04-09T18:16:25Z</time>
      </trkpt>
      <trkpt lat="59.9573364" lon="17.6928448">
        <ele>23.6896</ele>
        <time>2013-04-09T18:16:26Z</time>
      </trkpt>
      <trkpt lat="59.9573823" lon="17.6929717">
        <ele>23.6896</ele>
        <time>2013-04-09T18:16:27Z</time>
      </trkpt>
      <trkpt lat="59.9574269" lon="17.6930984">
        <ele>23.209</ele>
        <time>2013-04-09T18:16:28Z</time>
      </trkpt>
      <trkpt lat="59.9574708" lon="17.6932244">
        <ele>23.209</ele>
        <time>2013-04-09T18:16:29Z</time>
      </trkpt>
      <trkpt lat="59.9575141" lon="17.6933492">
        <ele>23.209</ele>
        <time>2013-04-09T18:16:30Z</time>
      </trkpt>
      <trkpt lat="59.9575564" lon="17.6934732">
        <ele>23.209</ele>
        <time>2013-04-09T18:16:31Z</time>
      </trkpt>
      <trkpt lat="59.957598" lon="17.6935965">
        <ele>23.209</ele>
        <time>2013-04-09T18:16:32Z</time>
      </trkpt>
      <trkpt lat="59.9576385" lon="17.6937188">
        <ele>23.209</ele>
        <time>2013-04-09T18:16:33Z</time>
      </trkpt>
      <trkpt lat="59.9576795" lon="17.6938373">
        <ele>23.209</ele>
        <time>2013-04-09T18:16:34Z</time>
      </trkpt>
      <trkpt lat="59.9577205" lon="17.693954">
        <ele>23.209</ele>
        <time>2013-04-09T18:16:35Z</time>
      </trkpt>
      <trkpt lat="59.9577612" lon="17.6940681">
        <ele>23.209</ele>
        <time>2013-04-09T18:16:36Z</time>
      </trkpt>
      <trkpt lat="59.9578013" lon="17.6941813">
        <ele>23.209</ele>
        <time>2013-04-09T18:16:37Z</time>
      </trkpt>
      <trkpt lat="59.9578406" lon="17.6942951">
        <ele>23.6896</ele>
        <time>2013-04-09T18:16:38Z</time>
      </trkpt>
      <trkpt lat="59.9578796" lon="17.6944074">
        <ele>23.6896</ele>
        <time>2013-04-09T18:16:39Z</time>
      </trkpt>
      <trkpt lat="59.9579186" lon="17.694518">
        <ele>23.6896</ele>
        <time>2013-04-09T18:16:40Z</time>
      </trkpt>
      <trkpt lat="59.9579572" lon="17.6946278">
        <ele>24.1703</ele>
        <time>2013-04-09T18:16:41Z</time>
      </trkpt>
      <trkpt lat="59.9579951" lon="17.6947377">
        <ele>24.1703</ele>
        <time>2013-04-09T18:16:42Z</time>
      </trkpt>
      <trkpt lat="59.9580334" lon="17.6948459">
        <ele>24.1703</ele>
        <time>2013-04-09T18:16:43Z</time>
      </trkpt>
      <trkpt lat="59.9580722" lon="17.6949534">
        <ele>24.1703</ele>
        <time>2013-04-09T18:16:44Z</time>
      </trkpt>
      <trkpt lat="59.9581099" lon="17.6950619">
        <ele>24.1703</ele>
        <time>2013-04-09T18:16:45Z</time>
      </trkpt>
      <trkpt lat="59.9581478" lon="17.6951701">
        <ele>24.1703</ele>
        <time>2013-04-09T18:16:46Z</time>
      </trkpt>
      <trkpt lat="59.9581878" lon="17.6952764">
        <ele>24.1703</ele>
        <time>2013-04-09T18:16:47Z</time>
      </trkpt>
      <trkpt lat="59.9582298" lon="17.6953809">
        <ele>24.651</ele>
        <time>2013-04-09T18:16:48Z</time>
      </trkpt>
      <trkpt lat="59.9582716" lon="17.6954861">
        <ele>24.651</ele>
        <time>2013-04-09T18:16:49Z</time>
      </trkpt>
      <trkpt lat="59.958313" lon="17.6955934">
        <ele>24.651</ele>
        <time>2013-04-09T18:16:50Z</time>
      </trkpt>
      <trkpt lat="59.9583554" lon="17.6957006">
        <ele>24.651</ele>
        <time>2013-04-09T18:16:51Z</time>
      </trkpt>
      <trkpt lat="59.9583989" lon="17.6958082">
        <ele>24.651</ele>
        <time>2013-04-09T18:16:52Z</time>
      </trkpt>
      <trkpt lat="59.9584429" lon="17.6959164">
        <ele>24.651</ele>
        <time>2013-04-09T18:16:53Z</time>
      </trkpt>
      <trkpt lat="59.9584876" lon="17.6960246">
        <ele>25.1317</ele>
        <time>2013-04-09T18:16:54Z</time>
      </trkpt>
      <trkpt lat="59.958532" lon="17.6961339">
        <ele>25.1317</ele>
        <time>2013-04-09T18:16:55Z</time>
      </trkpt>
      <trkpt lat="59.9585763" lon="17.6962429">
        <ele>25.1317</ele>
        <time>2013-04-09T18:16:56Z</time>
      </trkpt>
      <trkpt lat="59.9586193" lon="17.6963558">
        <ele>25.1317</ele>
        <time>2013-04-09T18:16:57Z</time>
      </trkpt>
      <trkpt lat="59.9586607" lon="17.6964714">
        <ele>25.1317</ele>
        <time>2013-04-09T18:16:58Z</time>
      </trkpt>
      <trkpt lat="59.9587" lon="17.6965895">
        <ele>25.1317</ele>
        <time>2013-04-09T18:16:59Z</time>
      </trkpt>
      <trkpt lat="59.9587358" lon="17.6967123">
        <ele>25.6123</ele>
        <time>2013-04-09T18:17:00Z</time>
      </trkpt>
      <trkpt lat="59.9587683" lon="17.6968382">
        <ele>25.6123</ele>
        <time>2013-04-09T18:17:01Z</time>
      </trkpt>
      <trkpt lat="59.9587987" lon="17.6969649">
        <ele>25.6123</ele>
        <time>2013-04-09T18:17:02Z</time>
      </trkpt>
      <trkpt lat="59.9588273" lon="17.6970913">
        <ele>25.6123</ele>
        <time>2013-04-09T18:17:03Z</time>
      </trkpt>
      <trkpt lat="59.9588532" lon="17.6972169">
        <ele>25.6123</ele>
        <time>2013-04-09T18:17:04Z</time>
      </trkpt>
      <trkpt lat="59.9588761" lon="17.6973411">
        <ele>26.0929</ele>
        <time>2013-04-09T18:17:05Z</time>
      </trkpt>
      <trkpt lat="59.9588988" lon="17.6974622">
        <ele>26.0929</ele>
        <time>2013-04-09T18:17:06Z</time>
      </trkpt>
      <trkpt lat="59.9589211" lon="17.6975784">
        <ele>26.5736</ele>
        <time>2013-04-09T18:17:07Z</time>
      </trkpt>
      <trkpt lat="59.9589408" lon="17.6976916">
        <ele>27.0543</ele>
        <time>2013-04-09T18:17:08Z</time>
      </trkpt>
      <trkpt lat="59.958957" lon="17.6978028">
        <ele>27.0543</ele>
        <time>2013-04-09T18:17:09Z</time>
      </trkpt>
      <trkpt lat="59.9589709" lon="17.6979109">
        <ele>27.5349</ele>
        <time>2013-04-09T18:17:10Z</time>
      </trkpt>
      <trkpt lat="59.9589828" lon="17.6980164">
        <ele>28.0155</ele>
        <time>2013-04-09T18:17:11Z</time>
      </trkpt>
      <trkpt lat="59.9589912" lon="17.6981212">
        <ele>28.0155</ele>
        <time>2013-04-09T18:17:12Z</time>
      </trkpt>
      <trkpt lat="59.9589971" lon="17.6982274">
        <ele>28.0155</ele>
        <time>2013-04-09T18:17:13Z</time>
      </trkpt>
      <trkpt lat="59.959002" lon="17.6983337">
        <ele>28.4962</ele>
        <time>2013-04-09T18:17:14Z</time>
      </trkpt>
      <trkpt lat="59.9590067" lon="17.6984391">
        <ele>28.4962</ele>
        <time>2013-04-09T18:17:15Z</time>
      </trkpt>
      <trkpt lat="59.9590108" lon="17.698542">
        <ele>28.9769</ele>
        <time>2013-04-09T18:17:16Z</time>
      </trkpt>
      <trkpt lat="59.9590132" lon="17.6986439">
        <ele>28.9769</ele>
        <time>2013-04-09T18:17:17Z</time>
      </trkpt>
      <trkpt lat="59.9590143" lon="17.6987459">
        <ele>28.9769</ele>
        <time>2013-04-09T18:17:18Z</time>
      </trkpt>
      <trkpt lat="59.959015" lon="17.6988485">
        <ele>28.9769</ele>
        <time>2013-04-09T18:17:19Z</time>
      </trkpt>
      <trkpt lat="59.9590169" lon="17.6989521">
        <ele>28.9769</ele>
        <time>2013-04-09T18:17:20Z</time>
      </trkpt>
      <trkpt lat="59.9590196" lon="17.6990578">
        <ele>28.9769</ele>
        <time>2013-04-09T18:17:21Z</time>
      </trkpt>
      <trkpt lat="59.9590232" lon="17.6991667">
        <ele>28.9769</ele>
        <time>2013-04-09T18:17:22Z</time>
      </trkpt>
      <trkpt lat="59.9590284" lon="17.6992775">
        <ele>28.9769</ele>
        <time>2013-04-09T18:17:23Z</time>
      </trkpt>
      <trkpt lat="59.9590348" lon="17.6993905">
        <ele>28.9769</ele>
        <time>2013-04-09T18:17:24Z</time>
      </trkpt>
      <trkpt lat="59.9590414" lon="17.6995059">
        <ele>28.9769</ele>
        <time>2013-04-09T18:17:25Z</time>
      </trkpt>
      <trkpt lat="59.959049" lon="17.6996236">
        <ele>28.9769</ele>
        <time>2013-04-09T18:17:26Z</time>
      </trkpt>
      <trkpt lat="59.959058" lon="17.6997432">
        <ele>28.4962</ele>
        <time>2013-04-09T18:17:27Z</time>
      </trkpt>
      <trkpt lat="59.9590676" lon="17.6998649">
        <ele>28.4962</ele>
        <time>2013-04-09T18:17:28Z</time>
      </trkpt>
      <trkpt lat="59.9590781" lon="17.6999885">
        <ele>28.4962</ele>
        <time>2013-04-09T18:17:29Z</time>
      </trkpt>
      <trkpt lat="59.959089" lon="17.7001129">
        <ele>28.4962</ele>
        <time>2013-04-09T18:17:30Z</time>
      </trkpt>
      <trkpt lat="59.9590997" lon="17.7002389">
        <ele>28.4962</ele>
        <time>2013-04-09T18:17:31Z</time>
      </trkpt>
      <trkpt lat="59.9591107" lon="17.7003658">
        <ele>28.4962</ele>
        <time>2013-04-09T18:17:32Z</time>
      </trkpt>
      <trkpt lat="59.9591227" lon="17.7004927">
        <ele>28.4962</ele>
        <time>2013-04-09T18:17:33Z</time>
      </trkpt>
      <trkpt lat="59.959135" lon="17.7006191">
        <ele>28.4962</ele>
        <time>2013-04-09T18:17:34Z</time>
      </trkpt>
      <trkpt lat="59.9591474" lon="17.7007434">
        <ele>28.4962</ele>
        <time>2013-04-09T18:17:35Z</time>
      </trkpt>
      <trkpt lat="59.95916" lon="17.7008651">
        <ele>28.4962</ele>
        <time>2013-04-09T18:17:36Z</time>
      </trkpt>
      <trkpt lat="59.959174" lon="17.7009841">
        <ele>28.9769</ele>
        <time>2013-04-09T18:17:37Z</time>
      </trkpt>
      <trkpt lat="59.9591879" lon="17.7011004">
        <ele>28.9769</ele>
        <time>2013-04-09T18:17:38Z</time>
      </trkpt>
      <trkpt lat="59.9592014" lon="17.7012148">
        <ele>28.9769</ele>
        <time>2013-04-09T18:17:39Z</time>
      </trkpt>
      <trkpt lat="59.9592175" lon="17.701326">
        <ele>28.9769</ele>
        <time>2013-04-09T18:17:40Z</time>
      </trkpt>
      <trkpt lat="59.9592352" lon="17.7014343">
        <ele>28.9769</ele>
        <time>2013-04-09T18:17:41Z</time>
      </trkpt>
      <trkpt lat="59.9592543" lon="17.7015418">
        <ele>28.9769</ele>
        <time>2013-04-09T18:17:42Z</time>
      </trkpt>
      <trkpt lat="59.959277" lon="17.7016484">
        <ele>28.9769</ele>
        <time>2013-04-09T18:17:43Z</time>
      </trkpt>
      <trkpt lat="59.9593024" lon="17.7017552">
        <ele>28.9769</ele>
        <time>2013-04-09T18:17:44Z</time>
      </trkpt>
      <trkpt lat="59.9593274" lon="17.7018644">
        <ele>28.9769</ele>
        <time>2013-04-09T18:17:45Z</time>
      </trkpt>
      <trkpt lat="59.9593536" lon="17.7019741">
        <ele>28.9769</ele>
        <time>2013-04-09T18:17:46Z</time>
      </trkpt>
      <trkpt lat="59.9593826" lon="17.7020825">
        <ele>28.4962</ele>
        <time>2013-04-09T18:17:47Z</time>
      </trkpt>
      <trkpt lat="59.9594136" lon="17.7021893">
        <ele>28.4962</ele>
        <time>2013-04-09T18:17:48Z</time>
      </trkpt>
      <trkpt lat="59.959445" lon="17.702295">
        <ele>28.4962</ele>
        <time>2013-04-09T18:17:49Z</time>
      </trkpt>
      <trkpt lat="59.9594769" lon="17.7024017">
        <ele>28.4962</ele>
        <time>2013-04-09T18:17:50Z</time>
      </trkpt>
      <trkpt lat="59.9595086" lon="17.7025097">
        <ele>28.4962</ele>
        <time>2013-04-09T18:17:51Z</time>
      </trkpt>
      <trkpt lat="59.9595413" lon="17.7026169">
        <ele>28.4962</ele>
        <time>2013-04-09T18:17:52Z</time>
      </trkpt>
      <trkpt lat="59.9595743" lon="17.7027233">
        <ele>28.4962</ele>
        <time>2013-04-09T18:17:53Z</time>
      </trkpt>
      <trkpt lat="59.9596066" lon="17.7028321">
        <ele>28.0155</ele>
        <time>2013-04-09T18:17:54Z</time>
      </trkpt>
      <trkpt lat="59.9596402" lon="17.7029421">
        <ele>28.0155</ele>
        <time>2013-04-09T18:17:55Z</time>
      </trkpt>
      <trkpt lat="59.9596744" lon="17.7030527">
        <ele>28.0155</ele>
        <time>2013-04-09T18:17:56Z</time>
      </trkpt>
      <trkpt lat="59.9597073" lon="17.703167">
        <ele>28.0155</ele>
        <time>2013-04-09T18:17:57Z</time>
      </trkpt>
      <trkpt lat="59.9597406" lon="17.7032822">
        <ele>27.5349</ele>
        <time>2013-04-09T18:17:58Z</time>
      </trkpt>
      <trkpt lat="59.9597764" lon="17.7033968">
        <ele>27.0543</ele>
        <time>2013-04-09T18:17:59Z</time>
      </trkpt>
      <trkpt lat="59.9598133" lon="17.7035125">
        <ele>27.0543</ele>
        <time>2013-04-09T18:18:00Z</time>
      </trkpt>
      <trkpt lat="59.9598532" lon="17.703626">
        <ele>27.0543</ele>
        <time>2013-04-09T18:18:01Z</time>
      </trkpt>
      <trkpt lat="59.959892" lon="17.7037385">
        <ele>27.0543</ele>
        <time>2013-04-09T18:18:02Z</time>
      </trkpt>
      <trkpt lat="59.9599309" lon="17.7038504">
        <ele>27.5349</ele>
        <time>2013-04-09T18:18:03Z</time>
      </trkpt>
      <trkpt lat="59.9599711" lon="17.703956">
        <ele>27.5349</ele>
        <time>2013-04-09T18:18:04Z</time>
      </trkpt>
      <trkpt lat="59.9600089" lon="17.704058">
        <ele>27.5349</ele>
        <time>2013-04-09T18:18:05Z</time>
      </trkpt>
      <trkpt lat="59.9600466" lon="17.7041544">
        <ele>27.5349</ele>
        <time>2013-04-09T18:18:06Z</time>
      </trkpt>
      <trkpt lat="59.9600858" lon="17.704242">
        <ele>27.5349</ele>
        <time>2013-04-09T18:18:07Z</time>
      </trkpt>
      <trkpt lat="59.9601157" lon="17.7043164">
        <ele>27.5349</ele>
        <time>2013-04-09T18:18:08Z</time>
      </trkpt>
      <trkpt lat="59.9601606" lon="17.7043896">
        <ele>27.0543</ele>
        <time>2013-04-09T18:18:09Z</time>
      </trkpt>
      <trkpt lat="59.960211" lon="17.7044612">
        <ele>27.0543</ele>
        <time>2013-04-09T18:18:10Z</time>
      </trkpt>
      <trkpt lat="59.9602634" lon="17.7045298">
        <ele>27.0543</ele>
        <time>2013-04-09T18:18:11Z</time>
      </trkpt>
      <trkpt lat="59.9603196" lon="17.7045995">
        <ele>27.0543</ele>
        <time>2013-04-09T18:18:12Z</time>
      </trkpt>
      <trkpt lat="59.9603768" lon="17.7046693">
        <ele>27.0543</ele>
        <time>2013-04-09T18:18:13Z</time>
      </trkpt>
      <trkpt lat="59.9604346" lon="17.7047392">
        <ele>27.0543</ele>
        <time>2013-04-09T18:18:14Z</time>
      </trkpt>
      <trkpt lat="59.9604926" lon="17.7048098">
        <ele>27.0543</ele>
        <time>2013-04-09T18:18:15Z</time>
      </trkpt>
      <trkpt lat="59.9605509" lon="17.7048807">
        <ele>27.5349</ele>
        <time>2013-04-09T18:18:16Z</time>
      </trkpt>
      <trkpt lat="59.9606088" lon="17.7049543">
        <ele>27.5349</ele>
        <time>2013-04-09T18:18:17Z</time>
      </trkpt>
      <trkpt lat="59.9606672" lon="17.7050294">
        <ele>27.5349</ele>
        <time>2013-04-09T18:18:18Z</time>
      </trkpt>
      <trkpt lat="59.9607266" lon="17.7051034">
        <ele>27.5349</ele>
        <time>2013-04-09T18:18:19Z</time>
      </trkpt>
      <trkpt lat="59.9607843" lon="17.7051792">
        <ele>28.0155</ele>
        <time>2013-04-09T18:18:20Z</time>
      </trkpt>
      <trkpt lat="59.960842" lon="17.7052584">
        <ele>28.4962</ele>
        <time>2013-04-09T18:18:21Z</time>
      </trkpt>
      <trkpt lat="59.960899" lon="17.7053432">
        <ele>28.4962</ele>
        <time>2013-04-09T18:18:22Z</time>
      </trkpt>
      <trkpt lat="59.960957" lon="17.7054324">
        <ele>28.4962</ele>
        <time>2013-04-09T18:18:23Z</time>
      </trkpt>
      <trkpt lat="59.9610153" lon="17.705523">
        <ele>28.4962</ele>
        <time>2013-04-09T18:18:24Z</time>
      </trkpt>
      <trkpt lat="59.9610719" lon="17.7056174">
        <ele>28.4962</ele>
        <time>2013-04-09T18:18:25Z</time>
      </trkpt>
      <trkpt lat="59.9611278" lon="17.7057137">
        <ele>28.4962</ele>
        <time>2013-04-09T18:18:26Z</time>
      </trkpt>
      <trkpt lat="59.9611828" lon="17.7058102">
        <ele>28.9769</ele>
        <time>2013-04-09T18:18:27Z</time>
      </trkpt>
      <trkpt lat="59.9612363" lon="17.7059086">
        <ele>28.9769</ele>
        <time>2013-04-09T18:18:28Z</time>
      </trkpt>
      <trkpt lat="59.9612901" lon="17.7060069">
        <ele>28.9769</ele>
        <time>2013-04-09T18:18:29Z</time>
      </trkpt>
      <trkpt lat="59.9613443" lon="17.7061038">
        <ele>28.9769</ele>
        <time>2013-04-09T18:18:30Z</time>
      </trkpt>
      <trkpt lat="59.9613992" lon="17.7062007">
        <ele>28.9769</ele>
        <time>2013-04-09T18:18:31Z</time>
      </trkpt>
      <trkpt lat="59.9614547" lon="17.706298">
        <ele>28.9769</ele>
        <time>2013-04-09T18:18:32Z</time>
      </trkpt>
      <trkpt lat="59.9615121" lon="17.7063914">
        <ele>28.9769</ele>
        <time>2013-04-09T18:18:33Z</time>
      </trkpt>
      <trkpt lat="59.9615718" lon="17.7064773">
        <ele>28.9769</ele>
        <time>2013-04-09T18:18:34Z</time>
      </trkpt>
      <trkpt lat="59.9616336" lon="17.706555">
        <ele>28.9769</ele>
        <time>2013-04-09T18:18:35Z</time>
      </trkpt>
      <trkpt lat="59.9616993" lon="17.7066234">
        <ele>28.9769</ele>
        <time>2013-04-09T18:18:36Z</time>
      </trkpt>
      <trkpt lat="59.9617675" lon="17.706685">
        <ele>28.9769</ele>
        <time>2013-04-09T18:18:37Z</time>
      </trkpt>
      <trkpt lat="59.9618358" lon="17.7067445">
        <ele>28.9769</ele>
        <time>2013-04-09T18:18:38Z</time>
      </trkpt>
      <trkpt lat="59.9619049" lon="17.7067979">
        <ele>28.9769</ele>
        <time>2013-04-09T18:18:39Z</time>
      </trkpt>
      <trkpt lat="59.9619765" lon="17.7068449">
        <ele>28.9769</ele>
        <time>2013-04-09T18:18:40Z</time>
      </trkpt>
      <trkpt lat="59.9620482" lon="17.7068897">
        <ele>28.9769</ele>
        <time>2013-04-09T18:18:41Z</time>
      </trkpt>
      <trkpt lat="59.9621194" lon="17.7069342">
        <ele>28.9769</ele>
        <time>2013-04-09T18:18:42Z</time>
      </trkpt>
      <trkpt lat="59.9621919" lon="17.7069747">
        <ele>28.9769</ele>
        <time>2013-04-09T18:18:43Z</time>
      </trkpt>
      <trkpt lat="59.9622654" lon="17.7070093">
        <ele>28.9769</ele>
        <time>2013-04-09T18:18:44Z</time>
      </trkpt>
      <trkpt lat="59.9623388" lon="17.7070419">
        <ele>28.9769</ele>
        <time>2013-04-09T18:18:45Z</time>
      </trkpt>
      <trkpt lat="59.9624126" lon="17.7070735">
        <ele>28.9769</ele>
        <time>2013-04-09T18:18:46Z</time>
      </trkpt>
      <trkpt lat="59.9624872" lon="17.707102">
        <ele>28.4962</ele>
        <time>2013-04-09T18:18:47Z</time>
      </trkpt>
      <trkpt lat="59.9625618" lon="17.7071257">
        <ele>28.4962</ele>
        <time>2013-04-09T18:18:48Z</time>
      </trkpt>
      <trkpt lat="59.962636" lon="17.7071449">
        <ele>28.4962</ele>
        <time>2013-04-09T18:18:49Z</time>
      </trkpt>
      <trkpt lat="59.9627113" lon="17.7071609">
        <ele>28.4962</ele>
        <time>2013-04-09T18:18:50Z</time>
      </trkpt>
      <trkpt lat="59.9627883" lon="17.7071719">
        <ele>28.0155</ele>
        <time>2013-04-09T18:18:51Z</time>
      </trkpt>
      <trkpt lat="59.962867" lon="17.7071803">
        <ele>28.0155</ele>
        <time>2013-04-09T18:18:52Z</time>
      </trkpt>
      <trkpt lat="59.9629472" lon="17.7071827">
        <ele>28.0155</ele>
        <time>2013-04-09T18:18:53Z</time>
      </trkpt>
      <trkpt lat="59.9630276" lon="17.7071798">
        <ele>28.0155</ele>
        <time>2013-04-09T18:18:54Z</time>
      </trkpt>
      <trkpt lat="59.9631086" lon="17.707175">
        <ele>28.0155</ele>
        <time>2013-04-09T18:18:55Z</time>
      </trkpt>
      <trkpt lat="59.9631901" lon="17.7071712">
        <ele>28.4962</ele>
        <time>2013-04-09T18:18:56Z</time>
      </trkpt>
      <trkpt lat="59.9632715" lon="17.7071689">
        <ele>28.4962</ele>
        <time>2013-04-09T18:18:57Z</time>
      </trkpt>
      <trkpt lat="59.9633537" lon="17.7071683">
        <ele>28.4962</ele>
        <time>2013-04-09T18:18:58Z</time>
      </trkpt>
      <trkpt lat="59.9634362" lon="17.7071697">
        <ele>28.4962</ele>
        <time>2013-04-09T18:18:59Z</time>
      </trkpt>
      <trkpt lat="59.9635183" lon="17.7071744">
        <ele>28.4962</ele>
        <time>2013-04-09T18:19:00Z</time>
      </trkpt>
      <trkpt lat="59.9636004" lon="17.7071817">
        <ele>28.4962</ele>
        <time>2013-04-09T18:19:01Z</time>
      </trkpt>
      <trkpt lat="59.9636821" lon="17.7071906">
        <ele>28.4962</ele>
        <time>2013-04-09T18:19:02Z</time>
      </trkpt>
      <trkpt lat="59.9637632" lon="17.7071997">
        <ele>28.4962</ele>
        <time>2013-04-09T18:19:03Z</time>
      </trkpt>
      <trkpt lat="59.9638444" lon="17.7072075">
        <ele>28.4962</ele>
        <time>2013-04-09T18:19:04Z</time>
      </trkpt>
      <trkpt lat="59.963925" lon="17.7072159">
        <ele>28.4962</ele>
        <time>2013-04-09T18:19:05Z</time>
      </trkpt>
      <trkpt lat="59.9640047" lon="17.7072292">
        <ele>28.4962</ele>
        <time>2013-04-09T18:19:06Z</time>
      </trkpt>
      <trkpt lat="59.9640837" lon="17.7072451">
        <ele>28.4962</ele>
        <time>2013-04-09T18:19:07Z</time>
      </trkpt>
      <trkpt lat="59.9641629" lon="17.7072618">
        <ele>28.4962</ele>
        <time>2013-04-09T18:19:08Z</time>
      </trkpt>
      <trkpt lat="59.9642423" lon="17.7072801">
        <ele>28.4962</ele>
        <time>2013-04-09T18:19:09Z</time>
      </trkpt>
      <trkpt lat="59.9643214" lon="17.7073025">
        <ele>28.4962</ele>
        <time>2013-04-09T18:19:10Z</time>
      </trkpt>
      <trkpt lat="59.9643997" lon="17.7073302">
        <ele>28.4962</ele>
        <time>2013-04-09T18:19:11Z</time>
      </trkpt>
      <trkpt lat="59.9644778" lon="17.7073624">
        <ele>28.4962</ele>
        <time>2013-04-09T18:19:12Z</time>
      </trkpt>
      <trkpt lat="59.9645546" lon="17.7073999">
        <ele>28.4962</ele>
        <time>2013-04-09T18:19:13Z</time>
      </trkpt>
      <trkpt lat="59.9646307" lon="17.7074423">
        <ele>28.4962</ele>
        <time>2013-04-09T18:19:14Z</time>
      </trkpt>
      <trkpt lat="59.9647063" lon="17.7074901">
        <ele>28.4962</ele>
        <time>2013-04-09T18:19:15Z</time>
      </trkpt>
      <trkpt lat="59.9647815" lon="17.7075431">
        <ele>28.4962</ele>
        <time>2013-04-09T18:19:16Z</time>
      </trkpt>
      <trkpt lat="59.9648565" lon="17.7075982">
        <ele>28.4962</ele>
        <time>2013-04-09T18:19:17Z</time>
      </trkpt>
      <trkpt lat="59.9649309" lon="17.707655">
        <ele>28.4962</ele>
        <time>2013-04-09T18:19:18Z</time>
      </trkpt>
      <trkpt lat="59.9650048" lon="17.7077122">
        <ele>28.0155</ele>
        <time>2013-04-09T18:19:19Z</time>
      </trkpt>
      <trkpt lat="59.9650788" lon="17.7077688">
        <ele>28.0155</ele>
        <time>2013-04-09T18:19:20Z</time>
      </trkpt>
      <trkpt lat="59.9651523" lon="17.7078277">
        <ele>28.0155</ele>
        <time>2013-04-09T18:19:21Z</time>
      </trkpt>
      <trkpt lat="59.9652255" lon="17.7078879">
        <ele>28.0155</ele>
        <time>2013-04-09T18:19:22Z</time>
      </trkpt>
      <trkpt lat="59.9652983" lon="17.7079495">
        <ele>28.0155</ele>
        <time>2013-04-09T18:19:23Z</time>
      </trkpt>
      <trkpt lat="59.96537" lon="17.7080136">
        <ele>28.0155</ele>
        <time>2013-04-09T18:19:24Z</time>
      </trkpt>
      <trkpt lat="59.9654407" lon="17.7080824">
        <ele>28.0155</ele>
        <time>2013-04-09T18:19:25Z</time>
      </trkpt>
      <trkpt lat="59.9655096" lon="17.7081586">
        <ele>27.5349</ele>
        <time>2013-04-09T18:19:26Z</time>
      </trkpt>
      <trkpt lat="59.9655767" lon="17.7082436">
        <ele>27.5349</ele>
        <time>2013-04-09T18:19:27Z</time>
      </trkpt>
      <trkpt lat="59.9656418" lon="17.7083379">
        <ele>27.5349</ele>
        <time>2013-04-09T18:19:28Z</time>
      </trkpt>
      <trkpt lat="59.9657035" lon="17.7084415">
        <ele>27.5349</ele>
        <time>2013-04-09T18:19:29Z</time>
      </trkpt>
      <trkpt lat="59.965761" lon="17.7085553">
        <ele>27.5349</ele>
        <time>2013-04-09T18:19:30Z</time>
      </trkpt>
      <trkpt lat="59.9658137" lon="17.708677">
        <ele>27.0543</ele>
        <time>2013-04-09T18:19:31Z</time>
      </trkpt>
      <trkpt lat="59.9658631" lon="17.7088034">
        <ele>27.0543</ele>
        <time>2013-04-09T18:19:32Z</time>
      </trkpt>
      <trkpt lat="59.9659096" lon="17.7089337">
        <ele>27.0543</ele>
        <time>2013-04-09T18:19:33Z</time>
      </trkpt>
      <trkpt lat="59.9659543" lon="17.7090662">
        <ele>26.5736</ele>
        <time>2013-04-09T18:19:34Z</time>
      </trkpt>
      <trkpt lat="59.9659967" lon="17.7091999">
        <ele>26.5736</ele>
        <time>2013-04-09T18:19:35Z</time>
      </trkpt>
      <trkpt lat="59.9660356" lon="17.7093349">
        <ele>26.5736</ele>
        <time>2013-04-09T18:19:36Z</time>
      </trkpt>
      <trkpt lat="59.9660723" lon="17.7094688">
        <ele>26.5736</ele>
        <time>2013-04-09T18:19:37Z</time>
      </trkpt>
      <trkpt lat="59.9661086" lon="17.7096009">
        <ele>26.5736</ele>
        <time>2013-04-09T18:19:38Z</time>
      </trkpt>
      <trkpt lat="59.966145" lon="17.7097302">
        <ele>26.5736</ele>
        <time>2013-04-09T18:19:39Z</time>
      </trkpt>
      <trkpt lat="59.9661821" lon="17.7098566">
        <ele>26.5736</ele>
        <time>2013-04-09T18:19:40Z</time>
      </trkpt>
      <trkpt lat="59.9662179" lon="17.7099825">
        <ele>26.5736</ele>
        <time>2013-04-09T18:19:41Z</time>
      </trkpt>
      <trkpt lat="59.9662521" lon="17.7101085">
        <ele>26.5736</ele>
        <time>2013-04-09T18:19:42Z</time>
      </trkpt>
      <trkpt lat="59.9662858" lon="17.7102323">
        <ele>26.5736</ele>
        <time>2013-04-09T18:19:43Z</time>
      </trkpt>
      <trkpt lat="59.96632" lon="17.7103525">
        <ele>26.5736</ele>
        <time>2013-04-09T18:19:44Z</time>
      </trkpt>
      <trkpt lat="59.9663532" lon="17.7104715">
        <ele>26.5736</ele>
        <time>2013-04-09T18:19:45Z</time>
      </trkpt>
      <trkpt lat="59.966386" lon="17.7105883">
        <ele>26.5736</ele>
        <time>2013-04-09T18:19:46Z</time>
      </trkpt>
      <trkpt lat="59.9664197" lon="17.7107015">
        <ele>26.5736</ele>
        <time>2013-04-09T18:19:47Z</time>
      </trkpt>
      <trkpt lat="59.966452" lon="17.7108124">
        <ele>26.5736</ele>
        <time>2013-04-09T18:19:48Z</time>
      </trkpt>
      <trkpt lat="59.9664812" lon="17.7109224">
        <ele>26.5736</ele>
        <time>2013-04-09T18:19:49Z</time>
      </trkpt>
      <trkpt lat="59.9665095" lon="17.7110299">
        <ele>26.5736</ele>
        <time>2013-04-09T18:19:50Z</time>
      </trkpt>
      <trkpt lat="59.9665388" lon="17.7111346">
        <ele>26.5736</ele>
        <time>2013-04-09T18:19:51Z</time>
      </trkpt>
      <trkpt lat="59.9665689" lon="17.7112368">
        <ele>26.5736</ele>
        <time>2013-04-09T18:19:52Z</time>
      </trkpt>
      <trkpt lat="59.9665996" lon="17.7113366">
        <ele>26.5736</ele>
        <time>2013-04-09T18:19:53Z</time>
      </trkpt>
      <trkpt lat="59.9666321" lon="17.7114297">
        <ele>26.5736</ele>
        <time>2013-04-09T18:19:54Z</time>
      </trkpt>
      <trkpt lat="59.966666" lon="17.7115185">
        <ele>26.5736</ele>
        <time>2013-04-09T18:19:55Z</time>
      </trkpt>
      <trkpt lat="59.9666997" lon="17.7116085">
        <ele>26.5736</ele>
        <time>2013-04-09T18:19:56Z</time>
      </trkpt>
      <trkpt lat="59.9667321" lon="17.7117007">
        <ele>26.5736</ele>
        <time>2013-04-09T18:19:57Z</time>
      </trkpt>
      <trkpt lat="59.9667644" lon="17.7117927">
        <ele>26.5736</ele>
        <time>2013-04-09T18:19:58Z</time>
      </trkpt>
      <trkpt lat="59.9667976" lon="17.7118838">
        <ele>26.5736</ele>
        <time>2013-04-09T18:19:59Z</time>
      </trkpt>
      <trkpt lat="59.9668312" lon="17.7119754">
        <ele>26.5736</ele>
        <time>2013-04-09T18:20:00Z</time>
      </trkpt>
      <trkpt lat="59.9668649" lon="17.7120676">
        <ele>26.5736</ele>
        <time>2013-04-09T18:20:01Z</time>
      </trkpt>
      <trkpt lat="59.9668986" lon="17.7121602">
        <ele>26.5736</ele>
        <time>2013-04-09T18:20:02Z</time>
      </trkpt>
      <trkpt lat="59.9669328" lon="17.7122531">
        <ele>26.5736</ele>
        <time>2013-04-09T18:20:03Z</time>
      </trkpt>
      <trkpt lat="59.9669672" lon="17.7123478">
        <ele>26.5736</ele>
        <time>2013-04-09T18:20:04Z</time>
      </trkpt>
      <trkpt lat="59.9669995" lon="17.7124468">
        <ele>26.5736</ele>
        <time>2013-04-09T18:20:05Z</time>
      </trkpt>
      <trkpt lat="59.9670295" lon="17.7125499">
        <ele>26.5736</ele>
        <time>2013-04-09T18:20:06Z</time>
      </trkpt>
      <trkpt lat="59.9670584" lon="17.7126552">
        <ele>26.5736</ele>
        <time>2013-04-09T18:20:07Z</time>
      </trkpt>
      <trkpt lat="59.9670875" lon="17.7127607">
        <ele>26.5736</ele>
        <time>2013-04-09T18:20:08Z</time>
      </trkpt>
      <trkpt lat="59.9671169" lon="17.7128643">
        <ele>26.0929</ele>
        <time>2013-04-09T18:20:09Z</time>
      </trkpt>
      <trkpt lat="59.9671452" lon="17.7129694">
        <ele>26.0929</ele>
        <time>2013-04-09T18:20:10Z</time>
      </trkpt>
      <trkpt lat="59.9671719" lon="17.7130767">
        <ele>26.0929</ele>
        <time>2013-04-09T18:20:11Z</time>
      </trkpt>
      <trkpt lat="59.9671954" lon="17.7131891">
        <ele>25.6123</ele>
        <time>2013-04-09T18:20:12Z</time>
      </trkpt>
      <trkpt lat="59.9672167" lon="17.7133062">
        <ele>25.1317</ele>
        <time>2013-04-09T18:20:13Z</time>
      </trkpt>
      <trkpt lat="59.967238" lon="17.7134269">
        <ele>25.1317</ele>
        <time>2013-04-09T18:20:14Z</time>
      </trkpt>
      <trkpt lat="59.9672606" lon="17.7135516">
        <ele>24.651</ele>
        <time>2013-04-09T18:20:15Z</time>
      </trkpt>
      <trkpt lat="59.9672832" lon="17.713681">
        <ele>24.1703</ele>
        <time>2013-04-09T18:20:16Z</time>
      </trkpt>
      <trkpt lat="59.9673032" lon="17.7138179">
        <ele>24.1703</ele>
        <time>2013-04-09T18:20:17Z</time>
      </trkpt>
      <trkpt lat="59.9673223" lon="17.7139619">
        <ele>23.6896</ele>
        <time>2013-04-09T18:20:18Z</time>
      </trkpt>
      <trkpt lat="59.9673421" lon="17.7141115">
        <ele>23.209</ele>
        <time>2013-04-09T18:20:19Z</time>
      </trkpt>
      <trkpt lat="59.9673635" lon="17.7142666">
        <ele>22.7283</ele>
        <time>2013-04-09T18:20:20Z</time>
      </trkpt>
      <trkpt lat="59.9673864" lon="17.7144261">
        <ele>22.2476</ele>
        <time>2013-04-09T18:20:21Z</time>
      </trkpt>
      <trkpt lat="59.9674103" lon="17.7145888">
        <ele>21.767</ele>
        <time>2013-04-09T18:20:22Z</time>
      </trkpt>
      <trkpt lat="59.9674347" lon="17.7147529">
        <ele>21.2864</ele>
        <time>2013-04-09T18:20:23Z</time>
      </trkpt>
      <trkpt lat="59.9674595" lon="17.7149161">
        <ele>21.2864</ele>
        <time>2013-04-09T18:20:24Z</time>
      </trkpt>
      <trkpt lat="59.9674876" lon="17.7150675">
        <ele>21.2864</ele>
        <time>2013-04-09T18:20:25Z</time>
      </trkpt>
      <trkpt lat="59.9675058" lon="17.7152273">
        <ele>20.8057</ele>
        <time>2013-04-09T18:20:26Z</time>
      </trkpt>
      <trkpt lat="59.9675398" lon="17.7153847">
        <ele>20.8057</ele>
        <time>2013-04-09T18:20:27Z</time>
      </trkpt>
      <trkpt lat="59.967574" lon="17.7155262">
        <ele>20.8057</ele>
        <time>2013-04-09T18:20:28Z</time>
      </trkpt>
      <trkpt lat="59.9676103" lon="17.7156578">
        <ele>21.2864</ele>
        <time>2013-04-09T18:20:29Z</time>
      </trkpt>
      <trkpt lat="59.9676465" lon="17.7157819">
        <ele>21.767</ele>
        <time>2013-04-09T18:20:30Z</time>
      </trkpt>
      <trkpt lat="59.9676813" lon="17.7158984">
        <ele>22.2476</ele>
        <time>2013-04-09T18:20:31Z</time>
      </trkpt>
      <trkpt lat="59.9677129" lon="17.7160095">
        <ele>22.2476</ele>
        <time>2013-04-09T18:20:32Z</time>
      </trkpt>
      <trkpt lat="59.9677445" lon="17.7161163">
        <ele>22.2476</ele>
        <time>2013-04-09T18:20:33Z</time>
      </trkpt>
      <trkpt lat="59.9677786" lon="17.7162143">
        <ele>22.7283</ele>
        <time>2013-04-09T18:20:34Z</time>
      </trkpt>
      <trkpt lat="59.9678134" lon="17.7163039">
        <ele>23.209</ele>
        <time>2013-04-09T18:20:35Z</time>
      </trkpt>
      <trkpt lat="59.9678494" lon="17.7163878">
        <ele>23.209</ele>
        <time>2013-04-09T18:20:36Z</time>
      </trkpt>
      <trkpt lat="59.9678855" lon="17.7164661">
        <ele>23.6896</ele>
        <time>2013-04-09T18:20:37Z</time>
      </trkpt>
      <trkpt lat="59.9679242" lon="17.7165378">
        <ele>24.1703</ele>
        <time>2013-04-09T18:20:38Z</time>
      </trkpt>
      <trkpt lat="59.967965" lon="17.7166023">
        <ele>24.1703</ele>
        <time>2013-04-09T18:20:39Z</time>
      </trkpt>
      <trkpt lat="59.9680065" lon="17.716665">
        <ele>24.651</ele>
        <time>2013-04-09T18:20:40Z</time>
      </trkpt>
      <trkpt lat="59.9680481" lon="17.7167261">
        <ele>24.651</ele>
        <time>2013-04-09T18:20:41Z</time>
      </trkpt>
      <trkpt lat="59.9680914" lon="17.7167842">
        <ele>25.1317</ele>
        <time>2013-04-09T18:20:42Z</time>
      </trkpt>
      <trkpt lat="59.9681335" lon="17.7168399">
        <ele>25.1317</ele>
        <time>2013-04-09T18:20:43Z</time>
      </trkpt>
      <trkpt lat="59.9681744" lon="17.7168923">
        <ele>25.6123</ele>
        <time>2013-04-09T18:20:44Z</time>
      </trkpt>
      <trkpt lat="59.9682188" lon="17.716945">
        <ele>26.0929</ele>
        <time>2013-04-09T18:20:45Z</time>
      </trkpt>
      <trkpt lat="59.968263" lon="17.7169851">
        <ele>26.0929</ele>
        <time>2013-04-09T18:20:46Z</time>
      </trkpt>
      <trkpt lat="59.9683085" lon="17.7170234">
        <ele>26.5736</ele>
        <time>2013-04-09T18:20:47Z</time>
      </trkpt>
      <trkpt lat="59.9683555" lon="17.7170634">
        <ele>26.5736</ele>
        <time>2013-04-09T18:20:48Z</time>
      </trkpt>
      <trkpt lat="59.9684042" lon="17.717097">
        <ele>27.0543</ele>
        <time>2013-04-09T18:20:49Z</time>
      </trkpt>
      <trkpt lat="59.9684541" lon="17.7171253">
        <ele>27.5349</ele>
        <time>2013-04-09T18:20:50Z</time>
      </trkpt>
      <trkpt lat="59.9685034" lon="17.7171544">
        <ele>28.0155</ele>
        <time>2013-04-09T18:20:51Z</time>
      </trkpt>
      <trkpt lat="59.9685536" lon="17.7171813">
        <ele>28.0155</ele>
        <time>2013-04-09T18:20:52Z</time>
      </trkpt>
      <trkpt lat="59.9686054" lon="17.717205">
        <ele>28.4962</ele>
        <time>2013-04-09T18:20:53Z</time>
      </trkpt>
      <trkpt lat="59.968658" lon="17.7172285">
        <ele>28.4962</ele>
        <time>2013-04-09T18:20:54Z</time>
      </trkpt>
      <trkpt lat="59.9687117" lon="17.7172532">
        <ele>28.4962</ele>
        <time>2013-04-09T18:20:55Z</time>
      </trkpt>
      <trkpt lat="59.9687673" lon="17.7172793">
        <ele>28.4962</ele>
        <time>2013-04-09T18:20:56Z</time>
      </trkpt>
      <trkpt lat="59.9688224" lon="17.7173068">
        <ele>28.0155</ele>
        <time>2013-04-09T18:20:57Z</time>
      </trkpt>
      <trkpt lat="59.9688759" lon="17.717329">
        <ele>28.0155</ele>
        <time>2013-04-09T18:20:58Z</time>
      </trkpt>
      <trkpt lat="59.9689281" lon="17.7173477">
        <ele>28.0155</ele>
        <time>2013-04-09T18:20:59Z</time>
      </trkpt>
      <trkpt lat="59.968979" lon="17.7173652">
        <ele>28.0155</ele>
        <time>2013-04-09T18:21:00Z</time>
      </trkpt>
      <trkpt lat="59.9690292" lon="17.7173822">
        <ele>28.0155</ele>
        <time>2013-04-09T18:21:01Z</time>
      </trkpt>
      <trkpt lat="59.9690789" lon="17.7174005">
        <ele>28.0155</ele>
        <time>2013-04-09T18:21:02Z</time>
      </trkpt>
      <trkpt lat="59.9691276" lon="17.7174202">
        <ele>28.0155</ele>
        <time>2013-04-09T18:21:03Z</time>
      </trkpt>
      <trkpt lat="59.9691757" lon="17.7174398">
        <ele>28.0155</ele>
        <time>2013-04-09T18:21:04Z</time>
      </trkpt>
      <trkpt lat="59.9692233" lon="17.7174591">
        <ele>28.0155</ele>
        <time>2013-04-09T18:21:05Z</time>
      </trkpt>
      <trkpt lat="59.9692705" lon="17.7174792">
        <ele>28.0155</ele>
        <time>2013-04-09T18:21:06Z</time>
      </trkpt>
      <trkpt lat="59.9693177" lon="17.7175011">
        <ele>28.0155</ele>
        <time>2013-04-09T18:21:07Z</time>
      </trkpt>
      <trkpt lat="59.9693659" lon="17.717527">
        <ele>28.0155</ele>
        <time>2013-04-09T18:21:08Z</time>
      </trkpt>
      <trkpt lat="59.9694154" lon="17.717555">
        <ele>27.5349</ele>
        <time>2013-04-09T18:21:09Z</time>
      </trkpt>
      <trkpt lat="59.9694664" lon="17.7175844">
        <ele>27.5349</ele>
        <time>2013-04-09T18:21:10Z</time>
      </trkpt>
      <trkpt lat="59.9695191" lon="17.7176156">
        <ele>27.5349</ele>
        <time>2013-04-09T18:21:11Z</time>
      </trkpt>
      <trkpt lat="59.9695729" lon="17.7176493">
        <ele>27.5349</ele>
        <time>2013-04-09T18:21:12Z</time>
      </trkpt>
      <trkpt lat="59.969628" lon="17.7176854">
        <ele>27.5349</ele>
        <time>2013-04-09T18:21:13Z</time>
      </trkpt>
      <trkpt lat="59.969684" lon="17.7177242">
        <ele>27.5349</ele>
        <time>2013-04-09T18:21:14Z</time>
      </trkpt>
      <trkpt lat="59.9697409" lon="17.7177661">
        <ele>27.5349</ele>
        <time>2013-04-09T18:21:15Z</time>
      </trkpt>
      <trkpt lat="59.9697983" lon="17.7178124">
        <ele>27.0543</ele>
        <time>2013-04-09T18:21:16Z</time>
      </trkpt>
      <trkpt lat="59.9698559" lon="17.7178632">
        <ele>27.0543</ele>
        <time>2013-04-09T18:21:17Z</time>
      </trkpt>
      <trkpt lat="59.9699143" lon="17.7179168">
        <ele>27.0543</ele>
        <time>2013-04-09T18:21:18Z</time>
      </trkpt>
      <trkpt lat="59.9699736" lon="17.7179705">
        <ele>27.0543</ele>
        <time>2013-04-09T18:21:19Z</time>
      </trkpt>
      <trkpt lat="59.9700345" lon="17.7180242">
        <ele>27.0543</ele>
        <time>2013-04-09T18:21:20Z</time>
      </trkpt>
      <trkpt lat="59.970096" lon="17.7180787">
        <ele>27.0543</ele>
        <time>2013-04-09T18:21:21Z</time>
      </trkpt>
      <trkpt lat="59.9701579" lon="17.7181347">
        <ele>27.0543</ele>
        <time>2013-04-09T18:21:22Z</time>
      </trkpt>
      <trkpt lat="59.9702196" lon="17.7181914">
        <ele>27.0543</ele>
        <time>2013-04-09T18:21:23Z</time>
      </trkpt>
      <trkpt lat="59.9702811" lon="17.718249">
        <ele>27.0543</ele>
        <time>2013-04-09T18:21:24Z</time>
      </trkpt>
      <trkpt lat="59.9703429" lon="17.7183059">
        <ele>27.0543</ele>
        <time>2013-04-09T18:21:25Z</time>
      </trkpt>
      <trkpt lat="59.9704055" lon="17.718362">
        <ele>27.0543</ele>
        <time>2013-04-09T18:21:26Z</time>
      </trkpt>
      <trkpt lat="59.9704682" lon="17.718419">
        <ele>27.0543</ele>
        <time>2013-04-09T18:21:27Z</time>
      </trkpt>
      <trkpt lat="59.970531" lon="17.7184796">
        <ele>27.0543</ele>
        <time>2013-04-09T18:21:28Z</time>
      </trkpt>
      <trkpt lat="59.9705945" lon="17.7185408">
        <ele>27.0543</ele>
        <time>2013-04-09T18:21:29Z</time>
      </trkpt>
      <trkpt lat="59.9706588" lon="17.7185995">
        <ele>27.0543</ele>
        <time>2013-04-09T18:21:30Z</time>
      </trkpt>
      <trkpt lat="59.9707237" lon="17.7186571">
        <ele>27.0543</ele>
        <time>2013-04-09T18:21:31Z</time>
      </trkpt>
      <trkpt lat="59.9707893" lon="17.7187156">
        <ele>27.0543</ele>
        <time>2013-04-09T18:21:32Z</time>
      </trkpt>
      <trkpt lat="59.9708554" lon="17.7187758">
        <ele>27.0543</ele>
        <time>2013-04-09T18:21:33Z</time>
      </trkpt>
      <trkpt lat="59.9709221" lon="17.718837">
        <ele>27.0543</ele>
        <time>2013-04-09T18:21:34Z</time>
      </trkpt>
      <trkpt lat="59.9709893" lon="17.7188997">
        <ele>27.0543</ele>
        <time>2013-04-09T18:21:35Z</time>
      </trkpt>
      <trkpt lat="59.9710571" lon="17.718963">
        <ele>27.0543</ele>
        <time>2013-04-09T18:21:36Z</time>
      </trkpt>
      <trkpt lat="59.9711255" lon="17.719026">
        <ele>27.0543</ele>
        <time>2013-04-09T18:21:37Z</time>
      </trkpt>
      <trkpt lat="59.9711944" lon="17.7190878">
        <ele>26.5736</ele>
        <time>2013-04-09T18:21:38Z</time>
      </trkpt>
      <trkpt lat="59.9712637" lon="17.7191502">
        <ele>26.5736</ele>
        <time>2013-04-09T18:21:39Z</time>
      </trkpt>
      <trkpt lat="59.9713335" lon="17.7192149">
        <ele>26.5736</ele>
        <time>2013-04-09T18:21:40Z</time>
      </trkpt>
      <trkpt lat="59.9714042" lon="17.7192804">
        <ele>26.5736</ele>
        <time>2013-04-09T18:21:41Z</time>
      </trkpt>
      <trkpt lat="59.9714761" lon="17.7193456">
        <ele>26.5736</ele>
        <time>2013-04-09T18:21:42Z</time>
      </trkpt>
      <trkpt lat="59.9715485" lon="17.719412">
        <ele>26.5736</ele>
        <time>2013-04-09T18:21:43Z</time>
      </trkpt>
      <trkpt lat="59.9716217" lon="17.7194799">
        <ele>26.5736</ele>
        <time>2013-04-09T18:21:44Z</time>
      </trkpt>
      <trkpt lat="59.9716952" lon="17.7195473">
        <ele>26.5736</ele>
        <time>2013-04-09T18:21:45Z</time>
      </trkpt>
      <trkpt lat="59.9717689" lon="17.7196145">
        <ele>26.0929</ele>
        <time>2013-04-09T18:21:46Z</time>
      </trkpt>
      <trkpt lat="59.9718425" lon="17.7196824">
        <ele>26.0929</ele>
        <time>2013-04-09T18:21:47Z</time>
      </trkpt>
      <trkpt lat="59.971916" lon="17.7197507">
        <ele>26.0929</ele>
        <time>2013-04-09T18:21:48Z</time>
      </trkpt>
      <trkpt lat="59.9719897" lon="17.7198181">
        <ele>26.0929</ele>
        <time>2013-04-09T18:21:49Z</time>
      </trkpt>
      <trkpt lat="59.9720641" lon="17.719884">
        <ele>26.0929</ele>
        <time>2013-04-09T18:21:50Z</time>
      </trkpt>
      <trkpt lat="59.9721385" lon="17.719951">
        <ele>26.0929</ele>
        <time>2013-04-09T18:21:51Z</time>
      </trkpt>
      <trkpt lat="59.9722128" lon="17.7200184">
        <ele>26.0929</ele>
        <time>2013-04-09T18:21:52Z</time>
      </trkpt>
      <trkpt lat="59.9722869" lon="17.7200854">
        <ele>25.6123</ele>
        <time>2013-04-09T18:21:53Z</time>
      </trkpt>
      <trkpt lat="59.9723605" lon="17.7201538">
        <ele>25.6123</ele>
        <time>2013-04-09T18:21:54Z</time>
      </trkpt>
      <trkpt lat="59.9724333" lon="17.7202232">
        <ele>25.6123</ele>
        <time>2013-04-09T18:21:55Z</time>
      </trkpt>
      <trkpt lat="59.972506" lon="17.72029">
        <ele>25.6123</ele>
        <time>2013-04-09T18:21:56Z</time>
      </trkpt>
      <trkpt lat="59.9725785" lon="17.7203541">
        <ele>25.6123</ele>
        <time>2013-04-09T18:21:57Z</time>
      </trkpt>
      <trkpt lat="59.97265" lon="17.7204199">
        <ele>25.6123</ele>
        <time>2013-04-09T18:21:58Z</time>
      </trkpt>
      <trkpt lat="59.9727198" lon="17.7204899">
        <ele>25.6123</ele>
        <time>2013-04-09T18:21:59Z</time>
      </trkpt>
      <trkpt lat="59.9727874" lon="17.720565">
        <ele>25.1317</ele>
        <time>2013-04-09T18:22:00Z</time>
      </trkpt>
      <trkpt lat="59.972854" lon="17.7206434">
        <ele>25.1317</ele>
        <time>2013-04-09T18:22:01Z</time>
      </trkpt>
      <trkpt lat="59.9729184" lon="17.7207251">
        <ele>25.1317</ele>
        <time>2013-04-09T18:22:02Z</time>
      </trkpt>
      <trkpt lat="59.9729811" lon="17.7208104">
        <ele>25.1317</ele>
        <time>2013-04-09T18:22:03Z</time>
      </trkpt>
      <trkpt lat="59.9730427" lon="17.7208981">
        <ele>25.1317</ele>
        <time>2013-04-09T18:22:04Z</time>
      </trkpt>
      <trkpt lat="59.9731037" lon="17.7209871">
        <ele>25.1317</ele>
        <time>2013-04-09T18:22:05Z</time>
      </trkpt>
      <trkpt lat="59.9731629" lon="17.7210788">
        <ele>25.1317</ele>
        <time>2013-04-09T18:22:06Z</time>
      </trkpt>
      <trkpt lat="59.9732198" lon="17.7211753">
        <ele>25.1317</ele>
        <time>2013-04-09T18:22:07Z</time>
      </trkpt>
      <trkpt lat="59.9732756" lon="17.7212738">
        <ele>25.1317</ele>
        <time>2013-04-09T18:22:08Z</time>
      </trkpt>
      <trkpt lat="59.9733301" lon="17.7213742">
        <ele>24.651</ele>
        <time>2013-04-09T18:22:09Z</time>
      </trkpt>
      <trkpt lat="59.9733825" lon="17.7214773">
        <ele>24.651</ele>
        <time>2013-04-09T18:22:10Z</time>
      </trkpt>
      <trkpt lat="59.9734338" lon="17.7215819">
        <ele>24.651</ele>
        <time>2013-04-09T18:22:11Z</time>
      </trkpt>
      <trkpt lat="59.9734839" lon="17.7216895">
        <ele>24.651</ele>
        <time>2013-04-09T18:22:12Z</time>
      </trkpt>
      <trkpt lat="59.9735318" lon="17.7218006">
        <ele>24.651</ele>
        <time>2013-04-09T18:22:13Z</time>
      </trkpt>
      <trkpt lat="59.9735791" lon="17.7219138">
        <ele>24.651</ele>
        <time>2013-04-09T18:22:14Z</time>
      </trkpt>
      <trkpt lat="59.9736253" lon="17.7220296">
        <ele>24.651</ele>
        <time>2013-04-09T18:22:15Z</time>
      </trkpt>
      <trkpt lat="59.9736693" lon="17.7221502">
        <ele>24.651</ele>
        <time>2013-04-09T18:22:16Z</time>
      </trkpt>
      <trkpt lat="59.9737113" lon="17.7222748">
        <ele>24.1703</ele>
        <time>2013-04-09T18:22:17Z</time>
      </trkpt>
      <trkpt lat="59.9737514" lon="17.7224024">
        <ele>24.1703</ele>
        <time>2013-04-09T18:22:18Z</time>
      </trkpt>
      <trkpt lat="59.97379" lon="17.722533">
        <ele>24.1703</ele>
        <time>2013-04-09T18:22:19Z</time>
      </trkpt>
      <trkpt lat="59.9738264" lon="17.7226656">
        <ele>24.1703</ele>
        <time>2013-04-09T18:22:20Z</time>
      </trkpt>
      <trkpt lat="59.973862" lon="17.7227981">
        <ele>24.1703</ele>
        <time>2013-04-09T18:22:21Z</time>
      </trkpt>
      <trkpt lat="59.9738967" lon="17.7229297">
        <ele>24.1703</ele>
        <time>2013-04-09T18:22:22Z</time>
      </trkpt>
      <trkpt lat="59.9739288" lon="17.7230617">
        <ele>24.1703</ele>
        <time>2013-04-09T18:22:23Z</time>
      </trkpt>
      <trkpt lat="59.973957" lon="17.7231958">
        <ele>24.1703</ele>
        <time>2013-04-09T18:22:24Z</time>
      </trkpt>
      <trkpt lat="59.973983" lon="17.723331">
        <ele>24.1703</ele>
        <time>2013-04-09T18:22:25Z</time>
      </trkpt>
      <trkpt lat="59.9740072" lon="17.7234667">
        <ele>24.1703</ele>
        <time>2013-04-09T18:22:26Z</time>
      </trkpt>
      <trkpt lat="59.9740289" lon="17.7236031">
        <ele>24.1703</ele>
        <time>2013-04-09T18:22:27Z</time>
      </trkpt>
      <trkpt lat="59.9740491" lon="17.7237393">
        <ele>24.1703</ele>
        <time>2013-04-09T18:22:28Z</time>
      </trkpt>
      <trkpt lat="59.9740695" lon="17.7238749">
        <ele>24.1703</ele>
        <time>2013-04-09T18:22:29Z</time>
      </trkpt>
      <trkpt lat="59.9740906" lon="17.7240093">
        <ele>24.1703</ele>
        <time>2013-04-09T18:22:30Z</time>
      </trkpt>
      <trkpt lat="59.9741106" lon="17.7241423">
        <ele>24.1703</ele>
        <time>2013-04-09T18:22:31Z</time>
      </trkpt>
      <trkpt lat="59.9741294" lon="17.724274">
        <ele>24.651</ele>
        <time>2013-04-09T18:22:32Z</time>
      </trkpt>
      <trkpt lat="59.9741485" lon="17.7244039">
        <ele>24.651</ele>
        <time>2013-04-09T18:22:33Z</time>
      </trkpt>
      <trkpt lat="59.9741667" lon="17.7245333">
        <ele>24.651</ele>
        <time>2013-04-09T18:22:34Z</time>
      </trkpt>
      <trkpt lat="59.9741842" lon="17.7246621">
        <ele>24.651</ele>
        <time>2013-04-09T18:22:35Z</time>
      </trkpt>
      <trkpt lat="59.9742024" lon="17.7247901">
        <ele>24.1703</ele>
        <time>2013-04-09T18:22:36Z</time>
      </trkpt>
      <trkpt lat="59.9742206" lon="17.7249168">
        <ele>24.1703</ele>
        <time>2013-04-09T18:22:37Z</time>
      </trkpt>
      <trkpt lat="59.9742388" lon="17.7250422">
        <ele>24.651</ele>
        <time>2013-04-09T18:22:38Z</time>
      </trkpt>
      <trkpt lat="59.9742558" lon="17.725167">
        <ele>24.1703</ele>
        <time>2013-04-09T18:22:39Z</time>
      </trkpt>
      <trkpt lat="59.9742714" lon="17.7252909">
        <ele>24.1703</ele>
        <time>2013-04-09T18:22:40Z</time>
      </trkpt>
      <trkpt lat="59.9742857" lon="17.7254141">
        <ele>24.1703</ele>
        <time>2013-04-09T18:22:41Z</time>
      </trkpt>
      <trkpt lat="59.9742981" lon="17.7255369">
        <ele>24.1703</ele>
        <time>2013-04-09T18:22:42Z</time>
      </trkpt>
      <trkpt lat="59.9743083" lon="17.7256592">
        <ele>24.1703</ele>
        <time>2013-04-09T18:22:43Z</time>
      </trkpt>
      <trkpt lat="59.9743183" lon="17.7257809">
        <ele>24.1703</ele>
        <time>2013-04-09T18:22:44Z</time>
      </trkpt>
      <trkpt lat="59.974328" lon="17.7259015">
        <ele>24.1703</ele>
        <time>2013-04-09T18:22:45Z</time>
      </trkpt>
      <trkpt lat="59.9743361" lon="17.7260216">
        <ele>24.1703</ele>
        <time>2013-04-09T18:22:46Z</time>
      </trkpt>
      <trkpt lat="59.9743434" lon="17.7261428">
        <ele>24.1703</ele>
        <time>2013-04-09T18:22:47Z</time>
      </trkpt>
      <trkpt lat="59.9743495" lon="17.7262645">
        <ele>24.1703</ele>
        <time>2013-04-09T18:22:48Z</time>
      </trkpt>
      <trkpt lat="59.9743537" lon="17.7263859">
        <ele>24.1703</ele>
        <time>2013-04-09T18:22:49Z</time>
      </trkpt>
      <trkpt lat="59.9743574" lon="17.7265075">
        <ele>24.1703</ele>
        <time>2013-04-09T18:22:50Z</time>
      </trkpt>
      <trkpt lat="59.974361" lon="17.7266298">
        <ele>24.1703</ele>
        <time>2013-04-09T18:22:51Z</time>
      </trkpt>
      <trkpt lat="59.9743646" lon="17.7267527">
        <ele>23.6896</ele>
        <time>2013-04-09T18:22:52Z</time>
      </trkpt>
      <trkpt lat="59.9743686" lon="17.726876">
        <ele>23.6896</ele>
        <time>2013-04-09T18:22:53Z</time>
      </trkpt>
      <trkpt lat="59.9743712" lon="17.7270007">
        <ele>23.6896</ele>
        <time>2013-04-09T18:22:54Z</time>
      </trkpt>
      <trkpt lat="59.9743732" lon="17.7271272">
        <ele>23.209</ele>
        <time>2013-04-09T18:22:55Z</time>
      </trkpt>
      <trkpt lat="59.9743754" lon="17.727257">
        <ele>23.209</ele>
        <time>2013-04-09T18:22:56Z</time>
      </trkpt>
      <trkpt lat="59.9743781" lon="17.7273896">
        <ele>23.209</ele>
        <time>2013-04-09T18:22:57Z</time>
      </trkpt>
      <trkpt lat="59.9743816" lon="17.727525">
        <ele>22.7283</ele>
        <time>2013-04-09T18:22:58Z</time>
      </trkpt>
      <trkpt lat="59.9743848" lon="17.7276631">
        <ele>22.7283</ele>
        <time>2013-04-09T18:22:59Z</time>
      </trkpt>
      <trkpt lat="59.9743878" lon="17.7278042">
        <ele>22.2476</ele>
        <time>2013-04-09T18:23:00Z</time>
      </trkpt>
      <trkpt lat="59.9743905" lon="17.7279477">
        <ele>22.2476</ele>
        <time>2013-04-09T18:23:01Z</time>
      </trkpt>
      <trkpt lat="59.9743929" lon="17.7280924">
        <ele>22.2476</ele>
        <time>2013-04-09T18:23:02Z</time>
      </trkpt>
      <trkpt lat="59.9743956" lon="17.7282371">
        <ele>22.2476</ele>
        <time>2013-04-09T18:23:03Z</time>
      </trkpt>
      <trkpt lat="59.9743993" lon="17.7283811">
        <ele>22.2476</ele>
        <time>2013-04-09T18:23:04Z</time>
      </trkpt>
      <trkpt lat="59.9744048" lon="17.7285238">
        <ele>22.2476</ele>
        <time>2013-04-09T18:23:05Z</time>
      </trkpt>
      <trkpt lat="59.9744107" lon="17.7286656">
        <ele>22.2476</ele>
        <time>2013-04-09T18:23:06Z</time>
      </trkpt>
      <trkpt lat="59.974416" lon="17.7288056">
        <ele>22.2476</ele>
        <time>2013-04-09T18:23:07Z</time>
      </trkpt>
      <trkpt lat="59.9744202" lon="17.7289442">
        <ele>22.2476</ele>
        <time>2013-04-09T18:23:08Z</time>
      </trkpt>
      <trkpt lat="59.9744242" lon="17.7290812">
        <ele>22.2476</ele>
        <time>2013-04-09T18:23:09Z</time>
      </trkpt>
      <trkpt lat="59.9744278" lon="17.7292172">
        <ele>22.2476</ele>
        <time>2013-04-09T18:23:10Z</time>
      </trkpt>
      <trkpt lat="59.9744297" lon="17.7293521">
        <ele>22.2476</ele>
        <time>2013-04-09T18:23:11Z</time>
      </trkpt>
      <trkpt lat="59.9744281" lon="17.7294862">
        <ele>22.2476</ele>
        <time>2013-04-09T18:23:12Z</time>
      </trkpt>
      <trkpt lat="59.9744236" lon="17.7296183">
        <ele>22.2476</ele>
        <time>2013-04-09T18:23:13Z</time>
      </trkpt>
      <trkpt lat="59.974417" lon="17.7297487">
        <ele>22.2476</ele>
        <time>2013-04-09T18:23:14Z</time>
      </trkpt>
      <trkpt lat="59.9744088" lon="17.7298773">
        <ele>22.2476</ele>
        <time>2013-04-09T18:23:15Z</time>
      </trkpt>
      <trkpt lat="59.9744004" lon="17.7300048">
        <ele>22.2476</ele>
        <time>2013-04-09T18:23:16Z</time>
      </trkpt>
      <trkpt lat="59.974392" lon="17.7301311">
        <ele>22.2476</ele>
        <time>2013-04-09T18:23:17Z</time>
      </trkpt>
      <trkpt lat="59.9743824" lon="17.7302574">
        <ele>22.2476</ele>
        <time>2013-04-09T18:23:18Z</time>
      </trkpt>
      <trkpt lat="59.9743712" lon="17.730384">
        <ele>22.2476</ele>
        <time>2013-04-09T18:23:19Z</time>
      </trkpt>
      <trkpt lat="59.9743583" lon="17.7305106">
        <ele>22.2476</ele>
        <time>2013-04-09T18:23:20Z</time>
      </trkpt>
      <trkpt lat="59.974346" lon="17.7306381">
        <ele>22.2476</ele>
        <time>2013-04-09T18:23:21Z</time>
      </trkpt>
      <trkpt lat="59.9743359" lon="17.7307668">
        <ele>22.2476</ele>
        <time>2013-04-09T18:23:22Z</time>
      </trkpt>
      <trkpt lat="59.9743276" lon="17.7308957">
        <ele>22.2476</ele>
        <time>2013-04-09T18:23:23Z</time>
      </trkpt>
      <trkpt lat="59.9743211" lon="17.7310242">
        <ele>22.2476</ele>
        <time>2013-04-09T18:23:24Z</time>
      </trkpt>
      <trkpt lat="59.9743159" lon="17.7311523">
        <ele>22.2476</ele>
        <time>2013-04-09T18:23:25Z</time>
      </trkpt>
      <trkpt lat="59.9743108" lon="17.7312804">
        <ele>22.2476</ele>
        <time>2013-04-09T18:23:26Z</time>
      </trkpt>
      <trkpt lat="59.9743064" lon="17.7314085">
        <ele>22.2476</ele>
        <time>2013-04-09T18:23:27Z</time>
      </trkpt>
      <trkpt lat="59.9743036" lon="17.7315368">
        <ele>22.2476</ele>
        <time>2013-04-09T18:23:28Z</time>
      </trkpt>
      <trkpt lat="59.9743028" lon="17.7316654">
        <ele>22.2476</ele>
        <time>2013-04-09T18:23:29Z</time>
      </trkpt>
      <trkpt lat="59.9743029" lon="17.7317937">
        <ele>22.2476</ele>
        <time>2013-04-09T18:23:30Z</time>
      </trkpt>
      <trkpt lat="59.9743045" lon="17.7319219">
        <ele>22.2476</ele>
        <time>2013-04-09T18:23:31Z</time>
      </trkpt>
      <trkpt lat="59.974307" lon="17.73205">
        <ele>21.767</ele>
        <time>2013-04-09T18:23:32Z</time>
      </trkpt>
      <trkpt lat="59.9743095" lon="17.7321783">
        <ele>21.767</ele>
        <time>2013-04-09T18:23:33Z</time>
      </trkpt>
      <trkpt lat="59.9743124" lon="17.7323067">
        <ele>21.767</ele>
        <time>2013-04-09T18:23:34Z</time>
      </trkpt>
      <trkpt lat="59.9743159" lon="17.7324353">
        <ele>21.767</ele>
        <time>2013-04-09T18:23:35Z</time>
      </trkpt>
      <trkpt lat="59.9743189" lon="17.732564">
        <ele>21.767</ele>
        <time>2013-04-09T18:23:36Z</time>
      </trkpt>
      <trkpt lat="59.9743216" lon="17.7326926">
        <ele>21.767</ele>
        <time>2013-04-09T18:23:37Z</time>
      </trkpt>
      <trkpt lat="59.9743232" lon="17.7328212">
        <ele>21.2864</ele>
        <time>2013-04-09T18:23:38Z</time>
      </trkpt>
      <trkpt lat="59.974322" lon="17.7329501">
        <ele>21.2864</ele>
        <time>2013-04-09T18:23:39Z</time>
      </trkpt>
      <trkpt lat="59.9743179" lon="17.7330796">
        <ele>21.2864</ele>
        <time>2013-04-09T18:23:40Z</time>
      </trkpt>
      <trkpt lat="59.9743128" lon="17.7332092">
        <ele>21.2864</ele>
        <time>2013-04-09T18:23:41Z</time>
      </trkpt>
      <trkpt lat="59.9743077" lon="17.7333382">
        <ele>21.2864</ele>
        <time>2013-04-09T18:23:42Z</time>
      </trkpt>
      <trkpt lat="59.9743025" lon="17.7334661">
        <ele>21.2864</ele>
        <time>2013-04-09T18:23:43Z</time>
      </trkpt>
      <trkpt lat="59.9742971" lon="17.7335929">
        <ele>21.2864</ele>
        <time>2013-04-09T18:23:44Z</time>
      </trkpt>
      <trkpt lat="59.9742906" lon="17.7337176">
        <ele>21.2864</ele>
        <time>2013-04-09T18:23:45Z</time>
      </trkpt>
      <trkpt lat="59.9742833" lon="17.7338401">
        <ele>21.2864</ele>
        <time>2013-04-09T18:23:46Z</time>
      </trkpt>
      <trkpt lat="59.9742762" lon="17.7339606">
        <ele>21.2864</ele>
        <time>2013-04-09T18:23:47Z</time>
      </trkpt>
      <trkpt lat="59.9742701" lon="17.73408">
        <ele>21.2864</ele>
        <time>2013-04-09T18:23:48Z</time>
      </trkpt>
      <trkpt lat="59.9742646" lon="17.7341994">
        <ele>21.2864</ele>
        <time>2013-04-09T18:23:49Z</time>
      </trkpt>
      <trkpt lat="59.9742605" lon="17.7343187">
        <ele>21.2864</ele>
        <time>2013-04-09T18:23:50Z</time>
      </trkpt>
      <trkpt lat="59.9742603" lon="17.7344373">
        <ele>21.2864</ele>
        <time>2013-04-09T18:23:51Z</time>
      </trkpt>
      <trkpt lat="59.9742621" lon="17.734555">
        <ele>21.2864</ele>
        <time>2013-04-09T18:23:52Z</time>
      </trkpt>
      <trkpt lat="59.9742655" lon="17.7346721">
        <ele>21.2864</ele>
        <time>2013-04-09T18:23:53Z</time>
      </trkpt>
      <trkpt lat="59.9742704" lon="17.734789">
        <ele>20.8057</ele>
        <time>2013-04-09T18:23:54Z</time>
      </trkpt>
      <trkpt lat="59.9742764" lon="17.734905">
        <ele>20.8057</ele>
        <time>2013-04-09T18:23:55Z</time>
      </trkpt>
      <trkpt lat="59.9742831" lon="17.7350195">
        <ele>20.8057</ele>
        <time>2013-04-09T18:23:56Z</time>
      </trkpt>
      <trkpt lat="59.9742912" lon="17.7351316">
        <ele>20.8057</ele>
        <time>2013-04-09T18:23:57Z</time>
      </trkpt>
      <trkpt lat="59.9743025" lon="17.7352407">
        <ele>21.2864</ele>
        <time>2013-04-09T18:23:58Z</time>
      </trkpt>
      <trkpt lat="59.9743154" lon="17.7353474">
        <ele>21.2864</ele>
        <time>2013-04-09T18:23:59Z</time>
      </trkpt>
      <trkpt lat="59.9743289" lon="17.7354526">
        <ele>21.2864</ele>
        <time>2013-04-09T18:24:00Z</time>
      </trkpt>
      <trkpt lat="59.974343" lon="17.7355567">
        <ele>21.2864</ele>
        <time>2013-04-09T18:24:01Z</time>
      </trkpt>
      <trkpt lat="59.974357" lon="17.7356604">
        <ele>21.2864</ele>
        <time>2013-04-09T18:24:02Z</time>
      </trkpt>
      <trkpt lat="59.9743728" lon="17.7357633">
        <ele>21.2864</ele>
        <time>2013-04-09T18:24:03Z</time>
      </trkpt>
      <trkpt lat="59.9743921" lon="17.7358645">
        <ele>21.2864</ele>
        <time>2013-04-09T18:24:04Z</time>
      </trkpt>
      <trkpt lat="59.9744122" lon="17.735967">
        <ele>21.2864</ele>
        <time>2013-04-09T18:24:05Z</time>
      </trkpt>
      <trkpt lat="59.974432" lon="17.7360711">
        <ele>21.2864</ele>
        <time>2013-04-09T18:24:06Z</time>
      </trkpt>
      <trkpt lat="59.9744518" lon="17.7361758">
        <ele>21.2864</ele>
        <time>2013-04-09T18:24:07Z</time>
      </trkpt>
      <trkpt lat="59.9744723" lon="17.7362813">
        <ele>21.2864</ele>
        <time>2013-04-09T18:24:08Z</time>
      </trkpt>
      <trkpt lat="59.9744952" lon="17.7363857">
        <ele>21.2864</ele>
        <time>2013-04-09T18:24:09Z</time>
      </trkpt>
      <trkpt lat="59.9745219" lon="17.7364876">
        <ele>21.2864</ele>
        <time>2013-04-09T18:24:10Z</time>
      </trkpt>
      <trkpt lat="59.9745504" lon="17.7365884">
        <ele>21.2864</ele>
        <time>2013-04-09T18:24:11Z</time>
      </trkpt>
      <trkpt lat="59.9745794" lon="17.7366886">
        <ele>21.2864</ele>
        <time>2013-04-09T18:24:12Z</time>
      </trkpt>
      <trkpt lat="59.9746098" lon="17.7367875">
        <ele>21.2864</ele>
        <time>2013-04-09T18:24:13Z</time>
      </trkpt>
      <trkpt lat="59.9746419" lon="17.7368848">
        <ele>21.2864</ele>
        <time>2013-04-09T18:24:14Z</time>
      </trkpt>
      <trkpt lat="59.9746744" lon="17.7369813">
        <ele>21.2864</ele>
        <time>2013-04-09T18:24:15Z</time>
      </trkpt>
      <trkpt lat="59.9747085" lon="17.7370756">
        <ele>21.2864</ele>
        <time>2013-04-09T18:24:16Z</time>
      </trkpt>
      <trkpt lat="59.9747442" lon="17.7371666">
        <ele>21.2864</ele>
        <time>2013-04-09T18:24:17Z</time>
      </trkpt>
      <trkpt lat="59.9747802" lon="17.7372551">
        <ele>21.2864</ele>
        <time>2013-04-09T18:24:18Z</time>
      </trkpt>
      <trkpt lat="59.9748168" lon="17.7373402">
        <ele>21.2864</ele>
        <time>2013-04-09T18:24:19Z</time>
      </trkpt>
      <trkpt lat="59.9748536" lon="17.7374217">
        <ele>21.767</ele>
        <time>2013-04-09T18:24:20Z</time>
      </trkpt>
      <trkpt lat="59.9748912" lon="17.7375005">
        <ele>21.767</ele>
        <time>2013-04-09T18:24:21Z</time>
      </trkpt>
      <trkpt lat="59.9749293" lon="17.737576">
        <ele>21.767</ele>
        <time>2013-04-09T18:24:22Z</time>
      </trkpt>
      <trkpt lat="59.974968" lon="17.7376483">
        <ele>21.767</ele>
        <time>2013-04-09T18:24:23Z</time>
      </trkpt>
      <trkpt lat="59.9750059" lon="17.7377215">
        <ele>21.767</ele>
        <time>2013-04-09T18:24:24Z</time>
      </trkpt>
      <trkpt lat="59.9750447" lon="17.7377937">
        <ele>21.767</ele>
        <time>2013-04-09T18:24:25Z</time>
      </trkpt>
      <trkpt lat="59.9750855" lon="17.7378628">
        <ele>21.767</ele>
        <time>2013-04-09T18:24:26Z</time>
      </trkpt>
      <trkpt lat="59.9751265" lon="17.7379322">
        <ele>21.767</ele>
        <time>2013-04-09T18:24:27Z</time>
      </trkpt>
      <trkpt lat="59.9751675" lon="17.7380035">
        <ele>21.767</ele>
        <time>2013-04-09T18:24:28Z</time>
      </trkpt>
      <trkpt lat="59.9752099" lon="17.7380731">
        <ele>21.767</ele>
        <time>2013-04-09T18:24:29Z</time>
      </trkpt>
      <trkpt lat="59.9752544" lon="17.7381401">
        <ele>21.767</ele>
        <time>2013-04-09T18:24:30Z</time>
      </trkpt>
      <trkpt lat="59.9752989" lon="17.7382095">
        <ele>21.767</ele>
        <time>2013-04-09T18:24:31Z</time>
      </trkpt>
      <trkpt lat="59.9753432" lon="17.7382818">
        <ele>21.767</ele>
        <time>2013-04-09T18:24:32Z</time>
      </trkpt>
      <trkpt lat="59.9753882" lon="17.7383551">
        <ele>21.767</ele>
        <time>2013-04-09T18:24:33Z</time>
      </trkpt>
      <trkpt lat="59.9754336" lon="17.7384307">
        <ele>21.767</ele>
        <time>2013-04-09T18:24:34Z</time>
      </trkpt>
      <trkpt lat="59.9754788" lon="17.7385083">
        <ele>21.767</ele>
        <time>2013-04-09T18:24:35Z</time>
      </trkpt>
      <trkpt lat="59.9755234" lon="17.7385882">
        <ele>21.767</ele>
        <time>2013-04-09T18:24:36Z</time>
      </trkpt>
      <trkpt lat="59.9755678" lon="17.7386703">
        <ele>21.767</ele>
        <time>2013-04-09T18:24:37Z</time>
      </trkpt>
      <trkpt lat="59.9756102" lon="17.7387522">
        <ele>21.767</ele>
        <time>2013-04-09T18:24:38Z</time>
      </trkpt>
      <trkpt lat="59.9756544" lon="17.7388343">
        <ele>21.767</ele>
        <time>2013-04-09T18:24:39Z</time>
      </trkpt>
      <trkpt lat="59.9756994" lon="17.7389159">
        <ele>21.767</ele>
        <time>2013-04-09T18:24:40Z</time>
      </trkpt>
      <trkpt lat="59.9757446" lon="17.7389953">
        <ele>21.767</ele>
        <time>2013-04-09T18:24:41Z</time>
      </trkpt>
      <trkpt lat="59.9757881" lon="17.7390703">
        <ele>21.767</ele>
        <time>2013-04-09T18:24:42Z</time>
      </trkpt>
      <trkpt lat="59.9758316" lon="17.7391423">
        <ele>22.2476</ele>
        <time>2013-04-09T18:24:43Z</time>
      </trkpt>
      <trkpt lat="59.9758741" lon="17.7392123">
        <ele>22.2476</ele>
        <time>2013-04-09T18:24:44Z</time>
      </trkpt>
      <trkpt lat="59.975915" lon="17.7392813">
        <ele>22.2476</ele>
        <time>2013-04-09T18:24:45Z</time>
      </trkpt>
      <trkpt lat="59.9759549" lon="17.7393487">
        <ele>22.2476</ele>
        <time>2013-04-09T18:24:46Z</time>
      </trkpt>
      <trkpt lat="59.9759942" lon="17.739413">
        <ele>22.2476</ele>
        <time>2013-04-09T18:24:47Z</time>
      </trkpt>
      <trkpt lat="59.9760321" lon="17.7394732">
        <ele>22.7283</ele>
        <time>2013-04-09T18:24:48Z</time>
      </trkpt>
      <trkpt lat="59.9760694" lon="17.73953">
        <ele>22.7283</ele>
        <time>2013-04-09T18:24:49Z</time>
      </trkpt>
      <trkpt lat="59.976105" lon="17.7395852">
        <ele>23.209</ele>
        <time>2013-04-09T18:24:50Z</time>
      </trkpt>
      <trkpt lat="59.9761394" lon="17.7396356">
        <ele>23.209</ele>
        <time>2013-04-09T18:24:51Z</time>
      </trkpt>
      <trkpt lat="59.9761741" lon="17.7396794">
        <ele>23.6896</ele>
        <time>2013-04-09T18:24:52Z</time>
      </trkpt>
      <trkpt lat="59.9762094" lon="17.7397181">
        <ele>23.6896</ele>
        <time>2013-04-09T18:24:53Z</time>
      </trkpt>
      <trkpt lat="59.976247" lon="17.7397496">
        <ele>24.1703</ele>
        <time>2013-04-09T18:24:54Z</time>
      </trkpt>
      <trkpt lat="59.976287" lon="17.7397675">
        <ele>24.1703</ele>
        <time>2013-04-09T18:24:55Z</time>
      </trkpt>
      <trkpt lat="59.9763284" lon="17.7397681">
        <ele>24.651</ele>
        <time>2013-04-09T18:24:56Z</time>
      </trkpt>
      <trkpt lat="59.9763708" lon="17.7397514">
        <ele>24.1703</ele>
        <time>2013-04-09T18:24:57Z</time>
      </trkpt>
      <trkpt lat="59.9764121" lon="17.7397154">
        <ele>24.1703</ele>
        <time>2013-04-09T18:24:58Z</time>
      </trkpt>
      <trkpt lat="59.9764515" lon="17.7396649">
        <ele>24.1703</ele>
        <time>2013-04-09T18:24:59Z</time>
      </trkpt>
      <trkpt lat="59.9764911" lon="17.7396119">
        <ele>24.1703</ele>
        <time>2013-04-09T18:25:00Z</time>
      </trkpt>
      <trkpt lat="59.9765321" lon="17.7395624">
        <ele>24.1703</ele>
        <time>2013-04-09T18:25:01Z</time>
      </trkpt>
      <trkpt lat="59.9765765" lon="17.7395194">
        <ele>24.1703</ele>
        <time>2013-04-09T18:25:02Z</time>
      </trkpt>
      <trkpt lat="59.9766217" lon="17.7394817">
        <ele>24.651</ele>
        <time>2013-04-09T18:25:03Z</time>
      </trkpt>
      <trkpt lat="59.9766667" lon="17.7394495">
        <ele>24.651</ele>
        <time>2013-04-09T18:25:04Z</time>
      </trkpt>
      <trkpt lat="59.9767107" lon="17.7394222">
        <ele>25.1317</ele>
        <time>2013-04-09T18:25:05Z</time>
      </trkpt>
      <trkpt lat="59.9767545" lon="17.7394005">
        <ele>25.6123</ele>
        <time>2013-04-09T18:25:06Z</time>
      </trkpt>
      <trkpt lat="59.9767967" lon="17.7393828">
        <ele>25.6123</ele>
        <time>2013-04-09T18:25:07Z</time>
      </trkpt>
      <trkpt lat="59.9768376" lon="17.7393678">
        <ele>26.0929</ele>
        <time>2013-04-09T18:25:08Z</time>
      </trkpt>
      <trkpt lat="59.9768785" lon="17.7393541">
        <ele>26.0929</ele>
        <time>2013-04-09T18:25:09Z</time>
      </trkpt>
      <trkpt lat="59.9769188" lon="17.7393408">
        <ele>26.5736</ele>
        <time>2013-04-09T18:25:10Z</time>
      </trkpt>
      <trkpt lat="59.9769599" lon="17.7393268">
        <ele>26.5736</ele>
        <time>2013-04-09T18:25:11Z</time>
      </trkpt>
      <trkpt lat="59.9770013" lon="17.7393104">
        <ele>26.5736</ele>
        <time>2013-04-09T18:25:12Z</time>
      </trkpt>
      <trkpt lat="59.9770427" lon="17.7392927">
        <ele>26.5736</ele>
        <time>2013-04-09T18:25:13Z</time>
      </trkpt>
      <trkpt lat="59.9770848" lon="17.7392746">
        <ele>27.0543</ele>
        <time>2013-04-09T18:25:14Z</time>
      </trkpt>
      <trkpt lat="59.9771272" lon="17.7392549">
        <ele>26.5736</ele>
        <time>2013-04-09T18:25:15Z</time>
      </trkpt>
      <trkpt lat="59.9771686" lon="17.7392314">
        <ele>26.5736</ele>
        <time>2013-04-09T18:25:16Z</time>
      </trkpt>
      <trkpt lat="59.97721" lon="17.7392072">
        <ele>26.5736</ele>
        <time>2013-04-09T18:25:17Z</time>
      </trkpt>
      <trkpt lat="59.9772513" lon="17.7391816">
        <ele>27.0543</ele>
        <time>2013-04-09T18:25:18Z</time>
      </trkpt>
      <trkpt lat="59.9772927" lon="17.7391568">
        <ele>27.0543</ele>
        <time>2013-04-09T18:25:19Z</time>
      </trkpt>
      <trkpt lat="59.9773339" lon="17.7391332">
        <ele>27.5349</ele>
        <time>2013-04-09T18:25:20Z</time>
      </trkpt>
      <trkpt lat="59.9773758" lon="17.7391125">
        <ele>27.5349</ele>
        <time>2013-04-09T18:25:21Z</time>
      </trkpt>
      <trkpt lat="59.9774183" lon="17.7390941">
        <ele>28.0155</ele>
        <time>2013-04-09T18:25:22Z</time>
      </trkpt>
      <trkpt lat="59.9774592" lon="17.739076">
        <ele>28.4962</ele>
        <time>2013-04-09T18:25:23Z</time>
      </trkpt>
      <trkpt lat="59.9774987" lon="17.7390583">
        <ele>28.9769</ele>
        <time>2013-04-09T18:25:24Z</time>
      </trkpt>
      <trkpt lat="59.977537" lon="17.7390461">
        <ele>29.4575</ele>
        <time>2013-04-09T18:25:25Z</time>
      </trkpt>
      <trkpt lat="59.9775737" lon="17.7390399">
        <ele>29.9381</ele>
        <time>2013-04-09T18:25:26Z</time>
      </trkpt>
      <trkpt lat="59.977609" lon="17.7390389">
        <ele>29.9381</ele>
        <time>2013-04-09T18:25:27Z</time>
      </trkpt>
      <trkpt lat="59.9776435" lon="17.7390386">
        <ele>30.4188</ele>
        <time>2013-04-09T18:25:28Z</time>
      </trkpt>
      <trkpt lat="59.9776767" lon="17.7390372">
        <ele>30.8995</ele>
        <time>2013-04-09T18:25:29Z</time>
      </trkpt>
      <trkpt lat="59.9777094" lon="17.7390389">
        <ele>31.3801</ele>
        <time>2013-04-09T18:25:30Z</time>
      </trkpt>
      <trkpt lat="59.9777411" lon="17.7390449">
        <ele>31.3801</ele>
        <time>2013-04-09T18:25:31Z</time>
      </trkpt>
      <trkpt lat="59.9777724" lon="17.7390547">
        <ele>31.8607</ele>
        <time>2013-04-09T18:25:32Z</time>
      </trkpt>
      <trkpt lat="59.9778037" lon="17.7390674">
        <ele>31.8607</ele>
        <time>2013-04-09T18:25:33Z</time>
      </trkpt>
      <trkpt lat="59.9778358" lon="17.7390803">
        <ele>32.3416</ele>
        <time>2013-04-09T18:25:34Z</time>
      </trkpt>
      <trkpt lat="59.9778678" lon="17.7390939">
        <ele>32.3416</ele>
        <time>2013-04-09T18:25:35Z</time>
      </trkpt>
      <trkpt lat="59.9778995" lon="17.7391073">
        <ele>32.8223</ele>
        <time>2013-04-09T18:25:36Z</time>
      </trkpt>
      <trkpt lat="59.9779311" lon="17.7391234">
        <ele>32.8223</ele>
        <time>2013-04-09T18:25:37Z</time>
      </trkpt>
      <trkpt lat="59.9779637" lon="17.7391414">
        <ele>32.8223</ele>
        <time>2013-04-09T18:25:38Z</time>
      </trkpt>
      <trkpt lat="59.9779969" lon="17.7391569">
        <ele>33.3029</ele>
        <time>2013-04-09T18:25:39Z</time>
      </trkpt>
      <trkpt lat="59.9780294" lon="17.739171">
        <ele>33.3029</ele>
        <time>2013-04-09T18:25:40Z</time>
      </trkpt>
      <trkpt lat="59.9780625" lon="17.7391854">
        <ele>33.3029</ele>
        <time>2013-04-09T18:25:41Z</time>
      </trkpt>
      <trkpt lat="59.9780982" lon="17.7391988">
        <ele>33.7834</ele>
        <time>2013-04-09T18:25:42Z</time>
      </trkpt>
      <trkpt lat="59.9781343" lon="17.739212">
        <ele>33.7834</ele>
        <time>2013-04-09T18:25:43Z</time>
      </trkpt>
      <trkpt lat="59.9781704" lon="17.7392233">
        <ele>34.2642</ele>
        <time>2013-04-09T18:25:44Z</time>
      </trkpt>
      <trkpt lat="59.9782075" lon="17.7392304">
        <ele>34.2642</ele>
        <time>2013-04-09T18:25:45Z</time>
      </trkpt>
      <trkpt lat="59.9782455" lon="17.7392402">
        <ele>34.2642</ele>
        <time>2013-04-09T18:25:46Z</time>
      </trkpt>
      <trkpt lat="59.9782843" lon="17.7392511">
        <ele>34.2642</ele>
        <time>2013-04-09T18:25:47Z</time>
      </trkpt>
      <trkpt lat="59.9783256" lon="17.7392604">
        <ele>34.2642</ele>
        <time>2013-04-09T18:25:48Z</time>
      </trkpt>
      <trkpt lat="59.9783667" lon="17.7392704">
        <ele>34.2642</ele>
        <time>2013-04-09T18:25:49Z</time>
      </trkpt>
      <trkpt lat="59.978407" lon="17.7392802">
        <ele>34.2642</ele>
        <time>2013-04-09T18:25:50Z</time>
      </trkpt>
      <trkpt lat="59.9784474" lon="17.7392885">
        <ele>34.2642</ele>
        <time>2013-04-09T18:25:51Z</time>
      </trkpt>
      <trkpt lat="59.9784876" lon="17.7392962">
        <ele>34.2642</ele>
        <time>2013-04-09T18:25:52Z</time>
      </trkpt>
      <trkpt lat="59.978527" lon="17.739303">
        <ele>34.2642</ele>
        <time>2013-04-09T18:25:53Z</time>
      </trkpt>
      <trkpt lat="59.9785671" lon="17.7393087">
        <ele>34.7449</ele>
        <time>2013-04-09T18:25:54Z</time>
      </trkpt>
      <trkpt lat="59.9786097" lon="17.7393088">
        <ele>34.7449</ele>
        <time>2013-04-09T18:25:55Z</time>
      </trkpt>
      <trkpt lat="59.9786539" lon="17.7393067">
        <ele>34.7449</ele>
        <time>2013-04-09T18:25:56Z</time>
      </trkpt>
      <trkpt lat="59.9786993" lon="17.7393107">
        <ele>35.2255</ele>
        <time>2013-04-09T18:25:57Z</time>
      </trkpt>
      <trkpt lat="59.9787437" lon="17.7393197">
        <ele>35.2255</ele>
        <time>2013-04-09T18:25:58Z</time>
      </trkpt>
    </trkseg>
  </trk>
</gpx>